<?xml version="1.0" encoding="UTF-8" standalone="no" ?>
<gpx xmlns="http://www.topografix.com/GPX/1/1" xmlns:xsi="http://www.w3.org/2001/XMLSchema-instance" xsi:schemaLocation="http://www.topografix.com/GPX/1/1 http://www.topografix.com/GPX/1/1/gpx.xsd" version="1.1" creator="VisuGPX - https://www.visugpx.com">
  <metadata>
    <name>Day 19: Międzizdroje -&amp;gt; Dźwirzyno</name>
  </metadata>
  <trk>
    <name><![CDATA[Day 19: Międzizdroje -> Dźwirzyno]]></name>
    <extensions>
      <line xmlns="http://www.topografix.com/GPX/gpx_style/0/2">
        <color>0000FF</color>
        <width>4</width>
      </line>
    </extensions>
    <trkseg>
      <trkpt lat="53.92943" lon="14.446">
        <ele>43.970154</ele>
        <time>2024-07-27T07:11:07.419Z</time>
      </trkpt>
      <trkpt lat="53.92936" lon="14.44613">
        <ele>43.970154</ele>
        <time>2024-07-27T07:14:26.680Z</time>
      </trkpt>
      <trkpt lat="53.92932" lon="14.44631">
        <ele>43.970154</ele>
        <time>2024-07-27T07:14:31.552Z</time>
      </trkpt>
      <trkpt lat="53.92929" lon="14.44646">
        <ele>43.970154</ele>
        <time>2024-07-27T07:14:35.571Z</time>
      </trkpt>
      <trkpt lat="53.92926" lon="14.44662">
        <ele>43.970154</ele>
        <time>2024-07-27T07:14:40.561Z</time>
      </trkpt>
      <trkpt lat="53.92922" lon="14.4468">
        <ele>43.970154</ele>
        <time>2024-07-27T07:14:45.565Z</time>
      </trkpt>
      <trkpt lat="53.92918" lon="14.44696">
        <ele>43.970154</ele>
        <time>2024-07-27T07:14:50.558Z</time>
      </trkpt>
      <trkpt lat="53.92907" lon="14.44698">
        <ele>43.970154</ele>
        <time>2024-07-27T07:14:56.546Z</time>
      </trkpt>
      <trkpt lat="53.92898" lon="14.44702">
        <ele>43.970154</ele>
        <time>2024-07-27T07:15:06.549Z</time>
      </trkpt>
      <trkpt lat="53.92893" lon="14.44718">
        <ele>43.895927</ele>
        <time>2024-07-27T07:15:15.562Z</time>
      </trkpt>
      <trkpt lat="53.9289" lon="14.44735">
        <ele>43.685079</ele>
        <time>2024-07-27T07:15:20.555Z</time>
      </trkpt>
      <trkpt lat="53.92886" lon="14.44769">
        <ele>43.270389</ele>
        <time>2024-07-27T07:15:41.562Z</time>
      </trkpt>
      <trkpt lat="53.92883" lon="14.44785">
        <ele>43.068572</ele>
        <time>2024-07-27T07:15:44.550Z</time>
      </trkpt>
      <trkpt lat="53.92879" lon="14.448">
        <ele>42.881847</ele>
        <time>2024-07-27T07:15:47.580Z</time>
      </trkpt>
      <trkpt lat="53.92876" lon="14.44815">
        <ele>42.688194</ele>
        <time>2024-07-27T07:15:51.554Z</time>
      </trkpt>
      <trkpt lat="53.92874" lon="14.44831">
        <ele>42.489924</ele>
        <time>2024-07-27T07:15:56.559Z</time>
      </trkpt>
      <trkpt lat="53.92869" lon="14.44849">
        <ele>42.259202</ele>
        <time>2024-07-27T07:16:01.571Z</time>
      </trkpt>
      <trkpt lat="53.92868" lon="14.44866">
        <ele>42.055244</ele>
        <time>2024-07-27T07:16:06.561Z</time>
      </trkpt>
      <trkpt lat="53.9286" lon="14.4488">
        <ele>41.830752</ele>
        <time>2024-07-27T07:16:12.550Z</time>
      </trkpt>
      <trkpt lat="53.92856" lon="14.44898">
        <ele>41.592078</ele>
        <time>2024-07-27T07:16:16.557Z</time>
      </trkpt>
      <trkpt lat="53.92853" lon="14.44915">
        <ele>41.386563</ele>
        <time>2024-07-27T07:16:19.561Z</time>
      </trkpt>
      <trkpt lat="53.92851" lon="14.44931">
        <ele>41.190891</ele>
        <time>2024-07-27T07:16:22.558Z</time>
      </trkpt>
      <trkpt lat="53.92849" lon="14.44948">
        <ele>40.990453</ele>
        <time>2024-07-27T07:16:25.565Z</time>
      </trkpt>
      <trkpt lat="53.92846" lon="14.44965">
        <ele>40.781806</ele>
        <time>2024-07-27T07:16:28.542Z</time>
      </trkpt>
      <trkpt lat="53.92844" lon="14.4498">
        <ele>40.593028</ele>
        <time>2024-07-27T07:16:31.568Z</time>
      </trkpt>
      <trkpt lat="53.92842" lon="14.44996">
        <ele>40.403093</ele>
        <time>2024-07-27T07:16:34.561Z</time>
      </trkpt>
      <trkpt lat="53.9284" lon="14.45011">
        <ele>40.366372</ele>
        <time>2024-07-27T07:16:37.570Z</time>
      </trkpt>
      <trkpt lat="53.92835" lon="14.45026">
        <ele>40.400095</ele>
        <time>2024-07-27T07:16:40.585Z</time>
      </trkpt>
      <trkpt lat="53.92826" lon="14.45033">
        <ele>40.433194</ele>
        <time>2024-07-27T07:16:45.565Z</time>
      </trkpt>
      <trkpt lat="53.92816" lon="14.45027">
        <ele>40.467342</ele>
        <time>2024-07-27T07:16:50.554Z</time>
      </trkpt>
      <trkpt lat="53.92807" lon="14.45019">
        <ele>40.501457</ele>
        <time>2024-07-27T07:16:55.555Z</time>
      </trkpt>
      <trkpt lat="53.92798" lon="14.4503">
        <ele>40.537998</ele>
        <time>2024-07-27T07:17:05.549Z</time>
      </trkpt>
      <trkpt lat="53.92792" lon="14.45041">
        <ele>40.568476</ele>
        <time>2024-07-27T07:17:09.558Z</time>
      </trkpt>
      <trkpt lat="53.92789" lon="14.45056">
        <ele>40.600779</ele>
        <time>2024-07-27T07:17:14.569Z</time>
      </trkpt>
      <trkpt lat="53.92789" lon="14.45073">
        <ele>40.633542</ele>
        <time>2024-07-27T07:17:18.559Z</time>
      </trkpt>
      <trkpt lat="53.92794" lon="14.45089">
        <ele>40.670101</ele>
        <time>2024-07-27T07:17:23.565Z</time>
      </trkpt>
      <trkpt lat="53.92805" lon="14.45109">
        <ele>40.722607</ele>
        <time>2024-07-27T07:18:05.579Z</time>
      </trkpt>
      <trkpt lat="53.92806" lon="14.45125">
        <ele>40.754242</ele>
        <time>2024-07-27T07:18:10.549Z</time>
      </trkpt>
      <trkpt lat="53.92807" lon="14.45144">
        <ele>40.792931</ele>
        <time>2024-07-27T07:18:14.578Z</time>
      </trkpt>
      <trkpt lat="53.92804" lon="14.4516">
        <ele>40.824509</ele>
        <time>2024-07-27T07:18:17.563Z</time>
      </trkpt>
      <trkpt lat="53.928" lon="14.45176">
        <ele>40.859644</ele>
        <time>2024-07-27T07:18:20.549Z</time>
      </trkpt>
      <trkpt lat="53.92793" lon="14.45193">
        <ele>40.899808</ele>
        <time>2024-07-27T07:18:23.551Z</time>
      </trkpt>
      <trkpt lat="53.92787" lon="14.45208">
        <ele>40.935591</ele>
        <time>2024-07-27T07:18:26.560Z</time>
      </trkpt>
      <trkpt lat="53.92782" lon="14.45224">
        <ele>41.169323</ele>
        <time>2024-07-27T07:18:29.547Z</time>
      </trkpt>
      <trkpt lat="53.92778" lon="14.45239">
        <ele>41.469659</ele>
        <time>2024-07-27T07:18:32.561Z</time>
      </trkpt>
      <trkpt lat="53.92773" lon="14.45254">
        <ele>41.772345</ele>
        <time>2024-07-27T07:18:35.562Z</time>
      </trkpt>
      <trkpt lat="53.92769" lon="14.45268">
        <ele>42.064961</ele>
        <time>2024-07-27T07:18:38.620Z</time>
      </trkpt>
      <trkpt lat="53.92763" lon="14.45283">
        <ele>42.393422</ele>
        <time>2024-07-27T07:18:41.558Z</time>
      </trkpt>
      <trkpt lat="53.92758" lon="14.45298">
        <ele>42.703152</ele>
        <time>2024-07-27T07:18:44.554Z</time>
      </trkpt>
      <trkpt lat="53.92753" lon="14.45313">
        <ele>43.017551</ele>
        <time>2024-07-27T07:18:47.569Z</time>
      </trkpt>
      <trkpt lat="53.92748" lon="14.45328">
        <ele>43.332031</ele>
        <time>2024-07-27T07:18:50.562Z</time>
      </trkpt>
      <trkpt lat="53.92743" lon="14.45343">
        <ele>43.645158</ele>
        <time>2024-07-27T07:18:53.557Z</time>
      </trkpt>
      <trkpt lat="53.92738" lon="14.45358">
        <ele>43.940898</ele>
        <time>2024-07-27T07:18:56.561Z</time>
      </trkpt>
      <trkpt lat="53.92734" lon="14.45376">
        <ele>44.293973</ele>
        <time>2024-07-27T07:19:00.568Z</time>
      </trkpt>
      <trkpt lat="53.92741" lon="14.45389">
        <ele>44.614141</ele>
        <time>2024-07-27T07:19:04.561Z</time>
      </trkpt>
      <trkpt lat="53.92749" lon="14.45398">
        <ele>44.911454</ele>
        <time>2024-07-27T07:19:07.554Z</time>
      </trkpt>
      <trkpt lat="53.92759" lon="14.45406">
        <ele>45.241449</ele>
        <time>2024-07-27T07:19:10.571Z</time>
      </trkpt>
      <trkpt lat="53.92768" lon="14.45415">
        <ele>45.561312</ele>
        <time>2024-07-27T07:19:13.573Z</time>
      </trkpt>
      <trkpt lat="53.92776" lon="14.45425">
        <ele>45.870356</ele>
        <time>2024-07-27T07:19:16.559Z</time>
      </trkpt>
      <trkpt lat="53.92783" lon="14.45435">
        <ele>46.166248</ele>
        <time>2024-07-27T07:19:19.545Z</time>
      </trkpt>
      <trkpt lat="53.92791" lon="14.45447">
        <ele>46.495454</ele>
        <time>2024-07-27T07:19:23.555Z</time>
      </trkpt>
      <trkpt lat="53.92799" lon="14.45458">
        <ele>46.997881</ele>
        <time>2024-07-27T07:19:28.592Z</time>
      </trkpt>
      <trkpt lat="53.92808" lon="14.45469">
        <ele>47.539936</ele>
        <time>2024-07-27T07:19:33.556Z</time>
      </trkpt>
      <trkpt lat="53.92816" lon="14.45479">
        <ele>48.031961</ele>
        <time>2024-07-27T07:19:38.542Z</time>
      </trkpt>
      <trkpt lat="53.92824" lon="14.45489">
        <ele>48.520605</ele>
        <time>2024-07-27T07:19:43.583Z</time>
      </trkpt>
      <trkpt lat="53.92833" lon="14.45501">
        <ele>49.073301</ele>
        <time>2024-07-27T07:19:48.581Z</time>
      </trkpt>
      <trkpt lat="53.92841" lon="14.45511">
        <ele>49.601078</ele>
        <time>2024-07-27T07:19:53.542Z</time>
      </trkpt>
      <trkpt lat="53.92848" lon="14.45523">
        <ele>50.089763</ele>
        <time>2024-07-27T07:19:58.544Z</time>
      </trkpt>
      <trkpt lat="53.92856" lon="14.45533">
        <ele>50.563059</ele>
        <time>2024-07-27T07:20:03.558Z</time>
      </trkpt>
      <trkpt lat="53.92862" lon="14.45545">
        <ele>51.012204</ele>
        <time>2024-07-27T07:20:08.572Z</time>
      </trkpt>
      <trkpt lat="53.92868" lon="14.45559">
        <ele>51.51784</ele>
        <time>2024-07-27T07:20:13.558Z</time>
      </trkpt>
      <trkpt lat="53.92874" lon="14.45572">
        <ele>51.982123</ele>
        <time>2024-07-27T07:20:18.550Z</time>
      </trkpt>
      <trkpt lat="53.9288" lon="14.45592">
        <ele>52.653162</ele>
        <time>2024-07-27T07:20:36.558Z</time>
      </trkpt>
      <trkpt lat="53.92884" lon="14.45607">
        <ele>53.1159</ele>
        <time>2024-07-27T07:20:41.565Z</time>
      </trkpt>
      <trkpt lat="53.92889" lon="14.4562">
        <ele>53.562167</ele>
        <time>2024-07-27T07:20:45.579Z</time>
      </trkpt>
      <trkpt lat="53.92895" lon="14.45637">
        <ele>54.143048</ele>
        <time>2024-07-27T07:20:49.553Z</time>
      </trkpt>
      <trkpt lat="53.92899" lon="14.45652">
        <ele>54.617533</ele>
        <time>2024-07-27T07:20:52.556Z</time>
      </trkpt>
      <trkpt lat="53.92904" lon="14.45666">
        <ele>55.076431</ele>
        <time>2024-07-27T07:20:55.567Z</time>
      </trkpt>
      <trkpt lat="53.92908" lon="14.4568">
        <ele>55.492764</ele>
        <time>2024-07-27T07:20:58.572Z</time>
      </trkpt>
      <trkpt lat="53.92914" lon="14.45696">
        <ele>55.986334</ele>
        <time>2024-07-27T07:21:02.539Z</time>
      </trkpt>
      <trkpt lat="53.92918" lon="14.4571">
        <ele>56.373464</ele>
        <time>2024-07-27T07:21:05.574Z</time>
      </trkpt>
      <trkpt lat="53.92923" lon="14.45724">
        <ele>56.780162</ele>
        <time>2024-07-27T07:21:08.544Z</time>
      </trkpt>
      <trkpt lat="53.92928" lon="14.45737">
        <ele>57.173719</ele>
        <time>2024-07-27T07:21:11.564Z</time>
      </trkpt>
      <trkpt lat="53.92934" lon="14.45749">
        <ele>57.577566</ele>
        <time>2024-07-27T07:21:14.541Z</time>
      </trkpt>
      <trkpt lat="53.92941" lon="14.45761">
        <ele>58.007404</ele>
        <time>2024-07-27T07:21:17.576Z</time>
      </trkpt>
      <trkpt lat="53.92949" lon="14.45772">
        <ele>58.437241</ele>
        <time>2024-07-27T07:21:20.573Z</time>
      </trkpt>
      <trkpt lat="53.92957" lon="14.45786">
        <ele>58.949485</ele>
        <time>2024-07-27T07:21:24.571Z</time>
      </trkpt>
      <trkpt lat="53.92964" lon="14.45797">
        <ele>59.346502</ele>
        <time>2024-07-27T07:21:27.584Z</time>
      </trkpt>
      <trkpt lat="53.92971" lon="14.45807">
        <ele>59.74184</ele>
        <time>2024-07-27T07:21:30.561Z</time>
      </trkpt>
      <trkpt lat="53.92979" lon="14.45821">
        <ele>60.221286</ele>
        <time>2024-07-27T07:21:34.553Z</time>
      </trkpt>
      <trkpt lat="53.9299" lon="14.45836">
        <ele>60.813385</ele>
        <time>2024-07-27T07:22:30.550Z</time>
      </trkpt>
      <trkpt lat="53.92996" lon="14.45847">
        <ele>61.218187</ele>
        <time>2024-07-27T07:22:35.578Z</time>
      </trkpt>
      <trkpt lat="53.93003" lon="14.45859">
        <ele>61.625201</ele>
        <time>2024-07-27T07:22:39.562Z</time>
      </trkpt>
      <trkpt lat="53.93009" lon="14.4587">
        <ele>62.021047</ele>
        <time>2024-07-27T07:22:43.558Z</time>
      </trkpt>
      <trkpt lat="53.93016" lon="14.45881">
        <ele>62.423906</ele>
        <time>2024-07-27T07:22:47.578Z</time>
      </trkpt>
      <trkpt lat="53.93023" lon="14.45893">
        <ele>62.864101</ele>
        <time>2024-07-27T07:22:51.582Z</time>
      </trkpt>
      <trkpt lat="53.93031" lon="14.45905">
        <ele>63.13175</ele>
        <time>2024-07-27T07:22:55.563Z</time>
      </trkpt>
      <trkpt lat="53.93039" lon="14.45917">
        <ele>63.320926</ele>
        <time>2024-07-27T07:22:59.546Z</time>
      </trkpt>
      <trkpt lat="53.93047" lon="14.4593">
        <ele>63.512227</ele>
        <time>2024-07-27T07:23:03.560Z</time>
      </trkpt>
      <trkpt lat="53.93054" lon="14.45942">
        <ele>63.685068</ele>
        <time>2024-07-27T07:23:07.563Z</time>
      </trkpt>
      <trkpt lat="53.93061" lon="14.45954">
        <ele>63.854551</ele>
        <time>2024-07-27T07:23:11.567Z</time>
      </trkpt>
      <trkpt lat="53.93067" lon="14.45966">
        <ele>64.026335</ele>
        <time>2024-07-27T07:23:15.564Z</time>
      </trkpt>
      <trkpt lat="53.93075" lon="14.45979">
        <ele>64.213682</ele>
        <time>2024-07-27T07:23:19.566Z</time>
      </trkpt>
      <trkpt lat="53.93083" lon="14.4599">
        <ele>64.383647</ele>
        <time>2024-07-27T07:23:23.565Z</time>
      </trkpt>
      <trkpt lat="53.93084" lon="14.4599">
        <ele>64.406312</ele>
        <time>2024-07-27T07:24:06.783Z</time>
      </trkpt>
      <trkpt lat="53.93092" lon="14.45979">
        <ele>64.582232</ele>
        <time>2024-07-27T07:24:41.562Z</time>
      </trkpt>
      <trkpt lat="53.93084" lon="14.46">
        <ele>64.833216</ele>
        <time>2024-07-27T07:24:44.557Z</time>
      </trkpt>
      <trkpt lat="53.93091" lon="14.46012">
        <ele>64.9958</ele>
        <time>2024-07-27T07:24:59.548Z</time>
      </trkpt>
      <trkpt lat="53.93098" lon="14.46024">
        <ele>65.172931</ele>
        <time>2024-07-27T07:25:03.534Z</time>
      </trkpt>
      <trkpt lat="53.93104" lon="14.46038">
        <ele>65.346795</ele>
        <time>2024-07-27T07:25:07.555Z</time>
      </trkpt>
      <trkpt lat="53.93109" lon="14.46052">
        <ele>65.517402</ele>
        <time>2024-07-27T07:25:11.560Z</time>
      </trkpt>
      <trkpt lat="53.93115" lon="14.46066">
        <ele>65.694353</ele>
        <time>2024-07-27T07:25:15.564Z</time>
      </trkpt>
      <trkpt lat="53.93121" lon="14.4608">
        <ele>65.881826</ele>
        <time>2024-07-27T07:25:20.555Z</time>
      </trkpt>
      <trkpt lat="53.93127" lon="14.46093">
        <ele>66.050952</ele>
        <time>2024-07-27T07:25:25.564Z</time>
      </trkpt>
      <trkpt lat="53.93132" lon="14.46107">
        <ele>66.356773</ele>
        <time>2024-07-27T07:25:29.563Z</time>
      </trkpt>
      <trkpt lat="53.93138" lon="14.4612">
        <ele>66.857145</ele>
        <time>2024-07-27T07:25:33.565Z</time>
      </trkpt>
      <trkpt lat="53.93145" lon="14.46134">
        <ele>67.381179</ele>
        <time>2024-07-27T07:25:37.584Z</time>
      </trkpt>
      <trkpt lat="53.9315" lon="14.46148">
        <ele>67.912074</ele>
        <time>2024-07-27T07:25:41.565Z</time>
      </trkpt>
      <trkpt lat="53.93156" lon="14.46164">
        <ele>68.480262</ele>
        <time>2024-07-27T07:25:45.566Z</time>
      </trkpt>
      <trkpt lat="53.93162" lon="14.46178">
        <ele>69.004295</ele>
        <time>2024-07-27T07:25:49.557Z</time>
      </trkpt>
      <trkpt lat="53.9317" lon="14.4619">
        <ele>69.532199</ele>
        <time>2024-07-27T07:25:53.553Z</time>
      </trkpt>
      <trkpt lat="53.93176" lon="14.46205">
        <ele>70.085483</ele>
        <time>2024-07-27T07:25:58.565Z</time>
      </trkpt>
      <trkpt lat="53.93183" lon="14.46219">
        <ele>70.624648</ele>
        <time>2024-07-27T07:26:03.562Z</time>
      </trkpt>
      <trkpt lat="53.9319" lon="14.46233">
        <ele>71.176774</ele>
        <time>2024-07-27T07:26:07.554Z</time>
      </trkpt>
      <trkpt lat="53.93197" lon="14.46245">
        <ele>71.689784</ele>
        <time>2024-07-27T07:26:11.569Z</time>
      </trkpt>
      <trkpt lat="53.93203" lon="14.46256">
        <ele>72.166199</ele>
        <time>2024-07-27T07:26:15.555Z</time>
      </trkpt>
      <trkpt lat="53.93209" lon="14.46268">
        <ele>72.642513</ele>
        <time>2024-07-27T07:26:19.568Z</time>
      </trkpt>
      <trkpt lat="53.93216" lon="14.46281">
        <ele>73.167684</ele>
        <time>2024-07-27T07:26:25.554Z</time>
      </trkpt>
      <trkpt lat="53.93221" lon="14.46295">
        <ele>73.659544</ele>
        <time>2024-07-27T07:26:30.555Z</time>
      </trkpt>
      <trkpt lat="53.93226" lon="14.4631">
        <ele>74.168149</ele>
        <time>2024-07-27T07:26:35.561Z</time>
      </trkpt>
      <trkpt lat="53.93229" lon="14.46327">
        <ele>74.722715</ele>
        <time>2024-07-27T07:26:40.552Z</time>
      </trkpt>
      <trkpt lat="53.9323" lon="14.46343">
        <ele>75.213922</ele>
        <time>2024-07-27T07:26:45.555Z</time>
      </trkpt>
      <trkpt lat="53.9323" lon="14.46359">
        <ele>75.531132</ele>
        <time>2024-07-27T07:26:50.562Z</time>
      </trkpt>
      <trkpt lat="53.9323" lon="14.46377">
        <ele>75.803107</ele>
        <time>2024-07-27T07:26:56.542Z</time>
      </trkpt>
      <trkpt lat="53.93229" lon="14.46393">
        <ele>76.051329</ele>
        <time>2024-07-27T07:27:01.571Z</time>
      </trkpt>
      <trkpt lat="53.93229" lon="14.46409">
        <ele>76.303748</ele>
        <time>2024-07-27T07:27:06.563Z</time>
      </trkpt>
      <trkpt lat="53.9323" lon="14.46427">
        <ele>76.590476</ele>
        <time>2024-07-27T07:27:11.558Z</time>
      </trkpt>
      <trkpt lat="53.9323" lon="14.46445">
        <ele>76.86841</ele>
        <time>2024-07-27T07:27:15.558Z</time>
      </trkpt>
      <trkpt lat="53.93231" lon="14.46464">
        <ele>77.162683</ele>
        <time>2024-07-27T07:27:19.568Z</time>
      </trkpt>
      <trkpt lat="53.9323" lon="14.46481">
        <ele>77.415267</ele>
        <time>2024-07-27T07:27:23.563Z</time>
      </trkpt>
      <trkpt lat="53.93231" lon="14.46498">
        <ele>77.689924</ele>
        <time>2024-07-27T07:27:27.562Z</time>
      </trkpt>
      <trkpt lat="53.93231" lon="14.46519">
        <ele>78.005778</ele>
        <time>2024-07-27T07:27:31.567Z</time>
      </trkpt>
      <trkpt lat="53.93231" lon="14.46534">
        <ele>78.24908</ele>
        <time>2024-07-27T07:27:34.569Z</time>
      </trkpt>
      <trkpt lat="53.9323" lon="14.46555">
        <ele>78.56829</ele>
        <time>2024-07-27T07:27:38.583Z</time>
      </trkpt>
      <trkpt lat="53.93231" lon="14.4657">
        <ele>78.805697</ele>
        <time>2024-07-27T07:27:41.581Z</time>
      </trkpt>
      <trkpt lat="53.93231" lon="14.46589">
        <ele>79.093779</ele>
        <time>2024-07-27T07:27:45.570Z</time>
      </trkpt>
      <trkpt lat="53.93231" lon="14.46607">
        <ele>79.377158</ele>
        <time>2024-07-27T07:27:49.570Z</time>
      </trkpt>
      <trkpt lat="53.93232" lon="14.46625">
        <ele>79.652004</ele>
        <time>2024-07-27T07:27:53.568Z</time>
      </trkpt>
      <trkpt lat="53.93233" lon="14.46641">
        <ele>79.901725</ele>
        <time>2024-07-27T07:27:57.568Z</time>
      </trkpt>
      <trkpt lat="53.93234" lon="14.46657">
        <ele>80.210761</ele>
        <time>2024-07-27T07:28:00.553Z</time>
      </trkpt>
      <trkpt lat="53.93235" lon="14.46673">
        <ele>80.706615</ele>
        <time>2024-07-27T07:28:03.565Z</time>
      </trkpt>
      <trkpt lat="53.93236" lon="14.4669">
        <ele>81.22578</ele>
        <time>2024-07-27T07:28:07.549Z</time>
      </trkpt>
      <trkpt lat="53.93235" lon="14.46707">
        <ele>81.767252</ele>
        <time>2024-07-27T07:28:11.553Z</time>
      </trkpt>
      <trkpt lat="53.93237" lon="14.46725">
        <ele>82.317261</ele>
        <time>2024-07-27T07:28:15.562Z</time>
      </trkpt>
      <trkpt lat="53.93238" lon="14.46742">
        <ele>82.84258</ele>
        <time>2024-07-27T07:28:19.546Z</time>
      </trkpt>
      <trkpt lat="53.93239" lon="14.46759">
        <ele>83.395651</ele>
        <time>2024-07-27T07:28:23.551Z</time>
      </trkpt>
      <trkpt lat="53.93242" lon="14.46776">
        <ele>83.935133</ele>
        <time>2024-07-27T07:28:27.579Z</time>
      </trkpt>
      <trkpt lat="53.93244" lon="14.46795">
        <ele>84.524621</ele>
        <time>2024-07-27T07:28:32.563Z</time>
      </trkpt>
      <trkpt lat="53.93246" lon="14.46811">
        <ele>85.024452</ele>
        <time>2024-07-27T07:28:36.571Z</time>
      </trkpt>
      <trkpt lat="53.93247" lon="14.46829">
        <ele>85.603158</ele>
        <time>2024-07-27T07:28:41.552Z</time>
      </trkpt>
      <trkpt lat="53.93249" lon="14.46848">
        <ele>86.172084</ele>
        <time>2024-07-27T07:28:46.556Z</time>
      </trkpt>
      <trkpt lat="53.9325" lon="14.46864">
        <ele>86.690012</ele>
        <time>2024-07-27T07:28:51.556Z</time>
      </trkpt>
      <trkpt lat="53.93251" lon="14.46881">
        <ele>87.213305</ele>
        <time>2024-07-27T07:28:55.555Z</time>
      </trkpt>
      <trkpt lat="53.93252" lon="14.46899">
        <ele>87.771223</ele>
        <time>2024-07-27T07:29:00.548Z</time>
      </trkpt>
      <trkpt lat="53.93253" lon="14.46916">
        <ele>88.297694</ele>
        <time>2024-07-27T07:29:04.554Z</time>
      </trkpt>
      <trkpt lat="53.93256" lon="14.46934">
        <ele>88.880569</ele>
        <time>2024-07-27T07:29:08.560Z</time>
      </trkpt>
      <trkpt lat="53.93256" lon="14.46951">
        <ele>89.409855</ele>
        <time>2024-07-27T07:29:12.554Z</time>
      </trkpt>
      <trkpt lat="53.93257" lon="14.46968">
        <ele>89.503951</ele>
        <time>2024-07-27T07:29:16.567Z</time>
      </trkpt>
      <trkpt lat="53.93257" lon="14.46986">
        <ele>89.447341</ele>
        <time>2024-07-27T07:29:20.558Z</time>
      </trkpt>
      <trkpt lat="53.93259" lon="14.47004">
        <ele>89.391194</ele>
        <time>2024-07-27T07:29:24.537Z</time>
      </trkpt>
      <trkpt lat="53.9326" lon="14.47022">
        <ele>89.334244</ele>
        <time>2024-07-27T07:29:28.575Z</time>
      </trkpt>
      <trkpt lat="53.93261" lon="14.47038">
        <ele>89.281978</ele>
        <time>2024-07-27T07:29:32.551Z</time>
      </trkpt>
      <trkpt lat="53.93262" lon="14.47056">
        <ele>89.226796</ele>
        <time>2024-07-27T07:29:36.556Z</time>
      </trkpt>
      <trkpt lat="53.93263" lon="14.47072">
        <ele>89.174435</ele>
        <time>2024-07-27T07:29:40.549Z</time>
      </trkpt>
      <trkpt lat="53.93262" lon="14.47089">
        <ele>89.122289</ele>
        <time>2024-07-27T07:29:44.551Z</time>
      </trkpt>
      <trkpt lat="53.93261" lon="14.47105">
        <ele>89.070503</ele>
        <time>2024-07-27T07:29:48.579Z</time>
      </trkpt>
      <trkpt lat="53.93259" lon="14.47122">
        <ele>89.015583</ele>
        <time>2024-07-27T07:29:52.553Z</time>
      </trkpt>
      <trkpt lat="53.93256" lon="14.47138">
        <ele>88.963675</ele>
        <time>2024-07-27T07:29:56.549Z</time>
      </trkpt>
      <trkpt lat="53.93255" lon="14.47155">
        <ele>88.909993</ele>
        <time>2024-07-27T07:29:59.572Z</time>
      </trkpt>
      <trkpt lat="53.93253" lon="14.47172">
        <ele>88.855903</ele>
        <time>2024-07-27T07:30:02.538Z</time>
      </trkpt>
      <trkpt lat="53.93251" lon="14.47188">
        <ele>88.804037</ele>
        <time>2024-07-27T07:30:05.568Z</time>
      </trkpt>
      <trkpt lat="53.93249" lon="14.47208">
        <ele>88.740659</ele>
        <time>2024-07-27T07:30:09.559Z</time>
      </trkpt>
      <trkpt lat="53.93248" lon="14.47225">
        <ele>88.68883</ele>
        <time>2024-07-27T07:30:12.549Z</time>
      </trkpt>
      <trkpt lat="53.93247" lon="14.47242">
        <ele>88.634087</ele>
        <time>2024-07-27T07:30:15.570Z</time>
      </trkpt>
      <trkpt lat="53.93247" lon="14.4726">
        <ele>88.556596</ele>
        <time>2024-07-27T07:30:18.545Z</time>
      </trkpt>
      <trkpt lat="53.93248" lon="14.47278">
        <ele>88.343797</ele>
        <time>2024-07-27T07:30:21.553Z</time>
      </trkpt>
      <trkpt lat="53.93248" lon="14.47294">
        <ele>88.163849</ele>
        <time>2024-07-27T07:30:24.561Z</time>
      </trkpt>
      <trkpt lat="53.9325" lon="14.47309">
        <ele>87.98014</ele>
        <time>2024-07-27T07:30:27.557Z</time>
      </trkpt>
      <trkpt lat="53.9325" lon="14.47325">
        <ele>87.796116</ele>
        <time>2024-07-27T07:30:30.554Z</time>
      </trkpt>
      <trkpt lat="53.93251" lon="14.47342">
        <ele>87.59764</ele>
        <time>2024-07-27T07:30:33.544Z</time>
      </trkpt>
      <trkpt lat="53.93253" lon="14.47359">
        <ele>87.390295</ele>
        <time>2024-07-27T07:30:36.565Z</time>
      </trkpt>
      <trkpt lat="53.93255" lon="14.47376">
        <ele>87.193675</ele>
        <time>2024-07-27T07:30:39.552Z</time>
      </trkpt>
      <trkpt lat="53.93257" lon="14.47392">
        <ele>87.000488</ele>
        <time>2024-07-27T07:30:42.563Z</time>
      </trkpt>
      <trkpt lat="53.93259" lon="14.47411">
        <ele>86.76778</ele>
        <time>2024-07-27T07:30:46.553Z</time>
      </trkpt>
      <trkpt lat="53.93262" lon="14.4743">
        <ele>86.54449</ele>
        <time>2024-07-27T07:30:50.562Z</time>
      </trkpt>
      <trkpt lat="53.93264" lon="14.47445">
        <ele>86.358258</ele>
        <time>2024-07-27T07:30:53.582Z</time>
      </trkpt>
      <trkpt lat="53.93267" lon="14.47464">
        <ele>86.127868</ele>
        <time>2024-07-27T07:30:57.577Z</time>
      </trkpt>
      <trkpt lat="53.93269" lon="14.47484">
        <ele>85.895161</ele>
        <time>2024-07-27T07:31:01.566Z</time>
      </trkpt>
      <trkpt lat="53.93271" lon="14.47501">
        <ele>85.692636</ele>
        <time>2024-07-27T07:31:05.566Z</time>
      </trkpt>
      <trkpt lat="53.9327" lon="14.47518">
        <ele>85.485837</ele>
        <time>2024-07-27T07:31:09.558Z</time>
      </trkpt>
      <trkpt lat="53.93271" lon="14.47537">
        <ele>85.270337</ele>
        <time>2024-07-27T07:31:13.548Z</time>
      </trkpt>
      <trkpt lat="53.93271" lon="14.47556">
        <ele>85.044236</ele>
        <time>2024-07-27T07:31:17.561Z</time>
      </trkpt>
      <trkpt lat="53.93272" lon="14.47576">
        <ele>85.190228</ele>
        <time>2024-07-27T07:31:21.572Z</time>
      </trkpt>
      <trkpt lat="53.93273" lon="14.47595">
        <ele>85.407217</ele>
        <time>2024-07-27T07:31:25.547Z</time>
      </trkpt>
      <trkpt lat="53.93275" lon="14.4761">
        <ele>85.58169</ele>
        <time>2024-07-27T07:31:28.583Z</time>
      </trkpt>
      <trkpt lat="53.93276" lon="14.47625">
        <ele>85.758598</ele>
        <time>2024-07-27T07:31:31.581Z</time>
      </trkpt>
      <trkpt lat="53.93276" lon="14.47642">
        <ele>85.94422</ele>
        <time>2024-07-27T07:31:34.558Z</time>
      </trkpt>
      <trkpt lat="53.93276" lon="14.47658">
        <ele>86.131092</ele>
        <time>2024-07-27T07:31:37.564Z</time>
      </trkpt>
      <trkpt lat="53.93278" lon="14.47673">
        <ele>86.30765</ele>
        <time>2024-07-27T07:31:40.551Z</time>
      </trkpt>
      <trkpt lat="53.93279" lon="14.47691">
        <ele>86.512528</ele>
        <time>2024-07-27T07:31:44.566Z</time>
      </trkpt>
      <trkpt lat="53.9328" lon="14.47709">
        <ele>86.716393</ele>
        <time>2024-07-27T07:31:48.582Z</time>
      </trkpt>
      <trkpt lat="53.93282" lon="14.47728">
        <ele>86.926803</ele>
        <time>2024-07-27T07:31:52.568Z</time>
      </trkpt>
      <trkpt lat="53.93282" lon="14.47744">
        <ele>87.108226</ele>
        <time>2024-07-27T07:31:56.552Z</time>
      </trkpt>
      <trkpt lat="53.93282" lon="14.4776">
        <ele>87.290576</ele>
        <time>2024-07-27T07:32:00.558Z</time>
      </trkpt>
      <trkpt lat="53.93282" lon="14.47778">
        <ele>87.498799</ele>
        <time>2024-07-27T07:32:05.559Z</time>
      </trkpt>
      <trkpt lat="53.9328" lon="14.47796">
        <ele>87.701156</ele>
        <time>2024-07-27T07:32:10.547Z</time>
      </trkpt>
      <trkpt lat="53.93277" lon="14.47812">
        <ele>87.887356</ele>
        <time>2024-07-27T07:32:15.560Z</time>
      </trkpt>
      <trkpt lat="53.93276" lon="14.47829">
        <ele>88.086956</ele>
        <time>2024-07-27T07:32:20.551Z</time>
      </trkpt>
      <trkpt lat="53.93272" lon="14.47843">
        <ele>88.263713</ele>
        <time>2024-07-27T07:32:24.565Z</time>
      </trkpt>
      <trkpt lat="53.93271" lon="14.47859">
        <ele>88.440348</ele>
        <time>2024-07-27T07:32:28.577Z</time>
      </trkpt>
      <trkpt lat="53.93269" lon="14.47877">
        <ele>88.514731</ele>
        <time>2024-07-27T07:32:33.560Z</time>
      </trkpt>
      <trkpt lat="53.9327" lon="14.47895">
        <ele>88.573661</ele>
        <time>2024-07-27T07:32:37.563Z</time>
      </trkpt>
      <trkpt lat="53.93271" lon="14.4791">
        <ele>88.623836</ele>
        <time>2024-07-27T07:32:40.570Z</time>
      </trkpt>
      <trkpt lat="53.93272" lon="14.47927">
        <ele>88.678747</ele>
        <time>2024-07-27T07:32:43.551Z</time>
      </trkpt>
      <trkpt lat="53.93274" lon="14.47945">
        <ele>88.740137</ele>
        <time>2024-07-27T07:32:46.566Z</time>
      </trkpt>
      <trkpt lat="53.93277" lon="14.47964">
        <ele>88.804535</ele>
        <time>2024-07-27T07:32:49.565Z</time>
      </trkpt>
      <trkpt lat="53.9328" lon="14.47985">
        <ele>88.875667</ele>
        <time>2024-07-27T07:32:52.547Z</time>
      </trkpt>
      <trkpt lat="53.93281" lon="14.48002">
        <ele>88.932318</ele>
        <time>2024-07-27T07:32:54.551Z</time>
      </trkpt>
      <trkpt lat="53.93283" lon="14.48019">
        <ele>88.989404</ele>
        <time>2024-07-27T07:32:56.553Z</time>
      </trkpt>
      <trkpt lat="53.93285" lon="14.48036">
        <ele>89.044701</ele>
        <time>2024-07-27T07:32:58.546Z</time>
      </trkpt>
      <trkpt lat="53.93287" lon="14.48051">
        <ele>89.09611</ele>
        <time>2024-07-27T07:33:00.563Z</time>
      </trkpt>
      <trkpt lat="53.93289" lon="14.4807">
        <ele>89.159537</ele>
        <time>2024-07-27T07:33:03.554Z</time>
      </trkpt>
      <trkpt lat="53.9329" lon="14.48089">
        <ele>89.221872</ele>
        <time>2024-07-27T07:33:06.560Z</time>
      </trkpt>
      <trkpt lat="53.93292" lon="14.48107">
        <ele>89.282241</ele>
        <time>2024-07-27T07:33:09.549Z</time>
      </trkpt>
      <trkpt lat="53.93295" lon="14.48124">
        <ele>89.338316</ele>
        <time>2024-07-27T07:33:12.549Z</time>
      </trkpt>
      <trkpt lat="53.93296" lon="14.48142">
        <ele>89.398402</ele>
        <time>2024-07-27T07:33:15.558Z</time>
      </trkpt>
      <trkpt lat="53.93297" lon="14.48161">
        <ele>89.459938</ele>
        <time>2024-07-27T07:33:18.571Z</time>
      </trkpt>
      <trkpt lat="53.93296" lon="14.48178">
        <ele>89.58371</ele>
        <time>2024-07-27T07:33:21.560Z</time>
      </trkpt>
      <trkpt lat="53.93297" lon="14.48194">
        <ele>89.699531</ele>
        <time>2024-07-27T07:33:24.557Z</time>
      </trkpt>
      <trkpt lat="53.93295" lon="14.48213">
        <ele>89.840732</ele>
        <time>2024-07-27T07:33:28.531Z</time>
      </trkpt>
      <trkpt lat="53.93294" lon="14.48233">
        <ele>89.986725</ele>
        <time>2024-07-27T07:33:32.556Z</time>
      </trkpt>
      <trkpt lat="53.93293" lon="14.4825">
        <ele>90.115809</ele>
        <time>2024-07-27T07:33:36.557Z</time>
      </trkpt>
      <trkpt lat="53.93293" lon="14.48266">
        <ele>90.232409</ele>
        <time>2024-07-27T07:33:40.553Z</time>
      </trkpt>
      <trkpt lat="53.93293" lon="14.48283">
        <ele>90.359314</ele>
        <time>2024-07-27T07:33:45.558Z</time>
      </trkpt>
      <trkpt lat="53.93292" lon="14.48301">
        <ele>90.491482</ele>
        <time>2024-07-27T07:33:49.549Z</time>
      </trkpt>
      <trkpt lat="53.9329" lon="14.4832">
        <ele>90.636112</ele>
        <time>2024-07-27T07:33:54.556Z</time>
      </trkpt>
      <trkpt lat="53.93289" lon="14.48337">
        <ele>90.755543</ele>
        <time>2024-07-27T07:33:58.561Z</time>
      </trkpt>
      <trkpt lat="53.93288" lon="14.48353">
        <ele>90.875615</ele>
        <time>2024-07-27T07:34:02.557Z</time>
      </trkpt>
      <trkpt lat="53.93286" lon="14.48371">
        <ele>91.00958</ele>
        <time>2024-07-27T07:34:06.566Z</time>
      </trkpt>
      <trkpt lat="53.93284" lon="14.48386">
        <ele>91.123025</ele>
        <time>2024-07-27T07:34:10.572Z</time>
      </trkpt>
      <trkpt lat="53.93283" lon="14.48404">
        <ele>91.257933</ele>
        <time>2024-07-27T07:34:15.570Z</time>
      </trkpt>
      <trkpt lat="53.93282" lon="14.48423">
        <ele>91.395506</ele>
        <time>2024-07-27T07:34:20.573Z</time>
      </trkpt>
      <trkpt lat="53.9328" lon="14.48439">
        <ele>91.512941</ele>
        <time>2024-07-27T07:34:24.581Z</time>
      </trkpt>
      <trkpt lat="53.93281" lon="14.48454">
        <ele>91.625102</ele>
        <time>2024-07-27T07:34:28.569Z</time>
      </trkpt>
      <trkpt lat="53.93279" lon="14.48469">
        <ele>91.612016</ele>
        <time>2024-07-27T07:34:32.546Z</time>
      </trkpt>
      <trkpt lat="53.93277" lon="14.48485">
        <ele>91.340467</ele>
        <time>2024-07-27T07:34:36.560Z</time>
      </trkpt>
      <trkpt lat="53.93274" lon="14.485">
        <ele>91.062957</ele>
        <time>2024-07-27T07:34:41.565Z</time>
      </trkpt>
      <trkpt lat="53.9327" lon="14.48529">
        <ele>90.547233</ele>
        <time>2024-07-27T07:35:06.559Z</time>
      </trkpt>
      <trkpt lat="53.93265" lon="14.48545">
        <ele>90.242913</ele>
        <time>2024-07-27T07:35:11.571Z</time>
      </trkpt>
      <trkpt lat="53.9326" lon="14.48563">
        <ele>89.906885</ele>
        <time>2024-07-27T07:35:15.552Z</time>
      </trkpt>
      <trkpt lat="53.93256" lon="14.48581">
        <ele>89.575376</ele>
        <time>2024-07-27T07:35:19.556Z</time>
      </trkpt>
      <trkpt lat="53.93251" lon="14.48599">
        <ele>89.24243</ele>
        <time>2024-07-27T07:35:23.572Z</time>
      </trkpt>
      <trkpt lat="53.93247" lon="14.48616">
        <ele>88.918348</ele>
        <time>2024-07-27T07:35:27.555Z</time>
      </trkpt>
      <trkpt lat="53.93243" lon="14.48634">
        <ele>88.600693</ele>
        <time>2024-07-27T07:35:31.542Z</time>
      </trkpt>
      <trkpt lat="53.93238" lon="14.48651">
        <ele>88.266206</ele>
        <time>2024-07-27T07:35:35.561Z</time>
      </trkpt>
      <trkpt lat="53.93232" lon="14.48667">
        <ele>87.948031</ele>
        <time>2024-07-27T07:35:38.559Z</time>
      </trkpt>
      <trkpt lat="53.93226" lon="14.48682">
        <ele>87.629225</ele>
        <time>2024-07-27T07:35:41.550Z</time>
      </trkpt>
      <trkpt lat="53.93221" lon="14.48699">
        <ele>87.2943</ele>
        <time>2024-07-27T07:35:44.551Z</time>
      </trkpt>
      <trkpt lat="53.93216" lon="14.48715">
        <ele>86.99562</ele>
        <time>2024-07-27T07:35:47.550Z</time>
      </trkpt>
      <trkpt lat="53.93213" lon="14.48734">
        <ele>86.664107</ele>
        <time>2024-07-27T07:35:50.547Z</time>
      </trkpt>
      <trkpt lat="53.93209" lon="14.4875">
        <ele>86.504567</ele>
        <time>2024-07-27T07:35:53.559Z</time>
      </trkpt>
      <trkpt lat="53.93204" lon="14.48767">
        <ele>86.602708</ele>
        <time>2024-07-27T07:35:56.557Z</time>
      </trkpt>
      <trkpt lat="53.93199" lon="14.48786">
        <ele>86.707194</ele>
        <time>2024-07-27T07:35:59.556Z</time>
      </trkpt>
      <trkpt lat="53.93195" lon="14.48804">
        <ele>86.811929</ele>
        <time>2024-07-27T07:36:02.552Z</time>
      </trkpt>
      <trkpt lat="53.93191" lon="14.48822">
        <ele>86.907125</ele>
        <time>2024-07-27T07:36:05.558Z</time>
      </trkpt>
      <trkpt lat="53.93187" lon="14.48837">
        <ele>86.993643</ele>
        <time>2024-07-27T07:36:08.569Z</time>
      </trkpt>
      <trkpt lat="53.93183" lon="14.48854">
        <ele>87.091066</ele>
        <time>2024-07-27T07:36:12.565Z</time>
      </trkpt>
      <trkpt lat="53.9318" lon="14.4887">
        <ele>87.175101</ele>
        <time>2024-07-27T07:36:16.550Z</time>
      </trkpt>
      <trkpt lat="53.93176" lon="14.48886">
        <ele>87.266109</ele>
        <time>2024-07-27T07:36:20.538Z</time>
      </trkpt>
      <trkpt lat="53.93172" lon="14.48905">
        <ele>87.369861</ele>
        <time>2024-07-27T07:36:24.553Z</time>
      </trkpt>
      <trkpt lat="53.93169" lon="14.48921">
        <ele>87.460629</ele>
        <time>2024-07-27T07:36:27.554Z</time>
      </trkpt>
      <trkpt lat="53.93166" lon="14.48939">
        <ele>87.554222</ele>
        <time>2024-07-27T07:36:30.553Z</time>
      </trkpt>
      <trkpt lat="53.93162" lon="14.48956">
        <ele>87.650835</ele>
        <time>2024-07-27T07:36:34.559Z</time>
      </trkpt>
      <trkpt lat="53.93158" lon="14.48972">
        <ele>87.740071</ele>
        <time>2024-07-27T07:36:39.557Z</time>
      </trkpt>
      <trkpt lat="53.93155" lon="14.4899">
        <ele>87.838497</ele>
        <time>2024-07-27T07:36:44.573Z</time>
      </trkpt>
      <trkpt lat="53.93151" lon="14.49008">
        <ele>87.938405</ele>
        <time>2024-07-27T07:36:49.553Z</time>
      </trkpt>
      <trkpt lat="53.93148" lon="14.49025">
        <ele>88.028361</ele>
        <time>2024-07-27T07:36:54.566Z</time>
      </trkpt>
      <trkpt lat="53.93147" lon="14.49041">
        <ele>87.625396</ele>
        <time>2024-07-27T07:36:59.553Z</time>
      </trkpt>
      <trkpt lat="53.93145" lon="14.49059">
        <ele>86.918157</ele>
        <time>2024-07-27T07:37:04.562Z</time>
      </trkpt>
      <trkpt lat="53.9314" lon="14.49072">
        <ele>86.285809</ele>
        <time>2024-07-27T07:37:09.550Z</time>
      </trkpt>
      <trkpt lat="53.93139" lon="14.49088">
        <ele>85.677402</ele>
        <time>2024-07-27T07:37:14.565Z</time>
      </trkpt>
      <trkpt lat="53.93135" lon="14.49103">
        <ele>85.051338</ele>
        <time>2024-07-27T07:37:18.556Z</time>
      </trkpt>
      <trkpt lat="53.93131" lon="14.49121">
        <ele>84.281657</ele>
        <time>2024-07-27T07:37:22.560Z</time>
      </trkpt>
      <trkpt lat="53.93127" lon="14.49138">
        <ele>83.552314</ele>
        <time>2024-07-27T07:37:26.560Z</time>
      </trkpt>
      <trkpt lat="53.93125" lon="14.49156">
        <ele>82.84339</ele>
        <time>2024-07-27T07:37:30.558Z</time>
      </trkpt>
      <trkpt lat="53.93124" lon="14.49175">
        <ele>82.102654</ele>
        <time>2024-07-27T07:37:34.551Z</time>
      </trkpt>
      <trkpt lat="53.93121" lon="14.4919">
        <ele>81.48142</ele>
        <time>2024-07-27T07:37:38.578Z</time>
      </trkpt>
      <trkpt lat="53.93117" lon="14.49205">
        <ele>80.811035</ele>
        <time>2024-07-27T07:37:43.565Z</time>
      </trkpt>
      <trkpt lat="53.93114" lon="14.49223">
        <ele>80.099448</ele>
        <time>2024-07-27T07:37:51.553Z</time>
      </trkpt>
      <trkpt lat="53.93111" lon="14.49239">
        <ele>79.457438</ele>
        <time>2024-07-27T07:37:55.564Z</time>
      </trkpt>
      <trkpt lat="53.9311" lon="14.49255">
        <ele>78.791219</ele>
        <time>2024-07-27T07:37:59.555Z</time>
      </trkpt>
      <trkpt lat="53.93106" lon="14.49273">
        <ele>78.070135</ele>
        <time>2024-07-27T07:38:03.571Z</time>
      </trkpt>
      <trkpt lat="53.93103" lon="14.49287">
        <ele>77.460106</ele>
        <time>2024-07-27T07:38:06.564Z</time>
      </trkpt>
      <trkpt lat="53.931" lon="14.49305">
        <ele>76.716629</ele>
        <time>2024-07-27T07:38:10.558Z</time>
      </trkpt>
      <trkpt lat="53.93098" lon="14.49322">
        <ele>76.070902</ele>
        <time>2024-07-27T07:38:14.558Z</time>
      </trkpt>
      <trkpt lat="53.93096" lon="14.49337">
        <ele>76.070704</ele>
        <time>2024-07-27T07:38:18.551Z</time>
      </trkpt>
      <trkpt lat="53.93093" lon="14.49353">
        <ele>76.075823</ele>
        <time>2024-07-27T07:38:22.558Z</time>
      </trkpt>
      <trkpt lat="53.93089" lon="14.49368">
        <ele>76.080979</ele>
        <time>2024-07-27T07:38:26.551Z</time>
      </trkpt>
      <trkpt lat="53.93087" lon="14.49382">
        <ele>76.085854</ele>
        <time>2024-07-27T07:38:30.553Z</time>
      </trkpt>
      <trkpt lat="53.93084" lon="14.49398">
        <ele>76.090994</ele>
        <time>2024-07-27T07:38:34.552Z</time>
      </trkpt>
      <trkpt lat="53.93083" lon="14.49415">
        <ele>76.09636</ele>
        <time>2024-07-27T07:38:39.590Z</time>
      </trkpt>
      <trkpt lat="53.93081" lon="14.49432">
        <ele>76.101857</ele>
        <time>2024-07-27T07:38:44.560Z</time>
      </trkpt>
      <trkpt lat="53.93079" lon="14.49448">
        <ele>76.107077</ele>
        <time>2024-07-27T07:38:51.562Z</time>
      </trkpt>
      <trkpt lat="53.93084" lon="14.49463">
        <ele>76.112482</ele>
        <time>2024-07-27T07:40:11.569Z</time>
      </trkpt>
      <trkpt lat="53.93087" lon="14.49478">
        <ele>76.117418</ele>
        <time>2024-07-27T07:40:16.554Z</time>
      </trkpt>
      <trkpt lat="53.93089" lon="14.49497">
        <ele>76.123498</ele>
        <time>2024-07-27T07:40:20.552Z</time>
      </trkpt>
      <trkpt lat="53.93092" lon="14.49513">
        <ele>76.128753</ele>
        <time>2024-07-27T07:40:24.562Z</time>
      </trkpt>
      <trkpt lat="53.93095" lon="14.49531">
        <ele>76.134647</ele>
        <time>2024-07-27T07:40:28.569Z</time>
      </trkpt>
      <trkpt lat="53.93097" lon="14.49549">
        <ele>76.140448</ele>
        <time>2024-07-27T07:40:32.556Z</time>
      </trkpt>
      <trkpt lat="53.93099" lon="14.49568">
        <ele>76.146643</ele>
        <time>2024-07-27T07:40:36.567Z</time>
      </trkpt>
      <trkpt lat="53.93101" lon="14.49588">
        <ele>76.153166</ele>
        <time>2024-07-27T07:40:40.553Z</time>
      </trkpt>
      <trkpt lat="53.931" lon="14.49606">
        <ele>76.158771</ele>
        <time>2024-07-27T07:40:43.550Z</time>
      </trkpt>
      <trkpt lat="53.931" lon="14.49622">
        <ele>75.939791</ele>
        <time>2024-07-27T07:40:46.555Z</time>
      </trkpt>
      <trkpt lat="53.93099" lon="14.4964">
        <ele>74.92874</ele>
        <time>2024-07-27T07:40:50.568Z</time>
      </trkpt>
      <trkpt lat="53.93098" lon="14.49659">
        <ele>73.938014</ele>
        <time>2024-07-27T07:40:54.560Z</time>
      </trkpt>
      <trkpt lat="53.93098" lon="14.49677">
        <ele>72.986032</ele>
        <time>2024-07-27T07:40:58.559Z</time>
      </trkpt>
      <trkpt lat="53.93097" lon="14.49693">
        <ele>72.116129</ele>
        <time>2024-07-27T07:41:02.549Z</time>
      </trkpt>
      <trkpt lat="53.93095" lon="14.49713">
        <ele>71.03893</ele>
        <time>2024-07-27T07:41:06.542Z</time>
      </trkpt>
      <trkpt lat="53.93094" lon="14.49728">
        <ele>70.215592</ele>
        <time>2024-07-27T07:41:09.553Z</time>
      </trkpt>
      <trkpt lat="53.93092" lon="14.49748">
        <ele>69.133139</ele>
        <time>2024-07-27T07:41:13.543Z</time>
      </trkpt>
      <trkpt lat="53.9309" lon="14.49764">
        <ele>68.25045</ele>
        <time>2024-07-27T07:41:16.552Z</time>
      </trkpt>
      <trkpt lat="53.93089" lon="14.49783">
        <ele>67.237441</ele>
        <time>2024-07-27T07:41:20.564Z</time>
      </trkpt>
      <trkpt lat="53.9309" lon="14.49801">
        <ele>66.258381</ele>
        <time>2024-07-27T07:41:24.544Z</time>
      </trkpt>
      <trkpt lat="53.93089" lon="14.49818">
        <ele>65.360987</ele>
        <time>2024-07-27T07:41:28.555Z</time>
      </trkpt>
      <trkpt lat="53.9309" lon="14.49833">
        <ele>64.526561</ele>
        <time>2024-07-27T07:41:31.547Z</time>
      </trkpt>
      <trkpt lat="53.9309" lon="14.49849">
        <ele>63.697478</ele>
        <time>2024-07-27T07:41:34.545Z</time>
      </trkpt>
      <trkpt lat="53.93086" lon="14.49867">
        <ele>62.653563</ele>
        <time>2024-07-27T07:41:38.567Z</time>
      </trkpt>
      <trkpt lat="53.9308" lon="14.49885">
        <ele>61.515094</ele>
        <time>2024-07-27T07:41:42.542Z</time>
      </trkpt>
      <trkpt lat="53.93072" lon="14.499">
        <ele>60.492837</ele>
        <time>2024-07-27T07:41:45.547Z</time>
      </trkpt>
      <trkpt lat="53.93063" lon="14.49914">
        <ele>59.862471</ele>
        <time>2024-07-27T07:41:48.546Z</time>
      </trkpt>
      <trkpt lat="53.93056" lon="14.49926">
        <ele>59.92587</ele>
        <time>2024-07-27T07:41:51.555Z</time>
      </trkpt>
      <trkpt lat="53.93049" lon="14.49938">
        <ele>59.982251</ele>
        <time>2024-07-27T07:41:54.557Z</time>
      </trkpt>
      <trkpt lat="53.93043" lon="14.49952">
        <ele>60.047833</ele>
        <time>2024-07-27T07:41:57.562Z</time>
      </trkpt>
      <trkpt lat="53.93034" lon="14.49968">
        <ele>60.126086</ele>
        <time>2024-07-27T07:42:00.550Z</time>
      </trkpt>
      <trkpt lat="53.9303" lon="14.49983">
        <ele>60.187395</ele>
        <time>2024-07-27T07:42:03.555Z</time>
      </trkpt>
      <trkpt lat="53.93027" lon="14.49999">
        <ele>60.247044</ele>
        <time>2024-07-27T07:42:06.538Z</time>
      </trkpt>
      <trkpt lat="53.93026" lon="14.50015">
        <ele>60.305235</ele>
        <time>2024-07-27T07:42:09.555Z</time>
      </trkpt>
      <trkpt lat="53.93023" lon="14.50033">
        <ele>60.373426</ele>
        <time>2024-07-27T07:42:12.557Z</time>
      </trkpt>
      <trkpt lat="53.93019" lon="14.50053">
        <ele>60.451292</ele>
        <time>2024-07-27T07:42:15.564Z</time>
      </trkpt>
      <trkpt lat="53.93015" lon="14.50068">
        <ele>60.508446</ele>
        <time>2024-07-27T07:42:17.549Z</time>
      </trkpt>
      <trkpt lat="53.93012" lon="14.50086">
        <ele>60.578789</ele>
        <time>2024-07-27T07:42:19.554Z</time>
      </trkpt>
      <trkpt lat="53.93007" lon="14.50105">
        <ele>60.651666</ele>
        <time>2024-07-27T07:42:21.555Z</time>
      </trkpt>
      <trkpt lat="53.93001" lon="14.50123">
        <ele>60.725223</ele>
        <time>2024-07-27T07:42:23.558Z</time>
      </trkpt>
      <trkpt lat="53.92997" lon="14.50139">
        <ele>60.790244</ele>
        <time>2024-07-27T07:42:25.557Z</time>
      </trkpt>
      <trkpt lat="53.92995" lon="14.50154">
        <ele>60.846785</ele>
        <time>2024-07-27T07:42:27.559Z</time>
      </trkpt>
      <trkpt lat="53.92991" lon="14.50169">
        <ele>60.90374</ele>
        <time>2024-07-27T07:42:29.556Z</time>
      </trkpt>
      <trkpt lat="53.92986" lon="14.50189">
        <ele>61.049998</ele>
        <time>2024-07-27T07:42:32.551Z</time>
      </trkpt>
      <trkpt lat="53.92983" lon="14.50203">
        <ele>61.184341</ele>
        <time>2024-07-27T07:42:34.557Z</time>
      </trkpt>
      <trkpt lat="53.92977" lon="14.50223">
        <ele>61.369895</ele>
        <time>2024-07-27T07:42:37.555Z</time>
      </trkpt>
      <trkpt lat="53.92973" lon="14.50243">
        <ele>61.559193</ele>
        <time>2024-07-27T07:42:40.546Z</time>
      </trkpt>
      <trkpt lat="53.92969" lon="14.50262">
        <ele>61.734166</ele>
        <time>2024-07-27T07:42:43.550Z</time>
      </trkpt>
      <trkpt lat="53.92964" lon="14.50281">
        <ele>61.9112</ele>
        <time>2024-07-27T07:42:46.561Z</time>
      </trkpt>
      <trkpt lat="53.92961" lon="14.50295">
        <ele>62.045788</ele>
        <time>2024-07-27T07:42:48.544Z</time>
      </trkpt>
      <trkpt lat="53.92955" lon="14.50314">
        <ele>62.239902</ele>
        <time>2024-07-27T07:42:51.558Z</time>
      </trkpt>
      <trkpt lat="53.92951" lon="14.50329">
        <ele>62.380465</ele>
        <time>2024-07-27T07:42:53.571Z</time>
      </trkpt>
      <trkpt lat="53.92946" lon="14.50345">
        <ele>62.539161</ele>
        <time>2024-07-27T07:42:55.550Z</time>
      </trkpt>
      <trkpt lat="53.9294" lon="14.50363">
        <ele>62.722658</ele>
        <time>2024-07-27T07:42:58.552Z</time>
      </trkpt>
      <trkpt lat="53.92935" lon="14.50382">
        <ele>62.899525</ele>
        <time>2024-07-27T07:43:01.548Z</time>
      </trkpt>
      <trkpt lat="53.92932" lon="14.50401">
        <ele>63.07116</ele>
        <time>2024-07-27T07:43:04.550Z</time>
      </trkpt>
      <trkpt lat="53.92929" lon="14.5042">
        <ele>63.246683</ele>
        <time>2024-07-27T07:43:07.558Z</time>
      </trkpt>
      <trkpt lat="53.92925" lon="14.50439">
        <ele>63.413319</ele>
        <time>2024-07-27T07:43:10.554Z</time>
      </trkpt>
      <trkpt lat="53.9292" lon="14.50456">
        <ele>63.585951</ele>
        <time>2024-07-27T07:43:13.549Z</time>
      </trkpt>
      <trkpt lat="53.92914" lon="14.50472">
        <ele>63.418435</ele>
        <time>2024-07-27T07:43:16.551Z</time>
      </trkpt>
      <trkpt lat="53.92911" lon="14.5049">
        <ele>63.212318</ele>
        <time>2024-07-27T07:43:19.549Z</time>
      </trkpt>
      <trkpt lat="53.92906" lon="14.50506">
        <ele>63.018303</ele>
        <time>2024-07-27T07:43:22.553Z</time>
      </trkpt>
      <trkpt lat="53.92904" lon="14.50523">
        <ele>62.825311</ele>
        <time>2024-07-27T07:43:25.558Z</time>
      </trkpt>
      <trkpt lat="53.92899" lon="14.50541">
        <ele>62.610722</ele>
        <time>2024-07-27T07:43:28.559Z</time>
      </trkpt>
      <trkpt lat="53.92895" lon="14.50559">
        <ele>62.398644</ele>
        <time>2024-07-27T07:43:31.565Z</time>
      </trkpt>
      <trkpt lat="53.9289" lon="14.50578">
        <ele>62.177719</ele>
        <time>2024-07-27T07:43:34.549Z</time>
      </trkpt>
      <trkpt lat="53.92886" lon="14.50597">
        <ele>61.952117</ele>
        <time>2024-07-27T07:43:37.560Z</time>
      </trkpt>
      <trkpt lat="53.92882" lon="14.50613">
        <ele>61.754793</ele>
        <time>2024-07-27T07:43:40.554Z</time>
      </trkpt>
      <trkpt lat="53.92878" lon="14.5063">
        <ele>61.560498</ele>
        <time>2024-07-27T07:43:43.560Z</time>
      </trkpt>
      <trkpt lat="53.92879" lon="14.50648">
        <ele>61.359778</ele>
        <time>2024-07-27T07:43:46.544Z</time>
      </trkpt>
      <trkpt lat="53.92878" lon="14.50668">
        <ele>61.143722</ele>
        <time>2024-07-27T07:43:49.559Z</time>
      </trkpt>
      <trkpt lat="53.92878" lon="14.50684">
        <ele>60.973331</ele>
        <time>2024-07-27T07:43:51.548Z</time>
      </trkpt>
      <trkpt lat="53.92877" lon="14.50705">
        <ele>60.743768</ele>
        <time>2024-07-27T07:43:54.564Z</time>
      </trkpt>
      <trkpt lat="53.92877" lon="14.50727">
        <ele>60.498134</ele>
        <time>2024-07-27T07:43:57.547Z</time>
      </trkpt>
      <trkpt lat="53.92877" lon="14.50747">
        <ele>60.282079</ele>
        <time>2024-07-27T07:44:00.550Z</time>
      </trkpt>
      <trkpt lat="53.92876" lon="14.50768">
        <ele>60.111857</ele>
        <time>2024-07-27T07:44:03.561Z</time>
      </trkpt>
      <trkpt lat="53.92876" lon="14.50786">
        <ele>59.970671</ele>
        <time>2024-07-27T07:44:06.546Z</time>
      </trkpt>
      <trkpt lat="53.92875" lon="14.50804">
        <ele>59.834542</ele>
        <time>2024-07-27T07:44:09.572Z</time>
      </trkpt>
      <trkpt lat="53.92876" lon="14.50823">
        <ele>59.685179</ele>
        <time>2024-07-27T07:44:12.578Z</time>
      </trkpt>
      <trkpt lat="53.92875" lon="14.50843">
        <ele>59.533716</ele>
        <time>2024-07-27T07:44:15.547Z</time>
      </trkpt>
      <trkpt lat="53.92874" lon="14.5086">
        <ele>59.395684</ele>
        <time>2024-07-27T07:44:18.545Z</time>
      </trkpt>
      <trkpt lat="53.92873" lon="14.5088">
        <ele>59.247289</ele>
        <time>2024-07-27T07:44:21.568Z</time>
      </trkpt>
      <trkpt lat="53.92874" lon="14.50899">
        <ele>59.098333</ele>
        <time>2024-07-27T07:44:24.547Z</time>
      </trkpt>
      <trkpt lat="53.92874" lon="14.50914">
        <ele>58.980541</ele>
        <time>2024-07-27T07:44:26.564Z</time>
      </trkpt>
      <trkpt lat="53.92875" lon="14.50936">
        <ele>58.812741</ele>
        <time>2024-07-27T07:44:29.576Z</time>
      </trkpt>
      <trkpt lat="53.92875" lon="14.50958">
        <ele>58.646363</ele>
        <time>2024-07-27T07:44:32.568Z</time>
      </trkpt>
      <trkpt lat="53.92875" lon="14.50979">
        <ele>58.483918</ele>
        <time>2024-07-27T07:44:35.567Z</time>
      </trkpt>
      <trkpt lat="53.92874" lon="14.50999">
        <ele>58.329741</ele>
        <time>2024-07-27T07:44:38.559Z</time>
      </trkpt>
      <trkpt lat="53.92874" lon="14.51019">
        <ele>58.173318</ele>
        <time>2024-07-27T07:44:41.581Z</time>
      </trkpt>
      <trkpt lat="53.92875" lon="14.51039">
        <ele>58.021448</ele>
        <time>2024-07-27T07:44:44.561Z</time>
      </trkpt>
      <trkpt lat="53.92876" lon="14.51054">
        <ele>57.911228</ele>
        <time>2024-07-27T07:44:47.563Z</time>
      </trkpt>
      <trkpt lat="53.92877" lon="14.5107">
        <ele>58.110653</ele>
        <time>2024-07-27T07:44:50.558Z</time>
      </trkpt>
      <trkpt lat="53.92875" lon="14.51091">
        <ele>58.37093</ele>
        <time>2024-07-27T07:44:55.561Z</time>
      </trkpt>
      <trkpt lat="53.92874" lon="14.51108">
        <ele>58.578185</ele>
        <time>2024-07-27T07:44:59.564Z</time>
      </trkpt>
      <trkpt lat="53.92873" lon="14.51125">
        <ele>58.793119</ele>
        <time>2024-07-27T07:45:03.561Z</time>
      </trkpt>
      <trkpt lat="53.92874" lon="14.51143">
        <ele>59.019678</ele>
        <time>2024-07-27T07:45:07.559Z</time>
      </trkpt>
      <trkpt lat="53.92873" lon="14.51162">
        <ele>59.258247</ele>
        <time>2024-07-27T07:45:11.548Z</time>
      </trkpt>
      <trkpt lat="53.92875" lon="14.51179">
        <ele>59.464617</ele>
        <time>2024-07-27T07:45:14.564Z</time>
      </trkpt>
      <trkpt lat="53.92875" lon="14.51199">
        <ele>59.717464</ele>
        <time>2024-07-27T07:45:18.555Z</time>
      </trkpt>
      <trkpt lat="53.92877" lon="14.51214">
        <ele>59.909229</ele>
        <time>2024-07-27T07:45:21.562Z</time>
      </trkpt>
      <trkpt lat="53.92878" lon="14.51232">
        <ele>60.127506</ele>
        <time>2024-07-27T07:45:25.564Z</time>
      </trkpt>
      <trkpt lat="53.92881" lon="14.51246">
        <ele>60.318364</ele>
        <time>2024-07-27T07:45:28.564Z</time>
      </trkpt>
      <trkpt lat="53.92884" lon="14.51265">
        <ele>60.551951</ele>
        <time>2024-07-27T07:45:32.569Z</time>
      </trkpt>
      <trkpt lat="53.92884" lon="14.51283">
        <ele>60.775408</ele>
        <time>2024-07-27T07:45:36.562Z</time>
      </trkpt>
      <trkpt lat="53.92885" lon="14.51299">
        <ele>60.974121</ele>
        <time>2024-07-27T07:45:39.562Z</time>
      </trkpt>
      <trkpt lat="53.92886" lon="14.51318">
        <ele>61.215408</ele>
        <time>2024-07-27T07:45:43.565Z</time>
      </trkpt>
      <trkpt lat="53.92891" lon="14.51334">
        <ele>61.441477</ele>
        <time>2024-07-27T07:45:47.576Z</time>
      </trkpt>
      <trkpt lat="53.92894" lon="14.51352">
        <ele>61.665693</ele>
        <time>2024-07-27T07:45:51.556Z</time>
      </trkpt>
      <trkpt lat="53.92896" lon="14.51368">
        <ele>61.771219</ele>
        <time>2024-07-27T07:45:55.562Z</time>
      </trkpt>
      <trkpt lat="53.92898" lon="14.51384">
        <ele>61.86547</ele>
        <time>2024-07-27T07:45:58.545Z</time>
      </trkpt>
      <trkpt lat="53.92898" lon="14.51401">
        <ele>61.962226</ele>
        <time>2024-07-27T07:46:01.569Z</time>
      </trkpt>
      <trkpt lat="53.929" lon="14.51417">
        <ele>62.055616</ele>
        <time>2024-07-27T07:46:04.553Z</time>
      </trkpt>
      <trkpt lat="53.92904" lon="14.51437">
        <ele>62.176526</ele>
        <time>2024-07-27T07:46:08.546Z</time>
      </trkpt>
      <trkpt lat="53.92908" lon="14.51455">
        <ele>62.283784</ele>
        <time>2024-07-27T07:46:12.568Z</time>
      </trkpt>
      <trkpt lat="53.92911" lon="14.51472">
        <ele>62.383087</ele>
        <time>2024-07-27T07:46:16.562Z</time>
      </trkpt>
      <trkpt lat="53.92912" lon="14.51488">
        <ele>62.470354</ele>
        <time>2024-07-27T07:46:20.579Z</time>
      </trkpt>
      <trkpt lat="53.92914" lon="14.51505">
        <ele>62.567629</ele>
        <time>2024-07-27T07:46:24.562Z</time>
      </trkpt>
      <trkpt lat="53.92916" lon="14.51522">
        <ele>62.66748</ele>
        <time>2024-07-27T07:46:28.585Z</time>
      </trkpt>
      <trkpt lat="53.9292" lon="14.5154">
        <ele>62.773785</ele>
        <time>2024-07-27T07:46:32.560Z</time>
      </trkpt>
      <trkpt lat="53.92923" lon="14.51556">
        <ele>62.869757</ele>
        <time>2024-07-27T07:46:36.559Z</time>
      </trkpt>
      <trkpt lat="53.92928" lon="14.51573">
        <ele>62.978759</ele>
        <time>2024-07-27T07:46:40.564Z</time>
      </trkpt>
      <trkpt lat="53.92933" lon="14.51587">
        <ele>63.071818</ele>
        <time>2024-07-27T07:46:44.570Z</time>
      </trkpt>
      <trkpt lat="53.92938" lon="14.51601">
        <ele>63.165029</ele>
        <time>2024-07-27T07:46:48.602Z</time>
      </trkpt>
      <trkpt lat="53.92943" lon="14.51617">
        <ele>63.264544</ele>
        <time>2024-07-27T07:46:52.575Z</time>
      </trkpt>
      <trkpt lat="53.92949" lon="14.51633">
        <ele>63.374163</ele>
        <time>2024-07-27T07:46:56.567Z</time>
      </trkpt>
      <trkpt lat="53.92955" lon="14.51649">
        <ele>63.228031</ele>
        <time>2024-07-27T07:47:00.574Z</time>
      </trkpt>
      <trkpt lat="53.92959" lon="14.51665">
        <ele>62.928936</ele>
        <time>2024-07-27T07:47:04.561Z</time>
      </trkpt>
      <trkpt lat="53.92964" lon="14.51679">
        <ele>62.642392</ele>
        <time>2024-07-27T07:47:08.556Z</time>
      </trkpt>
      <trkpt lat="53.92969" lon="14.51694">
        <ele>62.345608</ele>
        <time>2024-07-27T07:47:13.549Z</time>
      </trkpt>
      <trkpt lat="53.92971" lon="14.5171">
        <ele>62.055143</ele>
        <time>2024-07-27T07:47:19.561Z</time>
      </trkpt>
      <trkpt lat="53.92978" lon="14.51728">
        <ele>61.689881</ele>
        <time>2024-07-27T07:47:41.558Z</time>
      </trkpt>
      <trkpt lat="53.92984" lon="14.51743">
        <ele>61.377618</ele>
        <time>2024-07-27T07:47:45.552Z</time>
      </trkpt>
      <trkpt lat="53.92989" lon="14.51759">
        <ele>61.055718</ele>
        <time>2024-07-27T07:47:50.540Z</time>
      </trkpt>
      <trkpt lat="53.92992" lon="14.51774">
        <ele>60.786668</ele>
        <time>2024-07-27T07:47:54.554Z</time>
      </trkpt>
      <trkpt lat="53.92995" lon="14.5179">
        <ele>60.493571</ele>
        <time>2024-07-27T07:48:00.555Z</time>
      </trkpt>
      <trkpt lat="53.92997" lon="14.51808">
        <ele>60.193479</ele>
        <time>2024-07-27T07:48:06.550Z</time>
      </trkpt>
      <trkpt lat="53.92999" lon="14.51825">
        <ele>59.894601</ele>
        <time>2024-07-27T07:48:11.561Z</time>
      </trkpt>
      <trkpt lat="53.93002" lon="14.51839">
        <ele>59.629476</ele>
        <time>2024-07-27T07:48:15.553Z</time>
      </trkpt>
      <trkpt lat="53.93007" lon="14.51857">
        <ele>59.277658</ele>
        <time>2024-07-27T07:48:19.571Z</time>
      </trkpt>
      <trkpt lat="53.93013" lon="14.51875">
        <ele>58.939364</ele>
        <time>2024-07-27T07:48:22.552Z</time>
      </trkpt>
      <trkpt lat="53.93018" lon="14.51893">
        <ele>58.582266</ele>
        <time>2024-07-27T07:48:25.568Z</time>
      </trkpt>
      <trkpt lat="53.93024" lon="14.51911">
        <ele>58.224911</ele>
        <time>2024-07-27T07:48:28.575Z</time>
      </trkpt>
      <trkpt lat="53.9303" lon="14.51929">
        <ele>58.062576</ele>
        <time>2024-07-27T07:48:31.554Z</time>
      </trkpt>
      <trkpt lat="53.93035" lon="14.51944">
        <ele>57.965578</ele>
        <time>2024-07-27T07:48:34.549Z</time>
      </trkpt>
      <trkpt lat="53.93041" lon="14.51959">
        <ele>57.855734</ele>
        <time>2024-07-27T07:48:37.549Z</time>
      </trkpt>
      <trkpt lat="53.93045" lon="14.51974">
        <ele>57.758104</ele>
        <time>2024-07-27T07:48:40.532Z</time>
      </trkpt>
      <trkpt lat="53.93049" lon="14.51991">
        <ele>57.64849</ele>
        <time>2024-07-27T07:48:45.550Z</time>
      </trkpt>
      <trkpt lat="53.93051" lon="14.52009">
        <ele>57.537455</ele>
        <time>2024-07-27T07:48:49.551Z</time>
      </trkpt>
      <trkpt lat="53.93057" lon="14.52023">
        <ele>57.435555</ele>
        <time>2024-07-27T07:48:53.549Z</time>
      </trkpt>
      <trkpt lat="53.93063" lon="14.52039">
        <ele>57.324258</ele>
        <time>2024-07-27T07:48:58.565Z</time>
      </trkpt>
      <trkpt lat="53.93067" lon="14.52055">
        <ele>57.223914</ele>
        <time>2024-07-27T07:49:02.541Z</time>
      </trkpt>
      <trkpt lat="53.9307" lon="14.52069">
        <ele>57.130293</ele>
        <time>2024-07-27T07:49:07.562Z</time>
      </trkpt>
      <trkpt lat="53.93074" lon="14.52085">
        <ele>57.032852</ele>
        <time>2024-07-27T07:49:13.563Z</time>
      </trkpt>
      <trkpt lat="53.93079" lon="14.521">
        <ele>56.927686</ele>
        <time>2024-07-27T07:49:17.557Z</time>
      </trkpt>
      <trkpt lat="53.93085" lon="14.52117">
        <ele>56.815293</ele>
        <time>2024-07-27T07:49:21.547Z</time>
      </trkpt>
      <trkpt lat="53.9309" lon="14.52132">
        <ele>56.710618</ele>
        <time>2024-07-27T07:49:25.549Z</time>
      </trkpt>
      <trkpt lat="53.93094" lon="14.52148">
        <ele>56.610603</ele>
        <time>2024-07-27T07:49:30.555Z</time>
      </trkpt>
      <trkpt lat="53.93098" lon="14.52164">
        <ele>56.50527</ele>
        <time>2024-07-27T07:49:34.546Z</time>
      </trkpt>
      <trkpt lat="53.931" lon="14.52179">
        <ele>56.411468</ele>
        <time>2024-07-27T07:49:38.557Z</time>
      </trkpt>
      <trkpt lat="53.93099" lon="14.52197">
        <ele>56.192235</ele>
        <time>2024-07-27T07:49:42.555Z</time>
      </trkpt>
      <trkpt lat="53.931" lon="14.52213">
        <ele>55.802071</ele>
        <time>2024-07-27T07:49:46.547Z</time>
      </trkpt>
      <trkpt lat="53.93103" lon="14.52231">
        <ele>55.393326</ele>
        <time>2024-07-27T07:49:50.551Z</time>
      </trkpt>
      <trkpt lat="53.93104" lon="14.5225">
        <ele>54.956713</ele>
        <time>2024-07-27T07:49:54.572Z</time>
      </trkpt>
      <trkpt lat="53.93104" lon="14.5227">
        <ele>54.48455</ele>
        <time>2024-07-27T07:49:58.543Z</time>
      </trkpt>
      <trkpt lat="53.93107" lon="14.52287">
        <ele>54.093168</ele>
        <time>2024-07-27T07:50:01.563Z</time>
      </trkpt>
      <trkpt lat="53.93112" lon="14.52307">
        <ele>53.588853</ele>
        <time>2024-07-27T07:50:04.562Z</time>
      </trkpt>
      <trkpt lat="53.93116" lon="14.52326">
        <ele>53.12458</ele>
        <time>2024-07-27T07:50:07.572Z</time>
      </trkpt>
      <trkpt lat="53.93119" lon="14.52342">
        <ele>52.742943</ele>
        <time>2024-07-27T07:50:10.561Z</time>
      </trkpt>
      <trkpt lat="53.93121" lon="14.52357">
        <ele>52.385426</ele>
        <time>2024-07-27T07:50:13.546Z</time>
      </trkpt>
      <trkpt lat="53.93124" lon="14.52379">
        <ele>51.876371</ele>
        <time>2024-07-27T07:50:16.551Z</time>
      </trkpt>
      <trkpt lat="53.93126" lon="14.524">
        <ele>51.383808</ele>
        <time>2024-07-27T07:50:19.566Z</time>
      </trkpt>
      <trkpt lat="53.93129" lon="14.52419">
        <ele>50.93921</ele>
        <time>2024-07-27T07:50:22.553Z</time>
      </trkpt>
      <trkpt lat="53.93131" lon="14.52437">
        <ele>50.510317</ele>
        <time>2024-07-27T07:50:25.557Z</time>
      </trkpt>
      <trkpt lat="53.93132" lon="14.52455">
        <ele>50.095534</ele>
        <time>2024-07-27T07:50:28.575Z</time>
      </trkpt>
      <trkpt lat="53.93135" lon="14.52471">
        <ele>49.72613</ele>
        <time>2024-07-27T07:50:33.552Z</time>
      </trkpt>
      <trkpt lat="53.93139" lon="14.52484">
        <ele>49.362549</ele>
        <time>2024-07-27T07:53:10.546Z</time>
      </trkpt>
      <trkpt lat="53.93142" lon="14.52503">
        <ele>48.810783</ele>
        <time>2024-07-27T07:53:15.552Z</time>
      </trkpt>
      <trkpt lat="53.93146" lon="14.52521">
        <ele>48.254438</ele>
        <time>2024-07-27T07:53:19.589Z</time>
      </trkpt>
      <trkpt lat="53.93149" lon="14.52536">
        <ele>47.802527</ele>
        <time>2024-07-27T07:53:22.568Z</time>
      </trkpt>
      <trkpt lat="53.93154" lon="14.52551">
        <ele>47.317612</ele>
        <time>2024-07-27T07:53:25.548Z</time>
      </trkpt>
      <trkpt lat="53.93156" lon="14.52569">
        <ele>46.791437</ele>
        <time>2024-07-27T07:53:29.543Z</time>
      </trkpt>
      <trkpt lat="53.93159" lon="14.52585">
        <ele>46.306357</ele>
        <time>2024-07-27T07:53:33.551Z</time>
      </trkpt>
      <trkpt lat="53.93161" lon="14.526">
        <ele>45.864078</ele>
        <time>2024-07-27T07:53:36.545Z</time>
      </trkpt>
      <trkpt lat="53.93165" lon="14.52616">
        <ele>45.367346</ele>
        <time>2024-07-27T07:53:39.569Z</time>
      </trkpt>
      <trkpt lat="53.93169" lon="14.52634">
        <ele>44.808259</ele>
        <time>2024-07-27T07:53:42.545Z</time>
      </trkpt>
      <trkpt lat="53.93173" lon="14.52654">
        <ele>44.218492</ele>
        <time>2024-07-27T07:53:45.546Z</time>
      </trkpt>
      <trkpt lat="53.93175" lon="14.52671">
        <ele>43.720243</ele>
        <time>2024-07-27T07:53:48.569Z</time>
      </trkpt>
      <trkpt lat="53.93177" lon="14.52687">
        <ele>43.232529</ele>
        <time>2024-07-27T07:53:51.578Z</time>
      </trkpt>
      <trkpt lat="53.9318" lon="14.52704">
        <ele>42.737406</ele>
        <time>2024-07-27T07:53:54.537Z</time>
      </trkpt>
      <trkpt lat="53.93183" lon="14.5272">
        <ele>42.261901</ele>
        <time>2024-07-27T07:53:57.550Z</time>
      </trkpt>
      <trkpt lat="53.93185" lon="14.52737">
        <ele>41.752423</ele>
        <time>2024-07-27T07:54:01.558Z</time>
      </trkpt>
      <trkpt lat="53.93188" lon="14.52753">
        <ele>41.27543</ele>
        <time>2024-07-27T07:54:04.541Z</time>
      </trkpt>
      <trkpt lat="53.93191" lon="14.52769">
        <ele>40.788811</ele>
        <time>2024-07-27T07:54:07.549Z</time>
      </trkpt>
      <trkpt lat="53.93196" lon="14.52787">
        <ele>40.481688</ele>
        <time>2024-07-27T07:54:10.540Z</time>
      </trkpt>
      <trkpt lat="53.932" lon="14.52802">
        <ele>40.354553</ele>
        <time>2024-07-27T07:54:13.548Z</time>
      </trkpt>
      <trkpt lat="53.93202" lon="14.52818">
        <ele>40.228541</ele>
        <time>2024-07-27T07:54:16.530Z</time>
      </trkpt>
      <trkpt lat="53.93203" lon="14.52835">
        <ele>40.098161</ele>
        <time>2024-07-27T07:54:19.537Z</time>
      </trkpt>
      <trkpt lat="53.93205" lon="14.52855">
        <ele>39.945895</ele>
        <time>2024-07-27T07:54:22.547Z</time>
      </trkpt>
      <trkpt lat="53.93207" lon="14.52873">
        <ele>39.809005</ele>
        <time>2024-07-27T07:54:25.548Z</time>
      </trkpt>
      <trkpt lat="53.93209" lon="14.52888">
        <ele>39.69197</ele>
        <time>2024-07-27T07:54:28.547Z</time>
      </trkpt>
      <trkpt lat="53.93211" lon="14.52905">
        <ele>39.557781</ele>
        <time>2024-07-27T07:54:31.547Z</time>
      </trkpt>
      <trkpt lat="53.93215" lon="14.52921">
        <ele>39.429119</ele>
        <time>2024-07-27T07:54:34.552Z</time>
      </trkpt>
      <trkpt lat="53.93218" lon="14.52938">
        <ele>39.296782</ele>
        <time>2024-07-27T07:54:37.535Z</time>
      </trkpt>
      <trkpt lat="53.9322" lon="14.52954">
        <ele>39.169113</ele>
        <time>2024-07-27T07:54:40.589Z</time>
      </trkpt>
      <trkpt lat="53.93224" lon="14.5297">
        <ele>39.037329</ele>
        <time>2024-07-27T07:54:43.565Z</time>
      </trkpt>
      <trkpt lat="53.93227" lon="14.52984">
        <ele>38.921348</ele>
        <time>2024-07-27T07:54:47.544Z</time>
      </trkpt>
      <trkpt lat="53.93231" lon="14.53">
        <ele>38.792468</ele>
        <time>2024-07-27T07:54:51.553Z</time>
      </trkpt>
      <trkpt lat="53.93236" lon="14.53017">
        <ele>38.648721</ele>
        <time>2024-07-27T07:54:55.545Z</time>
      </trkpt>
      <trkpt lat="53.93239" lon="14.53032">
        <ele>38.531637</ele>
        <time>2024-07-27T07:54:58.578Z</time>
      </trkpt>
      <trkpt lat="53.9324" lon="14.53052">
        <ele>38.378656</ele>
        <time>2024-07-27T07:55:02.553Z</time>
      </trkpt>
      <trkpt lat="53.9324" lon="14.53067">
        <ele>38.261062</ele>
        <time>2024-07-27T07:55:05.570Z</time>
      </trkpt>
      <trkpt lat="53.93238" lon="14.53084">
        <ele>38.626262</ele>
        <time>2024-07-27T07:55:08.581Z</time>
      </trkpt>
      <trkpt lat="53.93237" lon="14.531">
        <ele>38.9998</ele>
        <time>2024-07-27T07:55:11.554Z</time>
      </trkpt>
      <trkpt lat="53.93234" lon="14.53116">
        <ele>39.387024</ele>
        <time>2024-07-27T07:55:14.569Z</time>
      </trkpt>
      <trkpt lat="53.93231" lon="14.53133">
        <ele>39.796691</ele>
        <time>2024-07-27T07:55:17.568Z</time>
      </trkpt>
      <trkpt lat="53.93228" lon="14.5315">
        <ele>40.195911</ele>
        <time>2024-07-27T07:55:20.554Z</time>
      </trkpt>
      <trkpt lat="53.93224" lon="14.53166">
        <ele>40.587648</ele>
        <time>2024-07-27T07:55:23.557Z</time>
      </trkpt>
      <trkpt lat="53.93219" lon="14.53181">
        <ele>40.995143</ele>
        <time>2024-07-27T07:55:26.558Z</time>
      </trkpt>
      <trkpt lat="53.93214" lon="14.53198">
        <ele>41.42241</ele>
        <time>2024-07-27T07:55:30.566Z</time>
      </trkpt>
      <trkpt lat="53.93211" lon="14.53213">
        <ele>41.775296</ele>
        <time>2024-07-27T07:55:34.564Z</time>
      </trkpt>
      <trkpt lat="53.93208" lon="14.53229">
        <ele>42.164304</ele>
        <time>2024-07-27T07:55:39.556Z</time>
      </trkpt>
      <trkpt lat="53.93205" lon="14.53244">
        <ele>42.532578</ele>
        <time>2024-07-27T07:55:47.553Z</time>
      </trkpt>
      <trkpt lat="53.93202" lon="14.53259">
        <ele>42.884461</ele>
        <time>2024-07-27T07:55:52.553Z</time>
      </trkpt>
      <trkpt lat="53.93199" lon="14.53278">
        <ele>43.333044</ele>
        <time>2024-07-27T07:55:56.544Z</time>
      </trkpt>
      <trkpt lat="53.93196" lon="14.53293">
        <ele>43.700873</ele>
        <time>2024-07-27T07:55:59.558Z</time>
      </trkpt>
      <trkpt lat="53.93192" lon="14.53308">
        <ele>44.074849</ele>
        <time>2024-07-27T07:56:02.557Z</time>
      </trkpt>
      <trkpt lat="53.93188" lon="14.53322">
        <ele>44.439799</ele>
        <time>2024-07-27T07:56:05.545Z</time>
      </trkpt>
      <trkpt lat="53.93182" lon="14.53336">
        <ele>44.826062</ele>
        <time>2024-07-27T07:56:08.575Z</time>
      </trkpt>
      <trkpt lat="53.93177" lon="14.53351">
        <ele>45.206071</ele>
        <time>2024-07-27T07:56:11.550Z</time>
      </trkpt>
      <trkpt lat="53.93175" lon="14.53368">
        <ele>45.321394</ele>
        <time>2024-07-27T07:56:14.547Z</time>
      </trkpt>
      <trkpt lat="53.93173" lon="14.53387">
        <ele>45.416934</ele>
        <time>2024-07-27T07:56:17.564Z</time>
      </trkpt>
      <trkpt lat="53.93172" lon="14.53403">
        <ele>45.503602</ele>
        <time>2024-07-27T07:56:20.564Z</time>
      </trkpt>
      <trkpt lat="53.93169" lon="14.5342">
        <ele>45.59187</ele>
        <time>2024-07-27T07:56:23.560Z</time>
      </trkpt>
      <trkpt lat="53.93168" lon="14.53438">
        <ele>45.686433</ele>
        <time>2024-07-27T07:56:27.584Z</time>
      </trkpt>
      <trkpt lat="53.93167" lon="14.53457">
        <ele>45.785728</ele>
        <time>2024-07-27T07:56:31.571Z</time>
      </trkpt>
      <trkpt lat="53.93164" lon="14.53473">
        <ele>45.870072</ele>
        <time>2024-07-27T07:56:35.559Z</time>
      </trkpt>
      <trkpt lat="53.93163" lon="14.5349">
        <ele>45.957488</ele>
        <time>2024-07-27T07:56:39.550Z</time>
      </trkpt>
      <trkpt lat="53.93161" lon="14.53509">
        <ele>46.055397</ele>
        <time>2024-07-27T07:56:43.564Z</time>
      </trkpt>
      <trkpt lat="53.93159" lon="14.53525">
        <ele>46.140996</ele>
        <time>2024-07-27T07:56:46.569Z</time>
      </trkpt>
      <trkpt lat="53.93158" lon="14.53542">
        <ele>46.231655</ele>
        <time>2024-07-27T07:56:50.575Z</time>
      </trkpt>
      <trkpt lat="53.93158" lon="14.53562">
        <ele>46.332931</ele>
        <time>2024-07-27T07:56:54.559Z</time>
      </trkpt>
      <trkpt lat="53.93161" lon="14.53578">
        <ele>46.420083</ele>
        <time>2024-07-27T07:56:58.553Z</time>
      </trkpt>
      <trkpt lat="53.93162" lon="14.53595">
        <ele>46.505728</ele>
        <time>2024-07-27T07:57:02.570Z</time>
      </trkpt>
      <trkpt lat="53.93161" lon="14.53613">
        <ele>46.600842</ele>
        <time>2024-07-27T07:57:07.554Z</time>
      </trkpt>
      <trkpt lat="53.93162" lon="14.5363">
        <ele>46.68549</ele>
        <time>2024-07-27T07:57:11.549Z</time>
      </trkpt>
      <trkpt lat="53.93163" lon="14.53645">
        <ele>46.764885</ele>
        <time>2024-07-27T07:57:15.555Z</time>
      </trkpt>
      <trkpt lat="53.93167" lon="14.53663">
        <ele>46.658027</ele>
        <time>2024-07-27T07:57:20.541Z</time>
      </trkpt>
      <trkpt lat="53.93166" lon="14.53679">
        <ele>46.451586</ele>
        <time>2024-07-27T07:57:30.541Z</time>
      </trkpt>
      <trkpt lat="53.93176" lon="14.5368">
        <ele>46.229693</ele>
        <time>2024-07-27T07:59:54.563Z</time>
      </trkpt>
      <trkpt lat="53.93183" lon="14.53691">
        <ele>46.022244</ele>
        <time>2024-07-27T07:59:58.541Z</time>
      </trkpt>
      <trkpt lat="53.93197" lon="14.53702">
        <ele>45.682509</ele>
        <time>2024-07-27T08:00:37.562Z</time>
      </trkpt>
      <trkpt lat="53.93208" lon="14.53707">
        <ele>45.412999</ele>
        <time>2024-07-27T08:00:41.540Z</time>
      </trkpt>
      <trkpt lat="53.93218" lon="14.53708">
        <ele>45.184354</ele>
        <time>2024-07-27T08:00:44.543Z</time>
      </trkpt>
      <trkpt lat="53.93228" lon="14.53708">
        <ele>44.969902</ele>
        <time>2024-07-27T08:00:47.565Z</time>
      </trkpt>
      <trkpt lat="53.93236" lon="14.53699">
        <ele>44.752465</ele>
        <time>2024-07-27T08:00:50.553Z</time>
      </trkpt>
      <trkpt lat="53.93247" lon="14.5369">
        <ele>44.469247</ele>
        <time>2024-07-27T08:00:53.566Z</time>
      </trkpt>
      <trkpt lat="53.93258" lon="14.53682">
        <ele>44.199091</ele>
        <time>2024-07-27T08:00:56.558Z</time>
      </trkpt>
      <trkpt lat="53.93269" lon="14.53676">
        <ele>43.939186</ele>
        <time>2024-07-27T08:00:59.558Z</time>
      </trkpt>
      <trkpt lat="53.93279" lon="14.53673">
        <ele>43.705511</ele>
        <time>2024-07-27T08:01:02.570Z</time>
      </trkpt>
      <trkpt lat="53.93289" lon="14.5367">
        <ele>43.480241</ele>
        <time>2024-07-27T08:01:05.586Z</time>
      </trkpt>
      <trkpt lat="53.933" lon="14.53669">
        <ele>43.227405</ele>
        <time>2024-07-27T08:01:09.547Z</time>
      </trkpt>
      <trkpt lat="53.93312" lon="14.5367">
        <ele>42.967535</ele>
        <time>2024-07-27T08:01:13.572Z</time>
      </trkpt>
      <trkpt lat="53.93323" lon="14.53672">
        <ele>42.754551</ele>
        <time>2024-07-27T08:01:17.575Z</time>
      </trkpt>
      <trkpt lat="53.93334" lon="14.53675">
        <ele>42.800925</ele>
        <time>2024-07-27T08:01:21.572Z</time>
      </trkpt>
      <trkpt lat="53.93345" lon="14.53676">
        <ele>42.849224</ele>
        <time>2024-07-27T08:01:25.557Z</time>
      </trkpt>
      <trkpt lat="53.93355" lon="14.53676">
        <ele>42.891374</ele>
        <time>2024-07-27T08:01:29.561Z</time>
      </trkpt>
      <trkpt lat="53.93365" lon="14.53681">
        <ele>42.936438</ele>
        <time>2024-07-27T08:01:33.554Z</time>
      </trkpt>
      <trkpt lat="53.93375" lon="14.53684">
        <ele>42.977773</ele>
        <time>2024-07-27T08:01:37.549Z</time>
      </trkpt>
      <trkpt lat="53.93385" lon="14.53688">
        <ele>43.02343</ele>
        <time>2024-07-27T08:01:41.562Z</time>
      </trkpt>
      <trkpt lat="53.93396" lon="14.53694">
        <ele>43.071435</ele>
        <time>2024-07-27T08:01:45.547Z</time>
      </trkpt>
      <trkpt lat="53.93405" lon="14.53698">
        <ele>43.110636</ele>
        <time>2024-07-27T08:01:48.542Z</time>
      </trkpt>
      <trkpt lat="53.93414" lon="14.53705">
        <ele>43.153744</ele>
        <time>2024-07-27T08:01:51.543Z</time>
      </trkpt>
      <trkpt lat="53.93423" lon="14.53712">
        <ele>43.197855</ele>
        <time>2024-07-27T08:01:54.558Z</time>
      </trkpt>
      <trkpt lat="53.93433" lon="14.5372">
        <ele>43.242457</ele>
        <time>2024-07-27T08:01:57.556Z</time>
      </trkpt>
      <trkpt lat="53.93443" lon="14.53726">
        <ele>43.288983</ele>
        <time>2024-07-27T08:02:00.553Z</time>
      </trkpt>
      <trkpt lat="53.93452" lon="14.53733">
        <ele>43.331903</ele>
        <time>2024-07-27T08:02:03.564Z</time>
      </trkpt>
      <trkpt lat="53.93461" lon="14.53743">
        <ele>43.378322</ele>
        <time>2024-07-27T08:02:06.585Z</time>
      </trkpt>
      <trkpt lat="53.93472" lon="14.53752">
        <ele>43.427461</ele>
        <time>2024-07-27T08:02:09.563Z</time>
      </trkpt>
      <trkpt lat="53.93481" lon="14.5376">
        <ele>43.472306</ele>
        <time>2024-07-27T08:02:12.562Z</time>
      </trkpt>
      <trkpt lat="53.9349" lon="14.53769">
        <ele>43.522615</ele>
        <time>2024-07-27T08:02:15.566Z</time>
      </trkpt>
      <trkpt lat="53.93501" lon="14.53778">
        <ele>43.693286</ele>
        <time>2024-07-27T08:02:18.569Z</time>
      </trkpt>
      <trkpt lat="53.93511" lon="14.53789">
        <ele>43.870105</ele>
        <time>2024-07-27T08:02:21.561Z</time>
      </trkpt>
      <trkpt lat="53.9352" lon="14.53799">
        <ele>44.025865</ele>
        <time>2024-07-27T08:02:24.562Z</time>
      </trkpt>
      <trkpt lat="53.93529" lon="14.53809">
        <ele>44.188472</ele>
        <time>2024-07-27T08:02:27.556Z</time>
      </trkpt>
      <trkpt lat="53.9354" lon="14.53821">
        <ele>44.375138</ele>
        <time>2024-07-27T08:02:31.562Z</time>
      </trkpt>
      <trkpt lat="53.93549" lon="14.53831">
        <ele>44.536724</ele>
        <time>2024-07-27T08:02:35.567Z</time>
      </trkpt>
      <trkpt lat="53.93558" lon="14.53845">
        <ele>44.709805</ele>
        <time>2024-07-27T08:02:39.560Z</time>
      </trkpt>
      <trkpt lat="53.93569" lon="14.53854">
        <ele>44.885398</ele>
        <time>2024-07-27T08:02:43.541Z</time>
      </trkpt>
      <trkpt lat="53.93577" lon="14.53864">
        <ele>45.031746</ele>
        <time>2024-07-27T08:02:46.557Z</time>
      </trkpt>
      <trkpt lat="53.93586" lon="14.53874">
        <ele>45.185813</ele>
        <time>2024-07-27T08:02:49.559Z</time>
      </trkpt>
      <trkpt lat="53.93595" lon="14.53883">
        <ele>45.344781</ele>
        <time>2024-07-27T08:02:52.558Z</time>
      </trkpt>
      <trkpt lat="53.93603" lon="14.53894">
        <ele>45.491125</ele>
        <time>2024-07-27T08:02:55.570Z</time>
      </trkpt>
      <trkpt lat="53.9361" lon="14.53905">
        <ele>45.633142</ele>
        <time>2024-07-27T08:02:58.567Z</time>
      </trkpt>
      <trkpt lat="53.93616" lon="14.53919">
        <ele>45.780394</ele>
        <time>2024-07-27T08:03:01.556Z</time>
      </trkpt>
      <trkpt lat="53.93622" lon="14.53933">
        <ele>45.93702</ele>
        <time>2024-07-27T08:03:04.561Z</time>
      </trkpt>
      <trkpt lat="53.93628" lon="14.53949">
        <ele>46.088837</ele>
        <time>2024-07-27T08:03:07.578Z</time>
      </trkpt>
      <trkpt lat="53.93634" lon="14.53965">
        <ele>46.195645</ele>
        <time>2024-07-27T08:03:10.577Z</time>
      </trkpt>
      <trkpt lat="53.93636" lon="14.53983">
        <ele>46.274065</ele>
        <time>2024-07-27T08:03:13.564Z</time>
      </trkpt>
      <trkpt lat="53.93639" lon="14.54003">
        <ele>46.360818</ele>
        <time>2024-07-27T08:03:16.563Z</time>
      </trkpt>
      <trkpt lat="53.93644" lon="14.54022">
        <ele>46.447297</ele>
        <time>2024-07-27T08:03:19.565Z</time>
      </trkpt>
      <trkpt lat="53.93647" lon="14.5404">
        <ele>46.525604</ele>
        <time>2024-07-27T08:03:22.562Z</time>
      </trkpt>
      <trkpt lat="53.93651" lon="14.54058">
        <ele>46.603111</ele>
        <time>2024-07-27T08:03:25.567Z</time>
      </trkpt>
      <trkpt lat="53.93654" lon="14.54074">
        <ele>46.676631</ele>
        <time>2024-07-27T08:03:28.589Z</time>
      </trkpt>
      <trkpt lat="53.93657" lon="14.54091">
        <ele>46.751175</ele>
        <time>2024-07-27T08:03:31.557Z</time>
      </trkpt>
      <trkpt lat="53.93661" lon="14.54108">
        <ele>46.826953</ele>
        <time>2024-07-27T08:03:34.576Z</time>
      </trkpt>
      <trkpt lat="53.93664" lon="14.54123">
        <ele>46.895598</ele>
        <time>2024-07-27T08:03:37.562Z</time>
      </trkpt>
      <trkpt lat="53.93667" lon="14.54141">
        <ele>46.971077</ele>
        <time>2024-07-27T08:03:40.561Z</time>
      </trkpt>
      <trkpt lat="53.93669" lon="14.54157">
        <ele>47.040254</ele>
        <time>2024-07-27T08:03:43.554Z</time>
      </trkpt>
      <trkpt lat="53.93671" lon="14.54172">
        <ele>47.105312</ele>
        <time>2024-07-27T08:03:46.557Z</time>
      </trkpt>
      <trkpt lat="53.93673" lon="14.54191">
        <ele>47.184651</ele>
        <time>2024-07-27T08:03:49.557Z</time>
      </trkpt>
      <trkpt lat="53.93675" lon="14.54209">
        <ele>47.264052</ele>
        <time>2024-07-27T08:03:52.553Z</time>
      </trkpt>
      <trkpt lat="53.9368" lon="14.54226">
        <ele>47.344001</ele>
        <time>2024-07-27T08:03:55.554Z</time>
      </trkpt>
      <trkpt lat="53.93683" lon="14.54242">
        <ele>47.41508</ele>
        <time>2024-07-27T08:03:58.574Z</time>
      </trkpt>
      <trkpt lat="53.93686" lon="14.54257">
        <ele>47.502468</ele>
        <time>2024-07-27T08:04:01.545Z</time>
      </trkpt>
      <trkpt lat="53.93691" lon="14.54274">
        <ele>47.609027</ele>
        <time>2024-07-27T08:04:04.560Z</time>
      </trkpt>
      <trkpt lat="53.93695" lon="14.5429">
        <ele>47.710058</ele>
        <time>2024-07-27T08:04:07.571Z</time>
      </trkpt>
      <trkpt lat="53.937" lon="14.54307">
        <ele>47.820645</ele>
        <time>2024-07-27T08:04:10.547Z</time>
      </trkpt>
      <trkpt lat="53.93704" lon="14.54323">
        <ele>47.91881</ele>
        <time>2024-07-27T08:04:13.571Z</time>
      </trkpt>
      <trkpt lat="53.93708" lon="14.54341">
        <ele>48.031409</ele>
        <time>2024-07-27T08:04:16.566Z</time>
      </trkpt>
      <trkpt lat="53.93713" lon="14.54359">
        <ele>48.145625</ele>
        <time>2024-07-27T08:04:19.577Z</time>
      </trkpt>
      <trkpt lat="53.93716" lon="14.54376">
        <ele>48.244382</ele>
        <time>2024-07-27T08:04:22.561Z</time>
      </trkpt>
      <trkpt lat="53.93718" lon="14.54392">
        <ele>48.340141</ele>
        <time>2024-07-27T08:04:25.553Z</time>
      </trkpt>
      <trkpt lat="53.93721" lon="14.54409">
        <ele>48.440845</ele>
        <time>2024-07-27T08:04:28.569Z</time>
      </trkpt>
      <trkpt lat="53.93724" lon="14.54425">
        <ele>48.541301</ele>
        <time>2024-07-27T08:04:31.555Z</time>
      </trkpt>
      <trkpt lat="53.93727" lon="14.54444">
        <ele>48.652591</ele>
        <time>2024-07-27T08:04:35.544Z</time>
      </trkpt>
      <trkpt lat="53.93731" lon="14.54459">
        <ele>48.743624</ele>
        <time>2024-07-27T08:04:38.575Z</time>
      </trkpt>
      <trkpt lat="53.93736" lon="14.54474">
        <ele>48.843737</ele>
        <time>2024-07-27T08:04:41.551Z</time>
      </trkpt>
      <trkpt lat="53.93742" lon="14.54489">
        <ele>48.949848</ele>
        <time>2024-07-27T08:04:44.557Z</time>
      </trkpt>
      <trkpt lat="53.93747" lon="14.54503">
        <ele>49.04055</ele>
        <time>2024-07-27T08:04:47.559Z</time>
      </trkpt>
      <trkpt lat="53.93753" lon="14.54517">
        <ele>49.148675</ele>
        <time>2024-07-27T08:04:50.547Z</time>
      </trkpt>
      <trkpt lat="53.93759" lon="14.5453">
        <ele>49.438455</ele>
        <time>2024-07-27T08:04:53.583Z</time>
      </trkpt>
      <trkpt lat="53.93766" lon="14.54544">
        <ele>49.839142</ele>
        <time>2024-07-27T08:04:57.563Z</time>
      </trkpt>
      <trkpt lat="53.93773" lon="14.54561">
        <ele>50.299397</ele>
        <time>2024-07-27T08:05:01.546Z</time>
      </trkpt>
      <trkpt lat="53.93779" lon="14.54573">
        <ele>50.673551</ele>
        <time>2024-07-27T08:05:05.559Z</time>
      </trkpt>
      <trkpt lat="53.93786" lon="14.54582">
        <ele>51.035075</ele>
        <time>2024-07-27T08:05:09.542Z</time>
      </trkpt>
      <trkpt lat="53.93796" lon="14.54593">
        <ele>51.488762</ele>
        <time>2024-07-27T08:05:13.543Z</time>
      </trkpt>
      <trkpt lat="53.93804" lon="14.54603">
        <ele>51.891524</ele>
        <time>2024-07-27T08:05:16.560Z</time>
      </trkpt>
      <trkpt lat="53.93813" lon="14.54615">
        <ele>52.33156</ele>
        <time>2024-07-27T08:05:20.555Z</time>
      </trkpt>
      <trkpt lat="53.93822" lon="14.54623">
        <ele>52.712863</ele>
        <time>2024-07-27T08:05:24.558Z</time>
      </trkpt>
      <trkpt lat="53.93831" lon="14.54631">
        <ele>53.114219</ele>
        <time>2024-07-27T08:05:28.569Z</time>
      </trkpt>
      <trkpt lat="53.9384" lon="14.54641">
        <ele>53.528425</ele>
        <time>2024-07-27T08:05:33.547Z</time>
      </trkpt>
      <trkpt lat="53.93848" lon="14.54649">
        <ele>53.889091</ele>
        <time>2024-07-27T08:05:37.548Z</time>
      </trkpt>
      <trkpt lat="53.93856" lon="14.5466">
        <ele>54.302016</ele>
        <time>2024-07-27T08:05:42.538Z</time>
      </trkpt>
      <trkpt lat="53.93864" lon="14.54668">
        <ele>54.662682</ele>
        <time>2024-07-27T08:05:46.551Z</time>
      </trkpt>
      <trkpt lat="53.93875" lon="14.54678">
        <ele>55.126221</ele>
        <time>2024-07-27T08:05:51.545Z</time>
      </trkpt>
      <trkpt lat="53.93883" lon="14.54687">
        <ele>55.531098</ele>
        <time>2024-07-27T08:05:55.543Z</time>
      </trkpt>
      <trkpt lat="53.93893" lon="14.54694">
        <ele>55.925903</ele>
        <time>2024-07-27T08:06:00.555Z</time>
      </trkpt>
      <trkpt lat="53.93901" lon="14.54705">
        <ele>56.124624</ele>
        <time>2024-07-27T08:06:05.541Z</time>
      </trkpt>
      <trkpt lat="53.93909" lon="14.54713">
        <ele>55.946462</ele>
        <time>2024-07-27T08:06:09.548Z</time>
      </trkpt>
      <trkpt lat="53.93919" lon="14.54722">
        <ele>55.754031</ele>
        <time>2024-07-27T08:06:13.558Z</time>
      </trkpt>
      <trkpt lat="53.93927" lon="14.5473">
        <ele>55.588484</ele>
        <time>2024-07-27T08:06:17.552Z</time>
      </trkpt>
      <trkpt lat="53.93936" lon="14.54737">
        <ele>55.400329</ele>
        <time>2024-07-27T08:06:22.546Z</time>
      </trkpt>
      <trkpt lat="53.93953" lon="14.54754">
        <ele>55.050314</ele>
        <time>2024-07-27T08:07:05.567Z</time>
      </trkpt>
      <trkpt lat="53.9396" lon="14.54764">
        <ele>54.876253</ele>
        <time>2024-07-27T08:07:09.551Z</time>
      </trkpt>
      <trkpt lat="53.93969" lon="14.54774">
        <ele>54.687127</ele>
        <time>2024-07-27T08:07:13.557Z</time>
      </trkpt>
      <trkpt lat="53.93976" lon="14.54783">
        <ele>54.521377</ele>
        <time>2024-07-27T08:07:16.546Z</time>
      </trkpt>
      <trkpt lat="53.93988" lon="14.54794">
        <ele>54.286377</ele>
        <time>2024-07-27T08:07:19.570Z</time>
      </trkpt>
      <trkpt lat="53.93998" lon="14.54805">
        <ele>54.056678</ele>
        <time>2024-07-27T08:07:21.576Z</time>
      </trkpt>
      <trkpt lat="53.94007" lon="14.54812">
        <ele>53.879076</ele>
        <time>2024-07-27T08:07:23.564Z</time>
      </trkpt>
      <trkpt lat="53.94017" lon="14.54821">
        <ele>53.68612</ele>
        <time>2024-07-27T08:07:25.578Z</time>
      </trkpt>
      <trkpt lat="53.94025" lon="14.54829">
        <ele>53.514269</ele>
        <time>2024-07-27T08:07:27.559Z</time>
      </trkpt>
      <trkpt lat="53.94037" lon="14.54838">
        <ele>53.277689</ele>
        <time>2024-07-27T08:07:30.562Z</time>
      </trkpt>
      <trkpt lat="53.94048" lon="14.54847">
        <ele>53.046644</ele>
        <time>2024-07-27T08:07:32.552Z</time>
      </trkpt>
      <trkpt lat="53.94059" lon="14.54856">
        <ele>52.790282</ele>
        <time>2024-07-27T08:07:34.539Z</time>
      </trkpt>
      <trkpt lat="53.94068" lon="14.54864">
        <ele>52.531385</ele>
        <time>2024-07-27T08:07:36.569Z</time>
      </trkpt>
      <trkpt lat="53.94078" lon="14.54873">
        <ele>52.2462</ele>
        <time>2024-07-27T08:07:39.564Z</time>
      </trkpt>
      <trkpt lat="53.94087" lon="14.54881">
        <ele>51.98369</ele>
        <time>2024-07-27T08:07:41.554Z</time>
      </trkpt>
      <trkpt lat="53.94097" lon="14.5489">
        <ele>51.707268</ele>
        <time>2024-07-27T08:07:43.555Z</time>
      </trkpt>
      <trkpt lat="53.94107" lon="14.54898">
        <ele>51.42124</ele>
        <time>2024-07-27T08:07:45.549Z</time>
      </trkpt>
      <trkpt lat="53.94119" lon="14.54908">
        <ele>51.103074</ele>
        <time>2024-07-27T08:07:47.556Z</time>
      </trkpt>
      <trkpt lat="53.9413" lon="14.54916">
        <ele>50.802689</ele>
        <time>2024-07-27T08:07:49.547Z</time>
      </trkpt>
      <trkpt lat="53.9414" lon="14.54924">
        <ele>50.516794</ele>
        <time>2024-07-27T08:07:51.569Z</time>
      </trkpt>
      <trkpt lat="53.9415" lon="14.54931">
        <ele>50.228588</ele>
        <time>2024-07-27T08:07:53.557Z</time>
      </trkpt>
      <trkpt lat="53.9416" lon="14.5494">
        <ele>49.958009</ele>
        <time>2024-07-27T08:07:55.557Z</time>
      </trkpt>
      <trkpt lat="53.94169" lon="14.54949">
        <ele>49.685328</ele>
        <time>2024-07-27T08:07:57.549Z</time>
      </trkpt>
      <trkpt lat="53.94178" lon="14.54958">
        <ele>49.422268</ele>
        <time>2024-07-27T08:07:59.555Z</time>
      </trkpt>
      <trkpt lat="53.94187" lon="14.54967">
        <ele>49.158394</ele>
        <time>2024-07-27T08:08:01.554Z</time>
      </trkpt>
      <trkpt lat="53.94197" lon="14.54976">
        <ele>48.889403</ele>
        <time>2024-07-27T08:08:03.546Z</time>
      </trkpt>
      <trkpt lat="53.94206" lon="14.54983">
        <ele>48.629036</ele>
        <time>2024-07-27T08:08:05.540Z</time>
      </trkpt>
      <trkpt lat="53.94216" lon="14.54991">
        <ele>48.396705</ele>
        <time>2024-07-27T08:08:07.555Z</time>
      </trkpt>
      <trkpt lat="53.94225" lon="14.54999">
        <ele>48.390743</ele>
        <time>2024-07-27T08:08:09.555Z</time>
      </trkpt>
      <trkpt lat="53.94233" lon="14.55007">
        <ele>48.385511</ele>
        <time>2024-07-27T08:08:11.559Z</time>
      </trkpt>
      <trkpt lat="53.94242" lon="14.55014">
        <ele>48.380168</ele>
        <time>2024-07-27T08:08:13.532Z</time>
      </trkpt>
      <trkpt lat="53.94254" lon="14.55024">
        <ele>48.372399</ele>
        <time>2024-07-27T08:08:16.545Z</time>
      </trkpt>
      <trkpt lat="53.94263" lon="14.55033">
        <ele>48.366635</ele>
        <time>2024-07-27T08:08:18.554Z</time>
      </trkpt>
      <trkpt lat="53.9427" lon="14.55042">
        <ele>48.361232</ele>
        <time>2024-07-27T08:08:20.560Z</time>
      </trkpt>
      <trkpt lat="53.94278" lon="14.5505">
        <ele>48.35605</ele>
        <time>2024-07-27T08:08:22.547Z</time>
      </trkpt>
      <trkpt lat="53.94289" lon="14.55059">
        <ele>48.349222</ele>
        <time>2024-07-27T08:08:25.552Z</time>
      </trkpt>
      <trkpt lat="53.943" lon="14.55069">
        <ele>48.342123</ele>
        <time>2024-07-27T08:08:28.574Z</time>
      </trkpt>
      <trkpt lat="53.94311" lon="14.55077">
        <ele>48.33548</ele>
        <time>2024-07-27T08:08:31.555Z</time>
      </trkpt>
      <trkpt lat="53.94321" lon="14.55088">
        <ele>48.328735</ele>
        <time>2024-07-27T08:08:34.544Z</time>
      </trkpt>
      <trkpt lat="53.94331" lon="14.551">
        <ele>48.321672</ele>
        <time>2024-07-27T08:08:37.551Z</time>
      </trkpt>
      <trkpt lat="53.94342" lon="14.5511">
        <ele>48.314894</ele>
        <time>2024-07-27T08:08:39.550Z</time>
      </trkpt>
      <trkpt lat="53.94353" lon="14.55119">
        <ele>48.307926</ele>
        <time>2024-07-27T08:08:41.551Z</time>
      </trkpt>
      <trkpt lat="53.94361" lon="14.55126">
        <ele>48.302379</ele>
        <time>2024-07-27T08:08:43.548Z</time>
      </trkpt>
      <trkpt lat="53.94372" lon="14.55138">
        <ele>48.291355</ele>
        <time>2024-07-27T08:08:46.551Z</time>
      </trkpt>
      <trkpt lat="53.9438" lon="14.5515">
        <ele>48.191881</ele>
        <time>2024-07-27T08:08:49.542Z</time>
      </trkpt>
      <trkpt lat="53.9439" lon="14.55163">
        <ele>48.078902</ele>
        <time>2024-07-27T08:08:52.550Z</time>
      </trkpt>
      <trkpt lat="53.94399" lon="14.55176">
        <ele>47.971821</ele>
        <time>2024-07-27T08:08:54.543Z</time>
      </trkpt>
      <trkpt lat="53.94407" lon="14.55189">
        <ele>47.870166</ele>
        <time>2024-07-27T08:08:56.547Z</time>
      </trkpt>
      <trkpt lat="53.94414" lon="14.55202">
        <ele>47.777174</ele>
        <time>2024-07-27T08:08:58.532Z</time>
      </trkpt>
      <trkpt lat="53.9442" lon="14.55213">
        <ele>47.694526</ele>
        <time>2024-07-27T08:09:00.561Z</time>
      </trkpt>
      <trkpt lat="53.94428" lon="14.55227">
        <ele>47.591682</ele>
        <time>2024-07-27T08:09:02.556Z</time>
      </trkpt>
      <trkpt lat="53.94436" lon="14.55239">
        <ele>47.496981</ele>
        <time>2024-07-27T08:09:04.550Z</time>
      </trkpt>
      <trkpt lat="53.94442" lon="14.55252">
        <ele>47.405983</ele>
        <time>2024-07-27T08:09:06.547Z</time>
      </trkpt>
      <trkpt lat="53.94448" lon="14.55265">
        <ele>47.320398</ele>
        <time>2024-07-27T08:09:08.570Z</time>
      </trkpt>
      <trkpt lat="53.94455" lon="14.55276">
        <ele>47.233789</ele>
        <time>2024-07-27T08:09:10.545Z</time>
      </trkpt>
      <trkpt lat="53.94462" lon="14.5529">
        <ele>47.140207</ele>
        <time>2024-07-27T08:09:12.557Z</time>
      </trkpt>
      <trkpt lat="53.94469" lon="14.55302">
        <ele>47.043387</ele>
        <time>2024-07-27T08:09:14.549Z</time>
      </trkpt>
      <trkpt lat="53.94477" lon="14.55314">
        <ele>46.950787</ele>
        <time>2024-07-27T08:09:16.554Z</time>
      </trkpt>
      <trkpt lat="53.94484" lon="14.55324">
        <ele>46.866512</ele>
        <time>2024-07-27T08:09:18.541Z</time>
      </trkpt>
      <trkpt lat="53.94493" lon="14.55339">
        <ele>46.752887</ele>
        <time>2024-07-27T08:09:21.561Z</time>
      </trkpt>
      <trkpt lat="53.945" lon="14.55351">
        <ele>46.66243</ele>
        <time>2024-07-27T08:09:24.546Z</time>
      </trkpt>
      <trkpt lat="53.94505" lon="14.55365">
        <ele>46.405764</ele>
        <time>2024-07-27T08:09:36.544Z</time>
      </trkpt>
      <trkpt lat="53.94512" lon="14.55378">
        <ele>46.126721</ele>
        <time>2024-07-27T08:09:44.558Z</time>
      </trkpt>
      <trkpt lat="53.94519" lon="14.5539">
        <ele>45.885129</ele>
        <time>2024-07-27T08:09:48.567Z</time>
      </trkpt>
      <trkpt lat="53.94528" lon="14.55402">
        <ele>45.57543</ele>
        <time>2024-07-27T08:09:52.545Z</time>
      </trkpt>
      <trkpt lat="53.94535" lon="14.55414">
        <ele>45.306417</ele>
        <time>2024-07-27T08:09:55.544Z</time>
      </trkpt>
      <trkpt lat="53.94543" lon="14.55427">
        <ele>45.01643</ele>
        <time>2024-07-27T08:09:58.545Z</time>
      </trkpt>
      <trkpt lat="53.94551" lon="14.55443">
        <ele>44.693016</ele>
        <time>2024-07-27T08:10:01.575Z</time>
      </trkpt>
      <trkpt lat="53.94557" lon="14.55457">
        <ele>44.42515</ele>
        <time>2024-07-27T08:10:04.552Z</time>
      </trkpt>
      <trkpt lat="53.94562" lon="14.55473">
        <ele>44.14</ele>
        <time>2024-07-27T08:10:08.545Z</time>
      </trkpt>
      <trkpt lat="53.94568" lon="14.55488">
        <ele>43.863087</ele>
        <time>2024-07-27T08:10:11.550Z</time>
      </trkpt>
      <trkpt lat="53.94575" lon="14.55505">
        <ele>43.561855</ele>
        <time>2024-07-27T08:10:14.546Z</time>
      </trkpt>
      <trkpt lat="53.94581" lon="14.55521">
        <ele>43.256964</ele>
        <time>2024-07-27T08:10:17.551Z</time>
      </trkpt>
      <trkpt lat="53.94587" lon="14.55537">
        <ele>42.962061</ele>
        <time>2024-07-27T08:10:20.547Z</time>
      </trkpt>
      <trkpt lat="53.94595" lon="14.55552">
        <ele>42.651979</ele>
        <time>2024-07-27T08:10:23.545Z</time>
      </trkpt>
      <trkpt lat="53.94602" lon="14.55568">
        <ele>42.341579</ele>
        <time>2024-07-27T08:10:26.546Z</time>
      </trkpt>
      <trkpt lat="53.9461" lon="14.55585">
        <ele>42.007784</ele>
        <time>2024-07-27T08:10:29.552Z</time>
      </trkpt>
      <trkpt lat="53.94617" lon="14.55602">
        <ele>42.212698</ele>
        <time>2024-07-27T08:10:32.562Z</time>
      </trkpt>
      <trkpt lat="53.94627" lon="14.55619">
        <ele>42.579538</ele>
        <time>2024-07-27T08:10:35.557Z</time>
      </trkpt>
      <trkpt lat="53.94633" lon="14.55631">
        <ele>42.828139</ele>
        <time>2024-07-27T08:10:37.552Z</time>
      </trkpt>
      <trkpt lat="53.9464" lon="14.55647">
        <ele>43.135657</ele>
        <time>2024-07-27T08:10:40.562Z</time>
      </trkpt>
      <trkpt lat="53.94646" lon="14.55664">
        <ele>43.452907</ele>
        <time>2024-07-27T08:10:43.548Z</time>
      </trkpt>
      <trkpt lat="53.94653" lon="14.55676">
        <ele>43.700994</ele>
        <time>2024-07-27T08:10:45.555Z</time>
      </trkpt>
      <trkpt lat="53.94661" lon="14.5569">
        <ele>44.013694</ele>
        <time>2024-07-27T08:10:48.538Z</time>
      </trkpt>
      <trkpt lat="53.94668" lon="14.55704">
        <ele>44.306532</ele>
        <time>2024-07-27T08:10:51.555Z</time>
      </trkpt>
      <trkpt lat="53.94675" lon="14.5572">
        <ele>44.605224</ele>
        <time>2024-07-27T08:10:54.541Z</time>
      </trkpt>
      <trkpt lat="53.94681" lon="14.55735">
        <ele>44.88611</ele>
        <time>2024-07-27T08:10:57.547Z</time>
      </trkpt>
      <trkpt lat="53.94687" lon="14.55749">
        <ele>45.166738</ele>
        <time>2024-07-27T08:11:00.552Z</time>
      </trkpt>
      <trkpt lat="53.94693" lon="14.55764">
        <ele>45.437751</ele>
        <time>2024-07-27T08:11:03.556Z</time>
      </trkpt>
      <trkpt lat="53.947" lon="14.55779">
        <ele>45.736148</ele>
        <time>2024-07-27T08:11:06.550Z</time>
      </trkpt>
      <trkpt lat="53.94705" lon="14.55795">
        <ele>46.023933</ele>
        <time>2024-07-27T08:11:09.552Z</time>
      </trkpt>
      <trkpt lat="53.94711" lon="14.5581">
        <ele>46.301043</ele>
        <time>2024-07-27T08:11:12.545Z</time>
      </trkpt>
      <trkpt lat="53.94718" lon="14.55824">
        <ele>46.586578</ele>
        <time>2024-07-27T08:11:15.559Z</time>
      </trkpt>
      <trkpt lat="53.94724" lon="14.55837">
        <ele>46.738852</ele>
        <time>2024-07-27T08:11:18.553Z</time>
      </trkpt>
      <trkpt lat="53.94731" lon="14.55852">
        <ele>46.815981</ele>
        <time>2024-07-27T08:11:21.549Z</time>
      </trkpt>
      <trkpt lat="53.94737" lon="14.55867">
        <ele>46.892166</ele>
        <time>2024-07-27T08:11:24.555Z</time>
      </trkpt>
      <trkpt lat="53.94744" lon="14.55881">
        <ele>46.969881</ele>
        <time>2024-07-27T08:11:27.557Z</time>
      </trkpt>
      <trkpt lat="53.9475" lon="14.55898">
        <ele>47.053772</ele>
        <time>2024-07-27T08:11:30.560Z</time>
      </trkpt>
      <trkpt lat="53.94757" lon="14.55914">
        <ele>47.138772</ele>
        <time>2024-07-27T08:11:33.549Z</time>
      </trkpt>
      <trkpt lat="53.94764" lon="14.5593">
        <ele>47.222284</ele>
        <time>2024-07-27T08:11:36.540Z</time>
      </trkpt>
      <trkpt lat="53.9477" lon="14.55945">
        <ele>47.300088</ele>
        <time>2024-07-27T08:11:39.567Z</time>
      </trkpt>
      <trkpt lat="53.94777" lon="14.5596">
        <ele>47.38215</ele>
        <time>2024-07-27T08:11:42.559Z</time>
      </trkpt>
      <trkpt lat="53.94784" lon="14.55977">
        <ele>47.467535</ele>
        <time>2024-07-27T08:11:45.575Z</time>
      </trkpt>
      <trkpt lat="53.94791" lon="14.55994">
        <ele>47.555329</ele>
        <time>2024-07-27T08:11:48.564Z</time>
      </trkpt>
      <trkpt lat="53.94797" lon="14.56008">
        <ele>47.630677</ele>
        <time>2024-07-27T08:11:51.563Z</time>
      </trkpt>
      <trkpt lat="53.94804" lon="14.56022">
        <ele>47.706466</ele>
        <time>2024-07-27T08:11:54.534Z</time>
      </trkpt>
      <trkpt lat="53.94811" lon="14.56038">
        <ele>47.792192</ele>
        <time>2024-07-27T08:11:57.559Z</time>
      </trkpt>
      <trkpt lat="53.94818" lon="14.56055">
        <ele>47.87952</ele>
        <time>2024-07-27T08:12:00.549Z</time>
      </trkpt>
      <trkpt lat="53.94825" lon="14.5607">
        <ele>47.958512</ele>
        <time>2024-07-27T08:12:03.549Z</time>
      </trkpt>
      <trkpt lat="53.94832" lon="14.56087">
        <ele>48.118908</ele>
        <time>2024-07-27T08:12:06.556Z</time>
      </trkpt>
      <trkpt lat="53.94838" lon="14.56101">
        <ele>48.272969</ele>
        <time>2024-07-27T08:12:08.591Z</time>
      </trkpt>
      <trkpt lat="53.94846" lon="14.56118">
        <ele>48.462972</ele>
        <time>2024-07-27T08:12:11.552Z</time>
      </trkpt>
      <trkpt lat="53.94854" lon="14.56134">
        <ele>48.650432</ele>
        <time>2024-07-27T08:12:14.547Z</time>
      </trkpt>
      <trkpt lat="53.9486" lon="14.5615">
        <ele>48.82264</ele>
        <time>2024-07-27T08:12:17.553Z</time>
      </trkpt>
      <trkpt lat="53.94867" lon="14.56167">
        <ele>49.009019</ele>
        <time>2024-07-27T08:12:20.548Z</time>
      </trkpt>
      <trkpt lat="53.94874" lon="14.56183">
        <ele>49.196479</ele>
        <time>2024-07-27T08:12:23.547Z</time>
      </trkpt>
      <trkpt lat="53.94882" lon="14.56198">
        <ele>49.369007</ele>
        <time>2024-07-27T08:12:26.550Z</time>
      </trkpt>
      <trkpt lat="53.9489" lon="14.56212">
        <ele>49.541919</ele>
        <time>2024-07-27T08:12:29.559Z</time>
      </trkpt>
      <trkpt lat="53.94898" lon="14.56224">
        <ele>49.713067</ele>
        <time>2024-07-27T08:12:32.551Z</time>
      </trkpt>
      <trkpt lat="53.94908" lon="14.56236">
        <ele>49.899277</ele>
        <time>2024-07-27T08:12:35.563Z</time>
      </trkpt>
      <trkpt lat="53.94917" lon="14.56248">
        <ele>50.068076</ele>
        <time>2024-07-27T08:12:38.551Z</time>
      </trkpt>
      <trkpt lat="53.94924" lon="14.56259">
        <ele>50.217693</ele>
        <time>2024-07-27T08:12:41.551Z</time>
      </trkpt>
      <trkpt lat="53.94933" lon="14.56267">
        <ele>50.372309</ele>
        <time>2024-07-27T08:12:44.558Z</time>
      </trkpt>
      <trkpt lat="53.94942" lon="14.56278">
        <ele>50.539179</ele>
        <time>2024-07-27T08:12:47.546Z</time>
      </trkpt>
      <trkpt lat="53.94951" lon="14.56289">
        <ele>50.706582</ele>
        <time>2024-07-27T08:12:50.547Z</time>
      </trkpt>
      <trkpt lat="53.94959" lon="14.56299">
        <ele>50.859617</ele>
        <time>2024-07-27T08:12:53.561Z</time>
      </trkpt>
      <trkpt lat="53.94967" lon="14.56309">
        <ele>51.021886</ele>
        <time>2024-07-27T08:12:57.559Z</time>
      </trkpt>
      <trkpt lat="53.94975" lon="14.56318">
        <ele>51.170353</ele>
        <time>2024-07-27T08:13:01.564Z</time>
      </trkpt>
      <trkpt lat="53.94985" lon="14.56328">
        <ele>51.340148</ele>
        <time>2024-07-27T08:13:05.561Z</time>
      </trkpt>
      <trkpt lat="53.94994" lon="14.5634">
        <ele>51.520643</ele>
        <time>2024-07-27T08:13:09.556Z</time>
      </trkpt>
      <trkpt lat="53.95003" lon="14.56351">
        <ele>51.693259</ele>
        <time>2024-07-27T08:13:13.552Z</time>
      </trkpt>
      <trkpt lat="53.9501" lon="14.5636">
        <ele>51.836235</ele>
        <time>2024-07-27T08:13:16.551Z</time>
      </trkpt>
      <trkpt lat="53.9502" lon="14.56369">
        <ele>52.004404</ele>
        <time>2024-07-27T08:13:19.558Z</time>
      </trkpt>
      <trkpt lat="53.95028" lon="14.56378">
        <ele>52.14811</ele>
        <time>2024-07-27T08:13:22.557Z</time>
      </trkpt>
      <trkpt lat="53.95036" lon="14.56388">
        <ele>52.302865</ele>
        <time>2024-07-27T08:13:25.567Z</time>
      </trkpt>
      <trkpt lat="53.95043" lon="14.56398">
        <ele>52.447323</ele>
        <time>2024-07-27T08:13:28.559Z</time>
      </trkpt>
      <trkpt lat="53.95053" lon="14.5641">
        <ele>52.632615</ele>
        <time>2024-07-27T08:13:32.550Z</time>
      </trkpt>
      <trkpt lat="53.95062" lon="14.56423">
        <ele>52.817571</ele>
        <time>2024-07-27T08:13:36.550Z</time>
      </trkpt>
      <trkpt lat="53.95071" lon="14.56434">
        <ele>52.991447</ele>
        <time>2024-07-27T08:13:40.552Z</time>
      </trkpt>
      <trkpt lat="53.95081" lon="14.56442">
        <ele>53.158717</ele>
        <time>2024-07-27T08:13:44.552Z</time>
      </trkpt>
      <trkpt lat="53.95091" lon="14.56451">
        <ele>53.336364</ele>
        <time>2024-07-27T08:13:48.572Z</time>
      </trkpt>
      <trkpt lat="53.95099" lon="14.56461">
        <ele>53.490955</ele>
        <time>2024-07-27T08:13:51.558Z</time>
      </trkpt>
      <trkpt lat="53.95108" lon="14.5647">
        <ele>53.690959</ele>
        <time>2024-07-27T08:13:56.558Z</time>
      </trkpt>
      <trkpt lat="53.95116" lon="14.56481">
        <ele>53.905641</ele>
        <time>2024-07-27T08:14:01.562Z</time>
      </trkpt>
      <trkpt lat="53.95124" lon="14.5649">
        <ele>54.102555</ele>
        <time>2024-07-27T08:14:05.569Z</time>
      </trkpt>
      <trkpt lat="53.95134" lon="14.56501">
        <ele>54.349653</ele>
        <time>2024-07-27T08:14:09.553Z</time>
      </trkpt>
      <trkpt lat="53.95141" lon="14.56511">
        <ele>54.541588</ele>
        <time>2024-07-27T08:14:12.555Z</time>
      </trkpt>
      <trkpt lat="53.95149" lon="14.56519">
        <ele>54.740896</ele>
        <time>2024-07-27T08:14:15.552Z</time>
      </trkpt>
      <trkpt lat="53.95158" lon="14.56528">
        <ele>54.939698</ele>
        <time>2024-07-27T08:14:18.574Z</time>
      </trkpt>
      <trkpt lat="53.95165" lon="14.56537">
        <ele>55.134212</ele>
        <time>2024-07-27T08:14:21.554Z</time>
      </trkpt>
      <trkpt lat="53.95174" lon="14.56545">
        <ele>55.33175</ele>
        <time>2024-07-27T08:14:24.549Z</time>
      </trkpt>
      <trkpt lat="53.95182" lon="14.56554">
        <ele>55.539395</ele>
        <time>2024-07-27T08:14:27.556Z</time>
      </trkpt>
      <trkpt lat="53.9519" lon="14.56563">
        <ele>55.737383</ele>
        <time>2024-07-27T08:14:30.549Z</time>
      </trkpt>
      <trkpt lat="53.95197" lon="14.56573">
        <ele>55.923073</ele>
        <time>2024-07-27T08:14:33.554Z</time>
      </trkpt>
      <trkpt lat="53.95207" lon="14.56585">
        <ele>56.171853</ele>
        <time>2024-07-27T08:14:37.566Z</time>
      </trkpt>
      <trkpt lat="53.95215" lon="14.56596">
        <ele>56.382533</ele>
        <time>2024-07-27T08:14:40.563Z</time>
      </trkpt>
      <trkpt lat="53.95223" lon="14.56605">
        <ele>56.585013</ele>
        <time>2024-07-27T08:14:43.570Z</time>
      </trkpt>
      <trkpt lat="53.95231" lon="14.56614">
        <ele>56.788488</ele>
        <time>2024-07-27T08:14:46.559Z</time>
      </trkpt>
      <trkpt lat="53.9524" lon="14.56623">
        <ele>56.996313</ele>
        <time>2024-07-27T08:14:49.565Z</time>
      </trkpt>
      <trkpt lat="53.95249" lon="14.56635">
        <ele>57.22625</ele>
        <time>2024-07-27T08:14:52.563Z</time>
      </trkpt>
      <trkpt lat="53.95258" lon="14.56645">
        <ele>57.566012</ele>
        <time>2024-07-27T08:14:55.580Z</time>
      </trkpt>
      <trkpt lat="53.95266" lon="14.56654">
        <ele>57.871972</ele>
        <time>2024-07-27T08:14:58.568Z</time>
      </trkpt>
      <trkpt lat="53.95274" lon="14.56664">
        <ele>58.197258</ele>
        <time>2024-07-27T08:15:01.579Z</time>
      </trkpt>
      <trkpt lat="53.95283" lon="14.56673">
        <ele>58.513163</ele>
        <time>2024-07-27T08:15:04.543Z</time>
      </trkpt>
      <trkpt lat="53.95291" lon="14.56682">
        <ele>58.819123</ele>
        <time>2024-07-27T08:15:07.565Z</time>
      </trkpt>
      <trkpt lat="53.95301" lon="14.56691">
        <ele>59.170531</ele>
        <time>2024-07-27T08:15:10.541Z</time>
      </trkpt>
      <trkpt lat="53.9531" lon="14.56699">
        <ele>59.47392</ele>
        <time>2024-07-27T08:15:13.568Z</time>
      </trkpt>
      <trkpt lat="53.9532" lon="14.56707">
        <ele>59.827879</ele>
        <time>2024-07-27T08:15:16.564Z</time>
      </trkpt>
      <trkpt lat="53.9533" lon="14.56714">
        <ele>60.155569</ele>
        <time>2024-07-27T08:15:19.558Z</time>
      </trkpt>
      <trkpt lat="53.95338" lon="14.56722">
        <ele>60.453418</ele>
        <time>2024-07-27T08:15:22.549Z</time>
      </trkpt>
      <trkpt lat="53.95346" lon="14.5673">
        <ele>60.760353</ele>
        <time>2024-07-27T08:15:25.572Z</time>
      </trkpt>
      <trkpt lat="53.95354" lon="14.5674">
        <ele>61.049255</ele>
        <time>2024-07-27T08:15:28.588Z</time>
      </trkpt>
      <trkpt lat="53.95364" lon="14.5675">
        <ele>61.409639</ele>
        <time>2024-07-27T08:15:31.564Z</time>
      </trkpt>
      <trkpt lat="53.95373" lon="14.56758">
        <ele>61.739277</ele>
        <time>2024-07-27T08:15:34.570Z</time>
      </trkpt>
      <trkpt lat="53.95382" lon="14.56767">
        <ele>62.059989</ele>
        <time>2024-07-27T08:15:37.570Z</time>
      </trkpt>
      <trkpt lat="53.95391" lon="14.56776">
        <ele>62.388607</ele>
        <time>2024-07-27T08:15:40.579Z</time>
      </trkpt>
      <trkpt lat="53.954" lon="14.56783">
        <ele>62.696331</ele>
        <time>2024-07-27T08:15:43.568Z</time>
      </trkpt>
      <trkpt lat="53.95409" lon="14.56789">
        <ele>62.718116</ele>
        <time>2024-07-27T08:15:46.571Z</time>
      </trkpt>
      <trkpt lat="53.95417" lon="14.56799">
        <ele>62.452644</ele>
        <time>2024-07-27T08:15:49.559Z</time>
      </trkpt>
      <trkpt lat="53.95424" lon="14.56808">
        <ele>62.191442</ele>
        <time>2024-07-27T08:15:52.568Z</time>
      </trkpt>
      <trkpt lat="53.95432" lon="14.56818">
        <ele>61.913078</ele>
        <time>2024-07-27T08:15:55.566Z</time>
      </trkpt>
      <trkpt lat="53.9544" lon="14.56826">
        <ele>61.639802</ele>
        <time>2024-07-27T08:15:58.544Z</time>
      </trkpt>
      <trkpt lat="53.95449" lon="14.56833">
        <ele>61.367993</ele>
        <time>2024-07-27T08:16:01.543Z</time>
      </trkpt>
      <trkpt lat="53.95457" lon="14.56841">
        <ele>61.106814</ele>
        <time>2024-07-27T08:16:04.577Z</time>
      </trkpt>
      <trkpt lat="53.95466" lon="14.56847">
        <ele>60.827898</ele>
        <time>2024-07-27T08:16:08.571Z</time>
      </trkpt>
      <trkpt lat="53.95476" lon="14.56848">
        <ele>60.545819</ele>
        <time>2024-07-27T08:16:11.545Z</time>
      </trkpt>
      <trkpt lat="53.95486" lon="14.56848">
        <ele>60.258941</ele>
        <time>2024-07-27T08:16:14.535Z</time>
      </trkpt>
      <trkpt lat="53.95497" lon="14.56847">
        <ele>59.95198</ele>
        <time>2024-07-27T08:16:18.533Z</time>
      </trkpt>
      <trkpt lat="53.95507" lon="14.56843">
        <ele>59.665337</ele>
        <time>2024-07-27T08:16:21.578Z</time>
      </trkpt>
      <trkpt lat="53.95517" lon="14.56842">
        <ele>59.366877</ele>
        <time>2024-07-27T08:16:24.545Z</time>
      </trkpt>
      <trkpt lat="53.95528" lon="14.56845">
        <ele>59.05754</ele>
        <time>2024-07-27T08:16:27.566Z</time>
      </trkpt>
      <trkpt lat="53.95539" lon="14.56844">
        <ele>58.753579</ele>
        <time>2024-07-27T08:16:30.562Z</time>
      </trkpt>
      <trkpt lat="53.95551" lon="14.56843">
        <ele>58.415157</ele>
        <time>2024-07-27T08:16:33.564Z</time>
      </trkpt>
      <trkpt lat="53.95561" lon="14.56842">
        <ele>58.113864</ele>
        <time>2024-07-27T08:16:36.569Z</time>
      </trkpt>
      <trkpt lat="53.9557" lon="14.56841">
        <ele>57.858</ele>
        <time>2024-07-27T08:16:38.575Z</time>
      </trkpt>
      <trkpt lat="53.95581" lon="14.56841">
        <ele>57.537207</ele>
        <time>2024-07-27T08:16:41.558Z</time>
      </trkpt>
      <trkpt lat="53.95591" lon="14.5684">
        <ele>57.242092</ele>
        <time>2024-07-27T08:16:44.573Z</time>
      </trkpt>
      <trkpt lat="53.95602" lon="14.56838">
        <ele>56.940337</ele>
        <time>2024-07-27T08:16:47.569Z</time>
      </trkpt>
      <trkpt lat="53.95613" lon="14.56835">
        <ele>56.604707</ele>
        <time>2024-07-27T08:16:51.564Z</time>
      </trkpt>
      <trkpt lat="53.95624" lon="14.56833">
        <ele>56.29843</ele>
        <time>2024-07-27T08:16:55.559Z</time>
      </trkpt>
      <trkpt lat="53.95635" lon="14.56831">
        <ele>55.977016</ele>
        <time>2024-07-27T08:17:00.546Z</time>
      </trkpt>
      <trkpt lat="53.95645" lon="14.56832">
        <ele>55.667807</ele>
        <time>2024-07-27T08:17:04.560Z</time>
      </trkpt>
      <trkpt lat="53.95656" lon="14.56829">
        <ele>55.349741</ele>
        <time>2024-07-27T08:17:08.568Z</time>
      </trkpt>
      <trkpt lat="53.95667" lon="14.56827">
        <ele>55.014111</ele>
        <time>2024-07-27T08:17:12.580Z</time>
      </trkpt>
      <trkpt lat="53.95678" lon="14.56827">
        <ele>54.696254</ele>
        <time>2024-07-27T08:17:16.563Z</time>
      </trkpt>
      <trkpt lat="53.95687" lon="14.5683">
        <ele>54.423412</ele>
        <time>2024-07-27T08:17:19.553Z</time>
      </trkpt>
      <trkpt lat="53.95697" lon="14.56834">
        <ele>54.138177</ele>
        <time>2024-07-27T08:17:22.557Z</time>
      </trkpt>
      <trkpt lat="53.95708" lon="14.56837">
        <ele>53.818795</ele>
        <time>2024-07-27T08:17:26.547Z</time>
      </trkpt>
      <trkpt lat="53.95718" lon="14.5684">
        <ele>53.51436</ele>
        <time>2024-07-27T08:17:30.560Z</time>
      </trkpt>
      <trkpt lat="53.95729" lon="14.56844">
        <ele>53.17307</ele>
        <time>2024-07-27T08:17:33.560Z</time>
      </trkpt>
      <trkpt lat="53.9574" lon="14.56846">
        <ele>52.870574</ele>
        <time>2024-07-27T08:17:36.560Z</time>
      </trkpt>
      <trkpt lat="53.9575" lon="14.56849">
        <ele>52.566414</ele>
        <time>2024-07-27T08:17:39.560Z</time>
      </trkpt>
      <trkpt lat="53.9576" lon="14.56854">
        <ele>52.338482</ele>
        <time>2024-07-27T08:17:43.546Z</time>
      </trkpt>
      <trkpt lat="53.95771" lon="14.56858">
        <ele>52.13754</ele>
        <time>2024-07-27T08:17:48.567Z</time>
      </trkpt>
      <trkpt lat="53.95782" lon="14.56864">
        <ele>51.911922</ele>
        <time>2024-07-27T08:17:52.563Z</time>
      </trkpt>
      <trkpt lat="53.95792" lon="14.56862">
        <ele>51.722643</ele>
        <time>2024-07-27T08:17:55.552Z</time>
      </trkpt>
      <trkpt lat="53.95801" lon="14.56866">
        <ele>51.543078</ele>
        <time>2024-07-27T08:17:58.533Z</time>
      </trkpt>
      <trkpt lat="53.95812" lon="14.56873">
        <ele>51.315081</ele>
        <time>2024-07-27T08:18:02.556Z</time>
      </trkpt>
      <trkpt lat="53.95822" lon="14.56876">
        <ele>51.116306</ele>
        <time>2024-07-27T08:18:05.567Z</time>
      </trkpt>
      <trkpt lat="53.95833" lon="14.56879">
        <ele>50.893984</ele>
        <time>2024-07-27T08:18:08.615Z</time>
      </trkpt>
      <trkpt lat="53.95845" lon="14.56883">
        <ele>50.665643</ele>
        <time>2024-07-27T08:18:11.559Z</time>
      </trkpt>
      <trkpt lat="53.95856" lon="14.56884">
        <ele>50.452968</ele>
        <time>2024-07-27T08:18:14.568Z</time>
      </trkpt>
      <trkpt lat="53.95867" lon="14.56887">
        <ele>50.244494</ele>
        <time>2024-07-27T08:18:17.568Z</time>
      </trkpt>
      <trkpt lat="53.95876" lon="14.5689">
        <ele>50.053676</ele>
        <time>2024-07-27T08:18:20.556Z</time>
      </trkpt>
      <trkpt lat="53.95886" lon="14.56893">
        <ele>49.871245</ele>
        <time>2024-07-27T08:18:23.564Z</time>
      </trkpt>
      <trkpt lat="53.95896" lon="14.56893">
        <ele>49.680234</ele>
        <time>2024-07-27T08:18:26.544Z</time>
      </trkpt>
      <trkpt lat="53.95906" lon="14.56895">
        <ele>49.481264</ele>
        <time>2024-07-27T08:18:29.563Z</time>
      </trkpt>
      <trkpt lat="53.95918" lon="14.56894">
        <ele>49.257635</ele>
        <time>2024-07-27T08:18:32.559Z</time>
      </trkpt>
      <trkpt lat="53.95927" lon="14.56895">
        <ele>49.066567</ele>
        <time>2024-07-27T08:18:35.578Z</time>
      </trkpt>
      <trkpt lat="53.95939" lon="14.56897">
        <ele>48.957472</ele>
        <time>2024-07-27T08:18:39.574Z</time>
      </trkpt>
      <trkpt lat="53.95949" lon="14.56897">
        <ele>48.877584</ele>
        <time>2024-07-27T08:18:42.545Z</time>
      </trkpt>
      <trkpt lat="53.95959" lon="14.56898">
        <ele>48.80395</ele>
        <time>2024-07-27T08:18:45.565Z</time>
      </trkpt>
      <trkpt lat="53.95969" lon="14.56897">
        <ele>48.719366</ele>
        <time>2024-07-27T08:18:48.583Z</time>
      </trkpt>
      <trkpt lat="53.95981" lon="14.56896">
        <ele>48.629837</ele>
        <time>2024-07-27T08:18:51.560Z</time>
      </trkpt>
      <trkpt lat="53.95993" lon="14.56897">
        <ele>48.536503</ele>
        <time>2024-07-27T08:18:54.557Z</time>
      </trkpt>
      <trkpt lat="53.96005" lon="14.56898">
        <ele>48.437478</ele>
        <time>2024-07-27T08:18:57.584Z</time>
      </trkpt>
      <trkpt lat="53.96017" lon="14.56899">
        <ele>48.345612</ele>
        <time>2024-07-27T08:19:00.558Z</time>
      </trkpt>
      <trkpt lat="53.96027" lon="14.56901">
        <ele>48.266366</ele>
        <time>2024-07-27T08:19:03.560Z</time>
      </trkpt>
      <trkpt lat="53.96036" lon="14.56905">
        <ele>48.191802</ele>
        <time>2024-07-27T08:19:07.551Z</time>
      </trkpt>
      <trkpt lat="53.96043" lon="14.56915">
        <ele>48.11659</ele>
        <time>2024-07-27T08:19:17.550Z</time>
      </trkpt>
      <trkpt lat="53.96047" lon="14.56915">
        <ele>48.088887</ele>
        <time>2024-07-27T08:19:27.095Z</time>
      </trkpt>
      <trkpt lat="53.96074" lon="14.56948">
        <ele>47.825258</ele>
        <time>2024-07-27T08:22:03.609Z</time>
      </trkpt>
      <trkpt lat="53.9608" lon="14.56964">
        <ele>47.737642</ele>
        <time>2024-07-27T08:22:07.576Z</time>
      </trkpt>
      <trkpt lat="53.96087" lon="14.56978">
        <ele>47.654081</ele>
        <time>2024-07-27T08:22:11.565Z</time>
      </trkpt>
      <trkpt lat="53.96092" lon="14.56993">
        <ele>47.570452</ele>
        <time>2024-07-27T08:22:15.553Z</time>
      </trkpt>
      <trkpt lat="53.961" lon="14.57009">
        <ele>47.470993</ele>
        <time>2024-07-27T08:22:19.576Z</time>
      </trkpt>
      <trkpt lat="53.96108" lon="14.57022">
        <ele>47.378994</ele>
        <time>2024-07-27T08:22:22.593Z</time>
      </trkpt>
      <trkpt lat="53.96116" lon="14.57033">
        <ele>47.292641</ele>
        <time>2024-07-27T08:22:25.573Z</time>
      </trkpt>
      <trkpt lat="53.96125" lon="14.57044">
        <ele>47.203031</ele>
        <time>2024-07-27T08:22:28.586Z</time>
      </trkpt>
      <trkpt lat="53.96133" lon="14.57053">
        <ele>47.120466</ele>
        <time>2024-07-27T08:22:31.567Z</time>
      </trkpt>
      <trkpt lat="53.96141" lon="14.57063">
        <ele>47.039544</ele>
        <time>2024-07-27T08:22:34.576Z</time>
      </trkpt>
      <trkpt lat="53.96152" lon="14.57073">
        <ele>46.942641</ele>
        <time>2024-07-27T08:22:37.571Z</time>
      </trkpt>
      <trkpt lat="53.9616" lon="14.57084">
        <ele>46.857254</ele>
        <time>2024-07-27T08:22:40.556Z</time>
      </trkpt>
      <trkpt lat="53.96166" lon="14.57096">
        <ele>46.777566</ele>
        <time>2024-07-27T08:22:43.581Z</time>
      </trkpt>
      <trkpt lat="53.96173" lon="14.57106">
        <ele>46.701544</ele>
        <time>2024-07-27T08:22:46.567Z</time>
      </trkpt>
      <trkpt lat="53.96181" lon="14.57115">
        <ele>46.625231</ele>
        <time>2024-07-27T08:22:49.567Z</time>
      </trkpt>
      <trkpt lat="53.96189" lon="14.57124">
        <ele>46.550124</ele>
        <time>2024-07-27T08:22:52.571Z</time>
      </trkpt>
      <trkpt lat="53.96197" lon="14.57132">
        <ele>46.473274</ele>
        <time>2024-07-27T08:22:55.580Z</time>
      </trkpt>
      <trkpt lat="53.96205" lon="14.5714">
        <ele>46.397081</ele>
        <time>2024-07-27T08:22:58.607Z</time>
      </trkpt>
      <trkpt lat="53.96214" lon="14.57148">
        <ele>46.309942</ele>
        <time>2024-07-27T08:23:02.576Z</time>
      </trkpt>
      <trkpt lat="53.96223" lon="14.5716">
        <ele>46.219868</ele>
        <time>2024-07-27T08:23:06.589Z</time>
      </trkpt>
      <trkpt lat="53.9623" lon="14.57168">
        <ele>46.145579</ele>
        <time>2024-07-27T08:23:10.563Z</time>
      </trkpt>
      <trkpt lat="53.9624" lon="14.57167">
        <ele>46.235624</ele>
        <time>2024-07-27T08:23:14.567Z</time>
      </trkpt>
      <trkpt lat="53.9625" lon="14.57175">
        <ele>46.342619</ele>
        <time>2024-07-27T08:23:18.555Z</time>
      </trkpt>
      <trkpt lat="53.96259" lon="14.57182">
        <ele>46.444808</ele>
        <time>2024-07-27T08:23:22.580Z</time>
      </trkpt>
      <trkpt lat="53.96269" lon="14.57189">
        <ele>46.544153</ele>
        <time>2024-07-27T08:23:26.586Z</time>
      </trkpt>
      <trkpt lat="53.96278" lon="14.572">
        <ele>46.656029</ele>
        <time>2024-07-27T08:23:30.564Z</time>
      </trkpt>
      <trkpt lat="53.96286" lon="14.57209">
        <ele>46.74418</ele>
        <time>2024-07-27T08:23:33.571Z</time>
      </trkpt>
      <trkpt lat="53.96293" lon="14.57218">
        <ele>46.832485</ele>
        <time>2024-07-27T08:23:36.578Z</time>
      </trkpt>
      <trkpt lat="53.96301" lon="14.57228">
        <ele>46.931455</ele>
        <time>2024-07-27T08:23:39.566Z</time>
      </trkpt>
      <trkpt lat="53.96311" lon="14.57238">
        <ele>47.045544</ele>
        <time>2024-07-27T08:23:42.572Z</time>
      </trkpt>
      <trkpt lat="53.96322" lon="14.57247">
        <ele>47.164454</ele>
        <time>2024-07-27T08:23:45.567Z</time>
      </trkpt>
      <trkpt lat="53.96334" lon="14.57256">
        <ele>47.286999</ele>
        <time>2024-07-27T08:23:48.619Z</time>
      </trkpt>
      <trkpt lat="53.96345" lon="14.57265">
        <ele>47.405279</ele>
        <time>2024-07-27T08:23:51.583Z</time>
      </trkpt>
      <trkpt lat="53.96355" lon="14.57274">
        <ele>47.518672</ele>
        <time>2024-07-27T08:23:54.568Z</time>
      </trkpt>
      <trkpt lat="53.96364" lon="14.57281">
        <ele>47.617718</ele>
        <time>2024-07-27T08:23:57.564Z</time>
      </trkpt>
      <trkpt lat="53.96373" lon="14.57289">
        <ele>47.716529</ele>
        <time>2024-07-27T08:24:00.561Z</time>
      </trkpt>
      <trkpt lat="53.96382" lon="14.57298">
        <ele>47.81356</ele>
        <time>2024-07-27T08:24:03.574Z</time>
      </trkpt>
      <trkpt lat="53.9639" lon="14.57306">
        <ele>47.947439</ele>
        <time>2024-07-27T08:24:06.573Z</time>
      </trkpt>
      <trkpt lat="53.96401" lon="14.57312">
        <ele>48.427043</ele>
        <time>2024-07-27T08:24:10.561Z</time>
      </trkpt>
      <trkpt lat="53.96412" lon="14.57315">
        <ele>48.871869</ele>
        <time>2024-07-27T08:24:15.573Z</time>
      </trkpt>
      <trkpt lat="53.96422" lon="14.57318">
        <ele>49.292764</ele>
        <time>2024-07-27T08:24:20.559Z</time>
      </trkpt>
      <trkpt lat="53.96433" lon="14.5732">
        <ele>49.731875</ele>
        <time>2024-07-27T08:24:25.561Z</time>
      </trkpt>
      <trkpt lat="53.96444" lon="14.57323">
        <ele>50.193399</ele>
        <time>2024-07-27T08:24:30.560Z</time>
      </trkpt>
      <trkpt lat="53.96453" lon="14.57323">
        <ele>50.57365</ele>
        <time>2024-07-27T08:24:34.552Z</time>
      </trkpt>
      <trkpt lat="53.96463" lon="14.57322">
        <ele>50.974797</ele>
        <time>2024-07-27T08:24:38.625Z</time>
      </trkpt>
      <trkpt lat="53.96474" lon="14.57319">
        <ele>51.441533</ele>
        <time>2024-07-27T08:24:43.563Z</time>
      </trkpt>
      <trkpt lat="53.96483" lon="14.57316">
        <ele>51.818977</ele>
        <time>2024-07-27T08:24:47.564Z</time>
      </trkpt>
      <trkpt lat="53.96493" lon="14.57312">
        <ele>52.266583</ele>
        <time>2024-07-27T08:24:52.579Z</time>
      </trkpt>
      <trkpt lat="53.96502" lon="14.57309">
        <ele>52.645529</ele>
        <time>2024-07-27T08:24:56.576Z</time>
      </trkpt>
      <trkpt lat="53.96513" lon="14.57304">
        <ele>53.101374</ele>
        <time>2024-07-27T08:25:01.583Z</time>
      </trkpt>
      <trkpt lat="53.96521" lon="14.57298">
        <ele>53.488302</ele>
        <time>2024-07-27T08:25:05.574Z</time>
      </trkpt>
      <trkpt lat="53.9653" lon="14.57289">
        <ele>53.89812</ele>
        <time>2024-07-27T08:25:09.556Z</time>
      </trkpt>
      <trkpt lat="53.96539" lon="14.57281">
        <ele>54.30087</ele>
        <time>2024-07-27T08:25:13.582Z</time>
      </trkpt>
      <trkpt lat="53.96548" lon="14.57273">
        <ele>54.740002</ele>
        <time>2024-07-27T08:25:18.569Z</time>
      </trkpt>
      <trkpt lat="53.96556" lon="14.57266">
        <ele>55.11516</ele>
        <time>2024-07-27T08:25:23.580Z</time>
      </trkpt>
      <trkpt lat="53.96566" lon="14.57264">
        <ele>55.424185</ele>
        <time>2024-07-27T08:25:28.563Z</time>
      </trkpt>
      <trkpt lat="53.96574" lon="14.57273">
        <ele>55.634412</ele>
        <time>2024-07-27T08:25:37.563Z</time>
      </trkpt>
      <trkpt lat="53.96578" lon="14.5729">
        <ele>55.875047</ele>
        <time>2024-07-27T08:25:42.571Z</time>
      </trkpt>
      <trkpt lat="53.9658" lon="14.57307">
        <ele>56.105371</ele>
        <time>2024-07-27T08:25:46.563Z</time>
      </trkpt>
      <trkpt lat="53.96582" lon="14.57326">
        <ele>56.345136</ele>
        <time>2024-07-27T08:25:50.556Z</time>
      </trkpt>
      <trkpt lat="53.96584" lon="14.57346">
        <ele>56.605182</ele>
        <time>2024-07-27T08:25:54.583Z</time>
      </trkpt>
      <trkpt lat="53.96585" lon="14.57361">
        <ele>56.807671</ele>
        <time>2024-07-27T08:25:57.548Z</time>
      </trkpt>
      <trkpt lat="53.96588" lon="14.57378">
        <ele>57.028103</ele>
        <time>2024-07-27T08:26:00.574Z</time>
      </trkpt>
      <trkpt lat="53.96592" lon="14.57395">
        <ele>57.262874</ele>
        <time>2024-07-27T08:26:03.584Z</time>
      </trkpt>
      <trkpt lat="53.96595" lon="14.57413">
        <ele>57.508902</ele>
        <time>2024-07-27T08:26:06.559Z</time>
      </trkpt>
      <trkpt lat="53.96596" lon="14.57431">
        <ele>57.742661</ele>
        <time>2024-07-27T08:26:09.576Z</time>
      </trkpt>
      <trkpt lat="53.96596" lon="14.5745">
        <ele>57.983073</ele>
        <time>2024-07-27T08:26:12.563Z</time>
      </trkpt>
      <trkpt lat="53.96596" lon="14.57468">
        <ele>58.211406</ele>
        <time>2024-07-27T08:26:15.581Z</time>
      </trkpt>
      <trkpt lat="53.96597" lon="14.57486">
        <ele>58.44031</ele>
        <time>2024-07-27T08:26:18.616Z</time>
      </trkpt>
      <trkpt lat="53.96598" lon="14.57502">
        <ele>58.648687</ele>
        <time>2024-07-27T08:26:21.571Z</time>
      </trkpt>
      <trkpt lat="53.966" lon="14.57521">
        <ele>58.896382</ele>
        <time>2024-07-27T08:26:25.568Z</time>
      </trkpt>
      <trkpt lat="53.96601" lon="14.57539">
        <ele>59.131851</ele>
        <time>2024-07-27T08:26:29.558Z</time>
      </trkpt>
      <trkpt lat="53.96602" lon="14.57556">
        <ele>59.536018</ele>
        <time>2024-07-27T08:26:33.560Z</time>
      </trkpt>
      <trkpt lat="53.96603" lon="14.57572">
        <ele>60.137163</ele>
        <time>2024-07-27T08:26:37.567Z</time>
      </trkpt>
      <trkpt lat="53.96604" lon="14.57588">
        <ele>60.728907</ele>
        <time>2024-07-27T08:26:41.566Z</time>
      </trkpt>
      <trkpt lat="53.96605" lon="14.57604">
        <ele>61.324791</ele>
        <time>2024-07-27T08:26:45.583Z</time>
      </trkpt>
      <trkpt lat="53.96606" lon="14.5762">
        <ele>61.903774</ele>
        <time>2024-07-27T08:26:49.575Z</time>
      </trkpt>
      <trkpt lat="53.96608" lon="14.57635">
        <ele>62.487277</ele>
        <time>2024-07-27T08:26:53.564Z</time>
      </trkpt>
      <trkpt lat="53.96609" lon="14.57651">
        <ele>63.084676</ele>
        <time>2024-07-27T08:26:57.542Z</time>
      </trkpt>
      <trkpt lat="53.96611" lon="14.57669">
        <ele>63.77262</ele>
        <time>2024-07-27T08:27:02.559Z</time>
      </trkpt>
      <trkpt lat="53.96612" lon="14.57687">
        <ele>64.423016</ele>
        <time>2024-07-27T08:27:07.551Z</time>
      </trkpt>
      <trkpt lat="53.96614" lon="14.57706">
        <ele>65.148508</ele>
        <time>2024-07-27T08:27:12.587Z</time>
      </trkpt>
      <trkpt lat="53.96616" lon="14.57721">
        <ele>65.71349</ele>
        <time>2024-07-27T08:27:16.562Z</time>
      </trkpt>
      <trkpt lat="53.96619" lon="14.57736">
        <ele>66.2905</ele>
        <time>2024-07-27T08:27:20.572Z</time>
      </trkpt>
      <trkpt lat="53.96624" lon="14.57749">
        <ele>66.874699</ele>
        <time>2024-07-27T08:27:24.584Z</time>
      </trkpt>
      <trkpt lat="53.9663" lon="14.57766">
        <ele>67.577045</ele>
        <time>2024-07-27T08:27:29.570Z</time>
      </trkpt>
      <trkpt lat="53.96635" lon="14.57778">
        <ele>68.164842</ele>
        <time>2024-07-27T08:27:33.551Z</time>
      </trkpt>
      <trkpt lat="53.96641" lon="14.5779">
        <ele>68.741061</ele>
        <time>2024-07-27T08:27:37.550Z</time>
      </trkpt>
      <trkpt lat="53.96647" lon="14.57803">
        <ele>69.327411</ele>
        <time>2024-07-27T08:27:41.559Z</time>
      </trkpt>
      <trkpt lat="53.96653" lon="14.57816">
        <ele>69.936439</ele>
        <time>2024-07-27T08:27:45.556Z</time>
      </trkpt>
      <trkpt lat="53.96659" lon="14.57829">
        <ele>70.545466</ele>
        <time>2024-07-27T08:27:49.574Z</time>
      </trkpt>
      <trkpt lat="53.96666" lon="14.57838">
        <ele>70.967476</ele>
        <time>2024-07-27T08:27:53.554Z</time>
      </trkpt>
      <trkpt lat="53.96672" lon="14.57851">
        <ele>71.39896</ele>
        <time>2024-07-27T08:27:57.556Z</time>
      </trkpt>
      <trkpt lat="53.96677" lon="14.57864">
        <ele>71.834697</ele>
        <time>2024-07-27T08:28:01.549Z</time>
      </trkpt>
      <trkpt lat="53.96682" lon="14.57877">
        <ele>72.26041</ele>
        <time>2024-07-27T08:28:05.559Z</time>
      </trkpt>
      <trkpt lat="53.96689" lon="14.5789">
        <ele>72.733379</ele>
        <time>2024-07-27T08:28:10.577Z</time>
      </trkpt>
      <trkpt lat="53.96694" lon="14.57904">
        <ele>73.152271</ele>
        <time>2024-07-27T08:28:14.565Z</time>
      </trkpt>
      <trkpt lat="53.967" lon="14.57918">
        <ele>73.635381</ele>
        <time>2024-07-27T08:28:19.567Z</time>
      </trkpt>
      <trkpt lat="53.96707" lon="14.57932">
        <ele>74.125536</ele>
        <time>2024-07-27T08:28:23.538Z</time>
      </trkpt>
      <trkpt lat="53.96713" lon="14.57944">
        <ele>74.552293</ele>
        <time>2024-07-27T08:28:27.574Z</time>
      </trkpt>
      <trkpt lat="53.9672" lon="14.57955">
        <ele>74.973522</ele>
        <time>2024-07-27T08:28:31.553Z</time>
      </trkpt>
      <trkpt lat="53.96727" lon="14.57969">
        <ele>75.464576</ele>
        <time>2024-07-27T08:28:36.562Z</time>
      </trkpt>
      <trkpt lat="53.96735" lon="14.57982">
        <ele>75.974276</ele>
        <time>2024-07-27T08:28:41.562Z</time>
      </trkpt>
      <trkpt lat="53.96743" lon="14.57995">
        <ele>76.481513</ele>
        <time>2024-07-27T08:28:46.554Z</time>
      </trkpt>
      <trkpt lat="53.9675" lon="14.58007">
        <ele>76.93125</ele>
        <time>2024-07-27T08:28:50.558Z</time>
      </trkpt>
      <trkpt lat="53.96758" lon="14.58018">
        <ele>77.411132</ele>
        <time>2024-07-27T08:28:55.579Z</time>
      </trkpt>
      <trkpt lat="53.96766" lon="14.58028">
        <ele>77.858881</ele>
        <time>2024-07-27T08:28:59.567Z</time>
      </trkpt>
      <trkpt lat="53.96775" lon="14.58038">
        <ele>78.353107</ele>
        <time>2024-07-27T08:29:03.560Z</time>
      </trkpt>
      <trkpt lat="53.96783" lon="14.58046">
        <ele>78.767331</ele>
        <time>2024-07-27T08:29:06.563Z</time>
      </trkpt>
      <trkpt lat="53.96792" lon="14.58056">
        <ele>78.487345</ele>
        <time>2024-07-27T08:29:09.564Z</time>
      </trkpt>
      <trkpt lat="53.96802" lon="14.58069">
        <ele>78.12478</ele>
        <time>2024-07-27T08:29:12.542Z</time>
      </trkpt>
      <trkpt lat="53.96813" lon="14.58081">
        <ele>77.737497</ele>
        <time>2024-07-27T08:29:15.548Z</time>
      </trkpt>
      <trkpt lat="53.9682" lon="14.5809">
        <ele>77.476922</ele>
        <time>2024-07-27T08:29:17.559Z</time>
      </trkpt>
      <trkpt lat="53.96828" lon="14.58098">
        <ele>77.214508</ele>
        <time>2024-07-27T08:29:19.551Z</time>
      </trkpt>
      <trkpt lat="53.96837" lon="14.58107">
        <ele>76.923776</ele>
        <time>2024-07-27T08:29:21.566Z</time>
      </trkpt>
      <trkpt lat="53.96845" lon="14.58117">
        <ele>76.63449</ele>
        <time>2024-07-27T08:29:23.570Z</time>
      </trkpt>
      <trkpt lat="53.96853" lon="14.58128">
        <ele>76.334318</ele>
        <time>2024-07-27T08:29:25.549Z</time>
      </trkpt>
      <trkpt lat="53.96863" lon="14.58137">
        <ele>76.017486</ele>
        <time>2024-07-27T08:29:27.556Z</time>
      </trkpt>
      <trkpt lat="53.96872" lon="14.58147">
        <ele>75.689596</ele>
        <time>2024-07-27T08:29:29.556Z</time>
      </trkpt>
      <trkpt lat="53.96882" lon="14.58159">
        <ele>75.348816</ele>
        <time>2024-07-27T08:29:31.576Z</time>
      </trkpt>
      <trkpt lat="53.96892" lon="14.58172">
        <ele>74.983148</ele>
        <time>2024-07-27T08:29:33.567Z</time>
      </trkpt>
      <trkpt lat="53.96903" lon="14.58184">
        <ele>74.61522</ele>
        <time>2024-07-27T08:29:35.565Z</time>
      </trkpt>
      <trkpt lat="53.96914" lon="14.58195">
        <ele>74.248889</ele>
        <time>2024-07-27T08:29:37.562Z</time>
      </trkpt>
      <trkpt lat="53.96925" lon="14.58206">
        <ele>73.86524</ele>
        <time>2024-07-27T08:29:39.552Z</time>
      </trkpt>
      <trkpt lat="53.96938" lon="14.58219">
        <ele>73.175828</ele>
        <time>2024-07-27T08:29:41.546Z</time>
      </trkpt>
      <trkpt lat="53.96952" lon="14.58234">
        <ele>71.968229</ele>
        <time>2024-07-27T08:29:43.551Z</time>
      </trkpt>
      <trkpt lat="53.96965" lon="14.5825">
        <ele>70.805988</ele>
        <time>2024-07-27T08:29:45.547Z</time>
      </trkpt>
      <trkpt lat="53.96976" lon="14.58269">
        <ele>69.608417</ele>
        <time>2024-07-27T08:29:47.540Z</time>
      </trkpt>
      <trkpt lat="53.96987" lon="14.58289">
        <ele>68.430069</ele>
        <time>2024-07-27T08:29:49.539Z</time>
      </trkpt>
      <trkpt lat="53.96996" lon="14.5831">
        <ele>67.29532</ele>
        <time>2024-07-27T08:29:51.539Z</time>
      </trkpt>
      <trkpt lat="53.97004" lon="14.5833">
        <ele>66.27191</ele>
        <time>2024-07-27T08:29:53.540Z</time>
      </trkpt>
      <trkpt lat="53.97011" lon="14.58352">
        <ele>65.170261</ele>
        <time>2024-07-27T08:29:55.545Z</time>
      </trkpt>
      <trkpt lat="53.97019" lon="14.58376">
        <ele>63.960009</ele>
        <time>2024-07-27T08:29:57.561Z</time>
      </trkpt>
      <trkpt lat="53.97023" lon="14.5839">
        <ele>63.289536</ele>
        <time>2024-07-27T08:29:58.549Z</time>
      </trkpt>
      <trkpt lat="53.97028" lon="14.5842">
        <ele>61.952162</ele>
        <time>2024-07-27T08:30:00.561Z</time>
      </trkpt>
      <trkpt lat="53.97031" lon="14.58435">
        <ele>61.266086</ele>
        <time>2024-07-27T08:30:01.550Z</time>
      </trkpt>
      <trkpt lat="53.97036" lon="14.58463">
        <ele>60.234669</ele>
        <time>2024-07-27T08:30:03.551Z</time>
      </trkpt>
      <trkpt lat="53.9704" lon="14.5849">
        <ele>59.973562</ele>
        <time>2024-07-27T08:30:05.560Z</time>
      </trkpt>
      <trkpt lat="53.97043" lon="14.58516">
        <ele>59.735284</ele>
        <time>2024-07-27T08:30:07.548Z</time>
      </trkpt>
      <trkpt lat="53.97045" lon="14.58541">
        <ele>59.4953</ele>
        <time>2024-07-27T08:30:09.558Z</time>
      </trkpt>
      <trkpt lat="53.97047" lon="14.58566">
        <ele>59.260267</ele>
        <time>2024-07-27T08:30:11.547Z</time>
      </trkpt>
      <trkpt lat="53.9705" lon="14.5859">
        <ele>59.037138</ele>
        <time>2024-07-27T08:30:13.568Z</time>
      </trkpt>
      <trkpt lat="53.97054" lon="14.58614">
        <ele>58.80054</ele>
        <time>2024-07-27T08:30:15.565Z</time>
      </trkpt>
      <trkpt lat="53.97058" lon="14.58637">
        <ele>58.578756</ele>
        <time>2024-07-27T08:30:17.570Z</time>
      </trkpt>
      <trkpt lat="53.97059" lon="14.58659">
        <ele>58.371423</ele>
        <time>2024-07-27T08:30:19.563Z</time>
      </trkpt>
      <trkpt lat="53.97062" lon="14.5868">
        <ele>58.174846</ele>
        <time>2024-07-27T08:30:21.559Z</time>
      </trkpt>
      <trkpt lat="53.97064" lon="14.58698">
        <ele>57.998269</ele>
        <time>2024-07-27T08:30:23.557Z</time>
      </trkpt>
      <trkpt lat="53.97065" lon="14.58716">
        <ele>57.837326</ele>
        <time>2024-07-27T08:30:25.559Z</time>
      </trkpt>
      <trkpt lat="53.97066" lon="14.58732">
        <ele>57.683707</ele>
        <time>2024-07-27T08:30:27.549Z</time>
      </trkpt>
      <trkpt lat="53.97067" lon="14.58749">
        <ele>57.526629</ele>
        <time>2024-07-27T08:30:29.555Z</time>
      </trkpt>
      <trkpt lat="53.97067" lon="14.58765">
        <ele>57.510714</ele>
        <time>2024-07-27T08:30:31.575Z</time>
      </trkpt>
      <trkpt lat="53.97068" lon="14.58787">
        <ele>57.635557</ele>
        <time>2024-07-27T08:30:34.565Z</time>
      </trkpt>
      <trkpt lat="53.97069" lon="14.58808">
        <ele>57.758442</ele>
        <time>2024-07-27T08:30:37.567Z</time>
      </trkpt>
      <trkpt lat="53.97071" lon="14.58829">
        <ele>57.879201</ele>
        <time>2024-07-27T08:30:40.554Z</time>
      </trkpt>
      <trkpt lat="53.97073" lon="14.58849">
        <ele>57.990293</ele>
        <time>2024-07-27T08:30:43.558Z</time>
      </trkpt>
      <trkpt lat="53.97074" lon="14.58868">
        <ele>58.101158</ele>
        <time>2024-07-27T08:30:46.551Z</time>
      </trkpt>
      <trkpt lat="53.97075" lon="14.58888">
        <ele>58.215754</ele>
        <time>2024-07-27T08:30:49.560Z</time>
      </trkpt>
      <trkpt lat="53.97077" lon="14.58906">
        <ele>58.319569</ele>
        <time>2024-07-27T08:30:52.558Z</time>
      </trkpt>
      <trkpt lat="53.97079" lon="14.58927">
        <ele>58.435547</ele>
        <time>2024-07-27T08:30:55.553Z</time>
      </trkpt>
      <trkpt lat="53.97082" lon="14.58946">
        <ele>58.550604</ele>
        <time>2024-07-27T08:30:58.565Z</time>
      </trkpt>
      <trkpt lat="53.97084" lon="14.58966">
        <ele>58.663062</ele>
        <time>2024-07-27T08:31:01.557Z</time>
      </trkpt>
      <trkpt lat="53.97085" lon="14.58986">
        <ele>58.776928</ele>
        <time>2024-07-27T08:31:04.562Z</time>
      </trkpt>
      <trkpt lat="53.97086" lon="14.59005">
        <ele>58.886955</ele>
        <time>2024-07-27T08:31:07.556Z</time>
      </trkpt>
      <trkpt lat="53.97087" lon="14.59024">
        <ele>58.994214</ele>
        <time>2024-07-27T08:31:10.547Z</time>
      </trkpt>
      <trkpt lat="53.97091" lon="14.59045">
        <ele>59.114306</ele>
        <time>2024-07-27T08:31:13.558Z</time>
      </trkpt>
      <trkpt lat="53.97095" lon="14.59065">
        <ele>59.207007</ele>
        <time>2024-07-27T08:31:16.552Z</time>
      </trkpt>
      <trkpt lat="53.97099" lon="14.59085">
        <ele>59.24361</ele>
        <time>2024-07-27T08:31:19.548Z</time>
      </trkpt>
      <trkpt lat="53.97103" lon="14.59104">
        <ele>59.279655</ele>
        <time>2024-07-27T08:31:22.570Z</time>
      </trkpt>
      <trkpt lat="53.97107" lon="14.59122">
        <ele>59.31548</ele>
        <time>2024-07-27T08:31:25.564Z</time>
      </trkpt>
      <trkpt lat="53.97112" lon="14.59142">
        <ele>59.353293</ele>
        <time>2024-07-27T08:31:28.579Z</time>
      </trkpt>
      <trkpt lat="53.97117" lon="14.59162">
        <ele>59.392108</ele>
        <time>2024-07-27T08:31:31.537Z</time>
      </trkpt>
      <trkpt lat="53.97122" lon="14.59183">
        <ele>59.43109</ele>
        <time>2024-07-27T08:31:34.561Z</time>
      </trkpt>
      <trkpt lat="53.97126" lon="14.59203">
        <ele>59.470072</ele>
        <time>2024-07-27T08:31:37.562Z</time>
      </trkpt>
      <trkpt lat="53.97131" lon="14.59224">
        <ele>59.509596</ele>
        <time>2024-07-27T08:31:40.541Z</time>
      </trkpt>
      <trkpt lat="53.97134" lon="14.59238">
        <ele>59.536977</ele>
        <time>2024-07-27T08:31:42.557Z</time>
      </trkpt>
      <trkpt lat="53.97137" lon="14.59253">
        <ele>59.564357</ele>
        <time>2024-07-27T08:31:44.567Z</time>
      </trkpt>
      <trkpt lat="53.9714" lon="14.59268">
        <ele>59.593576</ele>
        <time>2024-07-27T08:31:46.553Z</time>
      </trkpt>
      <trkpt lat="53.97144" lon="14.59283">
        <ele>59.622259</ele>
        <time>2024-07-27T08:31:48.564Z</time>
      </trkpt>
      <trkpt lat="53.97148" lon="14.59299">
        <ele>59.652692</ele>
        <time>2024-07-27T08:31:50.553Z</time>
      </trkpt>
      <trkpt lat="53.97152" lon="14.59314">
        <ele>59.68261</ele>
        <time>2024-07-27T08:31:52.556Z</time>
      </trkpt>
      <trkpt lat="53.97156" lon="14.59329">
        <ele>59.710933</ele>
        <time>2024-07-27T08:31:54.565Z</time>
      </trkpt>
      <trkpt lat="53.9716" lon="14.59344">
        <ele>59.736</ele>
        <time>2024-07-27T08:31:56.566Z</time>
      </trkpt>
      <trkpt lat="53.97163" lon="14.59359">
        <ele>59.73171</ele>
        <time>2024-07-27T08:31:58.618Z</time>
      </trkpt>
      <trkpt lat="53.97166" lon="14.59375">
        <ele>59.727524</ele>
        <time>2024-07-27T08:32:00.572Z</time>
      </trkpt>
      <trkpt lat="53.9717" lon="14.5939">
        <ele>59.723276</ele>
        <time>2024-07-27T08:32:02.564Z</time>
      </trkpt>
      <trkpt lat="53.97173" lon="14.59405">
        <ele>59.719044</ele>
        <time>2024-07-27T08:32:04.572Z</time>
      </trkpt>
      <trkpt lat="53.97176" lon="14.5942">
        <ele>59.714966</ele>
        <time>2024-07-27T08:32:06.554Z</time>
      </trkpt>
      <trkpt lat="53.97179" lon="14.59434">
        <ele>59.710774</ele>
        <time>2024-07-27T08:32:08.571Z</time>
      </trkpt>
      <trkpt lat="53.97183" lon="14.59449">
        <ele>59.706727</ele>
        <time>2024-07-27T08:32:10.557Z</time>
      </trkpt>
      <trkpt lat="53.97187" lon="14.59463">
        <ele>59.702576</ele>
        <time>2024-07-27T08:32:12.551Z</time>
      </trkpt>
      <trkpt lat="53.9719" lon="14.59479">
        <ele>59.698271</ele>
        <time>2024-07-27T08:32:14.550Z</time>
      </trkpt>
      <trkpt lat="53.97193" lon="14.59494">
        <ele>59.694039</ele>
        <time>2024-07-27T08:32:16.554Z</time>
      </trkpt>
      <trkpt lat="53.97197" lon="14.59509">
        <ele>59.68974</ele>
        <time>2024-07-27T08:32:18.568Z</time>
      </trkpt>
      <trkpt lat="53.972" lon="14.59525">
        <ele>59.685427</ele>
        <time>2024-07-27T08:32:20.551Z</time>
      </trkpt>
      <trkpt lat="53.97203" lon="14.5954">
        <ele>59.681117</ele>
        <time>2024-07-27T08:32:22.550Z</time>
      </trkpt>
      <trkpt lat="53.97206" lon="14.59556">
        <ele>59.676821</ele>
        <time>2024-07-27T08:32:24.564Z</time>
      </trkpt>
      <trkpt lat="53.9721" lon="14.59571">
        <ele>59.672467</ele>
        <time>2024-07-27T08:32:26.556Z</time>
      </trkpt>
      <trkpt lat="53.97213" lon="14.59588">
        <ele>59.667985</ele>
        <time>2024-07-27T08:32:28.591Z</time>
      </trkpt>
      <trkpt lat="53.97214" lon="14.59605">
        <ele>59.663283</ele>
        <time>2024-07-27T08:32:30.575Z</time>
      </trkpt>
      <trkpt lat="53.97216" lon="14.59624">
        <ele>59.658516</ele>
        <time>2024-07-27T08:32:32.560Z</time>
      </trkpt>
      <trkpt lat="53.97216" lon="14.59642">
        <ele>59.544209</ele>
        <time>2024-07-27T08:32:34.564Z</time>
      </trkpt>
      <trkpt lat="53.97216" lon="14.5966">
        <ele>59.361342</ele>
        <time>2024-07-27T08:32:36.561Z</time>
      </trkpt>
      <trkpt lat="53.97216" lon="14.59678">
        <ele>59.176499</ele>
        <time>2024-07-27T08:32:38.566Z</time>
      </trkpt>
      <trkpt lat="53.97215" lon="14.59696">
        <ele>58.992021</ele>
        <time>2024-07-27T08:32:40.579Z</time>
      </trkpt>
      <trkpt lat="53.97214" lon="14.59713">
        <ele>58.818983</ele>
        <time>2024-07-27T08:32:42.556Z</time>
      </trkpt>
      <trkpt lat="53.97212" lon="14.5973">
        <ele>58.643172</ele>
        <time>2024-07-27T08:32:44.557Z</time>
      </trkpt>
      <trkpt lat="53.9721" lon="14.59747">
        <ele>58.457283</ele>
        <time>2024-07-27T08:32:46.556Z</time>
      </trkpt>
      <trkpt lat="53.97206" lon="14.59764">
        <ele>58.27409</ele>
        <time>2024-07-27T08:32:48.557Z</time>
      </trkpt>
      <trkpt lat="53.97203" lon="14.59782">
        <ele>58.083225</ele>
        <time>2024-07-27T08:32:50.553Z</time>
      </trkpt>
      <trkpt lat="53.97198" lon="14.59799">
        <ele>57.891156</ele>
        <time>2024-07-27T08:32:52.577Z</time>
      </trkpt>
      <trkpt lat="53.97194" lon="14.59816">
        <ele>57.703801</ele>
        <time>2024-07-27T08:32:54.563Z</time>
      </trkpt>
      <trkpt lat="53.97189" lon="14.59834">
        <ele>57.505484</ele>
        <time>2024-07-27T08:32:56.568Z</time>
      </trkpt>
      <trkpt lat="53.97185" lon="14.59853">
        <ele>57.294995</ele>
        <time>2024-07-27T08:32:58.590Z</time>
      </trkpt>
      <trkpt lat="53.9718" lon="14.59872">
        <ele>57.086117</ele>
        <time>2024-07-27T08:33:00.562Z</time>
      </trkpt>
      <trkpt lat="53.97176" lon="14.59891">
        <ele>56.874105</ele>
        <time>2024-07-27T08:33:02.554Z</time>
      </trkpt>
      <trkpt lat="53.97171" lon="14.5991">
        <ele>56.663678</ele>
        <time>2024-07-27T08:33:04.557Z</time>
      </trkpt>
      <trkpt lat="53.97166" lon="14.59929">
        <ele>56.412636</ele>
        <time>2024-07-27T08:33:06.561Z</time>
      </trkpt>
      <trkpt lat="53.97161" lon="14.59947">
        <ele>56.101042</ele>
        <time>2024-07-27T08:33:08.581Z</time>
      </trkpt>
      <trkpt lat="53.97157" lon="14.59965">
        <ele>55.793785</ele>
        <time>2024-07-27T08:33:10.568Z</time>
      </trkpt>
      <trkpt lat="53.97152" lon="14.59983">
        <ele>55.48219</ele>
        <time>2024-07-27T08:33:12.581Z</time>
      </trkpt>
      <trkpt lat="53.97147" lon="14.60002">
        <ele>55.158916</ele>
        <time>2024-07-27T08:33:14.565Z</time>
      </trkpt>
      <trkpt lat="53.97143" lon="14.60021">
        <ele>54.83613</ele>
        <time>2024-07-27T08:33:16.566Z</time>
      </trkpt>
      <trkpt lat="53.97137" lon="14.60039">
        <ele>54.512058</ele>
        <time>2024-07-27T08:33:18.614Z</time>
      </trkpt>
      <trkpt lat="53.97131" lon="14.60057">
        <ele>54.182832</ele>
        <time>2024-07-27T08:33:20.564Z</time>
      </trkpt>
      <trkpt lat="53.97125" lon="14.60076">
        <ele>53.851071</ele>
        <time>2024-07-27T08:33:22.573Z</time>
      </trkpt>
      <trkpt lat="53.97117" lon="14.60093">
        <ele>53.508636</ele>
        <time>2024-07-27T08:33:24.572Z</time>
      </trkpt>
      <trkpt lat="53.97109" lon="14.60111">
        <ele>53.16415</ele>
        <time>2024-07-27T08:33:26.580Z</time>
      </trkpt>
      <trkpt lat="53.971" lon="14.60128">
        <ele>52.800709</ele>
        <time>2024-07-27T08:33:28.573Z</time>
      </trkpt>
      <trkpt lat="53.9709" lon="14.60144">
        <ele>52.43199</ele>
        <time>2024-07-27T08:33:30.561Z</time>
      </trkpt>
      <trkpt lat="53.9708" lon="14.60159">
        <ele>52.069757</ele>
        <time>2024-07-27T08:33:32.560Z</time>
      </trkpt>
      <trkpt lat="53.97068" lon="14.60173">
        <ele>51.696845</ele>
        <time>2024-07-27T08:33:34.565Z</time>
      </trkpt>
      <trkpt lat="53.97055" lon="14.60186">
        <ele>51.460326</ele>
        <time>2024-07-27T08:33:36.565Z</time>
      </trkpt>
      <trkpt lat="53.97042" lon="14.60199">
        <ele>51.223892</ele>
        <time>2024-07-27T08:33:38.590Z</time>
      </trkpt>
      <trkpt lat="53.97029" lon="14.60212">
        <ele>50.983293</ele>
        <time>2024-07-27T08:33:40.577Z</time>
      </trkpt>
      <trkpt lat="53.97016" lon="14.60225">
        <ele>50.745963</ele>
        <time>2024-07-27T08:33:42.578Z</time>
      </trkpt>
      <trkpt lat="53.97003" lon="14.60237">
        <ele>50.514181</ele>
        <time>2024-07-27T08:33:44.575Z</time>
      </trkpt>
      <trkpt lat="53.96991" lon="14.60249">
        <ele>50.284224</ele>
        <time>2024-07-27T08:33:46.572Z</time>
      </trkpt>
      <trkpt lat="53.96979" lon="14.60261">
        <ele>50.065328</ele>
        <time>2024-07-27T08:33:48.589Z</time>
      </trkpt>
      <trkpt lat="53.96966" lon="14.60273">
        <ele>49.830282</ele>
        <time>2024-07-27T08:33:50.564Z</time>
      </trkpt>
      <trkpt lat="53.96953" lon="14.60284">
        <ele>49.603227</ele>
        <time>2024-07-27T08:33:52.564Z</time>
      </trkpt>
      <trkpt lat="53.96941" lon="14.60295">
        <ele>49.38849</ele>
        <time>2024-07-27T08:33:54.580Z</time>
      </trkpt>
      <trkpt lat="53.9693" lon="14.60307">
        <ele>49.17881</ele>
        <time>2024-07-27T08:33:56.571Z</time>
      </trkpt>
      <trkpt lat="53.96919" lon="14.60317">
        <ele>48.977426</ele>
        <time>2024-07-27T08:33:58.578Z</time>
      </trkpt>
      <trkpt lat="53.96908" lon="14.60327">
        <ele>48.753216</ele>
        <time>2024-07-27T08:34:00.565Z</time>
      </trkpt>
      <trkpt lat="53.96898" lon="14.60338">
        <ele>48.511526</ele>
        <time>2024-07-27T08:34:02.581Z</time>
      </trkpt>
      <trkpt lat="53.96887" lon="14.60347">
        <ele>48.259711</ele>
        <time>2024-07-27T08:34:04.562Z</time>
      </trkpt>
      <trkpt lat="53.96876" lon="14.60357">
        <ele>48.006302</ele>
        <time>2024-07-27T08:34:06.565Z</time>
      </trkpt>
      <trkpt lat="53.96866" lon="14.60365">
        <ele>47.764037</ele>
        <time>2024-07-27T08:34:08.624Z</time>
      </trkpt>
      <trkpt lat="53.96854" lon="14.60372">
        <ele>47.511129</ele>
        <time>2024-07-27T08:34:10.562Z</time>
      </trkpt>
      <trkpt lat="53.96842" lon="14.6038">
        <ele>47.239474</ele>
        <time>2024-07-27T08:34:12.562Z</time>
      </trkpt>
      <trkpt lat="53.96829" lon="14.60388">
        <ele>46.955855</ele>
        <time>2024-07-27T08:34:14.565Z</time>
      </trkpt>
      <trkpt lat="53.96816" lon="14.60397">
        <ele>46.662144</ele>
        <time>2024-07-27T08:34:16.561Z</time>
      </trkpt>
      <trkpt lat="53.96802" lon="14.60405">
        <ele>46.363038</ele>
        <time>2024-07-27T08:34:18.579Z</time>
      </trkpt>
      <trkpt lat="53.96788" lon="14.60413">
        <ele>46.061215</ele>
        <time>2024-07-27T08:34:20.570Z</time>
      </trkpt>
      <trkpt lat="53.96774" lon="14.60421">
        <ele>45.751988</ele>
        <time>2024-07-27T08:34:22.577Z</time>
      </trkpt>
      <trkpt lat="53.9676" lon="14.60429">
        <ele>45.445898</ele>
        <time>2024-07-27T08:34:24.572Z</time>
      </trkpt>
      <trkpt lat="53.96746" lon="14.6044">
        <ele>45.141876</ele>
        <time>2024-07-27T08:34:26.578Z</time>
      </trkpt>
      <trkpt lat="53.96732" lon="14.60452">
        <ele>44.976803</ele>
        <time>2024-07-27T08:34:28.587Z</time>
      </trkpt>
      <trkpt lat="53.96719" lon="14.60468">
        <ele>44.81014</ele>
        <time>2024-07-27T08:34:30.563Z</time>
      </trkpt>
      <trkpt lat="53.96707" lon="14.60486">
        <ele>44.647144</ele>
        <time>2024-07-27T08:34:32.547Z</time>
      </trkpt>
      <trkpt lat="53.96697" lon="14.60506">
        <ele>44.483393</ele>
        <time>2024-07-27T08:34:34.559Z</time>
      </trkpt>
      <trkpt lat="53.96688" lon="14.60527">
        <ele>44.323394</ele>
        <time>2024-07-27T08:34:36.555Z</time>
      </trkpt>
      <trkpt lat="53.9668" lon="14.60549">
        <ele>44.169633</ele>
        <time>2024-07-27T08:34:38.580Z</time>
      </trkpt>
      <trkpt lat="53.96674" lon="14.60572">
        <ele>44.015086</ele>
        <time>2024-07-27T08:34:40.571Z</time>
      </trkpt>
      <trkpt lat="53.9667" lon="14.60595">
        <ele>43.87004</ele>
        <time>2024-07-27T08:34:42.565Z</time>
      </trkpt>
      <trkpt lat="53.96667" lon="14.60618">
        <ele>43.724236</ele>
        <time>2024-07-27T08:34:44.573Z</time>
      </trkpt>
      <trkpt lat="53.96663" lon="14.6064">
        <ele>43.584461</ele>
        <time>2024-07-27T08:34:46.581Z</time>
      </trkpt>
      <trkpt lat="53.9666" lon="14.60661">
        <ele>43.447802</ele>
        <time>2024-07-27T08:34:48.590Z</time>
      </trkpt>
      <trkpt lat="53.96657" lon="14.60683">
        <ele>43.312311</ele>
        <time>2024-07-27T08:34:50.568Z</time>
      </trkpt>
      <trkpt lat="53.96655" lon="14.60703">
        <ele>43.319472</ele>
        <time>2024-07-27T08:34:52.570Z</time>
      </trkpt>
      <trkpt lat="53.96652" lon="14.60723">
        <ele>43.360924</ele>
        <time>2024-07-27T08:34:54.564Z</time>
      </trkpt>
      <trkpt lat="53.96649" lon="14.60742">
        <ele>43.402863</ele>
        <time>2024-07-27T08:34:56.573Z</time>
      </trkpt>
      <trkpt lat="53.96646" lon="14.60761">
        <ele>43.442817</ele>
        <time>2024-07-27T08:34:58.597Z</time>
      </trkpt>
      <trkpt lat="53.96644" lon="14.60781">
        <ele>43.483572</ele>
        <time>2024-07-27T08:35:00.571Z</time>
      </trkpt>
      <trkpt lat="53.96641" lon="14.608">
        <ele>43.52414</ele>
        <time>2024-07-27T08:35:02.567Z</time>
      </trkpt>
      <trkpt lat="53.96638" lon="14.60819">
        <ele>43.563677</ele>
        <time>2024-07-27T08:35:04.573Z</time>
      </trkpt>
      <trkpt lat="53.96636" lon="14.60838">
        <ele>43.603709</ele>
        <time>2024-07-27T08:35:06.565Z</time>
      </trkpt>
      <trkpt lat="53.96633" lon="14.60856">
        <ele>43.642311</ele>
        <time>2024-07-27T08:35:08.616Z</time>
      </trkpt>
      <trkpt lat="53.96631" lon="14.60875">
        <ele>43.681064</ele>
        <time>2024-07-27T08:35:10.560Z</time>
      </trkpt>
      <trkpt lat="53.96629" lon="14.60893">
        <ele>43.71994</ele>
        <time>2024-07-27T08:35:12.566Z</time>
      </trkpt>
      <trkpt lat="53.96626" lon="14.6091">
        <ele>43.756262</ele>
        <time>2024-07-27T08:35:14.572Z</time>
      </trkpt>
      <trkpt lat="53.96624" lon="14.60928">
        <ele>43.792506</ele>
        <time>2024-07-27T08:35:16.564Z</time>
      </trkpt>
      <trkpt lat="53.96621" lon="14.60945">
        <ele>43.829327</ele>
        <time>2024-07-27T08:35:18.576Z</time>
      </trkpt>
      <trkpt lat="53.96619" lon="14.60962">
        <ele>43.865803</ele>
        <time>2024-07-27T08:35:20.557Z</time>
      </trkpt>
      <trkpt lat="53.96616" lon="14.60979">
        <ele>43.902047</ele>
        <time>2024-07-27T08:35:22.564Z</time>
      </trkpt>
      <trkpt lat="53.96613" lon="14.60996">
        <ele>43.864568</ele>
        <time>2024-07-27T08:35:24.565Z</time>
      </trkpt>
      <trkpt lat="53.9661" lon="14.61013">
        <ele>43.791025</ele>
        <time>2024-07-27T08:35:26.561Z</time>
      </trkpt>
      <trkpt lat="53.96607" lon="14.61031">
        <ele>43.715526</ele>
        <time>2024-07-27T08:35:28.584Z</time>
      </trkpt>
      <trkpt lat="53.96604" lon="14.61049">
        <ele>43.640618</ele>
        <time>2024-07-27T08:35:30.577Z</time>
      </trkpt>
      <trkpt lat="53.96601" lon="14.61065">
        <ele>43.570427</ele>
        <time>2024-07-27T08:35:32.562Z</time>
      </trkpt>
      <trkpt lat="53.96599" lon="14.61081">
        <ele>43.50319</ele>
        <time>2024-07-27T08:35:34.566Z</time>
      </trkpt>
      <trkpt lat="53.96596" lon="14.61095">
        <ele>43.440035</ele>
        <time>2024-07-27T08:35:36.560Z</time>
      </trkpt>
      <trkpt lat="53.96591" lon="14.61116">
        <ele>43.349444</ele>
        <time>2024-07-27T08:35:39.571Z</time>
      </trkpt>
      <trkpt lat="53.96589" lon="14.61131">
        <ele>43.28672</ele>
        <time>2024-07-27T08:35:41.565Z</time>
      </trkpt>
      <trkpt lat="53.96584" lon="14.61151">
        <ele>43.195783</ele>
        <time>2024-07-27T08:35:44.562Z</time>
      </trkpt>
      <trkpt lat="53.96581" lon="14.61167">
        <ele>43.130906</ele>
        <time>2024-07-27T08:35:48.576Z</time>
      </trkpt>
      <trkpt lat="53.96586" lon="14.61181">
        <ele>43.065162</ele>
        <time>2024-07-27T08:36:40.566Z</time>
      </trkpt>
      <trkpt lat="53.96591" lon="14.61196">
        <ele>42.991319</ele>
        <time>2024-07-27T08:36:46.550Z</time>
      </trkpt>
      <trkpt lat="53.96597" lon="14.61212">
        <ele>42.916342</ele>
        <time>2024-07-27T08:36:51.561Z</time>
      </trkpt>
      <trkpt lat="53.96601" lon="14.61225">
        <ele>42.853447</ele>
        <time>2024-07-27T08:36:55.564Z</time>
      </trkpt>
      <trkpt lat="53.96607" lon="14.61238">
        <ele>42.787229</ele>
        <time>2024-07-27T08:36:59.562Z</time>
      </trkpt>
      <trkpt lat="53.96614" lon="14.61248">
        <ele>42.721404</ele>
        <time>2024-07-27T08:37:03.568Z</time>
      </trkpt>
      <trkpt lat="53.96623" lon="14.61258">
        <ele>42.636067</ele>
        <time>2024-07-27T08:37:08.560Z</time>
      </trkpt>
      <trkpt lat="53.96632" lon="14.61268">
        <ele>42.494753</ele>
        <time>2024-07-27T08:37:14.548Z</time>
      </trkpt>
      <trkpt lat="53.96641" lon="14.61275">
        <ele>42.363203</ele>
        <time>2024-07-27T08:37:19.561Z</time>
      </trkpt>
      <trkpt lat="53.9665" lon="14.61279">
        <ele>42.229032</ele>
        <time>2024-07-27T08:37:24.570Z</time>
      </trkpt>
      <trkpt lat="53.9666" lon="14.61284">
        <ele>42.092045</ele>
        <time>2024-07-27T08:37:29.563Z</time>
      </trkpt>
      <trkpt lat="53.96671" lon="14.61289">
        <ele>41.945097</ele>
        <time>2024-07-27T08:37:34.572Z</time>
      </trkpt>
      <trkpt lat="53.9668" lon="14.61293">
        <ele>41.816146</ele>
        <time>2024-07-27T08:37:39.554Z</time>
      </trkpt>
      <trkpt lat="53.96688" lon="14.61298">
        <ele>41.693229</ele>
        <time>2024-07-27T08:37:43.578Z</time>
      </trkpt>
      <trkpt lat="53.96697" lon="14.61305">
        <ele>41.559479</ele>
        <time>2024-07-27T08:37:47.572Z</time>
      </trkpt>
      <trkpt lat="53.96706" lon="14.61312">
        <ele>41.434747</ele>
        <time>2024-07-27T08:37:51.561Z</time>
      </trkpt>
      <trkpt lat="53.96714" lon="14.61319">
        <ele>41.304432</ele>
        <time>2024-07-27T08:37:55.559Z</time>
      </trkpt>
      <trkpt lat="53.96722" lon="14.61329">
        <ele>41.177228</ele>
        <time>2024-07-27T08:37:59.559Z</time>
      </trkpt>
      <trkpt lat="53.96726" lon="14.61342">
        <ele>41.054408</ele>
        <time>2024-07-27T08:38:03.553Z</time>
      </trkpt>
      <trkpt lat="53.9673" lon="14.61357">
        <ele>40.92219</ele>
        <time>2024-07-27T08:38:07.568Z</time>
      </trkpt>
      <trkpt lat="53.96734" lon="14.61373">
        <ele>40.782343</ele>
        <time>2024-07-27T08:38:11.551Z</time>
      </trkpt>
      <trkpt lat="53.96737" lon="14.61389">
        <ele>40.65344</ele>
        <time>2024-07-27T08:38:15.554Z</time>
      </trkpt>
      <trkpt lat="53.96739" lon="14.61408">
        <ele>40.496858</ele>
        <time>2024-07-27T08:38:41.576Z</time>
      </trkpt>
      <trkpt lat="53.9674" lon="14.61424">
        <ele>40.370192</ele>
        <time>2024-07-27T08:38:48.566Z</time>
      </trkpt>
      <trkpt lat="53.96742" lon="14.6144">
        <ele>40.238608</ele>
        <time>2024-07-27T08:38:54.552Z</time>
      </trkpt>
      <trkpt lat="53.96749" lon="14.61452">
        <ele>40.375097</ele>
        <time>2024-07-27T08:39:01.559Z</time>
      </trkpt>
      <trkpt lat="53.96755" lon="14.61466">
        <ele>40.540686</ele>
        <time>2024-07-27T08:39:06.560Z</time>
      </trkpt>
      <trkpt lat="53.9676" lon="14.6148">
        <ele>40.685924</ele>
        <time>2024-07-27T08:39:12.556Z</time>
      </trkpt>
      <trkpt lat="53.96766" lon="14.61496">
        <ele>40.865366</ele>
        <time>2024-07-27T08:39:17.557Z</time>
      </trkpt>
      <trkpt lat="53.96772" lon="14.6151">
        <ele>41.025462</ele>
        <time>2024-07-27T08:39:21.568Z</time>
      </trkpt>
      <trkpt lat="53.96776" lon="14.61527">
        <ele>41.205112</ele>
        <time>2024-07-27T08:39:25.561Z</time>
      </trkpt>
      <trkpt lat="53.96775" lon="14.61545">
        <ele>41.375626</ele>
        <time>2024-07-27T08:39:29.558Z</time>
      </trkpt>
      <trkpt lat="53.96772" lon="14.61564">
        <ele>41.561294</ele>
        <time>2024-07-27T08:39:33.580Z</time>
      </trkpt>
      <trkpt lat="53.96768" lon="14.61578">
        <ele>41.709894</ele>
        <time>2024-07-27T08:39:36.557Z</time>
      </trkpt>
      <trkpt lat="53.96763" lon="14.61592">
        <ele>41.860617</ele>
        <time>2024-07-27T08:39:39.566Z</time>
      </trkpt>
      <trkpt lat="53.96761" lon="14.6161">
        <ele>42.034264</ele>
        <time>2024-07-27T08:39:44.578Z</time>
      </trkpt>
      <trkpt lat="53.9677" lon="14.61619">
        <ele>42.202396</ele>
        <time>2024-07-27T08:39:48.558Z</time>
      </trkpt>
      <trkpt lat="53.96778" lon="14.61627">
        <ele>42.345507</ele>
        <time>2024-07-27T08:39:51.581Z</time>
      </trkpt>
      <trkpt lat="53.96786" lon="14.61633">
        <ele>42.49067</ele>
        <time>2024-07-27T08:39:54.582Z</time>
      </trkpt>
      <trkpt lat="53.96794" lon="14.6164">
        <ele>42.640783</ele>
        <time>2024-07-27T08:39:58.578Z</time>
      </trkpt>
      <trkpt lat="53.96803" lon="14.6165">
        <ele>42.805087</ele>
        <time>2024-07-27T08:40:02.560Z</time>
      </trkpt>
      <trkpt lat="53.96812" lon="14.61658">
        <ele>42.966753</ele>
        <time>2024-07-27T08:40:06.561Z</time>
      </trkpt>
      <trkpt lat="53.9682" lon="14.61667">
        <ele>43.114738</ele>
        <time>2024-07-27T08:40:11.563Z</time>
      </trkpt>
      <trkpt lat="53.96828" lon="14.61676">
        <ele>43.189767</ele>
        <time>2024-07-27T08:40:15.565Z</time>
      </trkpt>
      <trkpt lat="53.96837" lon="14.61686">
        <ele>43.279753</ele>
        <time>2024-07-27T08:40:20.569Z</time>
      </trkpt>
      <trkpt lat="53.96845" lon="14.61697">
        <ele>43.364122</ele>
        <time>2024-07-27T08:40:24.591Z</time>
      </trkpt>
      <trkpt lat="53.96854" lon="14.61709">
        <ele>43.455069</ele>
        <time>2024-07-27T08:40:29.581Z</time>
      </trkpt>
      <trkpt lat="53.96861" lon="14.61719">
        <ele>43.536413</ele>
        <time>2024-07-27T08:40:33.559Z</time>
      </trkpt>
      <trkpt lat="53.96869" lon="14.61731">
        <ele>43.622634</ele>
        <time>2024-07-27T08:40:37.575Z</time>
      </trkpt>
      <trkpt lat="53.96877" lon="14.61742">
        <ele>43.707647</ele>
        <time>2024-07-27T08:40:41.564Z</time>
      </trkpt>
      <trkpt lat="53.96886" lon="14.61754">
        <ele>43.796057</ele>
        <time>2024-07-27T08:40:45.565Z</time>
      </trkpt>
      <trkpt lat="53.96893" lon="14.61767">
        <ele>43.885361</ele>
        <time>2024-07-27T08:40:49.568Z</time>
      </trkpt>
      <trkpt lat="53.969" lon="14.6178">
        <ele>43.973745</ele>
        <time>2024-07-27T08:40:53.573Z</time>
      </trkpt>
      <trkpt lat="53.96908" lon="14.61794">
        <ele>44.067535</ele>
        <time>2024-07-27T08:40:57.565Z</time>
      </trkpt>
      <trkpt lat="53.96914" lon="14.61806">
        <ele>44.142343</ele>
        <time>2024-07-27T08:41:00.575Z</time>
      </trkpt>
      <trkpt lat="53.9692" lon="14.61818">
        <ele>44.218212</ele>
        <time>2024-07-27T08:41:03.564Z</time>
      </trkpt>
      <trkpt lat="53.96927" lon="14.61832">
        <ele>44.307156</ele>
        <time>2024-07-27T08:41:07.564Z</time>
      </trkpt>
      <trkpt lat="53.96932" lon="14.61845">
        <ele>44.383199</ele>
        <time>2024-07-27T08:41:11.580Z</time>
      </trkpt>
      <trkpt lat="53.96941" lon="14.61862">
        <ele>44.491736</ele>
        <time>2024-07-27T08:41:46.564Z</time>
      </trkpt>
      <trkpt lat="53.96946" lon="14.61875">
        <ele>44.566172</ele>
        <time>2024-07-27T08:41:49.556Z</time>
      </trkpt>
      <trkpt lat="53.96953" lon="14.61893">
        <ele>44.563267</ele>
        <time>2024-07-27T08:41:52.557Z</time>
      </trkpt>
      <trkpt lat="53.96958" lon="14.61906">
        <ele>44.546561</ele>
        <time>2024-07-27T08:41:54.583Z</time>
      </trkpt>
      <trkpt lat="53.96963" lon="14.61921">
        <ele>44.527493</ele>
        <time>2024-07-27T08:41:56.572Z</time>
      </trkpt>
      <trkpt lat="53.96969" lon="14.61936">
        <ele>44.508492</ele>
        <time>2024-07-27T08:41:58.580Z</time>
      </trkpt>
      <trkpt lat="53.96975" lon="14.61953">
        <ele>44.487792</ele>
        <time>2024-07-27T08:42:00.571Z</time>
      </trkpt>
      <trkpt lat="53.96982" lon="14.6197">
        <ele>44.465801</ele>
        <time>2024-07-27T08:42:02.582Z</time>
      </trkpt>
      <trkpt lat="53.96989" lon="14.61989">
        <ele>44.442275</ele>
        <time>2024-07-27T08:42:04.569Z</time>
      </trkpt>
      <trkpt lat="53.96995" lon="14.62008">
        <ele>44.418932</ele>
        <time>2024-07-27T08:42:06.561Z</time>
      </trkpt>
      <trkpt lat="53.97002" lon="14.62027">
        <ele>44.395663</ele>
        <time>2024-07-27T08:42:08.580Z</time>
      </trkpt>
      <trkpt lat="53.97009" lon="14.62045">
        <ele>44.372951</ele>
        <time>2024-07-27T08:42:10.580Z</time>
      </trkpt>
      <trkpt lat="53.97015" lon="14.62063">
        <ele>44.350337</ele>
        <time>2024-07-27T08:42:12.568Z</time>
      </trkpt>
      <trkpt lat="53.97022" lon="14.62081">
        <ele>44.328327</ele>
        <time>2024-07-27T08:42:14.592Z</time>
      </trkpt>
      <trkpt lat="53.97029" lon="14.62098">
        <ele>44.306701</ele>
        <time>2024-07-27T08:42:16.570Z</time>
      </trkpt>
      <trkpt lat="53.97035" lon="14.62114">
        <ele>44.286277</ele>
        <time>2024-07-27T08:42:18.620Z</time>
      </trkpt>
      <trkpt lat="53.9704" lon="14.6213">
        <ele>44.266569</ele>
        <time>2024-07-27T08:42:20.569Z</time>
      </trkpt>
      <trkpt lat="53.97046" lon="14.62146">
        <ele>44.383986</ele>
        <time>2024-07-27T08:42:22.575Z</time>
      </trkpt>
      <trkpt lat="53.97053" lon="14.62161">
        <ele>44.587015</ele>
        <time>2024-07-27T08:42:24.579Z</time>
      </trkpt>
      <trkpt lat="53.97059" lon="14.62175">
        <ele>44.785604</ele>
        <time>2024-07-27T08:42:26.583Z</time>
      </trkpt>
      <trkpt lat="53.97066" lon="14.62189">
        <ele>44.979227</ele>
        <time>2024-07-27T08:42:28.591Z</time>
      </trkpt>
      <trkpt lat="53.97072" lon="14.62202">
        <ele>45.162556</ele>
        <time>2024-07-27T08:42:30.574Z</time>
      </trkpt>
      <trkpt lat="53.97078" lon="14.62213">
        <ele>45.333576</ele>
        <time>2024-07-27T08:42:32.582Z</time>
      </trkpt>
      <trkpt lat="53.97085" lon="14.62225">
        <ele>45.511957</ele>
        <time>2024-07-27T08:42:34.580Z</time>
      </trkpt>
      <trkpt lat="53.97091" lon="14.62236">
        <ele>45.680354</ele>
        <time>2024-07-27T08:42:36.561Z</time>
      </trkpt>
      <trkpt lat="53.97101" lon="14.62251">
        <ele>45.930075</ele>
        <time>2024-07-27T08:42:39.569Z</time>
      </trkpt>
      <trkpt lat="53.97111" lon="14.62266">
        <ele>46.181242</ele>
        <time>2024-07-27T08:42:42.575Z</time>
      </trkpt>
      <trkpt lat="53.97121" lon="14.62281">
        <ele>46.431684</ele>
        <time>2024-07-27T08:42:45.569Z</time>
      </trkpt>
      <trkpt lat="53.97132" lon="14.62296">
        <ele>46.681393</ele>
        <time>2024-07-27T08:42:48.588Z</time>
      </trkpt>
      <trkpt lat="53.97142" lon="14.6231">
        <ele>46.928256</ele>
        <time>2024-07-27T08:42:51.564Z</time>
      </trkpt>
      <trkpt lat="53.97152" lon="14.62325">
        <ele>47.173042</ele>
        <time>2024-07-27T08:42:54.548Z</time>
      </trkpt>
      <trkpt lat="53.97161" lon="14.6234">
        <ele>47.411679</ele>
        <time>2024-07-27T08:42:57.581Z</time>
      </trkpt>
      <trkpt lat="53.97171" lon="14.62355">
        <ele>47.581716</ele>
        <time>2024-07-27T08:43:00.572Z</time>
      </trkpt>
      <trkpt lat="53.97181" lon="14.62369">
        <ele>47.383403</ele>
        <time>2024-07-27T08:43:03.573Z</time>
      </trkpt>
      <trkpt lat="53.97191" lon="14.62383">
        <ele>47.184519</ele>
        <time>2024-07-27T08:43:06.567Z</time>
      </trkpt>
      <trkpt lat="53.972" lon="14.62398">
        <ele>46.984811</ele>
        <time>2024-07-27T08:43:09.591Z</time>
      </trkpt>
      <trkpt lat="53.97211" lon="14.62413">
        <ele>46.779516</ele>
        <time>2024-07-27T08:43:12.561Z</time>
      </trkpt>
      <trkpt lat="53.97218" lon="14.62423">
        <ele>46.631961</ele>
        <time>2024-07-27T08:43:14.563Z</time>
      </trkpt>
      <trkpt lat="53.97225" lon="14.62434">
        <ele>46.481482</ele>
        <time>2024-07-27T08:43:16.581Z</time>
      </trkpt>
      <trkpt lat="53.97233" lon="14.62446">
        <ele>46.321682</ele>
        <time>2024-07-27T08:43:18.619Z</time>
      </trkpt>
      <trkpt lat="53.97242" lon="14.62458">
        <ele>46.156637</ele>
        <time>2024-07-27T08:43:20.572Z</time>
      </trkpt>
      <trkpt lat="53.9725" lon="14.62471">
        <ele>45.98166</ele>
        <time>2024-07-27T08:43:22.579Z</time>
      </trkpt>
      <trkpt lat="53.97259" lon="14.62484">
        <ele>45.799603</ele>
        <time>2024-07-27T08:43:24.569Z</time>
      </trkpt>
      <trkpt lat="53.97268" lon="14.62498">
        <ele>45.610063</ele>
        <time>2024-07-27T08:43:26.562Z</time>
      </trkpt>
      <trkpt lat="53.97278" lon="14.62514">
        <ele>45.401076</ele>
        <time>2024-07-27T08:43:28.583Z</time>
      </trkpt>
      <trkpt lat="53.97289" lon="14.6253">
        <ele>45.178286</ele>
        <time>2024-07-27T08:43:30.570Z</time>
      </trkpt>
      <trkpt lat="53.97301" lon="14.62546">
        <ele>44.951424</ele>
        <time>2024-07-27T08:43:32.557Z</time>
      </trkpt>
      <trkpt lat="53.97312" lon="14.62562">
        <ele>44.720418</ele>
        <time>2024-07-27T08:43:34.565Z</time>
      </trkpt>
      <trkpt lat="53.97323" lon="14.6258">
        <ele>44.482853</ele>
        <time>2024-07-27T08:43:36.558Z</time>
      </trkpt>
      <trkpt lat="53.97334" lon="14.62597">
        <ele>44.24105</ele>
        <time>2024-07-27T08:43:38.571Z</time>
      </trkpt>
      <trkpt lat="53.97346" lon="14.62614">
        <ele>43.99942</ele>
        <time>2024-07-27T08:43:40.560Z</time>
      </trkpt>
      <trkpt lat="53.97356" lon="14.62631">
        <ele>43.770966</ele>
        <time>2024-07-27T08:43:42.546Z</time>
      </trkpt>
      <trkpt lat="53.97367" lon="14.62646">
        <ele>43.545682</ele>
        <time>2024-07-27T08:43:44.562Z</time>
      </trkpt>
      <trkpt lat="53.97377" lon="14.62662">
        <ele>43.323902</ele>
        <time>2024-07-27T08:43:46.573Z</time>
      </trkpt>
      <trkpt lat="53.97387" lon="14.62678">
        <ele>43.108245</ele>
        <time>2024-07-27T08:43:48.583Z</time>
      </trkpt>
      <trkpt lat="53.97398" lon="14.62692">
        <ele>42.893255</ele>
        <time>2024-07-27T08:43:50.561Z</time>
      </trkpt>
      <trkpt lat="53.97408" lon="14.62707">
        <ele>42.682461</ele>
        <time>2024-07-27T08:43:52.560Z</time>
      </trkpt>
      <trkpt lat="53.97417" lon="14.62723">
        <ele>42.4734</ele>
        <time>2024-07-27T08:43:54.573Z</time>
      </trkpt>
      <trkpt lat="53.97426" lon="14.62738">
        <ele>42.271922</ele>
        <time>2024-07-27T08:43:56.567Z</time>
      </trkpt>
      <trkpt lat="53.97436" lon="14.62752">
        <ele>42.069608</ele>
        <time>2024-07-27T08:43:58.614Z</time>
      </trkpt>
      <trkpt lat="53.97445" lon="14.62767">
        <ele>41.980056</ele>
        <time>2024-07-27T08:44:00.575Z</time>
      </trkpt>
      <trkpt lat="53.97456" lon="14.62781">
        <ele>41.942899</ele>
        <time>2024-07-27T08:44:02.559Z</time>
      </trkpt>
      <trkpt lat="53.97466" lon="14.62794">
        <ele>41.905805</ele>
        <time>2024-07-27T08:44:04.557Z</time>
      </trkpt>
      <trkpt lat="53.97476" lon="14.62808">
        <ele>41.869561</ele>
        <time>2024-07-27T08:44:06.571Z</time>
      </trkpt>
      <trkpt lat="53.97487" lon="14.6282">
        <ele>41.833348</ele>
        <time>2024-07-27T08:44:08.622Z</time>
      </trkpt>
      <trkpt lat="53.97498" lon="14.62832">
        <ele>41.795343</ele>
        <time>2024-07-27T08:44:10.559Z</time>
      </trkpt>
      <trkpt lat="53.9751" lon="14.62843">
        <ele>41.75849</ele>
        <time>2024-07-27T08:44:12.537Z</time>
      </trkpt>
      <trkpt lat="53.9752" lon="14.62854">
        <ele>41.723563</ele>
        <time>2024-07-27T08:44:14.557Z</time>
      </trkpt>
      <trkpt lat="53.97532" lon="14.62863">
        <ele>41.68826</ele>
        <time>2024-07-27T08:44:16.547Z</time>
      </trkpt>
      <trkpt lat="53.97543" lon="14.62871">
        <ele>41.652798</ele>
        <time>2024-07-27T08:44:18.560Z</time>
      </trkpt>
      <trkpt lat="53.97555" lon="14.62878">
        <ele>41.617795</ele>
        <time>2024-07-27T08:44:20.578Z</time>
      </trkpt>
      <trkpt lat="53.97567" lon="14.62884">
        <ele>41.582233</ele>
        <time>2024-07-27T08:44:22.565Z</time>
      </trkpt>
      <trkpt lat="53.97578" lon="14.6289">
        <ele>41.549067</ele>
        <time>2024-07-27T08:44:24.562Z</time>
      </trkpt>
      <trkpt lat="53.9759" lon="14.62894">
        <ele>41.51523</ele>
        <time>2024-07-27T08:44:26.556Z</time>
      </trkpt>
      <trkpt lat="53.97602" lon="14.62897">
        <ele>41.448745</ele>
        <time>2024-07-27T08:44:28.567Z</time>
      </trkpt>
      <trkpt lat="53.97615" lon="14.629">
        <ele>41.346609</ele>
        <time>2024-07-27T08:44:30.580Z</time>
      </trkpt>
      <trkpt lat="53.97628" lon="14.62903">
        <ele>41.24238</ele>
        <time>2024-07-27T08:44:32.561Z</time>
      </trkpt>
      <trkpt lat="53.9764" lon="14.62904">
        <ele>41.144328</ele>
        <time>2024-07-27T08:44:34.581Z</time>
      </trkpt>
      <trkpt lat="53.97652" lon="14.62905">
        <ele>41.043847</ele>
        <time>2024-07-27T08:44:36.575Z</time>
      </trkpt>
      <trkpt lat="53.97665" lon="14.62906">
        <ele>40.945034</ele>
        <time>2024-07-27T08:44:38.624Z</time>
      </trkpt>
      <trkpt lat="53.97677" lon="14.62907">
        <ele>40.845167</ele>
        <time>2024-07-27T08:44:40.570Z</time>
      </trkpt>
      <trkpt lat="53.97689" lon="14.62909">
        <ele>40.748694</ele>
        <time>2024-07-27T08:44:42.565Z</time>
      </trkpt>
      <trkpt lat="53.97701" lon="14.6291">
        <ele>40.653798</ele>
        <time>2024-07-27T08:44:44.574Z</time>
      </trkpt>
      <trkpt lat="53.97713" lon="14.6291">
        <ele>40.555052</ele>
        <time>2024-07-27T08:44:46.565Z</time>
      </trkpt>
      <trkpt lat="53.97726" lon="14.62911">
        <ele>40.455418</ele>
        <time>2024-07-27T08:44:48.583Z</time>
      </trkpt>
      <trkpt lat="53.97739" lon="14.62911">
        <ele>40.350255</ele>
        <time>2024-07-27T08:44:50.572Z</time>
      </trkpt>
      <trkpt lat="53.97751" lon="14.62911">
        <ele>40.249105</ele>
        <time>2024-07-27T08:44:52.558Z</time>
      </trkpt>
      <trkpt lat="53.97764" lon="14.6291">
        <ele>40.147846</ele>
        <time>2024-07-27T08:44:54.575Z</time>
      </trkpt>
      <trkpt lat="53.97777" lon="14.6291">
        <ele>40.060147</ele>
        <time>2024-07-27T08:44:56.557Z</time>
      </trkpt>
      <trkpt lat="53.97789" lon="14.62911">
        <ele>40.125792</ele>
        <time>2024-07-27T08:44:58.553Z</time>
      </trkpt>
      <trkpt lat="53.97802" lon="14.62912">
        <ele>40.190971</ele>
        <time>2024-07-27T08:45:00.578Z</time>
      </trkpt>
      <trkpt lat="53.97813" lon="14.62913">
        <ele>40.253027</ele>
        <time>2024-07-27T08:45:02.572Z</time>
      </trkpt>
      <trkpt lat="53.97824" lon="14.62914">
        <ele>40.307187</ele>
        <time>2024-07-27T08:45:04.581Z</time>
      </trkpt>
      <trkpt lat="53.97833" lon="14.62915">
        <ele>40.358151</ele>
        <time>2024-07-27T08:45:06.570Z</time>
      </trkpt>
      <trkpt lat="53.97843" lon="14.62916">
        <ele>40.410653</ele>
        <time>2024-07-27T08:45:08.569Z</time>
      </trkpt>
      <trkpt lat="53.97853" lon="14.62916">
        <ele>40.461581</ele>
        <time>2024-07-27T08:45:10.570Z</time>
      </trkpt>
      <trkpt lat="53.97863" lon="14.62917">
        <ele>40.510947</ele>
        <time>2024-07-27T08:45:12.574Z</time>
      </trkpt>
      <trkpt lat="53.97872" lon="14.62918">
        <ele>40.558766</ele>
        <time>2024-07-27T08:45:14.560Z</time>
      </trkpt>
      <trkpt lat="53.97881" lon="14.62918">
        <ele>40.606047</ele>
        <time>2024-07-27T08:45:16.576Z</time>
      </trkpt>
      <trkpt lat="53.97894" lon="14.62919">
        <ele>40.674801</ele>
        <time>2024-07-27T08:45:19.576Z</time>
      </trkpt>
      <trkpt lat="53.97907" lon="14.62921">
        <ele>40.743331</ele>
        <time>2024-07-27T08:45:22.561Z</time>
      </trkpt>
      <trkpt lat="53.97916" lon="14.62922">
        <ele>40.790644</ele>
        <time>2024-07-27T08:45:24.569Z</time>
      </trkpt>
      <trkpt lat="53.97925" lon="14.62922">
        <ele>40.837925</ele>
        <time>2024-07-27T08:45:26.561Z</time>
      </trkpt>
      <trkpt lat="53.97938" lon="14.62923">
        <ele>40.905133</ele>
        <time>2024-07-27T08:45:29.559Z</time>
      </trkpt>
      <trkpt lat="53.97951" lon="14.62924">
        <ele>40.976004</ele>
        <time>2024-07-27T08:45:32.566Z</time>
      </trkpt>
      <trkpt lat="53.97964" lon="14.62924">
        <ele>41.159783</ele>
        <time>2024-07-27T08:45:35.568Z</time>
      </trkpt>
      <trkpt lat="53.97977" lon="14.62925">
        <ele>41.397134</ele>
        <time>2024-07-27T08:45:38.571Z</time>
      </trkpt>
      <trkpt lat="53.9799" lon="14.62927">
        <ele>41.637347</ele>
        <time>2024-07-27T08:45:41.569Z</time>
      </trkpt>
      <trkpt lat="53.97999" lon="14.62928">
        <ele>41.808401</ele>
        <time>2024-07-27T08:45:43.558Z</time>
      </trkpt>
      <trkpt lat="53.98012" lon="14.62928">
        <ele>42.051113</ele>
        <time>2024-07-27T08:45:46.570Z</time>
      </trkpt>
      <trkpt lat="53.98022" lon="14.62928">
        <ele>42.218467</ele>
        <time>2024-07-27T08:45:48.617Z</time>
      </trkpt>
      <trkpt lat="53.98035" lon="14.6293">
        <ele>42.465539</ele>
        <time>2024-07-27T08:45:51.565Z</time>
      </trkpt>
      <trkpt lat="53.98049" lon="14.62931">
        <ele>42.716061</ele>
        <time>2024-07-27T08:45:54.560Z</time>
      </trkpt>
      <trkpt lat="53.98058" lon="14.62933">
        <ele>42.887934</ele>
        <time>2024-07-27T08:45:56.553Z</time>
      </trkpt>
      <trkpt lat="53.98067" lon="14.62934">
        <ele>43.057513</ele>
        <time>2024-07-27T08:45:58.560Z</time>
      </trkpt>
      <trkpt lat="53.98076" lon="14.62935">
        <ele>43.23069</ele>
        <time>2024-07-27T08:46:00.561Z</time>
      </trkpt>
      <trkpt lat="53.98087" lon="14.62936">
        <ele>43.417307</ele>
        <time>2024-07-27T08:46:02.565Z</time>
      </trkpt>
      <trkpt lat="53.98096" lon="14.62939">
        <ele>43.588286</ele>
        <time>2024-07-27T08:46:04.569Z</time>
      </trkpt>
      <trkpt lat="53.98107" lon="14.62941">
        <ele>43.799369</ele>
        <time>2024-07-27T08:46:07.578Z</time>
      </trkpt>
      <trkpt lat="53.9812" lon="14.62942">
        <ele>44.042425</ele>
        <time>2024-07-27T08:46:10.569Z</time>
      </trkpt>
      <trkpt lat="53.9813" lon="14.62941">
        <ele>44.224778</ele>
        <time>2024-07-27T08:46:12.564Z</time>
      </trkpt>
      <trkpt lat="53.98142" lon="14.62941">
        <ele>44.381415</ele>
        <time>2024-07-27T08:46:15.568Z</time>
      </trkpt>
      <trkpt lat="53.98155" lon="14.62942">
        <ele>44.511937</ele>
        <time>2024-07-27T08:46:18.557Z</time>
      </trkpt>
      <trkpt lat="53.98165" lon="14.62944">
        <ele>44.61626</ele>
        <time>2024-07-27T08:46:20.558Z</time>
      </trkpt>
      <trkpt lat="53.98176" lon="14.62947">
        <ele>44.732155</ele>
        <time>2024-07-27T08:46:22.558Z</time>
      </trkpt>
      <trkpt lat="53.98187" lon="14.62947">
        <ele>44.841865</ele>
        <time>2024-07-27T08:46:24.562Z</time>
      </trkpt>
      <trkpt lat="53.98197" lon="14.62949">
        <ele>44.94728</ele>
        <time>2024-07-27T08:46:26.559Z</time>
      </trkpt>
      <trkpt lat="53.98209" lon="14.6295">
        <ele>45.075579</ele>
        <time>2024-07-27T08:46:29.569Z</time>
      </trkpt>
      <trkpt lat="53.9822" lon="14.6295">
        <ele>45.179194</ele>
        <time>2024-07-27T08:46:31.562Z</time>
      </trkpt>
      <trkpt lat="53.9823" lon="14.6295">
        <ele>45.288924</ele>
        <time>2024-07-27T08:46:33.564Z</time>
      </trkpt>
      <trkpt lat="53.98242" lon="14.6295">
        <ele>45.409943</ele>
        <time>2024-07-27T08:46:35.563Z</time>
      </trkpt>
      <trkpt lat="53.98252" lon="14.62949">
        <ele>45.511451</ele>
        <time>2024-07-27T08:46:37.549Z</time>
      </trkpt>
      <trkpt lat="53.98262" lon="14.6295">
        <ele>45.618086</ele>
        <time>2024-07-27T08:46:39.586Z</time>
      </trkpt>
      <trkpt lat="53.98272" lon="14.6295">
        <ele>45.713557</ele>
        <time>2024-07-27T08:46:41.564Z</time>
      </trkpt>
      <trkpt lat="53.98282" lon="14.62951">
        <ele>45.821347</ele>
        <time>2024-07-27T08:46:43.578Z</time>
      </trkpt>
      <trkpt lat="53.98292" lon="14.62952">
        <ele>45.926956</ele>
        <time>2024-07-27T08:46:45.568Z</time>
      </trkpt>
      <trkpt lat="53.98302" lon="14.62953">
        <ele>46.022536</ele>
        <time>2024-07-27T08:46:47.571Z</time>
      </trkpt>
      <trkpt lat="53.98311" lon="14.62953">
        <ele>46.117916</ele>
        <time>2024-07-27T08:46:49.565Z</time>
      </trkpt>
      <trkpt lat="53.98324" lon="14.62954">
        <ele>46.168843</ele>
        <time>2024-07-27T08:46:52.575Z</time>
      </trkpt>
      <trkpt lat="53.98333" lon="14.62954">
        <ele>46.186506</ele>
        <time>2024-07-27T08:46:54.558Z</time>
      </trkpt>
      <trkpt lat="53.98344" lon="14.62955">
        <ele>46.20691</ele>
        <time>2024-07-27T08:46:56.565Z</time>
      </trkpt>
      <trkpt lat="53.98355" lon="14.62957">
        <ele>46.227221</ele>
        <time>2024-07-27T08:46:58.567Z</time>
      </trkpt>
      <trkpt lat="53.98365" lon="14.62959">
        <ele>46.247494</ele>
        <time>2024-07-27T08:47:00.567Z</time>
      </trkpt>
      <trkpt lat="53.98375" lon="14.62961">
        <ele>46.2668</ele>
        <time>2024-07-27T08:47:02.582Z</time>
      </trkpt>
      <trkpt lat="53.98385" lon="14.62961">
        <ele>46.285048</ele>
        <time>2024-07-27T08:47:04.567Z</time>
      </trkpt>
      <trkpt lat="53.98398" lon="14.62962">
        <ele>46.310991</ele>
        <time>2024-07-27T08:47:07.566Z</time>
      </trkpt>
      <trkpt lat="53.98408" lon="14.62963">
        <ele>46.330961</ele>
        <time>2024-07-27T08:47:09.557Z</time>
      </trkpt>
      <trkpt lat="53.98418" lon="14.62961">
        <ele>46.349099</ele>
        <time>2024-07-27T08:47:11.575Z</time>
      </trkpt>
      <trkpt lat="53.98429" lon="14.62961">
        <ele>46.370801</ele>
        <time>2024-07-27T08:47:13.565Z</time>
      </trkpt>
      <trkpt lat="53.9844" lon="14.62961">
        <ele>46.39096</ele>
        <time>2024-07-27T08:47:15.580Z</time>
      </trkpt>
      <trkpt lat="53.98451" lon="14.62962">
        <ele>46.411985</ele>
        <time>2024-07-27T08:47:17.557Z</time>
      </trkpt>
      <trkpt lat="53.98461" lon="14.62963">
        <ele>46.432152</ele>
        <time>2024-07-27T08:47:19.552Z</time>
      </trkpt>
      <trkpt lat="53.98472" lon="14.62965">
        <ele>46.453178</ele>
        <time>2024-07-27T08:47:21.560Z</time>
      </trkpt>
      <trkpt lat="53.98483" lon="14.62968">
        <ele>46.473962</ele>
        <time>2024-07-27T08:47:23.559Z</time>
      </trkpt>
      <trkpt lat="53.98492" lon="14.62968">
        <ele>46.491821</ele>
        <time>2024-07-27T08:47:25.576Z</time>
      </trkpt>
      <trkpt lat="53.98502" lon="14.62968">
        <ele>46.590595</ele>
        <time>2024-07-27T08:47:27.558Z</time>
      </trkpt>
      <trkpt lat="53.98512" lon="14.6297">
        <ele>46.70435</ele>
        <time>2024-07-27T08:47:29.567Z</time>
      </trkpt>
      <trkpt lat="53.98524" lon="14.62972">
        <ele>46.846104</ele>
        <time>2024-07-27T08:47:32.560Z</time>
      </trkpt>
      <trkpt lat="53.98534" lon="14.62971">
        <ele>46.953362</ele>
        <time>2024-07-27T08:47:35.562Z</time>
      </trkpt>
      <trkpt lat="53.98538" lon="14.62957">
        <ele>47.065034</ele>
        <time>2024-07-27T08:47:40.544Z</time>
      </trkpt>
      <trkpt lat="53.98536" lon="14.62952">
        <ele>47.107361</ele>
        <time>2024-07-27T08:47:49.146Z</time>
      </trkpt>
      <trkpt lat="53.98538" lon="14.62972">
        <ele>47.242147</ele>
        <time>2024-07-27T08:50:14.552Z</time>
      </trkpt>
      <trkpt lat="53.98547" lon="14.62973">
        <ele>47.350711</ele>
        <time>2024-07-27T08:50:19.553Z</time>
      </trkpt>
      <trkpt lat="53.98558" lon="14.62974">
        <ele>47.474204</ele>
        <time>2024-07-27T08:50:23.558Z</time>
      </trkpt>
      <trkpt lat="53.98569" lon="14.62975">
        <ele>47.598793</ele>
        <time>2024-07-27T08:50:27.548Z</time>
      </trkpt>
      <trkpt lat="53.98579" lon="14.62976">
        <ele>47.714067</ele>
        <time>2024-07-27T08:50:30.562Z</time>
      </trkpt>
      <trkpt lat="53.9859" lon="14.62977">
        <ele>47.844316</ele>
        <time>2024-07-27T08:50:33.560Z</time>
      </trkpt>
      <trkpt lat="53.986" lon="14.62979">
        <ele>47.960773</ele>
        <time>2024-07-27T08:50:36.550Z</time>
      </trkpt>
      <trkpt lat="53.98612" lon="14.62981">
        <ele>48.09574</ele>
        <time>2024-07-27T08:50:39.537Z</time>
      </trkpt>
      <trkpt lat="53.98624" lon="14.62983">
        <ele>48.22998</ele>
        <time>2024-07-27T08:50:42.567Z</time>
      </trkpt>
      <trkpt lat="53.98634" lon="14.62982">
        <ele>48.340789</ele>
        <time>2024-07-27T08:50:44.564Z</time>
      </trkpt>
      <trkpt lat="53.98646" lon="14.62984">
        <ele>48.483266</ele>
        <time>2024-07-27T08:50:47.582Z</time>
      </trkpt>
      <trkpt lat="53.98659" lon="14.62985">
        <ele>48.40118</ele>
        <time>2024-07-27T08:50:50.568Z</time>
      </trkpt>
      <trkpt lat="53.98672" lon="14.62985">
        <ele>48.170876</ele>
        <time>2024-07-27T08:50:52.561Z</time>
      </trkpt>
      <trkpt lat="53.98683" lon="14.62986">
        <ele>47.947747</ele>
        <time>2024-07-27T08:50:54.560Z</time>
      </trkpt>
      <trkpt lat="53.98693" lon="14.62986">
        <ele>47.759084</ele>
        <time>2024-07-27T08:50:56.553Z</time>
      </trkpt>
      <trkpt lat="53.98705" lon="14.62987">
        <ele>47.54211</ele>
        <time>2024-07-27T08:50:59.554Z</time>
      </trkpt>
      <trkpt lat="53.98718" lon="14.62988">
        <ele>47.284955</ele>
        <time>2024-07-27T08:51:02.558Z</time>
      </trkpt>
      <trkpt lat="53.98729" lon="14.6299">
        <ele>47.08964</ele>
        <time>2024-07-27T08:51:04.559Z</time>
      </trkpt>
      <trkpt lat="53.98739" lon="14.62989">
        <ele>46.897029</ele>
        <time>2024-07-27T08:51:06.566Z</time>
      </trkpt>
      <trkpt lat="53.98752" lon="14.62987">
        <ele>46.654115</ele>
        <time>2024-07-27T08:51:08.545Z</time>
      </trkpt>
      <trkpt lat="53.98764" lon="14.62986">
        <ele>46.43113</ele>
        <time>2024-07-27T08:51:10.561Z</time>
      </trkpt>
      <trkpt lat="53.98775" lon="14.62988">
        <ele>46.22233</ele>
        <time>2024-07-27T08:51:12.560Z</time>
      </trkpt>
      <trkpt lat="53.98785" lon="14.62989">
        <ele>46.019895</ele>
        <time>2024-07-27T08:51:14.556Z</time>
      </trkpt>
      <trkpt lat="53.98798" lon="14.62992">
        <ele>45.776312</ele>
        <time>2024-07-27T08:51:17.552Z</time>
      </trkpt>
      <trkpt lat="53.98809" lon="14.62995">
        <ele>45.576158</ele>
        <time>2024-07-27T08:51:19.554Z</time>
      </trkpt>
      <trkpt lat="53.9882" lon="14.62997">
        <ele>45.356434</ele>
        <time>2024-07-27T08:51:21.547Z</time>
      </trkpt>
      <trkpt lat="53.98832" lon="14.62997">
        <ele>45.134146</ele>
        <time>2024-07-27T08:51:23.559Z</time>
      </trkpt>
      <trkpt lat="53.98843" lon="14.62997">
        <ele>44.931569</ele>
        <time>2024-07-27T08:51:25.550Z</time>
      </trkpt>
      <trkpt lat="53.98854" lon="14.62998">
        <ele>44.721447</ele>
        <time>2024-07-27T08:51:27.562Z</time>
      </trkpt>
      <trkpt lat="53.98866" lon="14.62999">
        <ele>44.498004</ele>
        <time>2024-07-27T08:51:29.563Z</time>
      </trkpt>
      <trkpt lat="53.98877" lon="14.63">
        <ele>44.287791</ele>
        <time>2024-07-27T08:51:31.557Z</time>
      </trkpt>
      <trkpt lat="53.98889" lon="14.63001">
        <ele>44.073378</ele>
        <time>2024-07-27T08:51:33.551Z</time>
      </trkpt>
      <trkpt lat="53.989" lon="14.63005">
        <ele>43.866183</ele>
        <time>2024-07-27T08:51:35.561Z</time>
      </trkpt>
      <trkpt lat="53.98911" lon="14.63009">
        <ele>43.659557</ele>
        <time>2024-07-27T08:51:37.546Z</time>
      </trkpt>
      <trkpt lat="53.98922" lon="14.63014">
        <ele>43.450979</ele>
        <time>2024-07-27T08:51:39.553Z</time>
      </trkpt>
      <trkpt lat="53.98932" lon="14.6302">
        <ele>43.246494</ele>
        <time>2024-07-27T08:51:41.558Z</time>
      </trkpt>
      <trkpt lat="53.98943" lon="14.63026">
        <ele>43.041005</ele>
        <time>2024-07-27T08:51:43.560Z</time>
      </trkpt>
      <trkpt lat="53.98953" lon="14.63035">
        <ele>42.816796</ele>
        <time>2024-07-27T08:51:45.557Z</time>
      </trkpt>
      <trkpt lat="53.98964" lon="14.63044">
        <ele>42.604406</ele>
        <time>2024-07-27T08:51:47.554Z</time>
      </trkpt>
      <trkpt lat="53.98974" lon="14.63053">
        <ele>42.389226</ele>
        <time>2024-07-27T08:51:49.552Z</time>
      </trkpt>
      <trkpt lat="53.98983" lon="14.63061">
        <ele>42.195775</ele>
        <time>2024-07-27T08:51:51.556Z</time>
      </trkpt>
      <trkpt lat="53.98993" lon="14.63071">
        <ele>41.985437</ele>
        <time>2024-07-27T08:51:53.560Z</time>
      </trkpt>
      <trkpt lat="53.99002" lon="14.63081">
        <ele>41.793243</ele>
        <time>2024-07-27T08:51:55.554Z</time>
      </trkpt>
      <trkpt lat="53.9901" lon="14.63092">
        <ele>41.665734</ele>
        <time>2024-07-27T08:51:57.557Z</time>
      </trkpt>
      <trkpt lat="53.99018" lon="14.63104">
        <ele>41.540657</ele>
        <time>2024-07-27T08:51:59.549Z</time>
      </trkpt>
      <trkpt lat="53.99025" lon="14.63115">
        <ele>41.420498</ele>
        <time>2024-07-27T08:52:01.551Z</time>
      </trkpt>
      <trkpt lat="53.99033" lon="14.63127">
        <ele>41.297403</ele>
        <time>2024-07-27T08:52:03.547Z</time>
      </trkpt>
      <trkpt lat="53.9904" lon="14.63139">
        <ele>41.174914</ele>
        <time>2024-07-27T08:52:05.546Z</time>
      </trkpt>
      <trkpt lat="53.99047" lon="14.63153">
        <ele>41.050974</ele>
        <time>2024-07-27T08:52:07.552Z</time>
      </trkpt>
      <trkpt lat="53.99053" lon="14.63166">
        <ele>40.927581</ele>
        <time>2024-07-27T08:52:09.542Z</time>
      </trkpt>
      <trkpt lat="53.99059" lon="14.6318">
        <ele>40.80774</ele>
        <time>2024-07-27T08:52:11.560Z</time>
      </trkpt>
      <trkpt lat="53.99064" lon="14.63194">
        <ele>40.689991</ele>
        <time>2024-07-27T08:52:13.551Z</time>
      </trkpt>
      <trkpt lat="53.9907" lon="14.6321">
        <ele>40.560663</ele>
        <time>2024-07-27T08:52:15.544Z</time>
      </trkpt>
      <trkpt lat="53.99075" lon="14.63224">
        <ele>40.442963</ele>
        <time>2024-07-27T08:52:17.549Z</time>
      </trkpt>
      <trkpt lat="53.9908" lon="14.63238">
        <ele>40.330797</ele>
        <time>2024-07-27T08:52:19.551Z</time>
      </trkpt>
      <trkpt lat="53.99085" lon="14.63258">
        <ele>40.171893</ele>
        <time>2024-07-27T08:52:22.573Z</time>
      </trkpt>
      <trkpt lat="53.99088" lon="14.63277">
        <ele>40.031777</ele>
        <time>2024-07-27T08:52:24.557Z</time>
      </trkpt>
      <trkpt lat="53.9909" lon="14.63295">
        <ele>39.902934</ele>
        <time>2024-07-27T08:52:26.557Z</time>
      </trkpt>
      <trkpt lat="53.99093" lon="14.63313">
        <ele>39.777351</ele>
        <time>2024-07-27T08:52:28.556Z</time>
      </trkpt>
      <trkpt lat="53.99096" lon="14.6333">
        <ele>39.650812</ele>
        <time>2024-07-27T08:52:30.563Z</time>
      </trkpt>
      <trkpt lat="53.99098" lon="14.63347">
        <ele>39.778162</ele>
        <time>2024-07-27T08:52:32.573Z</time>
      </trkpt>
      <trkpt lat="53.991" lon="14.63365">
        <ele>39.91497</ele>
        <time>2024-07-27T08:52:34.552Z</time>
      </trkpt>
      <trkpt lat="53.99102" lon="14.63383">
        <ele>40.046062</ele>
        <time>2024-07-27T08:52:36.576Z</time>
      </trkpt>
      <trkpt lat="53.99104" lon="14.63399">
        <ele>40.168918</ele>
        <time>2024-07-27T08:52:38.569Z</time>
      </trkpt>
      <trkpt lat="53.99106" lon="14.63416">
        <ele>40.296183</ele>
        <time>2024-07-27T08:52:40.566Z</time>
      </trkpt>
      <trkpt lat="53.99107" lon="14.63434">
        <ele>40.423864</ele>
        <time>2024-07-27T08:52:42.570Z</time>
      </trkpt>
      <trkpt lat="53.99109" lon="14.63453">
        <ele>40.566242</ele>
        <time>2024-07-27T08:52:44.570Z</time>
      </trkpt>
      <trkpt lat="53.99111" lon="14.6347">
        <ele>40.698407</ele>
        <time>2024-07-27T08:52:46.565Z</time>
      </trkpt>
      <trkpt lat="53.99112" lon="14.63488">
        <ele>40.83097</ele>
        <time>2024-07-27T08:52:48.544Z</time>
      </trkpt>
      <trkpt lat="53.99114" lon="14.63506">
        <ele>40.962062</ele>
        <time>2024-07-27T08:52:50.563Z</time>
      </trkpt>
      <trkpt lat="53.99115" lon="14.63523">
        <ele>41.085502</ele>
        <time>2024-07-27T08:52:52.568Z</time>
      </trkpt>
      <trkpt lat="53.99117" lon="14.63541">
        <ele>41.222034</ele>
        <time>2024-07-27T08:52:54.562Z</time>
      </trkpt>
      <trkpt lat="53.99119" lon="14.63558">
        <ele>41.353831</ele>
        <time>2024-07-27T08:52:56.559Z</time>
      </trkpt>
      <trkpt lat="53.99122" lon="14.63575">
        <ele>41.481203</ele>
        <time>2024-07-27T08:52:58.565Z</time>
      </trkpt>
      <trkpt lat="53.99125" lon="14.63592">
        <ele>41.613799</ele>
        <time>2024-07-27T08:53:00.548Z</time>
      </trkpt>
      <trkpt lat="53.99128" lon="14.63609">
        <ele>41.741611</ele>
        <time>2024-07-27T08:53:02.548Z</time>
      </trkpt>
      <trkpt lat="53.99132" lon="14.63626">
        <ele>41.875984</ele>
        <time>2024-07-27T08:53:04.561Z</time>
      </trkpt>
      <trkpt lat="53.99136" lon="14.63643">
        <ele>41.886201</ele>
        <time>2024-07-27T08:53:06.567Z</time>
      </trkpt>
      <trkpt lat="53.99139" lon="14.63659">
        <ele>41.873481</ele>
        <time>2024-07-27T08:53:08.572Z</time>
      </trkpt>
      <trkpt lat="53.99143" lon="14.63675">
        <ele>41.860892</ele>
        <time>2024-07-27T08:53:10.559Z</time>
      </trkpt>
      <trkpt lat="53.99149" lon="14.63691">
        <ele>41.847658</ele>
        <time>2024-07-27T08:53:12.559Z</time>
      </trkpt>
      <trkpt lat="53.99156" lon="14.63708">
        <ele>41.833036</ele>
        <time>2024-07-27T08:53:14.559Z</time>
      </trkpt>
      <trkpt lat="53.99162" lon="14.63723">
        <ele>41.819899</ele>
        <time>2024-07-27T08:53:16.576Z</time>
      </trkpt>
      <trkpt lat="53.99167" lon="14.63738">
        <ele>41.806983</ele>
        <time>2024-07-27T08:53:18.561Z</time>
      </trkpt>
      <trkpt lat="53.99172" lon="14.63753">
        <ele>41.794677</ele>
        <time>2024-07-27T08:53:20.561Z</time>
      </trkpt>
      <trkpt lat="53.99177" lon="14.63767">
        <ele>41.782501</ele>
        <time>2024-07-27T08:53:22.558Z</time>
      </trkpt>
      <trkpt lat="53.99183" lon="14.63781">
        <ele>41.770848</ele>
        <time>2024-07-27T08:53:24.560Z</time>
      </trkpt>
      <trkpt lat="53.99188" lon="14.63795">
        <ele>41.758463</ele>
        <time>2024-07-27T08:53:26.570Z</time>
      </trkpt>
      <trkpt lat="53.99194" lon="14.63809">
        <ele>41.746226</ele>
        <time>2024-07-27T08:53:28.578Z</time>
      </trkpt>
      <trkpt lat="53.99198" lon="14.63824">
        <ele>41.734041</ele>
        <time>2024-07-27T08:53:30.571Z</time>
      </trkpt>
      <trkpt lat="53.99203" lon="14.63839">
        <ele>41.721862</ele>
        <time>2024-07-27T08:53:32.561Z</time>
      </trkpt>
      <trkpt lat="53.99208" lon="14.63854">
        <ele>41.709548</ele>
        <time>2024-07-27T08:53:34.563Z</time>
      </trkpt>
      <trkpt lat="53.99213" lon="14.63868">
        <ele>41.697559</ele>
        <time>2024-07-27T08:53:36.557Z</time>
      </trkpt>
      <trkpt lat="53.99218" lon="14.63883">
        <ele>41.685638</ele>
        <time>2024-07-27T08:53:38.569Z</time>
      </trkpt>
      <trkpt lat="53.99223" lon="14.63897">
        <ele>41.712846</ele>
        <time>2024-07-27T08:53:40.552Z</time>
      </trkpt>
      <trkpt lat="53.99227" lon="14.63911">
        <ele>41.83954</ele>
        <time>2024-07-27T08:53:42.567Z</time>
      </trkpt>
      <trkpt lat="53.99232" lon="14.63924">
        <ele>41.967612</ele>
        <time>2024-07-27T08:53:44.561Z</time>
      </trkpt>
      <trkpt lat="53.99239" lon="14.63944">
        <ele>42.155142</ele>
        <time>2024-07-27T08:53:47.563Z</time>
      </trkpt>
      <trkpt lat="53.99244" lon="14.63958">
        <ele>42.296025</ele>
        <time>2024-07-27T08:53:49.556Z</time>
      </trkpt>
      <trkpt lat="53.99249" lon="14.63972">
        <ele>42.431178</ele>
        <time>2024-07-27T08:53:51.564Z</time>
      </trkpt>
      <trkpt lat="53.99254" lon="14.63987">
        <ele>42.566413</ele>
        <time>2024-07-27T08:53:53.558Z</time>
      </trkpt>
      <trkpt lat="53.99258" lon="14.64">
        <ele>42.692435</ele>
        <time>2024-07-27T08:53:55.559Z</time>
      </trkpt>
      <trkpt lat="53.99265" lon="14.6402">
        <ele>42.878526</ele>
        <time>2024-07-27T08:53:58.586Z</time>
      </trkpt>
      <trkpt lat="53.99272" lon="14.64039">
        <ele>43.06331</ele>
        <time>2024-07-27T08:54:01.566Z</time>
      </trkpt>
      <trkpt lat="53.99279" lon="14.64057">
        <ele>43.239682</ele>
        <time>2024-07-27T08:54:04.566Z</time>
      </trkpt>
      <trkpt lat="53.99283" lon="14.64071">
        <ele>43.367956</ele>
        <time>2024-07-27T08:54:06.574Z</time>
      </trkpt>
      <trkpt lat="53.99289" lon="14.64091">
        <ele>43.553822</ele>
        <time>2024-07-27T08:54:09.572Z</time>
      </trkpt>
      <trkpt lat="53.99295" lon="14.64111">
        <ele>43.74031</ele>
        <time>2024-07-27T08:54:12.577Z</time>
      </trkpt>
      <trkpt lat="53.99299" lon="14.64125">
        <ele>43.870046</ele>
        <time>2024-07-27T08:54:14.560Z</time>
      </trkpt>
      <trkpt lat="53.99306" lon="14.64144">
        <ele>44.050518</ele>
        <time>2024-07-27T08:54:17.582Z</time>
      </trkpt>
      <trkpt lat="53.99313" lon="14.64163">
        <ele>44.113111</ele>
        <time>2024-07-27T08:54:20.575Z</time>
      </trkpt>
      <trkpt lat="53.99318" lon="14.64181">
        <ele>43.791532</ele>
        <time>2024-07-27T08:54:23.573Z</time>
      </trkpt>
      <trkpt lat="53.99325" lon="14.64199">
        <ele>43.475624</ele>
        <time>2024-07-27T08:54:26.564Z</time>
      </trkpt>
      <trkpt lat="53.99331" lon="14.64218">
        <ele>43.150157</ele>
        <time>2024-07-27T08:54:29.568Z</time>
      </trkpt>
      <trkpt lat="53.99335" lon="14.64238">
        <ele>42.831202</ele>
        <time>2024-07-27T08:54:32.553Z</time>
      </trkpt>
      <trkpt lat="53.99339" lon="14.64254">
        <ele>42.559871</ele>
        <time>2024-07-27T08:54:34.559Z</time>
      </trkpt>
      <trkpt lat="53.99343" lon="14.64268">
        <ele>42.319364</ele>
        <time>2024-07-27T08:54:36.550Z</time>
      </trkpt>
      <trkpt lat="53.99348" lon="14.64284">
        <ele>42.051324</ele>
        <time>2024-07-27T08:54:38.581Z</time>
      </trkpt>
      <trkpt lat="53.99352" lon="14.643">
        <ele>41.786326</ele>
        <time>2024-07-27T08:54:40.555Z</time>
      </trkpt>
      <trkpt lat="53.99356" lon="14.64316">
        <ele>41.513652</ele>
        <time>2024-07-27T08:54:42.560Z</time>
      </trkpt>
      <trkpt lat="53.99361" lon="14.64332">
        <ele>41.250611</ele>
        <time>2024-07-27T08:54:44.538Z</time>
      </trkpt>
      <trkpt lat="53.99366" lon="14.64347">
        <ele>40.989735</ele>
        <time>2024-07-27T08:54:46.564Z</time>
      </trkpt>
      <trkpt lat="53.9937" lon="14.64363">
        <ele>40.719508</ele>
        <time>2024-07-27T08:54:48.577Z</time>
      </trkpt>
      <trkpt lat="53.99375" lon="14.64378">
        <ele>40.456904</ele>
        <time>2024-07-27T08:54:50.569Z</time>
      </trkpt>
      <trkpt lat="53.9938" lon="14.64393">
        <ele>40.202517</ele>
        <time>2024-07-27T08:54:52.554Z</time>
      </trkpt>
      <trkpt lat="53.99385" lon="14.64408">
        <ele>39.941551</ele>
        <time>2024-07-27T08:54:54.569Z</time>
      </trkpt>
      <trkpt lat="53.9939" lon="14.64424">
        <ele>39.66764</ele>
        <time>2024-07-27T08:54:56.561Z</time>
      </trkpt>
      <trkpt lat="53.99395" lon="14.6444">
        <ele>39.476979</ele>
        <time>2024-07-27T08:54:58.579Z</time>
      </trkpt>
      <trkpt lat="53.994" lon="14.64455">
        <ele>39.37356</ele>
        <time>2024-07-27T08:55:00.573Z</time>
      </trkpt>
      <trkpt lat="53.99405" lon="14.64471">
        <ele>39.273378</ele>
        <time>2024-07-27T08:55:02.555Z</time>
      </trkpt>
      <trkpt lat="53.99409" lon="14.64487">
        <ele>39.168798</ele>
        <time>2024-07-27T08:55:04.562Z</time>
      </trkpt>
      <trkpt lat="53.99414" lon="14.64502">
        <ele>39.066601</ele>
        <time>2024-07-27T08:55:06.559Z</time>
      </trkpt>
      <trkpt lat="53.99418" lon="14.64519">
        <ele>38.961238</ele>
        <time>2024-07-27T08:55:08.578Z</time>
      </trkpt>
      <trkpt lat="53.99424" lon="14.64534">
        <ele>38.852746</ele>
        <time>2024-07-27T08:55:10.567Z</time>
      </trkpt>
      <trkpt lat="53.9943" lon="14.6455">
        <ele>38.744298</ele>
        <time>2024-07-27T08:55:12.560Z</time>
      </trkpt>
      <trkpt lat="53.99436" lon="14.64565">
        <ele>38.639498</ele>
        <time>2024-07-27T08:55:14.561Z</time>
      </trkpt>
      <trkpt lat="53.99442" lon="14.64581">
        <ele>38.528278</ele>
        <time>2024-07-27T08:55:16.557Z</time>
      </trkpt>
      <trkpt lat="53.99449" lon="14.64595">
        <ele>38.422023</ele>
        <time>2024-07-27T08:55:18.577Z</time>
      </trkpt>
      <trkpt lat="53.99455" lon="14.6461">
        <ele>38.313686</ele>
        <time>2024-07-27T08:55:20.551Z</time>
      </trkpt>
      <trkpt lat="53.99462" lon="14.64622">
        <ele>38.212505</ele>
        <time>2024-07-27T08:55:22.576Z</time>
      </trkpt>
      <trkpt lat="53.99469" lon="14.64636">
        <ele>38.108127</ele>
        <time>2024-07-27T08:55:24.561Z</time>
      </trkpt>
      <trkpt lat="53.99476" lon="14.64652">
        <ele>37.993002</ele>
        <time>2024-07-27T08:55:26.570Z</time>
      </trkpt>
      <trkpt lat="53.99483" lon="14.64665">
        <ele>37.889429</ele>
        <time>2024-07-27T08:55:28.579Z</time>
      </trkpt>
      <trkpt lat="53.9949" lon="14.64679">
        <ele>37.783668</ele>
        <time>2024-07-27T08:55:30.576Z</time>
      </trkpt>
      <trkpt lat="53.99497" lon="14.64693">
        <ele>37.737098</ele>
        <time>2024-07-27T08:55:32.560Z</time>
      </trkpt>
      <trkpt lat="53.99504" lon="14.64707">
        <ele>37.722437</ele>
        <time>2024-07-27T08:55:34.564Z</time>
      </trkpt>
      <trkpt lat="53.99511" lon="14.64721">
        <ele>37.707218</ele>
        <time>2024-07-27T08:55:36.563Z</time>
      </trkpt>
      <trkpt lat="53.99518" lon="14.64736">
        <ele>37.693153</ele>
        <time>2024-07-27T08:55:38.565Z</time>
      </trkpt>
      <trkpt lat="53.99524" lon="14.64749">
        <ele>37.679417</ele>
        <time>2024-07-27T08:55:40.568Z</time>
      </trkpt>
      <trkpt lat="53.99531" lon="14.64763">
        <ele>37.665374</ele>
        <time>2024-07-27T08:55:42.556Z</time>
      </trkpt>
      <trkpt lat="53.99539" lon="14.64776">
        <ele>37.651226</ele>
        <time>2024-07-27T08:55:44.555Z</time>
      </trkpt>
      <trkpt lat="53.99545" lon="14.64789">
        <ele>37.637302</ele>
        <time>2024-07-27T08:55:46.560Z</time>
      </trkpt>
      <trkpt lat="53.99552" lon="14.64802">
        <ele>37.623407</ele>
        <time>2024-07-27T08:55:48.586Z</time>
      </trkpt>
      <trkpt lat="53.99559" lon="14.64815">
        <ele>37.609806</ele>
        <time>2024-07-27T08:55:50.552Z</time>
      </trkpt>
      <trkpt lat="53.99566" lon="14.6483">
        <ele>37.595284</ele>
        <time>2024-07-27T08:55:52.579Z</time>
      </trkpt>
      <trkpt lat="53.99573" lon="14.64844">
        <ele>37.580447</ele>
        <time>2024-07-27T08:55:54.561Z</time>
      </trkpt>
      <trkpt lat="53.99581" lon="14.64857">
        <ele>37.566</ele>
        <time>2024-07-27T08:55:56.557Z</time>
      </trkpt>
      <trkpt lat="53.99588" lon="14.64871">
        <ele>37.550895</ele>
        <time>2024-07-27T08:55:58.593Z</time>
      </trkpt>
      <trkpt lat="53.99596" lon="14.64885">
        <ele>37.536117</ele>
        <time>2024-07-27T08:56:00.577Z</time>
      </trkpt>
      <trkpt lat="53.99603" lon="14.64899">
        <ele>37.521249</ele>
        <time>2024-07-27T08:56:02.560Z</time>
      </trkpt>
      <trkpt lat="53.99612" lon="14.64911">
        <ele>37.506998</ele>
        <time>2024-07-27T08:56:04.586Z</time>
      </trkpt>
      <trkpt lat="53.99619" lon="14.64922">
        <ele>37.530982</ele>
        <time>2024-07-27T08:56:06.566Z</time>
      </trkpt>
      <trkpt lat="53.99626" lon="14.64936">
        <ele>37.55745</ele>
        <time>2024-07-27T08:56:08.576Z</time>
      </trkpt>
      <trkpt lat="53.99633" lon="14.64948">
        <ele>37.58282</ele>
        <time>2024-07-27T08:56:10.559Z</time>
      </trkpt>
      <trkpt lat="53.99639" lon="14.64961">
        <ele>37.607105</ele>
        <time>2024-07-27T08:56:12.548Z</time>
      </trkpt>
      <trkpt lat="53.99644" lon="14.64976">
        <ele>37.632467</ele>
        <time>2024-07-27T08:56:14.579Z</time>
      </trkpt>
      <trkpt lat="53.9965" lon="14.6499">
        <ele>37.657962</ele>
        <time>2024-07-27T08:56:16.584Z</time>
      </trkpt>
      <trkpt lat="53.99656" lon="14.65005">
        <ele>37.684904</ele>
        <time>2024-07-27T08:56:18.580Z</time>
      </trkpt>
      <trkpt lat="53.99664" lon="14.65018">
        <ele>37.71222</ele>
        <time>2024-07-27T08:56:20.577Z</time>
      </trkpt>
      <trkpt lat="53.99671" lon="14.65032">
        <ele>37.740535</ele>
        <time>2024-07-27T08:56:22.581Z</time>
      </trkpt>
      <trkpt lat="53.99678" lon="14.65046">
        <ele>37.768789</ele>
        <time>2024-07-27T08:56:24.557Z</time>
      </trkpt>
      <trkpt lat="53.99685" lon="14.6506">
        <ele>37.795268</ele>
        <time>2024-07-27T08:56:26.561Z</time>
      </trkpt>
      <trkpt lat="53.99691" lon="14.65073">
        <ele>37.820462</ele>
        <time>2024-07-27T08:56:28.574Z</time>
      </trkpt>
      <trkpt lat="53.99699" lon="14.65085">
        <ele>37.846465</ele>
        <time>2024-07-27T08:56:30.561Z</time>
      </trkpt>
      <trkpt lat="53.99705" lon="14.65098">
        <ele>37.871597</ele>
        <time>2024-07-27T08:56:32.561Z</time>
      </trkpt>
      <trkpt lat="53.99712" lon="14.65111">
        <ele>37.896672</ele>
        <time>2024-07-27T08:56:34.568Z</time>
      </trkpt>
      <trkpt lat="53.99719" lon="14.65123">
        <ele>37.921652</ele>
        <time>2024-07-27T08:56:36.568Z</time>
      </trkpt>
      <trkpt lat="53.99725" lon="14.65136">
        <ele>37.947399</ele>
        <time>2024-07-27T08:56:38.576Z</time>
      </trkpt>
      <trkpt lat="53.99731" lon="14.6515">
        <ele>38.014424</ele>
        <time>2024-07-27T08:56:40.562Z</time>
      </trkpt>
      <trkpt lat="53.99738" lon="14.65164">
        <ele>38.128079</ele>
        <time>2024-07-27T08:56:42.562Z</time>
      </trkpt>
      <trkpt lat="53.99743" lon="14.65179">
        <ele>38.243106</ele>
        <time>2024-07-27T08:56:44.542Z</time>
      </trkpt>
      <trkpt lat="53.99748" lon="14.65194">
        <ele>38.352237</ele>
        <time>2024-07-27T08:56:46.564Z</time>
      </trkpt>
      <trkpt lat="53.99751" lon="14.6521">
        <ele>38.463171</ele>
        <time>2024-07-27T08:56:48.549Z</time>
      </trkpt>
      <trkpt lat="53.99756" lon="14.65232">
        <ele>38.616571</ele>
        <time>2024-07-27T08:56:51.565Z</time>
      </trkpt>
      <trkpt lat="53.99758" lon="14.65248">
        <ele>38.721971</ele>
        <time>2024-07-27T08:56:53.559Z</time>
      </trkpt>
      <trkpt lat="53.99761" lon="14.65266">
        <ele>38.840615</ele>
        <time>2024-07-27T08:56:55.567Z</time>
      </trkpt>
      <trkpt lat="53.99763" lon="14.65283">
        <ele>38.954147</ele>
        <time>2024-07-27T08:56:57.561Z</time>
      </trkpt>
      <trkpt lat="53.99764" lon="14.653">
        <ele>39.062586</ele>
        <time>2024-07-27T08:56:59.581Z</time>
      </trkpt>
      <trkpt lat="53.99765" lon="14.65317">
        <ele>39.175149</ele>
        <time>2024-07-27T08:57:01.564Z</time>
      </trkpt>
      <trkpt lat="53.99766" lon="14.65333">
        <ele>39.280515</ele>
        <time>2024-07-27T08:57:03.562Z</time>
      </trkpt>
      <trkpt lat="53.99766" lon="14.6535">
        <ele>39.386989</ele>
        <time>2024-07-27T08:57:05.560Z</time>
      </trkpt>
      <trkpt lat="53.99767" lon="14.65366">
        <ele>39.490616</ele>
        <time>2024-07-27T08:57:07.560Z</time>
      </trkpt>
      <trkpt lat="53.99767" lon="14.65382">
        <ele>39.596816</ele>
        <time>2024-07-27T08:57:09.577Z</time>
      </trkpt>
      <trkpt lat="53.99766" lon="14.65398">
        <ele>39.700149</ele>
        <time>2024-07-27T08:57:11.576Z</time>
      </trkpt>
      <trkpt lat="53.99764" lon="14.65414">
        <ele>39.808064</ele>
        <time>2024-07-27T08:57:13.578Z</time>
      </trkpt>
      <trkpt lat="53.99762" lon="14.6543">
        <ele>39.914434</ele>
        <time>2024-07-27T08:57:15.561Z</time>
      </trkpt>
      <trkpt lat="53.9976" lon="14.65447">
        <ele>39.876417</ele>
        <time>2024-07-27T08:57:17.564Z</time>
      </trkpt>
      <trkpt lat="53.99759" lon="14.65465">
        <ele>39.785126</ele>
        <time>2024-07-27T08:57:19.563Z</time>
      </trkpt>
      <trkpt lat="53.99757" lon="14.65483">
        <ele>39.693307</ele>
        <time>2024-07-27T08:57:21.563Z</time>
      </trkpt>
      <trkpt lat="53.99755" lon="14.655">
        <ele>39.60383</ele>
        <time>2024-07-27T08:57:23.563Z</time>
      </trkpt>
      <trkpt lat="53.99753" lon="14.65517">
        <ele>39.513366</ele>
        <time>2024-07-27T08:57:25.570Z</time>
      </trkpt>
      <trkpt lat="53.99751" lon="14.65535">
        <ele>39.4227</ele>
        <time>2024-07-27T08:57:27.567Z</time>
      </trkpt>
      <trkpt lat="53.9975" lon="14.65552">
        <ele>39.334448</ele>
        <time>2024-07-27T08:57:29.574Z</time>
      </trkpt>
      <trkpt lat="53.99749" lon="14.65569">
        <ele>39.246009</ele>
        <time>2024-07-27T08:57:31.566Z</time>
      </trkpt>
      <trkpt lat="53.99748" lon="14.65587">
        <ele>39.155117</ele>
        <time>2024-07-27T08:57:33.565Z</time>
      </trkpt>
      <trkpt lat="53.99746" lon="14.65604">
        <ele>39.066318</ele>
        <time>2024-07-27T08:57:35.572Z</time>
      </trkpt>
      <trkpt lat="53.99745" lon="14.65621">
        <ele>38.97666</ele>
        <time>2024-07-27T08:57:37.574Z</time>
      </trkpt>
      <trkpt lat="53.99743" lon="14.65638">
        <ele>38.889537</ele>
        <time>2024-07-27T08:57:39.567Z</time>
      </trkpt>
      <trkpt lat="53.99742" lon="14.65655">
        <ele>38.80331</ele>
        <time>2024-07-27T08:57:41.561Z</time>
      </trkpt>
      <trkpt lat="53.9974" lon="14.65671">
        <ele>38.718533</ele>
        <time>2024-07-27T08:57:43.568Z</time>
      </trkpt>
      <trkpt lat="53.99739" lon="14.65688">
        <ele>38.629586</ele>
        <time>2024-07-27T08:57:45.560Z</time>
      </trkpt>
      <trkpt lat="53.99738" lon="14.65705">
        <ele>38.545211</ele>
        <time>2024-07-27T08:57:47.569Z</time>
      </trkpt>
      <trkpt lat="53.99736" lon="14.65721">
        <ele>38.458594</ele>
        <time>2024-07-27T08:57:49.560Z</time>
      </trkpt>
      <trkpt lat="53.99734" lon="14.65738">
        <ele>38.373199</ele>
        <time>2024-07-27T08:57:51.574Z</time>
      </trkpt>
      <trkpt lat="53.99732" lon="14.65755">
        <ele>38.30724</ele>
        <time>2024-07-27T08:57:53.583Z</time>
      </trkpt>
      <trkpt lat="53.99731" lon="14.65773">
        <ele>38.23889</ele>
        <time>2024-07-27T08:57:55.565Z</time>
      </trkpt>
      <trkpt lat="53.9973" lon="14.65791">
        <ele>38.172359</ele>
        <time>2024-07-27T08:57:57.563Z</time>
      </trkpt>
      <trkpt lat="53.9973" lon="14.65808">
        <ele>38.10921</ele>
        <time>2024-07-27T08:57:59.557Z</time>
      </trkpt>
      <trkpt lat="53.99728" lon="14.65825">
        <ele>38.04202</ele>
        <time>2024-07-27T08:58:01.579Z</time>
      </trkpt>
      <trkpt lat="53.99726" lon="14.65841">
        <ele>37.979883</ele>
        <time>2024-07-27T08:58:03.575Z</time>
      </trkpt>
      <trkpt lat="53.99724" lon="14.65859">
        <ele>37.912655</ele>
        <time>2024-07-27T08:58:05.578Z</time>
      </trkpt>
      <trkpt lat="53.99721" lon="14.65876">
        <ele>37.846813</ele>
        <time>2024-07-27T08:58:07.564Z</time>
      </trkpt>
      <trkpt lat="53.99719" lon="14.65893">
        <ele>37.780332</ele>
        <time>2024-07-27T08:58:09.540Z</time>
      </trkpt>
      <trkpt lat="53.99717" lon="14.6591">
        <ele>37.713116</ele>
        <time>2024-07-27T08:58:11.570Z</time>
      </trkpt>
      <trkpt lat="53.99714" lon="14.65927">
        <ele>37.649419</ele>
        <time>2024-07-27T08:58:13.564Z</time>
      </trkpt>
      <trkpt lat="53.99712" lon="14.65944">
        <ele>37.58346</ele>
        <time>2024-07-27T08:58:15.566Z</time>
      </trkpt>
      <trkpt lat="53.99711" lon="14.65962">
        <ele>37.515493</ele>
        <time>2024-07-27T08:58:17.543Z</time>
      </trkpt>
      <trkpt lat="53.99709" lon="14.65979">
        <ele>37.448094</ele>
        <time>2024-07-27T08:58:19.568Z</time>
      </trkpt>
      <trkpt lat="53.99706" lon="14.65997">
        <ele>37.380293</ele>
        <time>2024-07-27T08:58:21.566Z</time>
      </trkpt>
      <trkpt lat="53.99704" lon="14.66013">
        <ele>37.317897</ele>
        <time>2024-07-27T08:58:23.587Z</time>
      </trkpt>
      <trkpt lat="53.99701" lon="14.6603">
        <ele>37.251692</ele>
        <time>2024-07-27T08:58:25.575Z</time>
      </trkpt>
      <trkpt lat="53.99699" lon="14.66046">
        <ele>37.23388</ele>
        <time>2024-07-27T08:58:27.566Z</time>
      </trkpt>
      <trkpt lat="53.99697" lon="14.66062">
        <ele>37.24902</ele>
        <time>2024-07-27T08:58:29.570Z</time>
      </trkpt>
      <trkpt lat="53.99695" lon="14.66079">
        <ele>37.264702</ele>
        <time>2024-07-27T08:58:31.565Z</time>
      </trkpt>
      <trkpt lat="53.99693" lon="14.66096">
        <ele>37.280173</ele>
        <time>2024-07-27T08:58:33.548Z</time>
      </trkpt>
      <trkpt lat="53.99691" lon="14.66113">
        <ele>37.295615</ele>
        <time>2024-07-27T08:58:35.564Z</time>
      </trkpt>
      <trkpt lat="53.99688" lon="14.66129">
        <ele>37.311494</ele>
        <time>2024-07-27T08:58:37.579Z</time>
      </trkpt>
      <trkpt lat="53.99686" lon="14.66148">
        <ele>37.328366</ele>
        <time>2024-07-27T08:58:39.579Z</time>
      </trkpt>
      <trkpt lat="53.99684" lon="14.66164">
        <ele>37.343894</ele>
        <time>2024-07-27T08:58:41.564Z</time>
      </trkpt>
      <trkpt lat="53.99682" lon="14.66182">
        <ele>37.360322</ele>
        <time>2024-07-27T08:58:43.574Z</time>
      </trkpt>
      <trkpt lat="53.99681" lon="14.662">
        <ele>37.377249</ele>
        <time>2024-07-27T08:58:45.581Z</time>
      </trkpt>
      <trkpt lat="53.9968" lon="14.66218">
        <ele>37.393605</ele>
        <time>2024-07-27T08:58:47.571Z</time>
      </trkpt>
      <trkpt lat="53.9968" lon="14.66236">
        <ele>37.409562</ele>
        <time>2024-07-27T08:58:49.570Z</time>
      </trkpt>
      <trkpt lat="53.99682" lon="14.66254">
        <ele>37.426397</ele>
        <time>2024-07-27T08:58:51.564Z</time>
      </trkpt>
      <trkpt lat="53.99684" lon="14.66271">
        <ele>37.442551</ele>
        <time>2024-07-27T08:58:53.567Z</time>
      </trkpt>
      <trkpt lat="53.99687" lon="14.66288">
        <ele>37.458461</ele>
        <time>2024-07-27T08:58:55.575Z</time>
      </trkpt>
      <trkpt lat="53.9969" lon="14.66304">
        <ele>37.473637</ele>
        <time>2024-07-27T08:58:57.571Z</time>
      </trkpt>
      <trkpt lat="53.99694" lon="14.6632">
        <ele>37.489503</ele>
        <time>2024-07-27T08:58:59.564Z</time>
      </trkpt>
      <trkpt lat="53.99698" lon="14.66336">
        <ele>37.505569</ele>
        <time>2024-07-27T08:59:01.589Z</time>
      </trkpt>
      <trkpt lat="53.99702" lon="14.66351">
        <ele>37.527872</ele>
        <time>2024-07-27T08:59:03.563Z</time>
      </trkpt>
      <trkpt lat="53.99705" lon="14.66366">
        <ele>37.547808</ele>
        <time>2024-07-27T08:59:05.581Z</time>
      </trkpt>
      <trkpt lat="53.99708" lon="14.6638">
        <ele>37.56773</ele>
        <time>2024-07-27T08:59:07.561Z</time>
      </trkpt>
      <trkpt lat="53.99712" lon="14.66397">
        <ele>37.590498</ele>
        <time>2024-07-27T08:59:09.560Z</time>
      </trkpt>
      <trkpt lat="53.99717" lon="14.66412">
        <ele>37.612148</ele>
        <time>2024-07-27T08:59:11.571Z</time>
      </trkpt>
      <trkpt lat="53.99721" lon="14.66427">
        <ele>37.633914</ele>
        <time>2024-07-27T08:59:13.571Z</time>
      </trkpt>
      <trkpt lat="53.99725" lon="14.66444">
        <ele>37.656717</ele>
        <time>2024-07-27T08:59:15.559Z</time>
      </trkpt>
      <trkpt lat="53.99728" lon="14.66459">
        <ele>37.678163</ele>
        <time>2024-07-27T08:59:17.559Z</time>
      </trkpt>
      <trkpt lat="53.99732" lon="14.66477">
        <ele>37.702246</ele>
        <time>2024-07-27T08:59:19.564Z</time>
      </trkpt>
      <trkpt lat="53.99736" lon="14.66493">
        <ele>37.724648</ele>
        <time>2024-07-27T08:59:21.563Z</time>
      </trkpt>
      <trkpt lat="53.9974" lon="14.66509">
        <ele>37.747773</ele>
        <time>2024-07-27T08:59:23.583Z</time>
      </trkpt>
      <trkpt lat="53.99743" lon="14.66526">
        <ele>37.77002</ele>
        <time>2024-07-27T08:59:25.578Z</time>
      </trkpt>
      <trkpt lat="53.99747" lon="14.66541">
        <ele>37.792228</ele>
        <time>2024-07-27T08:59:27.573Z</time>
      </trkpt>
      <trkpt lat="53.99751" lon="14.66559">
        <ele>37.816005</ele>
        <time>2024-07-27T08:59:29.575Z</time>
      </trkpt>
      <trkpt lat="53.99755" lon="14.66576">
        <ele>37.839452</ele>
        <time>2024-07-27T08:59:31.564Z</time>
      </trkpt>
      <trkpt lat="53.99759" lon="14.66593">
        <ele>37.863457</ele>
        <time>2024-07-27T08:59:33.552Z</time>
      </trkpt>
      <trkpt lat="53.99764" lon="14.66609">
        <ele>37.887076</ele>
        <time>2024-07-27T08:59:35.554Z</time>
      </trkpt>
      <trkpt lat="53.99768" lon="14.66627">
        <ele>37.959965</ele>
        <time>2024-07-27T08:59:37.563Z</time>
      </trkpt>
      <trkpt lat="53.99772" lon="14.66644">
        <ele>38.059775</ele>
        <time>2024-07-27T08:59:39.574Z</time>
      </trkpt>
      <trkpt lat="53.99775" lon="14.66661">
        <ele>38.160461</ele>
        <time>2024-07-27T08:59:41.552Z</time>
      </trkpt>
      <trkpt lat="53.99778" lon="14.66678">
        <ele>38.260475</ele>
        <time>2024-07-27T08:59:43.563Z</time>
      </trkpt>
      <trkpt lat="53.99782" lon="14.66695">
        <ele>38.36175</ele>
        <time>2024-07-27T08:59:45.560Z</time>
      </trkpt>
      <trkpt lat="53.99786" lon="14.66711">
        <ele>38.459272</ele>
        <time>2024-07-27T08:59:47.559Z</time>
      </trkpt>
      <trkpt lat="53.9979" lon="14.66727">
        <ele>38.557144</ele>
        <time>2024-07-27T08:59:49.558Z</time>
      </trkpt>
      <trkpt lat="53.99794" lon="14.66744">
        <ele>38.659717</ele>
        <time>2024-07-27T08:59:51.565Z</time>
      </trkpt>
      <trkpt lat="53.99798" lon="14.66761">
        <ele>38.761771</ele>
        <time>2024-07-27T08:59:53.562Z</time>
      </trkpt>
      <trkpt lat="53.99802" lon="14.66777">
        <ele>38.863841</ele>
        <time>2024-07-27T08:59:55.580Z</time>
      </trkpt>
      <trkpt lat="53.99806" lon="14.66794">
        <ele>38.965028</ele>
        <time>2024-07-27T08:59:57.568Z</time>
      </trkpt>
      <trkpt lat="53.9981" lon="14.66809">
        <ele>39.058987</ele>
        <time>2024-07-27T08:59:59.567Z</time>
      </trkpt>
      <trkpt lat="53.99814" lon="14.66825">
        <ele>39.156178</ele>
        <time>2024-07-27T09:00:01.565Z</time>
      </trkpt>
      <trkpt lat="53.99818" lon="14.66842">
        <ele>39.255808</ele>
        <time>2024-07-27T09:00:03.566Z</time>
      </trkpt>
      <trkpt lat="53.99822" lon="14.66858">
        <ele>39.355245</ele>
        <time>2024-07-27T09:00:05.567Z</time>
      </trkpt>
      <trkpt lat="53.99826" lon="14.66875">
        <ele>39.457421</ele>
        <time>2024-07-27T09:00:07.578Z</time>
      </trkpt>
      <trkpt lat="53.9983" lon="14.66892">
        <ele>39.556703</ele>
        <time>2024-07-27T09:00:09.564Z</time>
      </trkpt>
      <trkpt lat="53.99834" lon="14.66909">
        <ele>39.59801</ele>
        <time>2024-07-27T09:00:11.567Z</time>
      </trkpt>
      <trkpt lat="53.99838" lon="14.66925">
        <ele>39.560068</ele>
        <time>2024-07-27T09:00:13.570Z</time>
      </trkpt>
      <trkpt lat="53.99841" lon="14.66942">
        <ele>39.521987</ele>
        <time>2024-07-27T09:00:15.573Z</time>
      </trkpt>
      <trkpt lat="53.99845" lon="14.66959">
        <ele>39.482884</ele>
        <time>2024-07-27T09:00:17.560Z</time>
      </trkpt>
      <trkpt lat="53.9985" lon="14.66975">
        <ele>39.445611</ele>
        <time>2024-07-27T09:00:19.560Z</time>
      </trkpt>
      <trkpt lat="53.99853" lon="14.66991">
        <ele>39.40789</ele>
        <time>2024-07-27T09:00:21.564Z</time>
      </trkpt>
      <trkpt lat="53.99857" lon="14.67007">
        <ele>39.371963</ele>
        <time>2024-07-27T09:00:23.563Z</time>
      </trkpt>
      <trkpt lat="53.99861" lon="14.67023">
        <ele>39.335568</ele>
        <time>2024-07-27T09:00:25.553Z</time>
      </trkpt>
      <trkpt lat="53.99864" lon="14.67038">
        <ele>39.301673</ele>
        <time>2024-07-27T09:00:27.563Z</time>
      </trkpt>
      <trkpt lat="53.99868" lon="14.67052">
        <ele>39.268509</ele>
        <time>2024-07-27T09:00:29.561Z</time>
      </trkpt>
      <trkpt lat="53.9987" lon="14.67068">
        <ele>39.233925</ele>
        <time>2024-07-27T09:00:31.564Z</time>
      </trkpt>
      <trkpt lat="53.99874" lon="14.67083">
        <ele>39.19858</ele>
        <time>2024-07-27T09:00:33.582Z</time>
      </trkpt>
      <trkpt lat="53.99877" lon="14.67098">
        <ele>39.164761</ele>
        <time>2024-07-27T09:00:35.564Z</time>
      </trkpt>
      <trkpt lat="53.9988" lon="14.67114">
        <ele>39.129491</ele>
        <time>2024-07-27T09:00:37.566Z</time>
      </trkpt>
      <trkpt lat="53.99884" lon="14.67129">
        <ele>39.094292</ele>
        <time>2024-07-27T09:00:39.558Z</time>
      </trkpt>
      <trkpt lat="53.99888" lon="14.67144">
        <ele>39.059951</ele>
        <time>2024-07-27T09:00:41.566Z</time>
      </trkpt>
      <trkpt lat="53.99892" lon="14.67158">
        <ele>39.025568</ele>
        <time>2024-07-27T09:00:43.548Z</time>
      </trkpt>
      <trkpt lat="53.99896" lon="14.67174">
        <ele>38.988109</ele>
        <time>2024-07-27T09:00:45.562Z</time>
      </trkpt>
      <trkpt lat="53.999" lon="14.6719">
        <ele>38.899441</ele>
        <time>2024-07-27T09:00:47.564Z</time>
      </trkpt>
      <trkpt lat="53.99904" lon="14.67206">
        <ele>38.692648</ele>
        <time>2024-07-27T09:00:49.562Z</time>
      </trkpt>
      <trkpt lat="53.99907" lon="14.67221">
        <ele>38.487444</ele>
        <time>2024-07-27T09:00:51.577Z</time>
      </trkpt>
      <trkpt lat="53.99911" lon="14.67237">
        <ele>38.285132</ele>
        <time>2024-07-27T09:00:53.584Z</time>
      </trkpt>
      <trkpt lat="53.99915" lon="14.67252">
        <ele>38.086361</ele>
        <time>2024-07-27T09:00:55.566Z</time>
      </trkpt>
      <trkpt lat="53.99918" lon="14.67267">
        <ele>37.889411</ele>
        <time>2024-07-27T09:00:57.580Z</time>
      </trkpt>
      <trkpt lat="53.99922" lon="14.67282">
        <ele>37.682072</ele>
        <time>2024-07-27T09:00:59.581Z</time>
      </trkpt>
      <trkpt lat="53.99926" lon="14.67298">
        <ele>37.474226</ele>
        <time>2024-07-27T09:01:01.564Z</time>
      </trkpt>
      <trkpt lat="53.9993" lon="14.67315">
        <ele>37.256506</ele>
        <time>2024-07-27T09:01:03.570Z</time>
      </trkpt>
      <trkpt lat="53.99934" lon="14.67331">
        <ele>37.036862</ele>
        <time>2024-07-27T09:01:05.566Z</time>
      </trkpt>
      <trkpt lat="53.99937" lon="14.67347">
        <ele>36.836193</ele>
        <time>2024-07-27T09:01:07.568Z</time>
      </trkpt>
      <trkpt lat="53.99941" lon="14.67362">
        <ele>36.636947</ele>
        <time>2024-07-27T09:01:09.564Z</time>
      </trkpt>
      <trkpt lat="53.99945" lon="14.67377">
        <ele>36.431277</ele>
        <time>2024-07-27T09:01:11.564Z</time>
      </trkpt>
      <trkpt lat="53.99949" lon="14.67393">
        <ele>36.227978</ele>
        <time>2024-07-27T09:01:13.561Z</time>
      </trkpt>
      <trkpt lat="53.99952" lon="14.67408">
        <ele>36.029979</ele>
        <time>2024-07-27T09:01:15.566Z</time>
      </trkpt>
      <trkpt lat="53.99956" lon="14.67423">
        <ele>35.825544</ele>
        <time>2024-07-27T09:01:17.578Z</time>
      </trkpt>
      <trkpt lat="53.99959" lon="14.67439">
        <ele>35.625147</ele>
        <time>2024-07-27T09:01:19.580Z</time>
      </trkpt>
      <trkpt lat="53.99962" lon="14.67454">
        <ele>35.429764</ele>
        <time>2024-07-27T09:01:21.570Z</time>
      </trkpt>
      <trkpt lat="53.99966" lon="14.67469">
        <ele>35.235111</ele>
        <time>2024-07-27T09:01:23.571Z</time>
      </trkpt>
      <trkpt lat="53.99969" lon="14.67484">
        <ele>35.316955</ele>
        <time>2024-07-27T09:01:25.569Z</time>
      </trkpt>
      <trkpt lat="53.99973" lon="14.67499">
        <ele>35.403149</ele>
        <time>2024-07-27T09:01:27.581Z</time>
      </trkpt>
      <trkpt lat="53.99978" lon="14.6752">
        <ele>35.527725</ele>
        <time>2024-07-27T09:01:30.560Z</time>
      </trkpt>
      <trkpt lat="53.99981" lon="14.67535">
        <ele>35.613414</ele>
        <time>2024-07-27T09:01:32.560Z</time>
      </trkpt>
      <trkpt lat="53.99984" lon="14.67549">
        <ele>35.698597</ele>
        <time>2024-07-27T09:01:34.563Z</time>
      </trkpt>
      <trkpt lat="53.99988" lon="14.67564">
        <ele>35.785634</ele>
        <time>2024-07-27T09:01:36.563Z</time>
      </trkpt>
      <trkpt lat="53.99992" lon="14.67579">
        <ele>35.871515</ele>
        <time>2024-07-27T09:01:38.574Z</time>
      </trkpt>
      <trkpt lat="53.99995" lon="14.67594">
        <ele>35.957043</ele>
        <time>2024-07-27T09:01:40.577Z</time>
      </trkpt>
      <trkpt lat="53.99999" lon="14.67608">
        <ele>36.043284</ele>
        <time>2024-07-27T09:01:42.562Z</time>
      </trkpt>
      <trkpt lat="54.00002" lon="14.67623">
        <ele>36.131687</ele>
        <time>2024-07-27T09:01:44.570Z</time>
      </trkpt>
      <trkpt lat="54.00007" lon="14.67645">
        <ele>36.256292</ele>
        <time>2024-07-27T09:01:47.568Z</time>
      </trkpt>
      <trkpt lat="54.00011" lon="14.67659">
        <ele>36.342153</ele>
        <time>2024-07-27T09:01:49.564Z</time>
      </trkpt>
      <trkpt lat="54.00014" lon="14.67675">
        <ele>36.430047</ele>
        <time>2024-07-27T09:01:51.565Z</time>
      </trkpt>
      <trkpt lat="54.00018" lon="14.6769">
        <ele>36.520084</ele>
        <time>2024-07-27T09:01:53.556Z</time>
      </trkpt>
      <trkpt lat="54.00022" lon="14.67704">
        <ele>36.608342</ele>
        <time>2024-07-27T09:01:55.565Z</time>
      </trkpt>
      <trkpt lat="54.00028" lon="14.67719">
        <ele>36.70281</ele>
        <time>2024-07-27T09:01:57.567Z</time>
      </trkpt>
      <trkpt lat="54.00033" lon="14.67733">
        <ele>36.793075</ele>
        <time>2024-07-27T09:01:59.576Z</time>
      </trkpt>
      <trkpt lat="54.00037" lon="14.67749">
        <ele>36.889725</ele>
        <time>2024-07-27T09:02:01.561Z</time>
      </trkpt>
      <trkpt lat="54.00041" lon="14.67765">
        <ele>36.881015</ele>
        <time>2024-07-27T09:02:03.568Z</time>
      </trkpt>
      <trkpt lat="54.00044" lon="14.6778">
        <ele>36.872455</ele>
        <time>2024-07-27T09:02:05.555Z</time>
      </trkpt>
      <trkpt lat="54.00045" lon="14.67797">
        <ele>36.863543</ele>
        <time>2024-07-27T09:02:07.560Z</time>
      </trkpt>
      <trkpt lat="54.00048" lon="14.67814">
        <ele>36.854356</ele>
        <time>2024-07-27T09:02:09.563Z</time>
      </trkpt>
      <trkpt lat="54.0005" lon="14.67831">
        <ele>36.845387</ele>
        <time>2024-07-27T09:02:11.568Z</time>
      </trkpt>
      <trkpt lat="54.00053" lon="14.67846">
        <ele>36.836753</ele>
        <time>2024-07-27T09:02:13.567Z</time>
      </trkpt>
      <trkpt lat="54.00057" lon="14.67861">
        <ele>36.828164</ele>
        <time>2024-07-27T09:02:15.563Z</time>
      </trkpt>
      <trkpt lat="54.00061" lon="14.67875">
        <ele>36.82008</ele>
        <time>2024-07-27T09:02:17.565Z</time>
      </trkpt>
      <trkpt lat="54.00065" lon="14.67889">
        <ele>36.81176</ele>
        <time>2024-07-27T09:02:19.558Z</time>
      </trkpt>
      <trkpt lat="54.0007" lon="14.67912">
        <ele>36.799077</ele>
        <time>2024-07-27T09:02:22.567Z</time>
      </trkpt>
      <trkpt lat="54.00074" lon="14.67927">
        <ele>36.790508</ele>
        <time>2024-07-27T09:02:24.550Z</time>
      </trkpt>
      <trkpt lat="54.00077" lon="14.67944">
        <ele>36.781135</ele>
        <time>2024-07-27T09:02:26.563Z</time>
      </trkpt>
      <trkpt lat="54.00081" lon="14.67959">
        <ele>36.772468</ele>
        <time>2024-07-27T09:02:28.570Z</time>
      </trkpt>
      <trkpt lat="54.00085" lon="14.67974">
        <ele>36.76401</ele>
        <time>2024-07-27T09:02:30.575Z</time>
      </trkpt>
      <trkpt lat="54.00088" lon="14.67988">
        <ele>36.755834</ele>
        <time>2024-07-27T09:02:32.565Z</time>
      </trkpt>
      <trkpt lat="54.00091" lon="14.68005">
        <ele>36.746802</ele>
        <time>2024-07-27T09:02:34.559Z</time>
      </trkpt>
      <trkpt lat="54.00096" lon="14.68027">
        <ele>36.733973</ele>
        <time>2024-07-27T09:02:37.569Z</time>
      </trkpt>
      <trkpt lat="54.00099" lon="14.68043">
        <ele>36.701666</ele>
        <time>2024-07-27T09:02:39.566Z</time>
      </trkpt>
      <trkpt lat="54.00104" lon="14.68058">
        <ele>36.63266</ele>
        <time>2024-07-27T09:02:41.574Z</time>
      </trkpt>
      <trkpt lat="54.00107" lon="14.68073">
        <ele>36.569878</ele>
        <time>2024-07-27T09:02:43.568Z</time>
      </trkpt>
      <trkpt lat="54.00112" lon="14.68088">
        <ele>36.501554</ele>
        <time>2024-07-27T09:02:45.556Z</time>
      </trkpt>
      <trkpt lat="54.00117" lon="14.68108">
        <ele>36.413024</ele>
        <time>2024-07-27T09:02:48.572Z</time>
      </trkpt>
      <trkpt lat="54.0012" lon="14.68126">
        <ele>36.337871</ele>
        <time>2024-07-27T09:02:51.565Z</time>
      </trkpt>
      <trkpt lat="54.00123" lon="14.68141">
        <ele>36.274702</ele>
        <time>2024-07-27T09:02:56.567Z</time>
      </trkpt>
      <trkpt lat="54.00127" lon="14.68159">
        <ele>36.200069</ele>
        <time>2024-07-27T09:03:00.552Z</time>
      </trkpt>
      <trkpt lat="54.00131" lon="14.68174">
        <ele>36.133769</ele>
        <time>2024-07-27T09:03:03.563Z</time>
      </trkpt>
      <trkpt lat="54.00135" lon="14.6819">
        <ele>36.064034</ele>
        <time>2024-07-27T09:03:06.564Z</time>
      </trkpt>
      <trkpt lat="54.00139" lon="14.68206">
        <ele>35.996366</ele>
        <time>2024-07-27T09:03:09.566Z</time>
      </trkpt>
      <trkpt lat="54.00143" lon="14.68223">
        <ele>35.922329</ele>
        <time>2024-07-27T09:03:12.565Z</time>
      </trkpt>
      <trkpt lat="54.00148" lon="14.68239">
        <ele>35.848258</ele>
        <time>2024-07-27T09:03:15.544Z</time>
      </trkpt>
      <trkpt lat="54.00152" lon="14.68259">
        <ele>35.765258</ele>
        <time>2024-07-27T09:03:18.585Z</time>
      </trkpt>
      <trkpt lat="54.00156" lon="14.68277">
        <ele>35.686739</ele>
        <time>2024-07-27T09:03:21.584Z</time>
      </trkpt>
      <trkpt lat="54.00161" lon="14.68297">
        <ele>35.599319</ele>
        <time>2024-07-27T09:03:24.562Z</time>
      </trkpt>
      <trkpt lat="54.00164" lon="14.68312">
        <ele>35.537359</ele>
        <time>2024-07-27T09:03:26.564Z</time>
      </trkpt>
      <trkpt lat="54.00169" lon="14.68331">
        <ele>35.49965</ele>
        <time>2024-07-27T09:03:29.569Z</time>
      </trkpt>
      <trkpt lat="54.00174" lon="14.68352">
        <ele>35.491176</ele>
        <time>2024-07-27T09:03:32.583Z</time>
      </trkpt>
      <trkpt lat="54.00178" lon="14.68366">
        <ele>35.485191</ele>
        <time>2024-07-27T09:03:34.565Z</time>
      </trkpt>
      <trkpt lat="54.00181" lon="14.68381">
        <ele>35.478765</ele>
        <time>2024-07-27T09:03:36.580Z</time>
      </trkpt>
      <trkpt lat="54.00185" lon="14.68402">
        <ele>35.470555</ele>
        <time>2024-07-27T09:03:39.582Z</time>
      </trkpt>
      <trkpt lat="54.0019" lon="14.68423">
        <ele>35.461653</ele>
        <time>2024-07-27T09:03:42.565Z</time>
      </trkpt>
      <trkpt lat="54.00195" lon="14.68443">
        <ele>35.453305</ele>
        <time>2024-07-27T09:03:45.582Z</time>
      </trkpt>
      <trkpt lat="54.002" lon="14.68463">
        <ele>35.445009</ele>
        <time>2024-07-27T09:03:48.582Z</time>
      </trkpt>
      <trkpt lat="54.00204" lon="14.68482">
        <ele>35.437219</ele>
        <time>2024-07-27T09:03:51.564Z</time>
      </trkpt>
      <trkpt lat="54.00209" lon="14.68501">
        <ele>35.429295</ele>
        <time>2024-07-27T09:03:54.559Z</time>
      </trkpt>
      <trkpt lat="54.00213" lon="14.68521">
        <ele>35.42113</ele>
        <time>2024-07-27T09:03:57.573Z</time>
      </trkpt>
      <trkpt lat="54.00218" lon="14.68542">
        <ele>35.412287</ele>
        <time>2024-07-27T09:04:00.560Z</time>
      </trkpt>
      <trkpt lat="54.00223" lon="14.68562">
        <ele>35.404018</ele>
        <time>2024-07-27T09:04:03.559Z</time>
      </trkpt>
      <trkpt lat="54.00228" lon="14.68583">
        <ele>35.39545</ele>
        <time>2024-07-27T09:04:06.567Z</time>
      </trkpt>
      <trkpt lat="54.00232" lon="14.68601">
        <ele>35.387955</ele>
        <time>2024-07-27T09:04:09.566Z</time>
      </trkpt>
      <trkpt lat="54.00235" lon="14.68621">
        <ele>35.461031</ele>
        <time>2024-07-27T09:04:12.561Z</time>
      </trkpt>
      <trkpt lat="54.00239" lon="14.6864">
        <ele>35.542711</ele>
        <time>2024-07-27T09:04:15.557Z</time>
      </trkpt>
      <trkpt lat="54.00244" lon="14.68659">
        <ele>35.626004</ele>
        <time>2024-07-27T09:04:18.580Z</time>
      </trkpt>
      <trkpt lat="54.00249" lon="14.68676">
        <ele>35.702228</ele>
        <time>2024-07-27T09:04:21.560Z</time>
      </trkpt>
      <trkpt lat="54.00254" lon="14.68695">
        <ele>35.784112</ele>
        <time>2024-07-27T09:04:24.574Z</time>
      </trkpt>
      <trkpt lat="54.00259" lon="14.68715">
        <ele>35.870522</ele>
        <time>2024-07-27T09:04:27.570Z</time>
      </trkpt>
      <trkpt lat="54.00263" lon="14.68735">
        <ele>35.957278</ele>
        <time>2024-07-27T09:04:30.565Z</time>
      </trkpt>
      <trkpt lat="54.00266" lon="14.6875">
        <ele>36.019072</ele>
        <time>2024-07-27T09:04:32.560Z</time>
      </trkpt>
      <trkpt lat="54.00271" lon="14.68771">
        <ele>36.10944</ele>
        <time>2024-07-27T09:04:35.567Z</time>
      </trkpt>
      <trkpt lat="54.00277" lon="14.68791">
        <ele>36.199356</ele>
        <time>2024-07-27T09:04:38.589Z</time>
      </trkpt>
      <trkpt lat="54.00281" lon="14.68812">
        <ele>36.290583</ele>
        <time>2024-07-27T09:04:41.571Z</time>
      </trkpt>
      <trkpt lat="54.00286" lon="14.68834">
        <ele>36.381304</ele>
        <time>2024-07-27T09:04:44.567Z</time>
      </trkpt>
      <trkpt lat="54.0029" lon="14.68848">
        <ele>36.444156</ele>
        <time>2024-07-27T09:04:46.550Z</time>
      </trkpt>
      <trkpt lat="54.00293" lon="14.68863">
        <ele>36.507814</ele>
        <time>2024-07-27T09:04:48.559Z</time>
      </trkpt>
      <trkpt lat="54.00297" lon="14.68878">
        <ele>36.572526</ele>
        <time>2024-07-27T09:04:50.562Z</time>
      </trkpt>
      <trkpt lat="54.00302" lon="14.68899">
        <ele>36.697283</ele>
        <time>2024-07-27T09:04:53.565Z</time>
      </trkpt>
      <trkpt lat="54.00306" lon="14.68921">
        <ele>36.852559</ele>
        <time>2024-07-27T09:04:56.565Z</time>
      </trkpt>
      <trkpt lat="54.0031" lon="14.68935">
        <ele>36.956582</ele>
        <time>2024-07-27T09:04:58.581Z</time>
      </trkpt>
      <trkpt lat="54.00312" lon="14.6895">
        <ele>37.061933</ele>
        <time>2024-07-27T09:05:00.559Z</time>
      </trkpt>
      <trkpt lat="54.00318" lon="14.68971">
        <ele>37.219596</ele>
        <time>2024-07-27T09:05:03.562Z</time>
      </trkpt>
      <trkpt lat="54.00323" lon="14.68992">
        <ele>37.371178</ele>
        <time>2024-07-27T09:05:06.552Z</time>
      </trkpt>
      <trkpt lat="54.00328" lon="14.69012">
        <ele>37.521431</ele>
        <time>2024-07-27T09:05:09.572Z</time>
      </trkpt>
      <trkpt lat="54.00334" lon="14.69033">
        <ele>37.675229</ele>
        <time>2024-07-27T09:05:12.564Z</time>
      </trkpt>
      <trkpt lat="54.00339" lon="14.69054">
        <ele>37.827863</ele>
        <time>2024-07-27T09:05:15.567Z</time>
      </trkpt>
      <trkpt lat="54.00343" lon="14.69075">
        <ele>37.976944</ele>
        <time>2024-07-27T09:05:18.585Z</time>
      </trkpt>
      <trkpt lat="54.00348" lon="14.69096">
        <ele>38.127691</ele>
        <time>2024-07-27T09:05:21.568Z</time>
      </trkpt>
      <trkpt lat="54.00353" lon="14.69115">
        <ele>38.269488</ele>
        <time>2024-07-27T09:05:24.574Z</time>
      </trkpt>
      <trkpt lat="54.00357" lon="14.69134">
        <ele>38.409162</ele>
        <time>2024-07-27T09:05:27.566Z</time>
      </trkpt>
      <trkpt lat="54.00362" lon="14.69153">
        <ele>38.54736</ele>
        <time>2024-07-27T09:05:30.565Z</time>
      </trkpt>
      <trkpt lat="54.00366" lon="14.69173">
        <ele>38.67682</ele>
        <time>2024-07-27T09:05:33.571Z</time>
      </trkpt>
      <trkpt lat="54.00371" lon="14.69191">
        <ele>38.692907</ele>
        <time>2024-07-27T09:05:36.558Z</time>
      </trkpt>
      <trkpt lat="54.00377" lon="14.69208">
        <ele>38.708391</ele>
        <time>2024-07-27T09:05:39.566Z</time>
      </trkpt>
      <trkpt lat="54.00382" lon="14.69225">
        <ele>38.72358</ele>
        <time>2024-07-27T09:05:42.565Z</time>
      </trkpt>
      <trkpt lat="54.00386" lon="14.69244">
        <ele>38.73957</ele>
        <time>2024-07-27T09:05:45.577Z</time>
      </trkpt>
      <trkpt lat="54.0039" lon="14.69265">
        <ele>38.756368</ele>
        <time>2024-07-27T09:05:48.576Z</time>
      </trkpt>
      <trkpt lat="54.00394" lon="14.69284">
        <ele>38.772436</ele>
        <time>2024-07-27T09:05:51.561Z</time>
      </trkpt>
      <trkpt lat="54.00398" lon="14.69303">
        <ele>38.788134</ele>
        <time>2024-07-27T09:05:54.563Z</time>
      </trkpt>
      <trkpt lat="54.00402" lon="14.6932">
        <ele>38.802706</ele>
        <time>2024-07-27T09:05:57.580Z</time>
      </trkpt>
      <trkpt lat="54.00405" lon="14.69338">
        <ele>38.817557</ele>
        <time>2024-07-27T09:06:00.564Z</time>
      </trkpt>
      <trkpt lat="54.0041" lon="14.69358">
        <ele>38.834515</ele>
        <time>2024-07-27T09:06:03.570Z</time>
      </trkpt>
      <trkpt lat="54.00412" lon="14.69376">
        <ele>38.84878</ele>
        <time>2024-07-27T09:06:06.579Z</time>
      </trkpt>
      <trkpt lat="54.00415" lon="14.69392">
        <ele>38.861913</ele>
        <time>2024-07-27T09:06:09.554Z</time>
      </trkpt>
      <trkpt lat="54.00418" lon="14.69409">
        <ele>38.875729</ele>
        <time>2024-07-27T09:06:12.571Z</time>
      </trkpt>
      <trkpt lat="54.00422" lon="14.69425">
        <ele>38.889407</ele>
        <time>2024-07-27T09:06:15.562Z</time>
      </trkpt>
      <trkpt lat="54.00426" lon="14.69442">
        <ele>38.903497</ele>
        <time>2024-07-27T09:06:18.578Z</time>
      </trkpt>
      <trkpt lat="54.0043" lon="14.69461">
        <ele>38.930683</ele>
        <time>2024-07-27T09:06:21.564Z</time>
      </trkpt>
      <trkpt lat="54.00434" lon="14.6948">
        <ele>38.991747</ele>
        <time>2024-07-27T09:06:24.574Z</time>
      </trkpt>
      <trkpt lat="54.00439" lon="14.69498">
        <ele>39.051966</ele>
        <time>2024-07-27T09:06:27.551Z</time>
      </trkpt>
      <trkpt lat="54.00442" lon="14.69515">
        <ele>39.104957</ele>
        <time>2024-07-27T09:06:30.580Z</time>
      </trkpt>
      <trkpt lat="54.00444" lon="14.6953">
        <ele>39.153548</ele>
        <time>2024-07-27T09:06:34.563Z</time>
      </trkpt>
      <trkpt lat="54.00448" lon="14.69547">
        <ele>39.208893</ele>
        <time>2024-07-27T09:06:38.583Z</time>
      </trkpt>
      <trkpt lat="54.00451" lon="14.69564">
        <ele>39.261306</ele>
        <time>2024-07-27T09:06:41.557Z</time>
      </trkpt>
      <trkpt lat="54.00454" lon="14.69579">
        <ele>39.309629</ele>
        <time>2024-07-27T09:06:44.560Z</time>
      </trkpt>
      <trkpt lat="54.00457" lon="14.69594">
        <ele>39.360769</ele>
        <time>2024-07-27T09:06:47.575Z</time>
      </trkpt>
      <trkpt lat="54.0046" lon="14.6961">
        <ele>39.411571</ele>
        <time>2024-07-27T09:06:50.563Z</time>
      </trkpt>
      <trkpt lat="54.00464" lon="14.69626">
        <ele>39.462539</ele>
        <time>2024-07-27T09:06:53.572Z</time>
      </trkpt>
      <trkpt lat="54.00467" lon="14.6964">
        <ele>39.509868</ele>
        <time>2024-07-27T09:06:56.573Z</time>
      </trkpt>
      <trkpt lat="54.0047" lon="14.69656">
        <ele>39.559031</ele>
        <time>2024-07-27T09:06:59.571Z</time>
      </trkpt>
      <trkpt lat="54.00472" lon="14.69672">
        <ele>39.609984</ele>
        <time>2024-07-27T09:07:02.563Z</time>
      </trkpt>
      <trkpt lat="54.00476" lon="14.69688">
        <ele>39.660727</ele>
        <time>2024-07-27T09:07:05.567Z</time>
      </trkpt>
      <trkpt lat="54.00479" lon="14.69704">
        <ele>39.713306</ele>
        <time>2024-07-27T09:07:08.564Z</time>
      </trkpt>
      <trkpt lat="54.00483" lon="14.69719">
        <ele>39.76558</ele>
        <time>2024-07-27T09:07:11.572Z</time>
      </trkpt>
      <trkpt lat="54.00487" lon="14.69735">
        <ele>39.818689</ele>
        <time>2024-07-27T09:07:14.579Z</time>
      </trkpt>
      <trkpt lat="54.0049" lon="14.6975">
        <ele>39.805591</ele>
        <time>2024-07-27T09:07:17.566Z</time>
      </trkpt>
      <trkpt lat="54.00494" lon="14.69766">
        <ele>39.66788</ele>
        <time>2024-07-27T09:07:20.561Z</time>
      </trkpt>
      <trkpt lat="54.005" lon="14.69785">
        <ele>39.499956</ele>
        <time>2024-07-27T09:07:23.586Z</time>
      </trkpt>
      <trkpt lat="54.00504" lon="14.69803">
        <ele>39.345987</ele>
        <time>2024-07-27T09:07:26.566Z</time>
      </trkpt>
      <trkpt lat="54.00509" lon="14.69822">
        <ele>39.181509</ele>
        <time>2024-07-27T09:07:29.560Z</time>
      </trkpt>
      <trkpt lat="54.00514" lon="14.6984">
        <ele>39.022267</ele>
        <time>2024-07-27T09:07:32.565Z</time>
      </trkpt>
      <trkpt lat="54.00519" lon="14.69858">
        <ele>38.863283</ele>
        <time>2024-07-27T09:07:35.567Z</time>
      </trkpt>
      <trkpt lat="54.00524" lon="14.69877">
        <ele>38.69798</ele>
        <time>2024-07-27T09:07:38.568Z</time>
      </trkpt>
      <trkpt lat="54.0053" lon="14.69897">
        <ele>38.519566</ele>
        <time>2024-07-27T09:07:41.566Z</time>
      </trkpt>
      <trkpt lat="54.00536" lon="14.69916">
        <ele>38.343606</ele>
        <time>2024-07-27T09:07:44.560Z</time>
      </trkpt>
      <trkpt lat="54.00542" lon="14.69935">
        <ele>38.178761</ele>
        <time>2024-07-27T09:07:47.567Z</time>
      </trkpt>
      <trkpt lat="54.00547" lon="14.69951">
        <ele>38.030143</ele>
        <time>2024-07-27T09:07:50.565Z</time>
      </trkpt>
      <trkpt lat="54.00551" lon="14.69967">
        <ele>37.889144</ele>
        <time>2024-07-27T09:07:53.573Z</time>
      </trkpt>
      <trkpt lat="54.00556" lon="14.69982">
        <ele>37.752542</ele>
        <time>2024-07-27T09:07:56.564Z</time>
      </trkpt>
      <trkpt lat="54.00561" lon="14.69996">
        <ele>37.623475</ele>
        <time>2024-07-27T09:07:59.558Z</time>
      </trkpt>
      <trkpt lat="54.00566" lon="14.7001">
        <ele>37.493736</ele>
        <time>2024-07-27T09:08:04.564Z</time>
      </trkpt>
      <trkpt lat="54.00563" lon="14.69996">
        <ele>37.262435</ele>
        <time>2024-07-27T09:08:12.563Z</time>
      </trkpt>
      <trkpt lat="54.00558" lon="14.69981">
        <ele>36.774772</ele>
        <time>2024-07-27T09:08:20.555Z</time>
      </trkpt>
      <trkpt lat="54.00557" lon="14.69972">
        <ele>36.50289</ele>
        <time>2024-07-27T09:08:35.339Z</time>
      </trkpt>
      <trkpt lat="54.00563" lon="14.69988">
        <ele>35.964696</ele>
        <time>2024-07-27T09:22:56.554Z</time>
      </trkpt>
      <trkpt lat="54.00568" lon="14.70003">
        <ele>35.471668</ele>
        <time>2024-07-27T09:23:02.548Z</time>
      </trkpt>
      <trkpt lat="54.00571" lon="14.7002">
        <ele>34.948152</ele>
        <time>2024-07-27T09:23:06.567Z</time>
      </trkpt>
      <trkpt lat="54.00575" lon="14.70035">
        <ele>34.443955</ele>
        <time>2024-07-27T09:23:09.545Z</time>
      </trkpt>
      <trkpt lat="54.00579" lon="14.70051">
        <ele>33.941619</ele>
        <time>2024-07-27T09:23:12.561Z</time>
      </trkpt>
      <trkpt lat="54.00583" lon="14.70068">
        <ele>33.406555</ele>
        <time>2024-07-27T09:23:15.574Z</time>
      </trkpt>
      <trkpt lat="54.00588" lon="14.70085">
        <ele>32.860122</ele>
        <time>2024-07-27T09:23:18.583Z</time>
      </trkpt>
      <trkpt lat="54.00595" lon="14.70102">
        <ele>32.237757</ele>
        <time>2024-07-27T09:23:21.550Z</time>
      </trkpt>
      <trkpt lat="54.00603" lon="14.7012">
        <ele>31.587125</ele>
        <time>2024-07-27T09:23:24.560Z</time>
      </trkpt>
      <trkpt lat="54.00609" lon="14.70138">
        <ele>30.972557</ele>
        <time>2024-07-27T09:23:27.562Z</time>
      </trkpt>
      <trkpt lat="54.00617" lon="14.70155">
        <ele>30.348387</ele>
        <time>2024-07-27T09:23:30.553Z</time>
      </trkpt>
      <trkpt lat="54.00622" lon="14.70173">
        <ele>29.774976</ele>
        <time>2024-07-27T09:23:33.540Z</time>
      </trkpt>
      <trkpt lat="54.00626" lon="14.70194">
        <ele>29.1228</ele>
        <time>2024-07-27T09:23:36.569Z</time>
      </trkpt>
      <trkpt lat="54.00631" lon="14.70214">
        <ele>28.491531</ele>
        <time>2024-07-27T09:23:39.577Z</time>
      </trkpt>
      <trkpt lat="54.00637" lon="14.70234">
        <ele>28.290697</ele>
        <time>2024-07-27T09:23:42.574Z</time>
      </trkpt>
      <trkpt lat="54.00643" lon="14.70249">
        <ele>28.161774</ele>
        <time>2024-07-27T09:23:45.571Z</time>
      </trkpt>
      <trkpt lat="54.00649" lon="14.70263">
        <ele>28.033515</ele>
        <time>2024-07-27T09:23:48.559Z</time>
      </trkpt>
      <trkpt lat="54.00654" lon="14.70279">
        <ele>27.897714</ele>
        <time>2024-07-27T09:23:51.571Z</time>
      </trkpt>
      <trkpt lat="54.0066" lon="14.70296">
        <ele>27.761226</ele>
        <time>2024-07-27T09:23:54.562Z</time>
      </trkpt>
      <trkpt lat="54.00666" lon="14.70312">
        <ele>27.620292</ele>
        <time>2024-07-27T09:23:57.562Z</time>
      </trkpt>
      <trkpt lat="54.00671" lon="14.70326">
        <ele>27.504501</ele>
        <time>2024-07-27T09:23:59.554Z</time>
      </trkpt>
      <trkpt lat="54.00678" lon="14.70345">
        <ele>27.340541</ele>
        <time>2024-07-27T09:24:02.560Z</time>
      </trkpt>
      <trkpt lat="54.00683" lon="14.70357">
        <ele>27.229099</ele>
        <time>2024-07-27T09:24:04.569Z</time>
      </trkpt>
      <trkpt lat="54.00688" lon="14.70371">
        <ele>27.111164</ele>
        <time>2024-07-27T09:24:06.555Z</time>
      </trkpt>
      <trkpt lat="54.00693" lon="14.7039">
        <ele>26.956072</ele>
        <time>2024-07-27T09:24:09.566Z</time>
      </trkpt>
      <trkpt lat="54.00698" lon="14.70405">
        <ele>26.838083</ele>
        <time>2024-07-27T09:24:11.559Z</time>
      </trkpt>
      <trkpt lat="54.00702" lon="14.70419">
        <ele>26.721686</ele>
        <time>2024-07-27T09:24:13.555Z</time>
      </trkpt>
      <trkpt lat="54.00707" lon="14.70432">
        <ele>26.605276</ele>
        <time>2024-07-27T09:24:15.561Z</time>
      </trkpt>
      <trkpt lat="54.00712" lon="14.70446">
        <ele>26.491258</ele>
        <time>2024-07-27T09:24:17.556Z</time>
      </trkpt>
      <trkpt lat="54.00716" lon="14.7046">
        <ele>26.376518</ele>
        <time>2024-07-27T09:24:19.561Z</time>
      </trkpt>
      <trkpt lat="54.00719" lon="14.70475">
        <ele>26.260047</ele>
        <time>2024-07-27T09:24:21.567Z</time>
      </trkpt>
      <trkpt lat="54.00723" lon="14.7049">
        <ele>26.161408</ele>
        <time>2024-07-27T09:24:23.562Z</time>
      </trkpt>
      <trkpt lat="54.00728" lon="14.70509">
        <ele>26.040924</ele>
        <time>2024-07-27T09:24:26.555Z</time>
      </trkpt>
      <trkpt lat="54.00732" lon="14.70523">
        <ele>25.949387</ele>
        <time>2024-07-27T09:24:28.586Z</time>
      </trkpt>
      <trkpt lat="54.00737" lon="14.70536">
        <ele>25.859709</ele>
        <time>2024-07-27T09:24:30.560Z</time>
      </trkpt>
      <trkpt lat="54.00742" lon="14.70551">
        <ele>25.761976</ele>
        <time>2024-07-27T09:24:32.561Z</time>
      </trkpt>
      <trkpt lat="54.00748" lon="14.70571">
        <ele>25.630149</ele>
        <time>2024-07-27T09:24:35.565Z</time>
      </trkpt>
      <trkpt lat="54.00752" lon="14.70585">
        <ele>25.538009</ele>
        <time>2024-07-27T09:24:37.566Z</time>
      </trkpt>
      <trkpt lat="54.00758" lon="14.70599">
        <ele>25.442858</ele>
        <time>2024-07-27T09:24:39.565Z</time>
      </trkpt>
      <trkpt lat="54.00763" lon="14.70613">
        <ele>25.346681</ele>
        <time>2024-07-27T09:24:41.550Z</time>
      </trkpt>
      <trkpt lat="54.0077" lon="14.70631">
        <ele>25.225803</ele>
        <time>2024-07-27T09:24:44.560Z</time>
      </trkpt>
      <trkpt lat="54.00778" lon="14.70648">
        <ele>25.095293</ele>
        <time>2024-07-27T09:24:47.550Z</time>
      </trkpt>
      <trkpt lat="54.00786" lon="14.70666">
        <ele>24.966296</ele>
        <time>2024-07-27T09:24:50.567Z</time>
      </trkpt>
      <trkpt lat="54.00792" lon="14.70679">
        <ele>24.871454</ele>
        <time>2024-07-27T09:24:52.571Z</time>
      </trkpt>
      <trkpt lat="54.00797" lon="14.70694">
        <ele>24.771002</ele>
        <time>2024-07-27T09:24:54.566Z</time>
      </trkpt>
      <trkpt lat="54.00802" lon="14.7071">
        <ele>24.667026</ele>
        <time>2024-07-27T09:24:56.571Z</time>
      </trkpt>
      <trkpt lat="54.00807" lon="14.70726">
        <ele>24.565</ele>
        <time>2024-07-27T09:24:58.581Z</time>
      </trkpt>
      <trkpt lat="54.00811" lon="14.70743">
        <ele>24.457855</ele>
        <time>2024-07-27T09:26:38.537Z</time>
      </trkpt>
      <trkpt lat="54.00816" lon="14.70759">
        <ele>24.521397</ele>
        <time>2024-07-27T09:26:43.538Z</time>
      </trkpt>
      <trkpt lat="54.00821" lon="14.70774">
        <ele>24.582474</ele>
        <time>2024-07-27T09:26:46.543Z</time>
      </trkpt>
      <trkpt lat="54.00826" lon="14.70791">
        <ele>24.651292</ele>
        <time>2024-07-27T09:26:49.567Z</time>
      </trkpt>
      <trkpt lat="54.00832" lon="14.70809">
        <ele>24.726574</ele>
        <time>2024-07-27T09:26:52.545Z</time>
      </trkpt>
      <trkpt lat="54.00837" lon="14.70826">
        <ele>24.795711</ele>
        <time>2024-07-27T09:26:55.560Z</time>
      </trkpt>
      <trkpt lat="54.00843" lon="14.70844">
        <ele>24.869503</ele>
        <time>2024-07-27T09:26:58.589Z</time>
      </trkpt>
      <trkpt lat="54.00849" lon="14.70862">
        <ele>24.945488</ele>
        <time>2024-07-27T09:27:01.561Z</time>
      </trkpt>
      <trkpt lat="54.00856" lon="14.70881">
        <ele>25.02608</ele>
        <time>2024-07-27T09:27:04.557Z</time>
      </trkpt>
      <trkpt lat="54.00861" lon="14.70895">
        <ele>25.083001</ele>
        <time>2024-07-27T09:27:06.561Z</time>
      </trkpt>
      <trkpt lat="54.00866" lon="14.70908">
        <ele>25.139989</ele>
        <time>2024-07-27T09:27:08.582Z</time>
      </trkpt>
      <trkpt lat="54.00871" lon="14.70921">
        <ele>25.197885</ele>
        <time>2024-07-27T09:27:10.542Z</time>
      </trkpt>
      <trkpt lat="54.00876" lon="14.70935">
        <ele>25.256984</ele>
        <time>2024-07-27T09:27:12.552Z</time>
      </trkpt>
      <trkpt lat="54.00881" lon="14.70949">
        <ele>25.314576</ele>
        <time>2024-07-27T09:27:14.552Z</time>
      </trkpt>
      <trkpt lat="54.00885" lon="14.70964">
        <ele>25.372775</ele>
        <time>2024-07-27T09:27:16.557Z</time>
      </trkpt>
      <trkpt lat="54.0089" lon="14.70977">
        <ele>25.42849</ele>
        <time>2024-07-27T09:27:18.562Z</time>
      </trkpt>
      <trkpt lat="54.00897" lon="14.70997">
        <ele>25.51313</ele>
        <time>2024-07-27T09:27:21.547Z</time>
      </trkpt>
      <trkpt lat="54.00901" lon="14.71011">
        <ele>25.585524</ele>
        <time>2024-07-27T09:27:23.562Z</time>
      </trkpt>
      <trkpt lat="54.00906" lon="14.71024">
        <ele>25.756831</ele>
        <time>2024-07-27T09:27:25.543Z</time>
      </trkpt>
      <trkpt lat="54.00913" lon="14.71043">
        <ele>25.999542</ele>
        <time>2024-07-27T09:27:28.585Z</time>
      </trkpt>
      <trkpt lat="54.00919" lon="14.71057">
        <ele>26.174739</ele>
        <time>2024-07-27T09:27:30.555Z</time>
      </trkpt>
      <trkpt lat="54.00924" lon="14.71072">
        <ele>26.368142</ele>
        <time>2024-07-27T09:27:32.569Z</time>
      </trkpt>
      <trkpt lat="54.0093" lon="14.71088">
        <ele>26.568097</ele>
        <time>2024-07-27T09:27:34.570Z</time>
      </trkpt>
      <trkpt lat="54.00935" lon="14.71104">
        <ele>26.755982</ele>
        <time>2024-07-27T09:27:36.567Z</time>
      </trkpt>
      <trkpt lat="54.0094" lon="14.71118">
        <ele>26.93924</ele>
        <time>2024-07-27T09:27:38.570Z</time>
      </trkpt>
      <trkpt lat="54.00945" lon="14.71133">
        <ele>27.114307</ele>
        <time>2024-07-27T09:27:40.566Z</time>
      </trkpt>
      <trkpt lat="54.00949" lon="14.71147">
        <ele>27.285064</ele>
        <time>2024-07-27T09:27:42.569Z</time>
      </trkpt>
      <trkpt lat="54.00953" lon="14.71161">
        <ele>27.458425</ele>
        <time>2024-07-27T09:27:44.576Z</time>
      </trkpt>
      <trkpt lat="54.00958" lon="14.71176">
        <ele>27.631907</ele>
        <time>2024-07-27T09:27:46.571Z</time>
      </trkpt>
      <trkpt lat="54.00962" lon="14.71191">
        <ele>27.809213</ele>
        <time>2024-07-27T09:27:48.575Z</time>
      </trkpt>
      <trkpt lat="54.00966" lon="14.71205">
        <ele>27.97645</ele>
        <time>2024-07-27T09:27:50.562Z</time>
      </trkpt>
      <trkpt lat="54.00971" lon="14.71218">
        <ele>28.14037</ele>
        <time>2024-07-27T09:27:52.574Z</time>
      </trkpt>
      <trkpt lat="54.00975" lon="14.71233">
        <ele>28.31304</ele>
        <time>2024-07-27T09:27:54.557Z</time>
      </trkpt>
      <trkpt lat="54.00979" lon="14.71248">
        <ele>28.49612</ele>
        <time>2024-07-27T09:27:56.572Z</time>
      </trkpt>
      <trkpt lat="54.00983" lon="14.71263">
        <ele>28.666449</ele>
        <time>2024-07-27T09:27:58.580Z</time>
      </trkpt>
      <trkpt lat="54.00986" lon="14.71277">
        <ele>28.830754</ele>
        <time>2024-07-27T09:28:00.564Z</time>
      </trkpt>
      <trkpt lat="54.0099" lon="14.71292">
        <ele>28.885293</ele>
        <time>2024-07-27T09:28:02.572Z</time>
      </trkpt>
      <trkpt lat="54.00993" lon="14.71307">
        <ele>28.939615</ele>
        <time>2024-07-27T09:28:04.544Z</time>
      </trkpt>
      <trkpt lat="54.00996" lon="14.71322">
        <ele>28.995964</ele>
        <time>2024-07-27T09:28:06.557Z</time>
      </trkpt>
      <trkpt lat="54.00999" lon="14.71337">
        <ele>29.05087</ele>
        <time>2024-07-27T09:28:08.560Z</time>
      </trkpt>
      <trkpt lat="54.01001" lon="14.71353">
        <ele>29.107716</ele>
        <time>2024-07-27T09:28:10.542Z</time>
      </trkpt>
      <trkpt lat="54.01004" lon="14.71369">
        <ele>29.165058</ele>
        <time>2024-07-27T09:28:12.570Z</time>
      </trkpt>
      <trkpt lat="54.01007" lon="14.71385">
        <ele>29.222436</ele>
        <time>2024-07-27T09:28:14.556Z</time>
      </trkpt>
      <trkpt lat="54.01011" lon="14.71401">
        <ele>29.28234</ele>
        <time>2024-07-27T09:28:16.555Z</time>
      </trkpt>
      <trkpt lat="54.01014" lon="14.71417">
        <ele>29.339066</ele>
        <time>2024-07-27T09:28:18.567Z</time>
      </trkpt>
      <trkpt lat="54.01016" lon="14.71433">
        <ele>29.396076</ele>
        <time>2024-07-27T09:28:20.545Z</time>
      </trkpt>
      <trkpt lat="54.01019" lon="14.71448">
        <ele>29.451635</ele>
        <time>2024-07-27T09:28:22.557Z</time>
      </trkpt>
      <trkpt lat="54.01023" lon="14.71463">
        <ele>29.506604</ele>
        <time>2024-07-27T09:28:24.548Z</time>
      </trkpt>
      <trkpt lat="54.01026" lon="14.7148">
        <ele>29.566756</ele>
        <time>2024-07-27T09:28:26.556Z</time>
      </trkpt>
      <trkpt lat="54.0103" lon="14.71494">
        <ele>29.622396</ele>
        <time>2024-07-27T09:28:28.564Z</time>
      </trkpt>
      <trkpt lat="54.01034" lon="14.7151">
        <ele>29.680343</ele>
        <time>2024-07-27T09:28:30.556Z</time>
      </trkpt>
      <trkpt lat="54.01037" lon="14.71525">
        <ele>29.736062</ele>
        <time>2024-07-27T09:28:32.562Z</time>
      </trkpt>
      <trkpt lat="54.01042" lon="14.71541">
        <ele>29.797293</ele>
        <time>2024-07-27T09:28:34.544Z</time>
      </trkpt>
      <trkpt lat="54.01046" lon="14.71561">
        <ele>29.872028</ele>
        <time>2024-07-27T09:28:37.547Z</time>
      </trkpt>
      <trkpt lat="54.01051" lon="14.71581">
        <ele>29.79928</ele>
        <time>2024-07-27T09:28:40.553Z</time>
      </trkpt>
      <trkpt lat="54.01055" lon="14.71603">
        <ele>29.688305</ele>
        <time>2024-07-27T09:28:43.560Z</time>
      </trkpt>
      <trkpt lat="54.0106" lon="14.71617">
        <ele>29.609772</ele>
        <time>2024-07-27T09:28:45.548Z</time>
      </trkpt>
      <trkpt lat="54.01064" lon="14.71631">
        <ele>29.534748</ele>
        <time>2024-07-27T09:28:47.552Z</time>
      </trkpt>
      <trkpt lat="54.01067" lon="14.71645">
        <ele>29.46085</ele>
        <time>2024-07-27T09:28:49.536Z</time>
      </trkpt>
      <trkpt lat="54.01072" lon="14.71666">
        <ele>29.35299</ele>
        <time>2024-07-27T09:28:52.557Z</time>
      </trkpt>
      <trkpt lat="54.01076" lon="14.7168">
        <ele>29.275698</ele>
        <time>2024-07-27T09:28:54.542Z</time>
      </trkpt>
      <trkpt lat="54.01081" lon="14.71694">
        <ele>29.198757</ele>
        <time>2024-07-27T09:28:56.552Z</time>
      </trkpt>
      <trkpt lat="54.01085" lon="14.71709">
        <ele>29.117715</ele>
        <time>2024-07-27T09:28:58.557Z</time>
      </trkpt>
      <trkpt lat="54.01089" lon="14.71724">
        <ele>29.04158</ele>
        <time>2024-07-27T09:29:00.542Z</time>
      </trkpt>
      <trkpt lat="54.01093" lon="14.71739">
        <ele>28.958781</ele>
        <time>2024-07-27T09:29:02.548Z</time>
      </trkpt>
      <trkpt lat="54.01097" lon="14.71754">
        <ele>28.881583</ele>
        <time>2024-07-27T09:29:04.548Z</time>
      </trkpt>
      <trkpt lat="54.01103" lon="14.71775">
        <ele>28.771758</ele>
        <time>2024-07-27T09:29:07.558Z</time>
      </trkpt>
      <trkpt lat="54.01106" lon="14.71789">
        <ele>28.697226</ele>
        <time>2024-07-27T09:29:09.545Z</time>
      </trkpt>
      <trkpt lat="54.01112" lon="14.7181">
        <ele>28.586423</ele>
        <time>2024-07-27T09:29:12.544Z</time>
      </trkpt>
      <trkpt lat="54.01116" lon="14.71824">
        <ele>28.509961</ele>
        <time>2024-07-27T09:29:14.571Z</time>
      </trkpt>
      <trkpt lat="54.0112" lon="14.71838">
        <ele>28.433546</ele>
        <time>2024-07-27T09:29:16.564Z</time>
      </trkpt>
      <trkpt lat="54.01126" lon="14.71859">
        <ele>28.559655</ele>
        <time>2024-07-27T09:29:19.558Z</time>
      </trkpt>
      <trkpt lat="54.01131" lon="14.71874">
        <ele>28.696333</ele>
        <time>2024-07-27T09:29:21.569Z</time>
      </trkpt>
      <trkpt lat="54.01134" lon="14.71889">
        <ele>28.830075</ele>
        <time>2024-07-27T09:29:23.569Z</time>
      </trkpt>
      <trkpt lat="54.01138" lon="14.71903">
        <ele>28.957223</ele>
        <time>2024-07-27T09:29:25.560Z</time>
      </trkpt>
      <trkpt lat="54.01142" lon="14.71918">
        <ele>29.091205</ele>
        <time>2024-07-27T09:29:27.574Z</time>
      </trkpt>
      <trkpt lat="54.01148" lon="14.71938">
        <ele>29.283133</ele>
        <time>2024-07-27T09:29:30.558Z</time>
      </trkpt>
      <trkpt lat="54.01153" lon="14.71953">
        <ele>29.423669</ele>
        <time>2024-07-27T09:29:32.562Z</time>
      </trkpt>
      <trkpt lat="54.01156" lon="14.71968">
        <ele>29.554849</ele>
        <time>2024-07-27T09:29:34.576Z</time>
      </trkpt>
      <trkpt lat="54.01161" lon="14.71981">
        <ele>29.688935</ele>
        <time>2024-07-27T09:29:36.566Z</time>
      </trkpt>
      <trkpt lat="54.01167" lon="14.71996">
        <ele>29.828765</ele>
        <time>2024-07-27T09:29:38.566Z</time>
      </trkpt>
      <trkpt lat="54.01172" lon="14.7201">
        <ele>29.965674</ele>
        <time>2024-07-27T09:29:40.557Z</time>
      </trkpt>
      <trkpt lat="54.01176" lon="14.72024">
        <ele>30.095045</ele>
        <time>2024-07-27T09:29:42.548Z</time>
      </trkpt>
      <trkpt lat="54.01182" lon="14.72044">
        <ele>30.285731</ele>
        <time>2024-07-27T09:29:45.557Z</time>
      </trkpt>
      <trkpt lat="54.01187" lon="14.72058">
        <ele>30.419074</ele>
        <time>2024-07-27T09:29:47.557Z</time>
      </trkpt>
      <trkpt lat="54.01193" lon="14.72078">
        <ele>30.605296</ele>
        <time>2024-07-27T09:29:50.552Z</time>
      </trkpt>
      <trkpt lat="54.01199" lon="14.72098">
        <ele>30.79124</ele>
        <time>2024-07-27T09:29:53.553Z</time>
      </trkpt>
      <trkpt lat="54.01204" lon="14.72119">
        <ele>30.933299</ele>
        <time>2024-07-27T09:29:56.556Z</time>
      </trkpt>
      <trkpt lat="54.01211" lon="14.72138">
        <ele>30.892704</ele>
        <time>2024-07-27T09:29:59.552Z</time>
      </trkpt>
      <trkpt lat="54.01215" lon="14.72152">
        <ele>30.86538</ele>
        <time>2024-07-27T09:30:01.560Z</time>
      </trkpt>
      <trkpt lat="54.01222" lon="14.72172">
        <ele>30.825205</ele>
        <time>2024-07-27T09:30:04.556Z</time>
      </trkpt>
      <trkpt lat="54.01228" lon="14.72193">
        <ele>30.784437</ele>
        <time>2024-07-27T09:30:07.554Z</time>
      </trkpt>
      <trkpt lat="54.01234" lon="14.72213">
        <ele>30.745544</ele>
        <time>2024-07-27T09:30:10.544Z</time>
      </trkpt>
      <trkpt lat="54.0124" lon="14.72232">
        <ele>30.706735</ele>
        <time>2024-07-27T09:30:13.564Z</time>
      </trkpt>
      <trkpt lat="54.01246" lon="14.72252">
        <ele>30.666972</ele>
        <time>2024-07-27T09:30:16.545Z</time>
      </trkpt>
      <trkpt lat="54.0125" lon="14.72266">
        <ele>30.639686</ele>
        <time>2024-07-27T09:30:18.540Z</time>
      </trkpt>
      <trkpt lat="54.01257" lon="14.72286">
        <ele>30.599236</ele>
        <time>2024-07-27T09:30:21.554Z</time>
      </trkpt>
      <trkpt lat="54.01262" lon="14.72301">
        <ele>30.569545</ele>
        <time>2024-07-27T09:30:23.548Z</time>
      </trkpt>
      <trkpt lat="54.01267" lon="14.72316">
        <ele>30.53893</ele>
        <time>2024-07-27T09:30:25.554Z</time>
      </trkpt>
      <trkpt lat="54.01272" lon="14.72332">
        <ele>30.506618</ele>
        <time>2024-07-27T09:30:27.531Z</time>
      </trkpt>
      <trkpt lat="54.01276" lon="14.7235">
        <ele>30.47401</ele>
        <time>2024-07-27T09:30:29.548Z</time>
      </trkpt>
      <trkpt lat="54.0128" lon="14.72367">
        <ele>30.440651</ele>
        <time>2024-07-27T09:30:31.552Z</time>
      </trkpt>
      <trkpt lat="54.01285" lon="14.72383">
        <ele>30.409582</ele>
        <time>2024-07-27T09:30:33.558Z</time>
      </trkpt>
      <trkpt lat="54.01289" lon="14.724">
        <ele>30.459727</ele>
        <time>2024-07-27T09:30:35.558Z</time>
      </trkpt>
      <trkpt lat="54.01294" lon="14.72417">
        <ele>30.527528</ele>
        <time>2024-07-27T09:30:37.551Z</time>
      </trkpt>
      <trkpt lat="54.01298" lon="14.72433">
        <ele>30.596004</ele>
        <time>2024-07-27T09:30:39.548Z</time>
      </trkpt>
      <trkpt lat="54.01304" lon="14.72449">
        <ele>30.664994</ele>
        <time>2024-07-27T09:30:41.557Z</time>
      </trkpt>
      <trkpt lat="54.01309" lon="14.72465">
        <ele>30.733023</ele>
        <time>2024-07-27T09:30:43.564Z</time>
      </trkpt>
      <trkpt lat="54.01313" lon="14.72481">
        <ele>30.799543</ele>
        <time>2024-07-27T09:30:45.557Z</time>
      </trkpt>
      <trkpt lat="54.01318" lon="14.72496">
        <ele>30.862535</ele>
        <time>2024-07-27T09:30:47.548Z</time>
      </trkpt>
      <trkpt lat="54.01323" lon="14.72513">
        <ele>30.930631</ele>
        <time>2024-07-27T09:30:49.554Z</time>
      </trkpt>
      <trkpt lat="54.01328" lon="14.72528">
        <ele>30.996774</ele>
        <time>2024-07-27T09:30:51.562Z</time>
      </trkpt>
      <trkpt lat="54.01333" lon="14.72545">
        <ele>31.065764</ele>
        <time>2024-07-27T09:30:53.547Z</time>
      </trkpt>
      <trkpt lat="54.01337" lon="14.72561">
        <ele>31.132335</ele>
        <time>2024-07-27T09:30:55.563Z</time>
      </trkpt>
      <trkpt lat="54.01342" lon="14.72576">
        <ele>31.196528</ele>
        <time>2024-07-27T09:30:57.561Z</time>
      </trkpt>
      <trkpt lat="54.01346" lon="14.72591">
        <ele>31.260056</ele>
        <time>2024-07-27T09:30:59.557Z</time>
      </trkpt>
      <trkpt lat="54.01351" lon="14.72606">
        <ele>31.324249</ele>
        <time>2024-07-27T09:31:01.566Z</time>
      </trkpt>
      <trkpt lat="54.01355" lon="14.72621">
        <ele>31.386624</ele>
        <time>2024-07-27T09:31:03.556Z</time>
      </trkpt>
      <trkpt lat="54.0136" lon="14.72636">
        <ele>31.44978</ele>
        <time>2024-07-27T09:31:05.572Z</time>
      </trkpt>
      <trkpt lat="54.01365" lon="14.72651">
        <ele>31.513267</ele>
        <time>2024-07-27T09:31:07.581Z</time>
      </trkpt>
      <trkpt lat="54.0137" lon="14.72665">
        <ele>31.572591</ele>
        <time>2024-07-27T09:31:09.563Z</time>
      </trkpt>
      <trkpt lat="54.01374" lon="14.7268">
        <ele>31.626416</ele>
        <time>2024-07-27T09:31:11.568Z</time>
      </trkpt>
      <trkpt lat="54.01378" lon="14.72694">
        <ele>31.680482</ele>
        <time>2024-07-27T09:31:13.576Z</time>
      </trkpt>
      <trkpt lat="54.01385" lon="14.72714">
        <ele>31.75526</ele>
        <time>2024-07-27T09:31:16.558Z</time>
      </trkpt>
      <trkpt lat="54.01391" lon="14.72734">
        <ele>31.830927</ele>
        <time>2024-07-27T09:31:19.563Z</time>
      </trkpt>
      <trkpt lat="54.01395" lon="14.7275">
        <ele>31.887708</ele>
        <time>2024-07-27T09:31:21.562Z</time>
      </trkpt>
      <trkpt lat="54.014" lon="14.72765">
        <ele>31.944221</ele>
        <time>2024-07-27T09:31:23.564Z</time>
      </trkpt>
      <trkpt lat="54.01404" lon="14.7278">
        <ele>31.999188</ele>
        <time>2024-07-27T09:31:25.565Z</time>
      </trkpt>
      <trkpt lat="54.01408" lon="14.72795">
        <ele>32.054524</ele>
        <time>2024-07-27T09:31:27.568Z</time>
      </trkpt>
      <trkpt lat="54.01412" lon="14.72809">
        <ele>32.108157</ele>
        <time>2024-07-27T09:31:29.570Z</time>
      </trkpt>
      <trkpt lat="54.01417" lon="14.72825">
        <ele>32.166313</ele>
        <time>2024-07-27T09:31:31.563Z</time>
      </trkpt>
      <trkpt lat="54.01421" lon="14.72841">
        <ele>32.224352</ele>
        <time>2024-07-27T09:31:33.572Z</time>
      </trkpt>
      <trkpt lat="54.01425" lon="14.72856">
        <ele>32.279018</ele>
        <time>2024-07-27T09:31:35.569Z</time>
      </trkpt>
      <trkpt lat="54.0143" lon="14.72871">
        <ele>32.334225</ele>
        <time>2024-07-27T09:31:37.565Z</time>
      </trkpt>
      <trkpt lat="54.01434" lon="14.72886">
        <ele>32.390737</ele>
        <time>2024-07-27T09:31:39.585Z</time>
      </trkpt>
      <trkpt lat="54.01438" lon="14.72901">
        <ele>32.445945</ele>
        <time>2024-07-27T09:31:41.584Z</time>
      </trkpt>
      <trkpt lat="54.01443" lon="14.72916">
        <ele>32.500254</ele>
        <time>2024-07-27T09:31:43.561Z</time>
      </trkpt>
      <trkpt lat="54.01447" lon="14.7293">
        <ele>32.554738</ele>
        <time>2024-07-27T09:31:45.552Z</time>
      </trkpt>
      <trkpt lat="54.01451" lon="14.72945">
        <ele>32.574596</ele>
        <time>2024-07-27T09:31:47.562Z</time>
      </trkpt>
      <trkpt lat="54.01456" lon="14.72961">
        <ele>32.587605</ele>
        <time>2024-07-27T09:31:49.573Z</time>
      </trkpt>
      <trkpt lat="54.0146" lon="14.72976">
        <ele>32.599959</ele>
        <time>2024-07-27T09:31:51.570Z</time>
      </trkpt>
      <trkpt lat="54.01464" lon="14.72991">
        <ele>32.611994</ele>
        <time>2024-07-27T09:31:53.579Z</time>
      </trkpt>
      <trkpt lat="54.01468" lon="14.73005">
        <ele>32.62451</ele>
        <time>2024-07-27T09:31:55.584Z</time>
      </trkpt>
      <trkpt lat="54.01473" lon="14.73021">
        <ele>32.637547</ele>
        <time>2024-07-27T09:31:57.602Z</time>
      </trkpt>
      <trkpt lat="54.01478" lon="14.73035">
        <ele>32.649811</ele>
        <time>2024-07-27T09:31:59.548Z</time>
      </trkpt>
      <trkpt lat="54.01482" lon="14.73049">
        <ele>32.661758</ele>
        <time>2024-07-27T09:32:01.591Z</time>
      </trkpt>
      <trkpt lat="54.01487" lon="14.73063">
        <ele>32.673627</ele>
        <time>2024-07-27T09:32:03.572Z</time>
      </trkpt>
      <trkpt lat="54.01491" lon="14.73079">
        <ele>32.68649</ele>
        <time>2024-07-27T09:32:05.570Z</time>
      </trkpt>
      <trkpt lat="54.01495" lon="14.73093">
        <ele>32.698364</ele>
        <time>2024-07-27T09:32:07.560Z</time>
      </trkpt>
      <trkpt lat="54.015" lon="14.73107">
        <ele>32.710744</ele>
        <time>2024-07-27T09:32:09.565Z</time>
      </trkpt>
      <trkpt lat="54.01505" lon="14.73121">
        <ele>32.722868</ele>
        <time>2024-07-27T09:32:11.571Z</time>
      </trkpt>
      <trkpt lat="54.0151" lon="14.73143">
        <ele>32.740231</ele>
        <time>2024-07-27T09:32:14.583Z</time>
      </trkpt>
      <trkpt lat="54.01514" lon="14.73165">
        <ele>32.75742</ele>
        <time>2024-07-27T09:32:17.541Z</time>
      </trkpt>
      <trkpt lat="54.01518" lon="14.73179">
        <ele>32.768918</ele>
        <time>2024-07-27T09:32:19.560Z</time>
      </trkpt>
      <trkpt lat="54.01522" lon="14.73194">
        <ele>32.781631</ele>
        <time>2024-07-27T09:32:21.555Z</time>
      </trkpt>
      <trkpt lat="54.01526" lon="14.73208">
        <ele>32.794826</ele>
        <time>2024-07-27T09:32:23.568Z</time>
      </trkpt>
      <trkpt lat="54.0153" lon="14.73223">
        <ele>32.835311</ele>
        <time>2024-07-27T09:32:25.559Z</time>
      </trkpt>
      <trkpt lat="54.01534" lon="14.73237">
        <ele>32.876063</ele>
        <time>2024-07-27T09:32:27.570Z</time>
      </trkpt>
      <trkpt lat="54.01538" lon="14.73251">
        <ele>32.916907</ele>
        <time>2024-07-27T09:32:29.568Z</time>
      </trkpt>
      <trkpt lat="54.01543" lon="14.73266">
        <ele>32.958336</ele>
        <time>2024-07-27T09:32:31.575Z</time>
      </trkpt>
      <trkpt lat="54.01547" lon="14.7328">
        <ele>33.000645</ele>
        <time>2024-07-27T09:32:33.577Z</time>
      </trkpt>
      <trkpt lat="54.01552" lon="14.73295">
        <ele>33.043349</ele>
        <time>2024-07-27T09:32:35.564Z</time>
      </trkpt>
      <trkpt lat="54.01557" lon="14.7331">
        <ele>33.087371</ele>
        <time>2024-07-27T09:32:37.577Z</time>
      </trkpt>
      <trkpt lat="54.01561" lon="14.73324">
        <ele>33.126788</ele>
        <time>2024-07-27T09:32:39.562Z</time>
      </trkpt>
      <trkpt lat="54.01565" lon="14.73339">
        <ele>33.170176</ele>
        <time>2024-07-27T09:32:41.574Z</time>
      </trkpt>
      <trkpt lat="54.0157" lon="14.73354">
        <ele>33.212485</ele>
        <time>2024-07-27T09:32:43.559Z</time>
      </trkpt>
      <trkpt lat="54.01574" lon="14.73369">
        <ele>33.255086</ele>
        <time>2024-07-27T09:32:45.564Z</time>
      </trkpt>
      <trkpt lat="54.01578" lon="14.73383">
        <ele>33.296042</ele>
        <time>2024-07-27T09:32:47.567Z</time>
      </trkpt>
      <trkpt lat="54.01583" lon="14.73397">
        <ele>33.337045</ele>
        <time>2024-07-27T09:32:49.552Z</time>
      </trkpt>
      <trkpt lat="54.01588" lon="14.73412">
        <ele>33.379739</ele>
        <time>2024-07-27T09:32:51.537Z</time>
      </trkpt>
      <trkpt lat="54.01592" lon="14.73427">
        <ele>33.422111</ele>
        <time>2024-07-27T09:32:53.553Z</time>
      </trkpt>
      <trkpt lat="54.01597" lon="14.73442">
        <ele>33.464873</ele>
        <time>2024-07-27T09:32:55.576Z</time>
      </trkpt>
      <trkpt lat="54.01601" lon="14.73457">
        <ele>33.508919</ele>
        <time>2024-07-27T09:32:57.565Z</time>
      </trkpt>
      <trkpt lat="54.01606" lon="14.73473">
        <ele>33.554747</ele>
        <time>2024-07-27T09:32:59.566Z</time>
      </trkpt>
      <trkpt lat="54.01611" lon="14.73488">
        <ele>33.637305</ele>
        <time>2024-07-27T09:33:01.566Z</time>
      </trkpt>
      <trkpt lat="54.01616" lon="14.73502">
        <ele>33.749043</ele>
        <time>2024-07-27T09:33:03.578Z</time>
      </trkpt>
      <trkpt lat="54.01621" lon="14.73518">
        <ele>33.867187</ele>
        <time>2024-07-27T09:33:05.574Z</time>
      </trkpt>
      <trkpt lat="54.01625" lon="14.73532">
        <ele>33.974542</ele>
        <time>2024-07-27T09:33:07.578Z</time>
      </trkpt>
      <trkpt lat="54.01629" lon="14.73548">
        <ele>34.089333</ele>
        <time>2024-07-27T09:33:10.580Z</time>
      </trkpt>
      <trkpt lat="54.01629" lon="14.73546">
        <ele>34.103832</ele>
        <time>2024-07-27T09:33:26.548Z</time>
      </trkpt>
      <trkpt lat="54.01634" lon="14.73577">
        <ele>34.32366</ele>
        <time>2024-07-27T09:34:45.552Z</time>
      </trkpt>
      <trkpt lat="54.0164" lon="14.73593">
        <ele>34.446872</ele>
        <time>2024-07-27T09:34:48.540Z</time>
      </trkpt>
      <trkpt lat="54.01646" lon="14.73609">
        <ele>34.575534</ele>
        <time>2024-07-27T09:34:51.545Z</time>
      </trkpt>
      <trkpt lat="54.01653" lon="14.73628">
        <ele>34.724776</ele>
        <time>2024-07-27T09:34:54.574Z</time>
      </trkpt>
      <trkpt lat="54.01658" lon="14.7364">
        <ele>34.827651</ele>
        <time>2024-07-27T09:34:56.582Z</time>
      </trkpt>
      <trkpt lat="54.01663" lon="14.73653">
        <ele>34.932454</ele>
        <time>2024-07-27T09:34:58.586Z</time>
      </trkpt>
      <trkpt lat="54.01668" lon="14.73667">
        <ele>35.037744</ele>
        <time>2024-07-27T09:35:00.550Z</time>
      </trkpt>
      <trkpt lat="54.01671" lon="14.73681">
        <ele>35.142485</ele>
        <time>2024-07-27T09:35:02.566Z</time>
      </trkpt>
      <trkpt lat="54.01677" lon="14.73702">
        <ele>35.298162</ele>
        <time>2024-07-27T09:35:05.568Z</time>
      </trkpt>
      <trkpt lat="54.01681" lon="14.73717">
        <ele>35.403812</ele>
        <time>2024-07-27T09:35:07.566Z</time>
      </trkpt>
      <trkpt lat="54.01685" lon="14.73731">
        <ele>35.50996</ele>
        <time>2024-07-27T09:35:09.569Z</time>
      </trkpt>
      <trkpt lat="54.01692" lon="14.73751">
        <ele>35.611495</ele>
        <time>2024-07-27T09:35:12.552Z</time>
      </trkpt>
      <trkpt lat="54.01696" lon="14.73765">
        <ele>35.56297</ele>
        <time>2024-07-27T09:35:14.545Z</time>
      </trkpt>
      <trkpt lat="54.01701" lon="14.73778">
        <ele>35.515733</ele>
        <time>2024-07-27T09:35:16.555Z</time>
      </trkpt>
      <trkpt lat="54.01706" lon="14.73791">
        <ele>35.468773</ele>
        <time>2024-07-27T09:35:18.604Z</time>
      </trkpt>
      <trkpt lat="54.01711" lon="14.7381">
        <ele>35.404183</ele>
        <time>2024-07-27T09:35:21.580Z</time>
      </trkpt>
      <trkpt lat="54.01717" lon="14.7383">
        <ele>35.335959</ele>
        <time>2024-07-27T09:35:24.548Z</time>
      </trkpt>
      <trkpt lat="54.01722" lon="14.73843">
        <ele>35.288123</ele>
        <time>2024-07-27T09:35:26.579Z</time>
      </trkpt>
      <trkpt lat="54.01727" lon="14.73858">
        <ele>35.238017</ele>
        <time>2024-07-27T09:35:28.617Z</time>
      </trkpt>
      <trkpt lat="54.01731" lon="14.73874">
        <ele>35.185716</ele>
        <time>2024-07-27T09:35:30.554Z</time>
      </trkpt>
      <trkpt lat="54.01735" lon="14.73888">
        <ele>35.135722</ele>
        <time>2024-07-27T09:35:32.557Z</time>
      </trkpt>
      <trkpt lat="54.01739" lon="14.73904">
        <ele>35.084785</ele>
        <time>2024-07-27T09:35:34.559Z</time>
      </trkpt>
      <trkpt lat="54.01743" lon="14.73918">
        <ele>35.035977</ele>
        <time>2024-07-27T09:35:36.551Z</time>
      </trkpt>
      <trkpt lat="54.01747" lon="14.73932">
        <ele>34.987528</ele>
        <time>2024-07-27T09:35:38.640Z</time>
      </trkpt>
      <trkpt lat="54.01751" lon="14.73947">
        <ele>34.938243</ele>
        <time>2024-07-27T09:35:40.568Z</time>
      </trkpt>
      <trkpt lat="54.01755" lon="14.73962">
        <ele>34.888905</ele>
        <time>2024-07-27T09:35:42.570Z</time>
      </trkpt>
      <trkpt lat="54.01759" lon="14.73976">
        <ele>34.840889</ele>
        <time>2024-07-27T09:35:44.569Z</time>
      </trkpt>
      <trkpt lat="54.01763" lon="14.73991">
        <ele>34.792298</ele>
        <time>2024-07-27T09:35:46.592Z</time>
      </trkpt>
      <trkpt lat="54.01767" lon="14.74005">
        <ele>34.744946</ele>
        <time>2024-07-27T09:35:48.547Z</time>
      </trkpt>
      <trkpt lat="54.01771" lon="14.74018">
        <ele>34.697909</ele>
        <time>2024-07-27T09:35:50.557Z</time>
      </trkpt>
      <trkpt lat="54.01777" lon="14.74038">
        <ele>34.789203</ele>
        <time>2024-07-27T09:35:53.576Z</time>
      </trkpt>
      <trkpt lat="54.01781" lon="14.74053">
        <ele>34.854381</ele>
        <time>2024-07-27T09:35:55.581Z</time>
      </trkpt>
      <trkpt lat="54.01787" lon="14.74073">
        <ele>34.949918</ele>
        <time>2024-07-27T09:35:58.617Z</time>
      </trkpt>
      <trkpt lat="54.01792" lon="14.74087">
        <ele>35.015782</ele>
        <time>2024-07-27T09:36:00.564Z</time>
      </trkpt>
      <trkpt lat="54.01797" lon="14.74099">
        <ele>35.080925</ele>
        <time>2024-07-27T09:36:02.565Z</time>
      </trkpt>
      <trkpt lat="54.01803" lon="14.74112">
        <ele>35.149163</ele>
        <time>2024-07-27T09:36:04.561Z</time>
      </trkpt>
      <trkpt lat="54.0181" lon="14.74122">
        <ele>35.215196</ele>
        <time>2024-07-27T09:36:06.553Z</time>
      </trkpt>
      <trkpt lat="54.01817" lon="14.74133">
        <ele>35.282555</ele>
        <time>2024-07-27T09:36:08.575Z</time>
      </trkpt>
      <trkpt lat="54.01824" lon="14.74144">
        <ele>35.350765</ele>
        <time>2024-07-27T09:36:10.558Z</time>
      </trkpt>
      <trkpt lat="54.0183" lon="14.74156">
        <ele>35.415444</ele>
        <time>2024-07-27T09:36:12.568Z</time>
      </trkpt>
      <trkpt lat="54.01839" lon="14.74172">
        <ele>35.508091</ele>
        <time>2024-07-27T09:36:15.579Z</time>
      </trkpt>
      <trkpt lat="54.01849" lon="14.74183">
        <ele>35.593311</ele>
        <time>2024-07-27T09:36:18.559Z</time>
      </trkpt>
      <trkpt lat="54.01858" lon="14.74194">
        <ele>35.671157</ele>
        <time>2024-07-27T09:36:21.577Z</time>
      </trkpt>
      <trkpt lat="54.01865" lon="14.74207">
        <ele>35.741607</ele>
        <time>2024-07-27T09:36:24.562Z</time>
      </trkpt>
      <trkpt lat="54.01873" lon="14.74215">
        <ele>35.806995</ele>
        <time>2024-07-27T09:36:27.562Z</time>
      </trkpt>
      <trkpt lat="54.01882" lon="14.74224">
        <ele>35.88439</ele>
        <time>2024-07-27T09:36:32.564Z</time>
      </trkpt>
      <trkpt lat="54.01891" lon="14.7423">
        <ele>35.951092</ele>
        <time>2024-07-27T09:36:36.563Z</time>
      </trkpt>
      <trkpt lat="54.01901" lon="14.74235">
        <ele>36.101625</ele>
        <time>2024-07-27T09:36:40.568Z</time>
      </trkpt>
      <trkpt lat="54.01911" lon="14.74238">
        <ele>36.268901</ele>
        <time>2024-07-27T09:36:44.563Z</time>
      </trkpt>
      <trkpt lat="54.01921" lon="14.74241">
        <ele>36.447654</ele>
        <time>2024-07-27T09:36:49.579Z</time>
      </trkpt>
      <trkpt lat="54.0193" lon="14.74243">
        <ele>36.604943</ele>
        <time>2024-07-27T09:36:54.563Z</time>
      </trkpt>
      <trkpt lat="54.01939" lon="14.74245">
        <ele>36.758798</ele>
        <time>2024-07-27T09:37:00.558Z</time>
      </trkpt>
      <trkpt lat="54.01949" lon="14.7425">
        <ele>36.929387</ele>
        <time>2024-07-27T09:37:10.552Z</time>
      </trkpt>
      <trkpt lat="54.01958" lon="14.74253">
        <ele>37.087529</ele>
        <time>2024-07-27T09:37:21.577Z</time>
      </trkpt>
      <trkpt lat="54.01967" lon="14.74255">
        <ele>37.247191</ele>
        <time>2024-07-27T09:37:29.567Z</time>
      </trkpt>
      <trkpt lat="54.01977" lon="14.74257">
        <ele>37.417377</ele>
        <time>2024-07-27T09:37:40.571Z</time>
      </trkpt>
      <trkpt lat="54.01987" lon="14.7426">
        <ele>37.580142</ele>
        <time>2024-07-27T09:37:49.561Z</time>
      </trkpt>
      <trkpt lat="54.01996" lon="14.74262">
        <ele>37.742933</ele>
        <time>2024-07-27T09:38:00.566Z</time>
      </trkpt>
      <trkpt lat="54.02005" lon="14.74266">
        <ele>37.899339</ele>
        <time>2024-07-27T09:38:08.570Z</time>
      </trkpt>
      <trkpt lat="54.02015" lon="14.7427">
        <ele>38.071221</ele>
        <time>2024-07-27T09:38:15.562Z</time>
      </trkpt>
      <trkpt lat="54.02025" lon="14.74272">
        <ele>38.238185</ele>
        <time>2024-07-27T09:38:22.554Z</time>
      </trkpt>
      <trkpt lat="54.02035" lon="14.74274">
        <ele>38.406547</ele>
        <time>2024-07-27T09:38:31.561Z</time>
      </trkpt>
      <trkpt lat="54.02044" lon="14.74276">
        <ele>38.562348</ele>
        <time>2024-07-27T09:38:39.575Z</time>
      </trkpt>
      <trkpt lat="54.02054" lon="14.74279">
        <ele>38.733845</ele>
        <time>2024-07-27T09:38:48.554Z</time>
      </trkpt>
      <trkpt lat="54.02062" lon="14.74283">
        <ele>38.888604</ele>
        <time>2024-07-27T09:38:56.565Z</time>
      </trkpt>
      <trkpt lat="54.02072" lon="14.74285">
        <ele>39.024757</ele>
        <time>2024-07-27T09:39:05.563Z</time>
      </trkpt>
      <trkpt lat="54.02081" lon="14.74287">
        <ele>38.913</ele>
        <time>2024-07-27T09:39:13.555Z</time>
      </trkpt>
      <trkpt lat="54.02091" lon="14.7429">
        <ele>38.797505</ele>
        <time>2024-07-27T09:39:18.552Z</time>
      </trkpt>
      <trkpt lat="54.021" lon="14.74292">
        <ele>38.684013</ele>
        <time>2024-07-27T09:39:21.554Z</time>
      </trkpt>
      <trkpt lat="54.0211" lon="14.74296">
        <ele>38.564868</ele>
        <time>2024-07-27T09:39:24.570Z</time>
      </trkpt>
      <trkpt lat="54.02121" lon="14.743">
        <ele>38.431879</ele>
        <time>2024-07-27T09:39:27.577Z</time>
      </trkpt>
      <trkpt lat="54.0213" lon="14.74308">
        <ele>38.300967</ele>
        <time>2024-07-27T09:39:30.576Z</time>
      </trkpt>
      <trkpt lat="54.0214" lon="14.74315">
        <ele>38.173521</ele>
        <time>2024-07-27T09:39:33.568Z</time>
      </trkpt>
      <trkpt lat="54.02149" lon="14.74323">
        <ele>38.050946</ele>
        <time>2024-07-27T09:39:36.572Z</time>
      </trkpt>
      <trkpt lat="54.02158" lon="14.7433">
        <ele>37.93727</ele>
        <time>2024-07-27T09:39:39.591Z</time>
      </trkpt>
      <trkpt lat="54.02167" lon="14.74337">
        <ele>37.823827</ele>
        <time>2024-07-27T09:39:42.577Z</time>
      </trkpt>
      <trkpt lat="54.02176" lon="14.74344">
        <ele>37.699375</ele>
        <time>2024-07-27T09:39:45.560Z</time>
      </trkpt>
      <trkpt lat="54.02188" lon="14.74346">
        <ele>37.562387</ele>
        <time>2024-07-27T09:39:48.557Z</time>
      </trkpt>
      <trkpt lat="54.02198" lon="14.74353">
        <ele>37.431372</ele>
        <time>2024-07-27T09:39:51.572Z</time>
      </trkpt>
      <trkpt lat="54.02206" lon="14.74366">
        <ele>37.295417</ele>
        <time>2024-07-27T09:39:55.553Z</time>
      </trkpt>
      <trkpt lat="54.02211" lon="14.74382">
        <ele>37.165732</ele>
        <time>2024-07-27T09:40:00.564Z</time>
      </trkpt>
      <trkpt lat="54.02218" lon="14.74395">
        <ele>37.050444</ele>
        <time>2024-07-27T09:40:05.553Z</time>
      </trkpt>
      <trkpt lat="54.02224" lon="14.74408">
        <ele>36.929924</ele>
        <time>2024-07-27T09:40:09.551Z</time>
      </trkpt>
      <trkpt lat="54.02229" lon="14.74422">
        <ele>36.886809</ele>
        <time>2024-07-27T09:40:12.552Z</time>
      </trkpt>
      <trkpt lat="54.0223" lon="14.74437">
        <ele>36.885625</ele>
        <time>2024-07-27T09:40:15.567Z</time>
      </trkpt>
      <trkpt lat="54.02232" lon="14.74453">
        <ele>36.884492</ele>
        <time>2024-07-27T09:40:18.606Z</time>
      </trkpt>
      <trkpt lat="54.02232" lon="14.74468">
        <ele>36.883341</ele>
        <time>2024-07-27T09:40:21.555Z</time>
      </trkpt>
      <trkpt lat="54.02236" lon="14.74483">
        <ele>36.882126</ele>
        <time>2024-07-27T09:40:24.553Z</time>
      </trkpt>
      <trkpt lat="54.02239" lon="14.745">
        <ele>36.880836</ele>
        <time>2024-07-27T09:40:27.564Z</time>
      </trkpt>
      <trkpt lat="54.02243" lon="14.7452">
        <ele>36.879299</ele>
        <time>2024-07-27T09:40:30.556Z</time>
      </trkpt>
      <trkpt lat="54.02246" lon="14.7454">
        <ele>36.877744</ele>
        <time>2024-07-27T09:40:33.571Z</time>
      </trkpt>
      <trkpt lat="54.02249" lon="14.74561">
        <ele>36.876199</ele>
        <time>2024-07-27T09:40:36.564Z</time>
      </trkpt>
      <trkpt lat="54.02252" lon="14.74582">
        <ele>36.874589</ele>
        <time>2024-07-27T09:40:39.556Z</time>
      </trkpt>
      <trkpt lat="54.02254" lon="14.74603">
        <ele>36.873025</ele>
        <time>2024-07-27T09:40:42.562Z</time>
      </trkpt>
      <trkpt lat="54.02258" lon="14.74624">
        <ele>36.871409</ele>
        <time>2024-07-27T09:40:45.561Z</time>
      </trkpt>
      <trkpt lat="54.02261" lon="14.74646">
        <ele>36.869755</ele>
        <time>2024-07-27T09:40:48.548Z</time>
      </trkpt>
      <trkpt lat="54.02263" lon="14.74661">
        <ele>36.868587</ele>
        <time>2024-07-27T09:40:50.536Z</time>
      </trkpt>
      <trkpt lat="54.02266" lon="14.74676">
        <ele>36.867449</ele>
        <time>2024-07-27T09:40:52.567Z</time>
      </trkpt>
      <trkpt lat="54.02267" lon="14.74691">
        <ele>36.866276</ele>
        <time>2024-07-27T09:40:54.569Z</time>
      </trkpt>
      <trkpt lat="54.0227" lon="14.74713">
        <ele>36.878628</ele>
        <time>2024-07-27T09:40:57.585Z</time>
      </trkpt>
      <trkpt lat="54.02273" lon="14.74735">
        <ele>36.947816</ele>
        <time>2024-07-27T09:41:00.567Z</time>
      </trkpt>
      <trkpt lat="54.02275" lon="14.74756">
        <ele>37.014826</ele>
        <time>2024-07-27T09:41:03.584Z</time>
      </trkpt>
      <trkpt lat="54.02278" lon="14.74777">
        <ele>37.079876</ele>
        <time>2024-07-27T09:41:06.569Z</time>
      </trkpt>
      <trkpt lat="54.02281" lon="14.74798">
        <ele>37.145769</ele>
        <time>2024-07-27T09:41:09.582Z</time>
      </trkpt>
      <trkpt lat="54.02282" lon="14.74815">
        <ele>37.199236</ele>
        <time>2024-07-27T09:41:12.562Z</time>
      </trkpt>
      <trkpt lat="54.02284" lon="14.74831">
        <ele>37.249214</ele>
        <time>2024-07-27T09:41:15.579Z</time>
      </trkpt>
      <trkpt lat="54.02286" lon="14.74847">
        <ele>37.300929</ele>
        <time>2024-07-27T09:41:18.621Z</time>
      </trkpt>
      <trkpt lat="54.02288" lon="14.74867">
        <ele>37.364559</ele>
        <time>2024-07-27T09:41:21.583Z</time>
      </trkpt>
      <trkpt lat="54.02292" lon="14.74887">
        <ele>37.429837</ele>
        <time>2024-07-27T09:41:24.557Z</time>
      </trkpt>
      <trkpt lat="54.02294" lon="14.74908">
        <ele>37.4941</ele>
        <time>2024-07-27T09:41:27.566Z</time>
      </trkpt>
      <trkpt lat="54.02297" lon="14.74928">
        <ele>37.557467</ele>
        <time>2024-07-27T09:41:30.557Z</time>
      </trkpt>
      <trkpt lat="54.02301" lon="14.74947">
        <ele>37.620756</ele>
        <time>2024-07-27T09:41:33.566Z</time>
      </trkpt>
      <trkpt lat="54.02302" lon="14.74962">
        <ele>37.668605</ele>
        <time>2024-07-27T09:41:35.574Z</time>
      </trkpt>
      <trkpt lat="54.02305" lon="14.74978">
        <ele>37.719804</ele>
        <time>2024-07-27T09:41:37.567Z</time>
      </trkpt>
      <trkpt lat="54.02309" lon="14.74993">
        <ele>37.769622</ele>
        <time>2024-07-27T09:41:39.555Z</time>
      </trkpt>
      <trkpt lat="54.02313" lon="14.75007">
        <ele>37.809518</ele>
        <time>2024-07-27T09:41:41.570Z</time>
      </trkpt>
      <trkpt lat="54.02318" lon="14.75022">
        <ele>37.794351</ele>
        <time>2024-07-27T09:41:43.561Z</time>
      </trkpt>
      <trkpt lat="54.02323" lon="14.75037">
        <ele>37.779262</ele>
        <time>2024-07-27T09:41:45.561Z</time>
      </trkpt>
      <trkpt lat="54.02327" lon="14.75052">
        <ele>37.764325</ele>
        <time>2024-07-27T09:41:47.567Z</time>
      </trkpt>
      <trkpt lat="54.02331" lon="14.75067">
        <ele>37.749242</ele>
        <time>2024-07-27T09:41:49.563Z</time>
      </trkpt>
      <trkpt lat="54.02336" lon="14.75081">
        <ele>37.734544</ele>
        <time>2024-07-27T09:41:51.559Z</time>
      </trkpt>
      <trkpt lat="54.02342" lon="14.75094">
        <ele>37.720141</ele>
        <time>2024-07-27T09:41:53.581Z</time>
      </trkpt>
      <trkpt lat="54.02347" lon="14.75107">
        <ele>37.705991</ele>
        <time>2024-07-27T09:41:55.571Z</time>
      </trkpt>
      <trkpt lat="54.02353" lon="14.7512">
        <ele>37.691305</ele>
        <time>2024-07-27T09:41:57.572Z</time>
      </trkpt>
      <trkpt lat="54.02359" lon="14.75133">
        <ele>37.676484</ele>
        <time>2024-07-27T09:41:59.566Z</time>
      </trkpt>
      <trkpt lat="54.02364" lon="14.75147">
        <ele>37.661454</ele>
        <time>2024-07-27T09:42:01.564Z</time>
      </trkpt>
      <trkpt lat="54.0237" lon="14.75162">
        <ele>37.64537</ele>
        <time>2024-07-27T09:42:03.573Z</time>
      </trkpt>
      <trkpt lat="54.02376" lon="14.75176">
        <ele>37.629464</ele>
        <time>2024-07-27T09:42:05.561Z</time>
      </trkpt>
      <trkpt lat="54.02383" lon="14.75191">
        <ele>37.612001</ele>
        <time>2024-07-27T09:42:07.562Z</time>
      </trkpt>
      <trkpt lat="54.0239" lon="14.75206">
        <ele>37.594986</ele>
        <time>2024-07-27T09:42:09.566Z</time>
      </trkpt>
      <trkpt lat="54.02397" lon="14.75221">
        <ele>37.578015</ele>
        <time>2024-07-27T09:42:11.571Z</time>
      </trkpt>
      <trkpt lat="54.02404" lon="14.75234">
        <ele>37.562036</ele>
        <time>2024-07-27T09:42:13.560Z</time>
      </trkpt>
      <trkpt lat="54.02413" lon="14.75245">
        <ele>37.546263</ele>
        <time>2024-07-27T09:42:15.557Z</time>
      </trkpt>
      <trkpt lat="54.02422" lon="14.75256">
        <ele>37.435723</ele>
        <time>2024-07-27T09:42:17.560Z</time>
      </trkpt>
      <trkpt lat="54.0243" lon="14.75268">
        <ele>37.231696</ele>
        <time>2024-07-27T09:42:19.549Z</time>
      </trkpt>
      <trkpt lat="54.02438" lon="14.7528">
        <ele>37.020222</ele>
        <time>2024-07-27T09:42:21.585Z</time>
      </trkpt>
      <trkpt lat="54.02447" lon="14.75292">
        <ele>36.807464</ele>
        <time>2024-07-27T09:42:23.558Z</time>
      </trkpt>
      <trkpt lat="54.02455" lon="14.75303">
        <ele>36.60988</ele>
        <time>2024-07-27T09:42:25.560Z</time>
      </trkpt>
      <trkpt lat="54.02463" lon="14.75315">
        <ele>36.406579</ele>
        <time>2024-07-27T09:42:27.572Z</time>
      </trkpt>
      <trkpt lat="54.02471" lon="14.75326">
        <ele>36.204751</ele>
        <time>2024-07-27T09:42:29.580Z</time>
      </trkpt>
      <trkpt lat="54.02479" lon="14.75338">
        <ele>36.009481</ele>
        <time>2024-07-27T09:42:31.578Z</time>
      </trkpt>
      <trkpt lat="54.02486" lon="14.75349">
        <ele>35.820669</ele>
        <time>2024-07-27T09:42:33.574Z</time>
      </trkpt>
      <trkpt lat="54.02494" lon="14.7536">
        <ele>35.634873</ele>
        <time>2024-07-27T09:42:35.566Z</time>
      </trkpt>
      <trkpt lat="54.02501" lon="14.75369">
        <ele>35.461363</ele>
        <time>2024-07-27T09:42:37.560Z</time>
      </trkpt>
      <trkpt lat="54.02508" lon="14.75378">
        <ele>35.286413</ele>
        <time>2024-07-27T09:42:39.560Z</time>
      </trkpt>
      <trkpt lat="54.02517" lon="14.75391">
        <ele>35.056892</ele>
        <time>2024-07-27T09:42:42.553Z</time>
      </trkpt>
      <trkpt lat="54.02528" lon="14.75405">
        <ele>34.807567</ele>
        <time>2024-07-27T09:42:45.569Z</time>
      </trkpt>
      <trkpt lat="54.02535" lon="14.75415">
        <ele>34.631045</ele>
        <time>2024-07-27T09:42:47.561Z</time>
      </trkpt>
      <trkpt lat="54.02543" lon="14.75425">
        <ele>34.436701</ele>
        <time>2024-07-27T09:42:49.559Z</time>
      </trkpt>
      <trkpt lat="54.02549" lon="14.75436">
        <ele>34.262389</ele>
        <time>2024-07-27T09:42:51.561Z</time>
      </trkpt>
      <trkpt lat="54.0256" lon="14.7545">
        <ele>34.074449</ele>
        <time>2024-07-27T09:42:54.568Z</time>
      </trkpt>
      <trkpt lat="54.02568" lon="14.75459">
        <ele>34.028309</ele>
        <time>2024-07-27T09:42:56.549Z</time>
      </trkpt>
      <trkpt lat="54.02578" lon="14.75471">
        <ele>33.96874</ele>
        <time>2024-07-27T09:42:59.574Z</time>
      </trkpt>
      <trkpt lat="54.02586" lon="14.75479">
        <ele>33.924496</ele>
        <time>2024-07-27T09:43:01.573Z</time>
      </trkpt>
      <trkpt lat="54.02596" lon="14.7549">
        <ele>33.87036</ele>
        <time>2024-07-27T09:43:04.547Z</time>
      </trkpt>
      <trkpt lat="54.02604" lon="14.75503">
        <ele>33.817978</ele>
        <time>2024-07-27T09:43:07.563Z</time>
      </trkpt>
      <trkpt lat="54.02614" lon="14.75515">
        <ele>33.759935</ele>
        <time>2024-07-27T09:43:10.570Z</time>
      </trkpt>
      <trkpt lat="54.02622" lon="14.75523">
        <ele>33.716094</ele>
        <time>2024-07-27T09:43:12.560Z</time>
      </trkpt>
      <trkpt lat="54.02632" lon="14.75536">
        <ele>33.656842</ele>
        <time>2024-07-27T09:43:15.584Z</time>
      </trkpt>
      <trkpt lat="54.02641" lon="14.75551">
        <ele>33.596401</ele>
        <time>2024-07-27T09:43:18.573Z</time>
      </trkpt>
      <trkpt lat="54.0265" lon="14.75565">
        <ele>33.538292</ele>
        <time>2024-07-27T09:43:21.555Z</time>
      </trkpt>
      <trkpt lat="54.02658" lon="14.75577">
        <ele>33.489644</ele>
        <time>2024-07-27T09:43:25.563Z</time>
      </trkpt>
      <trkpt lat="54.02663" lon="14.75596">
        <ele>33.432089</ele>
        <time>2024-07-27T09:43:30.557Z</time>
      </trkpt>
      <trkpt lat="54.0267" lon="14.7561">
        <ele>33.381393</ele>
        <time>2024-07-27T09:43:33.552Z</time>
      </trkpt>
      <trkpt lat="54.02677" lon="14.75626">
        <ele>33.327611</ele>
        <time>2024-07-27T09:43:36.553Z</time>
      </trkpt>
      <trkpt lat="54.02684" lon="14.75643">
        <ele>33.268692</ele>
        <time>2024-07-27T09:43:39.578Z</time>
      </trkpt>
      <trkpt lat="54.02691" lon="14.75661">
        <ele>33.216195</ele>
        <time>2024-07-27T09:43:42.559Z</time>
      </trkpt>
      <trkpt lat="54.02698" lon="14.75678">
        <ele>33.168317</ele>
        <time>2024-07-27T09:43:45.555Z</time>
      </trkpt>
      <trkpt lat="54.02705" lon="14.75696">
        <ele>33.118889</ele>
        <time>2024-07-27T09:43:48.617Z</time>
      </trkpt>
      <trkpt lat="54.0271" lon="14.7571">
        <ele>33.08295</ele>
        <time>2024-07-27T09:43:50.546Z</time>
      </trkpt>
      <trkpt lat="54.02715" lon="14.75723">
        <ele>33.047759</ele>
        <time>2024-07-27T09:43:52.560Z</time>
      </trkpt>
      <trkpt lat="54.0272" lon="14.75736">
        <ele>33.01219</ele>
        <time>2024-07-27T09:43:54.569Z</time>
      </trkpt>
      <trkpt lat="54.02725" lon="14.7575">
        <ele>32.975869</ele>
        <time>2024-07-27T09:43:56.563Z</time>
      </trkpt>
      <trkpt lat="54.0273" lon="14.75764">
        <ele>32.93945</ele>
        <time>2024-07-27T09:43:58.563Z</time>
      </trkpt>
      <trkpt lat="54.02735" lon="14.75777">
        <ele>32.904467</ele>
        <time>2024-07-27T09:44:00.553Z</time>
      </trkpt>
      <trkpt lat="54.0274" lon="14.7579">
        <ele>32.869697</ele>
        <time>2024-07-27T09:44:02.567Z</time>
      </trkpt>
      <trkpt lat="54.02744" lon="14.75804">
        <ele>32.833816</ele>
        <time>2024-07-27T09:44:04.567Z</time>
      </trkpt>
      <trkpt lat="54.02747" lon="14.75819">
        <ele>32.798857</ele>
        <time>2024-07-27T09:44:06.557Z</time>
      </trkpt>
      <trkpt lat="54.02749" lon="14.75835">
        <ele>32.760964</ele>
        <time>2024-07-27T09:44:08.542Z</time>
      </trkpt>
      <trkpt lat="54.0275" lon="14.75852">
        <ele>32.722801</ele>
        <time>2024-07-27T09:44:10.540Z</time>
      </trkpt>
      <trkpt lat="54.0275" lon="14.75869">
        <ele>32.68405</ele>
        <time>2024-07-27T09:44:12.554Z</time>
      </trkpt>
      <trkpt lat="54.0275" lon="14.75886">
        <ele>32.647106</ele>
        <time>2024-07-27T09:44:14.549Z</time>
      </trkpt>
      <trkpt lat="54.02749" lon="14.75902">
        <ele>32.609293</ele>
        <time>2024-07-27T09:44:16.569Z</time>
      </trkpt>
      <trkpt lat="54.02748" lon="14.75918">
        <ele>32.573122</ele>
        <time>2024-07-27T09:44:18.581Z</time>
      </trkpt>
      <trkpt lat="54.02747" lon="14.75934">
        <ele>32.618901</ele>
        <time>2024-07-27T09:44:20.573Z</time>
      </trkpt>
      <trkpt lat="54.02746" lon="14.75953">
        <ele>32.757629</ele>
        <time>2024-07-27T09:44:23.562Z</time>
      </trkpt>
      <trkpt lat="54.02744" lon="14.75974">
        <ele>32.910067</ele>
        <time>2024-07-27T09:44:26.572Z</time>
      </trkpt>
      <trkpt lat="54.02744" lon="14.75995">
        <ele>33.067946</ele>
        <time>2024-07-27T09:44:29.548Z</time>
      </trkpt>
      <trkpt lat="54.02742" lon="14.76016">
        <ele>33.223302</ele>
        <time>2024-07-27T09:44:32.558Z</time>
      </trkpt>
      <trkpt lat="54.02742" lon="14.76032">
        <ele>33.337798</ele>
        <time>2024-07-27T09:44:34.557Z</time>
      </trkpt>
      <trkpt lat="54.02742" lon="14.76048">
        <ele>33.457253</ele>
        <time>2024-07-27T09:44:36.573Z</time>
      </trkpt>
      <trkpt lat="54.02743" lon="14.76065">
        <ele>33.5806</ele>
        <time>2024-07-27T09:44:38.620Z</time>
      </trkpt>
      <trkpt lat="54.02743" lon="14.76083">
        <ele>33.710609</ele>
        <time>2024-07-27T09:44:40.559Z</time>
      </trkpt>
      <trkpt lat="54.02745" lon="14.761">
        <ele>33.83771</ele>
        <time>2024-07-27T09:44:42.569Z</time>
      </trkpt>
      <trkpt lat="54.02747" lon="14.76117">
        <ele>33.966979</ele>
        <time>2024-07-27T09:44:44.562Z</time>
      </trkpt>
      <trkpt lat="54.02748" lon="14.76133">
        <ele>34.085647</ele>
        <time>2024-07-27T09:44:46.572Z</time>
      </trkpt>
      <trkpt lat="54.0275" lon="14.7615">
        <ele>34.209651</ele>
        <time>2024-07-27T09:44:48.566Z</time>
      </trkpt>
      <trkpt lat="54.02752" lon="14.76167">
        <ele>34.332931</ele>
        <time>2024-07-27T09:44:50.559Z</time>
      </trkpt>
      <trkpt lat="54.02753" lon="14.76189">
        <ele>34.496442</ele>
        <time>2024-07-27T09:44:53.574Z</time>
      </trkpt>
      <trkpt lat="54.02756" lon="14.7621">
        <ele>34.656597</ele>
        <time>2024-07-27T09:44:56.562Z</time>
      </trkpt>
      <trkpt lat="54.02758" lon="14.76231">
        <ele>34.81196</ele>
        <time>2024-07-27T09:44:59.557Z</time>
      </trkpt>
      <trkpt lat="54.0276" lon="14.76253">
        <ele>34.954694</ele>
        <time>2024-07-27T09:45:02.585Z</time>
      </trkpt>
      <trkpt lat="54.02762" lon="14.76276">
        <ele>35.102471</ele>
        <time>2024-07-27T09:45:05.559Z</time>
      </trkpt>
      <trkpt lat="54.02764" lon="14.76298">
        <ele>35.244202</ele>
        <time>2024-07-27T09:45:08.564Z</time>
      </trkpt>
      <trkpt lat="54.02766" lon="14.76318">
        <ele>35.379603</ele>
        <time>2024-07-27T09:45:11.555Z</time>
      </trkpt>
      <trkpt lat="54.02769" lon="14.7634">
        <ele>35.525285</ele>
        <time>2024-07-27T09:45:14.547Z</time>
      </trkpt>
      <trkpt lat="54.02775" lon="14.76359">
        <ele>35.664366</ele>
        <time>2024-07-27T09:45:17.559Z</time>
      </trkpt>
      <trkpt lat="54.02786" lon="14.7637">
        <ele>35.80694</ele>
        <time>2024-07-27T09:45:20.561Z</time>
      </trkpt>
      <trkpt lat="54.02795" lon="14.76371">
        <ele>35.907384</ele>
        <time>2024-07-27T09:45:22.547Z</time>
      </trkpt>
      <trkpt lat="54.02805" lon="14.7637">
        <ele>36.007397</ele>
        <time>2024-07-27T09:45:24.543Z</time>
      </trkpt>
      <trkpt lat="54.02817" lon="14.76369">
        <ele>36.145982</ele>
        <time>2024-07-27T09:45:27.568Z</time>
      </trkpt>
      <trkpt lat="54.02826" lon="14.76367">
        <ele>36.246575</ele>
        <time>2024-07-27T09:45:29.538Z</time>
      </trkpt>
      <trkpt lat="54.0284" lon="14.76364">
        <ele>36.394865</ele>
        <time>2024-07-27T09:45:32.556Z</time>
      </trkpt>
      <trkpt lat="54.02852" lon="14.76363">
        <ele>36.53536</ele>
        <time>2024-07-27T09:45:35.577Z</time>
      </trkpt>
      <trkpt lat="54.02861" lon="14.76366">
        <ele>36.635312</ele>
        <time>2024-07-27T09:45:37.564Z</time>
      </trkpt>
      <trkpt lat="54.02874" lon="14.76371">
        <ele>36.768759</ele>
        <time>2024-07-27T09:45:40.546Z</time>
      </trkpt>
      <trkpt lat="54.02885" lon="14.76384">
        <ele>36.679661</ele>
        <time>2024-07-27T09:45:43.551Z</time>
      </trkpt>
      <trkpt lat="54.02893" lon="14.76401">
        <ele>36.587882</ele>
        <time>2024-07-27T09:45:46.545Z</time>
      </trkpt>
      <trkpt lat="54.02898" lon="14.7642">
        <ele>36.504311</ele>
        <time>2024-07-27T09:45:49.572Z</time>
      </trkpt>
      <trkpt lat="54.02903" lon="14.76439">
        <ele>36.422715</ele>
        <time>2024-07-27T09:45:52.572Z</time>
      </trkpt>
      <trkpt lat="54.02906" lon="14.76456">
        <ele>36.350591</ele>
        <time>2024-07-27T09:45:55.559Z</time>
      </trkpt>
      <trkpt lat="54.02913" lon="14.76469">
        <ele>36.278391</ele>
        <time>2024-07-27T09:45:58.562Z</time>
      </trkpt>
      <trkpt lat="54.02917" lon="14.76487">
        <ele>36.196527</ele>
        <time>2024-07-27T09:46:01.562Z</time>
      </trkpt>
      <trkpt lat="54.02919" lon="14.76503">
        <ele>36.129992</ele>
        <time>2024-07-27T09:46:04.555Z</time>
      </trkpt>
      <trkpt lat="54.02922" lon="14.76519">
        <ele>36.064075</ele>
        <time>2024-07-27T09:46:07.564Z</time>
      </trkpt>
      <trkpt lat="54.02925" lon="14.76539">
        <ele>35.978503</ele>
        <time>2024-07-27T09:46:10.569Z</time>
      </trkpt>
      <trkpt lat="54.02929" lon="14.76561">
        <ele>35.888211</ele>
        <time>2024-07-27T09:46:13.574Z</time>
      </trkpt>
      <trkpt lat="54.02931" lon="14.76576">
        <ele>35.82342</ele>
        <time>2024-07-27T09:46:15.570Z</time>
      </trkpt>
      <trkpt lat="54.02932" lon="14.76593">
        <ele>35.753257</ele>
        <time>2024-07-27T09:46:17.561Z</time>
      </trkpt>
      <trkpt lat="54.02934" lon="14.76609">
        <ele>35.689716</ele>
        <time>2024-07-27T09:46:19.563Z</time>
      </trkpt>
      <trkpt lat="54.02936" lon="14.76625">
        <ele>35.621295</ele>
        <time>2024-07-27T09:46:21.575Z</time>
      </trkpt>
      <trkpt lat="54.0294" lon="14.76642">
        <ele>35.547869</ele>
        <time>2024-07-27T09:46:23.565Z</time>
      </trkpt>
      <trkpt lat="54.02944" lon="14.7666">
        <ele>35.538666</ele>
        <time>2024-07-27T09:46:25.562Z</time>
      </trkpt>
      <trkpt lat="54.02946" lon="14.76679">
        <ele>35.550398</ele>
        <time>2024-07-27T09:46:27.555Z</time>
      </trkpt>
      <trkpt lat="54.02948" lon="14.76697">
        <ele>35.561939</ele>
        <time>2024-07-27T09:46:29.548Z</time>
      </trkpt>
      <trkpt lat="54.02951" lon="14.76715">
        <ele>35.573481</ele>
        <time>2024-07-27T09:46:31.549Z</time>
      </trkpt>
      <trkpt lat="54.02953" lon="14.76733">
        <ele>35.584601</ele>
        <time>2024-07-27T09:46:33.547Z</time>
      </trkpt>
      <trkpt lat="54.02956" lon="14.76751">
        <ele>35.596069</ele>
        <time>2024-07-27T09:46:35.564Z</time>
      </trkpt>
      <trkpt lat="54.02958" lon="14.76769">
        <ele>35.607477</ele>
        <time>2024-07-27T09:46:37.589Z</time>
      </trkpt>
      <trkpt lat="54.02961" lon="14.76786">
        <ele>35.618338</ele>
        <time>2024-07-27T09:46:39.574Z</time>
      </trkpt>
      <trkpt lat="54.02963" lon="14.76803">
        <ele>35.629378</ele>
        <time>2024-07-27T09:46:41.551Z</time>
      </trkpt>
      <trkpt lat="54.02966" lon="14.7682">
        <ele>35.640267</ele>
        <time>2024-07-27T09:46:43.547Z</time>
      </trkpt>
      <trkpt lat="54.02969" lon="14.76838">
        <ele>35.651387</ele>
        <time>2024-07-27T09:46:45.549Z</time>
      </trkpt>
      <trkpt lat="54.02971" lon="14.76854">
        <ele>35.661846</ele>
        <time>2024-07-27T09:46:47.552Z</time>
      </trkpt>
      <trkpt lat="54.02974" lon="14.76871">
        <ele>35.672502</ele>
        <time>2024-07-27T09:46:49.570Z</time>
      </trkpt>
      <trkpt lat="54.02976" lon="14.76887">
        <ele>35.68263</ele>
        <time>2024-07-27T09:46:51.564Z</time>
      </trkpt>
      <trkpt lat="54.02978" lon="14.76903">
        <ele>35.692632</ele>
        <time>2024-07-27T09:46:53.562Z</time>
      </trkpt>
      <trkpt lat="54.0298" lon="14.76918">
        <ele>35.702239</ele>
        <time>2024-07-27T09:46:55.557Z</time>
      </trkpt>
      <trkpt lat="54.02984" lon="14.76941">
        <ele>35.716709</ele>
        <time>2024-07-27T09:46:58.551Z</time>
      </trkpt>
      <trkpt lat="54.02984" lon="14.76963">
        <ele>35.628774</ele>
        <time>2024-07-27T09:47:01.555Z</time>
      </trkpt>
      <trkpt lat="54.02987" lon="14.76984">
        <ele>35.527305</ele>
        <time>2024-07-27T09:47:04.545Z</time>
      </trkpt>
      <trkpt lat="54.02986" lon="14.77">
        <ele>35.456464</ele>
        <time>2024-07-27T09:47:06.560Z</time>
      </trkpt>
      <trkpt lat="54.02985" lon="14.77016">
        <ele>35.381851</ele>
        <time>2024-07-27T09:47:08.585Z</time>
      </trkpt>
      <trkpt lat="54.02985" lon="14.77031">
        <ele>35.309499</ele>
        <time>2024-07-27T09:47:10.544Z</time>
      </trkpt>
      <trkpt lat="54.02985" lon="14.77048">
        <ele>35.233095</ele>
        <time>2024-07-27T09:47:12.543Z</time>
      </trkpt>
      <trkpt lat="54.02985" lon="14.77065">
        <ele>35.157163</ele>
        <time>2024-07-27T09:47:14.548Z</time>
      </trkpt>
      <trkpt lat="54.02984" lon="14.77081">
        <ele>35.082353</ele>
        <time>2024-07-27T09:47:16.544Z</time>
      </trkpt>
      <trkpt lat="54.02982" lon="14.77104">
        <ele>34.97421</ele>
        <time>2024-07-27T09:47:19.553Z</time>
      </trkpt>
      <trkpt lat="54.02981" lon="14.77121">
        <ele>34.8963</ele>
        <time>2024-07-27T09:47:21.562Z</time>
      </trkpt>
      <trkpt lat="54.02981" lon="14.77138">
        <ele>34.818008</ele>
        <time>2024-07-27T09:47:23.543Z</time>
      </trkpt>
      <trkpt lat="54.02981" lon="14.77153">
        <ele>34.746678</ele>
        <time>2024-07-27T09:47:25.542Z</time>
      </trkpt>
      <trkpt lat="54.02981" lon="14.7717">
        <ele>34.670274</ele>
        <time>2024-07-27T09:47:27.543Z</time>
      </trkpt>
      <trkpt lat="54.0298" lon="14.77186">
        <ele>34.596542</ele>
        <time>2024-07-27T09:47:29.555Z</time>
      </trkpt>
      <trkpt lat="54.0298" lon="14.77203">
        <ele>34.517819</ele>
        <time>2024-07-27T09:47:31.558Z</time>
      </trkpt>
      <trkpt lat="54.0298" lon="14.7722">
        <ele>34.440954</ele>
        <time>2024-07-27T09:47:33.564Z</time>
      </trkpt>
      <trkpt lat="54.02979" lon="14.77236">
        <ele>34.366341</ele>
        <time>2024-07-27T09:47:35.568Z</time>
      </trkpt>
      <trkpt lat="54.02979" lon="14.77252">
        <ele>34.318931</ele>
        <time>2024-07-27T09:47:37.565Z</time>
      </trkpt>
      <trkpt lat="54.02979" lon="14.77269">
        <ele>34.361321</ele>
        <time>2024-07-27T09:47:39.556Z</time>
      </trkpt>
      <trkpt lat="54.02979" lon="14.77285">
        <ele>34.402457</ele>
        <time>2024-07-27T09:47:41.539Z</time>
      </trkpt>
      <trkpt lat="54.02979" lon="14.77303">
        <ele>34.447377</ele>
        <time>2024-07-27T09:47:43.561Z</time>
      </trkpt>
      <trkpt lat="54.02979" lon="14.7732">
        <ele>34.490026</ele>
        <time>2024-07-27T09:47:45.574Z</time>
      </trkpt>
      <trkpt lat="54.02979" lon="14.77338">
        <ele>34.53393</ele>
        <time>2024-07-27T09:47:47.560Z</time>
      </trkpt>
      <trkpt lat="54.02979" lon="14.77354">
        <ele>34.574804</ele>
        <time>2024-07-27T09:47:49.556Z</time>
      </trkpt>
      <trkpt lat="54.02979" lon="14.77371">
        <ele>34.617195</ele>
        <time>2024-07-27T09:47:51.553Z</time>
      </trkpt>
      <trkpt lat="54.02978" lon="14.77387">
        <ele>34.659617</ele>
        <time>2024-07-27T09:47:53.561Z</time>
      </trkpt>
      <trkpt lat="54.02978" lon="14.77404">
        <ele>34.702564</ele>
        <time>2024-07-27T09:47:55.567Z</time>
      </trkpt>
      <trkpt lat="54.02978" lon="14.77421">
        <ele>34.745207</ele>
        <time>2024-07-27T09:47:57.569Z</time>
      </trkpt>
      <trkpt lat="54.02977" lon="14.77438">
        <ele>34.786606</ele>
        <time>2024-07-27T09:47:59.558Z</time>
      </trkpt>
      <trkpt lat="54.02977" lon="14.77454">
        <ele>34.827768</ele>
        <time>2024-07-27T09:48:01.579Z</time>
      </trkpt>
      <trkpt lat="54.02977" lon="14.7747">
        <ele>34.868663</ele>
        <time>2024-07-27T09:48:03.571Z</time>
      </trkpt>
      <trkpt lat="54.02976" lon="14.77493">
        <ele>34.925952</ele>
        <time>2024-07-27T09:48:06.563Z</time>
      </trkpt>
      <trkpt lat="54.02976" lon="14.77509">
        <ele>34.966576</ele>
        <time>2024-07-27T09:48:08.583Z</time>
      </trkpt>
      <trkpt lat="54.02976" lon="14.77525">
        <ele>35.006191</ele>
        <time>2024-07-27T09:48:10.556Z</time>
      </trkpt>
      <trkpt lat="54.02976" lon="14.77541">
        <ele>35.047075</ele>
        <time>2024-07-27T09:48:12.571Z</time>
      </trkpt>
      <trkpt lat="54.02976" lon="14.77557">
        <ele>35.089253</ele>
        <time>2024-07-27T09:48:14.559Z</time>
      </trkpt>
      <trkpt lat="54.02977" lon="14.77573">
        <ele>35.132613</ele>
        <time>2024-07-27T09:48:16.574Z</time>
      </trkpt>
      <trkpt lat="54.02976" lon="14.77591">
        <ele>35.180891</ele>
        <time>2024-07-27T09:48:18.583Z</time>
      </trkpt>
      <trkpt lat="54.02975" lon="14.77607">
        <ele>35.224985</ele>
        <time>2024-07-27T09:48:20.540Z</time>
      </trkpt>
      <trkpt lat="54.02974" lon="14.77624">
        <ele>35.271481</ele>
        <time>2024-07-27T09:48:22.558Z</time>
      </trkpt>
      <trkpt lat="54.02975" lon="14.77641">
        <ele>35.318475</ele>
        <time>2024-07-27T09:48:24.548Z</time>
      </trkpt>
      <trkpt lat="54.02976" lon="14.77658">
        <ele>35.366104</ele>
        <time>2024-07-27T09:48:26.556Z</time>
      </trkpt>
      <trkpt lat="54.02979" lon="14.77675">
        <ele>35.412061</ele>
        <time>2024-07-27T09:48:28.558Z</time>
      </trkpt>
      <trkpt lat="54.02981" lon="14.77691">
        <ele>35.456395</ele>
        <time>2024-07-27T09:48:30.559Z</time>
      </trkpt>
      <trkpt lat="54.02982" lon="14.77706">
        <ele>35.498672</ele>
        <time>2024-07-27T09:48:32.557Z</time>
      </trkpt>
      <trkpt lat="54.02984" lon="14.77722">
        <ele>35.542091</ele>
        <time>2024-07-27T09:48:34.549Z</time>
      </trkpt>
      <trkpt lat="54.02987" lon="14.77737">
        <ele>35.587371</ele>
        <time>2024-07-27T09:48:36.548Z</time>
      </trkpt>
      <trkpt lat="54.02992" lon="14.77752">
        <ele>35.63353</ele>
        <time>2024-07-27T09:48:38.570Z</time>
      </trkpt>
      <trkpt lat="54.02996" lon="14.77767">
        <ele>35.679796</ele>
        <time>2024-07-27T09:48:40.563Z</time>
      </trkpt>
      <trkpt lat="54.03" lon="14.77782">
        <ele>35.724528</ele>
        <time>2024-07-27T09:48:42.569Z</time>
      </trkpt>
      <trkpt lat="54.03005" lon="14.77796">
        <ele>35.767739</ele>
        <time>2024-07-27T09:48:44.566Z</time>
      </trkpt>
      <trkpt lat="54.03008" lon="14.77811">
        <ele>35.811749</ele>
        <time>2024-07-27T09:48:46.571Z</time>
      </trkpt>
      <trkpt lat="54.03013" lon="14.77826">
        <ele>35.85644</ele>
        <time>2024-07-27T09:48:48.568Z</time>
      </trkpt>
      <trkpt lat="54.03017" lon="14.77841">
        <ele>35.902598</ele>
        <time>2024-07-27T09:48:50.556Z</time>
      </trkpt>
      <trkpt lat="54.03021" lon="14.77856">
        <ele>35.815217</ele>
        <time>2024-07-27T09:48:52.566Z</time>
      </trkpt>
      <trkpt lat="54.03025" lon="14.7787">
        <ele>35.672435</ele>
        <time>2024-07-27T09:48:54.566Z</time>
      </trkpt>
      <trkpt lat="54.03029" lon="14.77884">
        <ele>35.533209</ele>
        <time>2024-07-27T09:48:56.561Z</time>
      </trkpt>
      <trkpt lat="54.03034" lon="14.77898">
        <ele>35.39424</ele>
        <time>2024-07-27T09:48:58.567Z</time>
      </trkpt>
      <trkpt lat="54.03039" lon="14.77913">
        <ele>35.250229</ele>
        <time>2024-07-27T09:49:00.566Z</time>
      </trkpt>
      <trkpt lat="54.03043" lon="14.77927">
        <ele>35.103634</ele>
        <time>2024-07-27T09:49:02.566Z</time>
      </trkpt>
      <trkpt lat="54.03047" lon="14.77942">
        <ele>34.958607</ele>
        <time>2024-07-27T09:49:04.559Z</time>
      </trkpt>
      <trkpt lat="54.03052" lon="14.77956">
        <ele>34.816004</ele>
        <time>2024-07-27T09:49:06.560Z</time>
      </trkpt>
      <trkpt lat="54.03056" lon="14.77971">
        <ele>34.672798</ele>
        <time>2024-07-27T09:49:08.568Z</time>
      </trkpt>
      <trkpt lat="54.0306" lon="14.77986">
        <ele>34.528315</ele>
        <time>2024-07-27T09:49:10.557Z</time>
      </trkpt>
      <trkpt lat="54.03064" lon="14.78001">
        <ele>34.384623</ele>
        <time>2024-07-27T09:49:12.572Z</time>
      </trkpt>
      <trkpt lat="54.03068" lon="14.78015">
        <ele>34.248002</ele>
        <time>2024-07-27T09:49:14.568Z</time>
      </trkpt>
      <trkpt lat="54.03073" lon="14.78029">
        <ele>34.110491</ele>
        <time>2024-07-27T09:49:16.561Z</time>
      </trkpt>
      <trkpt lat="54.03076" lon="14.78043">
        <ele>33.971903</ele>
        <time>2024-07-27T09:49:18.572Z</time>
      </trkpt>
      <trkpt lat="54.03081" lon="14.78057">
        <ele>33.831682</ele>
        <time>2024-07-27T09:49:20.559Z</time>
      </trkpt>
      <trkpt lat="54.03086" lon="14.78071">
        <ele>33.690627</ele>
        <time>2024-07-27T09:49:22.539Z</time>
      </trkpt>
      <trkpt lat="54.0309" lon="14.78086">
        <ele>33.541106</ele>
        <time>2024-07-27T09:49:24.557Z</time>
      </trkpt>
      <trkpt lat="54.03094" lon="14.78101">
        <ele>33.398699</ele>
        <time>2024-07-27T09:49:26.561Z</time>
      </trkpt>
      <trkpt lat="54.03099" lon="14.78115">
        <ele>33.25289</ele>
        <time>2024-07-27T09:49:28.572Z</time>
      </trkpt>
      <trkpt lat="54.03102" lon="14.7813">
        <ele>33.167676</ele>
        <time>2024-07-27T09:49:30.546Z</time>
      </trkpt>
      <trkpt lat="54.03106" lon="14.78144">
        <ele>33.098848</ele>
        <time>2024-07-27T09:49:32.537Z</time>
      </trkpt>
      <trkpt lat="54.0311" lon="14.78158">
        <ele>33.028743</ele>
        <time>2024-07-27T09:49:34.553Z</time>
      </trkpt>
      <trkpt lat="54.03114" lon="14.78173">
        <ele>32.956826</ele>
        <time>2024-07-27T09:49:36.579Z</time>
      </trkpt>
      <trkpt lat="54.03119" lon="14.78187">
        <ele>32.886477</ele>
        <time>2024-07-27T09:49:38.572Z</time>
      </trkpt>
      <trkpt lat="54.03123" lon="14.78201">
        <ele>32.813071</ele>
        <time>2024-07-27T09:49:40.566Z</time>
      </trkpt>
      <trkpt lat="54.03128" lon="14.78215">
        <ele>32.743153</ele>
        <time>2024-07-27T09:49:42.559Z</time>
      </trkpt>
      <trkpt lat="54.03132" lon="14.78229">
        <ele>32.675076</ele>
        <time>2024-07-27T09:49:44.577Z</time>
      </trkpt>
      <trkpt lat="54.03137" lon="14.78243">
        <ele>32.60192</ele>
        <time>2024-07-27T09:49:46.558Z</time>
      </trkpt>
      <trkpt lat="54.03141" lon="14.78258">
        <ele>32.531083</ele>
        <time>2024-07-27T09:49:48.595Z</time>
      </trkpt>
      <trkpt lat="54.03145" lon="14.78273">
        <ele>32.4585</ele>
        <time>2024-07-27T09:49:50.567Z</time>
      </trkpt>
      <trkpt lat="54.03149" lon="14.78287">
        <ele>32.385344</ele>
        <time>2024-07-27T09:49:52.562Z</time>
      </trkpt>
      <trkpt lat="54.03154" lon="14.78302">
        <ele>32.309662</ele>
        <time>2024-07-27T09:49:54.566Z</time>
      </trkpt>
      <trkpt lat="54.03158" lon="14.78316">
        <ele>32.241545</ele>
        <time>2024-07-27T09:49:56.564Z</time>
      </trkpt>
      <trkpt lat="54.03162" lon="14.78332">
        <ele>32.166863</ele>
        <time>2024-07-27T09:49:58.575Z</time>
      </trkpt>
      <trkpt lat="54.03166" lon="14.78346">
        <ele>32.092974</ele>
        <time>2024-07-27T09:50:00.572Z</time>
      </trkpt>
      <trkpt lat="54.03171" lon="14.78361">
        <ele>32.021098</ele>
        <time>2024-07-27T09:50:02.555Z</time>
      </trkpt>
      <trkpt lat="54.03175" lon="14.78375">
        <ele>31.950001</ele>
        <time>2024-07-27T09:50:04.568Z</time>
      </trkpt>
      <trkpt lat="54.03179" lon="14.78389">
        <ele>31.879745</ele>
        <time>2024-07-27T09:50:06.562Z</time>
      </trkpt>
      <trkpt lat="54.03183" lon="14.78404">
        <ele>31.889627</ele>
        <time>2024-07-27T09:50:08.562Z</time>
      </trkpt>
      <trkpt lat="54.03186" lon="14.78419">
        <ele>31.917462</ele>
        <time>2024-07-27T09:50:10.563Z</time>
      </trkpt>
      <trkpt lat="54.0319" lon="14.78434">
        <ele>31.946028</ele>
        <time>2024-07-27T09:50:12.553Z</time>
      </trkpt>
      <trkpt lat="54.03193" lon="14.78449">
        <ele>31.975007</ele>
        <time>2024-07-27T09:50:14.576Z</time>
      </trkpt>
      <trkpt lat="54.03197" lon="14.78464">
        <ele>32.00377</ele>
        <time>2024-07-27T09:50:16.554Z</time>
      </trkpt>
      <trkpt lat="54.032" lon="14.78479">
        <ele>32.031835</ele>
        <time>2024-07-27T09:50:18.564Z</time>
      </trkpt>
      <trkpt lat="54.03203" lon="14.78494">
        <ele>32.059008</ele>
        <time>2024-07-27T09:50:20.560Z</time>
      </trkpt>
      <trkpt lat="54.03206" lon="14.78508">
        <ele>32.086236</ele>
        <time>2024-07-27T09:50:22.558Z</time>
      </trkpt>
      <trkpt lat="54.0321" lon="14.78523">
        <ele>32.114285</ele>
        <time>2024-07-27T09:50:24.567Z</time>
      </trkpt>
      <trkpt lat="54.03213" lon="14.78538">
        <ele>32.14272</ele>
        <time>2024-07-27T09:50:26.559Z</time>
      </trkpt>
      <trkpt lat="54.03217" lon="14.78553">
        <ele>32.170715</ele>
        <time>2024-07-27T09:50:28.562Z</time>
      </trkpt>
      <trkpt lat="54.0322" lon="14.78568">
        <ele>32.199969</ele>
        <time>2024-07-27T09:50:30.560Z</time>
      </trkpt>
      <trkpt lat="54.03224" lon="14.78584">
        <ele>32.229834</ele>
        <time>2024-07-27T09:50:32.562Z</time>
      </trkpt>
      <trkpt lat="54.03227" lon="14.78599">
        <ele>32.25806</ele>
        <time>2024-07-27T09:50:34.555Z</time>
      </trkpt>
      <trkpt lat="54.03231" lon="14.78614">
        <ele>32.287806</ele>
        <time>2024-07-27T09:50:36.560Z</time>
      </trkpt>
      <trkpt lat="54.03234" lon="14.78629">
        <ele>32.316138</ele>
        <time>2024-07-27T09:50:38.569Z</time>
      </trkpt>
      <trkpt lat="54.03238" lon="14.78644">
        <ele>32.344365</ele>
        <time>2024-07-27T09:50:40.565Z</time>
      </trkpt>
      <trkpt lat="54.03242" lon="14.78659">
        <ele>32.373317</ele>
        <time>2024-07-27T09:50:42.560Z</time>
      </trkpt>
      <trkpt lat="54.03245" lon="14.78673">
        <ele>32.400896</ele>
        <time>2024-07-27T09:50:44.554Z</time>
      </trkpt>
      <trkpt lat="54.03249" lon="14.78688">
        <ele>32.461452</ele>
        <time>2024-07-27T09:50:46.569Z</time>
      </trkpt>
      <trkpt lat="54.03253" lon="14.78709">
        <ele>32.562459</ele>
        <time>2024-07-27T09:50:49.568Z</time>
      </trkpt>
      <trkpt lat="54.03258" lon="14.78729">
        <ele>32.660346</ele>
        <time>2024-07-27T09:50:52.573Z</time>
      </trkpt>
      <trkpt lat="54.03262" lon="14.78744">
        <ele>32.732982</ele>
        <time>2024-07-27T09:50:54.569Z</time>
      </trkpt>
      <trkpt lat="54.03265" lon="14.78758">
        <ele>32.804153</ele>
        <time>2024-07-27T09:50:56.553Z</time>
      </trkpt>
      <trkpt lat="54.0327" lon="14.78779">
        <ele>32.9041</ele>
        <time>2024-07-27T09:50:59.559Z</time>
      </trkpt>
      <trkpt lat="54.03274" lon="14.78798">
        <ele>32.999556</ele>
        <time>2024-07-27T09:51:02.540Z</time>
      </trkpt>
      <trkpt lat="54.03279" lon="14.78819">
        <ele>33.099539</ele>
        <time>2024-07-27T09:51:05.569Z</time>
      </trkpt>
      <trkpt lat="54.03283" lon="14.7884">
        <ele>33.198514</ele>
        <time>2024-07-27T09:51:08.586Z</time>
      </trkpt>
      <trkpt lat="54.03287" lon="14.78855">
        <ele>33.270385</ele>
        <time>2024-07-27T09:51:10.567Z</time>
      </trkpt>
      <trkpt lat="54.0329" lon="14.78869">
        <ele>33.342121</ele>
        <time>2024-07-27T09:51:12.559Z</time>
      </trkpt>
      <trkpt lat="54.03294" lon="14.78885">
        <ele>33.415833</ele>
        <time>2024-07-27T09:51:14.561Z</time>
      </trkpt>
      <trkpt lat="54.03297" lon="14.78899">
        <ele>33.486309</ele>
        <time>2024-07-27T09:51:16.559Z</time>
      </trkpt>
      <trkpt lat="54.033" lon="14.78914">
        <ele>33.559023</ele>
        <time>2024-07-27T09:51:18.563Z</time>
      </trkpt>
      <trkpt lat="54.03303" lon="14.78929">
        <ele>33.629234</ele>
        <time>2024-07-27T09:51:20.561Z</time>
      </trkpt>
      <trkpt lat="54.03308" lon="14.7895">
        <ele>33.733553</ele>
        <time>2024-07-27T09:51:23.562Z</time>
      </trkpt>
      <trkpt lat="54.03312" lon="14.78964">
        <ele>33.796923</ele>
        <time>2024-07-27T09:51:25.552Z</time>
      </trkpt>
      <trkpt lat="54.03316" lon="14.78986">
        <ele>33.843115</ele>
        <time>2024-07-27T09:51:28.561Z</time>
      </trkpt>
      <trkpt lat="54.03322" lon="14.79007">
        <ele>33.889427</ele>
        <time>2024-07-27T09:51:31.567Z</time>
      </trkpt>
      <trkpt lat="54.03325" lon="14.79022">
        <ele>33.920559</ele>
        <time>2024-07-27T09:51:33.571Z</time>
      </trkpt>
      <trkpt lat="54.03329" lon="14.79043">
        <ele>33.965683</ele>
        <time>2024-07-27T09:51:36.552Z</time>
      </trkpt>
      <trkpt lat="54.0333" lon="14.7906">
        <ele>33.998881</ele>
        <time>2024-07-27T09:51:38.576Z</time>
      </trkpt>
      <trkpt lat="54.03332" lon="14.79075">
        <ele>34.0309</ele>
        <time>2024-07-27T09:51:40.566Z</time>
      </trkpt>
      <trkpt lat="54.03333" lon="14.79092">
        <ele>34.064001</ele>
        <time>2024-07-27T09:51:42.562Z</time>
      </trkpt>
      <trkpt lat="54.03335" lon="14.79114">
        <ele>34.109251</ele>
        <time>2024-07-27T09:51:45.582Z</time>
      </trkpt>
      <trkpt lat="54.03335" lon="14.7913">
        <ele>34.141382</ele>
        <time>2024-07-27T09:51:47.568Z</time>
      </trkpt>
      <trkpt lat="54.03336" lon="14.79146">
        <ele>34.173448</ele>
        <time>2024-07-27T09:51:49.577Z</time>
      </trkpt>
      <trkpt lat="54.03338" lon="14.79161">
        <ele>34.204052</ele>
        <time>2024-07-27T09:51:51.553Z</time>
      </trkpt>
      <trkpt lat="54.03339" lon="14.79184">
        <ele>34.250458</ele>
        <time>2024-07-27T09:51:54.568Z</time>
      </trkpt>
      <trkpt lat="54.0334" lon="14.792">
        <ele>34.28316</ele>
        <time>2024-07-27T09:51:56.572Z</time>
      </trkpt>
      <trkpt lat="54.03342" lon="14.79216">
        <ele>34.314916</ele>
        <time>2024-07-27T09:51:58.582Z</time>
      </trkpt>
      <trkpt lat="54.03344" lon="14.79232">
        <ele>34.348509</ele>
        <time>2024-07-27T09:52:00.557Z</time>
      </trkpt>
      <trkpt lat="54.03345" lon="14.79248">
        <ele>34.379812</ele>
        <time>2024-07-27T09:52:02.569Z</time>
      </trkpt>
      <trkpt lat="54.03347" lon="14.79263">
        <ele>34.394337</ele>
        <time>2024-07-27T09:52:04.577Z</time>
      </trkpt>
      <trkpt lat="54.03348" lon="14.79279">
        <ele>34.319489</ele>
        <time>2024-07-27T09:52:06.563Z</time>
      </trkpt>
      <trkpt lat="54.0335" lon="14.79295">
        <ele>34.244626</ele>
        <time>2024-07-27T09:52:08.567Z</time>
      </trkpt>
      <trkpt lat="54.03352" lon="14.79311">
        <ele>34.16805</ele>
        <time>2024-07-27T09:52:10.557Z</time>
      </trkpt>
      <trkpt lat="54.03353" lon="14.79327">
        <ele>34.094017</ele>
        <time>2024-07-27T09:52:12.558Z</time>
      </trkpt>
      <trkpt lat="54.03355" lon="14.79343">
        <ele>34.017177</ele>
        <time>2024-07-27T09:52:14.549Z</time>
      </trkpt>
      <trkpt lat="54.03356" lon="14.79359">
        <ele>33.94303</ele>
        <time>2024-07-27T09:52:16.567Z</time>
      </trkpt>
      <trkpt lat="54.03359" lon="14.79381">
        <ele>33.835639</ele>
        <time>2024-07-27T09:52:19.576Z</time>
      </trkpt>
      <trkpt lat="54.03359" lon="14.79397">
        <ele>33.763518</ele>
        <time>2024-07-27T09:52:21.577Z</time>
      </trkpt>
      <trkpt lat="54.03361" lon="14.79412">
        <ele>33.688763</ele>
        <time>2024-07-27T09:52:23.565Z</time>
      </trkpt>
      <trkpt lat="54.03362" lon="14.79429">
        <ele>33.610342</ele>
        <time>2024-07-27T09:52:25.577Z</time>
      </trkpt>
      <trkpt lat="54.03364" lon="14.79446">
        <ele>33.531374</ele>
        <time>2024-07-27T09:52:27.553Z</time>
      </trkpt>
      <trkpt lat="54.03366" lon="14.79462">
        <ele>33.453155</ele>
        <time>2024-07-27T09:52:29.573Z</time>
      </trkpt>
      <trkpt lat="54.03367" lon="14.79479">
        <ele>33.371502</ele>
        <time>2024-07-27T09:52:31.564Z</time>
      </trkpt>
      <trkpt lat="54.03369" lon="14.79496">
        <ele>33.293877</ele>
        <time>2024-07-27T09:52:33.556Z</time>
      </trkpt>
      <trkpt lat="54.0337" lon="14.79512">
        <ele>33.215681</ele>
        <time>2024-07-27T09:52:35.564Z</time>
      </trkpt>
      <trkpt lat="54.03372" lon="14.7953">
        <ele>33.132985</ele>
        <time>2024-07-27T09:52:37.562Z</time>
      </trkpt>
      <trkpt lat="54.03373" lon="14.79547">
        <ele>33.052369</ele>
        <time>2024-07-27T09:52:39.566Z</time>
      </trkpt>
      <trkpt lat="54.03375" lon="14.79564">
        <ele>32.978824</ele>
        <time>2024-07-27T09:52:41.543Z</time>
      </trkpt>
      <trkpt lat="54.03377" lon="14.79581">
        <ele>33.030072</ele>
        <time>2024-07-27T09:52:43.561Z</time>
      </trkpt>
      <trkpt lat="54.03378" lon="14.79599">
        <ele>33.081112</ele>
        <time>2024-07-27T09:52:45.564Z</time>
      </trkpt>
      <trkpt lat="54.0338" lon="14.79616">
        <ele>33.131351</ele>
        <time>2024-07-27T09:52:47.574Z</time>
      </trkpt>
      <trkpt lat="54.0338" lon="14.79634">
        <ele>33.183737</ele>
        <time>2024-07-27T09:52:49.573Z</time>
      </trkpt>
      <trkpt lat="54.0338" lon="14.79651">
        <ele>33.233808</ele>
        <time>2024-07-27T09:52:51.567Z</time>
      </trkpt>
      <trkpt lat="54.0338" lon="14.79669">
        <ele>33.285606</ele>
        <time>2024-07-27T09:52:53.563Z</time>
      </trkpt>
      <trkpt lat="54.0338" lon="14.79686">
        <ele>33.335366</ele>
        <time>2024-07-27T09:52:55.580Z</time>
      </trkpt>
      <trkpt lat="54.0338" lon="14.79704">
        <ele>33.388072</ele>
        <time>2024-07-27T09:52:57.566Z</time>
      </trkpt>
      <trkpt lat="54.0338" lon="14.79721">
        <ele>33.436377</ele>
        <time>2024-07-27T09:52:59.578Z</time>
      </trkpt>
      <trkpt lat="54.0338" lon="14.79737">
        <ele>33.485556</ele>
        <time>2024-07-27T09:53:01.558Z</time>
      </trkpt>
      <trkpt lat="54.0338" lon="14.79755">
        <ele>33.535317</ele>
        <time>2024-07-27T09:53:03.561Z</time>
      </trkpt>
      <trkpt lat="54.0338" lon="14.79771">
        <ele>33.584204</ele>
        <time>2024-07-27T09:53:05.559Z</time>
      </trkpt>
      <trkpt lat="54.0338" lon="14.7979">
        <ele>33.637172</ele>
        <time>2024-07-27T09:53:07.559Z</time>
      </trkpt>
      <trkpt lat="54.03379" lon="14.79809">
        <ele>33.693061</ele>
        <time>2024-07-27T09:53:09.579Z</time>
      </trkpt>
      <trkpt lat="54.03379" lon="14.79828">
        <ele>33.747786</ele>
        <time>2024-07-27T09:53:11.568Z</time>
      </trkpt>
      <trkpt lat="54.0338" lon="14.79845">
        <ele>33.79991</ele>
        <time>2024-07-27T09:53:13.559Z</time>
      </trkpt>
      <trkpt lat="54.03379" lon="14.79864">
        <ele>33.854053</ele>
        <time>2024-07-27T09:53:15.571Z</time>
      </trkpt>
      <trkpt lat="54.0338" lon="14.79882">
        <ele>33.878079</ele>
        <time>2024-07-27T09:53:17.563Z</time>
      </trkpt>
      <trkpt lat="54.0338" lon="14.79901">
        <ele>33.892657</ele>
        <time>2024-07-27T09:53:19.578Z</time>
      </trkpt>
      <trkpt lat="54.0338" lon="14.79918">
        <ele>33.906759</ele>
        <time>2024-07-27T09:53:21.579Z</time>
      </trkpt>
      <trkpt lat="54.0338" lon="14.79936">
        <ele>33.920464</ele>
        <time>2024-07-27T09:53:23.554Z</time>
      </trkpt>
      <trkpt lat="54.0338" lon="14.79953">
        <ele>33.934571</ele>
        <time>2024-07-27T09:53:25.575Z</time>
      </trkpt>
      <trkpt lat="54.0338" lon="14.79971">
        <ele>33.948208</ele>
        <time>2024-07-27T09:53:27.559Z</time>
      </trkpt>
      <trkpt lat="54.0338" lon="14.79989">
        <ele>33.962391</ele>
        <time>2024-07-27T09:53:29.564Z</time>
      </trkpt>
      <trkpt lat="54.03381" lon="14.80007">
        <ele>33.97684</ele>
        <time>2024-07-27T09:53:31.556Z</time>
      </trkpt>
      <trkpt lat="54.03381" lon="14.80022">
        <ele>33.989211</ele>
        <time>2024-07-27T09:53:33.578Z</time>
      </trkpt>
      <trkpt lat="54.03382" lon="14.80039">
        <ele>34.002839</ele>
        <time>2024-07-27T09:53:35.565Z</time>
      </trkpt>
      <trkpt lat="54.03384" lon="14.80057">
        <ele>34.016577</ele>
        <time>2024-07-27T09:53:37.560Z</time>
      </trkpt>
      <trkpt lat="54.03386" lon="14.80073">
        <ele>34.030002</ele>
        <time>2024-07-27T09:53:39.583Z</time>
      </trkpt>
      <trkpt lat="54.03388" lon="14.80089">
        <ele>34.042777</ele>
        <time>2024-07-27T09:53:41.559Z</time>
      </trkpt>
      <trkpt lat="54.03391" lon="14.80105">
        <ele>34.056013</ele>
        <time>2024-07-27T09:53:43.577Z</time>
      </trkpt>
      <trkpt lat="54.03393" lon="14.8012">
        <ele>34.068448</ele>
        <time>2024-07-27T09:53:45.559Z</time>
      </trkpt>
      <trkpt lat="54.03395" lon="14.80136">
        <ele>34.080994</ele>
        <time>2024-07-27T09:53:47.571Z</time>
      </trkpt>
      <trkpt lat="54.03399" lon="14.80157">
        <ele>34.09848</ele>
        <time>2024-07-27T09:53:50.574Z</time>
      </trkpt>
      <trkpt lat="54.03401" lon="14.80178">
        <ele>34.127681</ele>
        <time>2024-07-27T09:53:53.561Z</time>
      </trkpt>
      <trkpt lat="54.03404" lon="14.80199">
        <ele>34.179995</ele>
        <time>2024-07-27T09:53:56.564Z</time>
      </trkpt>
      <trkpt lat="54.03407" lon="14.8022">
        <ele>34.234084</ele>
        <time>2024-07-27T09:53:59.565Z</time>
      </trkpt>
      <trkpt lat="54.03411" lon="14.80241">
        <ele>34.288037</ele>
        <time>2024-07-27T09:54:02.572Z</time>
      </trkpt>
      <trkpt lat="54.03414" lon="14.80262">
        <ele>34.340305</ele>
        <time>2024-07-27T09:54:05.585Z</time>
      </trkpt>
      <trkpt lat="54.03417" lon="14.8028">
        <ele>34.388454</ele>
        <time>2024-07-27T09:54:08.574Z</time>
      </trkpt>
      <trkpt lat="54.0342" lon="14.80298">
        <ele>34.43282</ele>
        <time>2024-07-27T09:54:12.560Z</time>
      </trkpt>
      <trkpt lat="54.03413" lon="14.80314">
        <ele>34.482895</ele>
        <time>2024-07-27T09:54:17.553Z</time>
      </trkpt>
      <trkpt lat="54.03411" lon="14.8033">
        <ele>34.523872</ele>
        <time>2024-07-27T09:54:20.542Z</time>
      </trkpt>
      <trkpt lat="54.03415" lon="14.80347">
        <ele>34.566468</ele>
        <time>2024-07-27T09:54:23.556Z</time>
      </trkpt>
      <trkpt lat="54.03416" lon="14.80367">
        <ele>34.617143</ele>
        <time>2024-07-27T09:54:26.553Z</time>
      </trkpt>
      <trkpt lat="54.0342" lon="14.80384">
        <ele>34.661747</ele>
        <time>2024-07-27T09:54:29.558Z</time>
      </trkpt>
      <trkpt lat="54.03423" lon="14.80403">
        <ele>34.709993</ele>
        <time>2024-07-27T09:54:32.554Z</time>
      </trkpt>
      <trkpt lat="54.03426" lon="14.8042">
        <ele>34.753089</ele>
        <time>2024-07-27T09:54:35.568Z</time>
      </trkpt>
      <trkpt lat="54.03428" lon="14.80437">
        <ele>34.797795</ele>
        <time>2024-07-27T09:54:38.568Z</time>
      </trkpt>
      <trkpt lat="54.0343" lon="14.80455">
        <ele>34.843287</ele>
        <time>2024-07-27T09:54:41.569Z</time>
      </trkpt>
      <trkpt lat="54.03432" lon="14.80476">
        <ele>34.961409</ele>
        <time>2024-07-27T09:54:44.575Z</time>
      </trkpt>
      <trkpt lat="54.03435" lon="14.80495">
        <ele>35.10424</ele>
        <time>2024-07-27T09:54:47.559Z</time>
      </trkpt>
      <trkpt lat="54.03437" lon="14.80516">
        <ele>35.272146</ele>
        <time>2024-07-27T09:54:50.563Z</time>
      </trkpt>
      <trkpt lat="54.03438" lon="14.80538">
        <ele>35.438873</ele>
        <time>2024-07-27T09:54:53.547Z</time>
      </trkpt>
      <trkpt lat="54.03436" lon="14.80558">
        <ele>35.600796</ele>
        <time>2024-07-27T09:54:56.558Z</time>
      </trkpt>
      <trkpt lat="54.03431" lon="14.80579">
        <ele>35.768271</ele>
        <time>2024-07-27T09:54:59.552Z</time>
      </trkpt>
      <trkpt lat="54.03426" lon="14.80596">
        <ele>35.918962</ele>
        <time>2024-07-27T09:55:02.563Z</time>
      </trkpt>
      <trkpt lat="54.03417" lon="14.8061">
        <ele>36.077137</ele>
        <time>2024-07-27T09:55:05.561Z</time>
      </trkpt>
      <trkpt lat="54.03405" lon="14.80618">
        <ele>36.247923</ele>
        <time>2024-07-27T09:55:08.549Z</time>
      </trkpt>
      <trkpt lat="54.03393" lon="14.80626">
        <ele>36.419836</ele>
        <time>2024-07-27T09:55:11.573Z</time>
      </trkpt>
      <trkpt lat="54.03383" lon="14.80636">
        <ele>36.575109</ele>
        <time>2024-07-27T09:55:14.555Z</time>
      </trkpt>
      <trkpt lat="54.0337" lon="14.80645">
        <ele>36.749107</ele>
        <time>2024-07-27T09:55:17.563Z</time>
      </trkpt>
      <trkpt lat="54.03358" lon="14.8065">
        <ele>36.909964</ele>
        <time>2024-07-27T09:55:20.556Z</time>
      </trkpt>
      <trkpt lat="54.03348" lon="14.80656">
        <ele>37.052228</ele>
        <time>2024-07-27T09:55:23.581Z</time>
      </trkpt>
      <trkpt lat="54.03338" lon="14.80658">
        <ele>37.189436</ele>
        <time>2024-07-27T09:55:26.563Z</time>
      </trkpt>
      <trkpt lat="54.03327" lon="14.80662">
        <ele>37.022765</ele>
        <time>2024-07-27T09:55:30.550Z</time>
      </trkpt>
      <trkpt lat="54.03316" lon="14.8067">
        <ele>36.739847</ele>
        <time>2024-07-27T09:55:34.561Z</time>
      </trkpt>
      <trkpt lat="54.03305" lon="14.80676">
        <ele>36.49243</ele>
        <time>2024-07-27T09:55:37.591Z</time>
      </trkpt>
      <trkpt lat="54.03295" lon="14.80682">
        <ele>36.246779</ele>
        <time>2024-07-27T09:55:40.554Z</time>
      </trkpt>
      <trkpt lat="54.03284" lon="14.80688">
        <ele>35.978669</ele>
        <time>2024-07-27T09:55:43.561Z</time>
      </trkpt>
      <trkpt lat="54.03273" lon="14.80694">
        <ele>35.725278</ele>
        <time>2024-07-27T09:55:46.541Z</time>
      </trkpt>
      <trkpt lat="54.03265" lon="14.80704">
        <ele>35.493937</ele>
        <time>2024-07-27T09:55:50.583Z</time>
      </trkpt>
      <trkpt lat="54.03268" lon="14.80721">
        <ele>35.26504</ele>
        <time>2024-07-27T09:55:54.562Z</time>
      </trkpt>
      <trkpt lat="54.03267" lon="14.80738">
        <ele>35.040651</ele>
        <time>2024-07-27T09:55:57.558Z</time>
      </trkpt>
      <trkpt lat="54.0326" lon="14.8075">
        <ele>34.808554</ele>
        <time>2024-07-27T09:56:00.579Z</time>
      </trkpt>
      <trkpt lat="54.03254" lon="14.80765">
        <ele>34.579987</ele>
        <time>2024-07-27T09:56:03.566Z</time>
      </trkpt>
      <trkpt lat="54.03253" lon="14.80781">
        <ele>34.355357</ele>
        <time>2024-07-27T09:56:06.564Z</time>
      </trkpt>
      <trkpt lat="54.03252" lon="14.80804">
        <ele>34.059731</ele>
        <time>2024-07-27T09:56:09.561Z</time>
      </trkpt>
      <trkpt lat="54.03253" lon="14.80819">
        <ele>33.848702</ele>
        <time>2024-07-27T09:56:11.572Z</time>
      </trkpt>
      <trkpt lat="54.03254" lon="14.80836">
        <ele>33.633241</ele>
        <time>2024-07-27T09:56:13.582Z</time>
      </trkpt>
      <trkpt lat="54.03254" lon="14.80853">
        <ele>33.408976</ele>
        <time>2024-07-27T09:56:15.570Z</time>
      </trkpt>
      <trkpt lat="54.03255" lon="14.80868">
        <ele>33.198979</ele>
        <time>2024-07-27T09:56:17.578Z</time>
      </trkpt>
      <trkpt lat="54.03255" lon="14.80885">
        <ele>33.129853</ele>
        <time>2024-07-27T09:56:19.564Z</time>
      </trkpt>
      <trkpt lat="54.03255" lon="14.80901">
        <ele>33.097409</ele>
        <time>2024-07-27T09:56:21.576Z</time>
      </trkpt>
      <trkpt lat="54.03255" lon="14.80918">
        <ele>33.063537</ele>
        <time>2024-07-27T09:56:23.573Z</time>
      </trkpt>
      <trkpt lat="54.03257" lon="14.80934">
        <ele>33.029801</ele>
        <time>2024-07-27T09:56:25.564Z</time>
      </trkpt>
      <trkpt lat="54.03259" lon="14.80952">
        <ele>32.994317</ele>
        <time>2024-07-27T09:56:27.584Z</time>
      </trkpt>
      <trkpt lat="54.03259" lon="14.8097">
        <ele>32.95767</ele>
        <time>2024-07-27T09:56:29.578Z</time>
      </trkpt>
      <trkpt lat="54.03261" lon="14.80988">
        <ele>32.920066</ele>
        <time>2024-07-27T09:56:31.562Z</time>
      </trkpt>
      <trkpt lat="54.03264" lon="14.81006">
        <ele>32.883916</ele>
        <time>2024-07-27T09:56:33.548Z</time>
      </trkpt>
      <trkpt lat="54.03267" lon="14.81023">
        <ele>32.847681</ele>
        <time>2024-07-27T09:56:35.561Z</time>
      </trkpt>
      <trkpt lat="54.03271" lon="14.8104">
        <ele>32.810759</ele>
        <time>2024-07-27T09:56:37.574Z</time>
      </trkpt>
      <trkpt lat="54.03275" lon="14.81057">
        <ele>32.773692</ele>
        <time>2024-07-27T09:56:39.593Z</time>
      </trkpt>
      <trkpt lat="54.03279" lon="14.81074">
        <ele>32.736714</ele>
        <time>2024-07-27T09:56:41.580Z</time>
      </trkpt>
      <trkpt lat="54.03284" lon="14.8109">
        <ele>32.701936</ele>
        <time>2024-07-27T09:56:43.562Z</time>
      </trkpt>
      <trkpt lat="54.03289" lon="14.81104">
        <ele>32.668604</ele>
        <time>2024-07-27T09:56:45.563Z</time>
      </trkpt>
      <trkpt lat="54.03294" lon="14.81119">
        <ele>32.634755</ele>
        <time>2024-07-27T09:56:47.576Z</time>
      </trkpt>
      <trkpt lat="54.03299" lon="14.81134">
        <ele>32.600202</ele>
        <time>2024-07-27T09:56:49.554Z</time>
      </trkpt>
      <trkpt lat="54.03305" lon="14.81147">
        <ele>32.567493</ele>
        <time>2024-07-27T09:56:51.575Z</time>
      </trkpt>
      <trkpt lat="54.0331" lon="14.81161">
        <ele>32.550951</ele>
        <time>2024-07-27T09:56:53.567Z</time>
      </trkpt>
      <trkpt lat="54.03315" lon="14.81175">
        <ele>32.585054</ele>
        <time>2024-07-27T09:56:55.567Z</time>
      </trkpt>
      <trkpt lat="54.03321" lon="14.81188">
        <ele>32.618726</ele>
        <time>2024-07-27T09:56:57.549Z</time>
      </trkpt>
      <trkpt lat="54.03326" lon="14.81201">
        <ele>32.650714</ele>
        <time>2024-07-27T09:56:59.561Z</time>
      </trkpt>
      <trkpt lat="54.03331" lon="14.81215">
        <ele>32.684325</ele>
        <time>2024-07-27T09:57:01.567Z</time>
      </trkpt>
      <trkpt lat="54.03337" lon="14.81227">
        <ele>32.716676</ele>
        <time>2024-07-27T09:57:03.557Z</time>
      </trkpt>
      <trkpt lat="54.03342" lon="14.81241">
        <ele>32.749753</ele>
        <time>2024-07-27T09:57:05.567Z</time>
      </trkpt>
      <trkpt lat="54.03348" lon="14.81254">
        <ele>32.782466</ele>
        <time>2024-07-27T09:57:07.563Z</time>
      </trkpt>
      <trkpt lat="54.03353" lon="14.81268">
        <ele>32.816901</ele>
        <time>2024-07-27T09:57:09.568Z</time>
      </trkpt>
      <trkpt lat="54.03358" lon="14.81283">
        <ele>32.853137</ele>
        <time>2024-07-27T09:57:11.555Z</time>
      </trkpt>
      <trkpt lat="54.03364" lon="14.81298">
        <ele>32.88886</ele>
        <time>2024-07-27T09:57:13.583Z</time>
      </trkpt>
      <trkpt lat="54.0337" lon="14.81312">
        <ele>32.923496</ele>
        <time>2024-07-27T09:57:15.531Z</time>
      </trkpt>
      <trkpt lat="54.03375" lon="14.81327">
        <ele>32.959882</ele>
        <time>2024-07-27T09:57:17.585Z</time>
      </trkpt>
      <trkpt lat="54.0338" lon="14.81342">
        <ele>32.995722</ele>
        <time>2024-07-27T09:57:19.582Z</time>
      </trkpt>
      <trkpt lat="54.03385" lon="14.81357">
        <ele>33.030719</ele>
        <time>2024-07-27T09:57:21.556Z</time>
      </trkpt>
      <trkpt lat="54.03391" lon="14.81371">
        <ele>33.066132</ele>
        <time>2024-07-27T09:57:23.533Z</time>
      </trkpt>
      <trkpt lat="54.03396" lon="14.81387">
        <ele>33.103208</ele>
        <time>2024-07-27T09:57:25.532Z</time>
      </trkpt>
      <trkpt lat="54.03402" lon="14.81401">
        <ele>33.138698</ele>
        <time>2024-07-27T09:57:27.543Z</time>
      </trkpt>
      <trkpt lat="54.03407" lon="14.81417">
        <ele>33.197644</ele>
        <time>2024-07-27T09:57:29.577Z</time>
      </trkpt>
      <trkpt lat="54.03411" lon="14.81432">
        <ele>33.367174</ele>
        <time>2024-07-27T09:57:31.560Z</time>
      </trkpt>
      <trkpt lat="54.03416" lon="14.81448">
        <ele>33.542496</ele>
        <time>2024-07-27T09:57:33.561Z</time>
      </trkpt>
      <trkpt lat="54.0342" lon="14.81463">
        <ele>33.714559</ele>
        <time>2024-07-27T09:57:35.562Z</time>
      </trkpt>
      <trkpt lat="54.03424" lon="14.81478">
        <ele>33.880644</ele>
        <time>2024-07-27T09:57:37.560Z</time>
      </trkpt>
      <trkpt lat="54.03427" lon="14.81494">
        <ele>34.045599</ele>
        <time>2024-07-27T09:57:39.560Z</time>
      </trkpt>
      <trkpt lat="54.03432" lon="14.81509">
        <ele>34.216267</ele>
        <time>2024-07-27T09:57:41.543Z</time>
      </trkpt>
      <trkpt lat="54.03437" lon="14.81522">
        <ele>34.374798</ele>
        <time>2024-07-27T09:57:43.558Z</time>
      </trkpt>
      <trkpt lat="54.03441" lon="14.81536">
        <ele>34.530543</ele>
        <time>2024-07-27T09:57:45.556Z</time>
      </trkpt>
      <trkpt lat="54.03447" lon="14.81558">
        <ele>34.768883</ele>
        <time>2024-07-27T09:57:48.573Z</time>
      </trkpt>
      <trkpt lat="54.0345" lon="14.81572">
        <ele>34.924798</ele>
        <time>2024-07-27T09:57:50.578Z</time>
      </trkpt>
      <trkpt lat="54.03454" lon="14.81587">
        <ele>35.082584</ele>
        <time>2024-07-27T09:57:52.556Z</time>
      </trkpt>
      <trkpt lat="54.03457" lon="14.81601">
        <ele>35.237297</ele>
        <time>2024-07-27T09:57:54.563Z</time>
      </trkpt>
      <trkpt lat="54.03461" lon="14.81616">
        <ele>35.39397</ele>
        <time>2024-07-27T09:57:56.571Z</time>
      </trkpt>
      <trkpt lat="54.03465" lon="14.8163">
        <ele>35.556407</ele>
        <time>2024-07-27T09:57:58.566Z</time>
      </trkpt>
      <trkpt lat="54.03468" lon="14.81646">
        <ele>35.722304</ele>
        <time>2024-07-27T09:58:00.557Z</time>
      </trkpt>
      <trkpt lat="54.03472" lon="14.81662">
        <ele>35.897253</ele>
        <time>2024-07-27T09:58:02.557Z</time>
      </trkpt>
      <trkpt lat="54.03476" lon="14.81678">
        <ele>36.072052</ele>
        <time>2024-07-27T09:58:04.555Z</time>
      </trkpt>
      <trkpt lat="54.0348" lon="14.81694">
        <ele>36.23796</ele>
        <time>2024-07-27T09:58:06.580Z</time>
      </trkpt>
      <trkpt lat="54.03484" lon="14.8171">
        <ele>36.203244</ele>
        <time>2024-07-27T09:58:08.583Z</time>
      </trkpt>
      <trkpt lat="54.03488" lon="14.81726">
        <ele>36.167053</ele>
        <time>2024-07-27T09:58:10.550Z</time>
      </trkpt>
      <trkpt lat="54.03492" lon="14.81742">
        <ele>36.131055</ele>
        <time>2024-07-27T09:58:12.569Z</time>
      </trkpt>
      <trkpt lat="54.03496" lon="14.81758">
        <ele>36.096087</ele>
        <time>2024-07-27T09:58:14.579Z</time>
      </trkpt>
      <trkpt lat="54.035" lon="14.81773">
        <ele>36.061943</ele>
        <time>2024-07-27T09:58:16.554Z</time>
      </trkpt>
      <trkpt lat="54.03504" lon="14.81789">
        <ele>36.027494</ele>
        <time>2024-07-27T09:58:18.553Z</time>
      </trkpt>
      <trkpt lat="54.03508" lon="14.81804">
        <ele>35.992154</ele>
        <time>2024-07-27T09:58:20.570Z</time>
      </trkpt>
      <trkpt lat="54.03512" lon="14.8182">
        <ele>35.956814</ele>
        <time>2024-07-27T09:58:22.558Z</time>
      </trkpt>
      <trkpt lat="54.03516" lon="14.81835">
        <ele>35.92381</ele>
        <time>2024-07-27T09:58:24.554Z</time>
      </trkpt>
      <trkpt lat="54.03522" lon="14.81856">
        <ele>35.876157</ele>
        <time>2024-07-27T09:58:27.554Z</time>
      </trkpt>
      <trkpt lat="54.03525" lon="14.8187">
        <ele>35.844233</ele>
        <time>2024-07-27T09:58:29.578Z</time>
      </trkpt>
      <trkpt lat="54.0353" lon="14.81885">
        <ele>35.810618</ele>
        <time>2024-07-27T09:58:31.580Z</time>
      </trkpt>
      <trkpt lat="54.03534" lon="14.81901">
        <ele>35.774671</ele>
        <time>2024-07-27T09:58:33.576Z</time>
      </trkpt>
      <trkpt lat="54.03537" lon="14.81917">
        <ele>35.739094</ele>
        <time>2024-07-27T09:58:35.553Z</time>
      </trkpt>
      <trkpt lat="54.03539" lon="14.81934">
        <ele>35.704074</ele>
        <time>2024-07-27T09:58:37.564Z</time>
      </trkpt>
      <trkpt lat="54.03541" lon="14.81951">
        <ele>35.66916</ele>
        <time>2024-07-27T09:58:39.562Z</time>
      </trkpt>
      <trkpt lat="54.03542" lon="14.81966">
        <ele>35.637386</ele>
        <time>2024-07-27T09:58:41.558Z</time>
      </trkpt>
      <trkpt lat="54.03545" lon="14.81987">
        <ele>35.727537</ele>
        <time>2024-07-27T09:58:44.560Z</time>
      </trkpt>
      <trkpt lat="54.03547" lon="14.82002">
        <ele>35.923257</ele>
        <time>2024-07-27T09:58:46.571Z</time>
      </trkpt>
      <trkpt lat="54.03548" lon="14.82018">
        <ele>36.128304</ele>
        <time>2024-07-27T09:58:48.581Z</time>
      </trkpt>
      <trkpt lat="54.03549" lon="14.82034">
        <ele>36.335698</ele>
        <time>2024-07-27T09:58:50.569Z</time>
      </trkpt>
      <trkpt lat="54.0355" lon="14.82051">
        <ele>36.549423</ele>
        <time>2024-07-27T09:58:52.543Z</time>
      </trkpt>
      <trkpt lat="54.03552" lon="14.82068">
        <ele>36.759852</ele>
        <time>2024-07-27T09:58:54.551Z</time>
      </trkpt>
      <trkpt lat="54.03553" lon="14.82083">
        <ele>36.95983</ele>
        <time>2024-07-27T09:58:56.577Z</time>
      </trkpt>
      <trkpt lat="54.03554" lon="14.82099">
        <ele>37.159011</ele>
        <time>2024-07-27T09:58:58.571Z</time>
      </trkpt>
      <trkpt lat="54.03556" lon="14.82115">
        <ele>37.35953</ele>
        <time>2024-07-27T09:59:00.557Z</time>
      </trkpt>
      <trkpt lat="54.03558" lon="14.8213">
        <ele>37.559647</ele>
        <time>2024-07-27T09:59:02.558Z</time>
      </trkpt>
      <trkpt lat="54.03559" lon="14.82152">
        <ele>37.834239</ele>
        <time>2024-07-27T09:59:05.557Z</time>
      </trkpt>
      <trkpt lat="54.03561" lon="14.82174">
        <ele>38.114398</ele>
        <time>2024-07-27T09:59:08.580Z</time>
      </trkpt>
      <trkpt lat="54.03563" lon="14.82193">
        <ele>38.355375</ele>
        <time>2024-07-27T09:59:11.573Z</time>
      </trkpt>
      <trkpt lat="54.03565" lon="14.82212">
        <ele>38.600076</ele>
        <time>2024-07-27T09:59:14.565Z</time>
      </trkpt>
      <trkpt lat="54.03568" lon="14.8223">
        <ele>38.835342</ele>
        <time>2024-07-27T09:59:17.560Z</time>
      </trkpt>
      <trkpt lat="54.0357" lon="14.82247">
        <ele>39.056603</ele>
        <time>2024-07-27T09:59:20.555Z</time>
      </trkpt>
      <trkpt lat="54.03571" lon="14.82264">
        <ele>39.274079</ele>
        <time>2024-07-27T09:59:23.550Z</time>
      </trkpt>
      <trkpt lat="54.03572" lon="14.82281">
        <ele>39.48024</ele>
        <time>2024-07-27T09:59:26.552Z</time>
      </trkpt>
      <trkpt lat="54.03574" lon="14.82297">
        <ele>39.575834</ele>
        <time>2024-07-27T09:59:29.557Z</time>
      </trkpt>
      <trkpt lat="54.03576" lon="14.82314">
        <ele>39.68056</ele>
        <time>2024-07-27T09:59:32.550Z</time>
      </trkpt>
      <trkpt lat="54.03579" lon="14.82334">
        <ele>39.800803</ele>
        <time>2024-07-27T09:59:35.561Z</time>
      </trkpt>
      <trkpt lat="54.03582" lon="14.82354">
        <ele>39.922453</ele>
        <time>2024-07-27T09:59:38.567Z</time>
      </trkpt>
      <trkpt lat="54.03586" lon="14.82373">
        <ele>40.040871</ele>
        <time>2024-07-27T09:59:41.564Z</time>
      </trkpt>
      <trkpt lat="54.0359" lon="14.82392">
        <ele>40.159621</ele>
        <time>2024-07-27T09:59:44.558Z</time>
      </trkpt>
      <trkpt lat="54.03595" lon="14.82413">
        <ele>40.28566</ele>
        <time>2024-07-27T09:59:47.558Z</time>
      </trkpt>
      <trkpt lat="54.03599" lon="14.82433">
        <ele>40.412252</ele>
        <time>2024-07-27T09:59:50.546Z</time>
      </trkpt>
      <trkpt lat="54.03602" lon="14.82448">
        <ele>40.502193</ele>
        <time>2024-07-27T09:59:52.555Z</time>
      </trkpt>
      <trkpt lat="54.03605" lon="14.8247">
        <ele>40.636205</ele>
        <time>2024-07-27T09:59:55.563Z</time>
      </trkpt>
      <trkpt lat="54.03608" lon="14.82485">
        <ele>40.732332</ele>
        <time>2024-07-27T09:59:57.559Z</time>
      </trkpt>
      <trkpt lat="54.03612" lon="14.82501">
        <ele>40.834023</ele>
        <time>2024-07-27T09:59:59.572Z</time>
      </trkpt>
      <trkpt lat="54.03616" lon="14.82517">
        <ele>40.934389</ele>
        <time>2024-07-27T10:00:01.561Z</time>
      </trkpt>
      <trkpt lat="54.0362" lon="14.82533">
        <ele>41.037817</ele>
        <time>2024-07-27T10:00:03.571Z</time>
      </trkpt>
      <trkpt lat="54.03624" lon="14.82552">
        <ele>41.152036</ele>
        <time>2024-07-27T10:00:05.555Z</time>
      </trkpt>
      <trkpt lat="54.03627" lon="14.82569">
        <ele>41.261405</ele>
        <time>2024-07-27T10:00:07.568Z</time>
      </trkpt>
      <trkpt lat="54.03631" lon="14.82588">
        <ele>40.947372</ele>
        <time>2024-07-27T10:00:09.563Z</time>
      </trkpt>
      <trkpt lat="54.03636" lon="14.82607">
        <ele>40.596543</ele>
        <time>2024-07-27T10:00:11.564Z</time>
      </trkpt>
      <trkpt lat="54.0364" lon="14.82627">
        <ele>40.231162</ele>
        <time>2024-07-27T10:00:13.561Z</time>
      </trkpt>
      <trkpt lat="54.03645" lon="14.82646">
        <ele>39.867096</ele>
        <time>2024-07-27T10:00:15.560Z</time>
      </trkpt>
      <trkpt lat="54.03649" lon="14.82665">
        <ele>39.518886</ele>
        <time>2024-07-27T10:00:17.560Z</time>
      </trkpt>
      <trkpt lat="54.03653" lon="14.82685">
        <ele>39.163092</ele>
        <time>2024-07-27T10:00:19.559Z</time>
      </trkpt>
      <trkpt lat="54.03657" lon="14.82704">
        <ele>38.827834</ele>
        <time>2024-07-27T10:00:21.557Z</time>
      </trkpt>
      <trkpt lat="54.0366" lon="14.82723">
        <ele>38.472968</ele>
        <time>2024-07-27T10:00:23.560Z</time>
      </trkpt>
      <trkpt lat="54.03663" lon="14.82743">
        <ele>38.131304</ele>
        <time>2024-07-27T10:00:25.567Z</time>
      </trkpt>
      <trkpt lat="54.03665" lon="14.82763">
        <ele>37.780611</ele>
        <time>2024-07-27T10:00:27.556Z</time>
      </trkpt>
      <trkpt lat="54.03667" lon="14.82783">
        <ele>37.427772</ele>
        <time>2024-07-27T10:00:29.539Z</time>
      </trkpt>
      <trkpt lat="54.03669" lon="14.82803">
        <ele>37.083959</ele>
        <time>2024-07-27T10:00:31.555Z</time>
      </trkpt>
      <trkpt lat="54.03669" lon="14.82823">
        <ele>36.74255</ele>
        <time>2024-07-27T10:00:33.560Z</time>
      </trkpt>
      <trkpt lat="54.03671" lon="14.82841">
        <ele>36.425793</ele>
        <time>2024-07-27T10:00:35.573Z</time>
      </trkpt>
      <trkpt lat="54.03672" lon="14.8286">
        <ele>36.095032</ele>
        <time>2024-07-27T10:00:37.560Z</time>
      </trkpt>
      <trkpt lat="54.03672" lon="14.82878">
        <ele>35.876717</ele>
        <time>2024-07-27T10:00:39.579Z</time>
      </trkpt>
      <trkpt lat="54.03673" lon="14.82898">
        <ele>35.689991</ele>
        <time>2024-07-27T10:00:41.559Z</time>
      </trkpt>
      <trkpt lat="54.03674" lon="14.82917">
        <ele>35.505479</ele>
        <time>2024-07-27T10:00:43.561Z</time>
      </trkpt>
      <trkpt lat="54.03674" lon="14.82936">
        <ele>35.327425</ele>
        <time>2024-07-27T10:00:45.570Z</time>
      </trkpt>
      <trkpt lat="54.03674" lon="14.82954">
        <ele>35.154095</ele>
        <time>2024-07-27T10:00:47.564Z</time>
      </trkpt>
      <trkpt lat="54.03674" lon="14.82972">
        <ele>34.978913</ele>
        <time>2024-07-27T10:00:49.572Z</time>
      </trkpt>
      <trkpt lat="54.03674" lon="14.8299">
        <ele>34.802773</ele>
        <time>2024-07-27T10:00:51.559Z</time>
      </trkpt>
      <trkpt lat="54.03674" lon="14.83009">
        <ele>34.629481</ele>
        <time>2024-07-27T10:00:53.560Z</time>
      </trkpt>
      <trkpt lat="54.03675" lon="14.83027">
        <ele>34.449048</ele>
        <time>2024-07-27T10:00:55.556Z</time>
      </trkpt>
      <trkpt lat="54.03675" lon="14.83047">
        <ele>34.261401</ele>
        <time>2024-07-27T10:00:57.557Z</time>
      </trkpt>
      <trkpt lat="54.03676" lon="14.83065">
        <ele>34.084041</ele>
        <time>2024-07-27T10:00:59.557Z</time>
      </trkpt>
      <trkpt lat="54.03677" lon="14.83085">
        <ele>33.895969</ele>
        <time>2024-07-27T10:01:01.552Z</time>
      </trkpt>
      <trkpt lat="54.03678" lon="14.83104">
        <ele>33.708868</ele>
        <time>2024-07-27T10:01:03.562Z</time>
      </trkpt>
      <trkpt lat="54.03681" lon="14.83123">
        <ele>33.52212</ele>
        <time>2024-07-27T10:01:05.557Z</time>
      </trkpt>
      <trkpt lat="54.03683" lon="14.83143">
        <ele>33.33234</ele>
        <time>2024-07-27T10:01:07.567Z</time>
      </trkpt>
      <trkpt lat="54.03685" lon="14.83162">
        <ele>33.147823</ele>
        <time>2024-07-27T10:01:09.567Z</time>
      </trkpt>
      <trkpt lat="54.03689" lon="14.8318">
        <ele>33.068467</ele>
        <time>2024-07-27T10:01:11.571Z</time>
      </trkpt>
      <trkpt lat="54.03692" lon="14.83199">
        <ele>33.067953</ele>
        <time>2024-07-27T10:01:13.561Z</time>
      </trkpt>
      <trkpt lat="54.03696" lon="14.83217">
        <ele>33.067457</ele>
        <time>2024-07-27T10:01:15.554Z</time>
      </trkpt>
      <trkpt lat="54.037" lon="14.83234">
        <ele>33.066978</ele>
        <time>2024-07-27T10:01:17.564Z</time>
      </trkpt>
      <trkpt lat="54.03705" lon="14.8325">
        <ele>33.066498</ele>
        <time>2024-07-27T10:01:19.559Z</time>
      </trkpt>
      <trkpt lat="54.03711" lon="14.83267">
        <ele>33.066001</ele>
        <time>2024-07-27T10:01:21.558Z</time>
      </trkpt>
      <trkpt lat="54.03715" lon="14.83284">
        <ele>33.065508</ele>
        <time>2024-07-27T10:01:23.561Z</time>
      </trkpt>
      <trkpt lat="54.0372" lon="14.83302">
        <ele>33.065002</ele>
        <time>2024-07-27T10:01:25.550Z</time>
      </trkpt>
      <trkpt lat="54.03725" lon="14.83319">
        <ele>33.064513</ele>
        <time>2024-07-27T10:01:27.558Z</time>
      </trkpt>
      <trkpt lat="54.0373" lon="14.83336">
        <ele>33.064014</ele>
        <time>2024-07-27T10:01:29.559Z</time>
      </trkpt>
      <trkpt lat="54.03735" lon="14.83353">
        <ele>33.063525</ele>
        <time>2024-07-27T10:01:31.548Z</time>
      </trkpt>
      <trkpt lat="54.03739" lon="14.8337">
        <ele>33.063033</ele>
        <time>2024-07-27T10:01:33.557Z</time>
      </trkpt>
      <trkpt lat="54.03744" lon="14.83387">
        <ele>33.062541</ele>
        <time>2024-07-27T10:01:35.560Z</time>
      </trkpt>
      <trkpt lat="54.03749" lon="14.83403">
        <ele>33.062064</ele>
        <time>2024-07-27T10:01:37.563Z</time>
      </trkpt>
      <trkpt lat="54.03754" lon="14.83419">
        <ele>33.061599</ele>
        <time>2024-07-27T10:01:39.559Z</time>
      </trkpt>
      <trkpt lat="54.03758" lon="14.83435">
        <ele>33.061141</ele>
        <time>2024-07-27T10:01:41.556Z</time>
      </trkpt>
      <trkpt lat="54.03763" lon="14.83452">
        <ele>33.080877</ele>
        <time>2024-07-27T10:01:43.561Z</time>
      </trkpt>
      <trkpt lat="54.03767" lon="14.83468">
        <ele>33.157824</ele>
        <time>2024-07-27T10:01:45.558Z</time>
      </trkpt>
      <trkpt lat="54.03771" lon="14.83485">
        <ele>33.231262</ele>
        <time>2024-07-27T10:01:47.572Z</time>
      </trkpt>
      <trkpt lat="54.03774" lon="14.83502">
        <ele>33.304761</ele>
        <time>2024-07-27T10:01:49.557Z</time>
      </trkpt>
      <trkpt lat="54.03777" lon="14.83518">
        <ele>33.376652</ele>
        <time>2024-07-27T10:01:51.572Z</time>
      </trkpt>
      <trkpt lat="54.0378" lon="14.83535">
        <ele>33.451156</ele>
        <time>2024-07-27T10:01:53.558Z</time>
      </trkpt>
      <trkpt lat="54.03781" lon="14.83551">
        <ele>33.521546</ele>
        <time>2024-07-27T10:01:55.563Z</time>
      </trkpt>
      <trkpt lat="54.03783" lon="14.83568">
        <ele>33.594967</ele>
        <time>2024-07-27T10:01:57.563Z</time>
      </trkpt>
      <trkpt lat="54.03785" lon="14.83585">
        <ele>33.667408</ele>
        <time>2024-07-27T10:01:59.554Z</time>
      </trkpt>
      <trkpt lat="54.03787" lon="14.83604">
        <ele>33.747575</ele>
        <time>2024-07-27T10:02:01.571Z</time>
      </trkpt>
      <trkpt lat="54.03789" lon="14.83623">
        <ele>33.826495</ele>
        <time>2024-07-27T10:02:03.559Z</time>
      </trkpt>
      <trkpt lat="54.03792" lon="14.83641">
        <ele>33.906084</ele>
        <time>2024-07-27T10:02:05.569Z</time>
      </trkpt>
      <trkpt lat="54.03793" lon="14.83659">
        <ele>33.981758</ele>
        <time>2024-07-27T10:02:07.565Z</time>
      </trkpt>
      <trkpt lat="54.03795" lon="14.83675">
        <ele>34.05199</ele>
        <time>2024-07-27T10:02:09.572Z</time>
      </trkpt>
      <trkpt lat="54.03796" lon="14.83693">
        <ele>34.127395</ele>
        <time>2024-07-27T10:02:11.573Z</time>
      </trkpt>
      <trkpt lat="54.03798" lon="14.8371">
        <ele>34.200095</ele>
        <time>2024-07-27T10:02:13.561Z</time>
      </trkpt>
      <trkpt lat="54.03801" lon="14.83727">
        <ele>34.275025</ele>
        <time>2024-07-27T10:02:15.563Z</time>
      </trkpt>
      <trkpt lat="54.03803" lon="14.83744">
        <ele>34.348548</ele>
        <time>2024-07-27T10:02:17.560Z</time>
      </trkpt>
      <trkpt lat="54.03805" lon="14.83762">
        <ele>34.419902</ele>
        <time>2024-07-27T10:02:19.578Z</time>
      </trkpt>
      <trkpt lat="54.03807" lon="14.83779">
        <ele>34.48721</ele>
        <time>2024-07-27T10:02:21.563Z</time>
      </trkpt>
      <trkpt lat="54.03808" lon="14.83796">
        <ele>34.552618</ele>
        <time>2024-07-27T10:02:23.561Z</time>
      </trkpt>
      <trkpt lat="54.03809" lon="14.83812">
        <ele>34.617124</ele>
        <time>2024-07-27T10:02:25.573Z</time>
      </trkpt>
      <trkpt lat="54.0381" lon="14.83828">
        <ele>34.680917</ele>
        <time>2024-07-27T10:02:27.559Z</time>
      </trkpt>
      <trkpt lat="54.03812" lon="14.83852">
        <ele>34.772382</ele>
        <time>2024-07-27T10:02:30.551Z</time>
      </trkpt>
      <trkpt lat="54.03815" lon="14.83869">
        <ele>34.842025</ele>
        <time>2024-07-27T10:02:32.551Z</time>
      </trkpt>
      <trkpt lat="54.03817" lon="14.83887">
        <ele>34.912807</ele>
        <time>2024-07-27T10:02:34.541Z</time>
      </trkpt>
      <trkpt lat="54.0382" lon="14.83905">
        <ele>34.987306</ele>
        <time>2024-07-27T10:02:36.557Z</time>
      </trkpt>
      <trkpt lat="54.03821" lon="14.83923">
        <ele>35.058241</ele>
        <time>2024-07-27T10:02:38.571Z</time>
      </trkpt>
      <trkpt lat="54.03823" lon="14.8394">
        <ele>35.123108</ele>
        <time>2024-07-27T10:02:40.533Z</time>
      </trkpt>
      <trkpt lat="54.03824" lon="14.83958">
        <ele>35.193498</ele>
        <time>2024-07-27T10:02:42.542Z</time>
      </trkpt>
      <trkpt lat="54.03825" lon="14.83975">
        <ele>35.259681</ele>
        <time>2024-07-27T10:02:44.576Z</time>
      </trkpt>
      <trkpt lat="54.03826" lon="14.83993">
        <ele>35.333297</ele>
        <time>2024-07-27T10:02:46.553Z</time>
      </trkpt>
      <trkpt lat="54.03828" lon="14.84014">
        <ele>35.413347</ele>
        <time>2024-07-27T10:02:48.581Z</time>
      </trkpt>
      <trkpt lat="54.0383" lon="14.84032">
        <ele>35.486513</ele>
        <time>2024-07-27T10:02:50.555Z</time>
      </trkpt>
      <trkpt lat="54.03831" lon="14.8405">
        <ele>35.507821</ele>
        <time>2024-07-27T10:02:52.562Z</time>
      </trkpt>
      <trkpt lat="54.03832" lon="14.84069">
        <ele>35.28761</ele>
        <time>2024-07-27T10:02:54.574Z</time>
      </trkpt>
      <trkpt lat="54.03834" lon="14.84087">
        <ele>35.065242</ele>
        <time>2024-07-27T10:02:56.567Z</time>
      </trkpt>
      <trkpt lat="54.03836" lon="14.84107">
        <ele>34.838711</ele>
        <time>2024-07-27T10:02:58.564Z</time>
      </trkpt>
      <trkpt lat="54.03839" lon="14.84127">
        <ele>34.594272</ele>
        <time>2024-07-27T10:03:00.556Z</time>
      </trkpt>
      <trkpt lat="54.03842" lon="14.84148">
        <ele>34.350726</ele>
        <time>2024-07-27T10:03:02.561Z</time>
      </trkpt>
      <trkpt lat="54.03843" lon="14.84169">
        <ele>34.110508</ele>
        <time>2024-07-27T10:03:04.565Z</time>
      </trkpt>
      <trkpt lat="54.03845" lon="14.8419">
        <ele>33.860437</ele>
        <time>2024-07-27T10:03:06.563Z</time>
      </trkpt>
      <trkpt lat="54.03845" lon="14.8421">
        <ele>33.625234</ele>
        <time>2024-07-27T10:03:08.559Z</time>
      </trkpt>
      <trkpt lat="54.03844" lon="14.8423">
        <ele>33.395654</ele>
        <time>2024-07-27T10:03:10.552Z</time>
      </trkpt>
      <trkpt lat="54.03843" lon="14.84249">
        <ele>33.175127</ele>
        <time>2024-07-27T10:03:12.557Z</time>
      </trkpt>
      <trkpt lat="54.03842" lon="14.84269">
        <ele>32.948662</ele>
        <time>2024-07-27T10:03:14.569Z</time>
      </trkpt>
      <trkpt lat="54.03843" lon="14.84288">
        <ele>32.723097</ele>
        <time>2024-07-27T10:03:16.550Z</time>
      </trkpt>
      <trkpt lat="54.03842" lon="14.84308">
        <ele>32.497533</ele>
        <time>2024-07-27T10:03:18.582Z</time>
      </trkpt>
      <trkpt lat="54.03842" lon="14.84326">
        <ele>32.288058</ele>
        <time>2024-07-27T10:03:20.571Z</time>
      </trkpt>
      <trkpt lat="54.03841" lon="14.84343">
        <ele>32.088044</ele>
        <time>2024-07-27T10:03:22.557Z</time>
      </trkpt>
      <trkpt lat="54.03842" lon="14.84359">
        <ele>32.022047</ele>
        <time>2024-07-27T10:03:24.577Z</time>
      </trkpt>
      <trkpt lat="54.03842" lon="14.84375">
        <ele>32.058677</ele>
        <time>2024-07-27T10:03:26.564Z</time>
      </trkpt>
      <trkpt lat="54.03842" lon="14.84396">
        <ele>32.105029</ele>
        <time>2024-07-27T10:03:29.559Z</time>
      </trkpt>
      <trkpt lat="54.03847" lon="14.84407">
        <ele>32.138439</ele>
        <time>2024-07-27T10:03:40.603Z</time>
      </trkpt>
      <trkpt lat="54.03844" lon="14.84402">
        <ele>32.155784</ele>
        <time>2024-07-27T10:05:15.278Z</time>
      </trkpt>
      <trkpt lat="54.03836" lon="14.84413">
        <ele>32.195393</ele>
        <time>2024-07-27T10:08:03.544Z</time>
      </trkpt>
      <trkpt lat="54.03834" lon="14.84432">
        <ele>32.239635</ele>
        <time>2024-07-27T10:08:07.558Z</time>
      </trkpt>
      <trkpt lat="54.03834" lon="14.84449">
        <ele>32.278524</ele>
        <time>2024-07-27T10:08:10.562Z</time>
      </trkpt>
      <trkpt lat="54.03834" lon="14.84467">
        <ele>32.318836</ele>
        <time>2024-07-27T10:08:13.546Z</time>
      </trkpt>
      <trkpt lat="54.03832" lon="14.84487">
        <ele>32.363354</ele>
        <time>2024-07-27T10:08:16.551Z</time>
      </trkpt>
      <trkpt lat="54.03832" lon="14.84505">
        <ele>32.405862</ele>
        <time>2024-07-27T10:08:19.554Z</time>
      </trkpt>
      <trkpt lat="54.03831" lon="14.84521">
        <ele>32.44166</ele>
        <time>2024-07-27T10:08:21.557Z</time>
      </trkpt>
      <trkpt lat="54.03832" lon="14.84539">
        <ele>32.481461</ele>
        <time>2024-07-27T10:08:23.567Z</time>
      </trkpt>
      <trkpt lat="54.03831" lon="14.84555">
        <ele>32.516992</ele>
        <time>2024-07-27T10:08:25.546Z</time>
      </trkpt>
      <trkpt lat="54.03831" lon="14.84572">
        <ele>32.555499</ele>
        <time>2024-07-27T10:08:27.558Z</time>
      </trkpt>
      <trkpt lat="54.0383" lon="14.84589">
        <ele>32.594857</ele>
        <time>2024-07-27T10:08:29.551Z</time>
      </trkpt>
      <trkpt lat="54.03829" lon="14.84607">
        <ele>32.635026</ele>
        <time>2024-07-27T10:08:31.547Z</time>
      </trkpt>
      <trkpt lat="54.03829" lon="14.84624">
        <ele>32.67372</ele>
        <time>2024-07-27T10:08:33.556Z</time>
      </trkpt>
      <trkpt lat="54.03828" lon="14.84641">
        <ele>32.532362</ele>
        <time>2024-07-27T10:08:35.542Z</time>
      </trkpt>
      <trkpt lat="54.03827" lon="14.84658">
        <ele>32.143344</ele>
        <time>2024-07-27T10:08:37.545Z</time>
      </trkpt>
      <trkpt lat="54.03826" lon="14.84677">
        <ele>31.718688</ele>
        <time>2024-07-27T10:08:39.563Z</time>
      </trkpt>
      <trkpt lat="54.03825" lon="14.84697">
        <ele>31.281108</ele>
        <time>2024-07-27T10:08:41.561Z</time>
      </trkpt>
      <trkpt lat="54.03825" lon="14.84717">
        <ele>30.845855</ele>
        <time>2024-07-27T10:08:43.563Z</time>
      </trkpt>
      <trkpt lat="54.03824" lon="14.84738">
        <ele>30.400229</ele>
        <time>2024-07-27T10:08:45.540Z</time>
      </trkpt>
      <trkpt lat="54.03823" lon="14.84758">
        <ele>29.951559</ele>
        <time>2024-07-27T10:08:47.558Z</time>
      </trkpt>
      <trkpt lat="54.03822" lon="14.84778">
        <ele>29.512992</ele>
        <time>2024-07-27T10:08:49.533Z</time>
      </trkpt>
      <trkpt lat="54.0382" lon="14.84797">
        <ele>29.102595</ele>
        <time>2024-07-27T10:08:51.538Z</time>
      </trkpt>
      <trkpt lat="54.0382" lon="14.84817">
        <ele>28.662216</ele>
        <time>2024-07-27T10:08:53.539Z</time>
      </trkpt>
      <trkpt lat="54.03819" lon="14.84836">
        <ele>28.248474</ele>
        <time>2024-07-27T10:08:55.541Z</time>
      </trkpt>
      <trkpt lat="54.03818" lon="14.84856">
        <ele>27.803733</ele>
        <time>2024-07-27T10:08:57.562Z</time>
      </trkpt>
      <trkpt lat="54.03817" lon="14.84876">
        <ele>27.362789</ele>
        <time>2024-07-27T10:08:59.550Z</time>
      </trkpt>
      <trkpt lat="54.03817" lon="14.84896">
        <ele>26.927774</ele>
        <time>2024-07-27T10:09:01.543Z</time>
      </trkpt>
      <trkpt lat="54.03816" lon="14.84916">
        <ele>26.489814</ele>
        <time>2024-07-27T10:09:03.541Z</time>
      </trkpt>
      <trkpt lat="54.03815" lon="14.84936">
        <ele>26.055403</ele>
        <time>2024-07-27T10:09:05.542Z</time>
      </trkpt>
      <trkpt lat="54.03815" lon="14.84956">
        <ele>26.146507</ele>
        <time>2024-07-27T10:09:07.527Z</time>
      </trkpt>
      <trkpt lat="54.03815" lon="14.84977">
        <ele>26.324413</ele>
        <time>2024-07-27T10:09:09.560Z</time>
      </trkpt>
      <trkpt lat="54.03816" lon="14.84997">
        <ele>26.493088</ele>
        <time>2024-07-27T10:09:11.543Z</time>
      </trkpt>
      <trkpt lat="54.03817" lon="14.85018">
        <ele>26.663042</ele>
        <time>2024-07-27T10:09:13.548Z</time>
      </trkpt>
      <trkpt lat="54.03818" lon="14.85037">
        <ele>26.822795</ele>
        <time>2024-07-27T10:09:15.555Z</time>
      </trkpt>
      <trkpt lat="54.03819" lon="14.85056">
        <ele>26.98789</ele>
        <time>2024-07-27T10:09:17.556Z</time>
      </trkpt>
      <trkpt lat="54.03821" lon="14.85077">
        <ele>27.159169</ele>
        <time>2024-07-27T10:09:19.550Z</time>
      </trkpt>
      <trkpt lat="54.03822" lon="14.85097">
        <ele>27.330214</ele>
        <time>2024-07-27T10:09:21.551Z</time>
      </trkpt>
      <trkpt lat="54.03823" lon="14.85117">
        <ele>27.49908</ele>
        <time>2024-07-27T10:09:23.552Z</time>
      </trkpt>
      <trkpt lat="54.03824" lon="14.85136">
        <ele>27.656701</ele>
        <time>2024-07-27T10:09:25.539Z</time>
      </trkpt>
      <trkpt lat="54.03825" lon="14.85156">
        <ele>27.82333</ele>
        <time>2024-07-27T10:09:27.552Z</time>
      </trkpt>
      <trkpt lat="54.03827" lon="14.85175">
        <ele>27.986147</ele>
        <time>2024-07-27T10:09:29.550Z</time>
      </trkpt>
      <trkpt lat="54.03828" lon="14.85197">
        <ele>28.165496</ele>
        <time>2024-07-27T10:09:31.550Z</time>
      </trkpt>
      <trkpt lat="54.03829" lon="14.85219">
        <ele>28.349586</ele>
        <time>2024-07-27T10:09:33.539Z</time>
      </trkpt>
      <trkpt lat="54.0383" lon="14.85239">
        <ele>28.523488</ele>
        <time>2024-07-27T10:09:35.563Z</time>
      </trkpt>
      <trkpt lat="54.03831" lon="14.8526">
        <ele>28.659867</ele>
        <time>2024-07-27T10:09:37.559Z</time>
      </trkpt>
      <trkpt lat="54.03833" lon="14.8528">
        <ele>28.786121</ele>
        <time>2024-07-27T10:09:39.563Z</time>
      </trkpt>
      <trkpt lat="54.03834" lon="14.853">
        <ele>28.910669</ele>
        <time>2024-07-27T10:09:41.553Z</time>
      </trkpt>
      <trkpt lat="54.03836" lon="14.8532">
        <ele>29.033524</ele>
        <time>2024-07-27T10:09:43.546Z</time>
      </trkpt>
      <trkpt lat="54.03837" lon="14.85338">
        <ele>29.15006</ele>
        <time>2024-07-27T10:09:45.538Z</time>
      </trkpt>
      <trkpt lat="54.03838" lon="14.85357">
        <ele>29.268555</ele>
        <time>2024-07-27T10:09:47.551Z</time>
      </trkpt>
      <trkpt lat="54.03839" lon="14.85378">
        <ele>29.395268</ele>
        <time>2024-07-27T10:09:49.541Z</time>
      </trkpt>
      <trkpt lat="54.0384" lon="14.85398">
        <ele>29.519572</ele>
        <time>2024-07-27T10:09:51.570Z</time>
      </trkpt>
      <trkpt lat="54.03841" lon="14.85418">
        <ele>29.645273</ele>
        <time>2024-07-27T10:09:53.555Z</time>
      </trkpt>
      <trkpt lat="54.03843" lon="14.85439">
        <ele>29.778345</ele>
        <time>2024-07-27T10:09:55.554Z</time>
      </trkpt>
      <trkpt lat="54.03845" lon="14.85459">
        <ele>29.903809</ele>
        <time>2024-07-27T10:09:57.555Z</time>
      </trkpt>
      <trkpt lat="54.03846" lon="14.85478">
        <ele>30.022685</ele>
        <time>2024-07-27T10:09:59.573Z</time>
      </trkpt>
      <trkpt lat="54.03849" lon="14.85498">
        <ele>30.146624</ele>
        <time>2024-07-27T10:10:01.547Z</time>
      </trkpt>
      <trkpt lat="54.0385" lon="14.85517">
        <ele>30.264913</ele>
        <time>2024-07-27T10:10:03.553Z</time>
      </trkpt>
      <trkpt lat="54.03851" lon="14.85537">
        <ele>30.389589</ele>
        <time>2024-07-27T10:10:05.565Z</time>
      </trkpt>
      <trkpt lat="54.03852" lon="14.85555">
        <ele>30.496935</ele>
        <time>2024-07-27T10:10:07.535Z</time>
      </trkpt>
      <trkpt lat="54.03853" lon="14.85577">
        <ele>30.606125</ele>
        <time>2024-07-27T10:10:09.527Z</time>
      </trkpt>
      <trkpt lat="54.03854" lon="14.85599">
        <ele>30.717127</ele>
        <time>2024-07-27T10:10:11.542Z</time>
      </trkpt>
      <trkpt lat="54.03856" lon="14.85621">
        <ele>30.832342</ele>
        <time>2024-07-27T10:10:13.530Z</time>
      </trkpt>
      <trkpt lat="54.03857" lon="14.85642">
        <ele>30.940118</ele>
        <time>2024-07-27T10:10:15.536Z</time>
      </trkpt>
      <trkpt lat="54.03859" lon="14.85665">
        <ele>31.053421</ele>
        <time>2024-07-27T10:10:17.566Z</time>
      </trkpt>
      <trkpt lat="54.03861" lon="14.85687">
        <ele>31.166196</ele>
        <time>2024-07-27T10:10:19.556Z</time>
      </trkpt>
      <trkpt lat="54.03864" lon="14.85708">
        <ele>31.279059</ele>
        <time>2024-07-27T10:10:21.550Z</time>
      </trkpt>
      <trkpt lat="54.03867" lon="14.85731">
        <ele>31.397422</ele>
        <time>2024-07-27T10:10:23.566Z</time>
      </trkpt>
      <trkpt lat="54.0387" lon="14.85753">
        <ele>31.512886</ele>
        <time>2024-07-27T10:10:25.550Z</time>
      </trkpt>
      <trkpt lat="54.03874" lon="14.85774">
        <ele>31.623707</ele>
        <time>2024-07-27T10:10:27.536Z</time>
      </trkpt>
      <trkpt lat="54.03878" lon="14.85795">
        <ele>31.732868</ele>
        <time>2024-07-27T10:10:29.543Z</time>
      </trkpt>
      <trkpt lat="54.03882" lon="14.85815">
        <ele>31.843812</ele>
        <time>2024-07-27T10:10:31.544Z</time>
      </trkpt>
      <trkpt lat="54.03887" lon="14.85835">
        <ele>31.952874</ele>
        <time>2024-07-27T10:10:33.561Z</time>
      </trkpt>
      <trkpt lat="54.03892" lon="14.85854">
        <ele>32.122493</ele>
        <time>2024-07-27T10:10:35.552Z</time>
      </trkpt>
      <trkpt lat="54.03898" lon="14.85873">
        <ele>32.357135</ele>
        <time>2024-07-27T10:10:37.550Z</time>
      </trkpt>
      <trkpt lat="54.03903" lon="14.85891">
        <ele>32.589247</ele>
        <time>2024-07-27T10:10:39.563Z</time>
      </trkpt>
      <trkpt lat="54.03909" lon="14.85909">
        <ele>32.81825</ele>
        <time>2024-07-27T10:10:41.551Z</time>
      </trkpt>
      <trkpt lat="54.03914" lon="14.85927">
        <ele>33.042761</ele>
        <time>2024-07-27T10:10:43.551Z</time>
      </trkpt>
      <trkpt lat="54.0392" lon="14.85944">
        <ele>33.264764</ele>
        <time>2024-07-27T10:10:45.564Z</time>
      </trkpt>
      <trkpt lat="54.03926" lon="14.85961">
        <ele>33.490656</ele>
        <time>2024-07-27T10:10:47.550Z</time>
      </trkpt>
      <trkpt lat="54.03931" lon="14.85978">
        <ele>33.708141</ele>
        <time>2024-07-27T10:10:49.556Z</time>
      </trkpt>
      <trkpt lat="54.03936" lon="14.85996">
        <ele>33.927405</ele>
        <time>2024-07-27T10:10:51.550Z</time>
      </trkpt>
      <trkpt lat="54.03942" lon="14.86013">
        <ele>34.148499</ele>
        <time>2024-07-27T10:10:53.557Z</time>
      </trkpt>
      <trkpt lat="54.03948" lon="14.8603">
        <ele>34.363752</ele>
        <time>2024-07-27T10:10:55.559Z</time>
      </trkpt>
      <trkpt lat="54.03953" lon="14.86047">
        <ele>34.578362</ele>
        <time>2024-07-27T10:10:57.560Z</time>
      </trkpt>
      <trkpt lat="54.03958" lon="14.86063">
        <ele>34.795578</ele>
        <time>2024-07-27T10:10:59.559Z</time>
      </trkpt>
      <trkpt lat="54.03964" lon="14.8608">
        <ele>35.012754</ele>
        <time>2024-07-27T10:11:01.559Z</time>
      </trkpt>
      <trkpt lat="54.03969" lon="14.86095">
        <ele>35.206703</ele>
        <time>2024-07-27T10:11:03.577Z</time>
      </trkpt>
      <trkpt lat="54.03974" lon="14.86111">
        <ele>35.405514</ele>
        <time>2024-07-27T10:11:05.561Z</time>
      </trkpt>
      <trkpt lat="54.03979" lon="14.86125">
        <ele>35.461757</ele>
        <time>2024-07-27T10:11:07.558Z</time>
      </trkpt>
      <trkpt lat="54.03984" lon="14.86139">
        <ele>35.478689</ele>
        <time>2024-07-27T10:11:09.568Z</time>
      </trkpt>
      <trkpt lat="54.03989" lon="14.86153">
        <ele>35.49565</ele>
        <time>2024-07-27T10:11:11.555Z</time>
      </trkpt>
      <trkpt lat="54.03995" lon="14.86169">
        <ele>35.514144</ele>
        <time>2024-07-27T10:11:13.557Z</time>
      </trkpt>
      <trkpt lat="54.04001" lon="14.86186">
        <ele>35.533943</ele>
        <time>2024-07-27T10:11:15.547Z</time>
      </trkpt>
      <trkpt lat="54.04006" lon="14.86204">
        <ele>35.554543</ele>
        <time>2024-07-27T10:11:17.549Z</time>
      </trkpt>
      <trkpt lat="54.04012" lon="14.86222">
        <ele>35.574965</ele>
        <time>2024-07-27T10:11:19.569Z</time>
      </trkpt>
      <trkpt lat="54.04018" lon="14.86239">
        <ele>35.595459</ele>
        <time>2024-07-27T10:11:21.555Z</time>
      </trkpt>
      <trkpt lat="54.04023" lon="14.86257">
        <ele>35.615748</ele>
        <time>2024-07-27T10:11:23.569Z</time>
      </trkpt>
      <trkpt lat="54.04028" lon="14.86276">
        <ele>35.636529</ele>
        <time>2024-07-27T10:11:25.559Z</time>
      </trkpt>
      <trkpt lat="54.04033" lon="14.86294">
        <ele>35.656984</ele>
        <time>2024-07-27T10:11:27.553Z</time>
      </trkpt>
      <trkpt lat="54.04039" lon="14.86312">
        <ele>35.676721</ele>
        <time>2024-07-27T10:11:29.563Z</time>
      </trkpt>
      <trkpt lat="54.04044" lon="14.86328">
        <ele>35.69557</ele>
        <time>2024-07-27T10:11:31.564Z</time>
      </trkpt>
      <trkpt lat="54.0405" lon="14.86346">
        <ele>35.715644</ele>
        <time>2024-07-27T10:11:33.566Z</time>
      </trkpt>
      <trkpt lat="54.04055" lon="14.86364">
        <ele>35.735662</ele>
        <time>2024-07-27T10:11:35.552Z</time>
      </trkpt>
      <trkpt lat="54.04061" lon="14.8638">
        <ele>35.7552</ele>
        <time>2024-07-27T10:11:37.559Z</time>
      </trkpt>
      <trkpt lat="54.04066" lon="14.86397">
        <ele>35.685531</ele>
        <time>2024-07-27T10:11:39.554Z</time>
      </trkpt>
      <trkpt lat="54.04072" lon="14.86414">
        <ele>35.603676</ele>
        <time>2024-07-27T10:11:41.557Z</time>
      </trkpt>
      <trkpt lat="54.04077" lon="14.86431">
        <ele>35.521456</ele>
        <time>2024-07-27T10:11:43.563Z</time>
      </trkpt>
      <trkpt lat="54.04082" lon="14.86448">
        <ele>35.439452</ele>
        <time>2024-07-27T10:11:45.541Z</time>
      </trkpt>
      <trkpt lat="54.04088" lon="14.86464">
        <ele>35.360888</ele>
        <time>2024-07-27T10:11:47.567Z</time>
      </trkpt>
      <trkpt lat="54.04093" lon="14.8648">
        <ele>35.282724</ele>
        <time>2024-07-27T10:11:49.547Z</time>
      </trkpt>
      <trkpt lat="54.04098" lon="14.86496">
        <ele>35.202714</ele>
        <time>2024-07-27T10:11:51.547Z</time>
      </trkpt>
      <trkpt lat="54.04103" lon="14.86514">
        <ele>35.118348</ele>
        <time>2024-07-27T10:11:53.572Z</time>
      </trkpt>
      <trkpt lat="54.04109" lon="14.86531">
        <ele>35.033511</ele>
        <time>2024-07-27T10:11:55.568Z</time>
      </trkpt>
      <trkpt lat="54.04115" lon="14.86547">
        <ele>34.952766</ele>
        <time>2024-07-27T10:11:57.552Z</time>
      </trkpt>
      <trkpt lat="54.0412" lon="14.86563">
        <ele>34.876811</ele>
        <time>2024-07-27T10:11:59.552Z</time>
      </trkpt>
      <trkpt lat="54.04125" lon="14.86578">
        <ele>34.801217</ele>
        <time>2024-07-27T10:12:01.539Z</time>
      </trkpt>
      <trkpt lat="54.0413" lon="14.86594">
        <ele>34.723417</ele>
        <time>2024-07-27T10:12:03.552Z</time>
      </trkpt>
      <trkpt lat="54.04135" lon="14.86609">
        <ele>34.647823</ele>
        <time>2024-07-27T10:12:05.558Z</time>
      </trkpt>
      <trkpt lat="54.04141" lon="14.86625">
        <ele>34.570393</ele>
        <time>2024-07-27T10:12:07.548Z</time>
      </trkpt>
      <trkpt lat="54.04145" lon="14.8664">
        <ele>34.498851</ele>
        <time>2024-07-27T10:12:09.532Z</time>
      </trkpt>
      <trkpt lat="54.0415" lon="14.86656">
        <ele>34.450228</ele>
        <time>2024-07-27T10:12:11.559Z</time>
      </trkpt>
      <trkpt lat="54.04155" lon="14.86671">
        <ele>34.456492</ele>
        <time>2024-07-27T10:12:13.563Z</time>
      </trkpt>
      <trkpt lat="54.0416" lon="14.86686">
        <ele>34.462659</ele>
        <time>2024-07-27T10:12:15.558Z</time>
      </trkpt>
      <trkpt lat="54.04165" lon="14.86701">
        <ele>34.468798</ele>
        <time>2024-07-27T10:12:17.539Z</time>
      </trkpt>
      <trkpt lat="54.04169" lon="14.86715">
        <ele>34.474633</ele>
        <time>2024-07-27T10:12:19.543Z</time>
      </trkpt>
      <trkpt lat="54.04174" lon="14.8673">
        <ele>34.480777</ele>
        <time>2024-07-27T10:12:21.552Z</time>
      </trkpt>
      <trkpt lat="54.04178" lon="14.86744">
        <ele>34.486493</ele>
        <time>2024-07-27T10:12:23.560Z</time>
      </trkpt>
      <trkpt lat="54.04183" lon="14.86758">
        <ele>34.492349</ele>
        <time>2024-07-27T10:12:25.550Z</time>
      </trkpt>
      <trkpt lat="54.04187" lon="14.86771">
        <ele>34.497929</ele>
        <time>2024-07-27T10:12:27.554Z</time>
      </trkpt>
      <trkpt lat="54.04193" lon="14.86786">
        <ele>34.503941</ele>
        <time>2024-07-27T10:12:29.548Z</time>
      </trkpt>
      <trkpt lat="54.04197" lon="14.868">
        <ele>34.509833</ele>
        <time>2024-07-27T10:12:31.551Z</time>
      </trkpt>
      <trkpt lat="54.04201" lon="14.86814">
        <ele>34.515728</ele>
        <time>2024-07-27T10:12:33.551Z</time>
      </trkpt>
      <trkpt lat="54.04206" lon="14.86829">
        <ele>34.521752</ele>
        <time>2024-07-27T10:12:35.548Z</time>
      </trkpt>
      <trkpt lat="54.0421" lon="14.86844">
        <ele>34.527772</ele>
        <time>2024-07-27T10:12:37.556Z</time>
      </trkpt>
      <trkpt lat="54.04215" lon="14.86859">
        <ele>34.534034</ele>
        <time>2024-07-27T10:12:39.571Z</time>
      </trkpt>
      <trkpt lat="54.0422" lon="14.86875">
        <ele>34.54058</ele>
        <time>2024-07-27T10:12:41.557Z</time>
      </trkpt>
      <trkpt lat="54.04225" lon="14.8689">
        <ele>34.546536</ele>
        <time>2024-07-27T10:12:43.548Z</time>
      </trkpt>
      <trkpt lat="54.0423" lon="14.86905">
        <ele>34.552773</ele>
        <time>2024-07-27T10:12:45.557Z</time>
      </trkpt>
      <trkpt lat="54.04234" lon="14.8692">
        <ele>34.561093</ele>
        <time>2024-07-27T10:12:47.554Z</time>
      </trkpt>
      <trkpt lat="54.0424" lon="14.86934">
        <ele>34.604015</ele>
        <time>2024-07-27T10:12:49.541Z</time>
      </trkpt>
      <trkpt lat="54.04244" lon="14.86949">
        <ele>34.64603</ele>
        <time>2024-07-27T10:12:51.556Z</time>
      </trkpt>
      <trkpt lat="54.04248" lon="14.86964">
        <ele>34.689084</ele>
        <time>2024-07-27T10:12:53.547Z</time>
      </trkpt>
      <trkpt lat="54.04253" lon="14.86978">
        <ele>34.730229</ele>
        <time>2024-07-27T10:12:55.548Z</time>
      </trkpt>
      <trkpt lat="54.04257" lon="14.86992">
        <ele>34.771891</ele>
        <time>2024-07-27T10:12:57.542Z</time>
      </trkpt>
      <trkpt lat="54.04261" lon="14.87008">
        <ele>34.816112</ele>
        <time>2024-07-27T10:12:59.564Z</time>
      </trkpt>
      <trkpt lat="54.04265" lon="14.87023">
        <ele>34.8601</ele>
        <time>2024-07-27T10:13:01.549Z</time>
      </trkpt>
      <trkpt lat="54.04269" lon="14.87038">
        <ele>34.901549</ele>
        <time>2024-07-27T10:13:03.552Z</time>
      </trkpt>
      <trkpt lat="54.04272" lon="14.87053">
        <ele>34.941997</ele>
        <time>2024-07-27T10:13:05.569Z</time>
      </trkpt>
      <trkpt lat="54.04275" lon="14.87068">
        <ele>34.983513</ele>
        <time>2024-07-27T10:13:07.555Z</time>
      </trkpt>
      <trkpt lat="54.04278" lon="14.87083">
        <ele>35.023858</ele>
        <time>2024-07-27T10:13:09.549Z</time>
      </trkpt>
      <trkpt lat="54.04281" lon="14.87099">
        <ele>35.065395</ele>
        <time>2024-07-27T10:13:11.572Z</time>
      </trkpt>
      <trkpt lat="54.04283" lon="14.87114">
        <ele>35.106987</ele>
        <time>2024-07-27T10:13:13.521Z</time>
      </trkpt>
      <trkpt lat="54.04286" lon="14.8713">
        <ele>35.14953</ele>
        <time>2024-07-27T10:13:15.556Z</time>
      </trkpt>
      <trkpt lat="54.04288" lon="14.87146">
        <ele>35.191098</ele>
        <time>2024-07-27T10:13:17.533Z</time>
      </trkpt>
      <trkpt lat="54.04289" lon="14.87162">
        <ele>35.232016</ele>
        <time>2024-07-27T10:13:19.575Z</time>
      </trkpt>
      <trkpt lat="54.04292" lon="14.87177">
        <ele>35.27405</ele>
        <time>2024-07-27T10:13:21.545Z</time>
      </trkpt>
      <trkpt lat="54.04293" lon="14.87194">
        <ele>35.317263</ele>
        <time>2024-07-27T10:13:23.567Z</time>
      </trkpt>
      <trkpt lat="54.04294" lon="14.87211">
        <ele>35.367961</ele>
        <time>2024-07-27T10:13:25.560Z</time>
      </trkpt>
      <trkpt lat="54.04294" lon="14.87228">
        <ele>35.428671</ele>
        <time>2024-07-27T10:13:27.542Z</time>
      </trkpt>
      <trkpt lat="54.04296" lon="14.8725">
        <ele>35.507389</ele>
        <time>2024-07-27T10:13:30.537Z</time>
      </trkpt>
      <trkpt lat="54.04297" lon="14.87271">
        <ele>35.579918</ele>
        <time>2024-07-27T10:13:33.550Z</time>
      </trkpt>
      <trkpt lat="54.04297" lon="14.87291">
        <ele>35.651617</ele>
        <time>2024-07-27T10:13:36.550Z</time>
      </trkpt>
      <trkpt lat="54.04298" lon="14.87309">
        <ele>35.717668</ele>
        <time>2024-07-27T10:13:39.557Z</time>
      </trkpt>
      <trkpt lat="54.04298" lon="14.87329">
        <ele>35.786618</ele>
        <time>2024-07-27T10:13:42.550Z</time>
      </trkpt>
      <trkpt lat="54.04303" lon="14.87344">
        <ele>35.847323</ele>
        <time>2024-07-27T10:13:45.551Z</time>
      </trkpt>
      <trkpt lat="54.04315" lon="14.87346">
        <ele>35.919038</ele>
        <time>2024-07-27T10:13:48.563Z</time>
      </trkpt>
      <trkpt lat="54.04326" lon="14.87345">
        <ele>35.990435</ele>
        <time>2024-07-27T10:13:51.550Z</time>
      </trkpt>
      <trkpt lat="54.04338" lon="14.87344">
        <ele>36.062988</ele>
        <time>2024-07-27T10:13:54.563Z</time>
      </trkpt>
      <trkpt lat="54.0435" lon="14.87343">
        <ele>36.13503</ele>
        <time>2024-07-27T10:13:57.561Z</time>
      </trkpt>
      <trkpt lat="54.04362" lon="14.87341">
        <ele>36.207986</ele>
        <time>2024-07-27T10:14:00.558Z</time>
      </trkpt>
      <trkpt lat="54.04374" lon="14.87339">
        <ele>36.278928</ele>
        <time>2024-07-27T10:14:03.553Z</time>
      </trkpt>
      <trkpt lat="54.04384" lon="14.87337">
        <ele>36.339643</ele>
        <time>2024-07-27T10:14:06.556Z</time>
      </trkpt>
      <trkpt lat="54.04395" lon="14.87335">
        <ele>36.40609</ele>
        <time>2024-07-27T10:14:10.552Z</time>
      </trkpt>
      <trkpt lat="54.04404" lon="14.87334">
        <ele>36.498048</ele>
        <time>2024-07-27T10:14:13.547Z</time>
      </trkpt>
      <trkpt lat="54.04415" lon="14.87335">
        <ele>36.654369</ele>
        <time>2024-07-27T10:14:17.547Z</time>
      </trkpt>
      <trkpt lat="54.04426" lon="14.87335">
        <ele>36.811989</ele>
        <time>2024-07-27T10:14:21.558Z</time>
      </trkpt>
      <trkpt lat="54.04435" lon="14.87344">
        <ele>36.963747</ele>
        <time>2024-07-27T10:14:25.544Z</time>
      </trkpt>
      <trkpt lat="54.04445" lon="14.8735">
        <ele>37.117793</ele>
        <time>2024-07-27T10:14:29.555Z</time>
      </trkpt>
      <trkpt lat="54.04454" lon="14.87358">
        <ele>37.265653</ele>
        <time>2024-07-27T10:14:33.548Z</time>
      </trkpt>
      <trkpt lat="54.04462" lon="14.87366">
        <ele>37.400235</ele>
        <time>2024-07-27T10:14:38.567Z</time>
      </trkpt>
      <trkpt lat="54.04472" lon="14.87369">
        <ele>37.549772</ele>
        <time>2024-07-27T10:14:44.566Z</time>
      </trkpt>
      <trkpt lat="54.0448" lon="14.87383">
        <ele>37.712571</ele>
        <time>2024-07-27T10:14:48.534Z</time>
      </trkpt>
      <trkpt lat="54.04487" lon="14.87393">
        <ele>37.845799</ele>
        <time>2024-07-27T10:14:51.538Z</time>
      </trkpt>
      <trkpt lat="54.04494" lon="14.87402">
        <ele>37.978487</ele>
        <time>2024-07-27T10:14:54.534Z</time>
      </trkpt>
      <trkpt lat="54.04503" lon="14.8741">
        <ele>38.127301</ele>
        <time>2024-07-27T10:14:57.555Z</time>
      </trkpt>
      <trkpt lat="54.04513" lon="14.87417">
        <ele>38.275987</ele>
        <time>2024-07-27T10:15:00.551Z</time>
      </trkpt>
      <trkpt lat="54.04523" lon="14.87425">
        <ele>38.438521</ele>
        <time>2024-07-27T10:15:03.552Z</time>
      </trkpt>
      <trkpt lat="54.04533" lon="14.87435">
        <ele>38.604955</ele>
        <time>2024-07-27T10:15:06.557Z</time>
      </trkpt>
      <trkpt lat="54.04543" lon="14.87442">
        <ele>38.761949</ele>
        <time>2024-07-27T10:15:09.541Z</time>
      </trkpt>
      <trkpt lat="54.04552" lon="14.87448">
        <ele>38.900652</ele>
        <time>2024-07-27T10:15:12.566Z</time>
      </trkpt>
      <trkpt lat="54.04562" lon="14.87459">
        <ele>39.035664</ele>
        <time>2024-07-27T10:15:16.542Z</time>
      </trkpt>
      <trkpt lat="54.04571" lon="14.87467">
        <ele>39.036138</ele>
        <time>2024-07-27T10:15:19.564Z</time>
      </trkpt>
      <trkpt lat="54.04582" lon="14.87471">
        <ele>39.036611</ele>
        <time>2024-07-27T10:15:22.534Z</time>
      </trkpt>
      <trkpt lat="54.04592" lon="14.87475">
        <ele>39.03711</ele>
        <time>2024-07-27T10:15:25.544Z</time>
      </trkpt>
      <trkpt lat="54.04603" lon="14.87485">
        <ele>39.037689</ele>
        <time>2024-07-27T10:15:28.536Z</time>
      </trkpt>
      <trkpt lat="54.04615" lon="14.87494">
        <ele>39.038268</ele>
        <time>2024-07-27T10:15:31.551Z</time>
      </trkpt>
      <trkpt lat="54.04625" lon="14.87505">
        <ele>39.038831</ele>
        <time>2024-07-27T10:15:34.551Z</time>
      </trkpt>
      <trkpt lat="54.04633" lon="14.87513">
        <ele>39.039252</ele>
        <time>2024-07-27T10:15:36.547Z</time>
      </trkpt>
      <trkpt lat="54.04641" lon="14.87523">
        <ele>39.0397</ele>
        <time>2024-07-27T10:15:38.545Z</time>
      </trkpt>
      <trkpt lat="54.04649" lon="14.87532">
        <ele>39.040121</ele>
        <time>2024-07-27T10:15:40.543Z</time>
      </trkpt>
      <trkpt lat="54.04657" lon="14.87539">
        <ele>39.040538</ele>
        <time>2024-07-27T10:15:42.555Z</time>
      </trkpt>
      <trkpt lat="54.04665" lon="14.87548">
        <ele>39.040983</ele>
        <time>2024-07-27T10:15:44.533Z</time>
      </trkpt>
      <trkpt lat="54.04672" lon="14.87559">
        <ele>39.041429</ele>
        <time>2024-07-27T10:15:46.547Z</time>
      </trkpt>
      <trkpt lat="54.04679" lon="14.8757">
        <ele>39.041876</ele>
        <time>2024-07-27T10:15:48.546Z</time>
      </trkpt>
      <trkpt lat="54.04686" lon="14.87582">
        <ele>39.042314</ele>
        <time>2024-07-27T10:15:50.561Z</time>
      </trkpt>
      <trkpt lat="54.04692" lon="14.87595">
        <ele>39.042763</ele>
        <time>2024-07-27T10:15:52.547Z</time>
      </trkpt>
      <trkpt lat="54.04699" lon="14.87607">
        <ele>39.043223</ele>
        <time>2024-07-27T10:15:54.550Z</time>
      </trkpt>
      <trkpt lat="54.04706" lon="14.87621">
        <ele>39.043698</ele>
        <time>2024-07-27T10:15:56.565Z</time>
      </trkpt>
      <trkpt lat="54.04712" lon="14.87635">
        <ele>39.188666</ele>
        <time>2024-07-27T10:15:58.543Z</time>
      </trkpt>
      <trkpt lat="54.04718" lon="14.87649">
        <ele>39.364257</ele>
        <time>2024-07-27T10:16:00.556Z</time>
      </trkpt>
      <trkpt lat="54.04725" lon="14.87662">
        <ele>39.541556</ele>
        <time>2024-07-27T10:16:02.549Z</time>
      </trkpt>
      <trkpt lat="54.04731" lon="14.87676">
        <ele>39.708509</ele>
        <time>2024-07-27T10:16:04.550Z</time>
      </trkpt>
      <trkpt lat="54.04737" lon="14.87689">
        <ele>39.869225</ele>
        <time>2024-07-27T10:16:06.557Z</time>
      </trkpt>
      <trkpt lat="54.04743" lon="14.87701">
        <ele>40.032778</ele>
        <time>2024-07-27T10:16:08.568Z</time>
      </trkpt>
      <trkpt lat="54.04749" lon="14.87714">
        <ele>40.198096</ele>
        <time>2024-07-27T10:16:10.553Z</time>
      </trkpt>
      <trkpt lat="54.04755" lon="14.87725">
        <ele>40.351444</ele>
        <time>2024-07-27T10:16:12.537Z</time>
      </trkpt>
      <trkpt lat="54.04761" lon="14.87737">
        <ele>40.507457</ele>
        <time>2024-07-27T10:16:14.547Z</time>
      </trkpt>
      <trkpt lat="54.04767" lon="14.87749">
        <ele>40.660434</ele>
        <time>2024-07-27T10:16:16.547Z</time>
      </trkpt>
      <trkpt lat="54.04773" lon="14.87761">
        <ele>40.815579</ele>
        <time>2024-07-27T10:16:18.533Z</time>
      </trkpt>
      <trkpt lat="54.04778" lon="14.87774">
        <ele>40.969769</ele>
        <time>2024-07-27T10:16:20.540Z</time>
      </trkpt>
      <trkpt lat="54.04783" lon="14.87786">
        <ele>41.125702</ele>
        <time>2024-07-27T10:16:22.553Z</time>
      </trkpt>
      <trkpt lat="54.04789" lon="14.87799">
        <ele>41.290027</ele>
        <time>2024-07-27T10:16:24.560Z</time>
      </trkpt>
      <trkpt lat="54.04795" lon="14.87813">
        <ele>41.460185</ele>
        <time>2024-07-27T10:16:26.565Z</time>
      </trkpt>
      <trkpt lat="54.04802" lon="14.87825">
        <ele>41.623355</ele>
        <time>2024-07-27T10:16:28.574Z</time>
      </trkpt>
      <trkpt lat="54.04808" lon="14.87839">
        <ele>41.796751</ele>
        <time>2024-07-27T10:16:30.551Z</time>
      </trkpt>
      <trkpt lat="54.04813" lon="14.87853">
        <ele>41.963001</ele>
        <time>2024-07-27T10:16:32.531Z</time>
      </trkpt>
      <trkpt lat="54.04818" lon="14.87867">
        <ele>42.132712</ele>
        <time>2024-07-27T10:16:34.550Z</time>
      </trkpt>
      <trkpt lat="54.04823" lon="14.87881">
        <ele>42.32634</ele>
        <time>2024-07-27T10:16:36.551Z</time>
      </trkpt>
      <trkpt lat="54.04827" lon="14.87895">
        <ele>42.51592</ele>
        <time>2024-07-27T10:16:38.562Z</time>
      </trkpt>
      <trkpt lat="54.04831" lon="14.87908">
        <ele>42.703359</ele>
        <time>2024-07-27T10:16:40.541Z</time>
      </trkpt>
      <trkpt lat="54.04835" lon="14.87923">
        <ele>42.900011</ele>
        <time>2024-07-27T10:16:42.549Z</time>
      </trkpt>
      <trkpt lat="54.04837" lon="14.8794">
        <ele>43.101781</ele>
        <time>2024-07-27T10:16:44.550Z</time>
      </trkpt>
      <trkpt lat="54.04839" lon="14.87955">
        <ele>43.299726</ele>
        <time>2024-07-27T10:16:46.561Z</time>
      </trkpt>
      <trkpt lat="54.04842" lon="14.87971">
        <ele>43.499855</ele>
        <time>2024-07-27T10:16:48.571Z</time>
      </trkpt>
      <trkpt lat="54.04843" lon="14.87987">
        <ele>43.689621</ele>
        <time>2024-07-27T10:16:50.570Z</time>
      </trkpt>
      <trkpt lat="54.04846" lon="14.88002">
        <ele>43.889969</ele>
        <time>2024-07-27T10:16:52.543Z</time>
      </trkpt>
      <trkpt lat="54.0485" lon="14.88018">
        <ele>44.093268</ele>
        <time>2024-07-27T10:16:54.565Z</time>
      </trkpt>
      <trkpt lat="54.04853" lon="14.88034">
        <ele>44.287855</ele>
        <time>2024-07-27T10:16:56.535Z</time>
      </trkpt>
      <trkpt lat="54.04855" lon="14.88049">
        <ele>44.484208</ele>
        <time>2024-07-27T10:16:58.573Z</time>
      </trkpt>
      <trkpt lat="54.04856" lon="14.88065">
        <ele>44.678423</ele>
        <time>2024-07-27T10:17:00.554Z</time>
      </trkpt>
      <trkpt lat="54.04859" lon="14.88087">
        <ele>44.951151</ele>
        <time>2024-07-27T10:17:03.552Z</time>
      </trkpt>
      <trkpt lat="54.04863" lon="14.88109">
        <ele>45.225395</ele>
        <time>2024-07-27T10:17:06.543Z</time>
      </trkpt>
      <trkpt lat="54.04866" lon="14.88131">
        <ele>45.507841</ele>
        <time>2024-07-27T10:17:09.559Z</time>
      </trkpt>
      <trkpt lat="54.04868" lon="14.88147">
        <ele>45.694871</ele>
        <time>2024-07-27T10:17:11.556Z</time>
      </trkpt>
      <trkpt lat="54.04869" lon="14.88162">
        <ele>45.82271</ele>
        <time>2024-07-27T10:17:13.542Z</time>
      </trkpt>
      <trkpt lat="54.04871" lon="14.88178">
        <ele>45.842632</ele>
        <time>2024-07-27T10:17:15.552Z</time>
      </trkpt>
      <trkpt lat="54.04872" lon="14.88199">
        <ele>45.870174</ele>
        <time>2024-07-27T10:17:18.567Z</time>
      </trkpt>
      <trkpt lat="54.04873" lon="14.88221">
        <ele>45.898239</ele>
        <time>2024-07-27T10:17:21.557Z</time>
      </trkpt>
      <trkpt lat="54.04875" lon="14.88243">
        <ele>45.925845</ele>
        <time>2024-07-27T10:17:24.548Z</time>
      </trkpt>
      <trkpt lat="54.04874" lon="14.88263">
        <ele>45.952029</ele>
        <time>2024-07-27T10:17:27.552Z</time>
      </trkpt>
      <trkpt lat="54.04872" lon="14.88282">
        <ele>45.976248</ele>
        <time>2024-07-27T10:17:30.554Z</time>
      </trkpt>
      <trkpt lat="54.04872" lon="14.88299">
        <ele>45.998492</ele>
        <time>2024-07-27T10:17:33.562Z</time>
      </trkpt>
      <trkpt lat="54.04873" lon="14.88316">
        <ele>46.02059</ele>
        <time>2024-07-27T10:17:36.533Z</time>
      </trkpt>
      <trkpt lat="54.04874" lon="14.88334">
        <ele>46.043195</ele>
        <time>2024-07-27T10:17:39.543Z</time>
      </trkpt>
      <trkpt lat="54.04875" lon="14.8835">
        <ele>46.063835</ele>
        <time>2024-07-27T10:17:42.550Z</time>
      </trkpt>
      <trkpt lat="54.04875" lon="14.88366">
        <ele>46.083658</ele>
        <time>2024-07-27T10:17:45.562Z</time>
      </trkpt>
      <trkpt lat="54.04877" lon="14.88385">
        <ele>46.108603</ele>
        <time>2024-07-27T10:17:48.555Z</time>
      </trkpt>
      <trkpt lat="54.04877" lon="14.88402">
        <ele>46.130835</ele>
        <time>2024-07-27T10:17:51.551Z</time>
      </trkpt>
      <trkpt lat="54.04879" lon="14.88422">
        <ele>46.155806</ele>
        <time>2024-07-27T10:17:54.548Z</time>
      </trkpt>
      <trkpt lat="54.04879" lon="14.88439">
        <ele>46.178284</ele>
        <time>2024-07-27T10:17:57.546Z</time>
      </trkpt>
      <trkpt lat="54.04882" lon="14.8846">
        <ele>46.204629</ele>
        <time>2024-07-27T10:18:00.549Z</time>
      </trkpt>
      <trkpt lat="54.04883" lon="14.88475">
        <ele>46.100524</ele>
        <time>2024-07-27T10:18:02.567Z</time>
      </trkpt>
      <trkpt lat="54.04886" lon="14.88495">
        <ele>45.947567</ele>
        <time>2024-07-27T10:18:05.548Z</time>
      </trkpt>
      <trkpt lat="54.04887" lon="14.88515">
        <ele>45.800023</ele>
        <time>2024-07-27T10:18:08.552Z</time>
      </trkpt>
      <trkpt lat="54.04888" lon="14.88532">
        <ele>45.67356</ele>
        <time>2024-07-27T10:18:11.563Z</time>
      </trkpt>
      <trkpt lat="54.04889" lon="14.8855">
        <ele>45.540329</ele>
        <time>2024-07-27T10:18:14.561Z</time>
      </trkpt>
      <trkpt lat="54.04891" lon="14.88568">
        <ele>45.407352</ele>
        <time>2024-07-27T10:18:17.572Z</time>
      </trkpt>
      <trkpt lat="54.04894" lon="14.88587">
        <ele>45.265789</ele>
        <time>2024-07-27T10:18:20.555Z</time>
      </trkpt>
      <trkpt lat="54.04895" lon="14.88606">
        <ele>45.127185</ele>
        <time>2024-07-27T10:18:23.539Z</time>
      </trkpt>
      <trkpt lat="54.04896" lon="14.88625">
        <ele>44.990451</ele>
        <time>2024-07-27T10:18:26.543Z</time>
      </trkpt>
      <trkpt lat="54.04898" lon="14.88643">
        <ele>44.854522</ele>
        <time>2024-07-27T10:18:29.549Z</time>
      </trkpt>
      <trkpt lat="54.04899" lon="14.88661">
        <ele>44.718636</ele>
        <time>2024-07-27T10:18:32.533Z</time>
      </trkpt>
      <trkpt lat="54.04902" lon="14.88681">
        <ele>44.569071</ele>
        <time>2024-07-27T10:18:35.534Z</time>
      </trkpt>
      <trkpt lat="54.04904" lon="14.88703">
        <ele>44.409229</ele>
        <time>2024-07-27T10:18:38.574Z</time>
      </trkpt>
      <trkpt lat="54.04905" lon="14.88719">
        <ele>44.290574</ele>
        <time>2024-07-27T10:18:40.551Z</time>
      </trkpt>
      <trkpt lat="54.04904" lon="14.88736">
        <ele>44.168997</ele>
        <time>2024-07-27T10:18:42.546Z</time>
      </trkpt>
      <trkpt lat="54.04905" lon="14.88754">
        <ele>44.031213</ele>
        <time>2024-07-27T10:18:44.534Z</time>
      </trkpt>
      <trkpt lat="54.04906" lon="14.88773">
        <ele>44.1296</ele>
        <time>2024-07-27T10:18:46.558Z</time>
      </trkpt>
      <trkpt lat="54.04908" lon="14.88789">
        <ele>44.414299</ele>
        <time>2024-07-27T10:18:48.563Z</time>
      </trkpt>
      <trkpt lat="54.0491" lon="14.88805">
        <ele>44.700131</ele>
        <time>2024-07-27T10:18:50.549Z</time>
      </trkpt>
      <trkpt lat="54.0491" lon="14.88821">
        <ele>44.967508</ele>
        <time>2024-07-27T10:18:52.541Z</time>
      </trkpt>
      <trkpt lat="54.04909" lon="14.88837">
        <ele>45.246705</ele>
        <time>2024-07-27T10:18:54.534Z</time>
      </trkpt>
      <trkpt lat="54.04911" lon="14.88859">
        <ele>45.633526</ele>
        <time>2024-07-27T10:18:57.549Z</time>
      </trkpt>
      <trkpt lat="54.04913" lon="14.88875">
        <ele>45.915442</ele>
        <time>2024-07-27T10:18:59.551Z</time>
      </trkpt>
      <trkpt lat="54.04914" lon="14.88892">
        <ele>46.202749</ele>
        <time>2024-07-27T10:19:01.545Z</time>
      </trkpt>
      <trkpt lat="54.04915" lon="14.88907">
        <ele>46.466026</ele>
        <time>2024-07-27T10:19:03.547Z</time>
      </trkpt>
      <trkpt lat="54.04918" lon="14.88929">
        <ele>46.849389</ele>
        <time>2024-07-27T10:19:06.562Z</time>
      </trkpt>
      <trkpt lat="54.04918" lon="14.88951">
        <ele>47.237542</ele>
        <time>2024-07-27T10:19:09.561Z</time>
      </trkpt>
      <trkpt lat="54.04919" lon="14.88967">
        <ele>47.507407</ele>
        <time>2024-07-27T10:19:11.566Z</time>
      </trkpt>
      <trkpt lat="54.0492" lon="14.88989">
        <ele>47.88646</ele>
        <time>2024-07-27T10:19:14.547Z</time>
      </trkpt>
      <trkpt lat="54.04922" lon="14.89009">
        <ele>48.234314</ele>
        <time>2024-07-27T10:19:17.557Z</time>
      </trkpt>
      <trkpt lat="54.04923" lon="14.89029">
        <ele>48.581712</ele>
        <time>2024-07-27T10:19:20.550Z</time>
      </trkpt>
      <trkpt lat="54.04924" lon="14.89047">
        <ele>48.900446</ele>
        <time>2024-07-27T10:19:23.551Z</time>
      </trkpt>
      <trkpt lat="54.04925" lon="14.89067">
        <ele>49.239001</ele>
        <time>2024-07-27T10:19:26.547Z</time>
      </trkpt>
      <trkpt lat="54.04927" lon="14.89082">
        <ele>49.175182</ele>
        <time>2024-07-27T10:19:28.551Z</time>
      </trkpt>
      <trkpt lat="54.0493" lon="14.89104">
        <ele>49.07691</ele>
        <time>2024-07-27T10:19:31.550Z</time>
      </trkpt>
      <trkpt lat="54.04932" lon="14.89125">
        <ele>48.981281</ele>
        <time>2024-07-27T10:19:34.559Z</time>
      </trkpt>
      <trkpt lat="54.04934" lon="14.89146">
        <ele>48.888653</ele>
        <time>2024-07-27T10:19:37.551Z</time>
      </trkpt>
      <trkpt lat="54.04935" lon="14.89167">
        <ele>48.794945</ele>
        <time>2024-07-27T10:19:40.544Z</time>
      </trkpt>
      <trkpt lat="54.04936" lon="14.89188">
        <ele>48.699747</ele>
        <time>2024-07-27T10:19:43.555Z</time>
      </trkpt>
      <trkpt lat="54.04938" lon="14.89209">
        <ele>48.60372</ele>
        <time>2024-07-27T10:19:46.555Z</time>
      </trkpt>
      <trkpt lat="54.0494" lon="14.8923">
        <ele>48.509227</ele>
        <time>2024-07-27T10:19:49.563Z</time>
      </trkpt>
      <trkpt lat="54.04942" lon="14.89251">
        <ele>48.412758</ele>
        <time>2024-07-27T10:19:52.544Z</time>
      </trkpt>
      <trkpt lat="54.04944" lon="14.89271">
        <ele>48.325339</ele>
        <time>2024-07-27T10:19:55.553Z</time>
      </trkpt>
      <trkpt lat="54.04945" lon="14.8929">
        <ele>48.240128</ele>
        <time>2024-07-27T10:19:58.552Z</time>
      </trkpt>
      <trkpt lat="54.04946" lon="14.8931">
        <ele>48.149785</ele>
        <time>2024-07-27T10:20:01.556Z</time>
      </trkpt>
      <trkpt lat="54.04947" lon="14.89331">
        <ele>48.055704</ele>
        <time>2024-07-27T10:20:04.541Z</time>
      </trkpt>
      <trkpt lat="54.04948" lon="14.89351">
        <ele>47.965514</ele>
        <time>2024-07-27T10:20:07.552Z</time>
      </trkpt>
      <trkpt lat="54.04949" lon="14.89371">
        <ele>47.877684</ele>
        <time>2024-07-27T10:20:10.545Z</time>
      </trkpt>
      <trkpt lat="54.0495" lon="14.89391">
        <ele>47.879151</ele>
        <time>2024-07-27T10:20:13.551Z</time>
      </trkpt>
      <trkpt lat="54.04951" lon="14.8941">
        <ele>47.880522</ele>
        <time>2024-07-27T10:20:16.549Z</time>
      </trkpt>
      <trkpt lat="54.04953" lon="14.89429">
        <ele>47.881931</ele>
        <time>2024-07-27T10:20:19.535Z</time>
      </trkpt>
      <trkpt lat="54.04955" lon="14.89444">
        <ele>47.883054</ele>
        <time>2024-07-27T10:20:21.549Z</time>
      </trkpt>
      <trkpt lat="54.04957" lon="14.89464">
        <ele>47.884508</ele>
        <time>2024-07-27T10:20:24.554Z</time>
      </trkpt>
      <trkpt lat="54.04958" lon="14.89479">
        <ele>47.88562</ele>
        <time>2024-07-27T10:20:26.532Z</time>
      </trkpt>
      <trkpt lat="54.04959" lon="14.895">
        <ele>47.887178</ele>
        <time>2024-07-27T10:20:29.565Z</time>
      </trkpt>
      <trkpt lat="54.0496" lon="14.89521">
        <ele>47.888652</ele>
        <time>2024-07-27T10:20:32.561Z</time>
      </trkpt>
      <trkpt lat="54.04963" lon="14.89542">
        <ele>47.890244</ele>
        <time>2024-07-27T10:20:35.566Z</time>
      </trkpt>
      <trkpt lat="54.04964" lon="14.89562">
        <ele>47.891728</ele>
        <time>2024-07-27T10:20:38.555Z</time>
      </trkpt>
      <trkpt lat="54.04966" lon="14.89577">
        <ele>47.892844</ele>
        <time>2024-07-27T10:20:40.537Z</time>
      </trkpt>
      <trkpt lat="54.04969" lon="14.89595">
        <ele>47.894146</ele>
        <time>2024-07-27T10:20:43.538Z</time>
      </trkpt>
      <trkpt lat="54.0497" lon="14.89613">
        <ele>47.895513</ele>
        <time>2024-07-27T10:20:46.525Z</time>
      </trkpt>
      <trkpt lat="54.04971" lon="14.89635">
        <ele>47.89709</ele>
        <time>2024-07-27T10:20:49.536Z</time>
      </trkpt>
      <trkpt lat="54.04971" lon="14.89654">
        <ele>47.89849</ele>
        <time>2024-07-27T10:20:52.536Z</time>
      </trkpt>
      <trkpt lat="54.04973" lon="14.89674">
        <ele>47.899745</ele>
        <time>2024-07-27T10:20:55.549Z</time>
      </trkpt>
      <trkpt lat="54.04974" lon="14.89692">
        <ele>47.823054</ele>
        <time>2024-07-27T10:20:58.568Z</time>
      </trkpt>
      <trkpt lat="54.04974" lon="14.89712">
        <ele>47.741309</ele>
        <time>2024-07-27T10:21:01.565Z</time>
      </trkpt>
      <trkpt lat="54.04976" lon="14.89728">
        <ele>47.673536</ele>
        <time>2024-07-27T10:21:03.557Z</time>
      </trkpt>
      <trkpt lat="54.04978" lon="14.8975">
        <ele>47.583318</ele>
        <time>2024-07-27T10:21:06.549Z</time>
      </trkpt>
      <trkpt lat="54.0498" lon="14.89771">
        <ele>47.495807</ele>
        <time>2024-07-27T10:21:09.561Z</time>
      </trkpt>
      <trkpt lat="54.04983" lon="14.8979">
        <ele>47.417253</ele>
        <time>2024-07-27T10:21:12.541Z</time>
      </trkpt>
      <trkpt lat="54.04983" lon="14.89808">
        <ele>47.340049</ele>
        <time>2024-07-27T10:21:15.556Z</time>
      </trkpt>
      <trkpt lat="54.04985" lon="14.89826">
        <ele>47.268662</ele>
        <time>2024-07-27T10:21:18.571Z</time>
      </trkpt>
      <trkpt lat="54.04986" lon="14.89841">
        <ele>47.203291</ele>
        <time>2024-07-27T10:21:21.552Z</time>
      </trkpt>
      <trkpt lat="54.04988" lon="14.8986">
        <ele>47.123699</ele>
        <time>2024-07-27T10:21:24.532Z</time>
      </trkpt>
      <trkpt lat="54.04989" lon="14.89881">
        <ele>47.040536</ele>
        <time>2024-07-27T10:21:27.564Z</time>
      </trkpt>
      <trkpt lat="54.04991" lon="14.89897">
        <ele>46.971523</ele>
        <time>2024-07-27T10:21:30.565Z</time>
      </trkpt>
      <trkpt lat="54.04993" lon="14.89915">
        <ele>46.895982</ele>
        <time>2024-07-27T10:21:33.548Z</time>
      </trkpt>
      <trkpt lat="54.04996" lon="14.89934">
        <ele>46.814498</ele>
        <time>2024-07-27T10:21:36.557Z</time>
      </trkpt>
      <trkpt lat="54.04997" lon="14.89954">
        <ele>46.734879</ele>
        <time>2024-07-27T10:21:39.558Z</time>
      </trkpt>
      <trkpt lat="54.04998" lon="14.89972">
        <ele>46.658779</ele>
        <time>2024-07-27T10:21:42.539Z</time>
      </trkpt>
      <trkpt lat="54.04999" lon="14.89993">
        <ele>46.550986</ele>
        <time>2024-07-27T10:21:45.549Z</time>
      </trkpt>
      <trkpt lat="54.05001" lon="14.90011">
        <ele>46.448696</ele>
        <time>2024-07-27T10:21:48.563Z</time>
      </trkpt>
      <trkpt lat="54.05002" lon="14.90028">
        <ele>46.353058</ele>
        <time>2024-07-27T10:21:51.552Z</time>
      </trkpt>
      <trkpt lat="54.05003" lon="14.90046">
        <ele>46.255522</ele>
        <time>2024-07-27T10:21:54.562Z</time>
      </trkpt>
      <trkpt lat="54.05006" lon="14.90064">
        <ele>46.152996</ele>
        <time>2024-07-27T10:21:57.531Z</time>
      </trkpt>
      <trkpt lat="54.05008" lon="14.90084">
        <ele>46.041825</ele>
        <time>2024-07-27T10:22:00.546Z</time>
      </trkpt>
      <trkpt lat="54.0501" lon="14.90101">
        <ele>45.946819</ele>
        <time>2024-07-27T10:22:03.553Z</time>
      </trkpt>
      <trkpt lat="54.0501" lon="14.90118">
        <ele>45.853737</ele>
        <time>2024-07-27T10:22:07.554Z</time>
      </trkpt>
      <trkpt lat="54.05011" lon="14.90138">
        <ele>45.744163</ele>
        <time>2024-07-27T10:22:11.555Z</time>
      </trkpt>
      <trkpt lat="54.05013" lon="14.90157">
        <ele>45.640889</ele>
        <time>2024-07-27T10:22:14.538Z</time>
      </trkpt>
      <trkpt lat="54.05015" lon="14.90176">
        <ele>45.531876</ele>
        <time>2024-07-27T10:22:17.551Z</time>
      </trkpt>
      <trkpt lat="54.05017" lon="14.90196">
        <ele>45.420166</ele>
        <time>2024-07-27T10:22:20.537Z</time>
      </trkpt>
      <trkpt lat="54.05019" lon="14.90213">
        <ele>45.325699</ele>
        <time>2024-07-27T10:22:23.562Z</time>
      </trkpt>
      <trkpt lat="54.0502" lon="14.90229">
        <ele>45.234967</ele>
        <time>2024-07-27T10:22:26.535Z</time>
      </trkpt>
      <trkpt lat="54.05021" lon="14.90247">
        <ele>45.138985</ele>
        <time>2024-07-27T10:22:29.565Z</time>
      </trkpt>
      <trkpt lat="54.05022" lon="14.90265">
        <ele>45.038911</ele>
        <time>2024-07-27T10:22:32.551Z</time>
      </trkpt>
      <trkpt lat="54.05022" lon="14.90282">
        <ele>44.972953</ele>
        <time>2024-07-27T10:22:35.552Z</time>
      </trkpt>
      <trkpt lat="54.05024" lon="14.90299">
        <ele>45.059215</ele>
        <time>2024-07-27T10:22:38.539Z</time>
      </trkpt>
      <trkpt lat="54.05025" lon="14.90318">
        <ele>45.15252</ele>
        <time>2024-07-27T10:22:41.548Z</time>
      </trkpt>
      <trkpt lat="54.05026" lon="14.90337">
        <ele>45.243213</ele>
        <time>2024-07-27T10:22:44.578Z</time>
      </trkpt>
      <trkpt lat="54.05027" lon="14.90355">
        <ele>45.327578</ele>
        <time>2024-07-27T10:22:47.565Z</time>
      </trkpt>
      <trkpt lat="54.05029" lon="14.90372">
        <ele>45.415743</ele>
        <time>2024-07-27T10:22:50.543Z</time>
      </trkpt>
      <trkpt lat="54.05031" lon="14.9039">
        <ele>45.502596</ele>
        <time>2024-07-27T10:22:53.550Z</time>
      </trkpt>
      <trkpt lat="54.05031" lon="14.90407">
        <ele>45.582878</ele>
        <time>2024-07-27T10:22:56.555Z</time>
      </trkpt>
      <trkpt lat="54.05031" lon="14.90424">
        <ele>45.667175</ele>
        <time>2024-07-27T10:22:59.539Z</time>
      </trkpt>
      <trkpt lat="54.05031" lon="14.9044">
        <ele>45.744458</ele>
        <time>2024-07-27T10:23:02.532Z</time>
      </trkpt>
      <trkpt lat="54.05031" lon="14.90457">
        <ele>45.825268</ele>
        <time>2024-07-27T10:23:05.553Z</time>
      </trkpt>
      <trkpt lat="54.05033" lon="14.90477">
        <ele>45.923733</ele>
        <time>2024-07-27T10:23:09.541Z</time>
      </trkpt>
      <trkpt lat="54.05035" lon="14.90493">
        <ele>46.003764</ele>
        <time>2024-07-27T10:23:12.542Z</time>
      </trkpt>
      <trkpt lat="54.05039" lon="14.9051">
        <ele>46.092978</ele>
        <time>2024-07-27T10:23:15.550Z</time>
      </trkpt>
      <trkpt lat="54.05041" lon="14.90526">
        <ele>46.170893</ele>
        <time>2024-07-27T10:23:18.536Z</time>
      </trkpt>
      <trkpt lat="54.05037" lon="14.90541">
        <ele>46.247653</ele>
        <time>2024-07-27T10:23:22.545Z</time>
      </trkpt>
      <trkpt lat="54.05038" lon="14.90557">
        <ele>46.325936</ele>
        <time>2024-07-27T10:23:25.547Z</time>
      </trkpt>
      <trkpt lat="54.05043" lon="14.90569">
        <ele>46.40049</ele>
        <time>2024-07-27T10:23:28.547Z</time>
      </trkpt>
      <trkpt lat="54.05042" lon="14.90586">
        <ele>46.551102</ele>
        <time>2024-07-27T10:23:32.529Z</time>
      </trkpt>
      <trkpt lat="54.05042" lon="14.90602">
        <ele>46.748068</ele>
        <time>2024-07-27T10:23:36.549Z</time>
      </trkpt>
      <trkpt lat="54.05044" lon="14.90621">
        <ele>46.991556</ele>
        <time>2024-07-27T10:23:40.553Z</time>
      </trkpt>
      <trkpt lat="54.05046" lon="14.90636">
        <ele>47.186347</ele>
        <time>2024-07-27T10:23:43.549Z</time>
      </trkpt>
      <trkpt lat="54.05047" lon="14.90651">
        <ele>47.381787</ele>
        <time>2024-07-27T10:23:46.559Z</time>
      </trkpt>
      <trkpt lat="54.05048" lon="14.90667">
        <ele>47.577002</ele>
        <time>2024-07-27T10:23:49.552Z</time>
      </trkpt>
      <trkpt lat="54.0505" lon="14.90685">
        <ele>47.811804</ele>
        <time>2024-07-27T10:23:53.571Z</time>
      </trkpt>
      <trkpt lat="54.05052" lon="14.907">
        <ele>48.01035</ele>
        <time>2024-07-27T10:23:56.541Z</time>
      </trkpt>
      <trkpt lat="54.05053" lon="14.90718">
        <ele>48.228594</ele>
        <time>2024-07-27T10:23:59.557Z</time>
      </trkpt>
      <trkpt lat="54.05055" lon="14.90734">
        <ele>48.439545</ele>
        <time>2024-07-27T10:24:02.542Z</time>
      </trkpt>
      <trkpt lat="54.05056" lon="14.90752">
        <ele>48.666962</ele>
        <time>2024-07-27T10:24:05.554Z</time>
      </trkpt>
      <trkpt lat="54.05057" lon="14.9077">
        <ele>48.89393</ele>
        <time>2024-07-27T10:24:08.556Z</time>
      </trkpt>
      <trkpt lat="54.05058" lon="14.90787">
        <ele>49.111156</ele>
        <time>2024-07-27T10:24:11.568Z</time>
      </trkpt>
      <trkpt lat="54.05058" lon="14.90804">
        <ele>49.325604</ele>
        <time>2024-07-27T10:24:14.542Z</time>
      </trkpt>
      <trkpt lat="54.05058" lon="14.9082">
        <ele>49.524063</ele>
        <time>2024-07-27T10:24:17.550Z</time>
      </trkpt>
      <trkpt lat="54.05059" lon="14.90836">
        <ele>49.731833</ele>
        <time>2024-07-27T10:24:20.551Z</time>
      </trkpt>
      <trkpt lat="54.05061" lon="14.90853">
        <ele>49.948883</ele>
        <time>2024-07-27T10:24:23.552Z</time>
      </trkpt>
      <trkpt lat="54.05063" lon="14.9087">
        <ele>50.171384</ele>
        <time>2024-07-27T10:24:26.565Z</time>
      </trkpt>
      <trkpt lat="54.05065" lon="14.90886">
        <ele>50.419123</ele>
        <time>2024-07-27T10:24:29.556Z</time>
      </trkpt>
      <trkpt lat="54.05067" lon="14.90903">
        <ele>50.750449</ele>
        <time>2024-07-27T10:24:32.555Z</time>
      </trkpt>
      <trkpt lat="54.05066" lon="14.9092">
        <ele>51.081785</ele>
        <time>2024-07-27T10:24:35.554Z</time>
      </trkpt>
      <trkpt lat="54.05069" lon="14.90939">
        <ele>51.466873</ele>
        <time>2024-07-27T10:24:38.555Z</time>
      </trkpt>
      <trkpt lat="54.05071" lon="14.90958">
        <ele>51.839674</ele>
        <time>2024-07-27T10:24:41.552Z</time>
      </trkpt>
      <trkpt lat="54.05072" lon="14.90978">
        <ele>52.226582</ele>
        <time>2024-07-27T10:24:44.552Z</time>
      </trkpt>
      <trkpt lat="54.05074" lon="14.90997">
        <ele>52.607078</ele>
        <time>2024-07-27T10:24:47.551Z</time>
      </trkpt>
      <trkpt lat="54.05076" lon="14.91012">
        <ele>52.918382</ele>
        <time>2024-07-27T10:24:50.550Z</time>
      </trkpt>
      <trkpt lat="54.05077" lon="14.91031">
        <ele>53.286005</ele>
        <time>2024-07-27T10:24:54.542Z</time>
      </trkpt>
      <trkpt lat="54.05078" lon="14.9105">
        <ele>53.656623</ele>
        <time>2024-07-27T10:24:58.546Z</time>
      </trkpt>
      <trkpt lat="54.05079" lon="14.91068">
        <ele>54.008133</ele>
        <time>2024-07-27T10:25:01.541Z</time>
      </trkpt>
      <trkpt lat="54.0508" lon="14.91085">
        <ele>54.353524</ele>
        <time>2024-07-27T10:25:04.563Z</time>
      </trkpt>
      <trkpt lat="54.05083" lon="14.91103">
        <ele>54.726568</ele>
        <time>2024-07-27T10:25:07.535Z</time>
      </trkpt>
      <trkpt lat="54.05085" lon="14.9112">
        <ele>55.047484</ele>
        <time>2024-07-27T10:25:10.557Z</time>
      </trkpt>
      <trkpt lat="54.05085" lon="14.91138">
        <ele>55.399953</ele>
        <time>2024-07-27T10:25:13.572Z</time>
      </trkpt>
      <trkpt lat="54.05086" lon="14.91157">
        <ele>55.784232</ele>
        <time>2024-07-27T10:25:16.543Z</time>
      </trkpt>
      <trkpt lat="54.05082" lon="14.91175">
        <ele>56.153776</ele>
        <time>2024-07-27T10:25:19.534Z</time>
      </trkpt>
      <trkpt lat="54.05083" lon="14.91191">
        <ele>56.132684</ele>
        <time>2024-07-27T10:25:22.562Z</time>
      </trkpt>
      <trkpt lat="54.05085" lon="14.91211">
        <ele>55.769145</ele>
        <time>2024-07-27T10:25:25.554Z</time>
      </trkpt>
      <trkpt lat="54.05086" lon="14.91229">
        <ele>55.42727</ele>
        <time>2024-07-27T10:25:28.547Z</time>
      </trkpt>
      <trkpt lat="54.05088" lon="14.91247">
        <ele>55.071772</ele>
        <time>2024-07-27T10:25:31.554Z</time>
      </trkpt>
      <trkpt lat="54.0509" lon="14.91266">
        <ele>54.712404</ele>
        <time>2024-07-27T10:25:34.573Z</time>
      </trkpt>
      <trkpt lat="54.05091" lon="14.91286">
        <ele>54.344726</ele>
        <time>2024-07-27T10:25:37.546Z</time>
      </trkpt>
      <trkpt lat="54.05092" lon="14.91305">
        <ele>53.985331</ele>
        <time>2024-07-27T10:25:40.565Z</time>
      </trkpt>
      <trkpt lat="54.05093" lon="14.91323">
        <ele>53.636671</ele>
        <time>2024-07-27T10:25:43.555Z</time>
      </trkpt>
      <trkpt lat="54.05094" lon="14.91342">
        <ele>53.281738</ele>
        <time>2024-07-27T10:25:46.577Z</time>
      </trkpt>
      <trkpt lat="54.05095" lon="14.91358">
        <ele>52.976007</ele>
        <time>2024-07-27T10:25:48.548Z</time>
      </trkpt>
      <trkpt lat="54.05096" lon="14.91379">
        <ele>52.583531</ele>
        <time>2024-07-27T10:25:51.556Z</time>
      </trkpt>
      <trkpt lat="54.05097" lon="14.91402">
        <ele>52.152965</ele>
        <time>2024-07-27T10:25:54.536Z</time>
      </trkpt>
      <trkpt lat="54.05097" lon="14.91424">
        <ele>51.742795</ele>
        <time>2024-07-27T10:25:57.547Z</time>
      </trkpt>
      <trkpt lat="54.05098" lon="14.91445">
        <ele>51.344884</ele>
        <time>2024-07-27T10:26:00.549Z</time>
      </trkpt>
      <trkpt lat="54.05097" lon="14.9146">
        <ele>51.055403</ele>
        <time>2024-07-27T10:26:02.533Z</time>
      </trkpt>
      <trkpt lat="54.05096" lon="14.91483">
        <ele>50.637255</ele>
        <time>2024-07-27T10:26:05.544Z</time>
      </trkpt>
      <trkpt lat="54.05095" lon="14.91505">
        <ele>50.436294</ele>
        <time>2024-07-27T10:26:08.554Z</time>
      </trkpt>
      <trkpt lat="54.05095" lon="14.91526">
        <ele>50.295482</ele>
        <time>2024-07-27T10:26:11.549Z</time>
      </trkpt>
      <trkpt lat="54.05095" lon="14.91547">
        <ele>50.159272</ele>
        <time>2024-07-27T10:26:14.532Z</time>
      </trkpt>
      <trkpt lat="54.05095" lon="14.91567">
        <ele>50.025022</ele>
        <time>2024-07-27T10:26:17.549Z</time>
      </trkpt>
      <trkpt lat="54.05095" lon="14.91587">
        <ele>49.898687</ele>
        <time>2024-07-27T10:26:20.557Z</time>
      </trkpt>
      <trkpt lat="54.05096" lon="14.91607">
        <ele>49.767702</ele>
        <time>2024-07-27T10:26:23.537Z</time>
      </trkpt>
      <trkpt lat="54.05096" lon="14.91626">
        <ele>49.636588</ele>
        <time>2024-07-27T10:26:26.568Z</time>
      </trkpt>
      <trkpt lat="54.05096" lon="14.91645">
        <ele>49.516785</ele>
        <time>2024-07-27T10:26:29.564Z</time>
      </trkpt>
      <trkpt lat="54.05096" lon="14.91664">
        <ele>49.391761</ele>
        <time>2024-07-27T10:26:32.551Z</time>
      </trkpt>
      <trkpt lat="54.05097" lon="14.91685">
        <ele>49.253541</ele>
        <time>2024-07-27T10:26:35.567Z</time>
      </trkpt>
      <trkpt lat="54.05096" lon="14.91705">
        <ele>49.119291</ele>
        <time>2024-07-27T10:26:38.544Z</time>
      </trkpt>
      <trkpt lat="54.05096" lon="14.91724">
        <ele>48.993865</ele>
        <time>2024-07-27T10:26:41.545Z</time>
      </trkpt>
      <trkpt lat="54.05095" lon="14.91741">
        <ele>48.880241</ele>
        <time>2024-07-27T10:26:44.535Z</time>
      </trkpt>
      <trkpt lat="54.05094" lon="14.91762">
        <ele>48.741331</ele>
        <time>2024-07-27T10:26:47.554Z</time>
      </trkpt>
      <trkpt lat="54.05094" lon="14.91781">
        <ele>48.620917</ele>
        <time>2024-07-27T10:26:50.567Z</time>
      </trkpt>
      <trkpt lat="54.05095" lon="14.91797">
        <ele>48.555612</ele>
        <time>2024-07-27T10:26:53.563Z</time>
      </trkpt>
      <trkpt lat="54.05094" lon="14.91814">
        <ele>48.635669</ele>
        <time>2024-07-27T10:26:56.558Z</time>
      </trkpt>
      <trkpt lat="54.05095" lon="14.91837">
        <ele>48.742639</ele>
        <time>2024-07-27T10:26:59.569Z</time>
      </trkpt>
      <trkpt lat="54.05097" lon="14.91854">
        <ele>48.821169</ele>
        <time>2024-07-27T10:27:01.554Z</time>
      </trkpt>
      <trkpt lat="54.05098" lon="14.91875">
        <ele>48.92244</ele>
        <time>2024-07-27T10:27:04.551Z</time>
      </trkpt>
      <trkpt lat="54.05099" lon="14.91896">
        <ele>49.016812</ele>
        <time>2024-07-27T10:27:07.530Z</time>
      </trkpt>
      <trkpt lat="54.05096" lon="14.91915">
        <ele>49.109268</ele>
        <time>2024-07-27T10:27:10.543Z</time>
      </trkpt>
      <trkpt lat="54.05094" lon="14.91931">
        <ele>49.187244</ele>
        <time>2024-07-27T10:27:13.551Z</time>
      </trkpt>
      <trkpt lat="54.05095" lon="14.91948">
        <ele>49.26265</ele>
        <time>2024-07-27T10:27:16.549Z</time>
      </trkpt>
      <trkpt lat="54.05097" lon="14.91963">
        <ele>49.337133</ele>
        <time>2024-07-27T10:27:19.551Z</time>
      </trkpt>
      <trkpt lat="54.05106" lon="14.91975">
        <ele>49.430276</ele>
        <time>2024-07-27T10:27:24.540Z</time>
      </trkpt>
      <trkpt lat="54.05117" lon="14.91972">
        <ele>49.515101</ele>
        <time>2024-07-27T10:27:27.553Z</time>
      </trkpt>
      <trkpt lat="54.05129" lon="14.91969">
        <ele>49.608179</ele>
        <time>2024-07-27T10:27:30.560Z</time>
      </trkpt>
      <trkpt lat="54.05138" lon="14.91968">
        <ele>49.68272</ele>
        <time>2024-07-27T10:27:33.527Z</time>
      </trkpt>
      <trkpt lat="54.05148" lon="14.91965">
        <ele>49.762521</ele>
        <time>2024-07-27T10:27:36.554Z</time>
      </trkpt>
      <trkpt lat="54.05159" lon="14.91962">
        <ele>49.84827</ele>
        <time>2024-07-27T10:27:39.518Z</time>
      </trkpt>
      <trkpt lat="54.0517" lon="14.91959">
        <ele>49.935645</ele>
        <time>2024-07-27T10:27:42.551Z</time>
      </trkpt>
      <trkpt lat="54.05179" lon="14.91955">
        <ele>50.005718</ele>
        <time>2024-07-27T10:27:45.552Z</time>
      </trkpt>
      <trkpt lat="54.0519" lon="14.91957">
        <ele>50.077411</ele>
        <time>2024-07-27T10:27:48.529Z</time>
      </trkpt>
      <trkpt lat="54.052" lon="14.91957">
        <ele>50.143554</ele>
        <time>2024-07-27T10:27:51.555Z</time>
      </trkpt>
      <trkpt lat="54.05211" lon="14.91955">
        <ele>50.220706</ele>
        <time>2024-07-27T10:27:55.544Z</time>
      </trkpt>
      <trkpt lat="54.05222" lon="14.91953">
        <ele>50.29516</ele>
        <time>2024-07-27T10:27:59.567Z</time>
      </trkpt>
      <trkpt lat="54.05232" lon="14.91952">
        <ele>50.356318</ele>
        <time>2024-07-27T10:28:02.557Z</time>
      </trkpt>
      <trkpt lat="54.05242" lon="14.9195">
        <ele>50.423985</ele>
        <time>2024-07-27T10:28:05.533Z</time>
      </trkpt>
      <trkpt lat="54.05251" lon="14.9195">
        <ele>50.484811</ele>
        <time>2024-07-27T10:28:08.554Z</time>
      </trkpt>
      <trkpt lat="54.0526" lon="14.9195">
        <ele>50.547614</ele>
        <time>2024-07-27T10:28:11.555Z</time>
      </trkpt>
      <trkpt lat="54.05271" lon="14.91947">
        <ele>50.6194</ele>
        <time>2024-07-27T10:28:14.565Z</time>
      </trkpt>
      <trkpt lat="54.0528" lon="14.91944">
        <ele>50.685126</ele>
        <time>2024-07-27T10:28:17.544Z</time>
      </trkpt>
      <trkpt lat="54.05291" lon="14.91943">
        <ele>50.754887</ele>
        <time>2024-07-27T10:28:20.544Z</time>
      </trkpt>
      <trkpt lat="54.05301" lon="14.91941">
        <ele>50.821586</ele>
        <time>2024-07-27T10:28:23.550Z</time>
      </trkpt>
      <trkpt lat="54.0531" lon="14.91938">
        <ele>50.882936</ele>
        <time>2024-07-27T10:28:26.565Z</time>
      </trkpt>
      <trkpt lat="54.05321" lon="14.91936">
        <ele>50.956264</ele>
        <time>2024-07-27T10:28:29.550Z</time>
      </trkpt>
      <trkpt lat="54.05331" lon="14.91937">
        <ele>51.02645</ele>
        <time>2024-07-27T10:28:32.551Z</time>
      </trkpt>
      <trkpt lat="54.05342" lon="14.91936">
        <ele>51.097449</ele>
        <time>2024-07-27T10:28:35.549Z</time>
      </trkpt>
      <trkpt lat="54.05352" lon="14.91933">
        <ele>51.165296</ele>
        <time>2024-07-27T10:28:38.572Z</time>
      </trkpt>
      <trkpt lat="54.05363" lon="14.91932">
        <ele>51.18988</ele>
        <time>2024-07-27T10:28:41.555Z</time>
      </trkpt>
      <trkpt lat="54.05372" lon="14.91929">
        <ele>51.212473</ele>
        <time>2024-07-27T10:28:44.556Z</time>
      </trkpt>
      <trkpt lat="54.05382" lon="14.91928">
        <ele>51.236039</ele>
        <time>2024-07-27T10:28:47.556Z</time>
      </trkpt>
      <trkpt lat="54.05393" lon="14.91927">
        <ele>51.261537</ele>
        <time>2024-07-27T10:28:50.529Z</time>
      </trkpt>
      <trkpt lat="54.05403" lon="14.91925">
        <ele>51.286832</ele>
        <time>2024-07-27T10:28:53.561Z</time>
      </trkpt>
      <trkpt lat="54.05414" lon="14.91924">
        <ele>51.31193</ele>
        <time>2024-07-27T10:28:56.552Z</time>
      </trkpt>
      <trkpt lat="54.05425" lon="14.91923">
        <ele>51.337374</ele>
        <time>2024-07-27T10:28:59.544Z</time>
      </trkpt>
      <trkpt lat="54.05437" lon="14.91921">
        <ele>51.366244</ele>
        <time>2024-07-27T10:29:02.554Z</time>
      </trkpt>
      <trkpt lat="54.05449" lon="14.91919">
        <ele>51.394762</ele>
        <time>2024-07-27T10:29:05.564Z</time>
      </trkpt>
      <trkpt lat="54.0546" lon="14.91917">
        <ele>51.421016</ele>
        <time>2024-07-27T10:29:08.575Z</time>
      </trkpt>
      <trkpt lat="54.05471" lon="14.91914">
        <ele>51.448948</ele>
        <time>2024-07-27T10:29:11.569Z</time>
      </trkpt>
      <trkpt lat="54.05484" lon="14.91911">
        <ele>51.479085</ele>
        <time>2024-07-27T10:29:14.547Z</time>
      </trkpt>
      <trkpt lat="54.05496" lon="14.9191">
        <ele>51.508666</ele>
        <time>2024-07-27T10:29:17.547Z</time>
      </trkpt>
      <trkpt lat="54.05509" lon="14.91906">
        <ele>51.539106</ele>
        <time>2024-07-27T10:29:20.547Z</time>
      </trkpt>
      <trkpt lat="54.05521" lon="14.91902">
        <ele>51.569452</ele>
        <time>2024-07-27T10:29:23.539Z</time>
      </trkpt>
      <trkpt lat="54.0553" lon="14.919">
        <ele>51.588323</ele>
        <time>2024-07-27T10:29:25.551Z</time>
      </trkpt>
      <trkpt lat="54.05543" lon="14.91897">
        <ele>51.387905</ele>
        <time>2024-07-27T10:29:28.574Z</time>
      </trkpt>
      <trkpt lat="54.05555" lon="14.91896">
        <ele>51.178479</ele>
        <time>2024-07-27T10:29:31.548Z</time>
      </trkpt>
      <trkpt lat="54.05567" lon="14.91894">
        <ele>50.993857</ele>
        <time>2024-07-27T10:29:34.566Z</time>
      </trkpt>
      <trkpt lat="54.05577" lon="14.91892">
        <ele>50.814554</ele>
        <time>2024-07-27T10:29:37.571Z</time>
      </trkpt>
      <trkpt lat="54.05589" lon="14.91891">
        <ele>50.626172</ele>
        <time>2024-07-27T10:29:40.535Z</time>
      </trkpt>
      <trkpt lat="54.05601" lon="14.9189">
        <ele>50.429572</ele>
        <time>2024-07-27T10:29:43.559Z</time>
      </trkpt>
      <trkpt lat="54.05612" lon="14.91888">
        <ele>50.242705</ele>
        <time>2024-07-27T10:29:46.550Z</time>
      </trkpt>
      <trkpt lat="54.05624" lon="14.91885">
        <ele>50.050664</ele>
        <time>2024-07-27T10:29:49.577Z</time>
      </trkpt>
      <trkpt lat="54.05635" lon="14.91881">
        <ele>49.857894</ele>
        <time>2024-07-27T10:29:52.542Z</time>
      </trkpt>
      <trkpt lat="54.05648" lon="14.9188">
        <ele>49.654905</ele>
        <time>2024-07-27T10:29:55.558Z</time>
      </trkpt>
      <trkpt lat="54.05659" lon="14.91878">
        <ele>49.464116</ele>
        <time>2024-07-27T10:29:58.560Z</time>
      </trkpt>
      <trkpt lat="54.05671" lon="14.91873">
        <ele>49.270469</ele>
        <time>2024-07-27T10:30:01.554Z</time>
      </trkpt>
      <trkpt lat="54.05683" lon="14.91872">
        <ele>49.074121</ele>
        <time>2024-07-27T10:30:04.548Z</time>
      </trkpt>
      <trkpt lat="54.05694" lon="14.91871">
        <ele>48.893475</ele>
        <time>2024-07-27T10:30:07.533Z</time>
      </trkpt>
      <trkpt lat="54.05704" lon="14.91868">
        <ele>48.719941</ele>
        <time>2024-07-27T10:30:10.567Z</time>
      </trkpt>
      <trkpt lat="54.05715" lon="14.91867">
        <ele>48.603071</ele>
        <time>2024-07-27T10:30:13.548Z</time>
      </trkpt>
      <trkpt lat="54.05725" lon="14.91866">
        <ele>48.536098</ele>
        <time>2024-07-27T10:30:16.535Z</time>
      </trkpt>
      <trkpt lat="54.05735" lon="14.91867">
        <ele>48.464886</ele>
        <time>2024-07-27T10:30:19.545Z</time>
      </trkpt>
      <trkpt lat="54.05744" lon="14.91868">
        <ele>48.399979</ele>
        <time>2024-07-27T10:30:24.547Z</time>
      </trkpt>
      <trkpt lat="54.05751" lon="14.91894">
        <ele>48.285095</ele>
        <time>2024-07-27T10:30:51.549Z</time>
      </trkpt>
      <trkpt lat="54.05755" lon="14.91907">
        <ele>48.22146</ele>
        <time>2024-07-27T10:30:56.550Z</time>
      </trkpt>
      <trkpt lat="54.05758" lon="14.91924">
        <ele>48.149782</ele>
        <time>2024-07-27T10:31:02.539Z</time>
      </trkpt>
      <trkpt lat="54.05762" lon="14.91939">
        <ele>48.083821</ele>
        <time>2024-07-27T10:31:07.533Z</time>
      </trkpt>
      <trkpt lat="54.05766" lon="14.91953">
        <ele>48.020504</ele>
        <time>2024-07-27T10:31:12.554Z</time>
      </trkpt>
      <trkpt lat="54.05769" lon="14.91967">
        <ele>47.957222</ele>
        <time>2024-07-27T10:31:19.549Z</time>
      </trkpt>
      <trkpt lat="54.05775" lon="14.91984">
        <ele>47.879431</ele>
        <time>2024-07-27T10:31:57.547Z</time>
      </trkpt>
      <trkpt lat="54.05778" lon="14.91999">
        <ele>47.810772</ele>
        <time>2024-07-27T10:32:01.552Z</time>
      </trkpt>
      <trkpt lat="54.05784" lon="14.92015">
        <ele>47.735919</ele>
        <time>2024-07-27T10:32:05.549Z</time>
      </trkpt>
      <trkpt lat="54.05789" lon="14.9203">
        <ele>47.664901</ele>
        <time>2024-07-27T10:32:08.553Z</time>
      </trkpt>
      <trkpt lat="54.05792" lon="14.92047">
        <ele>47.592379</ele>
        <time>2024-07-27T10:32:11.529Z</time>
      </trkpt>
      <trkpt lat="54.05796" lon="14.92067">
        <ele>47.505328</ele>
        <time>2024-07-27T10:32:14.563Z</time>
      </trkpt>
      <trkpt lat="54.05801" lon="14.92087">
        <ele>47.419173</ele>
        <time>2024-07-27T10:32:17.553Z</time>
      </trkpt>
      <trkpt lat="54.05805" lon="14.92108">
        <ele>47.299521</ele>
        <time>2024-07-27T10:32:20.553Z</time>
      </trkpt>
      <trkpt lat="54.05809" lon="14.92129">
        <ele>47.169215</ele>
        <time>2024-07-27T10:32:23.543Z</time>
      </trkpt>
      <trkpt lat="54.05814" lon="14.92149">
        <ele>47.043519</ele>
        <time>2024-07-27T10:32:26.532Z</time>
      </trkpt>
      <trkpt lat="54.05818" lon="14.92169">
        <ele>46.920987</ele>
        <time>2024-07-27T10:32:29.573Z</time>
      </trkpt>
      <trkpt lat="54.05822" lon="14.92188">
        <ele>46.798553</ele>
        <time>2024-07-27T10:32:32.535Z</time>
      </trkpt>
      <trkpt lat="54.05826" lon="14.92206">
        <ele>46.690369</ele>
        <time>2024-07-27T10:32:35.533Z</time>
      </trkpt>
      <trkpt lat="54.05829" lon="14.9222">
        <ele>46.597727</ele>
        <time>2024-07-27T10:32:38.544Z</time>
      </trkpt>
      <trkpt lat="54.05832" lon="14.92235">
        <ele>46.504727</ele>
        <time>2024-07-27T10:32:41.546Z</time>
      </trkpt>
      <trkpt lat="54.05836" lon="14.92251">
        <ele>46.404098</ele>
        <time>2024-07-27T10:32:45.541Z</time>
      </trkpt>
      <trkpt lat="54.05841" lon="14.92265">
        <ele>46.312232</ele>
        <time>2024-07-27T10:32:50.539Z</time>
      </trkpt>
      <trkpt lat="54.05845" lon="14.92279">
        <ele>46.220494</ele>
        <time>2024-07-27T10:32:54.562Z</time>
      </trkpt>
      <trkpt lat="54.05849" lon="14.92295">
        <ele>46.119831</ele>
        <time>2024-07-27T10:32:58.554Z</time>
      </trkpt>
      <trkpt lat="54.05854" lon="14.92312">
        <ele>46.002063</ele>
        <time>2024-07-27T10:33:02.549Z</time>
      </trkpt>
      <trkpt lat="54.05858" lon="14.92328">
        <ele>45.906152</ele>
        <time>2024-07-27T10:33:05.558Z</time>
      </trkpt>
      <trkpt lat="54.05863" lon="14.92343">
        <ele>45.805104</ele>
        <time>2024-07-27T10:33:08.564Z</time>
      </trkpt>
      <trkpt lat="54.05866" lon="14.92359">
        <ele>45.703656</ele>
        <time>2024-07-27T10:33:11.553Z</time>
      </trkpt>
      <trkpt lat="54.05871" lon="14.92377">
        <ele>45.616723</ele>
        <time>2024-07-27T10:33:15.534Z</time>
      </trkpt>
      <trkpt lat="54.05875" lon="14.92392">
        <ele>45.742166</ele>
        <time>2024-07-27T10:33:18.549Z</time>
      </trkpt>
      <trkpt lat="54.05878" lon="14.92409">
        <ele>45.876112</ele>
        <time>2024-07-27T10:33:21.544Z</time>
      </trkpt>
      <trkpt lat="54.05883" lon="14.92427">
        <ele>46.028376</ele>
        <time>2024-07-27T10:33:24.551Z</time>
      </trkpt>
      <trkpt lat="54.05884" lon="14.92442">
        <ele>46.146546</ele>
        <time>2024-07-27T10:33:26.553Z</time>
      </trkpt>
      <trkpt lat="54.05884" lon="14.92457">
        <ele>46.264195</ele>
        <time>2024-07-27T10:33:28.560Z</time>
      </trkpt>
      <trkpt lat="54.05887" lon="14.92478">
        <ele>46.422944</ele>
        <time>2024-07-27T10:33:31.561Z</time>
      </trkpt>
      <trkpt lat="54.05889" lon="14.925">
        <ele>46.59652</ele>
        <time>2024-07-27T10:33:34.534Z</time>
      </trkpt>
      <trkpt lat="54.05892" lon="14.9252">
        <ele>46.756582</ele>
        <time>2024-07-27T10:33:37.555Z</time>
      </trkpt>
      <trkpt lat="54.05895" lon="14.92538">
        <ele>46.895636</ele>
        <time>2024-07-27T10:33:40.524Z</time>
      </trkpt>
      <trkpt lat="54.05898" lon="14.92555">
        <ele>47.032869</ele>
        <time>2024-07-27T10:33:44.528Z</time>
      </trkpt>
      <trkpt lat="54.059" lon="14.92571">
        <ele>47.162134</ele>
        <time>2024-07-27T10:33:49.558Z</time>
      </trkpt>
      <trkpt lat="54.05899" lon="14.92587">
        <ele>47.279688</ele>
        <time>2024-07-27T10:34:14.535Z</time>
      </trkpt>
      <trkpt lat="54.05902" lon="14.92595">
        <ele>47.347882</ele>
        <time>2024-07-27T10:34:59.851Z</time>
      </trkpt>
      <trkpt lat="54.05909" lon="14.92607">
        <ele>47.486534</ele>
        <time>2024-07-27T11:13:12.548Z</time>
      </trkpt>
      <trkpt lat="54.05913" lon="14.92622">
        <ele>47.610057</ele>
        <time>2024-07-27T11:13:17.547Z</time>
      </trkpt>
      <trkpt lat="54.05915" lon="14.92639">
        <ele>47.73799</ele>
        <time>2024-07-27T11:13:22.551Z</time>
      </trkpt>
      <trkpt lat="54.05917" lon="14.92655">
        <ele>47.86293</ele>
        <time>2024-07-27T11:13:26.542Z</time>
      </trkpt>
      <trkpt lat="54.0592" lon="14.92673">
        <ele>47.905054</ele>
        <time>2024-07-27T11:13:30.542Z</time>
      </trkpt>
      <trkpt lat="54.05922" lon="14.92689">
        <ele>47.81474</ele>
        <time>2024-07-27T11:13:33.559Z</time>
      </trkpt>
      <trkpt lat="54.05925" lon="14.92708">
        <ele>47.707444</ele>
        <time>2024-07-27T11:13:36.564Z</time>
      </trkpt>
      <trkpt lat="54.05926" lon="14.92729">
        <ele>47.593406</ele>
        <time>2024-07-27T11:13:39.559Z</time>
      </trkpt>
      <trkpt lat="54.0593" lon="14.92749">
        <ele>47.473645</ele>
        <time>2024-07-27T11:13:42.552Z</time>
      </trkpt>
      <trkpt lat="54.05933" lon="14.92768">
        <ele>47.368027</ele>
        <time>2024-07-27T11:13:45.584Z</time>
      </trkpt>
      <trkpt lat="54.05936" lon="14.92787">
        <ele>47.253889</ele>
        <time>2024-07-27T11:13:48.596Z</time>
      </trkpt>
      <trkpt lat="54.05939" lon="14.92807">
        <ele>47.141296</ele>
        <time>2024-07-27T11:13:51.559Z</time>
      </trkpt>
      <trkpt lat="54.05942" lon="14.92825">
        <ele>47.038303</ele>
        <time>2024-07-27T11:13:54.552Z</time>
      </trkpt>
      <trkpt lat="54.05945" lon="14.92843">
        <ele>46.935105</ele>
        <time>2024-07-27T11:13:57.542Z</time>
      </trkpt>
      <trkpt lat="54.05948" lon="14.92862">
        <ele>46.827344</ele>
        <time>2024-07-27T11:14:00.548Z</time>
      </trkpt>
      <trkpt lat="54.05951" lon="14.92878">
        <ele>46.732127</ele>
        <time>2024-07-27T11:14:03.555Z</time>
      </trkpt>
      <trkpt lat="54.05955" lon="14.92896">
        <ele>46.623539</ele>
        <time>2024-07-27T11:14:07.570Z</time>
      </trkpt>
      <trkpt lat="54.05956" lon="14.92914">
        <ele>46.523765</ele>
        <time>2024-07-27T11:14:10.558Z</time>
      </trkpt>
      <trkpt lat="54.05959" lon="14.92933">
        <ele>46.416541</ele>
        <time>2024-07-27T11:14:13.559Z</time>
      </trkpt>
      <trkpt lat="54.05961" lon="14.9295">
        <ele>46.318249</ele>
        <time>2024-07-27T11:14:16.552Z</time>
      </trkpt>
      <trkpt lat="54.05966" lon="14.92967">
        <ele>46.177621</ele>
        <time>2024-07-27T11:14:20.559Z</time>
      </trkpt>
      <trkpt lat="54.05969" lon="14.92982">
        <ele>46.000223</ele>
        <time>2024-07-27T11:14:25.559Z</time>
      </trkpt>
      <trkpt lat="54.05974" lon="14.92995">
        <ele>45.825792</ele>
        <time>2024-07-27T11:14:39.553Z</time>
      </trkpt>
      <trkpt lat="54.05977" lon="14.9301">
        <ele>45.648277</ele>
        <time>2024-07-27T11:14:44.550Z</time>
      </trkpt>
      <trkpt lat="54.05982" lon="14.93024">
        <ele>45.463758</ele>
        <time>2024-07-27T11:14:48.565Z</time>
      </trkpt>
      <trkpt lat="54.05986" lon="14.93038">
        <ele>45.290374</ele>
        <time>2024-07-27T11:14:52.569Z</time>
      </trkpt>
      <trkpt lat="54.0599" lon="14.93055">
        <ele>45.08677</ele>
        <time>2024-07-27T11:14:58.532Z</time>
      </trkpt>
      <trkpt lat="54.05994" lon="14.93074">
        <ele>44.867234</ele>
        <time>2024-07-27T11:15:02.565Z</time>
      </trkpt>
      <trkpt lat="54.05998" lon="14.93088">
        <ele>44.688178</ele>
        <time>2024-07-27T11:15:05.580Z</time>
      </trkpt>
      <trkpt lat="54.06002" lon="14.93105">
        <ele>44.48804</ele>
        <time>2024-07-27T11:15:08.538Z</time>
      </trkpt>
      <trkpt lat="54.06005" lon="14.93121">
        <ele>44.296247</ele>
        <time>2024-07-27T11:15:11.549Z</time>
      </trkpt>
      <trkpt lat="54.06009" lon="14.9314">
        <ele>44.074836</ele>
        <time>2024-07-27T11:15:14.541Z</time>
      </trkpt>
      <trkpt lat="54.06014" lon="14.93158">
        <ele>43.846018</ele>
        <time>2024-07-27T11:15:17.573Z</time>
      </trkpt>
      <trkpt lat="54.06019" lon="14.93171">
        <ele>43.672949</ele>
        <time>2024-07-27T11:15:20.558Z</time>
      </trkpt>
      <trkpt lat="54.06022" lon="14.93189">
        <ele>43.466322</ele>
        <time>2024-07-27T11:15:24.553Z</time>
      </trkpt>
      <trkpt lat="54.06026" lon="14.93205">
        <ele>43.271767</ele>
        <time>2024-07-27T11:15:27.547Z</time>
      </trkpt>
      <trkpt lat="54.0603" lon="14.93221">
        <ele>43.079768</ele>
        <time>2024-07-27T11:15:30.568Z</time>
      </trkpt>
      <trkpt lat="54.06033" lon="14.93239">
        <ele>42.877829</ele>
        <time>2024-07-27T11:15:33.556Z</time>
      </trkpt>
      <trkpt lat="54.06038" lon="14.93252">
        <ele>42.885074</ele>
        <time>2024-07-27T11:15:36.549Z</time>
      </trkpt>
      <trkpt lat="54.06041" lon="14.9327">
        <ele>42.951264</ele>
        <time>2024-07-27T11:15:42.548Z</time>
      </trkpt>
      <trkpt lat="54.06045" lon="14.93286">
        <ele>43.014737</ele>
        <time>2024-07-27T11:15:46.562Z</time>
      </trkpt>
      <trkpt lat="54.0605" lon="14.93303">
        <ele>43.080284</ele>
        <time>2024-07-27T11:15:50.545Z</time>
      </trkpt>
      <trkpt lat="54.06052" lon="14.93319">
        <ele>43.140366</ele>
        <time>2024-07-27T11:15:54.556Z</time>
      </trkpt>
      <trkpt lat="54.06059" lon="14.93334">
        <ele>43.20674</ele>
        <time>2024-07-27T11:15:59.572Z</time>
      </trkpt>
      <trkpt lat="54.06063" lon="14.93352">
        <ele>43.277228</ele>
        <time>2024-07-27T11:16:03.572Z</time>
      </trkpt>
      <trkpt lat="54.06068" lon="14.93365">
        <ele>43.334368</ele>
        <time>2024-07-27T11:16:06.542Z</time>
      </trkpt>
      <trkpt lat="54.06072" lon="14.93378">
        <ele>43.38961</ele>
        <time>2024-07-27T11:16:09.563Z</time>
      </trkpt>
      <trkpt lat="54.06076" lon="14.93395">
        <ele>43.452539</ele>
        <time>2024-07-27T11:16:13.550Z</time>
      </trkpt>
      <trkpt lat="54.06077" lon="14.93411">
        <ele>43.511938</ele>
        <time>2024-07-27T11:16:18.562Z</time>
      </trkpt>
      <trkpt lat="54.0608" lon="14.93427">
        <ele>43.572085</ele>
        <time>2024-07-27T11:16:21.554Z</time>
      </trkpt>
      <trkpt lat="54.06084" lon="14.93443">
        <ele>43.6359</ele>
        <time>2024-07-27T11:16:24.561Z</time>
      </trkpt>
      <trkpt lat="54.06089" lon="14.93459">
        <ele>43.697406</ele>
        <time>2024-07-27T11:16:27.560Z</time>
      </trkpt>
      <trkpt lat="54.06094" lon="14.93473">
        <ele>43.757989</ele>
        <time>2024-07-27T11:16:30.536Z</time>
      </trkpt>
      <trkpt lat="54.06097" lon="14.93488">
        <ele>43.817025</ele>
        <time>2024-07-27T11:16:33.555Z</time>
      </trkpt>
      <trkpt lat="54.06101" lon="14.93508">
        <ele>43.889377</ele>
        <time>2024-07-27T11:16:36.573Z</time>
      </trkpt>
      <trkpt lat="54.06105" lon="14.93527">
        <ele>43.936514</ele>
        <time>2024-07-27T11:16:39.549Z</time>
      </trkpt>
      <trkpt lat="54.06109" lon="14.93547">
        <ele>43.913377</ele>
        <time>2024-07-27T11:16:42.570Z</time>
      </trkpt>
      <trkpt lat="54.06114" lon="14.93565">
        <ele>43.891428</ele>
        <time>2024-07-27T11:16:45.553Z</time>
      </trkpt>
      <trkpt lat="54.06117" lon="14.93581">
        <ele>43.872811</ele>
        <time>2024-07-27T11:16:48.561Z</time>
      </trkpt>
      <trkpt lat="54.06122" lon="14.93598">
        <ele>43.852009</ele>
        <time>2024-07-27T11:16:51.556Z</time>
      </trkpt>
      <trkpt lat="54.06127" lon="14.93616">
        <ele>43.830123</ele>
        <time>2024-07-27T11:16:54.524Z</time>
      </trkpt>
      <trkpt lat="54.06131" lon="14.93633">
        <ele>43.80995</ele>
        <time>2024-07-27T11:16:57.534Z</time>
      </trkpt>
      <trkpt lat="54.06134" lon="14.9365">
        <ele>43.790522</ele>
        <time>2024-07-27T11:17:00.563Z</time>
      </trkpt>
      <trkpt lat="54.06139" lon="14.93669">
        <ele>43.768642</ele>
        <time>2024-07-27T11:17:03.559Z</time>
      </trkpt>
      <trkpt lat="54.06144" lon="14.93688">
        <ele>43.745152</ele>
        <time>2024-07-27T11:17:06.554Z</time>
      </trkpt>
      <trkpt lat="54.06148" lon="14.93708">
        <ele>43.722242</ele>
        <time>2024-07-27T11:17:09.559Z</time>
      </trkpt>
      <trkpt lat="54.06152" lon="14.93723">
        <ele>43.704614</ele>
        <time>2024-07-27T11:17:11.565Z</time>
      </trkpt>
      <trkpt lat="54.06155" lon="14.93737">
        <ele>43.687497</ele>
        <time>2024-07-27T11:17:13.573Z</time>
      </trkpt>
      <trkpt lat="54.0616" lon="14.93757">
        <ele>43.663313</ele>
        <time>2024-07-27T11:17:16.558Z</time>
      </trkpt>
      <trkpt lat="54.06164" lon="14.93772">
        <ele>43.645925</ele>
        <time>2024-07-27T11:17:18.582Z</time>
      </trkpt>
      <trkpt lat="54.06169" lon="14.93794">
        <ele>43.620541</ele>
        <time>2024-07-27T11:17:21.573Z</time>
      </trkpt>
      <trkpt lat="54.06173" lon="14.93808">
        <ele>43.589381</ele>
        <time>2024-07-27T11:17:23.566Z</time>
      </trkpt>
      <trkpt lat="54.06177" lon="14.93822">
        <ele>43.513216</ele>
        <time>2024-07-27T11:17:25.555Z</time>
      </trkpt>
      <trkpt lat="54.06181" lon="14.93838">
        <ele>43.432465</ele>
        <time>2024-07-27T11:17:27.569Z</time>
      </trkpt>
      <trkpt lat="54.06186" lon="14.93853">
        <ele>43.352929</ele>
        <time>2024-07-27T11:17:29.553Z</time>
      </trkpt>
      <trkpt lat="54.06189" lon="14.93868">
        <ele>43.273293</ele>
        <time>2024-07-27T11:17:31.559Z</time>
      </trkpt>
      <trkpt lat="54.06194" lon="14.93882">
        <ele>43.19591</ele>
        <time>2024-07-27T11:17:33.562Z</time>
      </trkpt>
      <trkpt lat="54.06197" lon="14.93898">
        <ele>43.11344</ele>
        <time>2024-07-27T11:17:35.568Z</time>
      </trkpt>
      <trkpt lat="54.06202" lon="14.93913">
        <ele>43.033818</ele>
        <time>2024-07-27T11:17:37.544Z</time>
      </trkpt>
      <trkpt lat="54.06204" lon="14.93929">
        <ele>42.956663</ele>
        <time>2024-07-27T11:17:39.575Z</time>
      </trkpt>
      <trkpt lat="54.06209" lon="14.9395">
        <ele>42.847597</ele>
        <time>2024-07-27T11:17:42.559Z</time>
      </trkpt>
      <trkpt lat="54.06212" lon="14.93964">
        <ele>42.774333</ele>
        <time>2024-07-27T11:17:44.553Z</time>
      </trkpt>
      <trkpt lat="54.06217" lon="14.93985">
        <ele>42.668115</ele>
        <time>2024-07-27T11:17:47.572Z</time>
      </trkpt>
      <trkpt lat="54.06221" lon="14.94">
        <ele>42.592641</ele>
        <time>2024-07-27T11:17:49.569Z</time>
      </trkpt>
      <trkpt lat="54.06224" lon="14.94014">
        <ele>42.517518</ele>
        <time>2024-07-27T11:17:51.545Z</time>
      </trkpt>
      <trkpt lat="54.06228" lon="14.94029">
        <ele>42.438768</ele>
        <time>2024-07-27T11:17:53.568Z</time>
      </trkpt>
      <trkpt lat="54.06232" lon="14.94044">
        <ele>42.361343</ele>
        <time>2024-07-27T11:17:55.572Z</time>
      </trkpt>
      <trkpt lat="54.06235" lon="14.94059">
        <ele>42.283497</ele>
        <time>2024-07-27T11:17:57.564Z</time>
      </trkpt>
      <trkpt lat="54.06239" lon="14.94074">
        <ele>42.206295</ele>
        <time>2024-07-27T11:17:59.561Z</time>
      </trkpt>
      <trkpt lat="54.06243" lon="14.9409">
        <ele>42.13372</ele>
        <time>2024-07-27T11:18:01.563Z</time>
      </trkpt>
      <trkpt lat="54.06246" lon="14.94106">
        <ele>42.10246</ele>
        <time>2024-07-27T11:18:03.565Z</time>
      </trkpt>
      <trkpt lat="54.06249" lon="14.94122">
        <ele>42.071086</ele>
        <time>2024-07-27T11:18:05.554Z</time>
      </trkpt>
      <trkpt lat="54.06254" lon="14.94138">
        <ele>42.036908</ele>
        <time>2024-07-27T11:18:07.565Z</time>
      </trkpt>
      <trkpt lat="54.06258" lon="14.94155">
        <ele>42.00238</ele>
        <time>2024-07-27T11:18:09.560Z</time>
      </trkpt>
      <trkpt lat="54.06262" lon="14.94171">
        <ele>41.970002</ele>
        <time>2024-07-27T11:18:11.559Z</time>
      </trkpt>
      <trkpt lat="54.06266" lon="14.94188">
        <ele>41.936683</ele>
        <time>2024-07-27T11:18:13.558Z</time>
      </trkpt>
      <trkpt lat="54.0627" lon="14.94204">
        <ele>41.903443</ele>
        <time>2024-07-27T11:18:15.557Z</time>
      </trkpt>
      <trkpt lat="54.06274" lon="14.94219">
        <ele>41.871828</ele>
        <time>2024-07-27T11:18:17.553Z</time>
      </trkpt>
      <trkpt lat="54.06279" lon="14.94235">
        <ele>41.839495</ele>
        <time>2024-07-27T11:18:19.557Z</time>
      </trkpt>
      <trkpt lat="54.06283" lon="14.9425">
        <ele>41.807834</ele>
        <time>2024-07-27T11:18:21.554Z</time>
      </trkpt>
      <trkpt lat="54.06287" lon="14.94265">
        <ele>41.776689</ele>
        <time>2024-07-27T11:18:23.563Z</time>
      </trkpt>
      <trkpt lat="54.06292" lon="14.94285">
        <ele>41.735787</ele>
        <time>2024-07-27T11:18:26.555Z</time>
      </trkpt>
      <trkpt lat="54.06297" lon="14.94306">
        <ele>41.69413</ele>
        <time>2024-07-27T11:18:29.575Z</time>
      </trkpt>
      <trkpt lat="54.063" lon="14.9432">
        <ele>41.66553</ele>
        <time>2024-07-27T11:18:31.566Z</time>
      </trkpt>
      <trkpt lat="54.06305" lon="14.9434">
        <ele>41.625309</ele>
        <time>2024-07-27T11:18:34.541Z</time>
      </trkpt>
      <trkpt lat="54.0631" lon="14.9436">
        <ele>41.584966</ele>
        <time>2024-07-27T11:18:37.547Z</time>
      </trkpt>
      <trkpt lat="54.06315" lon="14.9438">
        <ele>41.599836</ele>
        <time>2024-07-27T11:18:40.555Z</time>
      </trkpt>
      <trkpt lat="54.06321" lon="14.944">
        <ele>41.657104</ele>
        <time>2024-07-27T11:18:43.555Z</time>
      </trkpt>
      <trkpt lat="54.06324" lon="14.94416">
        <ele>41.69838</ele>
        <time>2024-07-27T11:18:45.560Z</time>
      </trkpt>
      <trkpt lat="54.06327" lon="14.94432">
        <ele>41.743148</ele>
        <time>2024-07-27T11:18:47.546Z</time>
      </trkpt>
      <trkpt lat="54.06332" lon="14.94447">
        <ele>41.784963</ele>
        <time>2024-07-27T11:18:49.539Z</time>
      </trkpt>
      <trkpt lat="54.06336" lon="14.94461">
        <ele>41.825662</ele>
        <time>2024-07-27T11:18:51.554Z</time>
      </trkpt>
      <trkpt lat="54.06339" lon="14.94476">
        <ele>41.868494</ele>
        <time>2024-07-27T11:18:53.545Z</time>
      </trkpt>
      <trkpt lat="54.06342" lon="14.94492">
        <ele>41.909492</ele>
        <time>2024-07-27T11:18:55.540Z</time>
      </trkpt>
      <trkpt lat="54.06346" lon="14.94506">
        <ele>41.95143</ele>
        <time>2024-07-27T11:18:57.563Z</time>
      </trkpt>
      <trkpt lat="54.06349" lon="14.94522">
        <ele>41.993964</ele>
        <time>2024-07-27T11:18:59.551Z</time>
      </trkpt>
      <trkpt lat="54.06352" lon="14.94538">
        <ele>42.038247</ele>
        <time>2024-07-27T11:19:01.565Z</time>
      </trkpt>
      <trkpt lat="54.06357" lon="14.94554">
        <ele>42.083074</ele>
        <time>2024-07-27T11:19:03.559Z</time>
      </trkpt>
      <trkpt lat="54.06361" lon="14.94569">
        <ele>42.125536</ele>
        <time>2024-07-27T11:19:05.552Z</time>
      </trkpt>
      <trkpt lat="54.06365" lon="14.94584">
        <ele>42.167155</ele>
        <time>2024-07-27T11:19:07.562Z</time>
      </trkpt>
      <trkpt lat="54.06368" lon="14.94599">
        <ele>42.209272</ele>
        <time>2024-07-27T11:19:09.554Z</time>
      </trkpt>
      <trkpt lat="54.06372" lon="14.94614">
        <ele>42.251499</ele>
        <time>2024-07-27T11:19:11.553Z</time>
      </trkpt>
      <trkpt lat="54.06376" lon="14.94628">
        <ele>42.291853</ele>
        <time>2024-07-27T11:19:13.542Z</time>
      </trkpt>
      <trkpt lat="54.0638" lon="14.94643">
        <ele>42.333258</ele>
        <time>2024-07-27T11:19:15.541Z</time>
      </trkpt>
      <trkpt lat="54.06385" lon="14.94664">
        <ele>42.370722</ele>
        <time>2024-07-27T11:19:18.583Z</time>
      </trkpt>
      <trkpt lat="54.0639" lon="14.94684">
        <ele>42.393735</ele>
        <time>2024-07-27T11:19:21.553Z</time>
      </trkpt>
      <trkpt lat="54.06394" lon="14.94699">
        <ele>42.410563</ele>
        <time>2024-07-27T11:19:23.545Z</time>
      </trkpt>
      <trkpt lat="54.06398" lon="14.94713">
        <ele>42.42711</ele>
        <time>2024-07-27T11:19:25.573Z</time>
      </trkpt>
      <trkpt lat="54.06401" lon="14.94728">
        <ele>42.443678</ele>
        <time>2024-07-27T11:19:27.561Z</time>
      </trkpt>
      <trkpt lat="54.06404" lon="14.94743">
        <ele>42.460716</ele>
        <time>2024-07-27T11:19:29.553Z</time>
      </trkpt>
      <trkpt lat="54.06408" lon="14.94758">
        <ele>42.477192</ele>
        <time>2024-07-27T11:19:31.563Z</time>
      </trkpt>
      <trkpt lat="54.06411" lon="14.94772">
        <ele>42.493668</ele>
        <time>2024-07-27T11:19:33.568Z</time>
      </trkpt>
      <trkpt lat="54.06415" lon="14.94788">
        <ele>42.511054</ele>
        <time>2024-07-27T11:19:35.561Z</time>
      </trkpt>
      <trkpt lat="54.06419" lon="14.94803">
        <ele>42.528434</ele>
        <time>2024-07-27T11:19:37.563Z</time>
      </trkpt>
      <trkpt lat="54.06423" lon="14.94818">
        <ele>42.544936</ele>
        <time>2024-07-27T11:19:39.541Z</time>
      </trkpt>
      <trkpt lat="54.06427" lon="14.94833">
        <ele>42.562393</ele>
        <time>2024-07-27T11:19:41.552Z</time>
      </trkpt>
      <trkpt lat="54.0643" lon="14.94848">
        <ele>42.579849</ele>
        <time>2024-07-27T11:19:43.563Z</time>
      </trkpt>
      <trkpt lat="54.06434" lon="14.94863">
        <ele>42.596839</ele>
        <time>2024-07-27T11:19:45.554Z</time>
      </trkpt>
      <trkpt lat="54.06438" lon="14.94878">
        <ele>42.614345</ele>
        <time>2024-07-27T11:19:47.574Z</time>
      </trkpt>
      <trkpt lat="54.06442" lon="14.94893">
        <ele>42.631155</ele>
        <time>2024-07-27T11:19:49.552Z</time>
      </trkpt>
      <trkpt lat="54.06446" lon="14.94909">
        <ele>42.648971</ele>
        <time>2024-07-27T11:19:51.537Z</time>
      </trkpt>
      <trkpt lat="54.0645" lon="14.94925">
        <ele>42.666773</ele>
        <time>2024-07-27T11:19:53.546Z</time>
      </trkpt>
      <trkpt lat="54.06454" lon="14.9494">
        <ele>42.652827</ele>
        <time>2024-07-27T11:19:55.556Z</time>
      </trkpt>
      <trkpt lat="54.06457" lon="14.94955">
        <ele>42.605408</ele>
        <time>2024-07-27T11:19:57.572Z</time>
      </trkpt>
      <trkpt lat="54.06462" lon="14.94976">
        <ele>42.537014</ele>
        <time>2024-07-27T11:20:00.581Z</time>
      </trkpt>
      <trkpt lat="54.06467" lon="14.9499">
        <ele>42.488296</ele>
        <time>2024-07-27T11:20:02.555Z</time>
      </trkpt>
      <trkpt lat="54.0647" lon="14.95004">
        <ele>42.44121</ele>
        <time>2024-07-27T11:20:04.567Z</time>
      </trkpt>
      <trkpt lat="54.06474" lon="14.95018">
        <ele>42.394026</ele>
        <time>2024-07-27T11:20:06.550Z</time>
      </trkpt>
      <trkpt lat="54.06479" lon="14.95034">
        <ele>42.3425</ele>
        <time>2024-07-27T11:20:08.559Z</time>
      </trkpt>
      <trkpt lat="54.06482" lon="14.95049">
        <ele>42.292744</ele>
        <time>2024-07-27T11:20:10.559Z</time>
      </trkpt>
      <trkpt lat="54.06486" lon="14.95064">
        <ele>42.244579</ele>
        <time>2024-07-27T11:20:12.551Z</time>
      </trkpt>
      <trkpt lat="54.06489" lon="14.9508">
        <ele>42.193133</ele>
        <time>2024-07-27T11:20:14.563Z</time>
      </trkpt>
      <trkpt lat="54.06493" lon="14.95096">
        <ele>42.141409</ele>
        <time>2024-07-27T11:20:16.567Z</time>
      </trkpt>
      <trkpt lat="54.06497" lon="14.95111">
        <ele>42.092185</ele>
        <time>2024-07-27T11:20:18.567Z</time>
      </trkpt>
      <trkpt lat="54.06501" lon="14.95126">
        <ele>42.041098</ele>
        <time>2024-07-27T11:20:20.575Z</time>
      </trkpt>
      <trkpt lat="54.06505" lon="14.95141">
        <ele>41.991459</ele>
        <time>2024-07-27T11:20:22.559Z</time>
      </trkpt>
      <trkpt lat="54.06508" lon="14.95157">
        <ele>41.940955</ele>
        <time>2024-07-27T11:20:24.554Z</time>
      </trkpt>
      <trkpt lat="54.06512" lon="14.95172">
        <ele>41.892973</ele>
        <time>2024-07-27T11:20:26.544Z</time>
      </trkpt>
      <trkpt lat="54.06514" lon="14.95187">
        <ele>41.846264</ele>
        <time>2024-07-27T11:20:28.572Z</time>
      </trkpt>
      <trkpt lat="54.06518" lon="14.95208">
        <ele>41.780202</ele>
        <time>2024-07-27T11:20:31.565Z</time>
      </trkpt>
      <trkpt lat="54.06521" lon="14.9523">
        <ele>41.831302</ele>
        <time>2024-07-27T11:20:34.553Z</time>
      </trkpt>
      <trkpt lat="54.06523" lon="14.95251">
        <ele>41.956975</ele>
        <time>2024-07-27T11:20:37.541Z</time>
      </trkpt>
      <trkpt lat="54.06527" lon="14.95272">
        <ele>42.082194</ele>
        <time>2024-07-27T11:20:40.576Z</time>
      </trkpt>
      <trkpt lat="54.06531" lon="14.95293">
        <ele>42.211879</ele>
        <time>2024-07-27T11:20:43.558Z</time>
      </trkpt>
      <trkpt lat="54.06534" lon="14.95308">
        <ele>42.303564</ele>
        <time>2024-07-27T11:20:45.561Z</time>
      </trkpt>
      <trkpt lat="54.06538" lon="14.9533">
        <ele>42.432918</ele>
        <time>2024-07-27T11:20:48.544Z</time>
      </trkpt>
      <trkpt lat="54.06542" lon="14.95349">
        <ele>42.553848</ele>
        <time>2024-07-27T11:20:51.557Z</time>
      </trkpt>
      <trkpt lat="54.06544" lon="14.9537">
        <ele>42.673464</ele>
        <time>2024-07-27T11:20:54.562Z</time>
      </trkpt>
      <trkpt lat="54.06547" lon="14.95389">
        <ele>42.785907</ele>
        <time>2024-07-27T11:20:57.549Z</time>
      </trkpt>
      <trkpt lat="54.06551" lon="14.95407">
        <ele>42.899103</ele>
        <time>2024-07-27T11:21:00.578Z</time>
      </trkpt>
      <trkpt lat="54.06557" lon="14.95426">
        <ele>43.021762</ele>
        <time>2024-07-27T11:21:03.566Z</time>
      </trkpt>
      <trkpt lat="54.06564" lon="14.95444">
        <ele>43.149166</ele>
        <time>2024-07-27T11:21:06.560Z</time>
      </trkpt>
      <trkpt lat="54.06571" lon="14.95462">
        <ele>43.276031</ele>
        <time>2024-07-27T11:21:09.555Z</time>
      </trkpt>
      <trkpt lat="54.06578" lon="14.95481">
        <ele>43.40748</ele>
        <time>2024-07-27T11:21:12.560Z</time>
      </trkpt>
      <trkpt lat="54.06586" lon="14.955">
        <ele>43.514815</ele>
        <time>2024-07-27T11:21:15.552Z</time>
      </trkpt>
      <trkpt lat="54.06593" lon="14.95519">
        <ele>43.410242</ele>
        <time>2024-07-27T11:21:18.566Z</time>
      </trkpt>
      <trkpt lat="54.06601" lon="14.95536">
        <ele>43.309742</ele>
        <time>2024-07-27T11:21:21.556Z</time>
      </trkpt>
      <trkpt lat="54.06607" lon="14.95553">
        <ele>43.215032</ele>
        <time>2024-07-27T11:21:24.572Z</time>
      </trkpt>
      <trkpt lat="54.06614" lon="14.95569">
        <ele>43.125033</ele>
        <time>2024-07-27T11:21:27.544Z</time>
      </trkpt>
      <trkpt lat="54.0662" lon="14.95585">
        <ele>43.035186</ele>
        <time>2024-07-27T11:21:30.556Z</time>
      </trkpt>
      <trkpt lat="54.06625" lon="14.95601">
        <ele>42.949785</ele>
        <time>2024-07-27T11:21:33.554Z</time>
      </trkpt>
      <trkpt lat="54.0663" lon="14.95614">
        <ele>42.876877</ele>
        <time>2024-07-27T11:21:36.568Z</time>
      </trkpt>
      <trkpt lat="54.0664" lon="14.95618">
        <ele>42.7936</ele>
        <time>2024-07-27T11:21:41.550Z</time>
      </trkpt>
      <trkpt lat="54.06646" lon="14.9563">
        <ele>42.717992</ele>
        <time>2024-07-27T11:21:44.548Z</time>
      </trkpt>
      <trkpt lat="54.06653" lon="14.95647">
        <ele>42.620573</ele>
        <time>2024-07-27T11:21:47.555Z</time>
      </trkpt>
      <trkpt lat="54.0666" lon="14.95661">
        <ele>42.534008</ele>
        <time>2024-07-27T11:21:50.557Z</time>
      </trkpt>
      <trkpt lat="54.06667" lon="14.95673">
        <ele>42.457449</ele>
        <time>2024-07-27T11:21:53.556Z</time>
      </trkpt>
      <trkpt lat="54.06672" lon="14.95688">
        <ele>42.378541</ele>
        <time>2024-07-27T11:21:56.559Z</time>
      </trkpt>
      <trkpt lat="54.06677" lon="14.95702">
        <ele>42.299633</ele>
        <time>2024-07-27T11:21:59.560Z</time>
      </trkpt>
      <trkpt lat="54.06682" lon="14.95719">
        <ele>42.211493</ele>
        <time>2024-07-27T11:22:02.527Z</time>
      </trkpt>
      <trkpt lat="54.06687" lon="14.95736">
        <ele>42.121262</ele>
        <time>2024-07-27T11:22:05.545Z</time>
      </trkpt>
      <trkpt lat="54.06693" lon="14.95752">
        <ele>42.280048</ele>
        <time>2024-07-27T11:22:08.552Z</time>
      </trkpt>
      <trkpt lat="54.067" lon="14.9577">
        <ele>42.583791</ele>
        <time>2024-07-27T11:22:11.555Z</time>
      </trkpt>
      <trkpt lat="54.06709" lon="14.95787">
        <ele>42.889728</ele>
        <time>2024-07-27T11:22:14.549Z</time>
      </trkpt>
      <trkpt lat="54.06717" lon="14.95804">
        <ele>43.206098</ele>
        <time>2024-07-27T11:22:17.551Z</time>
      </trkpt>
      <trkpt lat="54.06725" lon="14.95822">
        <ele>43.515684</ele>
        <time>2024-07-27T11:22:20.552Z</time>
      </trkpt>
      <trkpt lat="54.06732" lon="14.95841">
        <ele>43.824063</ele>
        <time>2024-07-27T11:22:23.553Z</time>
      </trkpt>
      <trkpt lat="54.06735" lon="14.95861">
        <ele>44.115255</ele>
        <time>2024-07-27T11:22:26.553Z</time>
      </trkpt>
      <trkpt lat="54.06737" lon="14.95884">
        <ele>44.431992</ele>
        <time>2024-07-27T11:22:29.560Z</time>
      </trkpt>
      <trkpt lat="54.0674" lon="14.95906">
        <ele>44.752126</ele>
        <time>2024-07-27T11:22:32.532Z</time>
      </trkpt>
      <trkpt lat="54.06742" lon="14.95921">
        <ele>44.970694</ele>
        <time>2024-07-27T11:22:34.563Z</time>
      </trkpt>
      <trkpt lat="54.06745" lon="14.95938">
        <ele>45.206991</ele>
        <time>2024-07-27T11:22:36.555Z</time>
      </trkpt>
      <trkpt lat="54.06749" lon="14.95954">
        <ele>45.450245</ele>
        <time>2024-07-27T11:22:38.547Z</time>
      </trkpt>
      <trkpt lat="54.06751" lon="14.9597">
        <ele>45.678615</ele>
        <time>2024-07-27T11:22:40.552Z</time>
      </trkpt>
      <trkpt lat="54.06754" lon="14.95986">
        <ele>45.908196</ele>
        <time>2024-07-27T11:22:42.551Z</time>
      </trkpt>
      <trkpt lat="54.06757" lon="14.96002">
        <ele>46.14246</ele>
        <time>2024-07-27T11:22:44.549Z</time>
      </trkpt>
      <trkpt lat="54.0676" lon="14.96018">
        <ele>46.373728</ele>
        <time>2024-07-27T11:22:46.551Z</time>
      </trkpt>
      <trkpt lat="54.06763" lon="14.96033">
        <ele>46.500027</ele>
        <time>2024-07-27T11:22:48.562Z</time>
      </trkpt>
      <trkpt lat="54.06767" lon="14.96054">
        <ele>46.679109</ele>
        <time>2024-07-27T11:22:51.557Z</time>
      </trkpt>
      <trkpt lat="54.06772" lon="14.96074">
        <ele>46.848507</ele>
        <time>2024-07-27T11:22:54.552Z</time>
      </trkpt>
      <trkpt lat="54.06775" lon="14.96094">
        <ele>47.018766</ele>
        <time>2024-07-27T11:22:57.565Z</time>
      </trkpt>
      <trkpt lat="54.06776" lon="14.96114">
        <ele>47.177061</ele>
        <time>2024-07-27T11:23:00.560Z</time>
      </trkpt>
      <trkpt lat="54.06774" lon="14.96135">
        <ele>47.345235</ele>
        <time>2024-07-27T11:23:03.568Z</time>
      </trkpt>
      <trkpt lat="54.06771" lon="14.96155">
        <ele>47.512784</ele>
        <time>2024-07-27T11:23:06.558Z</time>
      </trkpt>
      <trkpt lat="54.06765" lon="14.96174">
        <ele>47.684961</ele>
        <time>2024-07-27T11:23:09.548Z</time>
      </trkpt>
      <trkpt lat="54.06761" lon="14.96188">
        <ele>47.812187</ele>
        <time>2024-07-27T11:23:11.555Z</time>
      </trkpt>
      <trkpt lat="54.06757" lon="14.96203">
        <ele>47.945588</ele>
        <time>2024-07-27T11:23:13.555Z</time>
      </trkpt>
      <trkpt lat="54.06754" lon="14.96219">
        <ele>48.079203</ele>
        <time>2024-07-27T11:23:15.530Z</time>
      </trkpt>
      <trkpt lat="54.06752" lon="14.96235">
        <ele>48.215136</ele>
        <time>2024-07-27T11:23:17.544Z</time>
      </trkpt>
      <trkpt lat="54.06752" lon="14.96252">
        <ele>48.352164</ele>
        <time>2024-07-27T11:23:19.550Z</time>
      </trkpt>
      <trkpt lat="54.06752" lon="14.96268">
        <ele>48.478553</ele>
        <time>2024-07-27T11:23:21.566Z</time>
      </trkpt>
      <trkpt lat="54.06752" lon="14.96283">
        <ele>48.603273</ele>
        <time>2024-07-27T11:23:23.562Z</time>
      </trkpt>
      <trkpt lat="54.06752" lon="14.96299">
        <ele>48.729602</ele>
        <time>2024-07-27T11:23:25.547Z</time>
      </trkpt>
      <trkpt lat="54.06752" lon="14.96315">
        <ele>48.828865</ele>
        <time>2024-07-27T11:23:27.570Z</time>
      </trkpt>
      <trkpt lat="54.06752" lon="14.9633">
        <ele>48.842886</ele>
        <time>2024-07-27T11:23:29.567Z</time>
      </trkpt>
      <trkpt lat="54.06752" lon="14.96346">
        <ele>48.857463</ele>
        <time>2024-07-27T11:23:31.572Z</time>
      </trkpt>
      <trkpt lat="54.06749" lon="14.96362">
        <ele>48.872239</ele>
        <time>2024-07-27T11:23:33.549Z</time>
      </trkpt>
      <trkpt lat="54.06744" lon="14.96375">
        <ele>48.886617</ele>
        <time>2024-07-27T11:23:35.551Z</time>
      </trkpt>
      <trkpt lat="54.06738" lon="14.96388">
        <ele>48.901846</ele>
        <time>2024-07-27T11:23:37.559Z</time>
      </trkpt>
      <trkpt lat="54.06734" lon="14.96402">
        <ele>48.916904</ele>
        <time>2024-07-27T11:23:39.555Z</time>
      </trkpt>
      <trkpt lat="54.06731" lon="14.96419">
        <ele>48.93226</ele>
        <time>2024-07-27T11:23:41.544Z</time>
      </trkpt>
      <trkpt lat="54.0673" lon="14.96434">
        <ele>48.946558</ele>
        <time>2024-07-27T11:23:43.556Z</time>
      </trkpt>
      <trkpt lat="54.06726" lon="14.96456">
        <ele>48.967743</ele>
        <time>2024-07-27T11:23:46.557Z</time>
      </trkpt>
      <trkpt lat="54.06723" lon="14.96471">
        <ele>48.981932</ele>
        <time>2024-07-27T11:23:48.553Z</time>
      </trkpt>
      <trkpt lat="54.0672" lon="14.96486">
        <ele>48.99652</ele>
        <time>2024-07-27T11:23:50.561Z</time>
      </trkpt>
      <trkpt lat="54.0672" lon="14.96508">
        <ele>49.016765</ele>
        <time>2024-07-27T11:23:53.545Z</time>
      </trkpt>
      <trkpt lat="54.06724" lon="14.96529">
        <ele>49.037223</ele>
        <time>2024-07-27T11:23:56.530Z</time>
      </trkpt>
      <trkpt lat="54.06727" lon="14.96544">
        <ele>49.051419</ele>
        <time>2024-07-27T11:23:58.562Z</time>
      </trkpt>
      <trkpt lat="54.06729" lon="14.96559">
        <ele>49.065526</ele>
        <time>2024-07-27T11:24:00.550Z</time>
      </trkpt>
      <trkpt lat="54.06731" lon="14.96574">
        <ele>49.079993</ele>
        <time>2024-07-27T11:24:02.548Z</time>
      </trkpt>
      <trkpt lat="54.06734" lon="14.96589">
        <ele>49.094101</ele>
        <time>2024-07-27T11:24:04.564Z</time>
      </trkpt>
      <trkpt lat="54.06737" lon="14.96611">
        <ele>49.153455</ele>
        <time>2024-07-27T11:24:07.554Z</time>
      </trkpt>
      <trkpt lat="54.06741" lon="14.96634">
        <ele>49.262027</ele>
        <time>2024-07-27T11:24:10.571Z</time>
      </trkpt>
      <trkpt lat="54.06745" lon="14.96649">
        <ele>49.337312</ele>
        <time>2024-07-27T11:24:12.554Z</time>
      </trkpt>
      <trkpt lat="54.06748" lon="14.96664">
        <ele>49.412311</ele>
        <time>2024-07-27T11:24:14.550Z</time>
      </trkpt>
      <trkpt lat="54.06752" lon="14.96678">
        <ele>49.484682</ele>
        <time>2024-07-27T11:24:16.541Z</time>
      </trkpt>
      <trkpt lat="54.06755" lon="14.96692">
        <ele>49.557264</ele>
        <time>2024-07-27T11:24:18.546Z</time>
      </trkpt>
      <trkpt lat="54.06759" lon="14.96707">
        <ele>49.629311</ele>
        <time>2024-07-27T11:24:20.549Z</time>
      </trkpt>
      <trkpt lat="54.06763" lon="14.96721">
        <ele>49.701587</ele>
        <time>2024-07-27T11:24:22.550Z</time>
      </trkpt>
      <trkpt lat="54.06768" lon="14.96743">
        <ele>49.80926</ele>
        <time>2024-07-27T11:24:25.542Z</time>
      </trkpt>
      <trkpt lat="54.06771" lon="14.96757">
        <ele>49.882394</ele>
        <time>2024-07-27T11:24:27.543Z</time>
      </trkpt>
      <trkpt lat="54.06775" lon="14.96771">
        <ele>49.954949</ele>
        <time>2024-07-27T11:24:29.570Z</time>
      </trkpt>
      <trkpt lat="54.0678" lon="14.96792">
        <ele>50.059363</ele>
        <time>2024-07-27T11:24:32.547Z</time>
      </trkpt>
      <trkpt lat="54.06785" lon="14.96813">
        <ele>50.16561</ele>
        <time>2024-07-27T11:24:35.589Z</time>
      </trkpt>
      <trkpt lat="54.0679" lon="14.96832">
        <ele>50.260796</ele>
        <time>2024-07-27T11:24:38.569Z</time>
      </trkpt>
      <trkpt lat="54.06793" lon="14.96851">
        <ele>50.351637</ele>
        <time>2024-07-27T11:24:41.553Z</time>
      </trkpt>
      <trkpt lat="54.06796" lon="14.9687">
        <ele>50.443978</ele>
        <time>2024-07-27T11:24:44.549Z</time>
      </trkpt>
      <trkpt lat="54.06803" lon="14.96887">
        <ele>50.512291</ele>
        <time>2024-07-27T11:24:47.531Z</time>
      </trkpt>
      <trkpt lat="54.06813" lon="14.96903">
        <ele>50.412456</ele>
        <time>2024-07-27T11:24:50.560Z</time>
      </trkpt>
      <trkpt lat="54.06819" lon="14.96917">
        <ele>50.333483</ele>
        <time>2024-07-27T11:24:53.553Z</time>
      </trkpt>
      <trkpt lat="54.06824" lon="14.96932">
        <ele>50.256525</ele>
        <time>2024-07-27T11:24:58.542Z</time>
      </trkpt>
      <trkpt lat="54.06831" lon="14.96945">
        <ele>50.179437</ele>
        <time>2024-07-27T11:25:01.559Z</time>
      </trkpt>
      <trkpt lat="54.06839" lon="14.96961">
        <ele>50.088586</ele>
        <time>2024-07-27T11:25:04.550Z</time>
      </trkpt>
      <trkpt lat="54.06847" lon="14.96977">
        <ele>49.993766</ele>
        <time>2024-07-27T11:25:07.559Z</time>
      </trkpt>
      <trkpt lat="54.06856" lon="14.96993">
        <ele>49.89809</ele>
        <time>2024-07-27T11:25:10.554Z</time>
      </trkpt>
      <trkpt lat="54.06864" lon="14.97009">
        <ele>49.805104</ele>
        <time>2024-07-27T11:25:13.532Z</time>
      </trkpt>
      <trkpt lat="54.06869" lon="14.97023">
        <ele>49.734254</ele>
        <time>2024-07-27T11:25:15.534Z</time>
      </trkpt>
      <trkpt lat="54.06874" lon="14.97037">
        <ele>49.662098</ele>
        <time>2024-07-27T11:25:17.558Z</time>
      </trkpt>
      <trkpt lat="54.0688" lon="14.9705">
        <ele>49.58604</ele>
        <time>2024-07-27T11:25:19.563Z</time>
      </trkpt>
      <trkpt lat="54.06886" lon="14.97064">
        <ele>49.51099</ele>
        <time>2024-07-27T11:25:21.550Z</time>
      </trkpt>
      <trkpt lat="54.06892" lon="14.97078">
        <ele>49.432554</ele>
        <time>2024-07-27T11:25:23.562Z</time>
      </trkpt>
      <trkpt lat="54.06898" lon="14.97093">
        <ele>49.352016</ele>
        <time>2024-07-27T11:25:25.557Z</time>
      </trkpt>
      <trkpt lat="54.06904" lon="14.97109">
        <ele>49.27069</ele>
        <time>2024-07-27T11:25:27.554Z</time>
      </trkpt>
      <trkpt lat="54.0691" lon="14.97122">
        <ele>49.196083</ele>
        <time>2024-07-27T11:25:29.523Z</time>
      </trkpt>
      <trkpt lat="54.06915" lon="14.97138">
        <ele>49.151103</ele>
        <time>2024-07-27T11:25:31.551Z</time>
      </trkpt>
      <trkpt lat="54.06921" lon="14.97154">
        <ele>49.119715</ele>
        <time>2024-07-27T11:25:33.542Z</time>
      </trkpt>
      <trkpt lat="54.06926" lon="14.9717">
        <ele>49.08832</ele>
        <time>2024-07-27T11:25:35.563Z</time>
      </trkpt>
      <trkpt lat="54.06931" lon="14.97185">
        <ele>49.057663</ele>
        <time>2024-07-27T11:25:37.569Z</time>
      </trkpt>
      <trkpt lat="54.06936" lon="14.97201">
        <ele>49.02641</ele>
        <time>2024-07-27T11:25:39.564Z</time>
      </trkpt>
      <trkpt lat="54.06941" lon="14.97217">
        <ele>48.995497</ele>
        <time>2024-07-27T11:25:41.560Z</time>
      </trkpt>
      <trkpt lat="54.06945" lon="14.97233">
        <ele>48.965343</ele>
        <time>2024-07-27T11:25:43.563Z</time>
      </trkpt>
      <trkpt lat="54.06948" lon="14.97249">
        <ele>48.935682</ele>
        <time>2024-07-27T11:25:45.551Z</time>
      </trkpt>
      <trkpt lat="54.06952" lon="14.97265">
        <ele>48.906391</ele>
        <time>2024-07-27T11:25:47.562Z</time>
      </trkpt>
      <trkpt lat="54.06956" lon="14.97281">
        <ele>48.876595</ele>
        <time>2024-07-27T11:25:49.564Z</time>
      </trkpt>
      <trkpt lat="54.0696" lon="14.97297">
        <ele>48.846873</ele>
        <time>2024-07-27T11:25:51.565Z</time>
      </trkpt>
      <trkpt lat="54.06964" lon="14.97313">
        <ele>48.817212</ele>
        <time>2024-07-27T11:25:53.571Z</time>
      </trkpt>
      <trkpt lat="54.06967" lon="14.97329">
        <ele>48.786909</ele>
        <time>2024-07-27T11:25:55.557Z</time>
      </trkpt>
      <trkpt lat="54.06971" lon="14.97345">
        <ele>48.757389</ele>
        <time>2024-07-27T11:25:57.552Z</time>
      </trkpt>
      <trkpt lat="54.06977" lon="14.97359">
        <ele>48.727611</ele>
        <time>2024-07-27T11:25:59.552Z</time>
      </trkpt>
      <trkpt lat="54.0698" lon="14.97374">
        <ele>48.700143</ele>
        <time>2024-07-27T11:26:01.556Z</time>
      </trkpt>
      <trkpt lat="54.06984" lon="14.97396">
        <ele>48.660825</ele>
        <time>2024-07-27T11:26:04.549Z</time>
      </trkpt>
      <trkpt lat="54.06989" lon="14.97417">
        <ele>48.770211</ele>
        <time>2024-07-27T11:26:07.559Z</time>
      </trkpt>
      <trkpt lat="54.06994" lon="14.97438">
        <ele>48.979648</ele>
        <time>2024-07-27T11:26:10.557Z</time>
      </trkpt>
      <trkpt lat="54.06999" lon="14.97457">
        <ele>49.172235</ele>
        <time>2024-07-27T11:26:13.577Z</time>
      </trkpt>
      <trkpt lat="54.07004" lon="14.97475">
        <ele>49.352398</ele>
        <time>2024-07-27T11:26:16.567Z</time>
      </trkpt>
      <trkpt lat="54.07008" lon="14.97494">
        <ele>49.541675</ele>
        <time>2024-07-27T11:26:19.559Z</time>
      </trkpt>
      <trkpt lat="54.07013" lon="14.97512">
        <ele>49.724843</ele>
        <time>2024-07-27T11:26:22.555Z</time>
      </trkpt>
      <trkpt lat="54.07018" lon="14.9753">
        <ele>49.910088</ele>
        <time>2024-07-27T11:26:25.563Z</time>
      </trkpt>
      <trkpt lat="54.07021" lon="14.97548">
        <ele>50.082375</ele>
        <time>2024-07-27T11:26:28.553Z</time>
      </trkpt>
      <trkpt lat="54.07021" lon="14.97566">
        <ele>50.25394</ele>
        <time>2024-07-27T11:26:32.572Z</time>
      </trkpt>
      <trkpt lat="54.07029" lon="14.9758">
        <ele>50.427007</ele>
        <time>2024-07-27T11:26:36.546Z</time>
      </trkpt>
      <trkpt lat="54.07035" lon="14.97594">
        <ele>50.591703</ele>
        <time>2024-07-27T11:26:40.552Z</time>
      </trkpt>
      <trkpt lat="54.07039" lon="14.97612">
        <ele>50.77632</ele>
        <time>2024-07-27T11:26:44.558Z</time>
      </trkpt>
      <trkpt lat="54.07044" lon="14.97629">
        <ele>50.950001</ele>
        <time>2024-07-27T11:26:48.567Z</time>
      </trkpt>
      <trkpt lat="54.0705" lon="14.97647">
        <ele>51.14078</ele>
        <time>2024-07-27T11:26:52.559Z</time>
      </trkpt>
      <trkpt lat="54.07054" lon="14.97664">
        <ele>51.310364</ele>
        <time>2024-07-27T11:26:56.560Z</time>
      </trkpt>
      <trkpt lat="54.07059" lon="14.97677">
        <ele>51.460344</ele>
        <time>2024-07-27T11:26:59.577Z</time>
      </trkpt>
      <trkpt lat="54.07065" lon="14.9769">
        <ele>51.493547</ele>
        <time>2024-07-27T11:27:02.550Z</time>
      </trkpt>
      <trkpt lat="54.07072" lon="14.97707">
        <ele>51.503232</ele>
        <time>2024-07-27T11:27:06.569Z</time>
      </trkpt>
      <trkpt lat="54.07077" lon="14.97721">
        <ele>51.511027</ele>
        <time>2024-07-27T11:27:09.554Z</time>
      </trkpt>
      <trkpt lat="54.07081" lon="14.97736">
        <ele>51.519247</ele>
        <time>2024-07-27T11:27:12.528Z</time>
      </trkpt>
      <trkpt lat="54.07087" lon="14.97753">
        <ele>51.528277</ele>
        <time>2024-07-27T11:27:15.551Z</time>
      </trkpt>
      <trkpt lat="54.07093" lon="14.97773">
        <ele>51.539078</ele>
        <time>2024-07-27T11:27:18.552Z</time>
      </trkpt>
      <trkpt lat="54.07099" lon="14.97792">
        <ele>51.54954</ele>
        <time>2024-07-27T11:27:21.562Z</time>
      </trkpt>
      <trkpt lat="54.07106" lon="14.9781">
        <ele>51.559766</ele>
        <time>2024-07-27T11:27:24.573Z</time>
      </trkpt>
      <trkpt lat="54.07112" lon="14.97828">
        <ele>51.569653</ele>
        <time>2024-07-27T11:27:27.569Z</time>
      </trkpt>
      <trkpt lat="54.07119" lon="14.97847">
        <ele>51.579828</ele>
        <time>2024-07-27T11:27:30.562Z</time>
      </trkpt>
      <trkpt lat="54.07126" lon="14.97865">
        <ele>51.590262</ele>
        <time>2024-07-27T11:27:33.570Z</time>
      </trkpt>
      <trkpt lat="54.07132" lon="14.97884">
        <ele>51.600728</ele>
        <time>2024-07-27T11:27:36.556Z</time>
      </trkpt>
      <trkpt lat="54.07137" lon="14.97897">
        <ele>51.608114</ele>
        <time>2024-07-27T11:27:38.563Z</time>
      </trkpt>
      <trkpt lat="54.07142" lon="14.97911">
        <ele>51.615503</ele>
        <time>2024-07-27T11:27:40.558Z</time>
      </trkpt>
      <trkpt lat="54.07146" lon="14.97924">
        <ele>51.622929</ele>
        <time>2024-07-27T11:27:42.575Z</time>
      </trkpt>
      <trkpt lat="54.07152" lon="14.97937">
        <ele>51.630466</ele>
        <time>2024-07-27T11:27:44.558Z</time>
      </trkpt>
      <trkpt lat="54.07159" lon="14.97947">
        <ele>51.608354</ele>
        <time>2024-07-27T11:27:46.543Z</time>
      </trkpt>
      <trkpt lat="54.07166" lon="14.97958">
        <ele>51.564349</ele>
        <time>2024-07-27T11:27:48.532Z</time>
      </trkpt>
      <trkpt lat="54.07174" lon="14.97969">
        <ele>51.519353</ele>
        <time>2024-07-27T11:27:50.549Z</time>
      </trkpt>
      <trkpt lat="54.07182" lon="14.9798">
        <ele>51.475518</ele>
        <time>2024-07-27T11:27:52.554Z</time>
      </trkpt>
      <trkpt lat="54.07189" lon="14.97991">
        <ele>51.433005</ele>
        <time>2024-07-27T11:27:54.564Z</time>
      </trkpt>
      <trkpt lat="54.07197" lon="14.98001">
        <ele>51.391638</ele>
        <time>2024-07-27T11:27:56.556Z</time>
      </trkpt>
      <trkpt lat="54.07204" lon="14.98012">
        <ele>51.351432</ele>
        <time>2024-07-27T11:27:58.551Z</time>
      </trkpt>
      <trkpt lat="54.07211" lon="14.98022">
        <ele>51.311894</ele>
        <time>2024-07-27T11:28:00.567Z</time>
      </trkpt>
      <trkpt lat="54.07221" lon="14.98036">
        <ele>51.255806</ele>
        <time>2024-07-27T11:28:03.551Z</time>
      </trkpt>
      <trkpt lat="54.0723" lon="14.98049">
        <ele>51.202193</ele>
        <time>2024-07-27T11:28:06.542Z</time>
      </trkpt>
      <trkpt lat="54.07241" lon="14.98061">
        <ele>51.146958</ele>
        <time>2024-07-27T11:28:09.550Z</time>
      </trkpt>
      <trkpt lat="54.07251" lon="14.98075">
        <ele>51.090546</ele>
        <time>2024-07-27T11:28:12.555Z</time>
      </trkpt>
      <trkpt lat="54.07259" lon="14.98089">
        <ele>51.038677</ele>
        <time>2024-07-27T11:28:15.549Z</time>
      </trkpt>
      <trkpt lat="54.07269" lon="14.98101">
        <ele>50.988586</ele>
        <time>2024-07-27T11:28:18.583Z</time>
      </trkpt>
      <trkpt lat="54.07278" lon="14.98111">
        <ele>50.939735</ele>
        <time>2024-07-27T11:28:21.558Z</time>
      </trkpt>
      <trkpt lat="54.07286" lon="14.98121">
        <ele>50.895992</ele>
        <time>2024-07-27T11:28:24.568Z</time>
      </trkpt>
      <trkpt lat="54.07295" lon="14.9813">
        <ele>50.852393</ele>
        <time>2024-07-27T11:28:27.563Z</time>
      </trkpt>
      <trkpt lat="54.07304" lon="14.98136">
        <ele>50.757968</ele>
        <time>2024-07-27T11:28:30.533Z</time>
      </trkpt>
      <trkpt lat="54.07316" lon="14.98144">
        <ele>50.640911</ele>
        <time>2024-07-27T11:28:33.549Z</time>
      </trkpt>
      <trkpt lat="54.07327" lon="14.98151">
        <ele>50.522027</ele>
        <time>2024-07-27T11:28:36.557Z</time>
      </trkpt>
      <trkpt lat="54.07338" lon="14.98159">
        <ele>50.410625</ele>
        <time>2024-07-27T11:28:39.577Z</time>
      </trkpt>
      <trkpt lat="54.0735" lon="14.98167">
        <ele>50.294886</ele>
        <time>2024-07-27T11:28:42.552Z</time>
      </trkpt>
      <trkpt lat="54.07359" lon="14.98179">
        <ele>50.18639</ele>
        <time>2024-07-27T11:28:45.563Z</time>
      </trkpt>
      <trkpt lat="54.07366" lon="14.98197">
        <ele>50.066482</ele>
        <time>2024-07-27T11:28:48.546Z</time>
      </trkpt>
      <trkpt lat="54.07372" lon="14.98216">
        <ele>49.944389</ele>
        <time>2024-07-27T11:28:51.557Z</time>
      </trkpt>
      <trkpt lat="54.07376" lon="14.98236">
        <ele>49.826977</ele>
        <time>2024-07-27T11:28:54.558Z</time>
      </trkpt>
      <trkpt lat="54.07379" lon="14.98257">
        <ele>49.706429</ele>
        <time>2024-07-27T11:28:57.562Z</time>
      </trkpt>
      <trkpt lat="54.07383" lon="14.98276">
        <ele>49.590506</ele>
        <time>2024-07-27T11:29:00.554Z</time>
      </trkpt>
      <trkpt lat="54.07387" lon="14.98293">
        <ele>49.490532</ele>
        <time>2024-07-27T11:29:03.552Z</time>
      </trkpt>
      <trkpt lat="54.07392" lon="14.98307">
        <ele>49.403976</ele>
        <time>2024-07-27T11:29:06.551Z</time>
      </trkpt>
      <trkpt lat="54.07395" lon="14.98321">
        <ele>49.316813</ele>
        <time>2024-07-27T11:29:09.558Z</time>
      </trkpt>
      <trkpt lat="54.07398" lon="14.98337">
        <ele>49.226112</ele>
        <time>2024-07-27T11:29:12.559Z</time>
      </trkpt>
      <trkpt lat="54.07403" lon="14.98355">
        <ele>49.048299</ele>
        <time>2024-07-27T11:29:16.570Z</time>
      </trkpt>
      <trkpt lat="54.07407" lon="14.9837">
        <ele>48.78813</ele>
        <time>2024-07-27T11:29:19.559Z</time>
      </trkpt>
      <trkpt lat="54.07411" lon="14.98385">
        <ele>48.501942</ele>
        <time>2024-07-27T11:29:23.529Z</time>
      </trkpt>
      <trkpt lat="54.07416" lon="14.984">
        <ele>48.211253</ele>
        <time>2024-07-27T11:29:27.562Z</time>
      </trkpt>
      <trkpt lat="54.07421" lon="14.98417">
        <ele>47.898895</ele>
        <time>2024-07-27T11:29:31.560Z</time>
      </trkpt>
      <trkpt lat="54.07428" lon="14.98434">
        <ele>47.560478</ele>
        <time>2024-07-27T11:29:35.543Z</time>
      </trkpt>
      <trkpt lat="54.07433" lon="14.98449">
        <ele>47.272413</ele>
        <time>2024-07-27T11:29:38.537Z</time>
      </trkpt>
      <trkpt lat="54.07437" lon="14.98464">
        <ele>47.002299</ele>
        <time>2024-07-27T11:29:41.569Z</time>
      </trkpt>
      <trkpt lat="54.0744" lon="14.98481">
        <ele>46.692806</ele>
        <time>2024-07-27T11:29:45.568Z</time>
      </trkpt>
      <trkpt lat="54.07445" lon="14.98496">
        <ele>46.418753</ele>
        <time>2024-07-27T11:29:48.537Z</time>
      </trkpt>
      <trkpt lat="54.07449" lon="14.98513">
        <ele>46.114744</ele>
        <time>2024-07-27T11:29:51.547Z</time>
      </trkpt>
      <trkpt lat="54.07454" lon="14.9853">
        <ele>45.798751</ele>
        <time>2024-07-27T11:29:54.567Z</time>
      </trkpt>
      <trkpt lat="54.07459" lon="14.98548">
        <ele>45.456319</ele>
        <time>2024-07-27T11:29:57.568Z</time>
      </trkpt>
      <trkpt lat="54.07465" lon="14.98564">
        <ele>45.129813</ele>
        <time>2024-07-27T11:30:00.569Z</time>
      </trkpt>
      <trkpt lat="54.07472" lon="14.98583">
        <ele>44.765657</ele>
        <time>2024-07-27T11:30:03.561Z</time>
      </trkpt>
      <trkpt lat="54.07479" lon="14.98601">
        <ele>44.407635</ele>
        <time>2024-07-27T11:30:06.554Z</time>
      </trkpt>
      <trkpt lat="54.07486" lon="14.98618">
        <ele>44.064155</ele>
        <time>2024-07-27T11:30:09.554Z</time>
      </trkpt>
      <trkpt lat="54.07492" lon="14.98637">
        <ele>44.023334</ele>
        <time>2024-07-27T11:30:12.551Z</time>
      </trkpt>
      <trkpt lat="54.07499" lon="14.98657">
        <ele>44.011549</ele>
        <time>2024-07-27T11:30:15.557Z</time>
      </trkpt>
      <trkpt lat="54.07504" lon="14.9867">
        <ele>44.003397</ele>
        <time>2024-07-27T11:30:17.552Z</time>
      </trkpt>
      <trkpt lat="54.07509" lon="14.98685">
        <ele>43.995204</ele>
        <time>2024-07-27T11:30:19.552Z</time>
      </trkpt>
      <trkpt lat="54.07514" lon="14.98699">
        <ele>43.986841</ele>
        <time>2024-07-27T11:30:21.550Z</time>
      </trkpt>
      <trkpt lat="54.07519" lon="14.98713">
        <ele>43.978168</ele>
        <time>2024-07-27T11:30:23.560Z</time>
      </trkpt>
      <trkpt lat="54.07523" lon="14.98728">
        <ele>43.969796</ele>
        <time>2024-07-27T11:30:25.557Z</time>
      </trkpt>
      <trkpt lat="54.07528" lon="14.98742">
        <ele>43.961513</ele>
        <time>2024-07-27T11:30:27.561Z</time>
      </trkpt>
      <trkpt lat="54.07533" lon="14.98756">
        <ele>43.953587</ele>
        <time>2024-07-27T11:30:29.558Z</time>
      </trkpt>
      <trkpt lat="54.0754" lon="14.98773">
        <ele>43.942534</ele>
        <time>2024-07-27T11:30:32.561Z</time>
      </trkpt>
      <trkpt lat="54.07548" lon="14.98789">
        <ele>43.932004</ele>
        <time>2024-07-27T11:30:35.576Z</time>
      </trkpt>
      <trkpt lat="54.07554" lon="14.98807">
        <ele>43.921583</ele>
        <time>2024-07-27T11:30:38.536Z</time>
      </trkpt>
      <trkpt lat="54.0756" lon="14.98823">
        <ele>43.911794</ele>
        <time>2024-07-27T11:30:41.542Z</time>
      </trkpt>
      <trkpt lat="54.07566" lon="14.98838">
        <ele>43.902986</ele>
        <time>2024-07-27T11:30:44.568Z</time>
      </trkpt>
      <trkpt lat="54.07569" lon="14.98855">
        <ele>43.893676</ele>
        <time>2024-07-27T11:30:49.551Z</time>
      </trkpt>
      <trkpt lat="54.07575" lon="14.98869">
        <ele>43.885007</ele>
        <time>2024-07-27T11:30:54.536Z</time>
      </trkpt>
      <trkpt lat="54.07581" lon="14.98886">
        <ele>43.90021</ele>
        <time>2024-07-27T11:30:58.551Z</time>
      </trkpt>
      <trkpt lat="54.07585" lon="14.989">
        <ele>43.963311</ele>
        <time>2024-07-27T11:31:01.577Z</time>
      </trkpt>
      <trkpt lat="54.07589" lon="14.98916">
        <ele>44.03587</ele>
        <time>2024-07-27T11:31:04.550Z</time>
      </trkpt>
      <trkpt lat="54.07594" lon="14.98933">
        <ele>44.112935</ele>
        <time>2024-07-27T11:31:07.560Z</time>
      </trkpt>
      <trkpt lat="54.076" lon="14.98949">
        <ele>44.190934</ele>
        <time>2024-07-27T11:31:10.567Z</time>
      </trkpt>
      <trkpt lat="54.07606" lon="14.98969">
        <ele>44.278244</ele>
        <time>2024-07-27T11:31:13.554Z</time>
      </trkpt>
      <trkpt lat="54.07609" lon="14.98989">
        <ele>44.364707</ele>
        <time>2024-07-27T11:31:16.556Z</time>
      </trkpt>
      <trkpt lat="54.07611" lon="14.99011">
        <ele>44.455281</ele>
        <time>2024-07-27T11:31:19.540Z</time>
      </trkpt>
      <trkpt lat="54.07613" lon="14.99033">
        <ele>44.542754</ele>
        <time>2024-07-27T11:31:22.547Z</time>
      </trkpt>
      <trkpt lat="54.07614" lon="14.99053">
        <ele>44.627331</ele>
        <time>2024-07-27T11:31:25.555Z</time>
      </trkpt>
      <trkpt lat="54.07615" lon="14.99075">
        <ele>44.716927</ele>
        <time>2024-07-27T11:31:28.556Z</time>
      </trkpt>
      <trkpt lat="54.0762" lon="14.99096">
        <ele>44.807121</ele>
        <time>2024-07-27T11:31:31.556Z</time>
      </trkpt>
      <trkpt lat="54.07622" lon="14.99119">
        <ele>44.898706</ele>
        <time>2024-07-27T11:31:34.581Z</time>
      </trkpt>
      <trkpt lat="54.07622" lon="14.99135">
        <ele>44.966052</ele>
        <time>2024-07-27T11:31:36.573Z</time>
      </trkpt>
      <trkpt lat="54.07622" lon="14.99152">
        <ele>45.034586</ele>
        <time>2024-07-27T11:31:38.550Z</time>
      </trkpt>
      <trkpt lat="54.07622" lon="14.99168">
        <ele>45.099873</ele>
        <time>2024-07-27T11:31:40.553Z</time>
      </trkpt>
      <trkpt lat="54.07622" lon="14.99191">
        <ele>45.28169</ele>
        <time>2024-07-27T11:31:43.555Z</time>
      </trkpt>
      <trkpt lat="54.07622" lon="14.9921">
        <ele>45.447329</ele>
        <time>2024-07-27T11:31:46.560Z</time>
      </trkpt>
      <trkpt lat="54.07623" lon="14.99226">
        <ele>45.593918</ele>
        <time>2024-07-27T11:31:49.543Z</time>
      </trkpt>
      <trkpt lat="54.07623" lon="14.99242">
        <ele>45.733102</ele>
        <time>2024-07-27T11:31:52.559Z</time>
      </trkpt>
      <trkpt lat="54.07624" lon="14.99262">
        <ele>45.917909</ele>
        <time>2024-07-27T11:31:55.569Z</time>
      </trkpt>
      <trkpt lat="54.07626" lon="14.99282">
        <ele>46.099427</ele>
        <time>2024-07-27T11:31:58.554Z</time>
      </trkpt>
      <trkpt lat="54.07628" lon="14.99303">
        <ele>46.293098</ele>
        <time>2024-07-27T11:32:01.567Z</time>
      </trkpt>
      <trkpt lat="54.0763" lon="14.99324">
        <ele>46.480548</ele>
        <time>2024-07-27T11:32:04.555Z</time>
      </trkpt>
      <trkpt lat="54.07631" lon="14.99345">
        <ele>46.672072</ele>
        <time>2024-07-27T11:32:07.554Z</time>
      </trkpt>
      <trkpt lat="54.07633" lon="14.99366">
        <ele>46.861548</ele>
        <time>2024-07-27T11:32:10.558Z</time>
      </trkpt>
      <trkpt lat="54.07636" lon="14.99387">
        <ele>47.051566</ele>
        <time>2024-07-27T11:32:13.557Z</time>
      </trkpt>
      <trkpt lat="54.07638" lon="14.99404">
        <ele>47.214133</ele>
        <time>2024-07-27T11:32:16.547Z</time>
      </trkpt>
      <trkpt lat="54.07643" lon="14.99421">
        <ele>47.38325</ele>
        <time>2024-07-27T11:32:19.550Z</time>
      </trkpt>
      <trkpt lat="54.07648" lon="14.99443">
        <ele>47.591445</ele>
        <time>2024-07-27T11:32:22.537Z</time>
      </trkpt>
      <trkpt lat="54.07652" lon="14.99458">
        <ele>47.738546</ele>
        <time>2024-07-27T11:32:24.550Z</time>
      </trkpt>
      <trkpt lat="54.07656" lon="14.99473">
        <ele>47.889708</ele>
        <time>2024-07-27T11:32:26.544Z</time>
      </trkpt>
      <trkpt lat="54.0766" lon="14.99488">
        <ele>48.039945</ele>
        <time>2024-07-27T11:32:28.554Z</time>
      </trkpt>
      <trkpt lat="54.07664" lon="14.99505">
        <ele>48.196705</ele>
        <time>2024-07-27T11:32:30.551Z</time>
      </trkpt>
      <trkpt lat="54.07669" lon="14.99519">
        <ele>48.346694</ele>
        <time>2024-07-27T11:32:32.562Z</time>
      </trkpt>
      <trkpt lat="54.07674" lon="14.99534">
        <ele>48.49765</ele>
        <time>2024-07-27T11:32:34.573Z</time>
      </trkpt>
      <trkpt lat="54.07677" lon="14.9955">
        <ele>48.647206</ele>
        <time>2024-07-27T11:32:36.553Z</time>
      </trkpt>
      <trkpt lat="54.07681" lon="14.99566">
        <ele>48.796006</ele>
        <time>2024-07-27T11:32:38.572Z</time>
      </trkpt>
      <trkpt lat="54.07685" lon="14.99581">
        <ele>48.945592</ele>
        <time>2024-07-27T11:32:40.557Z</time>
      </trkpt>
      <trkpt lat="54.07689" lon="14.99595">
        <ele>49.086009</ele>
        <time>2024-07-27T11:32:42.554Z</time>
      </trkpt>
      <trkpt lat="54.07694" lon="14.99609">
        <ele>49.225427</ele>
        <time>2024-07-27T11:32:44.554Z</time>
      </trkpt>
      <trkpt lat="54.07698" lon="14.99623">
        <ele>49.367764</ele>
        <time>2024-07-27T11:32:46.550Z</time>
      </trkpt>
      <trkpt lat="54.07703" lon="14.99637">
        <ele>49.511638</ele>
        <time>2024-07-27T11:32:48.553Z</time>
      </trkpt>
      <trkpt lat="54.07708" lon="14.99651">
        <ele>49.657846</ele>
        <time>2024-07-27T11:32:50.559Z</time>
      </trkpt>
      <trkpt lat="54.07712" lon="14.99665">
        <ele>49.796004</ele>
        <time>2024-07-27T11:32:52.565Z</time>
      </trkpt>
      <trkpt lat="54.07716" lon="14.99679">
        <ele>49.939141</ele>
        <time>2024-07-27T11:32:54.565Z</time>
      </trkpt>
      <trkpt lat="54.07723" lon="14.997">
        <ele>50.144324</ele>
        <time>2024-07-27T11:32:57.562Z</time>
      </trkpt>
      <trkpt lat="54.07727" lon="14.99714">
        <ele>50.284623</ele>
        <time>2024-07-27T11:32:59.566Z</time>
      </trkpt>
      <trkpt lat="54.07731" lon="14.99727">
        <ele>50.423151</ele>
        <time>2024-07-27T11:33:01.563Z</time>
      </trkpt>
      <trkpt lat="54.07735" lon="14.99742">
        <ele>50.562261</ele>
        <time>2024-07-27T11:33:03.552Z</time>
      </trkpt>
      <trkpt lat="54.07741" lon="14.99761">
        <ele>50.667578</ele>
        <time>2024-07-27T11:33:06.555Z</time>
      </trkpt>
      <trkpt lat="54.07746" lon="14.99777">
        <ele>50.738556</ele>
        <time>2024-07-27T11:33:09.544Z</time>
      </trkpt>
      <trkpt lat="54.07752" lon="14.9979">
        <ele>50.807521</ele>
        <time>2024-07-27T11:33:13.558Z</time>
      </trkpt>
      <trkpt lat="54.07753" lon="14.99791">
        <ele>50.810525</ele>
        <time>2024-07-27T11:33:17.367Z</time>
      </trkpt>
      <trkpt lat="54.07754" lon="14.99806">
        <ele>50.873287</ele>
        <time>2024-07-27T11:34:02.544Z</time>
      </trkpt>
      <trkpt lat="54.07759" lon="14.9982">
        <ele>50.938029</ele>
        <time>2024-07-27T11:34:05.546Z</time>
      </trkpt>
      <trkpt lat="54.07763" lon="14.99837">
        <ele>51.013182</ele>
        <time>2024-07-27T11:34:08.558Z</time>
      </trkpt>
      <trkpt lat="54.07769" lon="14.99855">
        <ele>51.099828</ele>
        <time>2024-07-27T11:34:11.553Z</time>
      </trkpt>
      <trkpt lat="54.07776" lon="14.99872">
        <ele>51.180909</ele>
        <time>2024-07-27T11:34:14.536Z</time>
      </trkpt>
      <trkpt lat="54.07781" lon="14.9989">
        <ele>51.261121</ele>
        <time>2024-07-27T11:34:17.553Z</time>
      </trkpt>
      <trkpt lat="54.07786" lon="14.99909">
        <ele>51.343774</ele>
        <time>2024-07-27T11:34:20.547Z</time>
      </trkpt>
      <trkpt lat="54.07792" lon="14.99928">
        <ele>51.432206</ele>
        <time>2024-07-27T11:34:23.580Z</time>
      </trkpt>
      <trkpt lat="54.07798" lon="14.99947">
        <ele>51.522325</ele>
        <time>2024-07-27T11:34:26.553Z</time>
      </trkpt>
      <trkpt lat="54.07805" lon="14.99967">
        <ele>51.613497</ele>
        <time>2024-07-27T11:34:29.559Z</time>
      </trkpt>
      <trkpt lat="54.07811" lon="14.99987">
        <ele>51.704644</ele>
        <time>2024-07-27T11:34:32.565Z</time>
      </trkpt>
      <trkpt lat="54.07816" lon="15.00008">
        <ele>51.794735</ele>
        <time>2024-07-27T11:34:35.563Z</time>
      </trkpt>
      <trkpt lat="54.07822" lon="15.00028">
        <ele>51.903645</ele>
        <time>2024-07-27T11:34:38.626Z</time>
      </trkpt>
      <trkpt lat="54.07826" lon="15.00042">
        <ele>51.986398</ele>
        <time>2024-07-27T11:34:40.540Z</time>
      </trkpt>
      <trkpt lat="54.0783" lon="15.00055">
        <ele>52.069578</ele>
        <time>2024-07-27T11:34:42.525Z</time>
      </trkpt>
      <trkpt lat="54.07834" lon="15.00069">
        <ele>52.153282</ele>
        <time>2024-07-27T11:34:44.541Z</time>
      </trkpt>
      <trkpt lat="54.0784" lon="15.0009">
        <ele>52.27745</ele>
        <time>2024-07-27T11:34:47.553Z</time>
      </trkpt>
      <trkpt lat="54.07845" lon="15.00104">
        <ele>52.363421</ele>
        <time>2024-07-27T11:34:49.564Z</time>
      </trkpt>
      <trkpt lat="54.07849" lon="15.00118">
        <ele>52.448882</ele>
        <time>2024-07-27T11:34:51.537Z</time>
      </trkpt>
      <trkpt lat="54.07854" lon="15.00133">
        <ele>52.535327</ele>
        <time>2024-07-27T11:34:53.553Z</time>
      </trkpt>
      <trkpt lat="54.07857" lon="15.00147">
        <ele>52.61878</ele>
        <time>2024-07-27T11:34:55.557Z</time>
      </trkpt>
      <trkpt lat="54.07863" lon="15.00164">
        <ele>52.722273</ele>
        <time>2024-07-27T11:34:58.561Z</time>
      </trkpt>
      <trkpt lat="54.07869" lon="15.00182">
        <ele>52.83634</ele>
        <time>2024-07-27T11:35:01.550Z</time>
      </trkpt>
      <trkpt lat="54.07873" lon="15.00197">
        <ele>52.925036</ele>
        <time>2024-07-27T11:35:03.533Z</time>
      </trkpt>
      <trkpt lat="54.07878" lon="15.00212">
        <ele>53.015705</ele>
        <time>2024-07-27T11:35:05.585Z</time>
      </trkpt>
      <trkpt lat="54.07882" lon="15.00227">
        <ele>53.105421</ele>
        <time>2024-07-27T11:35:07.567Z</time>
      </trkpt>
      <trkpt lat="54.07887" lon="15.00242">
        <ele>53.198246</ele>
        <time>2024-07-27T11:35:09.552Z</time>
      </trkpt>
      <trkpt lat="54.07892" lon="15.00257">
        <ele>53.287547</ele>
        <time>2024-07-27T11:35:11.562Z</time>
      </trkpt>
      <trkpt lat="54.07897" lon="15.00272">
        <ele>53.378513</ele>
        <time>2024-07-27T11:35:13.560Z</time>
      </trkpt>
      <trkpt lat="54.07901" lon="15.00287">
        <ele>53.468185</ele>
        <time>2024-07-27T11:35:15.558Z</time>
      </trkpt>
      <trkpt lat="54.07904" lon="15.00304">
        <ele>53.5405</ele>
        <time>2024-07-27T11:35:17.556Z</time>
      </trkpt>
      <trkpt lat="54.07908" lon="15.0032">
        <ele>53.608494</ele>
        <time>2024-07-27T11:35:19.555Z</time>
      </trkpt>
      <trkpt lat="54.07911" lon="15.00335">
        <ele>53.675988</ele>
        <time>2024-07-27T11:35:21.554Z</time>
      </trkpt>
      <trkpt lat="54.07915" lon="15.00351">
        <ele>53.742732</ele>
        <time>2024-07-27T11:35:23.558Z</time>
      </trkpt>
      <trkpt lat="54.07918" lon="15.00367">
        <ele>53.809374</ele>
        <time>2024-07-27T11:35:25.556Z</time>
      </trkpt>
      <trkpt lat="54.07922" lon="15.00386">
        <ele>53.891862</ele>
        <time>2024-07-27T11:35:28.555Z</time>
      </trkpt>
      <trkpt lat="54.07925" lon="15.00401">
        <ele>53.954914</ele>
        <time>2024-07-27T11:35:31.545Z</time>
      </trkpt>
      <trkpt lat="54.07928" lon="15.0042">
        <ele>54.034166</ele>
        <time>2024-07-27T11:35:34.552Z</time>
      </trkpt>
      <trkpt lat="54.07931" lon="15.00439">
        <ele>54.114618</ele>
        <time>2024-07-27T11:35:37.560Z</time>
      </trkpt>
      <trkpt lat="54.07935" lon="15.00457">
        <ele>54.191235</ele>
        <time>2024-07-27T11:35:41.554Z</time>
      </trkpt>
      <trkpt lat="54.07944" lon="15.00462">
        <ele>54.253873</ele>
        <time>2024-07-27T11:35:44.544Z</time>
      </trkpt>
      <trkpt lat="54.07953" lon="15.00464">
        <ele>54.316402</ele>
        <time>2024-07-27T11:35:47.543Z</time>
      </trkpt>
      <trkpt lat="54.07961" lon="15.00472">
        <ele>54.382826</ele>
        <time>2024-07-27T11:35:50.552Z</time>
      </trkpt>
      <trkpt lat="54.07969" lon="15.00482">
        <ele>54.449441</ele>
        <time>2024-07-27T11:35:53.549Z</time>
      </trkpt>
      <trkpt lat="54.07977" lon="15.00495">
        <ele>54.523688</ele>
        <time>2024-07-27T11:35:57.545Z</time>
      </trkpt>
      <trkpt lat="54.07984" lon="15.00511">
        <ele>54.605141</ele>
        <time>2024-07-27T11:36:01.557Z</time>
      </trkpt>
      <trkpt lat="54.07989" lon="15.00525">
        <ele>54.668226</ele>
        <time>2024-07-27T11:36:04.551Z</time>
      </trkpt>
      <trkpt lat="54.07989" lon="15.00544">
        <ele>54.599822</ele>
        <time>2024-07-27T11:36:08.551Z</time>
      </trkpt>
      <trkpt lat="54.07993" lon="15.00558">
        <ele>54.44869</ele>
        <time>2024-07-27T11:36:12.554Z</time>
      </trkpt>
      <trkpt lat="54.07999" lon="15.00568">
        <ele>54.305767</ele>
        <time>2024-07-27T11:36:30.235Z</time>
      </trkpt>
      <trkpt lat="54.08002" lon="15.00583">
        <ele>54.150087</ele>
        <time>2024-07-27T11:45:12.549Z</time>
      </trkpt>
      <trkpt lat="54.08006" lon="15.00598">
        <ele>53.996296</ele>
        <time>2024-07-27T11:45:17.568Z</time>
      </trkpt>
      <trkpt lat="54.08011" lon="15.00613">
        <ele>53.82462</ele>
        <time>2024-07-27T11:45:21.556Z</time>
      </trkpt>
      <trkpt lat="54.08014" lon="15.00627">
        <ele>53.673284</ele>
        <time>2024-07-27T11:45:24.551Z</time>
      </trkpt>
      <trkpt lat="54.08017" lon="15.00644">
        <ele>53.503527</ele>
        <time>2024-07-27T11:45:27.544Z</time>
      </trkpt>
      <trkpt lat="54.0802" lon="15.00663">
        <ele>53.314077</ele>
        <time>2024-07-27T11:45:30.561Z</time>
      </trkpt>
      <trkpt lat="54.08023" lon="15.00679">
        <ele>53.148171</ele>
        <time>2024-07-27T11:45:33.550Z</time>
      </trkpt>
      <trkpt lat="54.08027" lon="15.00698">
        <ele>52.951898</ele>
        <time>2024-07-27T11:45:37.552Z</time>
      </trkpt>
      <trkpt lat="54.08031" lon="15.00713">
        <ele>52.797748</ele>
        <time>2024-07-27T11:45:40.544Z</time>
      </trkpt>
      <trkpt lat="54.08034" lon="15.00728">
        <ele>52.640798</ele>
        <time>2024-07-27T11:45:43.525Z</time>
      </trkpt>
      <trkpt lat="54.08038" lon="15.00742">
        <ele>52.481544</ele>
        <time>2024-07-27T11:45:46.551Z</time>
      </trkpt>
      <trkpt lat="54.08042" lon="15.00758">
        <ele>52.313398</ele>
        <time>2024-07-27T11:45:49.542Z</time>
      </trkpt>
      <trkpt lat="54.08046" lon="15.00775">
        <ele>52.133085</ele>
        <time>2024-07-27T11:45:52.540Z</time>
      </trkpt>
      <trkpt lat="54.0805" lon="15.00796">
        <ele>51.926884</ele>
        <time>2024-07-27T11:45:55.542Z</time>
      </trkpt>
      <trkpt lat="54.08054" lon="15.00815">
        <ele>51.724762</ele>
        <time>2024-07-27T11:45:58.573Z</time>
      </trkpt>
      <trkpt lat="54.08057" lon="15.0083">
        <ele>51.672085</ele>
        <time>2024-07-27T11:46:00.558Z</time>
      </trkpt>
      <trkpt lat="54.08061" lon="15.00852">
        <ele>51.602397</ele>
        <time>2024-07-27T11:46:03.552Z</time>
      </trkpt>
      <trkpt lat="54.08064" lon="15.00867">
        <ele>51.55384</ele>
        <time>2024-07-27T11:46:05.554Z</time>
      </trkpt>
      <trkpt lat="54.08066" lon="15.00882">
        <ele>51.506146</ele>
        <time>2024-07-27T11:46:07.570Z</time>
      </trkpt>
      <trkpt lat="54.08065" lon="15.00898">
        <ele>51.456745</ele>
        <time>2024-07-27T11:46:09.545Z</time>
      </trkpt>
      <trkpt lat="54.08062" lon="15.00913">
        <ele>51.409384</ele>
        <time>2024-07-27T11:46:11.548Z</time>
      </trkpt>
      <trkpt lat="54.08057" lon="15.00932">
        <ele>51.344845</ele>
        <time>2024-07-27T11:46:14.540Z</time>
      </trkpt>
      <trkpt lat="54.08055" lon="15.00953">
        <ele>51.281171</ele>
        <time>2024-07-27T11:46:17.549Z</time>
      </trkpt>
      <trkpt lat="54.08055" lon="15.00971">
        <ele>51.225263</ele>
        <time>2024-07-27T11:46:20.535Z</time>
      </trkpt>
      <trkpt lat="54.08062" lon="15.00984">
        <ele>51.173285</ele>
        <time>2024-07-27T11:46:23.551Z</time>
      </trkpt>
      <trkpt lat="54.08073" lon="15.00978">
        <ele>51.11305</ele>
        <time>2024-07-27T11:46:26.534Z</time>
      </trkpt>
      <trkpt lat="54.08084" lon="15.00975">
        <ele>51.056843</ele>
        <time>2024-07-27T11:46:29.546Z</time>
      </trkpt>
      <trkpt lat="54.08093" lon="15.00973">
        <ele>51.005986</ele>
        <time>2024-07-27T11:46:32.564Z</time>
      </trkpt>
      <trkpt lat="54.08104" lon="15.00975">
        <ele>50.952549</ele>
        <time>2024-07-27T11:46:35.564Z</time>
      </trkpt>
      <trkpt lat="54.08114" lon="15.00975">
        <ele>50.899772</ele>
        <time>2024-07-27T11:46:38.543Z</time>
      </trkpt>
      <trkpt lat="54.08125" lon="15.00976">
        <ele>50.84059</ele>
        <time>2024-07-27T11:46:41.548Z</time>
      </trkpt>
      <trkpt lat="54.08136" lon="15.00977">
        <ele>50.794574</ele>
        <time>2024-07-27T11:46:44.555Z</time>
      </trkpt>
      <trkpt lat="54.08148" lon="15.00978">
        <ele>51.02316</ele>
        <time>2024-07-27T11:46:47.568Z</time>
      </trkpt>
      <trkpt lat="54.0816" lon="15.00979">
        <ele>51.2424</ele>
        <time>2024-07-27T11:46:50.526Z</time>
      </trkpt>
      <trkpt lat="54.08171" lon="15.00986">
        <ele>51.457118</ele>
        <time>2024-07-27T11:46:53.547Z</time>
      </trkpt>
      <trkpt lat="54.08179" lon="15.01">
        <ele>51.682417</ele>
        <time>2024-07-27T11:46:57.554Z</time>
      </trkpt>
      <trkpt lat="54.08184" lon="15.01015">
        <ele>51.862374</ele>
        <time>2024-07-27T11:47:00.562Z</time>
      </trkpt>
      <trkpt lat="54.08189" lon="15.01032">
        <ele>52.075787</ele>
        <time>2024-07-27T11:47:04.563Z</time>
      </trkpt>
      <trkpt lat="54.08194" lon="15.01049">
        <ele>52.2913</ele>
        <time>2024-07-27T11:47:08.560Z</time>
      </trkpt>
      <trkpt lat="54.08199" lon="15.01067">
        <ele>52.499322</ele>
        <time>2024-07-27T11:47:12.546Z</time>
      </trkpt>
      <trkpt lat="54.08204" lon="15.01084">
        <ele>52.712416</ele>
        <time>2024-07-27T11:47:16.545Z</time>
      </trkpt>
      <trkpt lat="54.0821" lon="15.01101">
        <ele>52.924744</ele>
        <time>2024-07-27T11:47:20.569Z</time>
      </trkpt>
      <trkpt lat="54.08215" lon="15.01118">
        <ele>53.134165</ele>
        <time>2024-07-27T11:47:24.550Z</time>
      </trkpt>
      <trkpt lat="54.0822" lon="15.01133">
        <ele>53.330196</ele>
        <time>2024-07-27T11:47:28.567Z</time>
      </trkpt>
      <trkpt lat="54.08227" lon="15.01149">
        <ele>53.53919</ele>
        <time>2024-07-27T11:47:32.555Z</time>
      </trkpt>
      <trkpt lat="54.08233" lon="15.01165">
        <ele>53.753389</ele>
        <time>2024-07-27T11:47:36.551Z</time>
      </trkpt>
      <trkpt lat="54.08237" lon="15.01181">
        <ele>53.948023</ele>
        <time>2024-07-27T11:47:40.558Z</time>
      </trkpt>
      <trkpt lat="54.08239" lon="15.01197">
        <ele>54.124726</ele>
        <time>2024-07-27T11:47:44.568Z</time>
      </trkpt>
      <trkpt lat="54.08243" lon="15.01212">
        <ele>54.246562</ele>
        <time>2024-07-27T11:47:48.552Z</time>
      </trkpt>
      <trkpt lat="54.0824" lon="15.0123">
        <ele>54.364928</ele>
        <time>2024-07-27T11:47:52.552Z</time>
      </trkpt>
      <trkpt lat="54.08234" lon="15.01246">
        <ele>54.490566</ele>
        <time>2024-07-27T11:47:56.554Z</time>
      </trkpt>
      <trkpt lat="54.08227" lon="15.01259">
        <ele>54.606839</ele>
        <time>2024-07-27T11:48:00.563Z</time>
      </trkpt>
      <trkpt lat="54.08221" lon="15.01276">
        <ele>54.736174</ele>
        <time>2024-07-27T11:48:04.558Z</time>
      </trkpt>
      <trkpt lat="54.08217" lon="15.01295">
        <ele>54.868695</ele>
        <time>2024-07-27T11:48:08.550Z</time>
      </trkpt>
      <trkpt lat="54.08222" lon="15.0131">
        <ele>54.984544</ele>
        <time>2024-07-27T11:48:12.551Z</time>
      </trkpt>
      <trkpt lat="54.08228" lon="15.01323">
        <ele>55.096379</ele>
        <time>2024-07-27T11:48:16.558Z</time>
      </trkpt>
      <trkpt lat="54.08234" lon="15.01337">
        <ele>55.209344</ele>
        <time>2024-07-27T11:48:20.548Z</time>
      </trkpt>
      <trkpt lat="54.08242" lon="15.01351">
        <ele>55.340244</ele>
        <time>2024-07-27T11:48:24.544Z</time>
      </trkpt>
      <trkpt lat="54.08244" lon="15.01368">
        <ele>55.45685</ele>
        <time>2024-07-27T11:48:28.570Z</time>
      </trkpt>
      <trkpt lat="54.0825" lon="15.0138">
        <ele>55.559103</ele>
        <time>2024-07-27T11:48:32.563Z</time>
      </trkpt>
      <trkpt lat="54.08255" lon="15.01396">
        <ele>55.673708</ele>
        <time>2024-07-27T11:48:36.538Z</time>
      </trkpt>
      <trkpt lat="54.08259" lon="15.01412">
        <ele>55.788531</ele>
        <time>2024-07-27T11:48:40.568Z</time>
      </trkpt>
      <trkpt lat="54.08264" lon="15.01427">
        <ele>55.904531</ele>
        <time>2024-07-27T11:48:45.541Z</time>
      </trkpt>
      <trkpt lat="54.08268" lon="15.01441">
        <ele>56.007436</ele>
        <time>2024-07-27T11:48:55.544Z</time>
      </trkpt>
      <trkpt lat="54.08273" lon="15.01456">
        <ele>56.117584</ele>
        <time>2024-07-27T11:49:00.560Z</time>
      </trkpt>
      <trkpt lat="54.08277" lon="15.01471">
        <ele>56.169231</ele>
        <time>2024-07-27T11:49:04.551Z</time>
      </trkpt>
      <trkpt lat="54.08281" lon="15.01486">
        <ele>56.169752</ele>
        <time>2024-07-27T11:49:09.543Z</time>
      </trkpt>
      <trkpt lat="54.08285" lon="15.01501">
        <ele>56.170261</ele>
        <time>2024-07-27T11:49:14.548Z</time>
      </trkpt>
      <trkpt lat="54.08289" lon="15.01518">
        <ele>56.170849</ele>
        <time>2024-07-27T11:49:18.547Z</time>
      </trkpt>
      <trkpt lat="54.08293" lon="15.01533">
        <ele>56.171381</ele>
        <time>2024-07-27T11:49:25.537Z</time>
      </trkpt>
      <trkpt lat="54.08298" lon="15.01549">
        <ele>56.171955</ele>
        <time>2024-07-27T11:49:32.548Z</time>
      </trkpt>
      <trkpt lat="54.08302" lon="15.01566">
        <ele>56.172547</ele>
        <time>2024-07-27T11:49:36.547Z</time>
      </trkpt>
      <trkpt lat="54.08307" lon="15.01583">
        <ele>56.173143</ele>
        <time>2024-07-27T11:49:40.561Z</time>
      </trkpt>
      <trkpt lat="54.08312" lon="15.01596">
        <ele>56.173637</ele>
        <time>2024-07-27T11:49:43.546Z</time>
      </trkpt>
      <trkpt lat="54.08316" lon="15.0161">
        <ele>56.17413</ele>
        <time>2024-07-27T11:49:47.554Z</time>
      </trkpt>
      <trkpt lat="54.08318" lon="15.01625">
        <ele>56.174627</ele>
        <time>2024-07-27T11:49:52.537Z</time>
      </trkpt>
      <trkpt lat="54.08321" lon="15.01643">
        <ele>56.1752</ele>
        <time>2024-07-27T11:49:58.545Z</time>
      </trkpt>
      <trkpt lat="54.08322" lon="15.01663">
        <ele>56.175842</ele>
        <time>2024-07-27T11:50:02.556Z</time>
      </trkpt>
      <trkpt lat="54.08325" lon="15.01678">
        <ele>56.176331</ele>
        <time>2024-07-27T11:50:05.555Z</time>
      </trkpt>
      <trkpt lat="54.08329" lon="15.01693">
        <ele>56.17687</ele>
        <time>2024-07-27T11:50:08.574Z</time>
      </trkpt>
      <trkpt lat="54.08333" lon="15.01712">
        <ele>56.177502</ele>
        <time>2024-07-27T11:50:12.553Z</time>
      </trkpt>
      <trkpt lat="54.08336" lon="15.01728">
        <ele>56.178024</ele>
        <time>2024-07-27T11:50:15.563Z</time>
      </trkpt>
      <trkpt lat="54.08341" lon="15.01745">
        <ele>56.178639</ele>
        <time>2024-07-27T11:50:19.554Z</time>
      </trkpt>
      <trkpt lat="54.08344" lon="15.01763">
        <ele>55.996813</ele>
        <time>2024-07-27T11:50:23.560Z</time>
      </trkpt>
      <trkpt lat="54.08348" lon="15.01779">
        <ele>55.824239</ele>
        <time>2024-07-27T11:50:26.554Z</time>
      </trkpt>
      <trkpt lat="54.08352" lon="15.01799">
        <ele>55.615045</ele>
        <time>2024-07-27T11:50:29.553Z</time>
      </trkpt>
      <trkpt lat="54.0836" lon="15.01813">
        <ele>55.42205</ele>
        <time>2024-07-27T11:50:32.559Z</time>
      </trkpt>
      <trkpt lat="54.08366" lon="15.01826">
        <ele>55.256177</ele>
        <time>2024-07-27T11:50:35.553Z</time>
      </trkpt>
      <trkpt lat="54.08371" lon="15.01842">
        <ele>55.080509</ele>
        <time>2024-07-27T11:50:38.533Z</time>
      </trkpt>
      <trkpt lat="54.08376" lon="15.01858">
        <ele>54.894511</ele>
        <time>2024-07-27T11:50:42.530Z</time>
      </trkpt>
      <trkpt lat="54.08382" lon="15.01871">
        <ele>54.739772</ele>
        <time>2024-07-27T11:50:46.550Z</time>
      </trkpt>
      <trkpt lat="54.08387" lon="15.01886">
        <ele>54.562432</ele>
        <time>2024-07-27T11:50:50.546Z</time>
      </trkpt>
      <trkpt lat="54.08393" lon="15.019">
        <ele>54.386965</ele>
        <time>2024-07-27T11:50:53.553Z</time>
      </trkpt>
      <trkpt lat="54.084" lon="15.01918">
        <ele>54.171663</ele>
        <time>2024-07-27T11:50:56.565Z</time>
      </trkpt>
      <trkpt lat="54.08406" lon="15.01932">
        <ele>54.00598</ele>
        <time>2024-07-27T11:50:58.575Z</time>
      </trkpt>
      <trkpt lat="54.0841" lon="15.01946">
        <ele>53.843259</ele>
        <time>2024-07-27T11:51:00.577Z</time>
      </trkpt>
      <trkpt lat="54.08417" lon="15.01965">
        <ele>53.622881</ele>
        <time>2024-07-27T11:51:03.556Z</time>
      </trkpt>
      <trkpt lat="54.08423" lon="15.01979">
        <ele>53.453262</ele>
        <time>2024-07-27T11:51:06.551Z</time>
      </trkpt>
      <trkpt lat="54.08428" lon="15.01978">
        <ele>53.35773</ele>
        <time>2024-07-27T11:51:22.246Z</time>
      </trkpt>
      <trkpt lat="54.0842" lon="15.0196">
        <ele>53.130795</ele>
        <time>2024-07-27T11:52:26.548Z</time>
      </trkpt>
      <trkpt lat="54.08428" lon="15.01971">
        <ele>53.260034</ele>
        <time>2024-07-27T11:52:28.542Z</time>
      </trkpt>
      <trkpt lat="54.08426" lon="15.01987">
        <ele>53.412803</ele>
        <time>2024-07-27T11:52:38.534Z</time>
      </trkpt>
      <trkpt lat="54.08431" lon="15.02001">
        <ele>53.573953</ele>
        <time>2024-07-27T11:52:47.552Z</time>
      </trkpt>
      <trkpt lat="54.08427" lon="15.02017">
        <ele>53.733097</ele>
        <time>2024-07-27T11:52:52.542Z</time>
      </trkpt>
      <trkpt lat="54.08422" lon="15.02031">
        <ele>53.894248</ele>
        <time>2024-07-27T11:52:56.539Z</time>
      </trkpt>
      <trkpt lat="54.08416" lon="15.02044">
        <ele>54.041207</ele>
        <time>2024-07-27T11:52:59.547Z</time>
      </trkpt>
      <trkpt lat="54.08412" lon="15.02057">
        <ele>54.186858</ele>
        <time>2024-07-27T11:53:02.530Z</time>
      </trkpt>
      <trkpt lat="54.08405" lon="15.02072">
        <ele>54.363628</ele>
        <time>2024-07-27T11:53:06.557Z</time>
      </trkpt>
      <trkpt lat="54.08399" lon="15.02087">
        <ele>54.531683</ele>
        <time>2024-07-27T11:53:10.550Z</time>
      </trkpt>
      <trkpt lat="54.08394" lon="15.02103">
        <ele>54.699718</ele>
        <time>2024-07-27T11:53:14.542Z</time>
      </trkpt>
      <trkpt lat="54.08388" lon="15.02115">
        <ele>54.845096</ele>
        <time>2024-07-27T11:53:18.560Z</time>
      </trkpt>
      <trkpt lat="54.08383" lon="15.02131">
        <ele>55.014828</ele>
        <time>2024-07-27T11:53:23.565Z</time>
      </trkpt>
      <trkpt lat="54.08385" lon="15.02147">
        <ele>55.171095</ele>
        <time>2024-07-27T11:53:28.537Z</time>
      </trkpt>
      <trkpt lat="54.08393" lon="15.02158">
        <ele>55.323467</ele>
        <time>2024-07-27T11:53:32.544Z</time>
      </trkpt>
      <trkpt lat="54.08401" lon="15.02168">
        <ele>55.487147</ele>
        <time>2024-07-27T11:53:36.555Z</time>
      </trkpt>
      <trkpt lat="54.08408" lon="15.0218">
        <ele>55.645631</ele>
        <time>2024-07-27T11:53:40.551Z</time>
      </trkpt>
      <trkpt lat="54.08411" lon="15.02197">
        <ele>55.815132</ele>
        <time>2024-07-27T11:53:44.545Z</time>
      </trkpt>
      <trkpt lat="54.08413" lon="15.02217">
        <ele>55.97516</ele>
        <time>2024-07-27T11:53:48.548Z</time>
      </trkpt>
      <trkpt lat="54.08417" lon="15.02232">
        <ele>55.965909</ele>
        <time>2024-07-27T11:53:51.547Z</time>
      </trkpt>
      <trkpt lat="54.08423" lon="15.02245">
        <ele>55.956007</ele>
        <time>2024-07-27T11:53:54.550Z</time>
      </trkpt>
      <trkpt lat="54.08433" lon="15.02251">
        <ele>55.945929</ele>
        <time>2024-07-27T11:53:57.591Z</time>
      </trkpt>
      <trkpt lat="54.08444" lon="15.02262">
        <ele>55.933176</ele>
        <time>2024-07-27T11:54:00.552Z</time>
      </trkpt>
      <trkpt lat="54.08455" lon="15.02273">
        <ele>55.920515</ele>
        <time>2024-07-27T11:54:03.554Z</time>
      </trkpt>
      <trkpt lat="54.08466" lon="15.02285">
        <ele>55.907816</ele>
        <time>2024-07-27T11:54:06.557Z</time>
      </trkpt>
      <trkpt lat="54.08477" lon="15.02295">
        <ele>55.89598</ele>
        <time>2024-07-27T11:54:09.561Z</time>
      </trkpt>
      <trkpt lat="54.08486" lon="15.02304">
        <ele>55.885196</ele>
        <time>2024-07-27T11:54:12.545Z</time>
      </trkpt>
      <trkpt lat="54.08494" lon="15.02315">
        <ele>55.875093</ele>
        <time>2024-07-27T11:54:15.558Z</time>
      </trkpt>
      <trkpt lat="54.08501" lon="15.02324">
        <ele>55.866154</ele>
        <time>2024-07-27T11:54:19.563Z</time>
      </trkpt>
      <trkpt lat="54.0851" lon="15.02333">
        <ele>55.856631</ele>
        <time>2024-07-27T11:54:25.557Z</time>
      </trkpt>
      <trkpt lat="54.08518" lon="15.02346">
        <ele>55.84561</ele>
        <time>2024-07-27T11:54:30.556Z</time>
      </trkpt>
      <trkpt lat="54.08522" lon="15.02361">
        <ele>55.835765</ele>
        <time>2024-07-27T11:54:34.550Z</time>
      </trkpt>
      <trkpt lat="54.08525" lon="15.02379">
        <ele>55.824879</ele>
        <time>2024-07-27T11:54:37.553Z</time>
      </trkpt>
      <trkpt lat="54.0853" lon="15.02398">
        <ele>55.813293</ele>
        <time>2024-07-27T11:54:40.558Z</time>
      </trkpt>
      <trkpt lat="54.08534" lon="15.02417">
        <ele>55.802012</ele>
        <time>2024-07-27T11:54:43.563Z</time>
      </trkpt>
      <trkpt lat="54.08538" lon="15.02435">
        <ele>55.673866</ele>
        <time>2024-07-27T11:54:46.551Z</time>
      </trkpt>
      <trkpt lat="54.08541" lon="15.02454">
        <ele>55.520063</ele>
        <time>2024-07-27T11:54:49.565Z</time>
      </trkpt>
      <trkpt lat="54.08544" lon="15.02472">
        <ele>55.373227</ele>
        <time>2024-07-27T11:54:52.539Z</time>
      </trkpt>
      <trkpt lat="54.08547" lon="15.02488">
        <ele>55.241612</ele>
        <time>2024-07-27T11:54:55.556Z</time>
      </trkpt>
      <trkpt lat="54.08549" lon="15.02515">
        <ele>55.029547</ele>
        <time>2024-07-27T11:55:15.561Z</time>
      </trkpt>
      <trkpt lat="54.08553" lon="15.02535">
        <ele>54.86189</ele>
        <time>2024-07-27T11:55:19.553Z</time>
      </trkpt>
      <trkpt lat="54.08555" lon="15.02551">
        <ele>54.73634</ele>
        <time>2024-07-27T11:55:21.551Z</time>
      </trkpt>
      <trkpt lat="54.08559" lon="15.02566">
        <ele>54.606288</ele>
        <time>2024-07-27T11:55:23.557Z</time>
      </trkpt>
      <trkpt lat="54.08564" lon="15.02582">
        <ele>54.46715</ele>
        <time>2024-07-27T11:55:25.554Z</time>
      </trkpt>
      <trkpt lat="54.08567" lon="15.02598">
        <ele>54.336873</ele>
        <time>2024-07-27T11:55:27.557Z</time>
      </trkpt>
      <trkpt lat="54.08571" lon="15.02613">
        <ele>54.20587</ele>
        <time>2024-07-27T11:55:29.561Z</time>
      </trkpt>
      <trkpt lat="54.08574" lon="15.02628">
        <ele>54.08319</ele>
        <time>2024-07-27T11:55:31.559Z</time>
      </trkpt>
      <trkpt lat="54.08576" lon="15.02644">
        <ele>53.960845</ele>
        <time>2024-07-27T11:55:33.553Z</time>
      </trkpt>
      <trkpt lat="54.08579" lon="15.02659">
        <ele>53.828386</ele>
        <time>2024-07-27T11:55:35.560Z</time>
      </trkpt>
      <trkpt lat="54.08583" lon="15.02675">
        <ele>53.698793</ele>
        <time>2024-07-27T11:55:37.530Z</time>
      </trkpt>
      <trkpt lat="54.08587" lon="15.02695">
        <ele>53.530277</ele>
        <time>2024-07-27T11:55:40.555Z</time>
      </trkpt>
      <trkpt lat="54.08593" lon="15.02713">
        <ele>53.363922</ele>
        <time>2024-07-27T11:55:43.556Z</time>
      </trkpt>
      <trkpt lat="54.08598" lon="15.02732">
        <ele>53.168847</ele>
        <time>2024-07-27T11:55:46.552Z</time>
      </trkpt>
      <trkpt lat="54.08602" lon="15.02754">
        <ele>52.956471</ele>
        <time>2024-07-27T11:55:49.552Z</time>
      </trkpt>
      <trkpt lat="54.08605" lon="15.02776">
        <ele>52.738649</ele>
        <time>2024-07-27T11:55:52.567Z</time>
      </trkpt>
      <trkpt lat="54.08609" lon="15.0279">
        <ele>52.592088</ele>
        <time>2024-07-27T11:55:54.545Z</time>
      </trkpt>
      <trkpt lat="54.08612" lon="15.02805">
        <ele>52.446445</ele>
        <time>2024-07-27T11:55:56.559Z</time>
      </trkpt>
      <trkpt lat="54.08616" lon="15.0282">
        <ele>52.292773</ele>
        <time>2024-07-27T11:55:58.548Z</time>
      </trkpt>
      <trkpt lat="54.0862" lon="15.02835">
        <ele>52.14025</ele>
        <time>2024-07-27T11:56:00.549Z</time>
      </trkpt>
      <trkpt lat="54.08623" lon="15.0285">
        <ele>51.993774</ele>
        <time>2024-07-27T11:56:02.553Z</time>
      </trkpt>
      <trkpt lat="54.08627" lon="15.02865">
        <ele>51.842117</ele>
        <time>2024-07-27T11:56:04.549Z</time>
      </trkpt>
      <trkpt lat="54.08631" lon="15.02879">
        <ele>51.691147</ele>
        <time>2024-07-27T11:56:06.561Z</time>
      </trkpt>
      <trkpt lat="54.08634" lon="15.02894">
        <ele>51.543559</ele>
        <time>2024-07-27T11:56:08.543Z</time>
      </trkpt>
      <trkpt lat="54.08637" lon="15.02909">
        <ele>51.39944</ele>
        <time>2024-07-27T11:56:10.554Z</time>
      </trkpt>
      <trkpt lat="54.0864" lon="15.02924">
        <ele>51.25254</ele>
        <time>2024-07-27T11:56:12.560Z</time>
      </trkpt>
      <trkpt lat="54.08645" lon="15.02945">
        <ele>51.036265</ele>
        <time>2024-07-27T11:56:15.565Z</time>
      </trkpt>
      <trkpt lat="54.08648" lon="15.02961">
        <ele>50.876678</ele>
        <time>2024-07-27T11:56:17.560Z</time>
      </trkpt>
      <trkpt lat="54.08651" lon="15.02976">
        <ele>50.723798</ele>
        <time>2024-07-27T11:56:19.558Z</time>
      </trkpt>
      <trkpt lat="54.08654" lon="15.02992">
        <ele>50.567108</ele>
        <time>2024-07-27T11:56:21.545Z</time>
      </trkpt>
      <trkpt lat="54.08657" lon="15.03008">
        <ele>50.582001</ele>
        <time>2024-07-27T11:56:23.562Z</time>
      </trkpt>
      <trkpt lat="54.0866" lon="15.03024">
        <ele>50.644298</ele>
        <time>2024-07-27T11:56:25.566Z</time>
      </trkpt>
      <trkpt lat="54.08663" lon="15.03039">
        <ele>50.701815</ele>
        <time>2024-07-27T11:56:27.552Z</time>
      </trkpt>
      <trkpt lat="54.08668" lon="15.03059">
        <ele>50.782152</ele>
        <time>2024-07-27T11:56:30.554Z</time>
      </trkpt>
      <trkpt lat="54.08671" lon="15.03079">
        <ele>50.859224</ele>
        <time>2024-07-27T11:56:33.560Z</time>
      </trkpt>
      <trkpt lat="54.08675" lon="15.03097">
        <ele>50.931543</ele>
        <time>2024-07-27T11:56:36.547Z</time>
      </trkpt>
      <trkpt lat="54.08681" lon="15.03113">
        <ele>51.003063</ele>
        <time>2024-07-27T11:56:39.546Z</time>
      </trkpt>
      <trkpt lat="54.08689" lon="15.03124">
        <ele>51.071279</ele>
        <time>2024-07-27T11:56:42.542Z</time>
      </trkpt>
      <trkpt lat="54.087" lon="15.0313">
        <ele>51.142912</ele>
        <time>2024-07-27T11:56:45.558Z</time>
      </trkpt>
      <trkpt lat="54.08711" lon="15.03135">
        <ele>51.21163</ele>
        <time>2024-07-27T11:56:48.556Z</time>
      </trkpt>
      <trkpt lat="54.08719" lon="15.03141">
        <ele>51.271893</ele>
        <time>2024-07-27T11:56:51.560Z</time>
      </trkpt>
      <trkpt lat="54.08729" lon="15.03147">
        <ele>51.335258</ele>
        <time>2024-07-27T11:56:54.551Z</time>
      </trkpt>
      <trkpt lat="54.08739" lon="15.03156">
        <ele>51.408621</ele>
        <time>2024-07-27T11:56:57.556Z</time>
      </trkpt>
      <trkpt lat="54.08747" lon="15.0317">
        <ele>51.48022</ele>
        <time>2024-07-27T11:57:00.544Z</time>
      </trkpt>
      <trkpt lat="54.08751" lon="15.03189">
        <ele>51.554224</ele>
        <time>2024-07-27T11:57:03.540Z</time>
      </trkpt>
      <trkpt lat="54.08753" lon="15.03209">
        <ele>51.629513</ele>
        <time>2024-07-27T11:57:06.546Z</time>
      </trkpt>
      <trkpt lat="54.08755" lon="15.03227">
        <ele>51.589348</ele>
        <time>2024-07-27T11:57:09.558Z</time>
      </trkpt>
      <trkpt lat="54.08757" lon="15.03244">
        <ele>51.338776</ele>
        <time>2024-07-27T11:57:12.571Z</time>
      </trkpt>
      <trkpt lat="54.08759" lon="15.03262">
        <ele>51.084139</ele>
        <time>2024-07-27T11:57:15.559Z</time>
      </trkpt>
      <trkpt lat="54.08761" lon="15.03281">
        <ele>50.816376</ele>
        <time>2024-07-27T11:57:18.555Z</time>
      </trkpt>
      <trkpt lat="54.08763" lon="15.03303">
        <ele>50.505672</ele>
        <time>2024-07-27T11:57:21.559Z</time>
      </trkpt>
      <trkpt lat="54.08765" lon="15.03321">
        <ele>50.25765</ele>
        <time>2024-07-27T11:57:23.553Z</time>
      </trkpt>
      <trkpt lat="54.08766" lon="15.03342">
        <ele>49.962692</ele>
        <time>2024-07-27T11:57:25.555Z</time>
      </trkpt>
      <trkpt lat="54.08767" lon="15.03365">
        <ele>49.644286</ele>
        <time>2024-07-27T11:57:27.550Z</time>
      </trkpt>
      <trkpt lat="54.08766" lon="15.03389">
        <ele>49.306754</ele>
        <time>2024-07-27T11:57:29.537Z</time>
      </trkpt>
      <trkpt lat="54.08765" lon="15.03411">
        <ele>49.000816</ele>
        <time>2024-07-27T11:57:31.564Z</time>
      </trkpt>
      <trkpt lat="54.08767" lon="15.03432">
        <ele>48.713978</ele>
        <time>2024-07-27T11:57:33.551Z</time>
      </trkpt>
      <trkpt lat="54.08773" lon="15.03449">
        <ele>48.433145</ele>
        <time>2024-07-27T11:57:35.552Z</time>
      </trkpt>
      <trkpt lat="54.08778" lon="15.03468">
        <ele>48.153592</ele>
        <time>2024-07-27T11:57:37.563Z</time>
      </trkpt>
      <trkpt lat="54.08781" lon="15.03486">
        <ele>47.882431</ele>
        <time>2024-07-27T11:57:39.555Z</time>
      </trkpt>
      <trkpt lat="54.08782" lon="15.03507">
        <ele>47.599626</ele>
        <time>2024-07-27T11:57:41.554Z</time>
      </trkpt>
      <trkpt lat="54.08783" lon="15.03527">
        <ele>47.413667</ele>
        <time>2024-07-27T11:57:43.557Z</time>
      </trkpt>
      <trkpt lat="54.08786" lon="15.03548">
        <ele>47.376458</ele>
        <time>2024-07-27T11:57:45.550Z</time>
      </trkpt>
      <trkpt lat="54.08788" lon="15.03569">
        <ele>47.339701</ele>
        <time>2024-07-27T11:57:47.562Z</time>
      </trkpt>
      <trkpt lat="54.08789" lon="15.03588">
        <ele>47.305776</ele>
        <time>2024-07-27T11:57:49.564Z</time>
      </trkpt>
      <trkpt lat="54.08785" lon="15.03602">
        <ele>47.277983</ele>
        <time>2024-07-27T11:57:51.547Z</time>
      </trkpt>
      <trkpt lat="54.08782" lon="15.03623">
        <ele>47.24066</ele>
        <time>2024-07-27T11:57:54.553Z</time>
      </trkpt>
      <trkpt lat="54.08785" lon="15.03644">
        <ele>47.204025</ele>
        <time>2024-07-27T11:57:57.577Z</time>
      </trkpt>
      <trkpt lat="54.08788" lon="15.03665">
        <ele>47.165489</ele>
        <time>2024-07-27T11:58:00.546Z</time>
      </trkpt>
      <trkpt lat="54.08791" lon="15.03687">
        <ele>47.125948</ele>
        <time>2024-07-27T11:58:03.565Z</time>
      </trkpt>
      <trkpt lat="54.08794" lon="15.03707">
        <ele>47.090456</ele>
        <time>2024-07-27T11:58:06.556Z</time>
      </trkpt>
      <trkpt lat="54.08796" lon="15.03729">
        <ele>47.05279</ele>
        <time>2024-07-27T11:58:09.565Z</time>
      </trkpt>
      <trkpt lat="54.08799" lon="15.0375">
        <ele>47.015168</ele>
        <time>2024-07-27T11:58:12.545Z</time>
      </trkpt>
      <trkpt lat="54.088" lon="15.03771">
        <ele>46.977305</ele>
        <time>2024-07-27T11:58:15.560Z</time>
      </trkpt>
      <trkpt lat="54.08802" lon="15.03793">
        <ele>46.939166</ele>
        <time>2024-07-27T11:58:18.553Z</time>
      </trkpt>
      <trkpt lat="54.08803" lon="15.03815">
        <ele>46.899846</ele>
        <time>2024-07-27T11:58:21.557Z</time>
      </trkpt>
      <trkpt lat="54.08805" lon="15.03831">
        <ele>46.911716</ele>
        <time>2024-07-27T11:58:23.556Z</time>
      </trkpt>
      <trkpt lat="54.08807" lon="15.03846">
        <ele>46.93306</ele>
        <time>2024-07-27T11:58:25.563Z</time>
      </trkpt>
      <trkpt lat="54.08809" lon="15.03861">
        <ele>46.954689</ele>
        <time>2024-07-27T11:58:27.556Z</time>
      </trkpt>
      <trkpt lat="54.08812" lon="15.03876">
        <ele>46.975962</ele>
        <time>2024-07-27T11:58:29.553Z</time>
      </trkpt>
      <trkpt lat="54.08819" lon="15.03887">
        <ele>46.998109</ele>
        <time>2024-07-27T11:58:32.545Z</time>
      </trkpt>
      <trkpt lat="54.08829" lon="15.0389">
        <ele>47.022324</ele>
        <time>2024-07-27T11:58:35.563Z</time>
      </trkpt>
      <trkpt lat="54.08836" lon="15.03909">
        <ele>47.053101</ele>
        <time>2024-07-27T11:58:38.552Z</time>
      </trkpt>
      <trkpt lat="54.08841" lon="15.03924">
        <ele>47.075588</ele>
        <time>2024-07-27T11:58:40.542Z</time>
      </trkpt>
      <trkpt lat="54.08844" lon="15.03938">
        <ele>47.097425</ele>
        <time>2024-07-27T11:58:42.556Z</time>
      </trkpt>
      <trkpt lat="54.08849" lon="15.03953">
        <ele>47.119544</ele>
        <time>2024-07-27T11:58:44.547Z</time>
      </trkpt>
      <trkpt lat="54.08852" lon="15.03967">
        <ele>47.141279</ele>
        <time>2024-07-27T11:58:46.562Z</time>
      </trkpt>
      <trkpt lat="54.08857" lon="15.03982">
        <ele>47.164135</ele>
        <time>2024-07-27T11:58:48.550Z</time>
      </trkpt>
      <trkpt lat="54.08861" lon="15.03997">
        <ele>47.187714</ele>
        <time>2024-07-27T11:58:50.544Z</time>
      </trkpt>
      <trkpt lat="54.08866" lon="15.04013">
        <ele>47.21189</ele>
        <time>2024-07-27T11:58:52.557Z</time>
      </trkpt>
      <trkpt lat="54.0887" lon="15.0403">
        <ele>47.237223</ele>
        <time>2024-07-27T11:58:54.556Z</time>
      </trkpt>
      <trkpt lat="54.08875" lon="15.04047">
        <ele>47.263914</ele>
        <time>2024-07-27T11:58:56.551Z</time>
      </trkpt>
      <trkpt lat="54.0888" lon="15.04064">
        <ele>47.289658</ele>
        <time>2024-07-27T11:58:58.550Z</time>
      </trkpt>
      <trkpt lat="54.08885" lon="15.04081">
        <ele>47.315707</ele>
        <time>2024-07-27T11:59:00.558Z</time>
      </trkpt>
      <trkpt lat="54.08889" lon="15.04099">
        <ele>47.238062</ele>
        <time>2024-07-27T11:59:02.547Z</time>
      </trkpt>
      <trkpt lat="54.08894" lon="15.04117">
        <ele>47.156844</ele>
        <time>2024-07-27T11:59:04.527Z</time>
      </trkpt>
      <trkpt lat="54.08899" lon="15.04135">
        <ele>47.075279</ele>
        <time>2024-07-27T11:59:06.554Z</time>
      </trkpt>
      <trkpt lat="54.08904" lon="15.04153">
        <ele>46.993201</ele>
        <time>2024-07-27T11:59:08.609Z</time>
      </trkpt>
      <trkpt lat="54.0891" lon="15.0417">
        <ele>46.910799</ele>
        <time>2024-07-27T11:59:10.551Z</time>
      </trkpt>
      <trkpt lat="54.08915" lon="15.04189">
        <ele>46.827137</ele>
        <time>2024-07-27T11:59:12.545Z</time>
      </trkpt>
      <trkpt lat="54.08921" lon="15.04206">
        <ele>46.744666</ele>
        <time>2024-07-27T11:59:14.557Z</time>
      </trkpt>
      <trkpt lat="54.08926" lon="15.04225">
        <ele>46.661546</ele>
        <time>2024-07-27T11:59:16.529Z</time>
      </trkpt>
      <trkpt lat="54.0893" lon="15.04243">
        <ele>46.580605</ele>
        <time>2024-07-27T11:59:18.555Z</time>
      </trkpt>
      <trkpt lat="54.08935" lon="15.04259">
        <ele>46.50397</ele>
        <time>2024-07-27T11:59:20.558Z</time>
      </trkpt>
      <trkpt lat="54.08939" lon="15.04275">
        <ele>46.431344</ele>
        <time>2024-07-27T11:59:22.549Z</time>
      </trkpt>
      <trkpt lat="54.08944" lon="15.04291">
        <ele>46.359027</ele>
        <time>2024-07-27T11:59:24.558Z</time>
      </trkpt>
      <trkpt lat="54.08948" lon="15.04306">
        <ele>46.291078</ele>
        <time>2024-07-27T11:59:26.549Z</time>
      </trkpt>
      <trkpt lat="54.08952" lon="15.04322">
        <ele>46.220225</ele>
        <time>2024-07-27T11:59:28.548Z</time>
      </trkpt>
      <trkpt lat="54.08957" lon="15.04337">
        <ele>46.148884</ele>
        <time>2024-07-27T11:59:30.550Z</time>
      </trkpt>
      <trkpt lat="54.08961" lon="15.04353">
        <ele>46.077087</ele>
        <time>2024-07-27T11:59:32.548Z</time>
      </trkpt>
      <trkpt lat="54.08965" lon="15.04369">
        <ele>46.085831</ele>
        <time>2024-07-27T11:59:34.550Z</time>
      </trkpt>
      <trkpt lat="54.0897" lon="15.04385">
        <ele>46.130991</ele>
        <time>2024-07-27T11:59:36.560Z</time>
      </trkpt>
      <trkpt lat="54.08975" lon="15.04402">
        <ele>46.177731</ele>
        <time>2024-07-27T11:59:38.563Z</time>
      </trkpt>
      <trkpt lat="54.08979" lon="15.04419">
        <ele>46.225508</ele>
        <time>2024-07-27T11:59:40.559Z</time>
      </trkpt>
      <trkpt lat="54.08984" lon="15.04433">
        <ele>46.268346</ele>
        <time>2024-07-27T11:59:42.558Z</time>
      </trkpt>
      <trkpt lat="54.08988" lon="15.04449">
        <ele>46.312981</ele>
        <time>2024-07-27T11:59:44.557Z</time>
      </trkpt>
      <trkpt lat="54.08992" lon="15.04464">
        <ele>46.354756</ele>
        <time>2024-07-27T11:59:46.546Z</time>
      </trkpt>
      <trkpt lat="54.08996" lon="15.04478">
        <ele>46.395027</ele>
        <time>2024-07-27T11:59:48.551Z</time>
      </trkpt>
      <trkpt lat="54.09002" lon="15.04497">
        <ele>46.451276</ele>
        <time>2024-07-27T11:59:51.554Z</time>
      </trkpt>
      <trkpt lat="54.09008" lon="15.04515">
        <ele>46.504732</ele>
        <time>2024-07-27T11:59:54.549Z</time>
      </trkpt>
      <trkpt lat="54.09012" lon="15.04534">
        <ele>46.557581</ele>
        <time>2024-07-27T11:59:57.582Z</time>
      </trkpt>
      <trkpt lat="54.09015" lon="15.04553">
        <ele>46.607145</ele>
        <time>2024-07-27T12:00:00.537Z</time>
      </trkpt>
      <trkpt lat="54.09017" lon="15.04573">
        <ele>46.657833</ele>
        <time>2024-07-27T12:00:03.552Z</time>
      </trkpt>
      <trkpt lat="54.09018" lon="15.04593">
        <ele>46.711702</ele>
        <time>2024-07-27T12:00:06.550Z</time>
      </trkpt>
      <trkpt lat="54.0902" lon="15.04615">
        <ele>46.768368</ele>
        <time>2024-07-27T12:00:09.545Z</time>
      </trkpt>
      <trkpt lat="54.09022" lon="15.04638">
        <ele>46.828087</ele>
        <time>2024-07-27T12:00:12.553Z</time>
      </trkpt>
      <trkpt lat="54.09023" lon="15.04655">
        <ele>46.84197</ele>
        <time>2024-07-27T12:00:14.545Z</time>
      </trkpt>
      <trkpt lat="54.09025" lon="15.04672">
        <ele>46.84144</ele>
        <time>2024-07-27T12:00:16.548Z</time>
      </trkpt>
      <trkpt lat="54.09026" lon="15.04695">
        <ele>46.840739</ele>
        <time>2024-07-27T12:00:19.552Z</time>
      </trkpt>
      <trkpt lat="54.09026" lon="15.04718">
        <ele>46.840044</ele>
        <time>2024-07-27T12:00:22.544Z</time>
      </trkpt>
      <trkpt lat="54.09027" lon="15.0474">
        <ele>46.839379</ele>
        <time>2024-07-27T12:00:25.557Z</time>
      </trkpt>
      <trkpt lat="54.09029" lon="15.04759">
        <ele>46.838781</ele>
        <time>2024-07-27T12:00:28.580Z</time>
      </trkpt>
      <trkpt lat="54.09031" lon="15.04779">
        <ele>46.838151</ele>
        <time>2024-07-27T12:00:31.554Z</time>
      </trkpt>
      <trkpt lat="54.09033" lon="15.04799">
        <ele>46.837557</ele>
        <time>2024-07-27T12:00:34.558Z</time>
      </trkpt>
      <trkpt lat="54.09034" lon="15.04819">
        <ele>46.836935</ele>
        <time>2024-07-27T12:00:37.551Z</time>
      </trkpt>
      <trkpt lat="54.09035" lon="15.04841">
        <ele>46.836264</ele>
        <time>2024-07-27T12:00:40.547Z</time>
      </trkpt>
      <trkpt lat="54.09039" lon="15.04862">
        <ele>46.835592</ele>
        <time>2024-07-27T12:00:43.545Z</time>
      </trkpt>
      <trkpt lat="54.09043" lon="15.04882">
        <ele>46.834932</ele>
        <time>2024-07-27T12:00:46.565Z</time>
      </trkpt>
      <trkpt lat="54.09046" lon="15.04904">
        <ele>46.834248</ele>
        <time>2024-07-27T12:00:49.554Z</time>
      </trkpt>
      <trkpt lat="54.09048" lon="15.04926">
        <ele>46.833571</ele>
        <time>2024-07-27T12:00:52.547Z</time>
      </trkpt>
      <trkpt lat="54.0905" lon="15.04948">
        <ele>46.83577</ele>
        <time>2024-07-27T12:00:55.539Z</time>
      </trkpt>
      <trkpt lat="54.09052" lon="15.04971">
        <ele>46.863687</ele>
        <time>2024-07-27T12:00:58.547Z</time>
      </trkpt>
      <trkpt lat="54.09054" lon="15.04987">
        <ele>46.883292</ele>
        <time>2024-07-27T12:01:00.546Z</time>
      </trkpt>
      <trkpt lat="54.09056" lon="15.05003">
        <ele>46.903489</ele>
        <time>2024-07-27T12:01:02.561Z</time>
      </trkpt>
      <trkpt lat="54.09057" lon="15.0502">
        <ele>46.923696</ele>
        <time>2024-07-27T12:01:04.548Z</time>
      </trkpt>
      <trkpt lat="54.09059" lon="15.05037">
        <ele>46.944055</ele>
        <time>2024-07-27T12:01:06.563Z</time>
      </trkpt>
      <trkpt lat="54.0906" lon="15.05054">
        <ele>46.964719</ele>
        <time>2024-07-27T12:01:08.552Z</time>
      </trkpt>
      <trkpt lat="54.0906" lon="15.05071">
        <ele>46.985295</ele>
        <time>2024-07-27T12:01:10.558Z</time>
      </trkpt>
      <trkpt lat="54.09062" lon="15.05088">
        <ele>47.006216</ele>
        <time>2024-07-27T12:01:12.543Z</time>
      </trkpt>
      <trkpt lat="54.09064" lon="15.05105">
        <ele>47.027638</ele>
        <time>2024-07-27T12:01:14.551Z</time>
      </trkpt>
      <trkpt lat="54.09066" lon="15.05122">
        <ele>47.048789</ele>
        <time>2024-07-27T12:01:16.550Z</time>
      </trkpt>
      <trkpt lat="54.09068" lon="15.05139">
        <ele>47.069559</ele>
        <time>2024-07-27T12:01:18.550Z</time>
      </trkpt>
      <trkpt lat="54.09069" lon="15.05157">
        <ele>47.091077</ele>
        <time>2024-07-27T12:01:20.549Z</time>
      </trkpt>
      <trkpt lat="54.09071" lon="15.05174">
        <ele>47.112176</ele>
        <time>2024-07-27T12:01:22.560Z</time>
      </trkpt>
      <trkpt lat="54.09072" lon="15.05191">
        <ele>47.133336</ele>
        <time>2024-07-27T12:01:24.549Z</time>
      </trkpt>
      <trkpt lat="54.09074" lon="15.05209">
        <ele>47.154973</ele>
        <time>2024-07-27T12:01:26.551Z</time>
      </trkpt>
      <trkpt lat="54.09076" lon="15.05227">
        <ele>47.176751</ele>
        <time>2024-07-27T12:01:28.536Z</time>
      </trkpt>
      <trkpt lat="54.09077" lon="15.05244">
        <ele>47.198114</ele>
        <time>2024-07-27T12:01:30.549Z</time>
      </trkpt>
      <trkpt lat="54.09078" lon="15.05261">
        <ele>47.27279</ele>
        <time>2024-07-27T12:01:32.541Z</time>
      </trkpt>
      <trkpt lat="54.09079" lon="15.05277">
        <ele>47.364659</ele>
        <time>2024-07-27T12:01:34.560Z</time>
      </trkpt>
      <trkpt lat="54.0908" lon="15.05299">
        <ele>47.488602</ele>
        <time>2024-07-27T12:01:37.540Z</time>
      </trkpt>
      <trkpt lat="54.09081" lon="15.0532">
        <ele>47.607973</ele>
        <time>2024-07-27T12:01:40.525Z</time>
      </trkpt>
      <trkpt lat="54.09082" lon="15.05341">
        <ele>47.726408</ele>
        <time>2024-07-27T12:01:43.549Z</time>
      </trkpt>
      <trkpt lat="54.09084" lon="15.05362">
        <ele>47.849067</ele>
        <time>2024-07-27T12:01:46.564Z</time>
      </trkpt>
      <trkpt lat="54.09087" lon="15.05384">
        <ele>47.975485</ele>
        <time>2024-07-27T12:01:49.558Z</time>
      </trkpt>
      <trkpt lat="54.09091" lon="15.05406">
        <ele>48.099384</ele>
        <time>2024-07-27T12:01:52.550Z</time>
      </trkpt>
      <trkpt lat="54.09094" lon="15.05426">
        <ele>48.218839</ele>
        <time>2024-07-27T12:01:55.547Z</time>
      </trkpt>
      <trkpt lat="54.09098" lon="15.05447">
        <ele>48.342632</ele>
        <time>2024-07-27T12:01:58.555Z</time>
      </trkpt>
      <trkpt lat="54.091" lon="15.05462">
        <ele>48.429616</ele>
        <time>2024-07-27T12:02:00.550Z</time>
      </trkpt>
      <trkpt lat="54.09104" lon="15.05483">
        <ele>48.554219</ele>
        <time>2024-07-27T12:02:03.534Z</time>
      </trkpt>
      <trkpt lat="54.09108" lon="15.05502">
        <ele>48.67007</ele>
        <time>2024-07-27T12:02:06.546Z</time>
      </trkpt>
      <trkpt lat="54.09112" lon="15.05523">
        <ele>48.792984</ele>
        <time>2024-07-27T12:02:09.542Z</time>
      </trkpt>
      <trkpt lat="54.09117" lon="15.05543">
        <ele>48.915352</ele>
        <time>2024-07-27T12:02:12.554Z</time>
      </trkpt>
      <trkpt lat="54.09122" lon="15.05555">
        <ele>48.947218</ele>
        <time>2024-07-27T12:02:14.549Z</time>
      </trkpt>
      <trkpt lat="54.09127" lon="15.05568">
        <ele>48.963047</ele>
        <time>2024-07-27T12:02:16.541Z</time>
      </trkpt>
      <trkpt lat="54.09133" lon="15.05581">
        <ele>48.978961</ele>
        <time>2024-07-27T12:02:18.566Z</time>
      </trkpt>
      <trkpt lat="54.09141" lon="15.05598">
        <ele>49.002596</ele>
        <time>2024-07-27T12:02:21.555Z</time>
      </trkpt>
      <trkpt lat="54.09151" lon="15.05614">
        <ele>49.025562</ele>
        <time>2024-07-27T12:02:24.559Z</time>
      </trkpt>
      <trkpt lat="54.09158" lon="15.05633">
        <ele>49.048776</ele>
        <time>2024-07-27T12:02:27.559Z</time>
      </trkpt>
      <trkpt lat="54.09165" lon="15.05651">
        <ele>49.071202</ele>
        <time>2024-07-27T12:02:30.549Z</time>
      </trkpt>
      <trkpt lat="54.09173" lon="15.05668">
        <ele>49.093487</ele>
        <time>2024-07-27T12:02:33.552Z</time>
      </trkpt>
      <trkpt lat="54.09181" lon="15.05684">
        <ele>49.115846</ele>
        <time>2024-07-27T12:02:36.545Z</time>
      </trkpt>
      <trkpt lat="54.09189" lon="15.05701">
        <ele>49.138096</ele>
        <time>2024-07-27T12:02:39.553Z</time>
      </trkpt>
      <trkpt lat="54.09195" lon="15.05717">
        <ele>49.157739</ele>
        <time>2024-07-27T12:02:42.560Z</time>
      </trkpt>
      <trkpt lat="54.09191" lon="15.05736">
        <ele>49.178912</ele>
        <time>2024-07-27T12:02:45.531Z</time>
      </trkpt>
      <trkpt lat="54.09194" lon="15.05751">
        <ele>49.194933</ele>
        <time>2024-07-27T12:02:47.545Z</time>
      </trkpt>
      <trkpt lat="54.09198" lon="15.05766">
        <ele>49.212123</ele>
        <time>2024-07-27T12:02:49.557Z</time>
      </trkpt>
      <trkpt lat="54.092" lon="15.05782">
        <ele>49.228343</ele>
        <time>2024-07-27T12:02:51.558Z</time>
      </trkpt>
      <trkpt lat="54.09204" lon="15.05797">
        <ele>49.245217</ele>
        <time>2024-07-27T12:02:53.555Z</time>
      </trkpt>
      <trkpt lat="54.09208" lon="15.05812">
        <ele>49.353703</ele>
        <time>2024-07-27T12:02:55.560Z</time>
      </trkpt>
      <trkpt lat="54.09213" lon="15.05828">
        <ele>49.510342</ele>
        <time>2024-07-27T12:02:57.531Z</time>
      </trkpt>
      <trkpt lat="54.09218" lon="15.05844">
        <ele>49.667615</ele>
        <time>2024-07-27T12:02:59.561Z</time>
      </trkpt>
      <trkpt lat="54.09223" lon="15.05859">
        <ele>49.825645</ele>
        <time>2024-07-27T12:03:01.542Z</time>
      </trkpt>
      <trkpt lat="54.09229" lon="15.05874">
        <ele>49.979911</ele>
        <time>2024-07-27T12:03:03.566Z</time>
      </trkpt>
      <trkpt lat="54.09234" lon="15.05887">
        <ele>50.124686</ele>
        <time>2024-07-27T12:03:05.552Z</time>
      </trkpt>
      <trkpt lat="54.09239" lon="15.05901">
        <ele>50.263876</ele>
        <time>2024-07-27T12:03:07.547Z</time>
      </trkpt>
      <trkpt lat="54.09243" lon="15.05922">
        <ele>50.456915</ele>
        <time>2024-07-27T12:03:10.538Z</time>
      </trkpt>
      <trkpt lat="54.09248" lon="15.05942">
        <ele>50.649498</ele>
        <time>2024-07-27T12:03:13.549Z</time>
      </trkpt>
      <trkpt lat="54.09252" lon="15.05963">
        <ele>50.838945</ele>
        <time>2024-07-27T12:03:16.557Z</time>
      </trkpt>
      <trkpt lat="54.09254" lon="15.05983">
        <ele>51.019701</ele>
        <time>2024-07-27T12:03:19.550Z</time>
      </trkpt>
      <trkpt lat="54.09258" lon="15.06002">
        <ele>51.199299</ele>
        <time>2024-07-27T12:03:22.551Z</time>
      </trkpt>
      <trkpt lat="54.09262" lon="15.06022">
        <ele>51.379922</ele>
        <time>2024-07-27T12:03:25.567Z</time>
      </trkpt>
      <trkpt lat="54.09265" lon="15.06042">
        <ele>51.570574</ele>
        <time>2024-07-27T12:03:28.543Z</time>
      </trkpt>
      <trkpt lat="54.09271" lon="15.06062">
        <ele>51.764974</ele>
        <time>2024-07-27T12:03:31.546Z</time>
      </trkpt>
      <trkpt lat="54.09283" lon="15.06062">
        <ele>51.939232</ele>
        <time>2024-07-27T12:03:34.559Z</time>
      </trkpt>
      <trkpt lat="54.09292" lon="15.06076">
        <ele>52.095636</ele>
        <time>2024-07-27T12:03:37.548Z</time>
      </trkpt>
      <trkpt lat="54.09295" lon="15.0609">
        <ele>52.211701</ele>
        <time>2024-07-27T12:03:39.567Z</time>
      </trkpt>
      <trkpt lat="54.09299" lon="15.06105">
        <ele>52.336023</ele>
        <time>2024-07-27T12:03:41.548Z</time>
      </trkpt>
      <trkpt lat="54.09303" lon="15.0612">
        <ele>52.456034</ele>
        <time>2024-07-27T12:03:43.554Z</time>
      </trkpt>
      <trkpt lat="54.09306" lon="15.06135">
        <ele>52.576123</ele>
        <time>2024-07-27T12:03:45.548Z</time>
      </trkpt>
      <trkpt lat="54.0931" lon="15.0615">
        <ele>52.699174</ele>
        <time>2024-07-27T12:03:47.559Z</time>
      </trkpt>
      <trkpt lat="54.09312" lon="15.06166">
        <ele>52.820912</ele>
        <time>2024-07-27T12:03:49.558Z</time>
      </trkpt>
      <trkpt lat="54.09314" lon="15.06181">
        <ele>52.938169</ele>
        <time>2024-07-27T12:03:51.555Z</time>
      </trkpt>
      <trkpt lat="54.09316" lon="15.06198">
        <ele>53.064891</ele>
        <time>2024-07-27T12:03:53.552Z</time>
      </trkpt>
      <trkpt lat="54.09319" lon="15.06214">
        <ele>53.18882</ele>
        <time>2024-07-27T12:03:55.559Z</time>
      </trkpt>
      <trkpt lat="54.09322" lon="15.0623">
        <ele>53.316649</ele>
        <time>2024-07-27T12:03:57.553Z</time>
      </trkpt>
      <trkpt lat="54.09325" lon="15.06247">
        <ele>53.444143</ele>
        <time>2024-07-27T12:03:59.555Z</time>
      </trkpt>
      <trkpt lat="54.09327" lon="15.06263">
        <ele>53.572152</ele>
        <time>2024-07-27T12:04:01.561Z</time>
      </trkpt>
      <trkpt lat="54.09329" lon="15.0628">
        <ele>53.696165</ele>
        <time>2024-07-27T12:04:03.546Z</time>
      </trkpt>
      <trkpt lat="54.09331" lon="15.06296">
        <ele>53.820963</ele>
        <time>2024-07-27T12:04:05.552Z</time>
      </trkpt>
      <trkpt lat="54.09332" lon="15.06312">
        <ele>53.942081</ele>
        <time>2024-07-27T12:04:07.562Z</time>
      </trkpt>
      <trkpt lat="54.09333" lon="15.06328">
        <ele>54.061282</ele>
        <time>2024-07-27T12:04:09.544Z</time>
      </trkpt>
      <trkpt lat="54.09336" lon="15.06349">
        <ele>54.22417</ele>
        <time>2024-07-27T12:04:12.545Z</time>
      </trkpt>
      <trkpt lat="54.09339" lon="15.06371">
        <ele>54.31148</ele>
        <time>2024-07-27T12:04:15.528Z</time>
      </trkpt>
      <trkpt lat="54.09343" lon="15.06391">
        <ele>54.390249</ele>
        <time>2024-07-27T12:04:18.572Z</time>
      </trkpt>
      <trkpt lat="54.09347" lon="15.06412">
        <ele>54.469365</ele>
        <time>2024-07-27T12:04:21.551Z</time>
      </trkpt>
      <trkpt lat="54.09349" lon="15.06432">
        <ele>54.542158</ele>
        <time>2024-07-27T12:04:24.552Z</time>
      </trkpt>
      <trkpt lat="54.09352" lon="15.0645">
        <ele>54.61154</ele>
        <time>2024-07-27T12:04:27.555Z</time>
      </trkpt>
      <trkpt lat="54.09355" lon="15.06471">
        <ele>54.687961</ele>
        <time>2024-07-27T12:04:30.575Z</time>
      </trkpt>
      <trkpt lat="54.09359" lon="15.06492">
        <ele>54.768813</ele>
        <time>2024-07-27T12:04:33.552Z</time>
      </trkpt>
      <trkpt lat="54.09361" lon="15.06507">
        <ele>54.825325</ele>
        <time>2024-07-27T12:04:35.553Z</time>
      </trkpt>
      <trkpt lat="54.09364" lon="15.06527">
        <ele>54.90037</ele>
        <time>2024-07-27T12:04:38.563Z</time>
      </trkpt>
      <trkpt lat="54.09367" lon="15.06545">
        <ele>54.96766</ele>
        <time>2024-07-27T12:04:41.562Z</time>
      </trkpt>
      <trkpt lat="54.09369" lon="15.06563">
        <ele>55.035129</ele>
        <time>2024-07-27T12:04:44.539Z</time>
      </trkpt>
      <trkpt lat="54.09374" lon="15.0658">
        <ele>55.103382</ele>
        <time>2024-07-27T12:04:48.550Z</time>
      </trkpt>
      <trkpt lat="54.09368" lon="15.06594">
        <ele>55.161409</ele>
        <time>2024-07-27T12:04:52.541Z</time>
      </trkpt>
      <trkpt lat="54.09365" lon="15.0661">
        <ele>55.223163</ele>
        <time>2024-07-27T12:04:56.550Z</time>
      </trkpt>
      <trkpt lat="54.09366" lon="15.06627">
        <ele>55.285934</ele>
        <time>2024-07-27T12:04:59.572Z</time>
      </trkpt>
      <trkpt lat="54.09359" lon="15.06639">
        <ele>55.347895</ele>
        <time>2024-07-27T12:05:02.541Z</time>
      </trkpt>
      <trkpt lat="54.09347" lon="15.06642">
        <ele>54.728004</ele>
        <time>2024-07-27T12:05:05.550Z</time>
      </trkpt>
      <trkpt lat="54.09335" lon="15.06649">
        <ele>54.087928</ele>
        <time>2024-07-27T12:05:08.541Z</time>
      </trkpt>
      <trkpt lat="54.09323" lon="15.06657">
        <ele>53.428633</ele>
        <time>2024-07-27T12:05:11.549Z</time>
      </trkpt>
      <trkpt lat="54.09311" lon="15.06664">
        <ele>52.767093</ele>
        <time>2024-07-27T12:05:14.568Z</time>
      </trkpt>
      <trkpt lat="54.09303" lon="15.06674">
        <ele>52.286007</ele>
        <time>2024-07-27T12:05:17.546Z</time>
      </trkpt>
      <trkpt lat="54.09304" lon="15.06698">
        <ele>51.550012</ele>
        <time>2024-07-27T12:05:20.560Z</time>
      </trkpt>
      <trkpt lat="54.09303" lon="15.06715">
        <ele>51.042585</ele>
        <time>2024-07-27T12:05:22.541Z</time>
      </trkpt>
      <trkpt lat="54.09307" lon="15.06733">
        <ele>50.466386</ele>
        <time>2024-07-27T12:05:24.547Z</time>
      </trkpt>
      <trkpt lat="54.09312" lon="15.06753">
        <ele>49.800846</ele>
        <time>2024-07-27T12:05:26.541Z</time>
      </trkpt>
      <trkpt lat="54.09316" lon="15.06777">
        <ele>49.044888</ele>
        <time>2024-07-27T12:05:28.586Z</time>
      </trkpt>
      <trkpt lat="54.0932" lon="15.06803">
        <ele>48.229809</ele>
        <time>2024-07-27T12:05:30.551Z</time>
      </trkpt>
      <trkpt lat="54.09325" lon="15.06829">
        <ele>47.411637</ele>
        <time>2024-07-27T12:05:32.544Z</time>
      </trkpt>
      <trkpt lat="54.09331" lon="15.06856">
        <ele>46.552202</ele>
        <time>2024-07-27T12:05:34.547Z</time>
      </trkpt>
      <trkpt lat="54.09336" lon="15.06883">
        <ele>45.943518</ele>
        <time>2024-07-27T12:05:36.544Z</time>
      </trkpt>
      <trkpt lat="54.09341" lon="15.06909">
        <ele>45.647855</ele>
        <time>2024-07-27T12:05:38.549Z</time>
      </trkpt>
      <trkpt lat="54.09345" lon="15.06934">
        <ele>45.354827</ele>
        <time>2024-07-27T12:05:40.550Z</time>
      </trkpt>
      <trkpt lat="54.0935" lon="15.06959">
        <ele>45.0711</ele>
        <time>2024-07-27T12:05:42.564Z</time>
      </trkpt>
      <trkpt lat="54.09355" lon="15.06983">
        <ele>44.80206</ele>
        <time>2024-07-27T12:05:44.559Z</time>
      </trkpt>
      <trkpt lat="54.09359" lon="15.07004">
        <ele>44.553641</ele>
        <time>2024-07-27T12:05:46.547Z</time>
      </trkpt>
      <trkpt lat="54.09364" lon="15.07024">
        <ele>44.321905</ele>
        <time>2024-07-27T12:05:48.543Z</time>
      </trkpt>
      <trkpt lat="54.09367" lon="15.07042">
        <ele>44.111762</ele>
        <time>2024-07-27T12:05:50.557Z</time>
      </trkpt>
      <trkpt lat="54.0937" lon="15.07058">
        <ele>43.931974</ele>
        <time>2024-07-27T12:05:53.558Z</time>
      </trkpt>
      <trkpt lat="54.09373" lon="15.07074">
        <ele>43.746357</ele>
        <time>2024-07-27T12:05:56.543Z</time>
      </trkpt>
      <trkpt lat="54.09383" lon="15.0708">
        <ele>43.553132</ele>
        <time>2024-07-27T12:06:00.553Z</time>
      </trkpt>
      <trkpt lat="54.09389" lon="15.07096">
        <ele>43.348834</ele>
        <time>2024-07-27T12:06:04.548Z</time>
      </trkpt>
      <trkpt lat="54.09391" lon="15.07114">
        <ele>43.153153</ele>
        <time>2024-07-27T12:06:07.535Z</time>
      </trkpt>
      <trkpt lat="54.09395" lon="15.07132">
        <ele>42.939328</ele>
        <time>2024-07-27T12:06:10.566Z</time>
      </trkpt>
      <trkpt lat="54.09397" lon="15.0715">
        <ele>42.748559</ele>
        <time>2024-07-27T12:06:13.548Z</time>
      </trkpt>
      <trkpt lat="54.094" lon="15.07167">
        <ele>42.713946</ele>
        <time>2024-07-27T12:06:16.554Z</time>
      </trkpt>
      <trkpt lat="54.09404" lon="15.07182">
        <ele>42.680774</ele>
        <time>2024-07-27T12:06:19.555Z</time>
      </trkpt>
      <trkpt lat="54.09406" lon="15.07198">
        <ele>42.648999</ele>
        <time>2024-07-27T12:06:22.539Z</time>
      </trkpt>
      <trkpt lat="54.0941" lon="15.07216">
        <ele>42.612074</ele>
        <time>2024-07-27T12:06:25.547Z</time>
      </trkpt>
      <trkpt lat="54.09413" lon="15.07231">
        <ele>42.580107</ele>
        <time>2024-07-27T12:06:29.544Z</time>
      </trkpt>
      <trkpt lat="54.09417" lon="15.07247">
        <ele>42.546501</ele>
        <time>2024-07-27T12:06:34.545Z</time>
      </trkpt>
      <trkpt lat="54.0942" lon="15.07263">
        <ele>42.513025</ele>
        <time>2024-07-27T12:06:39.552Z</time>
      </trkpt>
      <trkpt lat="54.09423" lon="15.07283">
        <ele>42.472306</ele>
        <time>2024-07-27T12:06:43.559Z</time>
      </trkpt>
      <trkpt lat="54.09426" lon="15.07297">
        <ele>42.441771</ele>
        <time>2024-07-27T12:06:46.556Z</time>
      </trkpt>
      <trkpt lat="54.09429" lon="15.07314">
        <ele>42.407821</ele>
        <time>2024-07-27T12:06:50.540Z</time>
      </trkpt>
      <trkpt lat="54.09431" lon="15.07331">
        <ele>42.373444</ele>
        <time>2024-07-27T12:06:54.543Z</time>
      </trkpt>
      <trkpt lat="54.0943" lon="15.07348">
        <ele>42.339517</ele>
        <time>2024-07-27T12:07:03.548Z</time>
      </trkpt>
      <trkpt lat="54.09432" lon="15.07365">
        <ele>42.305974</ele>
        <time>2024-07-27T12:07:07.549Z</time>
      </trkpt>
      <trkpt lat="54.09437" lon="15.07383">
        <ele>42.266751</ele>
        <time>2024-07-27T12:07:10.554Z</time>
      </trkpt>
      <trkpt lat="54.0944" lon="15.07403">
        <ele>42.226181</ele>
        <time>2024-07-27T12:07:13.541Z</time>
      </trkpt>
      <trkpt lat="54.09445" lon="15.07424">
        <ele>42.182228</ele>
        <time>2024-07-27T12:07:16.557Z</time>
      </trkpt>
      <trkpt lat="54.09448" lon="15.07439">
        <ele>42.151138</ele>
        <time>2024-07-27T12:07:18.545Z</time>
      </trkpt>
      <trkpt lat="54.09452" lon="15.0746">
        <ele>42.091068</ele>
        <time>2024-07-27T12:07:21.546Z</time>
      </trkpt>
      <trkpt lat="54.09455" lon="15.0748">
        <ele>42.033417</ele>
        <time>2024-07-27T12:07:24.546Z</time>
      </trkpt>
      <trkpt lat="54.09458" lon="15.07495">
        <ele>41.990027</ele>
        <time>2024-07-27T12:07:26.541Z</time>
      </trkpt>
      <trkpt lat="54.09461" lon="15.07509">
        <ele>41.94694</ele>
        <time>2024-07-27T12:07:28.536Z</time>
      </trkpt>
      <trkpt lat="54.09464" lon="15.07531">
        <ele>41.884072</ele>
        <time>2024-07-27T12:07:31.552Z</time>
      </trkpt>
      <trkpt lat="54.09468" lon="15.07552">
        <ele>41.823195</ele>
        <time>2024-07-27T12:07:34.545Z</time>
      </trkpt>
      <trkpt lat="54.09473" lon="15.07573">
        <ele>41.759869</ele>
        <time>2024-07-27T12:07:37.544Z</time>
      </trkpt>
      <trkpt lat="54.09477" lon="15.07594">
        <ele>41.700543</ele>
        <time>2024-07-27T12:07:40.543Z</time>
      </trkpt>
      <trkpt lat="54.09481" lon="15.07614">
        <ele>41.640111</ele>
        <time>2024-07-27T12:07:43.556Z</time>
      </trkpt>
      <trkpt lat="54.09484" lon="15.07635">
        <ele>41.580185</ele>
        <time>2024-07-27T12:07:46.553Z</time>
      </trkpt>
      <trkpt lat="54.09485" lon="15.07657">
        <ele>41.517593</ele>
        <time>2024-07-27T12:07:49.531Z</time>
      </trkpt>
      <trkpt lat="54.09483" lon="15.0768">
        <ele>41.454153</ele>
        <time>2024-07-27T12:07:52.553Z</time>
      </trkpt>
      <trkpt lat="54.09481" lon="15.07695">
        <ele>41.408611</ele>
        <time>2024-07-27T12:07:54.544Z</time>
      </trkpt>
      <trkpt lat="54.09479" lon="15.07711">
        <ele>41.363194</ele>
        <time>2024-07-27T12:07:56.547Z</time>
      </trkpt>
      <trkpt lat="54.09477" lon="15.07728">
        <ele>41.315027</ele>
        <time>2024-07-27T12:07:58.537Z</time>
      </trkpt>
      <trkpt lat="54.09474" lon="15.07745">
        <ele>41.253607</ele>
        <time>2024-07-27T12:08:00.560Z</time>
      </trkpt>
      <trkpt lat="54.09472" lon="15.07761">
        <ele>41.178428</ele>
        <time>2024-07-27T12:08:02.546Z</time>
      </trkpt>
      <trkpt lat="54.0947" lon="15.07777">
        <ele>41.101746</ele>
        <time>2024-07-27T12:08:04.549Z</time>
      </trkpt>
      <trkpt lat="54.09468" lon="15.07792">
        <ele>41.02952</ele>
        <time>2024-07-27T12:08:06.539Z</time>
      </trkpt>
      <trkpt lat="54.09465" lon="15.07815">
        <ele>40.924313</ele>
        <time>2024-07-27T12:08:09.545Z</time>
      </trkpt>
      <trkpt lat="54.09463" lon="15.07831">
        <ele>40.849503</ele>
        <time>2024-07-27T12:08:11.554Z</time>
      </trkpt>
      <trkpt lat="54.09461" lon="15.07846">
        <ele>40.77735</ele>
        <time>2024-07-27T12:08:13.543Z</time>
      </trkpt>
      <trkpt lat="54.09458" lon="15.07862">
        <ele>40.70456</ele>
        <time>2024-07-27T12:08:15.553Z</time>
      </trkpt>
      <trkpt lat="54.09456" lon="15.0788">
        <ele>40.619377</ele>
        <time>2024-07-27T12:08:18.557Z</time>
      </trkpt>
      <trkpt lat="54.09454" lon="15.07896">
        <ele>40.542412</ele>
        <time>2024-07-27T12:08:21.551Z</time>
      </trkpt>
      <trkpt lat="54.09451" lon="15.07914">
        <ele>40.459502</ele>
        <time>2024-07-27T12:08:24.551Z</time>
      </trkpt>
      <trkpt lat="54.0945" lon="15.07934">
        <ele>40.366732</ele>
        <time>2024-07-27T12:08:27.543Z</time>
      </trkpt>
      <trkpt lat="54.0945" lon="15.07954">
        <ele>40.274442</ele>
        <time>2024-07-27T12:08:30.550Z</time>
      </trkpt>
      <trkpt lat="54.09452" lon="15.07973">
        <ele>40.187424</ele>
        <time>2024-07-27T12:08:33.558Z</time>
      </trkpt>
      <trkpt lat="54.0945" lon="15.07991">
        <ele>40.104576</ele>
        <time>2024-07-27T12:08:36.564Z</time>
      </trkpt>
      <trkpt lat="54.09441" lon="15.08006">
        <ele>40.007101</ele>
        <time>2024-07-27T12:08:39.566Z</time>
      </trkpt>
      <trkpt lat="54.09438" lon="15.08027">
        <ele>39.909948</ele>
        <time>2024-07-27T12:08:42.542Z</time>
      </trkpt>
      <trkpt lat="54.09437" lon="15.08046">
        <ele>39.85015</ele>
        <time>2024-07-27T12:08:45.549Z</time>
      </trkpt>
      <trkpt lat="54.09429" lon="15.08062">
        <ele>39.794165</ele>
        <time>2024-07-27T12:08:49.549Z</time>
      </trkpt>
      <trkpt lat="54.09427" lon="15.08083">
        <ele>39.737568</ele>
        <time>2024-07-27T12:08:52.552Z</time>
      </trkpt>
      <trkpt lat="54.09425" lon="15.08106">
        <ele>39.675877</ele>
        <time>2024-07-27T12:08:55.553Z</time>
      </trkpt>
      <trkpt lat="54.09423" lon="15.08121">
        <ele>39.633955</ele>
        <time>2024-07-27T12:08:57.554Z</time>
      </trkpt>
      <trkpt lat="54.0942" lon="15.08136">
        <ele>39.591564</ele>
        <time>2024-07-27T12:08:59.564Z</time>
      </trkpt>
      <trkpt lat="54.09417" lon="15.08153">
        <ele>39.544829</ele>
        <time>2024-07-27T12:09:01.534Z</time>
      </trkpt>
      <trkpt lat="54.09414" lon="15.08169">
        <ele>39.499472</ele>
        <time>2024-07-27T12:09:03.568Z</time>
      </trkpt>
      <trkpt lat="54.09411" lon="15.08186">
        <ele>39.452349</ele>
        <time>2024-07-27T12:09:05.554Z</time>
      </trkpt>
      <trkpt lat="54.09407" lon="15.08202">
        <ele>39.407214</ele>
        <time>2024-07-27T12:09:07.546Z</time>
      </trkpt>
      <trkpt lat="54.09404" lon="15.08219">
        <ele>39.360224</ele>
        <time>2024-07-27T12:09:09.531Z</time>
      </trkpt>
      <trkpt lat="54.09401" lon="15.08236">
        <ele>39.313609</ele>
        <time>2024-07-27T12:09:11.548Z</time>
      </trkpt>
      <trkpt lat="54.09398" lon="15.08252">
        <ele>39.267501</ele>
        <time>2024-07-27T12:09:13.556Z</time>
      </trkpt>
      <trkpt lat="54.09395" lon="15.08269">
        <ele>39.221534</ele>
        <time>2024-07-27T12:09:15.543Z</time>
      </trkpt>
      <trkpt lat="54.09392" lon="15.08285">
        <ele>39.175185</ele>
        <time>2024-07-27T12:09:17.543Z</time>
      </trkpt>
      <trkpt lat="54.0939" lon="15.08302">
        <ele>39.129833</ele>
        <time>2024-07-27T12:09:19.551Z</time>
      </trkpt>
      <trkpt lat="54.09387" lon="15.08318">
        <ele>39.085266</ele>
        <time>2024-07-27T12:09:21.547Z</time>
      </trkpt>
      <trkpt lat="54.09384" lon="15.08333">
        <ele>39.013019</ele>
        <time>2024-07-27T12:09:23.559Z</time>
      </trkpt>
      <trkpt lat="54.09382" lon="15.08348">
        <ele>38.931482</ele>
        <time>2024-07-27T12:09:25.548Z</time>
      </trkpt>
      <trkpt lat="54.09378" lon="15.0837">
        <ele>38.809777</ele>
        <time>2024-07-27T12:09:28.558Z</time>
      </trkpt>
      <trkpt lat="54.09377" lon="15.08386">
        <ele>38.726452</ele>
        <time>2024-07-27T12:09:30.553Z</time>
      </trkpt>
      <trkpt lat="54.09375" lon="15.08401">
        <ele>38.643751</ele>
        <time>2024-07-27T12:09:32.541Z</time>
      </trkpt>
      <trkpt lat="54.09374" lon="15.08418">
        <ele>38.557003</ele>
        <time>2024-07-27T12:09:34.541Z</time>
      </trkpt>
      <trkpt lat="54.09373" lon="15.08433">
        <ele>38.474146</ele>
        <time>2024-07-27T12:09:36.530Z</time>
      </trkpt>
      <trkpt lat="54.09372" lon="15.08449">
        <ele>38.392008</ele>
        <time>2024-07-27T12:09:38.557Z</time>
      </trkpt>
      <trkpt lat="54.09371" lon="15.08464">
        <ele>38.308821</ele>
        <time>2024-07-27T12:09:40.540Z</time>
      </trkpt>
      <trkpt lat="54.0937" lon="15.08481">
        <ele>38.220005</ele>
        <time>2024-07-27T12:09:42.550Z</time>
      </trkpt>
      <trkpt lat="54.0937" lon="15.08497">
        <ele>38.13608</ele>
        <time>2024-07-27T12:09:44.539Z</time>
      </trkpt>
      <trkpt lat="54.09369" lon="15.08514">
        <ele>38.04627</ele>
        <time>2024-07-27T12:09:46.557Z</time>
      </trkpt>
      <trkpt lat="54.09369" lon="15.08531">
        <ele>37.958713</ele>
        <time>2024-07-27T12:09:48.536Z</time>
      </trkpt>
      <trkpt lat="54.09369" lon="15.08547">
        <ele>37.872738</ele>
        <time>2024-07-27T12:09:50.554Z</time>
      </trkpt>
      <trkpt lat="54.09369" lon="15.08562">
        <ele>37.79181</ele>
        <time>2024-07-27T12:09:52.543Z</time>
      </trkpt>
      <trkpt lat="54.09368" lon="15.08578">
        <ele>37.709672</ele>
        <time>2024-07-27T12:09:54.548Z</time>
      </trkpt>
      <trkpt lat="54.09368" lon="15.08594">
        <ele>37.622134</ele>
        <time>2024-07-27T12:09:56.552Z</time>
      </trkpt>
      <trkpt lat="54.09367" lon="15.08612">
        <ele>37.529165</ele>
        <time>2024-07-27T12:09:59.547Z</time>
      </trkpt>
      <trkpt lat="54.09367" lon="15.0863">
        <ele>37.454482</ele>
        <time>2024-07-27T12:10:02.539Z</time>
      </trkpt>
      <trkpt lat="54.09366" lon="15.08651">
        <ele>37.449485</ele>
        <time>2024-07-27T12:10:05.526Z</time>
      </trkpt>
      <trkpt lat="54.09366" lon="15.08672">
        <ele>37.44435</ele>
        <time>2024-07-27T12:10:08.536Z</time>
      </trkpt>
      <trkpt lat="54.09366" lon="15.08692">
        <ele>37.43972</ele>
        <time>2024-07-27T12:10:11.548Z</time>
      </trkpt>
      <trkpt lat="54.0937" lon="15.08708">
        <ele>37.435491</ele>
        <time>2024-07-27T12:10:14.541Z</time>
      </trkpt>
      <trkpt lat="54.09371" lon="15.08724">
        <ele>37.431822</ele>
        <time>2024-07-27T12:10:16.539Z</time>
      </trkpt>
      <trkpt lat="54.0937" lon="15.08745">
        <ele>37.426787</ele>
        <time>2024-07-27T12:10:19.537Z</time>
      </trkpt>
      <trkpt lat="54.09369" lon="15.08761">
        <ele>37.422927</ele>
        <time>2024-07-27T12:10:21.556Z</time>
      </trkpt>
      <trkpt lat="54.09367" lon="15.08776">
        <ele>37.419234</ele>
        <time>2024-07-27T12:10:23.549Z</time>
      </trkpt>
      <trkpt lat="54.09365" lon="15.08793">
        <ele>37.414964</ele>
        <time>2024-07-27T12:10:26.545Z</time>
      </trkpt>
      <trkpt lat="54.0936" lon="15.08809">
        <ele>37.410837</ele>
        <time>2024-07-27T12:10:29.543Z</time>
      </trkpt>
      <trkpt lat="54.09357" lon="15.08828">
        <ele>37.406166</ele>
        <time>2024-07-27T12:10:32.542Z</time>
      </trkpt>
      <trkpt lat="54.09357" lon="15.08846">
        <ele>37.401862</ele>
        <time>2024-07-27T12:10:34.536Z</time>
      </trkpt>
      <trkpt lat="54.09358" lon="15.08865">
        <ele>37.397177</ele>
        <time>2024-07-27T12:10:36.548Z</time>
      </trkpt>
      <trkpt lat="54.09358" lon="15.08884">
        <ele>37.392687</ele>
        <time>2024-07-27T12:10:38.545Z</time>
      </trkpt>
      <trkpt lat="54.09358" lon="15.08902">
        <ele>37.388345</ele>
        <time>2024-07-27T12:10:40.546Z</time>
      </trkpt>
      <trkpt lat="54.09357" lon="15.0892">
        <ele>37.383996</ele>
        <time>2024-07-27T12:10:42.554Z</time>
      </trkpt>
      <trkpt lat="54.09356" lon="15.08939">
        <ele>37.439875</ele>
        <time>2024-07-27T12:10:44.549Z</time>
      </trkpt>
      <trkpt lat="54.09355" lon="15.08958">
        <ele>37.53331</ele>
        <time>2024-07-27T12:10:46.547Z</time>
      </trkpt>
      <trkpt lat="54.09354" lon="15.08976">
        <ele>37.623197</ele>
        <time>2024-07-27T12:10:48.588Z</time>
      </trkpt>
      <trkpt lat="54.09354" lon="15.08994">
        <ele>37.715585</ele>
        <time>2024-07-27T12:10:50.559Z</time>
      </trkpt>
      <trkpt lat="54.09353" lon="15.09013">
        <ele>37.807612</ele>
        <time>2024-07-27T12:10:52.544Z</time>
      </trkpt>
      <trkpt lat="54.09353" lon="15.0903">
        <ele>37.891761</ele>
        <time>2024-07-27T12:10:54.555Z</time>
      </trkpt>
      <trkpt lat="54.09352" lon="15.09045">
        <ele>37.969471</ele>
        <time>2024-07-27T12:10:56.553Z</time>
      </trkpt>
      <trkpt lat="54.09352" lon="15.09063">
        <ele>38.054905</ele>
        <time>2024-07-27T12:10:58.579Z</time>
      </trkpt>
      <trkpt lat="54.09353" lon="15.0908">
        <ele>38.142884</ele>
        <time>2024-07-27T12:11:00.550Z</time>
      </trkpt>
      <trkpt lat="54.09356" lon="15.09097">
        <ele>38.230325</ele>
        <time>2024-07-27T12:11:02.542Z</time>
      </trkpt>
      <trkpt lat="54.09358" lon="15.09116">
        <ele>38.328159</ele>
        <time>2024-07-27T12:11:04.550Z</time>
      </trkpt>
      <trkpt lat="54.09358" lon="15.09135">
        <ele>38.419691</ele>
        <time>2024-07-27T12:11:06.542Z</time>
      </trkpt>
      <trkpt lat="54.09358" lon="15.09152">
        <ele>38.504729</ele>
        <time>2024-07-27T12:11:08.530Z</time>
      </trkpt>
      <trkpt lat="54.09357" lon="15.09169">
        <ele>38.588383</ele>
        <time>2024-07-27T12:11:10.547Z</time>
      </trkpt>
      <trkpt lat="54.09358" lon="15.09187">
        <ele>38.678383</ele>
        <time>2024-07-27T12:11:12.558Z</time>
      </trkpt>
      <trkpt lat="54.09359" lon="15.09207">
        <ele>38.777835</ele>
        <time>2024-07-27T12:11:14.548Z</time>
      </trkpt>
      <trkpt lat="54.09361" lon="15.09224">
        <ele>38.865758</ele>
        <time>2024-07-27T12:11:16.544Z</time>
      </trkpt>
      <trkpt lat="54.09363" lon="15.09241">
        <ele>38.909433</ele>
        <time>2024-07-27T12:11:18.551Z</time>
      </trkpt>
      <trkpt lat="54.09363" lon="15.09257">
        <ele>38.915769</ele>
        <time>2024-07-27T12:11:20.555Z</time>
      </trkpt>
      <trkpt lat="54.09363" lon="15.09275">
        <ele>38.923037</ele>
        <time>2024-07-27T12:11:22.549Z</time>
      </trkpt>
      <trkpt lat="54.09362" lon="15.09292">
        <ele>38.930099</ele>
        <time>2024-07-27T12:11:24.559Z</time>
      </trkpt>
      <trkpt lat="54.09363" lon="15.09309">
        <ele>38.93696</ele>
        <time>2024-07-27T12:11:26.559Z</time>
      </trkpt>
      <trkpt lat="54.09363" lon="15.09325">
        <ele>38.943176</ele>
        <time>2024-07-27T12:11:28.546Z</time>
      </trkpt>
      <trkpt lat="54.09364" lon="15.09341">
        <ele>38.949754</ele>
        <time>2024-07-27T12:11:30.544Z</time>
      </trkpt>
      <trkpt lat="54.09365" lon="15.09358">
        <ele>38.956696</ele>
        <time>2024-07-27T12:11:32.551Z</time>
      </trkpt>
      <trkpt lat="54.09367" lon="15.09375">
        <ele>38.963414</ele>
        <time>2024-07-27T12:11:34.546Z</time>
      </trkpt>
      <trkpt lat="54.09368" lon="15.09392">
        <ele>38.970621</ele>
        <time>2024-07-27T12:11:36.548Z</time>
      </trkpt>
      <trkpt lat="54.09369" lon="15.0941">
        <ele>38.977899</ele>
        <time>2024-07-27T12:11:38.550Z</time>
      </trkpt>
      <trkpt lat="54.09369" lon="15.09428">
        <ele>38.985165</ele>
        <time>2024-07-27T12:11:40.544Z</time>
      </trkpt>
      <trkpt lat="54.0937" lon="15.09445">
        <ele>38.9921</ele>
        <time>2024-07-27T12:11:42.548Z</time>
      </trkpt>
      <trkpt lat="54.09372" lon="15.09463">
        <ele>38.999349</ele>
        <time>2024-07-27T12:11:44.555Z</time>
      </trkpt>
      <trkpt lat="54.09373" lon="15.09479">
        <ele>39.005987</ele>
        <time>2024-07-27T12:11:46.534Z</time>
      </trkpt>
      <trkpt lat="54.09373" lon="15.09495">
        <ele>39.012201</ele>
        <time>2024-07-27T12:11:48.550Z</time>
      </trkpt>
      <trkpt lat="54.09373" lon="15.09514">
        <ele>39.019991</ele>
        <time>2024-07-27T12:11:51.539Z</time>
      </trkpt>
      <trkpt lat="54.09373" lon="15.09534">
        <ele>39.028185</ele>
        <time>2024-07-27T12:11:54.545Z</time>
      </trkpt>
      <trkpt lat="54.09374" lon="15.09553">
        <ele>39.187853</ele>
        <time>2024-07-27T12:11:57.552Z</time>
      </trkpt>
      <trkpt lat="54.09377" lon="15.0957">
        <ele>39.376361</ele>
        <time>2024-07-27T12:12:00.543Z</time>
      </trkpt>
      <trkpt lat="54.09382" lon="15.09589">
        <ele>39.584114</ele>
        <time>2024-07-27T12:12:03.548Z</time>
      </trkpt>
      <trkpt lat="54.09383" lon="15.09608">
        <ele>39.779632</ele>
        <time>2024-07-27T12:12:05.549Z</time>
      </trkpt>
      <trkpt lat="54.09383" lon="15.09627">
        <ele>39.971191</ele>
        <time>2024-07-27T12:12:08.546Z</time>
      </trkpt>
      <trkpt lat="54.09385" lon="15.09643">
        <ele>40.136634</ele>
        <time>2024-07-27T12:12:11.539Z</time>
      </trkpt>
      <trkpt lat="54.09386" lon="15.09661">
        <ele>40.329925</ele>
        <time>2024-07-27T12:12:15.545Z</time>
      </trkpt>
      <trkpt lat="54.09386" lon="15.09677">
        <ele>40.489542</ele>
        <time>2024-07-27T12:12:18.565Z</time>
      </trkpt>
      <trkpt lat="54.09386" lon="15.09694">
        <ele>40.663225</ele>
        <time>2024-07-27T12:12:21.550Z</time>
      </trkpt>
      <trkpt lat="54.09385" lon="15.09712">
        <ele>40.845614</ele>
        <time>2024-07-27T12:12:24.543Z</time>
      </trkpt>
      <trkpt lat="54.09386" lon="15.0973">
        <ele>41.032542</ele>
        <time>2024-07-27T12:12:27.533Z</time>
      </trkpt>
      <trkpt lat="54.09387" lon="15.09749">
        <ele>41.227874</ele>
        <time>2024-07-27T12:12:30.563Z</time>
      </trkpt>
      <trkpt lat="54.09388" lon="15.09768">
        <ele>41.424412</ele>
        <time>2024-07-27T12:12:33.548Z</time>
      </trkpt>
      <trkpt lat="54.09389" lon="15.09787">
        <ele>41.617745</ele>
        <time>2024-07-27T12:12:36.546Z</time>
      </trkpt>
      <trkpt lat="54.09391" lon="15.09805">
        <ele>41.798695</ele>
        <time>2024-07-27T12:12:39.555Z</time>
      </trkpt>
      <trkpt lat="54.09392" lon="15.09823">
        <ele>41.988855</ele>
        <time>2024-07-27T12:12:42.551Z</time>
      </trkpt>
      <trkpt lat="54.09392" lon="15.09839">
        <ele>42.150428</ele>
        <time>2024-07-27T12:12:45.542Z</time>
      </trkpt>
      <trkpt lat="54.0939" lon="15.09854">
        <ele>42.033832</ele>
        <time>2024-07-27T12:12:48.539Z</time>
      </trkpt>
      <trkpt lat="54.0939" lon="15.0987">
        <ele>41.887388</ele>
        <time>2024-07-27T12:12:51.549Z</time>
      </trkpt>
      <trkpt lat="54.09391" lon="15.09887">
        <ele>41.736023</ele>
        <time>2024-07-27T12:12:54.543Z</time>
      </trkpt>
      <trkpt lat="54.09392" lon="15.09903">
        <ele>41.588281</ele>
        <time>2024-07-27T12:12:57.535Z</time>
      </trkpt>
      <trkpt lat="54.09392" lon="15.09919">
        <ele>41.442746</ele>
        <time>2024-07-27T12:13:00.562Z</time>
      </trkpt>
      <trkpt lat="54.09393" lon="15.09935">
        <ele>41.298626</ele>
        <time>2024-07-27T12:13:03.540Z</time>
      </trkpt>
      <trkpt lat="54.09394" lon="15.0995">
        <ele>41.154706</ele>
        <time>2024-07-27T12:13:06.554Z</time>
      </trkpt>
      <trkpt lat="54.09396" lon="15.0997">
        <ele>40.975963</ele>
        <time>2024-07-27T12:13:10.553Z</time>
      </trkpt>
      <trkpt lat="54.09396" lon="15.09991">
        <ele>40.786004</ele>
        <time>2024-07-27T12:13:14.556Z</time>
      </trkpt>
      <trkpt lat="54.09397" lon="15.10008">
        <ele>40.626781</ele>
        <time>2024-07-27T12:13:17.538Z</time>
      </trkpt>
      <trkpt lat="54.09397" lon="15.10026">
        <ele>40.463195</ele>
        <time>2024-07-27T12:13:20.544Z</time>
      </trkpt>
      <trkpt lat="54.09399" lon="15.10044">
        <ele>40.300276</ele>
        <time>2024-07-27T12:13:23.544Z</time>
      </trkpt>
      <trkpt lat="54.09402" lon="15.10063">
        <ele>40.119962</ele>
        <time>2024-07-27T12:13:26.554Z</time>
      </trkpt>
      <trkpt lat="54.09402" lon="15.10086">
        <ele>39.914434</ele>
        <time>2024-07-27T12:13:29.551Z</time>
      </trkpt>
      <trkpt lat="54.09404" lon="15.10103">
        <ele>39.759327</ele>
        <time>2024-07-27T12:13:31.551Z</time>
      </trkpt>
      <trkpt lat="54.09405" lon="15.10122">
        <ele>39.583252</ele>
        <time>2024-07-27T12:13:33.547Z</time>
      </trkpt>
      <trkpt lat="54.09406" lon="15.10138">
        <ele>39.431436</ele>
        <time>2024-07-27T12:13:35.550Z</time>
      </trkpt>
      <trkpt lat="54.09406" lon="15.10154">
        <ele>39.357514</ele>
        <time>2024-07-27T12:13:37.554Z</time>
      </trkpt>
      <trkpt lat="54.09406" lon="15.10174">
        <ele>39.320308</ele>
        <time>2024-07-27T12:13:40.556Z</time>
      </trkpt>
      <trkpt lat="54.09408" lon="15.10192">
        <ele>39.286401</ele>
        <time>2024-07-27T12:13:43.543Z</time>
      </trkpt>
      <trkpt lat="54.0941" lon="15.10208">
        <ele>39.255094</ele>
        <time>2024-07-27T12:13:46.543Z</time>
      </trkpt>
      <trkpt lat="54.09411" lon="15.10227">
        <ele>39.218387</ele>
        <time>2024-07-27T12:13:50.544Z</time>
      </trkpt>
      <trkpt lat="54.09411" lon="15.10245">
        <ele>39.185732</ele>
        <time>2024-07-27T12:13:54.534Z</time>
      </trkpt>
      <trkpt lat="54.09411" lon="15.10262">
        <ele>39.151932</ele>
        <time>2024-07-27T12:13:58.536Z</time>
      </trkpt>
      <trkpt lat="54.09413" lon="15.10281">
        <ele>39.115553</ele>
        <time>2024-07-27T12:14:02.536Z</time>
      </trkpt>
      <trkpt lat="54.09413" lon="15.10301">
        <ele>39.078734</ele>
        <time>2024-07-27T12:14:05.553Z</time>
      </trkpt>
      <trkpt lat="54.09415" lon="15.1032">
        <ele>39.042816</ele>
        <time>2024-07-27T12:14:08.536Z</time>
      </trkpt>
      <trkpt lat="54.09416" lon="15.1034">
        <ele>39.004791</ele>
        <time>2024-07-27T12:14:11.553Z</time>
      </trkpt>
      <trkpt lat="54.09417" lon="15.1036">
        <ele>38.965853</ele>
        <time>2024-07-27T12:14:14.551Z</time>
      </trkpt>
      <trkpt lat="54.09419" lon="15.10379">
        <ele>38.930695</ele>
        <time>2024-07-27T12:14:17.559Z</time>
      </trkpt>
      <trkpt lat="54.09421" lon="15.10399">
        <ele>38.892028</ele>
        <time>2024-07-27T12:14:20.553Z</time>
      </trkpt>
      <trkpt lat="54.09422" lon="15.10415">
        <ele>38.861396</ele>
        <time>2024-07-27T12:14:22.563Z</time>
      </trkpt>
      <trkpt lat="54.09424" lon="15.10431">
        <ele>38.831608</ele>
        <time>2024-07-27T12:14:24.551Z</time>
      </trkpt>
      <trkpt lat="54.09426" lon="15.10445">
        <ele>38.802625</ele>
        <time>2024-07-27T12:14:26.553Z</time>
      </trkpt>
      <trkpt lat="54.09429" lon="15.10461">
        <ele>38.85661</ele>
        <time>2024-07-27T12:14:28.550Z</time>
      </trkpt>
      <trkpt lat="54.09431" lon="15.10476">
        <ele>38.928972</ele>
        <time>2024-07-27T12:14:30.556Z</time>
      </trkpt>
      <trkpt lat="54.09432" lon="15.10493">
        <ele>39.005245</ele>
        <time>2024-07-27T12:14:32.556Z</time>
      </trkpt>
      <trkpt lat="54.09434" lon="15.10509">
        <ele>39.079461</ele>
        <time>2024-07-27T12:14:34.557Z</time>
      </trkpt>
      <trkpt lat="54.09436" lon="15.10524">
        <ele>39.153702</ele>
        <time>2024-07-27T12:14:36.550Z</time>
      </trkpt>
      <trkpt lat="54.09439" lon="15.1054">
        <ele>39.22878</ele>
        <time>2024-07-27T12:14:38.559Z</time>
      </trkpt>
      <trkpt lat="54.09441" lon="15.10563">
        <ele>39.335132</ele>
        <time>2024-07-27T12:14:41.548Z</time>
      </trkpt>
      <trkpt lat="54.09442" lon="15.10579">
        <ele>39.409133</ele>
        <time>2024-07-27T12:14:43.549Z</time>
      </trkpt>
      <trkpt lat="54.09445" lon="15.10602">
        <ele>39.515692</ele>
        <time>2024-07-27T12:14:46.555Z</time>
      </trkpt>
      <trkpt lat="54.09446" lon="15.10618">
        <ele>39.59184</ele>
        <time>2024-07-27T12:14:48.543Z</time>
      </trkpt>
      <trkpt lat="54.09446" lon="15.10634">
        <ele>39.663447</ele>
        <time>2024-07-27T12:14:50.566Z</time>
      </trkpt>
      <trkpt lat="54.09446" lon="15.1065">
        <ele>39.739402</ele>
        <time>2024-07-27T12:14:52.549Z</time>
      </trkpt>
      <trkpt lat="54.09445" lon="15.10666">
        <ele>39.810485</ele>
        <time>2024-07-27T12:14:54.561Z</time>
      </trkpt>
      <trkpt lat="54.09443" lon="15.10681">
        <ele>39.882569</ele>
        <time>2024-07-27T12:14:56.548Z</time>
      </trkpt>
      <trkpt lat="54.09443" lon="15.10698">
        <ele>39.957348</ele>
        <time>2024-07-27T12:14:58.545Z</time>
      </trkpt>
      <trkpt lat="54.09444" lon="15.10714">
        <ele>40.031706</ele>
        <time>2024-07-27T12:15:00.552Z</time>
      </trkpt>
      <trkpt lat="54.09443" lon="15.1073">
        <ele>40.105214</ele>
        <time>2024-07-27T12:15:02.558Z</time>
      </trkpt>
      <trkpt lat="54.09443" lon="15.10746">
        <ele>40.179638</ele>
        <time>2024-07-27T12:15:04.555Z</time>
      </trkpt>
      <trkpt lat="54.09442" lon="15.1077">
        <ele>40.244015</ele>
        <time>2024-07-27T12:15:07.547Z</time>
      </trkpt>
      <trkpt lat="54.09443" lon="15.10785">
        <ele>40.278294</ele>
        <time>2024-07-27T12:15:09.556Z</time>
      </trkpt>
      <trkpt lat="54.09443" lon="15.10801">
        <ele>40.313228</ele>
        <time>2024-07-27T12:15:11.562Z</time>
      </trkpt>
      <trkpt lat="54.09442" lon="15.10817">
        <ele>40.346868</ele>
        <time>2024-07-27T12:15:13.552Z</time>
      </trkpt>
      <trkpt lat="54.09442" lon="15.10833">
        <ele>40.382254</ele>
        <time>2024-07-27T12:15:15.547Z</time>
      </trkpt>
      <trkpt lat="54.09442" lon="15.10849">
        <ele>40.416312</ele>
        <time>2024-07-27T12:15:17.521Z</time>
      </trkpt>
      <trkpt lat="54.09442" lon="15.10864">
        <ele>40.450379</ele>
        <time>2024-07-27T12:15:19.542Z</time>
      </trkpt>
      <trkpt lat="54.09442" lon="15.1088">
        <ele>40.485312</ele>
        <time>2024-07-27T12:15:21.550Z</time>
      </trkpt>
      <trkpt lat="54.09443" lon="15.10896">
        <ele>40.519616</ele>
        <time>2024-07-27T12:15:23.549Z</time>
      </trkpt>
      <trkpt lat="54.09443" lon="15.10911">
        <ele>40.553464</ele>
        <time>2024-07-27T12:15:25.554Z</time>
      </trkpt>
      <trkpt lat="54.09442" lon="15.10927">
        <ele>40.588351</ele>
        <time>2024-07-27T12:15:27.546Z</time>
      </trkpt>
      <trkpt lat="54.09441" lon="15.10944">
        <ele>40.625347</ele>
        <time>2024-07-27T12:15:29.537Z</time>
      </trkpt>
      <trkpt lat="54.09441" lon="15.10967">
        <ele>40.675998</ele>
        <time>2024-07-27T12:15:32.552Z</time>
      </trkpt>
      <trkpt lat="54.0944" lon="15.10983">
        <ele>40.711155</ele>
        <time>2024-07-27T12:15:34.546Z</time>
      </trkpt>
      <trkpt lat="54.0944" lon="15.10999">
        <ele>40.74481</ele>
        <time>2024-07-27T12:15:36.546Z</time>
      </trkpt>
      <trkpt lat="54.0944" lon="15.11021">
        <ele>40.794392</ele>
        <time>2024-07-27T12:15:39.555Z</time>
      </trkpt>
      <trkpt lat="54.09441" lon="15.11038">
        <ele>40.830664</ele>
        <time>2024-07-27T12:15:41.555Z</time>
      </trkpt>
      <trkpt lat="54.09441" lon="15.11061">
        <ele>40.907485</ele>
        <time>2024-07-27T12:15:44.530Z</time>
      </trkpt>
      <trkpt lat="54.0944" lon="15.11084">
        <ele>41.153511</ele>
        <time>2024-07-27T12:15:47.527Z</time>
      </trkpt>
      <trkpt lat="54.0944" lon="15.11101">
        <ele>41.325337</ele>
        <time>2024-07-27T12:15:49.544Z</time>
      </trkpt>
      <trkpt lat="54.0944" lon="15.11119">
        <ele>41.514818</ele>
        <time>2024-07-27T12:15:51.554Z</time>
      </trkpt>
      <trkpt lat="54.0944" lon="15.11135">
        <ele>41.688625</ele>
        <time>2024-07-27T12:15:53.543Z</time>
      </trkpt>
      <trkpt lat="54.0944" lon="15.11152">
        <ele>41.866664</ele>
        <time>2024-07-27T12:15:55.573Z</time>
      </trkpt>
      <trkpt lat="54.09439" lon="15.11169">
        <ele>42.043899</ele>
        <time>2024-07-27T12:15:57.549Z</time>
      </trkpt>
      <trkpt lat="54.09439" lon="15.11186">
        <ele>42.218862</ele>
        <time>2024-07-27T12:15:59.554Z</time>
      </trkpt>
      <trkpt lat="54.0944" lon="15.11202">
        <ele>42.386817</ele>
        <time>2024-07-27T12:16:01.558Z</time>
      </trkpt>
      <trkpt lat="54.0944" lon="15.11218">
        <ele>42.551176</ele>
        <time>2024-07-27T12:16:03.558Z</time>
      </trkpt>
      <trkpt lat="54.09439" lon="15.11234">
        <ele>42.720844</ele>
        <time>2024-07-27T12:16:05.544Z</time>
      </trkpt>
      <trkpt lat="54.09439" lon="15.11255">
        <ele>42.945316</ele>
        <time>2024-07-27T12:16:08.527Z</time>
      </trkpt>
      <trkpt lat="54.09437" lon="15.11276">
        <ele>43.169071</ele>
        <time>2024-07-27T12:16:11.547Z</time>
      </trkpt>
      <trkpt lat="54.09436" lon="15.11298">
        <ele>43.393798</ele>
        <time>2024-07-27T12:16:14.552Z</time>
      </trkpt>
      <trkpt lat="54.09436" lon="15.1132">
        <ele>43.622066</ele>
        <time>2024-07-27T12:16:17.563Z</time>
      </trkpt>
      <trkpt lat="54.09435" lon="15.1134">
        <ele>43.838447</ele>
        <time>2024-07-27T12:16:20.539Z</time>
      </trkpt>
      <trkpt lat="54.09436" lon="15.11362">
        <ele>44.06781</ele>
        <time>2024-07-27T12:16:23.556Z</time>
      </trkpt>
      <trkpt lat="54.09435" lon="15.11382">
        <ele>44.190591</ele>
        <time>2024-07-27T12:16:26.548Z</time>
      </trkpt>
      <trkpt lat="54.09435" lon="15.11402">
        <ele>44.301051</ele>
        <time>2024-07-27T12:16:29.548Z</time>
      </trkpt>
      <trkpt lat="54.09434" lon="15.11421">
        <ele>44.412561</ele>
        <time>2024-07-27T12:16:32.545Z</time>
      </trkpt>
      <trkpt lat="54.09433" lon="15.11442">
        <ele>44.531308</ele>
        <time>2024-07-27T12:16:35.549Z</time>
      </trkpt>
      <trkpt lat="54.09432" lon="15.11463">
        <ele>44.647137</ele>
        <time>2024-07-27T12:16:38.546Z</time>
      </trkpt>
      <trkpt lat="54.09433" lon="15.11478">
        <ele>44.737058</ele>
        <time>2024-07-27T12:16:41.552Z</time>
      </trkpt>
      <trkpt lat="54.09435" lon="15.11496">
        <ele>44.83808</ele>
        <time>2024-07-27T12:16:44.533Z</time>
      </trkpt>
      <trkpt lat="54.09436" lon="15.11514">
        <ele>44.942157</ele>
        <time>2024-07-27T12:16:47.551Z</time>
      </trkpt>
      <trkpt lat="54.09437" lon="15.1153">
        <ele>45.035</ele>
        <time>2024-07-27T12:16:50.544Z</time>
      </trkpt>
      <trkpt lat="54.09438" lon="15.11548">
        <ele>45.137238</ele>
        <time>2024-07-27T12:16:54.541Z</time>
      </trkpt>
      <trkpt lat="54.09438" lon="15.11567">
        <ele>45.245842</ele>
        <time>2024-07-27T12:16:58.577Z</time>
      </trkpt>
      <trkpt lat="54.09439" lon="15.11586">
        <ele>45.352609</ele>
        <time>2024-07-27T12:17:02.541Z</time>
      </trkpt>
      <trkpt lat="54.09438" lon="15.11601">
        <ele>45.439948</ele>
        <time>2024-07-27T12:17:05.531Z</time>
      </trkpt>
      <trkpt lat="54.09437" lon="15.1162">
        <ele>45.545583</ele>
        <time>2024-07-27T12:17:10.560Z</time>
      </trkpt>
      <trkpt lat="54.09439" lon="15.11635">
        <ele>45.636028</ele>
        <time>2024-07-27T12:17:17.554Z</time>
      </trkpt>
      <trkpt lat="54.09434" lon="15.11657">
        <ele>45.767181</ele>
        <time>2024-07-27T12:19:00.546Z</time>
      </trkpt>
      <trkpt lat="54.09434" lon="15.11675">
        <ele>45.797979</ele>
        <time>2024-07-27T12:19:03.535Z</time>
      </trkpt>
      <trkpt lat="54.09434" lon="15.11694">
        <ele>45.717746</ele>
        <time>2024-07-27T12:19:06.543Z</time>
      </trkpt>
      <trkpt lat="54.09434" lon="15.11713">
        <ele>45.637852</ele>
        <time>2024-07-27T12:19:09.549Z</time>
      </trkpt>
      <trkpt lat="54.09435" lon="15.11731">
        <ele>45.561617</ele>
        <time>2024-07-27T12:19:12.555Z</time>
      </trkpt>
      <trkpt lat="54.09435" lon="15.11751">
        <ele>45.478429</ele>
        <time>2024-07-27T12:19:15.546Z</time>
      </trkpt>
      <trkpt lat="54.09435" lon="15.11768">
        <ele>45.409834</ele>
        <time>2024-07-27T12:19:17.542Z</time>
      </trkpt>
      <trkpt lat="54.09435" lon="15.11785">
        <ele>45.337502</ele>
        <time>2024-07-27T12:19:19.549Z</time>
      </trkpt>
      <trkpt lat="54.09434" lon="15.11806">
        <ele>45.250332</ele>
        <time>2024-07-27T12:19:21.544Z</time>
      </trkpt>
      <trkpt lat="54.09433" lon="15.11826">
        <ele>45.167776</ele>
        <time>2024-07-27T12:19:23.553Z</time>
      </trkpt>
      <trkpt lat="54.09433" lon="15.11845">
        <ele>45.090297</ele>
        <time>2024-07-27T12:19:25.549Z</time>
      </trkpt>
      <trkpt lat="54.09432" lon="15.11862">
        <ele>45.016499</ele>
        <time>2024-07-27T12:19:27.552Z</time>
      </trkpt>
      <trkpt lat="54.09432" lon="15.11881">
        <ele>44.937072</ele>
        <time>2024-07-27T12:19:29.551Z</time>
      </trkpt>
      <trkpt lat="54.09432" lon="15.11901">
        <ele>44.856841</ele>
        <time>2024-07-27T12:19:31.549Z</time>
      </trkpt>
      <trkpt lat="54.09432" lon="15.1192">
        <ele>44.777027</ele>
        <time>2024-07-27T12:19:33.555Z</time>
      </trkpt>
      <trkpt lat="54.09431" lon="15.11939">
        <ele>44.697992</ele>
        <time>2024-07-27T12:19:35.546Z</time>
      </trkpt>
      <trkpt lat="54.09431" lon="15.11958">
        <ele>44.61984</ele>
        <time>2024-07-27T12:19:37.549Z</time>
      </trkpt>
      <trkpt lat="54.09431" lon="15.11976">
        <ele>44.538199</ele>
        <time>2024-07-27T12:19:39.542Z</time>
      </trkpt>
      <trkpt lat="54.09431" lon="15.11997">
        <ele>44.350512</ele>
        <time>2024-07-27T12:19:42.546Z</time>
      </trkpt>
      <trkpt lat="54.09431" lon="15.12019">
        <ele>44.1551</ele>
        <time>2024-07-27T12:19:45.542Z</time>
      </trkpt>
      <trkpt lat="54.09431" lon="15.12039">
        <ele>43.981511</ele>
        <time>2024-07-27T12:19:48.531Z</time>
      </trkpt>
      <trkpt lat="54.09431" lon="15.12055">
        <ele>43.843619</ele>
        <time>2024-07-27T12:19:50.552Z</time>
      </trkpt>
      <trkpt lat="54.09431" lon="15.12073">
        <ele>43.690034</ele>
        <time>2024-07-27T12:19:52.562Z</time>
      </trkpt>
      <trkpt lat="54.0943" lon="15.12088">
        <ele>43.55617</ele>
        <time>2024-07-27T12:19:54.554Z</time>
      </trkpt>
      <trkpt lat="54.09429" lon="15.12103">
        <ele>43.421713</ele>
        <time>2024-07-27T12:19:56.549Z</time>
      </trkpt>
      <trkpt lat="54.09429" lon="15.12127">
        <ele>43.212345</ele>
        <time>2024-07-27T12:19:59.557Z</time>
      </trkpt>
      <trkpt lat="54.09428" lon="15.12146">
        <ele>43.04825</ele>
        <time>2024-07-27T12:20:01.562Z</time>
      </trkpt>
      <trkpt lat="54.09428" lon="15.12162">
        <ele>42.906933</ele>
        <time>2024-07-27T12:20:03.548Z</time>
      </trkpt>
      <trkpt lat="54.09428" lon="15.12179">
        <ele>42.764472</ele>
        <time>2024-07-27T12:20:05.558Z</time>
      </trkpt>
      <trkpt lat="54.09428" lon="15.12196">
        <ele>42.611817</ele>
        <time>2024-07-27T12:20:07.550Z</time>
      </trkpt>
      <trkpt lat="54.09428" lon="15.12214">
        <ele>42.454807</ele>
        <time>2024-07-27T12:20:09.558Z</time>
      </trkpt>
      <trkpt lat="54.09427" lon="15.12233">
        <ele>42.290273</ele>
        <time>2024-07-27T12:20:11.563Z</time>
      </trkpt>
      <trkpt lat="54.09427" lon="15.12251">
        <ele>42.134129</ele>
        <time>2024-07-27T12:20:13.543Z</time>
      </trkpt>
      <trkpt lat="54.09427" lon="15.12269">
        <ele>41.973568</ele>
        <time>2024-07-27T12:20:15.547Z</time>
      </trkpt>
      <trkpt lat="54.09428" lon="15.12288">
        <ele>42.023488</ele>
        <time>2024-07-27T12:20:17.548Z</time>
      </trkpt>
      <trkpt lat="54.09429" lon="15.12305">
        <ele>42.360298</ele>
        <time>2024-07-27T12:20:19.553Z</time>
      </trkpt>
      <trkpt lat="54.09429" lon="15.12326">
        <ele>42.767425</ele>
        <time>2024-07-27T12:20:22.548Z</time>
      </trkpt>
      <trkpt lat="54.09429" lon="15.12348">
        <ele>43.182388</ele>
        <time>2024-07-27T12:20:25.562Z</time>
      </trkpt>
      <trkpt lat="54.09434" lon="15.12367">
        <ele>43.583252</ele>
        <time>2024-07-27T12:20:29.545Z</time>
      </trkpt>
      <trkpt lat="54.09439" lon="15.12386">
        <ele>43.965962</ele>
        <time>2024-07-27T12:20:33.534Z</time>
      </trkpt>
      <trkpt lat="54.09439" lon="15.12402">
        <ele>44.280936</ele>
        <time>2024-07-27T12:20:35.555Z</time>
      </trkpt>
      <trkpt lat="54.09438" lon="15.12418">
        <ele>44.585186</ele>
        <time>2024-07-27T12:20:37.555Z</time>
      </trkpt>
      <trkpt lat="54.09439" lon="15.12433">
        <ele>44.885839</ele>
        <time>2024-07-27T12:20:39.548Z</time>
      </trkpt>
      <trkpt lat="54.09442" lon="15.12449">
        <ele>45.197659</ele>
        <time>2024-07-27T12:20:41.543Z</time>
      </trkpt>
      <trkpt lat="54.09444" lon="15.12471">
        <ele>45.628051</ele>
        <time>2024-07-27T12:20:44.545Z</time>
      </trkpt>
      <trkpt lat="54.09448" lon="15.12492">
        <ele>46.041739</ele>
        <time>2024-07-27T12:20:47.563Z</time>
      </trkpt>
      <trkpt lat="54.09453" lon="15.12511">
        <ele>46.444714</ele>
        <time>2024-07-27T12:20:50.548Z</time>
      </trkpt>
      <trkpt lat="54.09457" lon="15.12532">
        <ele>46.866664</ele>
        <time>2024-07-27T12:20:53.551Z</time>
      </trkpt>
      <trkpt lat="54.09458" lon="15.12551">
        <ele>47.236687</ele>
        <time>2024-07-27T12:20:56.561Z</time>
      </trkpt>
      <trkpt lat="54.09461" lon="15.1257">
        <ele>47.615516</ele>
        <time>2024-07-27T12:20:59.552Z</time>
      </trkpt>
      <trkpt lat="54.09461" lon="15.12589">
        <ele>47.802741</ele>
        <time>2024-07-27T12:21:02.562Z</time>
      </trkpt>
      <trkpt lat="54.0946" lon="15.12611">
        <ele>47.875137</ele>
        <time>2024-07-27T12:21:05.568Z</time>
      </trkpt>
      <trkpt lat="54.09459" lon="15.12626">
        <ele>47.927706</ele>
        <time>2024-07-27T12:21:07.545Z</time>
      </trkpt>
      <trkpt lat="54.09459" lon="15.12649">
        <ele>48.003722</ele>
        <time>2024-07-27T12:21:10.556Z</time>
      </trkpt>
      <trkpt lat="54.09458" lon="15.12671">
        <ele>48.078143</ele>
        <time>2024-07-27T12:21:13.552Z</time>
      </trkpt>
      <trkpt lat="54.09458" lon="15.12687">
        <ele>48.129476</ele>
        <time>2024-07-27T12:21:15.563Z</time>
      </trkpt>
      <trkpt lat="54.09457" lon="15.12703">
        <ele>48.183161</ele>
        <time>2024-07-27T12:21:17.557Z</time>
      </trkpt>
      <trkpt lat="54.09454" lon="15.12724">
        <ele>48.257047</ele>
        <time>2024-07-27T12:21:20.553Z</time>
      </trkpt>
      <trkpt lat="54.09452" lon="15.12739">
        <ele>48.309088</ele>
        <time>2024-07-27T12:21:22.557Z</time>
      </trkpt>
      <trkpt lat="54.09449" lon="15.1276">
        <ele>48.380012</ele>
        <time>2024-07-27T12:21:25.548Z</time>
      </trkpt>
      <trkpt lat="54.09446" lon="15.1278">
        <ele>48.448629</ele>
        <time>2024-07-27T12:21:28.562Z</time>
      </trkpt>
      <trkpt lat="54.09444" lon="15.12798">
        <ele>48.509681</ele>
        <time>2024-07-27T12:21:30.561Z</time>
      </trkpt>
      <trkpt lat="54.09442" lon="15.12814">
        <ele>48.562444</ele>
        <time>2024-07-27T12:21:32.540Z</time>
      </trkpt>
      <trkpt lat="54.09439" lon="15.12832">
        <ele>48.626563</ele>
        <time>2024-07-27T12:21:35.551Z</time>
      </trkpt>
      <trkpt lat="54.09437" lon="15.12855">
        <ele>48.701909</ele>
        <time>2024-07-27T12:21:38.551Z</time>
      </trkpt>
      <trkpt lat="54.09436" lon="15.12874">
        <ele>48.767473</ele>
        <time>2024-07-27T12:21:40.559Z</time>
      </trkpt>
      <trkpt lat="54.09431" lon="15.12889">
        <ele>48.574929</ele>
        <time>2024-07-27T12:21:42.534Z</time>
      </trkpt>
      <trkpt lat="54.09423" lon="15.12902">
        <ele>48.218053</ele>
        <time>2024-07-27T12:21:44.557Z</time>
      </trkpt>
      <trkpt lat="54.09413" lon="15.12914">
        <ele>47.833233</ele>
        <time>2024-07-27T12:21:46.540Z</time>
      </trkpt>
      <trkpt lat="54.09401" lon="15.12923">
        <ele>47.436151</ele>
        <time>2024-07-27T12:21:48.545Z</time>
      </trkpt>
      <trkpt lat="54.09392" lon="15.12935">
        <ele>47.070077</ele>
        <time>2024-07-27T12:21:50.548Z</time>
      </trkpt>
      <trkpt lat="54.09386" lon="15.1295">
        <ele>46.722949</ele>
        <time>2024-07-27T12:21:52.547Z</time>
      </trkpt>
      <trkpt lat="54.09382" lon="15.12969">
        <ele>46.350459</ele>
        <time>2024-07-27T12:21:54.541Z</time>
      </trkpt>
      <trkpt lat="54.09384" lon="15.12989">
        <ele>45.95748</ele>
        <time>2024-07-27T12:21:56.533Z</time>
      </trkpt>
      <trkpt lat="54.09388" lon="15.1301">
        <ele>45.548534</ele>
        <time>2024-07-27T12:21:58.548Z</time>
      </trkpt>
      <trkpt lat="54.09392" lon="15.13033">
        <ele>45.110838</ele>
        <time>2024-07-27T12:22:00.536Z</time>
      </trkpt>
      <trkpt lat="54.09395" lon="15.13054">
        <ele>44.705197</ele>
        <time>2024-07-27T12:22:02.549Z</time>
      </trkpt>
      <trkpt lat="54.09398" lon="15.13073">
        <ele>44.330357</ele>
        <time>2024-07-27T12:22:04.543Z</time>
      </trkpt>
      <trkpt lat="54.09401" lon="15.1309">
        <ele>44.003076</ele>
        <time>2024-07-27T12:22:06.537Z</time>
      </trkpt>
      <trkpt lat="54.09403" lon="15.13105">
        <ele>43.702783</ele>
        <time>2024-07-27T12:22:08.552Z</time>
      </trkpt>
      <trkpt lat="54.09406" lon="15.13122">
        <ele>43.388996</ele>
        <time>2024-07-27T12:22:10.559Z</time>
      </trkpt>
      <trkpt lat="54.09408" lon="15.13137">
        <ele>43.085527</ele>
        <time>2024-07-27T12:22:12.539Z</time>
      </trkpt>
      <trkpt lat="54.09409" lon="15.13153">
        <ele>42.983535</ele>
        <time>2024-07-27T12:22:14.541Z</time>
      </trkpt>
      <trkpt lat="54.09411" lon="15.13168">
        <ele>42.915498</ele>
        <time>2024-07-27T12:22:16.541Z</time>
      </trkpt>
      <trkpt lat="54.09413" lon="15.13184">
        <ele>42.846108</ele>
        <time>2024-07-27T12:22:18.548Z</time>
      </trkpt>
      <trkpt lat="54.09415" lon="15.13201">
        <ele>42.769753</ele>
        <time>2024-07-27T12:22:20.541Z</time>
      </trkpt>
      <trkpt lat="54.09417" lon="15.13221">
        <ele>42.683388</ele>
        <time>2024-07-27T12:22:22.550Z</time>
      </trkpt>
      <trkpt lat="54.09419" lon="15.13241">
        <ele>42.591665</ele>
        <time>2024-07-27T12:22:24.549Z</time>
      </trkpt>
      <trkpt lat="54.09421" lon="15.13262">
        <ele>42.501118</ele>
        <time>2024-07-27T12:22:26.523Z</time>
      </trkpt>
      <trkpt lat="54.09423" lon="15.13283">
        <ele>42.404861</ele>
        <time>2024-07-27T12:22:28.551Z</time>
      </trkpt>
      <trkpt lat="54.09425" lon="15.13303">
        <ele>42.31462</ele>
        <time>2024-07-27T12:22:30.546Z</time>
      </trkpt>
      <trkpt lat="54.09427" lon="15.13324">
        <ele>42.225736</ele>
        <time>2024-07-27T12:22:32.548Z</time>
      </trkpt>
      <trkpt lat="54.09429" lon="15.13342">
        <ele>42.142669</ele>
        <time>2024-07-27T12:22:34.551Z</time>
      </trkpt>
      <trkpt lat="54.09431" lon="15.1336">
        <ele>42.061004</ele>
        <time>2024-07-27T12:22:36.538Z</time>
      </trkpt>
      <trkpt lat="54.09434" lon="15.13377">
        <ele>41.987487</ele>
        <time>2024-07-27T12:22:38.537Z</time>
      </trkpt>
      <trkpt lat="54.09439" lon="15.13395">
        <ele>41.899645</ele>
        <time>2024-07-27T12:22:41.556Z</time>
      </trkpt>
      <trkpt lat="54.09445" lon="15.1341">
        <ele>41.818652</ele>
        <time>2024-07-27T12:22:44.549Z</time>
      </trkpt>
      <trkpt lat="54.09455" lon="15.13415">
        <ele>41.7405</ele>
        <time>2024-07-27T12:22:47.539Z</time>
      </trkpt>
      <trkpt lat="54.09465" lon="15.13419">
        <ele>41.819409</ele>
        <time>2024-07-27T12:22:50.541Z</time>
      </trkpt>
      <trkpt lat="54.09475" lon="15.13423">
        <ele>42.04924</ele>
        <time>2024-07-27T12:22:53.540Z</time>
      </trkpt>
      <trkpt lat="54.09483" lon="15.13427">
        <ele>42.270567</ele>
        <time>2024-07-27T12:22:56.552Z</time>
      </trkpt>
      <trkpt lat="54.09495" lon="15.13433">
        <ele>42.568241</ele>
        <time>2024-07-27T12:23:00.538Z</time>
      </trkpt>
      <trkpt lat="54.09505" lon="15.13437">
        <ele>42.808397</ele>
        <time>2024-07-27T12:23:03.559Z</time>
      </trkpt>
      <trkpt lat="54.09514" lon="15.13443">
        <ele>43.029441</ele>
        <time>2024-07-27T12:23:06.549Z</time>
      </trkpt>
      <trkpt lat="54.09523" lon="15.13447">
        <ele>43.261128</ele>
        <time>2024-07-27T12:23:09.541Z</time>
      </trkpt>
      <trkpt lat="54.09532" lon="15.13451">
        <ele>43.481344</ele>
        <time>2024-07-27T12:23:12.542Z</time>
      </trkpt>
      <trkpt lat="54.09541" lon="15.13455">
        <ele>43.705845</ele>
        <time>2024-07-27T12:23:15.538Z</time>
      </trkpt>
      <trkpt lat="54.09551" lon="15.1346">
        <ele>43.948711</ele>
        <time>2024-07-27T12:23:18.550Z</time>
      </trkpt>
      <trkpt lat="54.0956" lon="15.13466">
        <ele>44.181153</ele>
        <time>2024-07-27T12:23:21.550Z</time>
      </trkpt>
      <trkpt lat="54.09569" lon="15.13473">
        <ele>44.414495</ele>
        <time>2024-07-27T12:23:24.555Z</time>
      </trkpt>
      <trkpt lat="54.09579" lon="15.13483">
        <ele>44.697412</ele>
        <time>2024-07-27T12:23:28.544Z</time>
      </trkpt>
      <trkpt lat="54.09587" lon="15.13492">
        <ele>44.923536</ele>
        <time>2024-07-27T12:23:31.550Z</time>
      </trkpt>
      <trkpt lat="54.09595" lon="15.13503">
        <ele>45.1666</ele>
        <time>2024-07-27T12:23:34.545Z</time>
      </trkpt>
      <trkpt lat="54.09603" lon="15.13514">
        <ele>45.410568</ele>
        <time>2024-07-27T12:23:37.545Z</time>
      </trkpt>
      <trkpt lat="54.0961" lon="15.13526">
        <ele>45.661091</ele>
        <time>2024-07-27T12:23:40.532Z</time>
      </trkpt>
      <trkpt lat="54.09617" lon="15.13539">
        <ele>45.896552</ele>
        <time>2024-07-27T12:23:43.552Z</time>
      </trkpt>
      <trkpt lat="54.09625" lon="15.13551">
        <ele>46.111759</ele>
        <time>2024-07-27T12:23:46.562Z</time>
      </trkpt>
      <trkpt lat="54.09633" lon="15.13563">
        <ele>46.302488</ele>
        <time>2024-07-27T12:23:49.531Z</time>
      </trkpt>
      <trkpt lat="54.09641" lon="15.13573">
        <ele>46.488334</ele>
        <time>2024-07-27T12:23:52.544Z</time>
      </trkpt>
      <trkpt lat="54.09649" lon="15.13583">
        <ele>46.672346</ele>
        <time>2024-07-27T12:23:55.539Z</time>
      </trkpt>
      <trkpt lat="54.09657" lon="15.13594">
        <ele>46.853726</ele>
        <time>2024-07-27T12:23:58.547Z</time>
      </trkpt>
      <trkpt lat="54.09666" lon="15.13604">
        <ele>47.042255</ele>
        <time>2024-07-27T12:24:01.541Z</time>
      </trkpt>
      <trkpt lat="54.09675" lon="15.13615">
        <ele>47.230404</ele>
        <time>2024-07-27T12:24:04.549Z</time>
      </trkpt>
      <trkpt lat="54.09683" lon="15.13624">
        <ele>47.416869</ele>
        <time>2024-07-27T12:24:07.542Z</time>
      </trkpt>
      <trkpt lat="54.09691" lon="15.13635">
        <ele>47.604897</ele>
        <time>2024-07-27T12:24:10.535Z</time>
      </trkpt>
      <trkpt lat="54.09699" lon="15.13646">
        <ele>47.786276</ele>
        <time>2024-07-27T12:24:13.548Z</time>
      </trkpt>
      <trkpt lat="54.09708" lon="15.13656">
        <ele>47.978844</ele>
        <time>2024-07-27T12:24:16.555Z</time>
      </trkpt>
      <trkpt lat="54.09717" lon="15.13666">
        <ele>48.159652</ele>
        <time>2024-07-27T12:24:19.547Z</time>
      </trkpt>
      <trkpt lat="54.09725" lon="15.13676">
        <ele>48.342815</ele>
        <time>2024-07-27T12:24:22.549Z</time>
      </trkpt>
      <trkpt lat="54.09733" lon="15.13686">
        <ele>48.513828</ele>
        <time>2024-07-27T12:24:25.551Z</time>
      </trkpt>
      <trkpt lat="54.09741" lon="15.13695">
        <ele>48.68936</ele>
        <time>2024-07-27T12:24:28.543Z</time>
      </trkpt>
      <trkpt lat="54.09749" lon="15.13706">
        <ele>48.875398</ele>
        <time>2024-07-27T12:24:31.543Z</time>
      </trkpt>
      <trkpt lat="54.09757" lon="15.13721">
        <ele>49.082332</ele>
        <time>2024-07-27T12:24:34.553Z</time>
      </trkpt>
      <trkpt lat="54.09763" lon="15.13736">
        <ele>49.197106</ele>
        <time>2024-07-27T12:24:37.545Z</time>
      </trkpt>
      <trkpt lat="54.09768" lon="15.13752">
        <ele>49.103202</ele>
        <time>2024-07-27T12:24:40.540Z</time>
      </trkpt>
      <trkpt lat="54.09773" lon="15.13766">
        <ele>49.015089</ele>
        <time>2024-07-27T12:24:43.550Z</time>
      </trkpt>
      <trkpt lat="54.09777" lon="15.1378">
        <ele>48.93333</ele>
        <time>2024-07-27T12:24:46.556Z</time>
      </trkpt>
      <trkpt lat="54.09782" lon="15.13797">
        <ele>48.832087</ele>
        <time>2024-07-27T12:24:50.549Z</time>
      </trkpt>
      <trkpt lat="54.09787" lon="15.13813">
        <ele>48.741025</ele>
        <time>2024-07-27T12:24:53.559Z</time>
      </trkpt>
      <trkpt lat="54.09791" lon="15.13828">
        <ele>48.648933</ele>
        <time>2024-07-27T12:24:56.551Z</time>
      </trkpt>
      <trkpt lat="54.09795" lon="15.13844">
        <ele>48.558324</ele>
        <time>2024-07-27T12:24:59.551Z</time>
      </trkpt>
      <trkpt lat="54.09799" lon="15.1386">
        <ele>48.467091</ele>
        <time>2024-07-27T12:25:02.547Z</time>
      </trkpt>
      <trkpt lat="54.09804" lon="15.13875">
        <ele>48.379726</ele>
        <time>2024-07-27T12:25:05.542Z</time>
      </trkpt>
      <trkpt lat="54.0981" lon="15.13891">
        <ele>48.27661</ele>
        <time>2024-07-27T12:25:09.543Z</time>
      </trkpt>
      <trkpt lat="54.09816" lon="15.13909">
        <ele>48.168039</ele>
        <time>2024-07-27T12:25:13.540Z</time>
      </trkpt>
      <trkpt lat="54.09823" lon="15.13921">
        <ele>48.082872</ele>
        <time>2024-07-27T12:25:16.544Z</time>
      </trkpt>
      <trkpt lat="54.09828" lon="15.13933">
        <ele>48.00218</ele>
        <time>2024-07-27T12:25:19.533Z</time>
      </trkpt>
      <trkpt lat="54.09834" lon="15.13945">
        <ele>47.916455</ele>
        <time>2024-07-27T12:25:22.541Z</time>
      </trkpt>
      <trkpt lat="54.09844" lon="15.13957">
        <ele>47.810074</ele>
        <time>2024-07-27T12:25:26.547Z</time>
      </trkpt>
      <trkpt lat="54.09853" lon="15.13967">
        <ele>47.713944</ele>
        <time>2024-07-27T12:25:30.537Z</time>
      </trkpt>
      <trkpt lat="54.09861" lon="15.13975">
        <ele>47.626487</ele>
        <time>2024-07-27T12:25:34.542Z</time>
      </trkpt>
      <trkpt lat="54.0987" lon="15.13984">
        <ele>47.672688</ele>
        <time>2024-07-27T12:25:38.538Z</time>
      </trkpt>
      <trkpt lat="54.0988" lon="15.13994">
        <ele>47.758205</ele>
        <time>2024-07-27T12:25:42.520Z</time>
      </trkpt>
      <trkpt lat="54.09889" lon="15.14">
        <ele>47.82625</ele>
        <time>2024-07-27T12:25:45.548Z</time>
      </trkpt>
      <trkpt lat="54.09899" lon="15.1401">
        <ele>47.915421</ele>
        <time>2024-07-27T12:25:49.552Z</time>
      </trkpt>
      <trkpt lat="54.09907" lon="15.14017">
        <ele>47.983148</ele>
        <time>2024-07-27T12:25:52.551Z</time>
      </trkpt>
      <trkpt lat="54.09917" lon="15.14024">
        <ele>48.062615</ele>
        <time>2024-07-27T12:25:56.545Z</time>
      </trkpt>
      <trkpt lat="54.09926" lon="15.14035">
        <ele>48.145925</ele>
        <time>2024-07-27T12:26:00.540Z</time>
      </trkpt>
      <trkpt lat="54.09934" lon="15.14043">
        <ele>48.213609</ele>
        <time>2024-07-27T12:26:03.550Z</time>
      </trkpt>
      <trkpt lat="54.09942" lon="15.1405">
        <ele>48.281601</ele>
        <time>2024-07-27T12:26:06.540Z</time>
      </trkpt>
      <trkpt lat="54.09951" lon="15.14058">
        <ele>48.357234</ele>
        <time>2024-07-27T12:26:09.550Z</time>
      </trkpt>
      <trkpt lat="54.09961" lon="15.14067">
        <ele>48.43592</ele>
        <time>2024-07-27T12:26:12.549Z</time>
      </trkpt>
      <trkpt lat="54.0997" lon="15.14077">
        <ele>48.513848</ele>
        <time>2024-07-27T12:26:15.547Z</time>
      </trkpt>
      <trkpt lat="54.09978" lon="15.14085">
        <ele>48.584998</ele>
        <time>2024-07-27T12:26:18.524Z</time>
      </trkpt>
      <trkpt lat="54.09986" lon="15.14094">
        <ele>48.657642</ele>
        <time>2024-07-27T12:26:21.536Z</time>
      </trkpt>
      <trkpt lat="54.09995" lon="15.14103">
        <ele>48.732005</ele>
        <time>2024-07-27T12:26:24.562Z</time>
      </trkpt>
      <trkpt lat="54.10004" lon="15.1411">
        <ele>48.80554</ele>
        <time>2024-07-27T12:26:27.561Z</time>
      </trkpt>
      <trkpt lat="54.10012" lon="15.14117">
        <ele>48.874004</ele>
        <time>2024-07-27T12:26:30.543Z</time>
      </trkpt>
      <trkpt lat="54.1002" lon="15.14125">
        <ele>48.94391</ele>
        <time>2024-07-27T12:26:33.541Z</time>
      </trkpt>
      <trkpt lat="54.10028" lon="15.14133">
        <ele>49.098541</ele>
        <time>2024-07-27T12:26:36.554Z</time>
      </trkpt>
      <trkpt lat="54.10039" lon="15.14144">
        <ele>49.303753</ele>
        <time>2024-07-27T12:26:40.547Z</time>
      </trkpt>
      <trkpt lat="54.10047" lon="15.14152">
        <ele>49.468577</ele>
        <time>2024-07-27T12:26:43.558Z</time>
      </trkpt>
      <trkpt lat="54.10056" lon="15.14158">
        <ele>49.626768</ele>
        <time>2024-07-27T12:26:46.544Z</time>
      </trkpt>
      <trkpt lat="54.10065" lon="15.14165">
        <ele>49.796184</ele>
        <time>2024-07-27T12:26:49.560Z</time>
      </trkpt>
      <trkpt lat="54.10074" lon="15.14171">
        <ele>49.954001</ele>
        <time>2024-07-27T12:26:52.545Z</time>
      </trkpt>
      <trkpt lat="54.10082" lon="15.14176">
        <ele>50.108709</ele>
        <time>2024-07-27T12:26:55.549Z</time>
      </trkpt>
      <trkpt lat="54.10092" lon="15.1418">
        <ele>50.271767</ele>
        <time>2024-07-27T12:26:58.548Z</time>
      </trkpt>
      <trkpt lat="54.10101" lon="15.14181">
        <ele>50.42682</ele>
        <time>2024-07-27T12:27:01.553Z</time>
      </trkpt>
      <trkpt lat="54.10111" lon="15.14183">
        <ele>50.586883</ele>
        <time>2024-07-27T12:27:04.551Z</time>
      </trkpt>
      <trkpt lat="54.1012" lon="15.14187">
        <ele>50.742074</ele>
        <time>2024-07-27T12:27:07.550Z</time>
      </trkpt>
      <trkpt lat="54.10129" lon="15.14192">
        <ele>50.912082</ele>
        <time>2024-07-27T12:27:10.533Z</time>
      </trkpt>
      <trkpt lat="54.10138" lon="15.14195">
        <ele>51.066322</ele>
        <time>2024-07-27T12:27:13.550Z</time>
      </trkpt>
      <trkpt lat="54.10148" lon="15.14199">
        <ele>51.23246</ele>
        <time>2024-07-27T12:27:16.543Z</time>
      </trkpt>
      <trkpt lat="54.10158" lon="15.14202">
        <ele>51.40463</ele>
        <time>2024-07-27T12:27:19.548Z</time>
      </trkpt>
      <trkpt lat="54.10167" lon="15.14203">
        <ele>51.563325</ele>
        <time>2024-07-27T12:27:22.550Z</time>
      </trkpt>
      <trkpt lat="54.10177" lon="15.14209">
        <ele>51.736414</ele>
        <time>2024-07-27T12:27:25.563Z</time>
      </trkpt>
      <trkpt lat="54.10186" lon="15.14215">
        <ele>51.894341</ele>
        <time>2024-07-27T12:27:28.556Z</time>
      </trkpt>
      <trkpt lat="54.10196" lon="15.14218">
        <ele>51.922235</ele>
        <time>2024-07-27T12:27:31.550Z</time>
      </trkpt>
      <trkpt lat="54.10205" lon="15.14221">
        <ele>51.857353</ele>
        <time>2024-07-27T12:27:34.543Z</time>
      </trkpt>
      <trkpt lat="54.10217" lon="15.14225">
        <ele>51.778585</ele>
        <time>2024-07-27T12:27:38.545Z</time>
      </trkpt>
      <trkpt lat="54.10226" lon="15.14232">
        <ele>51.709098</ele>
        <time>2024-07-27T12:27:41.564Z</time>
      </trkpt>
      <trkpt lat="54.10236" lon="15.1424">
        <ele>51.639049</ele>
        <time>2024-07-27T12:27:44.536Z</time>
      </trkpt>
      <trkpt lat="54.10245" lon="15.1425">
        <ele>51.565456</ele>
        <time>2024-07-27T12:27:47.554Z</time>
      </trkpt>
      <trkpt lat="54.10252" lon="15.14262">
        <ele>51.49723</ele>
        <time>2024-07-27T12:27:50.551Z</time>
      </trkpt>
      <trkpt lat="54.10259" lon="15.14273">
        <ele>51.433647</ele>
        <time>2024-07-27T12:27:53.526Z</time>
      </trkpt>
      <trkpt lat="54.10265" lon="15.14286">
        <ele>51.368227</ele>
        <time>2024-07-27T12:27:56.535Z</time>
      </trkpt>
      <trkpt lat="54.10273" lon="15.14299">
        <ele>51.297713</ele>
        <time>2024-07-27T12:27:59.548Z</time>
      </trkpt>
      <trkpt lat="54.1028" lon="15.14313">
        <ele>51.224377</ele>
        <time>2024-07-27T12:28:02.560Z</time>
      </trkpt>
      <trkpt lat="54.10286" lon="15.14326">
        <ele>51.157548</ele>
        <time>2024-07-27T12:28:05.547Z</time>
      </trkpt>
      <trkpt lat="54.10292" lon="15.14338">
        <ele>51.094036</ele>
        <time>2024-07-27T12:28:08.551Z</time>
      </trkpt>
      <trkpt lat="54.103" lon="15.14351">
        <ele>51.018936</ele>
        <time>2024-07-27T12:28:12.543Z</time>
      </trkpt>
      <trkpt lat="54.10307" lon="15.14362">
        <ele>50.957234</ele>
        <time>2024-07-27T12:28:15.541Z</time>
      </trkpt>
      <trkpt lat="54.10315" lon="15.14378">
        <ele>50.877492</ele>
        <time>2024-07-27T12:28:19.553Z</time>
      </trkpt>
      <trkpt lat="54.10321" lon="15.1439">
        <ele>50.815619</ele>
        <time>2024-07-27T12:28:22.549Z</time>
      </trkpt>
      <trkpt lat="54.10327" lon="15.14401">
        <ele>50.747749</ele>
        <time>2024-07-27T12:28:25.544Z</time>
      </trkpt>
      <trkpt lat="54.10334" lon="15.14417">
        <ele>50.590299</ele>
        <time>2024-07-27T12:28:29.555Z</time>
      </trkpt>
      <trkpt lat="54.1034" lon="15.14431">
        <ele>50.454418</ele>
        <time>2024-07-27T12:28:32.537Z</time>
      </trkpt>
      <trkpt lat="54.10344" lon="15.14446">
        <ele>50.315962</ele>
        <time>2024-07-27T12:28:35.554Z</time>
      </trkpt>
      <trkpt lat="54.10346" lon="15.14462">
        <ele>50.183942</ele>
        <time>2024-07-27T12:28:38.525Z</time>
      </trkpt>
      <trkpt lat="54.1035" lon="15.14478">
        <ele>50.049174</ele>
        <time>2024-07-27T12:28:41.542Z</time>
      </trkpt>
      <trkpt lat="54.10351" lon="15.14494">
        <ele>49.916334</ele>
        <time>2024-07-27T12:28:44.532Z</time>
      </trkpt>
      <trkpt lat="54.10354" lon="15.1451">
        <ele>49.781963</ele>
        <time>2024-07-27T12:28:47.539Z</time>
      </trkpt>
      <trkpt lat="54.10357" lon="15.1453">
        <ele>49.617758</ele>
        <time>2024-07-27T12:28:51.553Z</time>
      </trkpt>
      <trkpt lat="54.10359" lon="15.14547">
        <ele>49.475991</ele>
        <time>2024-07-27T12:28:54.555Z</time>
      </trkpt>
      <trkpt lat="54.10361" lon="15.14565">
        <ele>49.33113</ele>
        <time>2024-07-27T12:28:57.548Z</time>
      </trkpt>
      <trkpt lat="54.10363" lon="15.14583">
        <ele>49.178953</ele>
        <time>2024-07-27T12:29:00.545Z</time>
      </trkpt>
      <trkpt lat="54.10366" lon="15.14598">
        <ele>49.051261</ele>
        <time>2024-07-27T12:29:03.541Z</time>
      </trkpt>
      <trkpt lat="54.10369" lon="15.14614">
        <ele>48.918142</ele>
        <time>2024-07-27T12:29:06.548Z</time>
      </trkpt>
      <trkpt lat="54.10371" lon="15.14629">
        <ele>48.791595</ele>
        <time>2024-07-27T12:29:09.538Z</time>
      </trkpt>
      <trkpt lat="54.10374" lon="15.14646">
        <ele>48.650252</ele>
        <time>2024-07-27T12:29:12.535Z</time>
      </trkpt>
      <trkpt lat="54.10376" lon="15.14663">
        <ele>48.503654</ele>
        <time>2024-07-27T12:29:15.562Z</time>
      </trkpt>
      <trkpt lat="54.10378" lon="15.1468">
        <ele>48.370595</ele>
        <time>2024-07-27T12:29:18.550Z</time>
      </trkpt>
      <trkpt lat="54.10379" lon="15.14696">
        <ele>48.250676</ele>
        <time>2024-07-27T12:29:21.550Z</time>
      </trkpt>
      <trkpt lat="54.10381" lon="15.14712">
        <ele>48.169768</ele>
        <time>2024-07-27T12:29:24.536Z</time>
      </trkpt>
      <trkpt lat="54.10385" lon="15.14731">
        <ele>48.071915</ele>
        <time>2024-07-27T12:29:28.535Z</time>
      </trkpt>
      <trkpt lat="54.10388" lon="15.14747">
        <ele>47.993009</ele>
        <time>2024-07-27T12:29:32.539Z</time>
      </trkpt>
      <trkpt lat="54.10394" lon="15.14762">
        <ele>47.901203</ele>
        <time>2024-07-27T12:29:36.557Z</time>
      </trkpt>
      <trkpt lat="54.10399" lon="15.14776">
        <ele>47.822061</ele>
        <time>2024-07-27T12:29:39.538Z</time>
      </trkpt>
      <trkpt lat="54.10406" lon="15.1479">
        <ele>47.733819</ele>
        <time>2024-07-27T12:29:43.534Z</time>
      </trkpt>
      <trkpt lat="54.10414" lon="15.14804">
        <ele>47.636319</ele>
        <time>2024-07-27T12:29:47.554Z</time>
      </trkpt>
      <trkpt lat="54.10422" lon="15.14814">
        <ele>47.558193</ele>
        <time>2024-07-27T12:29:50.540Z</time>
      </trkpt>
      <trkpt lat="54.1043" lon="15.14823">
        <ele>47.476993</ele>
        <time>2024-07-27T12:29:53.550Z</time>
      </trkpt>
      <trkpt lat="54.10438" lon="15.1483">
        <ele>47.398698</ele>
        <time>2024-07-27T12:29:56.553Z</time>
      </trkpt>
      <trkpt lat="54.10449" lon="15.1484">
        <ele>47.298552</ele>
        <time>2024-07-27T12:30:00.545Z</time>
      </trkpt>
      <trkpt lat="54.10458" lon="15.14845">
        <ele>47.221749</ele>
        <time>2024-07-27T12:30:03.556Z</time>
      </trkpt>
      <trkpt lat="54.10468" lon="15.14849">
        <ele>47.134034</ele>
        <time>2024-07-27T12:30:06.553Z</time>
      </trkpt>
      <trkpt lat="54.10479" lon="15.1485">
        <ele>47.045566</ele>
        <time>2024-07-27T12:30:09.542Z</time>
      </trkpt>
      <trkpt lat="54.10489" lon="15.14851">
        <ele>46.958967</ele>
        <time>2024-07-27T12:30:12.537Z</time>
      </trkpt>
      <trkpt lat="54.105" lon="15.14851">
        <ele>46.86999</ele>
        <time>2024-07-27T12:30:15.554Z</time>
      </trkpt>
      <trkpt lat="54.10512" lon="15.1485">
        <ele>46.780683</ele>
        <time>2024-07-27T12:30:18.546Z</time>
      </trkpt>
      <trkpt lat="54.10522" lon="15.14852">
        <ele>46.796096</ele>
        <time>2024-07-27T12:30:20.532Z</time>
      </trkpt>
      <trkpt lat="54.10535" lon="15.14852">
        <ele>46.818708</ele>
        <time>2024-07-27T12:30:23.549Z</time>
      </trkpt>
      <trkpt lat="54.10544" lon="15.14852">
        <ele>46.834573</ele>
        <time>2024-07-27T12:30:25.549Z</time>
      </trkpt>
      <trkpt lat="54.10554" lon="15.14851">
        <ele>46.851276</ele>
        <time>2024-07-27T12:30:27.538Z</time>
      </trkpt>
      <trkpt lat="54.10564" lon="15.14851">
        <ele>46.867133</ele>
        <time>2024-07-27T12:30:29.545Z</time>
      </trkpt>
      <trkpt lat="54.10573" lon="15.14852">
        <ele>46.882341</ele>
        <time>2024-07-27T12:30:31.546Z</time>
      </trkpt>
      <trkpt lat="54.10582" lon="15.14852">
        <ele>46.897699</ele>
        <time>2024-07-27T12:30:33.550Z</time>
      </trkpt>
      <trkpt lat="54.10591" lon="15.14853">
        <ele>46.913425</ele>
        <time>2024-07-27T12:30:35.534Z</time>
      </trkpt>
      <trkpt lat="54.106" lon="15.14853">
        <ele>46.929114</ele>
        <time>2024-07-27T12:30:37.550Z</time>
      </trkpt>
      <trkpt lat="54.1061" lon="15.14853">
        <ele>46.945816</ele>
        <time>2024-07-27T12:30:39.546Z</time>
      </trkpt>
      <trkpt lat="54.10621" lon="15.14852">
        <ele>46.963736</ele>
        <time>2024-07-27T12:30:41.537Z</time>
      </trkpt>
      <trkpt lat="54.1063" lon="15.14851">
        <ele>46.979776</ele>
        <time>2024-07-27T12:30:43.547Z</time>
      </trkpt>
      <trkpt lat="54.1064" lon="15.14852">
        <ele>46.99615</ele>
        <time>2024-07-27T12:30:45.547Z</time>
      </trkpt>
      <trkpt lat="54.1065" lon="15.14852">
        <ele>47.012183</ele>
        <time>2024-07-27T12:30:47.545Z</time>
      </trkpt>
      <trkpt lat="54.10659" lon="15.14851">
        <ele>47.028385</ele>
        <time>2024-07-27T12:30:49.534Z</time>
      </trkpt>
      <trkpt lat="54.10669" lon="15.14851">
        <ele>47.045085</ele>
        <time>2024-07-27T12:30:51.549Z</time>
      </trkpt>
      <trkpt lat="54.10678" lon="15.14852">
        <ele>47.060781</ele>
        <time>2024-07-27T12:30:53.545Z</time>
      </trkpt>
      <trkpt lat="54.10688" lon="15.14852">
        <ele>47.076657</ele>
        <time>2024-07-27T12:30:55.538Z</time>
      </trkpt>
      <trkpt lat="54.10698" lon="15.14851">
        <ele>47.113173</ele>
        <time>2024-07-27T12:30:57.540Z</time>
      </trkpt>
      <trkpt lat="54.10708" lon="15.14851">
        <ele>47.156756</ele>
        <time>2024-07-27T12:30:59.540Z</time>
      </trkpt>
      <trkpt lat="54.10718" lon="15.14852">
        <ele>47.200813</ele>
        <time>2024-07-27T12:31:01.551Z</time>
      </trkpt>
      <trkpt lat="54.10727" lon="15.14851">
        <ele>47.243953</ele>
        <time>2024-07-27T12:31:03.549Z</time>
      </trkpt>
      <trkpt lat="54.10737" lon="15.1485">
        <ele>47.285412</ele>
        <time>2024-07-27T12:31:05.561Z</time>
      </trkpt>
      <trkpt lat="54.10746" lon="15.14849">
        <ele>47.328223</ele>
        <time>2024-07-27T12:31:07.536Z</time>
      </trkpt>
      <trkpt lat="54.10757" lon="15.1485">
        <ele>47.374462</ele>
        <time>2024-07-27T12:31:09.553Z</time>
      </trkpt>
      <trkpt lat="54.10767" lon="15.14849">
        <ele>47.416749</ele>
        <time>2024-07-27T12:31:11.550Z</time>
      </trkpt>
      <trkpt lat="54.10776" lon="15.14849">
        <ele>47.458571</ele>
        <time>2024-07-27T12:31:13.555Z</time>
      </trkpt>
      <trkpt lat="54.10786" lon="15.14849">
        <ele>47.500393</ele>
        <time>2024-07-27T12:31:15.539Z</time>
      </trkpt>
      <trkpt lat="54.10795" lon="15.1485">
        <ele>47.541344</ele>
        <time>2024-07-27T12:31:17.548Z</time>
      </trkpt>
      <trkpt lat="54.10804" lon="15.1485">
        <ele>47.581423</ele>
        <time>2024-07-27T12:31:19.535Z</time>
      </trkpt>
      <trkpt lat="54.10814" lon="15.1485">
        <ele>47.624569</ele>
        <time>2024-07-27T12:31:21.538Z</time>
      </trkpt>
      <trkpt lat="54.10824" lon="15.14849">
        <ele>47.668258</ele>
        <time>2024-07-27T12:31:23.538Z</time>
      </trkpt>
      <trkpt lat="54.10833" lon="15.14848">
        <ele>47.710078</ele>
        <time>2024-07-27T12:31:25.545Z</time>
      </trkpt>
      <trkpt lat="54.10842" lon="15.14848">
        <ele>47.750143</ele>
        <time>2024-07-27T12:31:27.543Z</time>
      </trkpt>
      <trkpt lat="54.10855" lon="15.14849">
        <ele>47.80783</ele>
        <time>2024-07-27T12:31:30.542Z</time>
      </trkpt>
      <trkpt lat="54.10864" lon="15.14848">
        <ele>47.847908</ele>
        <time>2024-07-27T12:31:32.552Z</time>
      </trkpt>
      <trkpt lat="54.10876" lon="15.14849">
        <ele>47.744809</ele>
        <time>2024-07-27T12:31:35.548Z</time>
      </trkpt>
      <trkpt lat="54.10886" lon="15.14849">
        <ele>47.523799</ele>
        <time>2024-07-27T12:31:38.550Z</time>
      </trkpt>
      <trkpt lat="54.10897" lon="15.14848">
        <ele>47.294068</ele>
        <time>2024-07-27T12:31:41.545Z</time>
      </trkpt>
      <trkpt lat="54.10907" lon="15.14849">
        <ele>47.083459</ele>
        <time>2024-07-27T12:31:44.544Z</time>
      </trkpt>
      <trkpt lat="54.10916" lon="15.14852">
        <ele>46.866053</ele>
        <time>2024-07-27T12:31:47.546Z</time>
      </trkpt>
      <trkpt lat="54.10926" lon="15.14855">
        <ele>46.64563</ele>
        <time>2024-07-27T12:31:50.538Z</time>
      </trkpt>
      <trkpt lat="54.10935" lon="15.1486">
        <ele>46.450371</ele>
        <time>2024-07-27T12:31:53.549Z</time>
      </trkpt>
      <trkpt lat="54.10944" lon="15.14865">
        <ele>46.239998</ele>
        <time>2024-07-27T12:31:57.535Z</time>
      </trkpt>
      <trkpt lat="54.10953" lon="15.1487">
        <ele>46.040969</ele>
        <time>2024-07-27T12:32:04.536Z</time>
      </trkpt>
      <trkpt lat="54.10959" lon="15.14882">
        <ele>45.828269</ele>
        <time>2024-07-27T12:34:24.548Z</time>
      </trkpt>
      <trkpt lat="54.10968" lon="15.14896">
        <ele>45.580253</ele>
        <time>2024-07-27T12:34:28.532Z</time>
      </trkpt>
      <trkpt lat="54.10974" lon="15.14908">
        <ele>45.366774</ele>
        <time>2024-07-27T12:34:31.537Z</time>
      </trkpt>
      <trkpt lat="54.10981" lon="15.14926">
        <ele>45.092813</ele>
        <time>2024-07-27T12:34:34.543Z</time>
      </trkpt>
      <trkpt lat="54.1099" lon="15.14942">
        <ele>44.818988</ele>
        <time>2024-07-27T12:34:37.552Z</time>
      </trkpt>
      <trkpt lat="54.10996" lon="15.14955">
        <ele>44.609089</ele>
        <time>2024-07-27T12:34:39.546Z</time>
      </trkpt>
      <trkpt lat="54.11003" lon="15.14968">
        <ele>44.389704</ele>
        <time>2024-07-27T12:34:41.539Z</time>
      </trkpt>
      <trkpt lat="54.11009" lon="15.1498">
        <ele>44.186876</ele>
        <time>2024-07-27T12:34:43.552Z</time>
      </trkpt>
      <trkpt lat="54.11015" lon="15.14995">
        <ele>43.949764</ele>
        <time>2024-07-27T12:34:45.554Z</time>
      </trkpt>
      <trkpt lat="54.11022" lon="15.15007">
        <ele>43.663805</ele>
        <time>2024-07-27T12:34:47.548Z</time>
      </trkpt>
      <trkpt lat="54.11028" lon="15.15019">
        <ele>43.381513</ele>
        <time>2024-07-27T12:34:49.529Z</time>
      </trkpt>
      <trkpt lat="54.11034" lon="15.15032">
        <ele>43.094078</ele>
        <time>2024-07-27T12:34:51.546Z</time>
      </trkpt>
      <trkpt lat="54.11039" lon="15.15044">
        <ele>42.82689</ele>
        <time>2024-07-27T12:34:53.552Z</time>
      </trkpt>
      <trkpt lat="54.11045" lon="15.15057">
        <ele>42.543732</ele>
        <time>2024-07-27T12:34:55.554Z</time>
      </trkpt>
      <trkpt lat="54.11054" lon="15.15073">
        <ele>42.15721</ele>
        <time>2024-07-27T12:34:58.551Z</time>
      </trkpt>
      <trkpt lat="54.11061" lon="15.15086">
        <ele>41.848272</ele>
        <time>2024-07-27T12:35:01.516Z</time>
      </trkpt>
      <trkpt lat="54.11064" lon="15.15105">
        <ele>41.517376</ele>
        <time>2024-07-27T12:35:25.546Z</time>
      </trkpt>
      <trkpt lat="54.11063" lon="15.15108">
        <ele>41.466264</ele>
        <time>2024-07-27T12:35:50.413Z</time>
      </trkpt>
      <trkpt lat="54.11081" lon="15.15123">
        <ele>40.872734</ele>
        <time>2024-07-27T12:47:28.535Z</time>
      </trkpt>
      <trkpt lat="54.11088" lon="15.15136">
        <ele>40.570336</ele>
        <time>2024-07-27T12:47:31.549Z</time>
      </trkpt>
      <trkpt lat="54.11096" lon="15.15149">
        <ele>40.239867</ele>
        <time>2024-07-27T12:47:34.537Z</time>
      </trkpt>
      <trkpt lat="54.11102" lon="15.15165">
        <ele>39.907278</ele>
        <time>2024-07-27T12:47:37.555Z</time>
      </trkpt>
      <trkpt lat="54.1111" lon="15.15181">
        <ele>39.553554</ele>
        <time>2024-07-27T12:47:40.548Z</time>
      </trkpt>
      <trkpt lat="54.11118" lon="15.15197">
        <ele>39.182627</ele>
        <time>2024-07-27T12:47:43.544Z</time>
      </trkpt>
      <trkpt lat="54.11126" lon="15.15214">
        <ele>38.796492</ele>
        <time>2024-07-27T12:47:46.555Z</time>
      </trkpt>
      <trkpt lat="54.11135" lon="15.15231">
        <ele>38.559483</ele>
        <time>2024-07-27T12:47:49.546Z</time>
      </trkpt>
      <trkpt lat="54.11144" lon="15.15247">
        <ele>38.417495</ele>
        <time>2024-07-27T12:47:52.545Z</time>
      </trkpt>
      <trkpt lat="54.11154" lon="15.15261">
        <ele>38.27726</ele>
        <time>2024-07-27T12:47:55.561Z</time>
      </trkpt>
      <trkpt lat="54.11163" lon="15.15275">
        <ele>38.137448</ele>
        <time>2024-07-27T12:47:58.545Z</time>
      </trkpt>
      <trkpt lat="54.11171" lon="15.15284">
        <ele>38.036379</ele>
        <time>2024-07-27T12:48:00.542Z</time>
      </trkpt>
      <trkpt lat="54.11179" lon="15.15293">
        <ele>37.931851</ele>
        <time>2024-07-27T12:48:02.564Z</time>
      </trkpt>
      <trkpt lat="54.1119" lon="15.15306">
        <ele>37.786932</ele>
        <time>2024-07-27T12:48:05.552Z</time>
      </trkpt>
      <trkpt lat="54.11199" lon="15.15319">
        <ele>37.650729</ele>
        <time>2024-07-27T12:48:08.540Z</time>
      </trkpt>
      <trkpt lat="54.1121" lon="15.15331">
        <ele>37.508939</ele>
        <time>2024-07-27T12:48:11.534Z</time>
      </trkpt>
      <trkpt lat="54.11218" lon="15.1534">
        <ele>37.405912</ele>
        <time>2024-07-27T12:48:13.544Z</time>
      </trkpt>
      <trkpt lat="54.11227" lon="15.15353">
        <ele>37.273215</ele>
        <time>2024-07-27T12:48:16.552Z</time>
      </trkpt>
      <trkpt lat="54.11237" lon="15.15365">
        <ele>37.145412</ele>
        <time>2024-07-27T12:48:19.546Z</time>
      </trkpt>
      <trkpt lat="54.11244" lon="15.15379">
        <ele>37.019952</ele>
        <time>2024-07-27T12:48:22.535Z</time>
      </trkpt>
      <trkpt lat="54.11251" lon="15.15395">
        <ele>36.897551</ele>
        <time>2024-07-27T12:48:25.544Z</time>
      </trkpt>
      <trkpt lat="54.11255" lon="15.15411">
        <ele>36.777367</ele>
        <time>2024-07-27T12:48:28.553Z</time>
      </trkpt>
      <trkpt lat="54.11259" lon="15.15431">
        <ele>36.661895</ele>
        <time>2024-07-27T12:48:31.558Z</time>
      </trkpt>
      <trkpt lat="54.11262" lon="15.1545">
        <ele>36.613282</ele>
        <time>2024-07-27T12:48:34.548Z</time>
      </trkpt>
      <trkpt lat="54.11266" lon="15.15469">
        <ele>36.566131</ele>
        <time>2024-07-27T12:48:37.521Z</time>
      </trkpt>
      <trkpt lat="54.11269" lon="15.15487">
        <ele>36.519824</ele>
        <time>2024-07-27T12:48:40.543Z</time>
      </trkpt>
      <trkpt lat="54.11273" lon="15.15505">
        <ele>36.473748</ele>
        <time>2024-07-27T12:48:43.561Z</time>
      </trkpt>
      <trkpt lat="54.11276" lon="15.15526">
        <ele>36.422244</ele>
        <time>2024-07-27T12:48:46.545Z</time>
      </trkpt>
      <trkpt lat="54.11279" lon="15.15545">
        <ele>36.373749</ele>
        <time>2024-07-27T12:48:49.545Z</time>
      </trkpt>
      <trkpt lat="54.11283" lon="15.15565">
        <ele>36.323275</ele>
        <time>2024-07-27T12:48:52.563Z</time>
      </trkpt>
      <trkpt lat="54.11287" lon="15.15585">
        <ele>36.273214</ele>
        <time>2024-07-27T12:48:55.549Z</time>
      </trkpt>
      <trkpt lat="54.1129" lon="15.15603">
        <ele>36.22825</ele>
        <time>2024-07-27T12:48:58.528Z</time>
      </trkpt>
      <trkpt lat="54.11293" lon="15.1562">
        <ele>36.184283</ele>
        <time>2024-07-27T12:49:01.544Z</time>
      </trkpt>
      <trkpt lat="54.11296" lon="15.15637">
        <ele>36.141362</ele>
        <time>2024-07-27T12:49:04.531Z</time>
      </trkpt>
      <trkpt lat="54.113" lon="15.15653">
        <ele>36.100322</ele>
        <time>2024-07-27T12:49:07.556Z</time>
      </trkpt>
      <trkpt lat="54.11304" lon="15.15669">
        <ele>36.058586</ele>
        <time>2024-07-27T12:49:10.558Z</time>
      </trkpt>
      <trkpt lat="54.11308" lon="15.15687">
        <ele>36.011988</ele>
        <time>2024-07-27T12:49:14.548Z</time>
      </trkpt>
      <trkpt lat="54.11313" lon="15.15705">
        <ele>35.9645</ele>
        <time>2024-07-27T12:49:18.542Z</time>
      </trkpt>
      <trkpt lat="54.11316" lon="15.15724">
        <ele>35.931324</ele>
        <time>2024-07-27T12:49:22.564Z</time>
      </trkpt>
      <trkpt lat="54.1132" lon="15.15742">
        <ele>35.929976</ele>
        <time>2024-07-27T12:49:26.565Z</time>
      </trkpt>
      <trkpt lat="54.11323" lon="15.15757">
        <ele>35.928894</ele>
        <time>2024-07-27T12:49:29.571Z</time>
      </trkpt>
      <trkpt lat="54.11327" lon="15.15772">
        <ele>35.927806</ele>
        <time>2024-07-27T12:49:32.554Z</time>
      </trkpt>
      <trkpt lat="54.1133" lon="15.15787">
        <ele>35.926703</ele>
        <time>2024-07-27T12:49:35.549Z</time>
      </trkpt>
      <trkpt lat="54.11334" lon="15.15806">
        <ele>35.925352</ele>
        <time>2024-07-27T12:49:39.544Z</time>
      </trkpt>
      <trkpt lat="54.11338" lon="15.15821">
        <ele>35.924225</ele>
        <time>2024-07-27T12:49:42.520Z</time>
      </trkpt>
      <trkpt lat="54.1134" lon="15.15836">
        <ele>35.923122</ele>
        <time>2024-07-27T12:49:45.539Z</time>
      </trkpt>
      <trkpt lat="54.11344" lon="15.15853">
        <ele>35.921908</ele>
        <time>2024-07-27T12:49:48.544Z</time>
      </trkpt>
      <trkpt lat="54.11346" lon="15.15869">
        <ele>35.920748</ele>
        <time>2024-07-27T12:49:51.542Z</time>
      </trkpt>
      <trkpt lat="54.11349" lon="15.15885">
        <ele>35.919644</ele>
        <time>2024-07-27T12:49:54.537Z</time>
      </trkpt>
      <trkpt lat="54.11353" lon="15.15901">
        <ele>35.918442</ele>
        <time>2024-07-27T12:49:57.549Z</time>
      </trkpt>
      <trkpt lat="54.11357" lon="15.15917">
        <ele>35.917205</ele>
        <time>2024-07-27T12:50:00.538Z</time>
      </trkpt>
      <trkpt lat="54.11361" lon="15.15934">
        <ele>35.915985</ele>
        <time>2024-07-27T12:50:03.553Z</time>
      </trkpt>
      <trkpt lat="54.11366" lon="15.1595">
        <ele>35.914749</ele>
        <time>2024-07-27T12:50:06.535Z</time>
      </trkpt>
      <trkpt lat="54.11369" lon="15.15968">
        <ele>35.913471</ele>
        <time>2024-07-27T12:50:09.563Z</time>
      </trkpt>
      <trkpt lat="54.11372" lon="15.15983">
        <ele>35.912341</ele>
        <time>2024-07-27T12:50:12.549Z</time>
      </trkpt>
      <trkpt lat="54.11377" lon="15.15998">
        <ele>35.91121</ele>
        <time>2024-07-27T12:50:15.541Z</time>
      </trkpt>
      <trkpt lat="54.11382" lon="15.16013">
        <ele>35.991795</ele>
        <time>2024-07-27T12:50:18.544Z</time>
      </trkpt>
      <trkpt lat="54.11386" lon="15.16029">
        <ele>36.126381</ele>
        <time>2024-07-27T12:50:21.546Z</time>
      </trkpt>
      <trkpt lat="54.11389" lon="15.16046">
        <ele>36.261269</ele>
        <time>2024-07-27T12:50:24.562Z</time>
      </trkpt>
      <trkpt lat="54.11393" lon="15.16064">
        <ele>36.401388</ele>
        <time>2024-07-27T12:50:28.555Z</time>
      </trkpt>
      <trkpt lat="54.11397" lon="15.16083">
        <ele>36.55593</ele>
        <time>2024-07-27T12:50:32.545Z</time>
      </trkpt>
      <trkpt lat="54.114" lon="15.16098">
        <ele>36.681503</ele>
        <time>2024-07-27T12:50:35.545Z</time>
      </trkpt>
      <trkpt lat="54.11403" lon="15.16113">
        <ele>36.800066</ele>
        <time>2024-07-27T12:50:38.540Z</time>
      </trkpt>
      <trkpt lat="54.11405" lon="15.16128">
        <ele>36.917977</ele>
        <time>2024-07-27T12:50:41.553Z</time>
      </trkpt>
      <trkpt lat="54.11408" lon="15.16143">
        <ele>37.038995</ele>
        <time>2024-07-27T12:50:44.557Z</time>
      </trkpt>
      <trkpt lat="54.11412" lon="15.16158">
        <ele>37.157689</ele>
        <time>2024-07-27T12:50:47.549Z</time>
      </trkpt>
      <trkpt lat="54.11415" lon="15.16173">
        <ele>37.28324</ele>
        <time>2024-07-27T12:50:50.554Z</time>
      </trkpt>
      <trkpt lat="54.1142" lon="15.1619">
        <ele>37.426347</ele>
        <time>2024-07-27T12:50:54.554Z</time>
      </trkpt>
      <trkpt lat="54.11425" lon="15.16207">
        <ele>37.571535</ele>
        <time>2024-07-27T12:50:58.548Z</time>
      </trkpt>
      <trkpt lat="54.11428" lon="15.16226">
        <ele>37.723577</ele>
        <time>2024-07-27T12:51:02.548Z</time>
      </trkpt>
      <trkpt lat="54.11432" lon="15.16244">
        <ele>37.868501</ele>
        <time>2024-07-27T12:51:06.546Z</time>
      </trkpt>
      <trkpt lat="54.11436" lon="15.16263">
        <ele>38.013309</ele>
        <time>2024-07-27T12:51:10.547Z</time>
      </trkpt>
      <trkpt lat="54.11439" lon="15.16277">
        <ele>38.133616</ele>
        <time>2024-07-27T12:51:14.526Z</time>
      </trkpt>
      <trkpt lat="54.11444" lon="15.16291">
        <ele>38.235452</ele>
        <time>2024-07-27T12:51:18.531Z</time>
      </trkpt>
      <trkpt lat="54.1145" lon="15.16308">
        <ele>38.18562</ele>
        <time>2024-07-27T12:51:23.546Z</time>
      </trkpt>
      <trkpt lat="54.11453" lon="15.16322">
        <ele>38.144222</ele>
        <time>2024-07-27T12:51:27.561Z</time>
      </trkpt>
      <trkpt lat="54.11459" lon="15.16334">
        <ele>38.103131</ele>
        <time>2024-07-27T12:51:31.555Z</time>
      </trkpt>
      <trkpt lat="54.11462" lon="15.16349">
        <ele>38.061918</ele>
        <time>2024-07-27T12:51:35.546Z</time>
      </trkpt>
      <trkpt lat="54.11465" lon="15.16363">
        <ele>38.020697</ele>
        <time>2024-07-27T12:51:40.540Z</time>
      </trkpt>
      <trkpt lat="54.1147" lon="15.16379">
        <ele>37.972615</ele>
        <time>2024-07-27T12:51:46.540Z</time>
      </trkpt>
      <trkpt lat="54.11477" lon="15.16399">
        <ele>37.910636</ele>
        <time>2024-07-27T12:53:52.565Z</time>
      </trkpt>
      <trkpt lat="54.11483" lon="15.16413">
        <ele>37.865805</ele>
        <time>2024-07-27T12:53:56.524Z</time>
      </trkpt>
      <trkpt lat="54.11488" lon="15.16429">
        <ele>37.816233</ele>
        <time>2024-07-27T12:54:01.543Z</time>
      </trkpt>
      <trkpt lat="54.11492" lon="15.16444">
        <ele>37.77293</ele>
        <time>2024-07-27T12:54:05.541Z</time>
      </trkpt>
      <trkpt lat="54.11497" lon="15.16459">
        <ele>37.726804</ele>
        <time>2024-07-27T12:54:09.563Z</time>
      </trkpt>
      <trkpt lat="54.11503" lon="15.16475">
        <ele>37.678357</ele>
        <time>2024-07-27T12:54:13.565Z</time>
      </trkpt>
      <trkpt lat="54.11508" lon="15.1649">
        <ele>37.631044</ele>
        <time>2024-07-27T12:54:17.552Z</time>
      </trkpt>
      <trkpt lat="54.11514" lon="15.16507">
        <ele>37.578011</ele>
        <time>2024-07-27T12:54:21.545Z</time>
      </trkpt>
      <trkpt lat="54.1152" lon="15.16524">
        <ele>37.526128</ele>
        <time>2024-07-27T12:54:25.544Z</time>
      </trkpt>
      <trkpt lat="54.11526" lon="15.16536">
        <ele>37.483877</ele>
        <time>2024-07-27T12:54:28.646Z</time>
      </trkpt>
      <trkpt lat="54.11533" lon="15.16552">
        <ele>37.430982</ele>
        <time>2024-07-27T12:54:32.531Z</time>
      </trkpt>
      <trkpt lat="54.11537" lon="15.16569">
        <ele>37.483351</ele>
        <time>2024-07-27T12:54:36.540Z</time>
      </trkpt>
      <trkpt lat="54.11542" lon="15.16585">
        <ele>37.547176</ele>
        <time>2024-07-27T12:54:40.541Z</time>
      </trkpt>
      <trkpt lat="54.11547" lon="15.16599">
        <ele>37.606108</ele>
        <time>2024-07-27T12:54:44.520Z</time>
      </trkpt>
      <trkpt lat="54.11551" lon="15.16614">
        <ele>37.66396</ele>
        <time>2024-07-27T12:54:48.565Z</time>
      </trkpt>
      <trkpt lat="54.11556" lon="15.1663">
        <ele>37.728453</ele>
        <time>2024-07-27T12:54:52.553Z</time>
      </trkpt>
      <trkpt lat="54.11562" lon="15.16646">
        <ele>37.793895</ele>
        <time>2024-07-27T12:54:56.702Z</time>
      </trkpt>
      <trkpt lat="54.11568" lon="15.16663">
        <ele>37.86341</ele>
        <time>2024-07-27T12:55:00.570Z</time>
      </trkpt>
      <trkpt lat="54.11574" lon="15.16679">
        <ele>37.932959</ele>
        <time>2024-07-27T12:55:04.546Z</time>
      </trkpt>
      <trkpt lat="54.1158" lon="15.16696">
        <ele>37.999446</ele>
        <time>2024-07-27T12:55:08.560Z</time>
      </trkpt>
      <trkpt lat="54.11584" lon="15.16711">
        <ele>38.057027</ele>
        <time>2024-07-27T12:55:12.540Z</time>
      </trkpt>
      <trkpt lat="54.11587" lon="15.16725">
        <ele>38.112267</ele>
        <time>2024-07-27T12:55:16.554Z</time>
      </trkpt>
      <trkpt lat="54.11591" lon="15.16741">
        <ele>38.173381</ele>
        <time>2024-07-27T12:55:20.528Z</time>
      </trkpt>
      <trkpt lat="54.11598" lon="15.16758">
        <ele>38.242015</ele>
        <time>2024-07-27T12:55:24.549Z</time>
      </trkpt>
      <trkpt lat="54.11603" lon="15.16774">
        <ele>38.309116</ele>
        <time>2024-07-27T12:55:28.529Z</time>
      </trkpt>
      <trkpt lat="54.1161" lon="15.1679">
        <ele>38.376597</ele>
        <time>2024-07-27T12:55:32.532Z</time>
      </trkpt>
      <trkpt lat="54.11616" lon="15.16806">
        <ele>38.445878</ele>
        <time>2024-07-27T12:55:36.539Z</time>
      </trkpt>
      <trkpt lat="54.11621" lon="15.16822">
        <ele>38.506444</ele>
        <time>2024-07-27T12:55:40.542Z</time>
      </trkpt>
      <trkpt lat="54.11625" lon="15.16838">
        <ele>38.55668</ele>
        <time>2024-07-27T12:55:44.543Z</time>
      </trkpt>
      <trkpt lat="54.11628" lon="15.16853">
        <ele>38.601727</ele>
        <time>2024-07-27T12:55:48.551Z</time>
      </trkpt>
      <trkpt lat="54.11628" lon="15.1687">
        <ele>38.650089</ele>
        <time>2024-07-27T12:55:52.535Z</time>
      </trkpt>
      <trkpt lat="54.11628" lon="15.16888">
        <ele>38.700686</ele>
        <time>2024-07-27T12:55:56.551Z</time>
      </trkpt>
      <trkpt lat="54.11628" lon="15.16907">
        <ele>38.75212</ele>
        <time>2024-07-27T12:56:00.522Z</time>
      </trkpt>
      <trkpt lat="54.11627" lon="15.16925">
        <ele>38.802293</ele>
        <time>2024-07-27T12:56:04.531Z</time>
      </trkpt>
      <trkpt lat="54.11628" lon="15.16944">
        <ele>38.857116</ele>
        <time>2024-07-27T12:56:08.549Z</time>
      </trkpt>
      <trkpt lat="54.11627" lon="15.16963">
        <ele>38.911569</ele>
        <time>2024-07-27T12:56:12.543Z</time>
      </trkpt>
      <trkpt lat="54.11626" lon="15.16983">
        <ele>38.966023</ele>
        <time>2024-07-27T12:56:16.537Z</time>
      </trkpt>
      <trkpt lat="54.11626" lon="15.17001">
        <ele>39.018633</ele>
        <time>2024-07-27T12:56:20.531Z</time>
      </trkpt>
      <trkpt lat="54.11627" lon="15.17019">
        <ele>39.067314</ele>
        <time>2024-07-27T12:56:24.553Z</time>
      </trkpt>
      <trkpt lat="54.11626" lon="15.17038">
        <ele>39.123409</ele>
        <time>2024-07-27T12:56:28.541Z</time>
      </trkpt>
      <trkpt lat="54.11626" lon="15.17059">
        <ele>39.181031</ele>
        <time>2024-07-27T12:56:32.529Z</time>
      </trkpt>
      <trkpt lat="54.11626" lon="15.17075">
        <ele>39.22629</ele>
        <time>2024-07-27T12:56:35.546Z</time>
      </trkpt>
      <trkpt lat="54.11625" lon="15.17094">
        <ele>39.280355</ele>
        <time>2024-07-27T12:56:39.546Z</time>
      </trkpt>
      <trkpt lat="54.11624" lon="15.17112">
        <ele>39.331777</ele>
        <time>2024-07-27T12:56:43.527Z</time>
      </trkpt>
      <trkpt lat="54.11624" lon="15.17133">
        <ele>39.335826</ele>
        <time>2024-07-27T12:56:47.554Z</time>
      </trkpt>
      <trkpt lat="54.11624" lon="15.17149">
        <ele>39.270556</ele>
        <time>2024-07-27T12:56:50.552Z</time>
      </trkpt>
      <trkpt lat="54.11624" lon="15.17168">
        <ele>39.190732</ele>
        <time>2024-07-27T12:56:54.521Z</time>
      </trkpt>
      <trkpt lat="54.11624" lon="15.17184">
        <ele>39.122158</ele>
        <time>2024-07-27T12:56:57.534Z</time>
      </trkpt>
      <trkpt lat="54.11623" lon="15.17201">
        <ele>39.05029</ele>
        <time>2024-07-27T12:57:00.528Z</time>
      </trkpt>
      <trkpt lat="54.11623" lon="15.1722">
        <ele>38.972137</ele>
        <time>2024-07-27T12:57:04.519Z</time>
      </trkpt>
      <trkpt lat="54.11623" lon="15.17239">
        <ele>38.893148</ele>
        <time>2024-07-27T12:57:08.545Z</time>
      </trkpt>
      <trkpt lat="54.11624" lon="15.17257">
        <ele>38.814973</ele>
        <time>2024-07-27T12:57:12.550Z</time>
      </trkpt>
      <trkpt lat="54.11624" lon="15.17278">
        <ele>38.730162</ele>
        <time>2024-07-27T12:57:16.543Z</time>
      </trkpt>
      <trkpt lat="54.11623" lon="15.17294">
        <ele>38.663274</ele>
        <time>2024-07-27T12:57:19.537Z</time>
      </trkpt>
      <trkpt lat="54.11623" lon="15.17313">
        <ele>38.581391</ele>
        <time>2024-07-27T12:57:23.551Z</time>
      </trkpt>
      <trkpt lat="54.11623" lon="15.17333">
        <ele>38.498644</ele>
        <time>2024-07-27T12:57:27.551Z</time>
      </trkpt>
      <trkpt lat="54.11622" lon="15.17353">
        <ele>38.413728</ele>
        <time>2024-07-27T12:57:31.554Z</time>
      </trkpt>
      <trkpt lat="54.11624" lon="15.17372">
        <ele>38.336734</ele>
        <time>2024-07-27T12:57:35.552Z</time>
      </trkpt>
      <trkpt lat="54.11624" lon="15.17388">
        <ele>38.269287</ele>
        <time>2024-07-27T12:57:39.535Z</time>
      </trkpt>
      <trkpt lat="54.11624" lon="15.17403">
        <ele>38.205269</ele>
        <time>2024-07-27T12:57:42.520Z</time>
      </trkpt>
      <trkpt lat="54.11624" lon="15.17422">
        <ele>38.12547</ele>
        <time>2024-07-27T12:57:46.541Z</time>
      </trkpt>
      <trkpt lat="54.11624" lon="15.17442">
        <ele>38.054873</ele>
        <time>2024-07-27T12:57:50.539Z</time>
      </trkpt>
      <trkpt lat="54.11624" lon="15.17461">
        <ele>38.001158</ele>
        <time>2024-07-27T12:57:54.537Z</time>
      </trkpt>
      <trkpt lat="54.11626" lon="15.17478">
        <ele>37.951652</ele>
        <time>2024-07-27T12:57:58.539Z</time>
      </trkpt>
      <trkpt lat="54.11628" lon="15.17495">
        <ele>37.902689</ele>
        <time>2024-07-27T12:58:02.534Z</time>
      </trkpt>
      <trkpt lat="54.11631" lon="15.17515">
        <ele>37.844503</ele>
        <time>2024-07-27T12:58:06.546Z</time>
      </trkpt>
      <trkpt lat="54.11634" lon="15.17535">
        <ele>37.788278</ele>
        <time>2024-07-27T12:58:10.536Z</time>
      </trkpt>
      <trkpt lat="54.11637" lon="15.17552">
        <ele>37.736049</ele>
        <time>2024-07-27T12:58:14.529Z</time>
      </trkpt>
      <trkpt lat="54.11642" lon="15.1757">
        <ele>37.679584</ele>
        <time>2024-07-27T12:58:18.578Z</time>
      </trkpt>
      <trkpt lat="54.11647" lon="15.17587">
        <ele>37.625693</ele>
        <time>2024-07-27T12:58:22.556Z</time>
      </trkpt>
      <trkpt lat="54.11652" lon="15.17604">
        <ele>37.572375</ele>
        <time>2024-07-27T12:58:26.548Z</time>
      </trkpt>
      <trkpt lat="54.11658" lon="15.17618">
        <ele>37.522906</ele>
        <time>2024-07-27T12:58:30.534Z</time>
      </trkpt>
      <trkpt lat="54.11664" lon="15.17633">
        <ele>37.470434</ele>
        <time>2024-07-27T12:58:34.544Z</time>
      </trkpt>
      <trkpt lat="54.11672" lon="15.17646">
        <ele>37.41698</ele>
        <time>2024-07-27T12:58:38.526Z</time>
      </trkpt>
      <trkpt lat="54.11679" lon="15.17658">
        <ele>37.36702</ele>
        <time>2024-07-27T12:58:42.528Z</time>
      </trkpt>
      <trkpt lat="54.11687" lon="15.17671">
        <ele>37.315341</ele>
        <time>2024-07-27T12:58:46.599Z</time>
      </trkpt>
      <trkpt lat="54.11694" lon="15.17681">
        <ele>37.270139</ele>
        <time>2024-07-27T12:58:50.521Z</time>
      </trkpt>
      <trkpt lat="54.11703" lon="15.17691">
        <ele>37.220816</ele>
        <time>2024-07-27T12:58:54.550Z</time>
      </trkpt>
      <trkpt lat="54.1171" lon="15.17703">
        <ele>37.372756</ele>
        <time>2024-07-27T12:58:58.557Z</time>
      </trkpt>
      <trkpt lat="54.11719" lon="15.17714">
        <ele>37.556489</ele>
        <time>2024-07-27T12:59:02.628Z</time>
      </trkpt>
      <trkpt lat="54.11728" lon="15.17723">
        <ele>37.74737</ele>
        <time>2024-07-27T12:59:06.522Z</time>
      </trkpt>
      <trkpt lat="54.11736" lon="15.17738">
        <ele>37.940898</ele>
        <time>2024-07-27T12:59:11.520Z</time>
      </trkpt>
      <trkpt lat="54.11742" lon="15.17749">
        <ele>38.096482</ele>
        <time>2024-07-27T12:59:15.543Z</time>
      </trkpt>
      <trkpt lat="54.11749" lon="15.17759">
        <ele>38.258323</ele>
        <time>2024-07-27T12:59:19.540Z</time>
      </trkpt>
      <trkpt lat="54.11758" lon="15.1777">
        <ele>38.440147</ele>
        <time>2024-07-27T12:59:23.534Z</time>
      </trkpt>
      <trkpt lat="54.11766" lon="15.17781">
        <ele>38.623156</ele>
        <time>2024-07-27T12:59:27.553Z</time>
      </trkpt>
      <trkpt lat="54.11773" lon="15.17792">
        <ele>38.792365</ele>
        <time>2024-07-27T12:59:31.547Z</time>
      </trkpt>
      <trkpt lat="54.11782" lon="15.17801">
        <ele>38.966308</ele>
        <time>2024-07-27T12:59:36.534Z</time>
      </trkpt>
      <trkpt lat="54.1179" lon="15.17812">
        <ele>39.144454</ele>
        <time>2024-07-27T12:59:41.550Z</time>
      </trkpt>
      <trkpt lat="54.11799" lon="15.17824">
        <ele>39.338584</ele>
        <time>2024-07-27T12:59:46.529Z</time>
      </trkpt>
      <trkpt lat="54.11806" lon="15.17835">
        <ele>39.500508</ele>
        <time>2024-07-27T12:59:50.537Z</time>
      </trkpt>
      <trkpt lat="54.11814" lon="15.17848">
        <ele>39.690858</ele>
        <time>2024-07-27T12:59:55.550Z</time>
      </trkpt>
      <trkpt lat="54.1182" lon="15.17864">
        <ele>39.884666</ele>
        <time>2024-07-27T13:00:00.538Z</time>
      </trkpt>
      <trkpt lat="54.11826" lon="15.17876">
        <ele>40.041807</ele>
        <time>2024-07-27T13:00:04.532Z</time>
      </trkpt>
      <trkpt lat="54.11829" lon="15.1789">
        <ele>40.198049</ele>
        <time>2024-07-27T13:00:08.539Z</time>
      </trkpt>
      <trkpt lat="54.11834" lon="15.17908">
        <ele>40.30578</ele>
        <time>2024-07-27T13:00:13.531Z</time>
      </trkpt>
      <trkpt lat="54.11838" lon="15.17921">
        <ele>40.285285</ele>
        <time>2024-07-27T13:00:17.542Z</time>
      </trkpt>
      <trkpt lat="54.11841" lon="15.17937">
        <ele>40.264005</ele>
        <time>2024-07-27T13:00:21.542Z</time>
      </trkpt>
      <trkpt lat="54.11845" lon="15.17952">
        <ele>40.24282</ele>
        <time>2024-07-27T13:00:25.544Z</time>
      </trkpt>
      <trkpt lat="54.11848" lon="15.17967">
        <ele>40.221472</ele>
        <time>2024-07-27T13:00:29.545Z</time>
      </trkpt>
      <trkpt lat="54.11851" lon="15.17985">
        <ele>40.196268</ele>
        <time>2024-07-27T13:00:34.528Z</time>
      </trkpt>
      <trkpt lat="54.11854" lon="15.18">
        <ele>40.175101</ele>
        <time>2024-07-27T13:00:38.548Z</time>
      </trkpt>
      <trkpt lat="54.11858" lon="15.18015">
        <ele>40.153472</ele>
        <time>2024-07-27T13:00:42.540Z</time>
      </trkpt>
      <trkpt lat="54.11862" lon="15.1803">
        <ele>40.132327</ele>
        <time>2024-07-27T13:00:46.544Z</time>
      </trkpt>
      <trkpt lat="54.11866" lon="15.18045">
        <ele>40.110088</ele>
        <time>2024-07-27T13:00:51.542Z</time>
      </trkpt>
      <trkpt lat="54.11871" lon="15.18058">
        <ele>40.089552</ele>
        <time>2024-07-27T13:01:00.537Z</time>
      </trkpt>
      <trkpt lat="54.11875" lon="15.18072">
        <ele>40.069264</ele>
        <time>2024-07-27T13:02:29.542Z</time>
      </trkpt>
      <trkpt lat="54.1188" lon="15.18085">
        <ele>40.048312</ele>
        <time>2024-07-27T13:02:34.536Z</time>
      </trkpt>
      <trkpt lat="54.11884" lon="15.18102">
        <ele>40.024571</ele>
        <time>2024-07-27T13:02:40.544Z</time>
      </trkpt>
      <trkpt lat="54.11888" lon="15.18117">
        <ele>40.003155</ele>
        <time>2024-07-27T13:02:45.550Z</time>
      </trkpt>
      <trkpt lat="54.1189" lon="15.18132">
        <ele>39.982802</ele>
        <time>2024-07-27T13:02:51.546Z</time>
      </trkpt>
      <trkpt lat="54.11896" lon="15.18146">
        <ele>39.959161</ele>
        <time>2024-07-27T13:02:57.528Z</time>
      </trkpt>
      <trkpt lat="54.11902" lon="15.18162">
        <ele>39.9349</ele>
        <time>2024-07-27T13:03:03.536Z</time>
      </trkpt>
      <trkpt lat="54.11907" lon="15.1818">
        <ele>39.908414</ele>
        <time>2024-07-27T13:03:08.621Z</time>
      </trkpt>
      <trkpt lat="54.11911" lon="15.18197">
        <ele>39.884071</ele>
        <time>2024-07-27T13:03:12.537Z</time>
      </trkpt>
      <trkpt lat="54.11914" lon="15.18213">
        <ele>39.861067</ele>
        <time>2024-07-27T13:03:16.551Z</time>
      </trkpt>
      <trkpt lat="54.11919" lon="15.1823">
        <ele>39.836172</ele>
        <time>2024-07-27T13:03:20.531Z</time>
      </trkpt>
      <trkpt lat="54.11924" lon="15.18249">
        <ele>39.808651</ele>
        <time>2024-07-27T13:03:24.552Z</time>
      </trkpt>
      <trkpt lat="54.11927" lon="15.18264">
        <ele>39.787269</ele>
        <time>2024-07-27T13:03:27.543Z</time>
      </trkpt>
      <trkpt lat="54.11931" lon="15.1828">
        <ele>39.764619</ele>
        <time>2024-07-27T13:03:30.535Z</time>
      </trkpt>
      <trkpt lat="54.11934" lon="15.18295">
        <ele>39.74243</ele>
        <time>2024-07-27T13:03:33.555Z</time>
      </trkpt>
      <trkpt lat="54.11938" lon="15.18312">
        <ele>39.719353</ele>
        <time>2024-07-27T13:03:36.546Z</time>
      </trkpt>
      <trkpt lat="54.11942" lon="15.18328">
        <ele>39.695591</ele>
        <time>2024-07-27T13:03:39.584Z</time>
      </trkpt>
      <trkpt lat="54.11947" lon="15.18343">
        <ele>39.673742</ele>
        <time>2024-07-27T13:03:42.532Z</time>
      </trkpt>
      <trkpt lat="54.1195" lon="15.18359">
        <ele>39.65059</ele>
        <time>2024-07-27T13:03:45.542Z</time>
      </trkpt>
      <trkpt lat="54.11955" lon="15.18375">
        <ele>39.626669</ele>
        <time>2024-07-27T13:03:48.544Z</time>
      </trkpt>
      <trkpt lat="54.11958" lon="15.1839">
        <ele>39.604519</ele>
        <time>2024-07-27T13:03:51.542Z</time>
      </trkpt>
      <trkpt lat="54.11962" lon="15.18406">
        <ele>39.582222</ele>
        <time>2024-07-27T13:03:54.557Z</time>
      </trkpt>
      <trkpt lat="54.11966" lon="15.18422">
        <ele>39.558694</ele>
        <time>2024-07-27T13:03:57.545Z</time>
      </trkpt>
      <trkpt lat="54.1197" lon="15.18439">
        <ele>39.535332</ele>
        <time>2024-07-27T13:04:00.536Z</time>
      </trkpt>
      <trkpt lat="54.11973" lon="15.18453">
        <ele>39.514755</ele>
        <time>2024-07-27T13:04:03.537Z</time>
      </trkpt>
      <trkpt lat="54.11977" lon="15.18467">
        <ele>39.504611</ele>
        <time>2024-07-27T13:04:06.554Z</time>
      </trkpt>
      <trkpt lat="54.11979" lon="15.18483">
        <ele>39.510559</ele>
        <time>2024-07-27T13:04:11.546Z</time>
      </trkpt>
      <trkpt lat="54.11984" lon="15.18498">
        <ele>39.516669</ele>
        <time>2024-07-27T13:04:17.555Z</time>
      </trkpt>
      <trkpt lat="54.11988" lon="15.18513">
        <ele>39.522542</ele>
        <time>2024-07-27T13:04:21.556Z</time>
      </trkpt>
      <trkpt lat="54.11991" lon="15.18528">
        <ele>39.528433</ele>
        <time>2024-07-27T13:04:25.549Z</time>
      </trkpt>
      <trkpt lat="54.11996" lon="15.18545">
        <ele>39.534992</ele>
        <time>2024-07-27T13:04:30.525Z</time>
      </trkpt>
      <trkpt lat="54.12" lon="15.1856">
        <ele>39.541134</ele>
        <time>2024-07-27T13:04:34.559Z</time>
      </trkpt>
      <trkpt lat="54.12002" lon="15.18575">
        <ele>39.546715</ele>
        <time>2024-07-27T13:04:38.561Z</time>
      </trkpt>
      <trkpt lat="54.12005" lon="15.18591">
        <ele>39.552805</ele>
        <time>2024-07-27T13:05:44.539Z</time>
      </trkpt>
      <trkpt lat="54.1201" lon="15.18608">
        <ele>39.559729</ele>
        <time>2024-07-27T13:05:49.553Z</time>
      </trkpt>
      <trkpt lat="54.12015" lon="15.18624">
        <ele>39.566157</ele>
        <time>2024-07-27T13:05:53.551Z</time>
      </trkpt>
      <trkpt lat="54.12018" lon="15.18641">
        <ele>39.572642</ele>
        <time>2024-07-27T13:05:57.547Z</time>
      </trkpt>
      <trkpt lat="54.12023" lon="15.18655">
        <ele>39.578411</ele>
        <time>2024-07-27T13:06:01.549Z</time>
      </trkpt>
      <trkpt lat="54.12027" lon="15.18671">
        <ele>39.58493</ele>
        <time>2024-07-27T13:06:05.533Z</time>
      </trkpt>
      <trkpt lat="54.1203" lon="15.18689">
        <ele>39.591693</ele>
        <time>2024-07-27T13:06:09.556Z</time>
      </trkpt>
      <trkpt lat="54.12034" lon="15.18708">
        <ele>39.598899</ele>
        <time>2024-07-27T13:06:13.549Z</time>
      </trkpt>
      <trkpt lat="54.12038" lon="15.18725">
        <ele>39.6054</ele>
        <time>2024-07-27T13:06:17.556Z</time>
      </trkpt>
      <trkpt lat="54.12043" lon="15.18742">
        <ele>39.612356</ele>
        <time>2024-07-27T13:06:21.564Z</time>
      </trkpt>
      <trkpt lat="54.12047" lon="15.18759">
        <ele>39.679894</ele>
        <time>2024-07-27T13:06:25.564Z</time>
      </trkpt>
      <trkpt lat="54.12051" lon="15.18774">
        <ele>39.75266</ele>
        <time>2024-07-27T13:06:29.540Z</time>
      </trkpt>
      <trkpt lat="54.12053" lon="15.18791">
        <ele>39.828508</ele>
        <time>2024-07-27T13:06:34.559Z</time>
      </trkpt>
      <trkpt lat="54.12055" lon="15.18807">
        <ele>39.898171</ele>
        <time>2024-07-27T13:06:38.535Z</time>
      </trkpt>
      <trkpt lat="54.1206" lon="15.18823">
        <ele>39.973552</ele>
        <time>2024-07-27T13:06:42.544Z</time>
      </trkpt>
      <trkpt lat="54.12064" lon="15.18841">
        <ele>40.054533</ele>
        <time>2024-07-27T13:06:47.550Z</time>
      </trkpt>
      <trkpt lat="54.12067" lon="15.18858">
        <ele>40.131471</ele>
        <time>2024-07-27T13:06:51.552Z</time>
      </trkpt>
      <trkpt lat="54.12071" lon="15.18873">
        <ele>40.203016</ele>
        <time>2024-07-27T13:06:55.516Z</time>
      </trkpt>
      <trkpt lat="54.12075" lon="15.18891">
        <ele>40.285459</ele>
        <time>2024-07-27T13:06:59.544Z</time>
      </trkpt>
      <trkpt lat="54.1208" lon="15.18906">
        <ele>40.359365</ele>
        <time>2024-07-27T13:07:03.556Z</time>
      </trkpt>
      <trkpt lat="54.12082" lon="15.18924">
        <ele>40.438218</ele>
        <time>2024-07-27T13:07:07.547Z</time>
      </trkpt>
      <trkpt lat="54.12086" lon="15.18939">
        <ele>40.508483</ele>
        <time>2024-07-27T13:07:11.545Z</time>
      </trkpt>
      <trkpt lat="54.12089" lon="15.18955">
        <ele>40.581506</ele>
        <time>2024-07-27T13:07:15.540Z</time>
      </trkpt>
      <trkpt lat="54.12094" lon="15.1897">
        <ele>40.654932</ele>
        <time>2024-07-27T13:07:19.543Z</time>
      </trkpt>
      <trkpt lat="54.12097" lon="15.18989">
        <ele>40.735388</ele>
        <time>2024-07-27T13:07:23.541Z</time>
      </trkpt>
      <trkpt lat="54.121" lon="15.19008">
        <ele>40.820896</ele>
        <time>2024-07-27T13:07:27.544Z</time>
      </trkpt>
      <trkpt lat="54.12101" lon="15.19026">
        <ele>40.897473</ele>
        <time>2024-07-27T13:07:31.555Z</time>
      </trkpt>
      <trkpt lat="54.12103" lon="15.19045">
        <ele>40.884122</ele>
        <time>2024-07-27T13:07:35.552Z</time>
      </trkpt>
      <trkpt lat="54.12103" lon="15.19063">
        <ele>40.824446</ele>
        <time>2024-07-27T13:07:39.547Z</time>
      </trkpt>
      <trkpt lat="54.12103" lon="15.19083">
        <ele>40.762184</ele>
        <time>2024-07-27T13:07:43.527Z</time>
      </trkpt>
      <trkpt lat="54.12102" lon="15.19099">
        <ele>40.70951</ele>
        <time>2024-07-27T13:07:47.542Z</time>
      </trkpt>
      <trkpt lat="54.12102" lon="15.19117">
        <ele>40.650076</ele>
        <time>2024-07-27T13:07:52.549Z</time>
      </trkpt>
      <trkpt lat="54.121" lon="15.19135">
        <ele>40.590553</ele>
        <time>2024-07-27T13:07:56.551Z</time>
      </trkpt>
      <trkpt lat="54.121" lon="15.19151">
        <ele>40.539631</ele>
        <time>2024-07-27T13:08:00.546Z</time>
      </trkpt>
      <trkpt lat="54.12101" lon="15.1917">
        <ele>40.477819</ele>
        <time>2024-07-27T13:08:04.546Z</time>
      </trkpt>
      <trkpt lat="54.121" lon="15.19189">
        <ele>40.417058</ele>
        <time>2024-07-27T13:08:08.525Z</time>
      </trkpt>
      <trkpt lat="54.12099" lon="15.19208">
        <ele>40.352725</ele>
        <time>2024-07-27T13:08:12.559Z</time>
      </trkpt>
      <trkpt lat="54.12098" lon="15.19227">
        <ele>40.290345</ele>
        <time>2024-07-27T13:08:16.535Z</time>
      </trkpt>
      <trkpt lat="54.12098" lon="15.19245">
        <ele>40.23325</ele>
        <time>2024-07-27T13:08:20.527Z</time>
      </trkpt>
      <trkpt lat="54.121" lon="15.19263">
        <ele>40.174691</ele>
        <time>2024-07-27T13:08:24.534Z</time>
      </trkpt>
      <trkpt lat="54.12101" lon="15.19281">
        <ele>40.11498</ele>
        <time>2024-07-27T13:08:28.524Z</time>
      </trkpt>
      <trkpt lat="54.12103" lon="15.193">
        <ele>40.052028</ele>
        <time>2024-07-27T13:08:32.552Z</time>
      </trkpt>
      <trkpt lat="54.12106" lon="15.1932">
        <ele>39.986042</ele>
        <time>2024-07-27T13:08:36.548Z</time>
      </trkpt>
      <trkpt lat="54.12107" lon="15.19338">
        <ele>39.926272</ele>
        <time>2024-07-27T13:08:40.550Z</time>
      </trkpt>
      <trkpt lat="54.12111" lon="15.19352">
        <ele>39.859184</ele>
        <time>2024-07-27T13:08:44.544Z</time>
      </trkpt>
      <trkpt lat="54.12114" lon="15.19366">
        <ele>39.791076</ele>
        <time>2024-07-27T13:08:48.541Z</time>
      </trkpt>
      <trkpt lat="54.12119" lon="15.19382">
        <ele>39.715993</ele>
        <time>2024-07-27T13:08:52.543Z</time>
      </trkpt>
      <trkpt lat="54.12123" lon="15.19398">
        <ele>39.638787</ele>
        <time>2024-07-27T13:08:56.554Z</time>
      </trkpt>
      <trkpt lat="54.12126" lon="15.19413">
        <ele>39.568769</ele>
        <time>2024-07-27T13:09:00.551Z</time>
      </trkpt>
      <trkpt lat="54.1213" lon="15.19429">
        <ele>39.49196</ele>
        <time>2024-07-27T13:09:04.554Z</time>
      </trkpt>
      <trkpt lat="54.12135" lon="15.19443">
        <ele>39.421442</ele>
        <time>2024-07-27T13:09:08.546Z</time>
      </trkpt>
      <trkpt lat="54.12138" lon="15.1946">
        <ele>39.344</ele>
        <time>2024-07-27T13:09:12.545Z</time>
      </trkpt>
      <trkpt lat="54.12143" lon="15.19475">
        <ele>39.26896</ele>
        <time>2024-07-27T13:09:16.545Z</time>
      </trkpt>
      <trkpt lat="54.12148" lon="15.19493">
        <ele>39.183877</ele>
        <time>2024-07-27T13:09:20.560Z</time>
      </trkpt>
      <trkpt lat="54.12153" lon="15.19508">
        <ele>39.106946</ele>
        <time>2024-07-27T13:09:24.542Z</time>
      </trkpt>
      <trkpt lat="54.12157" lon="15.19522">
        <ele>39.036467</ele>
        <time>2024-07-27T13:09:28.545Z</time>
      </trkpt>
      <trkpt lat="54.12162" lon="15.19539">
        <ele>38.958286</ele>
        <time>2024-07-27T13:09:32.547Z</time>
      </trkpt>
      <trkpt lat="54.12165" lon="15.19555">
        <ele>38.881251</ele>
        <time>2024-07-27T13:09:36.544Z</time>
      </trkpt>
      <trkpt lat="54.1217" lon="15.19569">
        <ele>38.811379</ele>
        <time>2024-07-27T13:09:40.547Z</time>
      </trkpt>
      <trkpt lat="54.12173" lon="15.19587">
        <ele>38.730002</ele>
        <time>2024-07-27T13:09:44.545Z</time>
      </trkpt>
      <trkpt lat="54.12178" lon="15.19603">
        <ele>38.650107</ele>
        <time>2024-07-27T13:09:48.547Z</time>
      </trkpt>
      <trkpt lat="54.12183" lon="15.1962">
        <ele>38.56811</ele>
        <time>2024-07-27T13:09:53.531Z</time>
      </trkpt>
      <trkpt lat="54.12187" lon="15.19635">
        <ele>38.500075</ele>
        <time>2024-07-27T13:09:57.555Z</time>
      </trkpt>
      <trkpt lat="54.12192" lon="15.19652">
        <ele>38.426266</ele>
        <time>2024-07-27T13:10:01.549Z</time>
      </trkpt>
      <trkpt lat="54.12197" lon="15.19666">
        <ele>38.35589</ele>
        <time>2024-07-27T13:10:05.543Z</time>
      </trkpt>
      <trkpt lat="54.12202" lon="15.19683">
        <ele>38.279388</ele>
        <time>2024-07-27T13:10:09.544Z</time>
      </trkpt>
      <trkpt lat="54.12206" lon="15.19699">
        <ele>38.210099</ele>
        <time>2024-07-27T13:10:13.547Z</time>
      </trkpt>
      <trkpt lat="54.12209" lon="15.19714">
        <ele>38.142055</ele>
        <time>2024-07-27T13:10:17.545Z</time>
      </trkpt>
      <trkpt lat="54.12214" lon="15.19728">
        <ele>38.075927</ele>
        <time>2024-07-27T13:10:21.567Z</time>
      </trkpt>
      <trkpt lat="54.12218" lon="15.19742">
        <ele>38.011816</ele>
        <time>2024-07-27T13:10:25.545Z</time>
      </trkpt>
      <trkpt lat="54.12222" lon="15.19757">
        <ele>37.946603</ele>
        <time>2024-07-27T13:10:29.547Z</time>
      </trkpt>
      <trkpt lat="54.12225" lon="15.19771">
        <ele>37.883067</ele>
        <time>2024-07-27T13:10:33.550Z</time>
      </trkpt>
      <trkpt lat="54.12229" lon="15.19789">
        <ele>37.805602</ele>
        <time>2024-07-27T13:10:38.551Z</time>
      </trkpt>
      <trkpt lat="54.12234" lon="15.19803">
        <ele>37.735251</ele>
        <time>2024-07-27T13:10:42.547Z</time>
      </trkpt>
      <trkpt lat="54.12239" lon="15.19819">
        <ele>37.662415</ele>
        <time>2024-07-27T13:10:46.520Z</time>
      </trkpt>
      <trkpt lat="54.12244" lon="15.19833">
        <ele>37.594907</ele>
        <time>2024-07-27T13:10:50.533Z</time>
      </trkpt>
      <trkpt lat="54.12251" lon="15.19848">
        <ele>37.518709</ele>
        <time>2024-07-27T13:10:55.583Z</time>
      </trkpt>
      <trkpt lat="54.12254" lon="15.19865">
        <ele>37.444664</ele>
        <time>2024-07-27T13:10:59.541Z</time>
      </trkpt>
      <trkpt lat="54.12259" lon="15.19883">
        <ele>37.367131</ele>
        <time>2024-07-27T13:11:03.551Z</time>
      </trkpt>
      <trkpt lat="54.12262" lon="15.19898">
        <ele>37.306028</ele>
        <time>2024-07-27T13:11:07.525Z</time>
      </trkpt>
      <trkpt lat="54.12266" lon="15.19916">
        <ele>37.244498</ele>
        <time>2024-07-27T13:11:11.550Z</time>
      </trkpt>
      <trkpt lat="54.12271" lon="15.19934">
        <ele>37.179738</ele>
        <time>2024-07-27T13:11:15.534Z</time>
      </trkpt>
      <trkpt lat="54.12275" lon="15.19951">
        <ele>37.12199</ele>
        <time>2024-07-27T13:11:19.546Z</time>
      </trkpt>
      <trkpt lat="54.12279" lon="15.19966">
        <ele>37.066256</ele>
        <time>2024-07-27T13:11:23.514Z</time>
      </trkpt>
      <trkpt lat="54.12284" lon="15.1998">
        <ele>37.014561</ele>
        <time>2024-07-27T13:11:26.545Z</time>
      </trkpt>
      <trkpt lat="54.12288" lon="15.19997">
        <ele>36.956321</ele>
        <time>2024-07-27T13:11:30.543Z</time>
      </trkpt>
      <trkpt lat="54.12292" lon="15.20011">
        <ele>36.904337</ele>
        <time>2024-07-27T13:11:34.555Z</time>
      </trkpt>
      <trkpt lat="54.12297" lon="15.20025">
        <ele>36.849848</ele>
        <time>2024-07-27T13:11:38.567Z</time>
      </trkpt>
      <trkpt lat="54.123" lon="15.2004">
        <ele>36.799612</ele>
        <time>2024-07-27T13:11:42.547Z</time>
      </trkpt>
      <trkpt lat="54.12305" lon="15.20056">
        <ele>36.740639</ele>
        <time>2024-07-27T13:11:46.536Z</time>
      </trkpt>
      <trkpt lat="54.1231" lon="15.20073">
        <ele>36.680687</ele>
        <time>2024-07-27T13:11:50.534Z</time>
      </trkpt>
      <trkpt lat="54.12314" lon="15.20088">
        <ele>36.627889</ele>
        <time>2024-07-27T13:11:54.537Z</time>
      </trkpt>
      <trkpt lat="54.12317" lon="15.20103">
        <ele>36.576375</ele>
        <time>2024-07-27T13:11:58.530Z</time>
      </trkpt>
      <trkpt lat="54.12321" lon="15.20119">
        <ele>36.52025</ele>
        <time>2024-07-27T13:12:02.555Z</time>
      </trkpt>
      <trkpt lat="54.12324" lon="15.20134">
        <ele>36.468854</ele>
        <time>2024-07-27T13:12:06.528Z</time>
      </trkpt>
      <trkpt lat="54.12329" lon="15.20149">
        <ele>36.411244</ele>
        <time>2024-07-27T13:12:10.537Z</time>
      </trkpt>
      <trkpt lat="54.12334" lon="15.20166">
        <ele>36.351825</ele>
        <time>2024-07-27T13:12:14.551Z</time>
      </trkpt>
      <trkpt lat="54.12337" lon="15.20184">
        <ele>36.671789</ele>
        <time>2024-07-27T13:12:18.542Z</time>
      </trkpt>
      <trkpt lat="54.12342" lon="15.20198">
        <ele>37.022296</ele>
        <time>2024-07-27T13:12:22.557Z</time>
      </trkpt>
      <trkpt lat="54.12347" lon="15.20214">
        <ele>37.423775</ele>
        <time>2024-07-27T13:12:27.553Z</time>
      </trkpt>
      <trkpt lat="54.1235" lon="15.2023">
        <ele>37.792461</ele>
        <time>2024-07-27T13:12:31.562Z</time>
      </trkpt>
      <trkpt lat="54.12353" lon="15.20249">
        <ele>38.218777</ele>
        <time>2024-07-27T13:12:36.572Z</time>
      </trkpt>
      <trkpt lat="54.12357" lon="15.20265">
        <ele>38.615178</ele>
        <time>2024-07-27T13:12:41.554Z</time>
      </trkpt>
      <trkpt lat="54.12361" lon="15.20279">
        <ele>38.95488</ele>
        <time>2024-07-27T13:12:45.545Z</time>
      </trkpt>
      <trkpt lat="54.1236" lon="15.20297">
        <ele>39.352379</ele>
        <time>2024-07-27T13:12:50.542Z</time>
      </trkpt>
      <trkpt lat="54.12359" lon="15.20314">
        <ele>39.717096</ele>
        <time>2024-07-27T13:12:54.546Z</time>
      </trkpt>
      <trkpt lat="54.1236" lon="15.2033">
        <ele>40.083976</ele>
        <time>2024-07-27T13:12:58.547Z</time>
      </trkpt>
      <trkpt lat="54.12362" lon="15.20346">
        <ele>40.433478</ele>
        <time>2024-07-27T13:13:02.551Z</time>
      </trkpt>
      <trkpt lat="54.12362" lon="15.20364">
        <ele>40.819858</ele>
        <time>2024-07-27T13:13:07.537Z</time>
      </trkpt>
      <trkpt lat="54.12362" lon="15.20379">
        <ele>41.164349</ele>
        <time>2024-07-27T13:13:11.547Z</time>
      </trkpt>
      <trkpt lat="54.12363" lon="15.20398">
        <ele>41.583179</ele>
        <time>2024-07-27T13:13:16.531Z</time>
      </trkpt>
      <trkpt lat="54.12364" lon="15.20415">
        <ele>41.959214</ele>
        <time>2024-07-27T13:13:21.538Z</time>
      </trkpt>
      <trkpt lat="54.12367" lon="15.20432">
        <ele>42.334235</ele>
        <time>2024-07-27T13:13:27.536Z</time>
      </trkpt>
      <trkpt lat="54.12368" lon="15.20449">
        <ele>42.714647</ele>
        <time>2024-07-27T13:13:31.539Z</time>
      </trkpt>
      <trkpt lat="54.12369" lon="15.20468">
        <ele>43.053119</ele>
        <time>2024-07-27T13:13:36.546Z</time>
      </trkpt>
      <trkpt lat="54.12371" lon="15.20485">
        <ele>42.953254</ele>
        <time>2024-07-27T13:13:40.561Z</time>
      </trkpt>
      <trkpt lat="54.12376" lon="15.20501">
        <ele>42.846337</ele>
        <time>2024-07-27T13:13:44.531Z</time>
      </trkpt>
      <trkpt lat="54.1238" lon="15.20518">
        <ele>42.740783</ele>
        <time>2024-07-27T13:13:48.531Z</time>
      </trkpt>
      <trkpt lat="54.12384" lon="15.20533">
        <ele>42.648141</ele>
        <time>2024-07-27T13:13:52.548Z</time>
      </trkpt>
      <trkpt lat="54.12387" lon="15.20547">
        <ele>42.55842</ele>
        <time>2024-07-27T13:13:56.565Z</time>
      </trkpt>
      <trkpt lat="54.12391" lon="15.20566">
        <ele>42.442995</ele>
        <time>2024-07-27T13:14:01.545Z</time>
      </trkpt>
      <trkpt lat="54.12396" lon="15.2058">
        <ele>42.349516</ele>
        <time>2024-07-27T13:14:05.534Z</time>
      </trkpt>
      <trkpt lat="54.12401" lon="15.20594">
        <ele>42.251277</ele>
        <time>2024-07-27T13:14:09.545Z</time>
      </trkpt>
      <trkpt lat="54.12406" lon="15.20611">
        <ele>42.141907</ele>
        <time>2024-07-27T13:14:13.572Z</time>
      </trkpt>
      <trkpt lat="54.12411" lon="15.20626">
        <ele>42.043981</ele>
        <time>2024-07-27T13:14:17.554Z</time>
      </trkpt>
      <trkpt lat="54.12416" lon="15.20643">
        <ele>41.93191</ele>
        <time>2024-07-27T13:14:22.563Z</time>
      </trkpt>
      <trkpt lat="54.12421" lon="15.20659">
        <ele>41.828131</ele>
        <time>2024-07-27T13:14:26.555Z</time>
      </trkpt>
      <trkpt lat="54.12426" lon="15.20672">
        <ele>41.739054</ele>
        <time>2024-07-27T13:14:30.552Z</time>
      </trkpt>
      <trkpt lat="54.12431" lon="15.20684">
        <ele>41.649235</ele>
        <time>2024-07-27T13:14:34.544Z</time>
      </trkpt>
      <trkpt lat="54.12436" lon="15.20698">
        <ele>41.555806</ele>
        <time>2024-07-27T13:14:38.548Z</time>
      </trkpt>
      <trkpt lat="54.12441" lon="15.20712">
        <ele>41.462837</ele>
        <time>2024-07-27T13:14:42.545Z</time>
      </trkpt>
      <trkpt lat="54.12446" lon="15.20727">
        <ele>41.364414</ele>
        <time>2024-07-27T13:14:46.550Z</time>
      </trkpt>
      <trkpt lat="54.1245" lon="15.20742">
        <ele>41.257909</ele>
        <time>2024-07-27T13:14:50.562Z</time>
      </trkpt>
      <trkpt lat="54.12453" lon="15.20757">
        <ele>41.126263</ele>
        <time>2024-07-27T13:14:54.547Z</time>
      </trkpt>
      <trkpt lat="54.12457" lon="15.2077">
        <ele>40.996833</ele>
        <time>2024-07-27T13:14:58.554Z</time>
      </trkpt>
      <trkpt lat="54.12464" lon="15.20784">
        <ele>40.854774</ele>
        <time>2024-07-27T13:15:03.570Z</time>
      </trkpt>
      <trkpt lat="54.1247" lon="15.20798">
        <ele>40.710392</ele>
        <time>2024-07-27T13:15:08.528Z</time>
      </trkpt>
      <trkpt lat="54.12473" lon="15.20811">
        <ele>40.591093</ele>
        <time>2024-07-27T13:15:25.572Z</time>
      </trkpt>
      <trkpt lat="54.12474" lon="15.20829">
        <ele>40.445738</ele>
        <time>2024-07-27T13:25:05.552Z</time>
      </trkpt>
      <trkpt lat="54.12478" lon="15.20843">
        <ele>40.317253</ele>
        <time>2024-07-27T13:25:12.540Z</time>
      </trkpt>
      <trkpt lat="54.12482" lon="15.20858">
        <ele>40.181771</ele>
        <time>2024-07-27T13:25:17.543Z</time>
      </trkpt>
      <trkpt lat="54.12487" lon="15.20874">
        <ele>40.03024</ele>
        <time>2024-07-27T13:25:22.533Z</time>
      </trkpt>
      <trkpt lat="54.12491" lon="15.20889">
        <ele>39.891593</ele>
        <time>2024-07-27T13:25:26.540Z</time>
      </trkpt>
      <trkpt lat="54.12496" lon="15.20904">
        <ele>39.745039</ele>
        <time>2024-07-27T13:25:31.529Z</time>
      </trkpt>
      <trkpt lat="54.12501" lon="15.2092">
        <ele>39.592932</ele>
        <time>2024-07-27T13:25:36.521Z</time>
      </trkpt>
      <trkpt lat="54.12505" lon="15.20937">
        <ele>39.446456</ele>
        <time>2024-07-27T13:25:41.535Z</time>
      </trkpt>
      <trkpt lat="54.12508" lon="15.20953">
        <ele>39.304291</ele>
        <time>2024-07-27T13:25:46.536Z</time>
      </trkpt>
      <trkpt lat="54.12511" lon="15.2097">
        <ele>39.164104</ele>
        <time>2024-07-27T13:25:51.538Z</time>
      </trkpt>
      <trkpt lat="54.12515" lon="15.20986">
        <ele>39.017303</ele>
        <time>2024-07-27T13:25:56.542Z</time>
      </trkpt>
      <trkpt lat="54.12518" lon="15.21004">
        <ele>38.863073</ele>
        <time>2024-07-27T13:26:01.550Z</time>
      </trkpt>
      <trkpt lat="54.12524" lon="15.21018">
        <ele>38.758823</ele>
        <time>2024-07-27T13:26:07.539Z</time>
      </trkpt>
      <trkpt lat="54.12529" lon="15.21035">
        <ele>38.77701</ele>
        <time>2024-07-27T13:26:12.538Z</time>
      </trkpt>
      <trkpt lat="54.12531" lon="15.21053">
        <ele>38.795638</ele>
        <time>2024-07-27T13:26:15.554Z</time>
      </trkpt>
      <trkpt lat="54.12534" lon="15.21074">
        <ele>38.816657</ele>
        <time>2024-07-27T13:26:18.545Z</time>
      </trkpt>
      <trkpt lat="54.12538" lon="15.21094">
        <ele>38.838255</ele>
        <time>2024-07-27T13:26:21.577Z</time>
      </trkpt>
      <trkpt lat="54.12541" lon="15.21109">
        <ele>38.853586</ele>
        <time>2024-07-27T13:26:23.562Z</time>
      </trkpt>
      <trkpt lat="54.12543" lon="15.21126">
        <ele>38.870568</ele>
        <time>2024-07-27T13:26:25.569Z</time>
      </trkpt>
      <trkpt lat="54.12545" lon="15.21143">
        <ele>38.887937</ele>
        <time>2024-07-27T13:26:27.560Z</time>
      </trkpt>
      <trkpt lat="54.12548" lon="15.21159">
        <ele>38.905077</ele>
        <time>2024-07-27T13:26:29.559Z</time>
      </trkpt>
      <trkpt lat="54.12551" lon="15.21175">
        <ele>38.921463</ele>
        <time>2024-07-27T13:26:31.550Z</time>
      </trkpt>
      <trkpt lat="54.12554" lon="15.21193">
        <ele>38.940071</ele>
        <time>2024-07-27T13:26:33.555Z</time>
      </trkpt>
      <trkpt lat="54.12558" lon="15.2121">
        <ele>38.958269</ele>
        <time>2024-07-27T13:26:35.552Z</time>
      </trkpt>
      <trkpt lat="54.12561" lon="15.21228">
        <ele>38.976362</ele>
        <time>2024-07-27T13:26:37.543Z</time>
      </trkpt>
      <trkpt lat="54.12564" lon="15.21245">
        <ele>38.99436</ele>
        <time>2024-07-27T13:26:39.558Z</time>
      </trkpt>
      <trkpt lat="54.12567" lon="15.21262">
        <ele>39.011941</ele>
        <time>2024-07-27T13:26:41.551Z</time>
      </trkpt>
      <trkpt lat="54.12569" lon="15.21281">
        <ele>39.030874</ele>
        <time>2024-07-27T13:26:43.541Z</time>
      </trkpt>
      <trkpt lat="54.12572" lon="15.213">
        <ele>39.050297</ele>
        <time>2024-07-27T13:26:45.543Z</time>
      </trkpt>
      <trkpt lat="54.12575" lon="15.21317">
        <ele>39.056823</ele>
        <time>2024-07-27T13:26:47.538Z</time>
      </trkpt>
      <trkpt lat="54.12577" lon="15.21334">
        <ele>39.054133</ele>
        <time>2024-07-27T13:26:49.545Z</time>
      </trkpt>
      <trkpt lat="54.1258" lon="15.21351">
        <ele>39.051401</ele>
        <time>2024-07-27T13:26:51.540Z</time>
      </trkpt>
      <trkpt lat="54.12582" lon="15.21367">
        <ele>39.048906</ele>
        <time>2024-07-27T13:26:53.551Z</time>
      </trkpt>
      <trkpt lat="54.12586" lon="15.21382">
        <ele>39.0464</ele>
        <time>2024-07-27T13:26:55.549Z</time>
      </trkpt>
      <trkpt lat="54.12589" lon="15.21398">
        <ele>39.043818</ele>
        <time>2024-07-27T13:26:57.541Z</time>
      </trkpt>
      <trkpt lat="54.12592" lon="15.21415">
        <ele>39.041174</ele>
        <time>2024-07-27T13:26:59.539Z</time>
      </trkpt>
      <trkpt lat="54.12595" lon="15.2143">
        <ele>39.038738</ele>
        <time>2024-07-27T13:27:01.552Z</time>
      </trkpt>
      <trkpt lat="54.12598" lon="15.21453">
        <ele>39.03518</ele>
        <time>2024-07-27T13:27:04.529Z</time>
      </trkpt>
      <trkpt lat="54.12601" lon="15.21468">
        <ele>39.032724</ele>
        <time>2024-07-27T13:27:06.536Z</time>
      </trkpt>
      <trkpt lat="54.12603" lon="15.21489">
        <ele>39.029369</ele>
        <time>2024-07-27T13:27:09.542Z</time>
      </trkpt>
      <trkpt lat="54.12607" lon="15.21509">
        <ele>39.026244</ele>
        <time>2024-07-27T13:27:12.548Z</time>
      </trkpt>
      <trkpt lat="54.1261" lon="15.21526">
        <ele>39.023552</ele>
        <time>2024-07-27T13:27:15.546Z</time>
      </trkpt>
      <trkpt lat="54.12614" lon="15.21541">
        <ele>39.020956</ele>
        <time>2024-07-27T13:27:19.541Z</time>
      </trkpt>
      <trkpt lat="54.12618" lon="15.21556">
        <ele>39.018404</ele>
        <time>2024-07-27T13:27:24.550Z</time>
      </trkpt>
      <trkpt lat="54.12623" lon="15.21572">
        <ele>39.015789</ele>
        <time>2024-07-27T13:27:29.549Z</time>
      </trkpt>
      <trkpt lat="54.12628" lon="15.21585">
        <ele>39.013354</ele>
        <time>2024-07-27T13:27:33.539Z</time>
      </trkpt>
      <trkpt lat="54.12634" lon="15.21598">
        <ele>39.040744</ele>
        <time>2024-07-27T13:27:37.556Z</time>
      </trkpt>
      <trkpt lat="54.1264" lon="15.21612">
        <ele>39.173111</ele>
        <time>2024-07-27T13:27:42.532Z</time>
      </trkpt>
      <trkpt lat="54.12645" lon="15.21626">
        <ele>39.308593</ele>
        <time>2024-07-27T13:27:46.552Z</time>
      </trkpt>
      <trkpt lat="54.12652" lon="15.2164">
        <ele>39.44541</ele>
        <time>2024-07-27T13:27:50.559Z</time>
      </trkpt>
      <trkpt lat="54.12659" lon="15.21653">
        <ele>39.58676</ele>
        <time>2024-07-27T13:27:55.544Z</time>
      </trkpt>
      <trkpt lat="54.12666" lon="15.21667">
        <ele>39.732805</ele>
        <time>2024-07-27T13:27:59.559Z</time>
      </trkpt>
      <trkpt lat="54.1267" lon="15.21682">
        <ele>39.859893</ele>
        <time>2024-07-27T13:28:03.549Z</time>
      </trkpt>
      <trkpt lat="54.12675" lon="15.21696">
        <ele>39.985888</ele>
        <time>2024-07-27T13:28:07.549Z</time>
      </trkpt>
      <trkpt lat="54.12678" lon="15.21712">
        <ele>40.121913</ele>
        <time>2024-07-27T13:28:11.545Z</time>
      </trkpt>
      <trkpt lat="54.12683" lon="15.2173">
        <ele>40.271688</ele>
        <time>2024-07-27T13:28:15.550Z</time>
      </trkpt>
      <trkpt lat="54.12687" lon="15.21746">
        <ele>40.409854</ele>
        <time>2024-07-27T13:28:19.551Z</time>
      </trkpt>
      <trkpt lat="54.12691" lon="15.21762">
        <ele>40.542757</ele>
        <time>2024-07-27T13:28:23.567Z</time>
      </trkpt>
      <trkpt lat="54.12694" lon="15.2178">
        <ele>40.687058</ele>
        <time>2024-07-27T13:28:27.555Z</time>
      </trkpt>
      <trkpt lat="54.12697" lon="15.21797">
        <ele>40.829469</ele>
        <time>2024-07-27T13:28:31.558Z</time>
      </trkpt>
      <trkpt lat="54.12697" lon="15.21816">
        <ele>40.975013</ele>
        <time>2024-07-27T13:28:35.554Z</time>
      </trkpt>
      <trkpt lat="54.12698" lon="15.21835">
        <ele>41.124186</ele>
        <time>2024-07-27T13:28:39.564Z</time>
      </trkpt>
      <trkpt lat="54.12698" lon="15.21854">
        <ele>41.273335</ele>
        <time>2024-07-27T13:28:43.545Z</time>
      </trkpt>
      <trkpt lat="54.12698" lon="15.21872">
        <ele>41.405979</ele>
        <time>2024-07-27T13:28:47.569Z</time>
      </trkpt>
      <trkpt lat="54.12698" lon="15.21892">
        <ele>41.349017</ele>
        <time>2024-07-27T13:28:51.564Z</time>
      </trkpt>
      <trkpt lat="54.12698" lon="15.21908">
        <ele>41.303059</ele>
        <time>2024-07-27T13:28:54.559Z</time>
      </trkpt>
      <trkpt lat="54.12698" lon="15.21925">
        <ele>41.252974</ele>
        <time>2024-07-27T13:28:57.568Z</time>
      </trkpt>
      <trkpt lat="54.12698" lon="15.21941">
        <ele>41.207017</ele>
        <time>2024-07-27T13:29:00.524Z</time>
      </trkpt>
      <trkpt lat="54.12698" lon="15.2196">
        <ele>41.151539</ele>
        <time>2024-07-27T13:29:04.576Z</time>
      </trkpt>
      <trkpt lat="54.12691" lon="15.21974">
        <ele>41.099663</ele>
        <time>2024-07-27T13:29:08.553Z</time>
      </trkpt>
      <trkpt lat="54.12691" lon="15.2199">
        <ele>41.055428</ele>
        <time>2024-07-27T13:29:11.553Z</time>
      </trkpt>
      <trkpt lat="54.12691" lon="15.22005">
        <ele>41.010917</ele>
        <time>2024-07-27T13:29:14.550Z</time>
      </trkpt>
      <trkpt lat="54.12691" lon="15.22022">
        <ele>40.96287</ele>
        <time>2024-07-27T13:29:17.543Z</time>
      </trkpt>
      <trkpt lat="54.12691" lon="15.22038">
        <ele>40.916857</ele>
        <time>2024-07-27T13:29:20.548Z</time>
      </trkpt>
      <trkpt lat="54.12686" lon="15.22053">
        <ele>40.867552</ele>
        <time>2024-07-27T13:29:23.530Z</time>
      </trkpt>
      <trkpt lat="54.12677" lon="15.22061">
        <ele>40.818705</ele>
        <time>2024-07-27T13:29:26.533Z</time>
      </trkpt>
      <trkpt lat="54.12666" lon="15.22066">
        <ele>40.761747</ele>
        <time>2024-07-27T13:29:30.555Z</time>
      </trkpt>
      <trkpt lat="54.12655" lon="15.22071">
        <ele>40.703661</ele>
        <time>2024-07-27T13:29:34.545Z</time>
      </trkpt>
      <trkpt lat="54.12646" lon="15.22078">
        <ele>40.657897</ele>
        <time>2024-07-27T13:29:37.524Z</time>
      </trkpt>
      <trkpt lat="54.12637" lon="15.22082">
        <ele>40.611917</ele>
        <time>2024-07-27T13:29:40.541Z</time>
      </trkpt>
      <trkpt lat="54.12627" lon="15.22088">
        <ele>40.560848</ele>
        <time>2024-07-27T13:29:43.540Z</time>
      </trkpt>
      <trkpt lat="54.12617" lon="15.22094">
        <ele>40.53741</ele>
        <time>2024-07-27T13:29:46.545Z</time>
      </trkpt>
      <trkpt lat="54.12608" lon="15.22099">
        <ele>40.569203</ele>
        <time>2024-07-27T13:29:49.535Z</time>
      </trkpt>
      <trkpt lat="54.12599" lon="15.22104">
        <ele>40.598809</ele>
        <time>2024-07-27T13:29:52.529Z</time>
      </trkpt>
      <trkpt lat="54.12589" lon="15.22109">
        <ele>40.631509</ele>
        <time>2024-07-27T13:29:55.538Z</time>
      </trkpt>
      <trkpt lat="54.12579" lon="15.22114">
        <ele>40.664191</ele>
        <time>2024-07-27T13:29:58.550Z</time>
      </trkpt>
      <trkpt lat="54.12569" lon="15.22119">
        <ele>40.697288</ele>
        <time>2024-07-27T13:30:01.546Z</time>
      </trkpt>
      <trkpt lat="54.12556" lon="15.22124">
        <ele>40.736622</ele>
        <time>2024-07-27T13:30:04.537Z</time>
      </trkpt>
      <trkpt lat="54.12544" lon="15.22131">
        <ele>40.77764</ele>
        <time>2024-07-27T13:30:07.549Z</time>
      </trkpt>
      <trkpt lat="54.12536" lon="15.22139">
        <ele>40.80705</ele>
        <time>2024-07-27T13:30:09.546Z</time>
      </trkpt>
      <trkpt lat="54.12528" lon="15.22148">
        <ele>40.836661</ele>
        <time>2024-07-27T13:30:11.542Z</time>
      </trkpt>
      <trkpt lat="54.12517" lon="15.22157">
        <ele>40.876107</ele>
        <time>2024-07-27T13:30:14.536Z</time>
      </trkpt>
      <trkpt lat="54.12504" lon="15.22163">
        <ele>40.91744</ele>
        <time>2024-07-27T13:30:17.535Z</time>
      </trkpt>
      <trkpt lat="54.12491" lon="15.22168">
        <ele>40.958433</ele>
        <time>2024-07-27T13:30:20.541Z</time>
      </trkpt>
      <trkpt lat="54.12479" lon="15.22174">
        <ele>40.997747</ele>
        <time>2024-07-27T13:30:23.533Z</time>
      </trkpt>
      <trkpt lat="54.12467" lon="15.22181">
        <ele>41.038482</ele>
        <time>2024-07-27T13:30:26.549Z</time>
      </trkpt>
      <trkpt lat="54.12454" lon="15.22189">
        <ele>41.079343</ele>
        <time>2024-07-27T13:30:29.547Z</time>
      </trkpt>
      <trkpt lat="54.12443" lon="15.22198">
        <ele>40.985071</ele>
        <time>2024-07-27T13:30:32.537Z</time>
      </trkpt>
      <trkpt lat="54.12436" lon="15.22209">
        <ele>40.869131</ele>
        <time>2024-07-27T13:30:35.535Z</time>
      </trkpt>
      <trkpt lat="54.12429" lon="15.22232">
        <ele>40.696144</ele>
        <time>2024-07-27T13:30:38.544Z</time>
      </trkpt>
      <trkpt lat="54.12422" lon="15.22249">
        <ele>40.557098</ele>
        <time>2024-07-27T13:30:40.541Z</time>
      </trkpt>
      <trkpt lat="54.12413" lon="15.22261">
        <ele>40.432949</ele>
        <time>2024-07-27T13:30:42.548Z</time>
      </trkpt>
      <trkpt lat="54.12405" lon="15.2227">
        <ele>40.317268</ele>
        <time>2024-07-27T13:30:44.540Z</time>
      </trkpt>
      <trkpt lat="54.12394" lon="15.22281">
        <ele>40.169409</ele>
        <time>2024-07-27T13:30:47.555Z</time>
      </trkpt>
      <trkpt lat="54.12383" lon="15.22294">
        <ele>40.016772</ele>
        <time>2024-07-27T13:30:50.534Z</time>
      </trkpt>
      <trkpt lat="54.12375" lon="15.22304">
        <ele>39.908338</ele>
        <time>2024-07-27T13:30:52.545Z</time>
      </trkpt>
      <trkpt lat="54.12365" lon="15.22318">
        <ele>39.749987</ele>
        <time>2024-07-27T13:30:55.545Z</time>
      </trkpt>
      <trkpt lat="54.12355" lon="15.22333">
        <ele>39.601795</ele>
        <time>2024-07-27T13:30:58.542Z</time>
      </trkpt>
      <trkpt lat="54.12347" lon="15.22347">
        <ele>39.470775</ele>
        <time>2024-07-27T13:31:01.539Z</time>
      </trkpt>
      <trkpt lat="54.12343" lon="15.22364">
        <ele>39.346839</ele>
        <time>2024-07-27T13:31:04.546Z</time>
      </trkpt>
      <trkpt lat="54.1234" lon="15.22385">
        <ele>39.201852</ele>
        <time>2024-07-27T13:31:07.555Z</time>
      </trkpt>
      <trkpt lat="54.12337" lon="15.22405">
        <ele>39.060563</ele>
        <time>2024-07-27T13:31:10.548Z</time>
      </trkpt>
      <trkpt lat="54.12334" lon="15.22424">
        <ele>38.961644</ele>
        <time>2024-07-27T13:31:13.543Z</time>
      </trkpt>
      <trkpt lat="54.12332" lon="15.22443">
        <ele>38.87231</ele>
        <time>2024-07-27T13:31:16.549Z</time>
      </trkpt>
      <trkpt lat="54.12329" lon="15.22461">
        <ele>38.787491</ele>
        <time>2024-07-27T13:31:19.541Z</time>
      </trkpt>
      <trkpt lat="54.12323" lon="15.22477">
        <ele>38.702791</ele>
        <time>2024-07-27T13:31:22.536Z</time>
      </trkpt>
      <trkpt lat="54.12315" lon="15.22491">
        <ele>38.616183</ele>
        <time>2024-07-27T13:31:25.525Z</time>
      </trkpt>
      <trkpt lat="54.12307" lon="15.22502">
        <ele>38.532723</ele>
        <time>2024-07-27T13:31:28.515Z</time>
      </trkpt>
      <trkpt lat="54.12298" lon="15.22511">
        <ele>38.451121</ele>
        <time>2024-07-27T13:31:31.549Z</time>
      </trkpt>
      <trkpt lat="54.12288" lon="15.22518">
        <ele>38.370222</ele>
        <time>2024-07-27T13:31:34.542Z</time>
      </trkpt>
      <trkpt lat="54.12278" lon="15.22523">
        <ele>38.288705</ele>
        <time>2024-07-27T13:31:37.541Z</time>
      </trkpt>
      <trkpt lat="54.12268" lon="15.22528">
        <ele>38.206451</ele>
        <time>2024-07-27T13:31:40.535Z</time>
      </trkpt>
      <trkpt lat="54.12257" lon="15.22535">
        <ele>38.118767</ele>
        <time>2024-07-27T13:31:43.552Z</time>
      </trkpt>
      <trkpt lat="54.12247" lon="15.22541">
        <ele>38.035968</ele>
        <time>2024-07-27T13:31:46.538Z</time>
      </trkpt>
      <trkpt lat="54.12238" lon="15.22548">
        <ele>37.957505</ele>
        <time>2024-07-27T13:31:49.553Z</time>
      </trkpt>
      <trkpt lat="54.12228" lon="15.22555">
        <ele>37.877677</ele>
        <time>2024-07-27T13:31:52.543Z</time>
      </trkpt>
      <trkpt lat="54.12219" lon="15.22563">
        <ele>37.797301</ele>
        <time>2024-07-27T13:31:55.548Z</time>
      </trkpt>
      <trkpt lat="54.1221" lon="15.22573">
        <ele>37.719908</ele>
        <time>2024-07-27T13:31:58.529Z</time>
      </trkpt>
      <trkpt lat="54.12203" lon="15.22585">
        <ele>37.641464</ele>
        <time>2024-07-27T13:32:01.548Z</time>
      </trkpt>
      <trkpt lat="54.12196" lon="15.22599">
        <ele>37.596391</ele>
        <time>2024-07-27T13:32:04.538Z</time>
      </trkpt>
      <trkpt lat="54.1219" lon="15.22612">
        <ele>37.559495</ele>
        <time>2024-07-27T13:32:07.563Z</time>
      </trkpt>
      <trkpt lat="54.12186" lon="15.22627">
        <ele>37.521189</ele>
        <time>2024-07-27T13:32:10.542Z</time>
      </trkpt>
      <trkpt lat="54.12181" lon="15.22642">
        <ele>37.483695</ele>
        <time>2024-07-27T13:32:13.534Z</time>
      </trkpt>
      <trkpt lat="54.12177" lon="15.22658">
        <ele>37.443399</ele>
        <time>2024-07-27T13:32:16.540Z</time>
      </trkpt>
      <trkpt lat="54.12173" lon="15.22677">
        <ele>37.396978</ele>
        <time>2024-07-27T13:32:19.539Z</time>
      </trkpt>
      <trkpt lat="54.12169" lon="15.22695">
        <ele>37.354085</ele>
        <time>2024-07-27T13:32:22.549Z</time>
      </trkpt>
      <trkpt lat="54.12163" lon="15.22713">
        <ele>37.308014</ele>
        <time>2024-07-27T13:32:25.541Z</time>
      </trkpt>
      <trkpt lat="54.12154" lon="15.22722">
        <ele>37.269557</ele>
        <time>2024-07-27T13:32:28.538Z</time>
      </trkpt>
      <trkpt lat="54.12145" lon="15.22723">
        <ele>37.233303</ele>
        <time>2024-07-27T13:32:31.547Z</time>
      </trkpt>
      <trkpt lat="54.12134" lon="15.22724">
        <ele>37.191362</ele>
        <time>2024-07-27T13:32:35.547Z</time>
      </trkpt>
      <trkpt lat="54.12124" lon="15.22727">
        <ele>37.150814</ele>
        <time>2024-07-27T13:32:38.539Z</time>
      </trkpt>
      <trkpt lat="54.12112" lon="15.22736">
        <ele>37.103222</ele>
        <time>2024-07-27T13:32:42.543Z</time>
      </trkpt>
      <trkpt lat="54.12104" lon="15.2275">
        <ele>37.058682</ele>
        <time>2024-07-27T13:32:45.533Z</time>
      </trkpt>
      <trkpt lat="54.12096" lon="15.22763">
        <ele>37.013777</ele>
        <time>2024-07-27T13:32:48.536Z</time>
      </trkpt>
      <trkpt lat="54.12087" lon="15.22772">
        <ele>36.975971</ele>
        <time>2024-07-27T13:32:51.540Z</time>
      </trkpt>
      <trkpt lat="54.12077" lon="15.2278">
        <ele>36.986375</ele>
        <time>2024-07-27T13:32:54.535Z</time>
      </trkpt>
      <trkpt lat="54.12068" lon="15.22788">
        <ele>37.12792</ele>
        <time>2024-07-27T13:32:57.538Z</time>
      </trkpt>
      <trkpt lat="54.12059" lon="15.228">
        <ele>37.28552</ele>
        <time>2024-07-27T13:33:01.543Z</time>
      </trkpt>
      <trkpt lat="54.12049" lon="15.22811">
        <ele>37.451106</ele>
        <time>2024-07-27T13:33:05.542Z</time>
      </trkpt>
      <trkpt lat="54.1204" lon="15.22822">
        <ele>37.607818</ele>
        <time>2024-07-27T13:33:09.529Z</time>
      </trkpt>
      <trkpt lat="54.12033" lon="15.22832">
        <ele>37.74207</ele>
        <time>2024-07-27T13:33:13.545Z</time>
      </trkpt>
      <trkpt lat="54.12037" lon="15.22849">
        <ele>37.888825</ele>
        <time>2024-07-27T13:33:19.551Z</time>
      </trkpt>
      <trkpt lat="54.12043" lon="15.22863">
        <ele>38.033188</ele>
        <time>2024-07-27T13:33:24.553Z</time>
      </trkpt>
      <trkpt lat="54.12048" lon="15.22878">
        <ele>38.18103</ele>
        <time>2024-07-27T13:33:29.550Z</time>
      </trkpt>
      <trkpt lat="54.12052" lon="15.22895">
        <ele>38.326841</ele>
        <time>2024-07-27T13:33:33.544Z</time>
      </trkpt>
      <trkpt lat="54.12055" lon="15.22911">
        <ele>38.46531</ele>
        <time>2024-07-27T13:33:37.540Z</time>
      </trkpt>
      <trkpt lat="54.12059" lon="15.22925">
        <ele>38.594306</ele>
        <time>2024-07-27T13:33:41.537Z</time>
      </trkpt>
      <trkpt lat="54.12063" lon="15.22942">
        <ele>38.748698</ele>
        <time>2024-07-27T13:33:45.546Z</time>
      </trkpt>
      <trkpt lat="54.12067" lon="15.22956">
        <ele>38.878084</ele>
        <time>2024-07-27T13:33:48.536Z</time>
      </trkpt>
      <trkpt lat="54.12072" lon="15.22971">
        <ele>39.019367</ele>
        <time>2024-07-27T13:33:51.550Z</time>
      </trkpt>
      <trkpt lat="54.12076" lon="15.22986">
        <ele>39.15467</ele>
        <time>2024-07-27T13:33:54.552Z</time>
      </trkpt>
      <trkpt lat="54.1208" lon="15.23002">
        <ele>39.294228</ele>
        <time>2024-07-27T13:33:57.542Z</time>
      </trkpt>
      <trkpt lat="54.12084" lon="15.23017">
        <ele>39.428669</ele>
        <time>2024-07-27T13:34:00.556Z</time>
      </trkpt>
      <trkpt lat="54.12087" lon="15.23032">
        <ele>39.356269</ele>
        <time>2024-07-27T13:34:03.554Z</time>
      </trkpt>
      <trkpt lat="54.12093" lon="15.23047">
        <ele>39.130354</ele>
        <time>2024-07-27T13:34:06.551Z</time>
      </trkpt>
      <trkpt lat="54.12099" lon="15.23063">
        <ele>38.90132</ele>
        <time>2024-07-27T13:34:09.563Z</time>
      </trkpt>
      <trkpt lat="54.12104" lon="15.23079">
        <ele>38.682869</ele>
        <time>2024-07-27T13:34:12.539Z</time>
      </trkpt>
      <trkpt lat="54.12109" lon="15.23094">
        <ele>38.463393</ele>
        <time>2024-07-27T13:34:15.548Z</time>
      </trkpt>
      <trkpt lat="54.12114" lon="15.2311">
        <ele>38.244786</ele>
        <time>2024-07-27T13:34:18.554Z</time>
      </trkpt>
      <trkpt lat="54.12119" lon="15.23126">
        <ele>38.020975</ele>
        <time>2024-07-27T13:34:21.551Z</time>
      </trkpt>
      <trkpt lat="54.12125" lon="15.23143">
        <ele>37.790961</ele>
        <time>2024-07-27T13:34:24.564Z</time>
      </trkpt>
      <trkpt lat="54.1213" lon="15.23159">
        <ele>37.56086</ele>
        <time>2024-07-27T13:34:27.553Z</time>
      </trkpt>
      <trkpt lat="54.12136" lon="15.23175">
        <ele>37.329785</ele>
        <time>2024-07-27T13:34:30.548Z</time>
      </trkpt>
      <trkpt lat="54.12141" lon="15.2319">
        <ele>37.113404</ele>
        <time>2024-07-27T13:34:33.560Z</time>
      </trkpt>
      <trkpt lat="54.12147" lon="15.23207">
        <ele>36.873856</ele>
        <time>2024-07-27T13:34:36.544Z</time>
      </trkpt>
      <trkpt lat="54.12153" lon="15.23225">
        <ele>36.616353</ele>
        <time>2024-07-27T13:34:39.571Z</time>
      </trkpt>
      <trkpt lat="54.12157" lon="15.2324">
        <ele>36.427269</ele>
        <time>2024-07-27T13:34:41.562Z</time>
      </trkpt>
      <trkpt lat="54.12163" lon="15.23259">
        <ele>36.161327</ele>
        <time>2024-07-27T13:34:44.542Z</time>
      </trkpt>
      <trkpt lat="54.12169" lon="15.23275">
        <ele>35.925849</ele>
        <time>2024-07-27T13:34:47.552Z</time>
      </trkpt>
      <trkpt lat="54.12175" lon="15.23293">
        <ele>35.736669</ele>
        <time>2024-07-27T13:34:50.549Z</time>
      </trkpt>
      <trkpt lat="54.1218" lon="15.23309">
        <ele>35.768781</ele>
        <time>2024-07-27T13:34:53.539Z</time>
      </trkpt>
      <trkpt lat="54.12187" lon="15.23324">
        <ele>35.799744</ele>
        <time>2024-07-27T13:34:56.556Z</time>
      </trkpt>
      <trkpt lat="54.12191" lon="15.2334">
        <ele>35.830235</ele>
        <time>2024-07-27T13:34:59.531Z</time>
      </trkpt>
      <trkpt lat="54.12196" lon="15.23358">
        <ele>35.862545</ele>
        <time>2024-07-27T13:35:02.561Z</time>
      </trkpt>
      <trkpt lat="54.12202" lon="15.23375">
        <ele>35.896543</ele>
        <time>2024-07-27T13:35:05.540Z</time>
      </trkpt>
      <trkpt lat="54.12208" lon="15.23393">
        <ele>35.931863</ele>
        <time>2024-07-27T13:35:08.550Z</time>
      </trkpt>
      <trkpt lat="54.12214" lon="15.23408">
        <ele>35.961479</ele>
        <time>2024-07-27T13:35:10.544Z</time>
      </trkpt>
      <trkpt lat="54.1222" lon="15.23426">
        <ele>35.99664</ele>
        <time>2024-07-27T13:35:13.556Z</time>
      </trkpt>
      <trkpt lat="54.12226" lon="15.23444">
        <ele>36.031405</ele>
        <time>2024-07-27T13:35:16.548Z</time>
      </trkpt>
      <trkpt lat="54.12232" lon="15.23463">
        <ele>36.068021</ele>
        <time>2024-07-27T13:35:19.543Z</time>
      </trkpt>
      <trkpt lat="54.12241" lon="15.23479">
        <ele>36.105081</ele>
        <time>2024-07-27T13:35:22.552Z</time>
      </trkpt>
      <trkpt lat="54.12249" lon="15.23494">
        <ele>36.139737</ele>
        <time>2024-07-27T13:35:25.539Z</time>
      </trkpt>
      <trkpt lat="54.12259" lon="15.23507">
        <ele>36.175822</ele>
        <time>2024-07-27T13:35:28.550Z</time>
      </trkpt>
      <trkpt lat="54.12268" lon="15.23517">
        <ele>36.205743</ele>
        <time>2024-07-27T13:35:31.542Z</time>
      </trkpt>
      <trkpt lat="54.12277" lon="15.23526">
        <ele>36.235716</ele>
        <time>2024-07-27T13:35:34.548Z</time>
      </trkpt>
      <trkpt lat="54.12288" lon="15.23534">
        <ele>36.383583</ele>
        <time>2024-07-27T13:35:37.553Z</time>
      </trkpt>
      <trkpt lat="54.12298" lon="15.2354">
        <ele>36.572703</ele>
        <time>2024-07-27T13:35:40.545Z</time>
      </trkpt>
      <trkpt lat="54.12307" lon="15.23544">
        <ele>36.739841</ele>
        <time>2024-07-27T13:35:43.565Z</time>
      </trkpt>
      <trkpt lat="54.12317" lon="15.2355">
        <ele>36.918996</ele>
        <time>2024-07-27T13:35:46.547Z</time>
      </trkpt>
      <trkpt lat="54.12327" lon="15.23556">
        <ele>37.106265</ele>
        <time>2024-07-27T13:35:49.552Z</time>
      </trkpt>
      <trkpt lat="54.12338" lon="15.23561">
        <ele>37.289935</ele>
        <time>2024-07-27T13:35:52.551Z</time>
      </trkpt>
      <trkpt lat="54.12347" lon="15.23566">
        <ele>37.459164</ele>
        <time>2024-07-27T13:35:55.555Z</time>
      </trkpt>
      <trkpt lat="54.12357" lon="15.2357">
        <ele>37.629163</ele>
        <time>2024-07-27T13:35:58.551Z</time>
      </trkpt>
      <trkpt lat="54.12366" lon="15.23574">
        <ele>37.800609</ele>
        <time>2024-07-27T13:36:01.554Z</time>
      </trkpt>
      <trkpt lat="54.12377" lon="15.23578">
        <ele>37.984278</ele>
        <time>2024-07-27T13:36:04.547Z</time>
      </trkpt>
      <trkpt lat="54.12387" lon="15.23582">
        <ele>38.163917</ele>
        <time>2024-07-27T13:36:07.539Z</time>
      </trkpt>
      <trkpt lat="54.12397" lon="15.23587">
        <ele>38.344802</ele>
        <time>2024-07-27T13:36:10.537Z</time>
      </trkpt>
      <trkpt lat="54.12406" lon="15.23591">
        <ele>38.512715</ele>
        <time>2024-07-27T13:36:13.547Z</time>
      </trkpt>
      <trkpt lat="54.12416" lon="15.23596">
        <ele>38.692225</ele>
        <time>2024-07-27T13:36:16.541Z</time>
      </trkpt>
      <trkpt lat="54.12427" lon="15.23601">
        <ele>38.878358</ele>
        <time>2024-07-27T13:36:19.541Z</time>
      </trkpt>
      <trkpt lat="54.12436" lon="15.23607">
        <ele>39.051247</ele>
        <time>2024-07-27T13:36:22.540Z</time>
      </trkpt>
      <trkpt lat="54.12446" lon="15.23612">
        <ele>39.226339</ele>
        <time>2024-07-27T13:36:25.542Z</time>
      </trkpt>
      <trkpt lat="54.12456" lon="15.23617">
        <ele>39.29769</ele>
        <time>2024-07-27T13:36:28.550Z</time>
      </trkpt>
      <trkpt lat="54.12466" lon="15.23623">
        <ele>39.142926</ele>
        <time>2024-07-27T13:36:31.540Z</time>
      </trkpt>
      <trkpt lat="54.12476" lon="15.23627">
        <ele>38.980585</ele>
        <time>2024-07-27T13:36:34.533Z</time>
      </trkpt>
      <trkpt lat="54.12486" lon="15.23632">
        <ele>38.83983</ele>
        <time>2024-07-27T13:36:37.534Z</time>
      </trkpt>
      <trkpt lat="54.12495" lon="15.23637">
        <ele>38.69733</ele>
        <time>2024-07-27T13:36:41.568Z</time>
      </trkpt>
      <trkpt lat="54.12505" lon="15.23642">
        <ele>38.547378</ele>
        <time>2024-07-27T13:36:46.534Z</time>
      </trkpt>
      <trkpt lat="54.12511" lon="15.23654">
        <ele>38.411168</ele>
        <time>2024-07-27T13:36:51.545Z</time>
      </trkpt>
      <trkpt lat="54.12515" lon="15.23672">
        <ele>38.252104</ele>
        <time>2024-07-27T13:36:55.548Z</time>
      </trkpt>
      <trkpt lat="54.12515" lon="15.23688">
        <ele>38.11104</ele>
        <time>2024-07-27T13:36:58.537Z</time>
      </trkpt>
      <trkpt lat="54.12517" lon="15.23705">
        <ele>37.962865</ele>
        <time>2024-07-27T13:37:01.541Z</time>
      </trkpt>
      <trkpt lat="54.12517" lon="15.23722">
        <ele>37.821189</ele>
        <time>2024-07-27T13:37:03.545Z</time>
      </trkpt>
      <trkpt lat="54.12516" lon="15.23742">
        <ele>37.65116</ele>
        <time>2024-07-27T13:37:05.549Z</time>
      </trkpt>
      <trkpt lat="54.12515" lon="15.23762">
        <ele>37.480983</ele>
        <time>2024-07-27T13:37:07.546Z</time>
      </trkpt>
      <trkpt lat="54.12513" lon="15.2378">
        <ele>37.319907</ele>
        <time>2024-07-27T13:37:09.536Z</time>
      </trkpt>
      <trkpt lat="54.1251" lon="15.23798">
        <ele>37.165541</ele>
        <time>2024-07-27T13:37:11.540Z</time>
      </trkpt>
      <trkpt lat="54.12506" lon="15.23814">
        <ele>37.015306</ele>
        <time>2024-07-27T13:37:13.536Z</time>
      </trkpt>
      <trkpt lat="54.12503" lon="15.23829">
        <ele>36.879778</ele>
        <time>2024-07-27T13:37:15.540Z</time>
      </trkpt>
      <trkpt lat="54.12501" lon="15.23846">
        <ele>36.735181</ele>
        <time>2024-07-27T13:37:17.544Z</time>
      </trkpt>
      <trkpt lat="54.12499" lon="15.23861">
        <ele>36.568666</ele>
        <time>2024-07-27T13:37:19.557Z</time>
      </trkpt>
      <trkpt lat="54.12496" lon="15.23882">
        <ele>36.325953</ele>
        <time>2024-07-27T13:37:22.535Z</time>
      </trkpt>
      <trkpt lat="54.12495" lon="15.23898">
        <ele>36.145678</ele>
        <time>2024-07-27T13:37:24.534Z</time>
      </trkpt>
      <trkpt lat="54.12497" lon="15.23914">
        <ele>35.97394</ele>
        <time>2024-07-27T13:37:26.541Z</time>
      </trkpt>
      <trkpt lat="54.12499" lon="15.23929">
        <ele>35.795717</ele>
        <time>2024-07-27T13:37:28.538Z</time>
      </trkpt>
      <trkpt lat="54.12504" lon="15.23949">
        <ele>35.55692</ele>
        <time>2024-07-27T13:37:31.543Z</time>
      </trkpt>
      <trkpt lat="54.12511" lon="15.23964">
        <ele>35.341547</ele>
        <time>2024-07-27T13:37:34.539Z</time>
      </trkpt>
      <trkpt lat="54.12518" lon="15.23977">
        <ele>35.152235</ele>
        <time>2024-07-27T13:37:36.536Z</time>
      </trkpt>
      <trkpt lat="54.12523" lon="15.23997">
        <ele>34.912229</ele>
        <time>2024-07-27T13:37:39.549Z</time>
      </trkpt>
      <trkpt lat="54.12524" lon="15.24015">
        <ele>34.710051</ele>
        <time>2024-07-27T13:37:42.541Z</time>
      </trkpt>
      <trkpt lat="54.12527" lon="15.24034">
        <ele>34.501337</ele>
        <time>2024-07-27T13:37:45.539Z</time>
      </trkpt>
      <trkpt lat="54.12532" lon="15.24049">
        <ele>34.302082</ele>
        <time>2024-07-27T13:37:48.537Z</time>
      </trkpt>
      <trkpt lat="54.12538" lon="15.24064">
        <ele>34.101809</ele>
        <time>2024-07-27T13:37:51.550Z</time>
      </trkpt>
      <trkpt lat="54.12544" lon="15.24078">
        <ele>33.914756</ele>
        <time>2024-07-27T13:37:54.541Z</time>
      </trkpt>
      <trkpt lat="54.12548" lon="15.24093">
        <ele>33.727345</ele>
        <time>2024-07-27T13:37:57.525Z</time>
      </trkpt>
      <trkpt lat="54.12554" lon="15.2411">
        <ele>33.51183</ele>
        <time>2024-07-27T13:38:01.543Z</time>
      </trkpt>
      <trkpt lat="54.12559" lon="15.24123">
        <ele>33.335732</ele>
        <time>2024-07-27T13:38:04.540Z</time>
      </trkpt>
      <trkpt lat="54.12564" lon="15.24137">
        <ele>33.45691</ele>
        <time>2024-07-27T13:38:07.572Z</time>
      </trkpt>
      <trkpt lat="54.1257" lon="15.2415">
        <ele>33.581629</ele>
        <time>2024-07-27T13:38:10.549Z</time>
      </trkpt>
      <trkpt lat="54.12576" lon="15.24165">
        <ele>33.717983</ele>
        <time>2024-07-27T13:38:13.561Z</time>
      </trkpt>
      <trkpt lat="54.12582" lon="15.24179">
        <ele>33.846161</ele>
        <time>2024-07-27T13:38:17.543Z</time>
      </trkpt>
      <trkpt lat="54.12588" lon="15.24192">
        <ele>33.973444</ele>
        <time>2024-07-27T13:38:20.542Z</time>
      </trkpt>
      <trkpt lat="54.12594" lon="15.24206">
        <ele>34.107666</ele>
        <time>2024-07-27T13:38:23.540Z</time>
      </trkpt>
      <trkpt lat="54.12598" lon="15.24221">
        <ele>34.228825</ele>
        <time>2024-07-27T13:38:26.544Z</time>
      </trkpt>
      <trkpt lat="54.12601" lon="15.24238">
        <ele>34.357397</ele>
        <time>2024-07-27T13:38:29.550Z</time>
      </trkpt>
      <trkpt lat="54.12602" lon="15.24254">
        <ele>34.485601</ele>
        <time>2024-07-27T13:38:32.526Z</time>
      </trkpt>
      <trkpt lat="54.12597" lon="15.24269">
        <ele>34.604982</ele>
        <time>2024-07-27T13:38:35.553Z</time>
      </trkpt>
      <trkpt lat="54.1259" lon="15.24285">
        <ele>34.762651</ele>
        <time>2024-07-27T13:38:39.557Z</time>
      </trkpt>
      <trkpt lat="54.12584" lon="15.24299">
        <ele>34.891318</ele>
        <time>2024-07-27T13:38:42.542Z</time>
      </trkpt>
      <trkpt lat="54.12577" lon="15.24313">
        <ele>35.026935</ele>
        <time>2024-07-27T13:38:45.538Z</time>
      </trkpt>
      <trkpt lat="54.1257" lon="15.24326">
        <ele>35.162727</ele>
        <time>2024-07-27T13:38:48.537Z</time>
      </trkpt>
      <trkpt lat="54.12563" lon="15.24339">
        <ele>35.29808</ele>
        <time>2024-07-27T13:38:51.540Z</time>
      </trkpt>
      <trkpt lat="54.12557" lon="15.24351">
        <ele>35.419013</ele>
        <time>2024-07-27T13:38:54.536Z</time>
      </trkpt>
      <trkpt lat="54.12551" lon="15.24363">
        <ele>35.535603</ele>
        <time>2024-07-27T13:38:57.544Z</time>
      </trkpt>
      <trkpt lat="54.12545" lon="15.24376">
        <ele>35.648991</ele>
        <time>2024-07-27T13:39:00.542Z</time>
      </trkpt>
      <trkpt lat="54.12539" lon="15.24387">
        <ele>35.621707</ele>
        <time>2024-07-27T13:39:03.551Z</time>
      </trkpt>
      <trkpt lat="54.12532" lon="15.24402">
        <ele>35.587638</ele>
        <time>2024-07-27T13:39:07.555Z</time>
      </trkpt>
      <trkpt lat="54.12529" lon="15.24422">
        <ele>35.552218</ele>
        <time>2024-07-27T13:39:11.543Z</time>
      </trkpt>
      <trkpt lat="54.1253" lon="15.24441">
        <ele>35.517439</ele>
        <time>2024-07-27T13:39:15.552Z</time>
      </trkpt>
      <trkpt lat="54.12532" lon="15.24458">
        <ele>35.488047</ele>
        <time>2024-07-27T13:39:18.529Z</time>
      </trkpt>
      <trkpt lat="54.12534" lon="15.24476">
        <ele>35.45556</ele>
        <time>2024-07-27T13:39:21.544Z</time>
      </trkpt>
      <trkpt lat="54.12537" lon="15.24493">
        <ele>35.425015</ele>
        <time>2024-07-27T13:39:24.529Z</time>
      </trkpt>
      <trkpt lat="54.1254" lon="15.24509">
        <ele>35.395404</ele>
        <time>2024-07-27T13:39:27.549Z</time>
      </trkpt>
      <trkpt lat="54.12542" lon="15.24525">
        <ele>35.366642</ele>
        <time>2024-07-27T13:39:30.535Z</time>
      </trkpt>
      <trkpt lat="54.12546" lon="15.24543">
        <ele>35.333839</ele>
        <time>2024-07-27T13:39:33.546Z</time>
      </trkpt>
      <trkpt lat="54.1255" lon="15.24558">
        <ele>35.303187</ele>
        <time>2024-07-27T13:39:36.559Z</time>
      </trkpt>
      <trkpt lat="54.12553" lon="15.24575">
        <ele>35.272998</ele>
        <time>2024-07-27T13:39:39.547Z</time>
      </trkpt>
      <trkpt lat="54.12556" lon="15.24592">
        <ele>35.241123</ele>
        <time>2024-07-27T13:39:42.568Z</time>
      </trkpt>
      <trkpt lat="54.12558" lon="15.2461">
        <ele>35.210118</ele>
        <time>2024-07-27T13:39:45.548Z</time>
      </trkpt>
      <trkpt lat="54.1256" lon="15.24625">
        <ele>35.18271</ele>
        <time>2024-07-27T13:39:48.558Z</time>
      </trkpt>
      <trkpt lat="54.12564" lon="15.24641">
        <ele>35.151931</ele>
        <time>2024-07-27T13:39:52.543Z</time>
      </trkpt>
      <trkpt lat="54.12572" lon="15.24653">
        <ele>35.120998</ele>
        <time>2024-07-27T13:39:56.537Z</time>
      </trkpt>
      <trkpt lat="54.12582" lon="15.24662">
        <ele>35.062392</ele>
        <time>2024-07-27T13:40:00.544Z</time>
      </trkpt>
      <trkpt lat="54.12593" lon="15.24666">
        <ele>35.000903</ele>
        <time>2024-07-27T13:40:04.541Z</time>
      </trkpt>
      <trkpt lat="54.12603" lon="15.2467">
        <ele>34.938895</ele>
        <time>2024-07-27T13:40:08.541Z</time>
      </trkpt>
      <trkpt lat="54.12614" lon="15.24672">
        <ele>34.878415</ele>
        <time>2024-07-27T13:40:11.547Z</time>
      </trkpt>
      <trkpt lat="54.12625" lon="15.24676">
        <ele>34.810163</ele>
        <time>2024-07-27T13:40:15.535Z</time>
      </trkpt>
      <trkpt lat="54.12637" lon="15.24676">
        <ele>34.744248</ele>
        <time>2024-07-27T13:40:18.532Z</time>
      </trkpt>
      <trkpt lat="54.12647" lon="15.24677">
        <ele>34.687446</ele>
        <time>2024-07-27T13:40:21.549Z</time>
      </trkpt>
      <trkpt lat="54.12657" lon="15.24681">
        <ele>34.626675</ele>
        <time>2024-07-27T13:40:25.540Z</time>
      </trkpt>
      <trkpt lat="54.12667" lon="15.24691">
        <ele>34.560417</ele>
        <time>2024-07-27T13:40:28.537Z</time>
      </trkpt>
      <trkpt lat="54.12677" lon="15.24702">
        <ele>34.490602</ele>
        <time>2024-07-27T13:40:31.548Z</time>
      </trkpt>
      <trkpt lat="54.12687" lon="15.24713">
        <ele>34.426693</ele>
        <time>2024-07-27T13:40:34.541Z</time>
      </trkpt>
      <trkpt lat="54.12696" lon="15.2472">
        <ele>34.367119</ele>
        <time>2024-07-27T13:40:37.535Z</time>
      </trkpt>
      <trkpt lat="54.12707" lon="15.24727">
        <ele>34.302798</ele>
        <time>2024-07-27T13:40:40.536Z</time>
      </trkpt>
      <trkpt lat="54.12715" lon="15.24734">
        <ele>34.251062</ele>
        <time>2024-07-27T13:40:42.536Z</time>
      </trkpt>
      <trkpt lat="54.12725" lon="15.24744">
        <ele>34.185275</ele>
        <time>2024-07-27T13:40:45.550Z</time>
      </trkpt>
      <trkpt lat="54.12735" lon="15.24754">
        <ele>34.118175</ele>
        <time>2024-07-27T13:40:48.518Z</time>
      </trkpt>
      <trkpt lat="54.12744" lon="15.24765">
        <ele>34.084635</ele>
        <time>2024-07-27T13:40:51.537Z</time>
      </trkpt>
      <trkpt lat="54.12752" lon="15.24776">
        <ele>34.092784</ele>
        <time>2024-07-27T13:40:54.542Z</time>
      </trkpt>
      <trkpt lat="54.12758" lon="15.24789">
        <ele>34.100589</ele>
        <time>2024-07-27T13:40:57.542Z</time>
      </trkpt>
      <trkpt lat="54.12764" lon="15.24805">
        <ele>34.109387</ele>
        <time>2024-07-27T13:41:00.548Z</time>
      </trkpt>
      <trkpt lat="54.12771" lon="15.24821">
        <ele>34.119042</ele>
        <time>2024-07-27T13:41:03.549Z</time>
      </trkpt>
      <trkpt lat="54.12778" lon="15.24834">
        <ele>34.127456</ele>
        <time>2024-07-27T13:41:06.554Z</time>
      </trkpt>
      <trkpt lat="54.12786" lon="15.24847">
        <ele>34.13597</ele>
        <time>2024-07-27T13:41:09.548Z</time>
      </trkpt>
      <trkpt lat="54.12794" lon="15.24858">
        <ele>34.144521</ele>
        <time>2024-07-27T13:41:12.539Z</time>
      </trkpt>
      <trkpt lat="54.12803" lon="15.24868">
        <ele>34.153353</ele>
        <time>2024-07-27T13:41:15.541Z</time>
      </trkpt>
      <trkpt lat="54.12813" lon="15.24879">
        <ele>34.163006</ele>
        <time>2024-07-27T13:41:19.535Z</time>
      </trkpt>
      <trkpt lat="54.12822" lon="15.2489">
        <ele>34.171783</ele>
        <time>2024-07-27T13:41:22.547Z</time>
      </trkpt>
      <trkpt lat="54.12833" lon="15.24899">
        <ele>34.181735</ele>
        <time>2024-07-27T13:41:25.543Z</time>
      </trkpt>
      <trkpt lat="54.12844" lon="15.24906">
        <ele>34.191319</ele>
        <time>2024-07-27T13:41:28.544Z</time>
      </trkpt>
      <trkpt lat="54.12854" lon="15.24912">
        <ele>34.200148</ele>
        <time>2024-07-27T13:41:31.550Z</time>
      </trkpt>
      <trkpt lat="54.12865" lon="15.24918">
        <ele>34.209256</ele>
        <time>2024-07-27T13:41:34.537Z</time>
      </trkpt>
      <trkpt lat="54.12876" lon="15.24923">
        <ele>34.218794</ele>
        <time>2024-07-27T13:41:37.547Z</time>
      </trkpt>
      <trkpt lat="54.12889" lon="15.24928">
        <ele>34.272332</ele>
        <time>2024-07-27T13:41:40.529Z</time>
      </trkpt>
      <trkpt lat="54.129" lon="15.24932">
        <ele>34.421077</ele>
        <time>2024-07-27T13:41:43.542Z</time>
      </trkpt>
      <trkpt lat="54.12908" lon="15.24943">
        <ele>34.556464</ele>
        <time>2024-07-27T13:41:48.553Z</time>
      </trkpt>
      <trkpt lat="54.1291" lon="15.24948">
        <ele>34.605547</ele>
        <time>2024-07-27T13:42:06.438Z</time>
      </trkpt>
      <trkpt lat="54.12925" lon="15.24934">
        <ele>34.836923</ele>
        <time>2024-07-27T13:55:34.558Z</time>
      </trkpt>
      <trkpt lat="54.12935" lon="15.24939">
        <ele>34.975985</ele>
        <time>2024-07-27T13:55:41.538Z</time>
      </trkpt>
      <trkpt lat="54.12944" lon="15.24944">
        <ele>35.103586</ele>
        <time>2024-07-27T13:55:48.536Z</time>
      </trkpt>
      <trkpt lat="54.12955" lon="15.24945">
        <ele>35.247138</ele>
        <time>2024-07-27T13:55:54.553Z</time>
      </trkpt>
      <trkpt lat="54.12965" lon="15.24946">
        <ele>35.37878</ele>
        <time>2024-07-27T13:56:00.541Z</time>
      </trkpt>
      <trkpt lat="54.12972" lon="15.24957">
        <ele>35.503333</ele>
        <time>2024-07-27T13:56:05.540Z</time>
      </trkpt>
      <trkpt lat="54.12976" lon="15.24974">
        <ele>35.643681</ele>
        <time>2024-07-27T13:56:12.541Z</time>
      </trkpt>
      <trkpt lat="54.1298" lon="15.2499">
        <ele>35.776419</ele>
        <time>2024-07-27T13:56:21.548Z</time>
      </trkpt>
      <trkpt lat="54.12983" lon="15.25005">
        <ele>35.902875</ele>
        <time>2024-07-27T13:56:27.541Z</time>
      </trkpt>
      <trkpt lat="54.12986" lon="15.25023">
        <ele>36.046094</ele>
        <time>2024-07-27T13:56:31.536Z</time>
      </trkpt>
      <trkpt lat="54.1299" lon="15.25039">
        <ele>36.183438</ele>
        <time>2024-07-27T13:56:34.542Z</time>
      </trkpt>
      <trkpt lat="54.12993" lon="15.25057">
        <ele>36.329359</ele>
        <time>2024-07-27T13:56:37.548Z</time>
      </trkpt>
      <trkpt lat="54.12998" lon="15.25077">
        <ele>36.496404</ele>
        <time>2024-07-27T13:56:40.544Z</time>
      </trkpt>
      <trkpt lat="54.13002" lon="15.25098">
        <ele>36.545664</ele>
        <time>2024-07-27T13:56:43.533Z</time>
      </trkpt>
      <trkpt lat="54.13006" lon="15.25119">
        <ele>36.351212</ele>
        <time>2024-07-27T13:56:46.525Z</time>
      </trkpt>
      <trkpt lat="54.1301" lon="15.2514">
        <ele>36.153923</ele>
        <time>2024-07-27T13:56:49.531Z</time>
      </trkpt>
      <trkpt lat="54.13014" lon="15.25161">
        <ele>35.966648</ele>
        <time>2024-07-27T13:56:52.539Z</time>
      </trkpt>
      <trkpt lat="54.13016" lon="15.25182">
        <ele>35.778726</ele>
        <time>2024-07-27T13:56:55.544Z</time>
      </trkpt>
      <trkpt lat="54.13018" lon="15.25202">
        <ele>35.596126</ele>
        <time>2024-07-27T13:56:58.545Z</time>
      </trkpt>
      <trkpt lat="54.1302" lon="15.25221">
        <ele>35.425944</ele>
        <time>2024-07-27T13:57:01.544Z</time>
      </trkpt>
      <trkpt lat="54.1302" lon="15.25242">
        <ele>35.245204</ele>
        <time>2024-07-27T13:57:04.535Z</time>
      </trkpt>
      <trkpt lat="54.1302" lon="15.25261">
        <ele>35.071609</ele>
        <time>2024-07-27T13:57:07.546Z</time>
      </trkpt>
      <trkpt lat="54.13022" lon="15.25283">
        <ele>34.877614</ele>
        <time>2024-07-27T13:57:10.535Z</time>
      </trkpt>
      <trkpt lat="54.13024" lon="15.25304">
        <ele>34.695014</ele>
        <time>2024-07-27T13:57:13.547Z</time>
      </trkpt>
      <trkpt lat="54.13025" lon="15.25323">
        <ele>34.52095</ele>
        <time>2024-07-27T13:57:16.523Z</time>
      </trkpt>
      <trkpt lat="54.13024" lon="15.25343">
        <ele>34.346429</ele>
        <time>2024-07-27T13:57:19.557Z</time>
      </trkpt>
      <trkpt lat="54.13026" lon="15.25362">
        <ele>34.177547</ele>
        <time>2024-07-27T13:57:22.541Z</time>
      </trkpt>
      <trkpt lat="54.13026" lon="15.25383">
        <ele>33.994898</ele>
        <time>2024-07-27T13:57:25.565Z</time>
      </trkpt>
      <trkpt lat="54.13026" lon="15.25403">
        <ele>33.944986</ele>
        <time>2024-07-27T13:57:28.547Z</time>
      </trkpt>
      <trkpt lat="54.13026" lon="15.25424">
        <ele>34.016282</ele>
        <time>2024-07-27T13:57:31.562Z</time>
      </trkpt>
      <trkpt lat="54.13026" lon="15.25445">
        <ele>34.091552</ele>
        <time>2024-07-27T13:57:34.553Z</time>
      </trkpt>
      <trkpt lat="54.13027" lon="15.25466">
        <ele>34.165637</ele>
        <time>2024-07-27T13:57:37.551Z</time>
      </trkpt>
      <trkpt lat="54.13027" lon="15.25488">
        <ele>34.24322</ele>
        <time>2024-07-27T13:57:40.548Z</time>
      </trkpt>
      <trkpt lat="54.13027" lon="15.2551">
        <ele>34.320281</ele>
        <time>2024-07-27T13:57:43.558Z</time>
      </trkpt>
      <trkpt lat="54.13028" lon="15.25532">
        <ele>34.398639</ele>
        <time>2024-07-27T13:57:46.534Z</time>
      </trkpt>
      <trkpt lat="54.13029" lon="15.25555">
        <ele>34.477651</ele>
        <time>2024-07-27T13:57:49.537Z</time>
      </trkpt>
      <trkpt lat="54.13031" lon="15.25571">
        <ele>34.53439</ele>
        <time>2024-07-27T13:57:51.533Z</time>
      </trkpt>
      <trkpt lat="54.13036" lon="15.25592">
        <ele>34.615366</ele>
        <time>2024-07-27T13:57:54.531Z</time>
      </trkpt>
      <trkpt lat="54.1304" lon="15.25606">
        <ele>34.670731</ele>
        <time>2024-07-27T13:57:56.536Z</time>
      </trkpt>
      <trkpt lat="54.13044" lon="15.25621">
        <ele>34.725779</ele>
        <time>2024-07-27T13:57:58.540Z</time>
      </trkpt>
      <trkpt lat="54.13048" lon="15.25634">
        <ele>34.779874</ele>
        <time>2024-07-27T13:58:00.539Z</time>
      </trkpt>
      <trkpt lat="54.13054" lon="15.25654">
        <ele>34.858986</ele>
        <time>2024-07-27T13:58:03.539Z</time>
      </trkpt>
      <trkpt lat="54.13058" lon="15.25668">
        <ele>34.913924</ele>
        <time>2024-07-27T13:58:05.543Z</time>
      </trkpt>
      <trkpt lat="54.13063" lon="15.25682">
        <ele>34.968441</ele>
        <time>2024-07-27T13:58:07.525Z</time>
      </trkpt>
      <trkpt lat="54.13067" lon="15.25695">
        <ele>35.072837</ele>
        <time>2024-07-27T13:58:09.539Z</time>
      </trkpt>
      <trkpt lat="54.13073" lon="15.25716">
        <ele>35.259831</ele>
        <time>2024-07-27T13:58:12.531Z</time>
      </trkpt>
      <trkpt lat="54.13077" lon="15.25731">
        <ele>35.393243</ele>
        <time>2024-07-27T13:58:14.526Z</time>
      </trkpt>
      <trkpt lat="54.13083" lon="15.25752">
        <ele>35.581656</ele>
        <time>2024-07-27T13:58:17.555Z</time>
      </trkpt>
      <trkpt lat="54.13087" lon="15.25766">
        <ele>35.707163</ele>
        <time>2024-07-27T13:58:19.538Z</time>
      </trkpt>
      <trkpt lat="54.13092" lon="15.25787">
        <ele>35.888852</ele>
        <time>2024-07-27T13:58:22.523Z</time>
      </trkpt>
      <trkpt lat="54.13098" lon="15.25807">
        <ele>36.072753</ele>
        <time>2024-07-27T13:58:25.537Z</time>
      </trkpt>
      <trkpt lat="54.13102" lon="15.25821">
        <ele>36.204225</ele>
        <time>2024-07-27T13:58:27.536Z</time>
      </trkpt>
      <trkpt lat="54.13106" lon="15.25835">
        <ele>36.329859</ele>
        <time>2024-07-27T13:58:29.554Z</time>
      </trkpt>
      <trkpt lat="54.1311" lon="15.25849">
        <ele>36.456226</ele>
        <time>2024-07-27T13:58:31.542Z</time>
      </trkpt>
      <trkpt lat="54.13114" lon="15.25863">
        <ele>36.58186</ele>
        <time>2024-07-27T13:58:33.523Z</time>
      </trkpt>
      <trkpt lat="54.1312" lon="15.25884">
        <ele>36.766642</ele>
        <time>2024-07-27T13:58:36.541Z</time>
      </trkpt>
      <trkpt lat="54.13125" lon="15.25897">
        <ele>36.896758</ele>
        <time>2024-07-27T13:58:38.571Z</time>
      </trkpt>
      <trkpt lat="54.13131" lon="15.25917">
        <ele>37.079493</ele>
        <time>2024-07-27T13:58:41.550Z</time>
      </trkpt>
      <trkpt lat="54.13135" lon="15.25931">
        <ele>37.206749</ele>
        <time>2024-07-27T13:58:43.537Z</time>
      </trkpt>
      <trkpt lat="54.1314" lon="15.25951">
        <ele>37.383523</ele>
        <time>2024-07-27T13:58:46.535Z</time>
      </trkpt>
      <trkpt lat="54.13144" lon="15.25966">
        <ele>37.478479</ele>
        <time>2024-07-27T13:58:48.532Z</time>
      </trkpt>
      <trkpt lat="54.1315" lon="15.25987">
        <ele>37.505028</ele>
        <time>2024-07-27T13:58:51.532Z</time>
      </trkpt>
      <trkpt lat="54.13155" lon="15.26">
        <ele>37.522911</ele>
        <time>2024-07-27T13:58:53.560Z</time>
      </trkpt>
      <trkpt lat="54.13159" lon="15.26014">
        <ele>37.541771</ele>
        <time>2024-07-27T13:58:55.544Z</time>
      </trkpt>
      <trkpt lat="54.13165" lon="15.26034">
        <ele>37.566838</ele>
        <time>2024-07-27T13:58:58.527Z</time>
      </trkpt>
      <trkpt lat="54.1317" lon="15.26054">
        <ele>37.592496</ele>
        <time>2024-07-27T13:59:01.557Z</time>
      </trkpt>
      <trkpt lat="54.13175" lon="15.26074">
        <ele>37.617039</ele>
        <time>2024-07-27T13:59:04.538Z</time>
      </trkpt>
      <trkpt lat="54.1318" lon="15.26093">
        <ele>37.64022</ele>
        <time>2024-07-27T13:59:07.548Z</time>
      </trkpt>
      <trkpt lat="54.13184" lon="15.26113">
        <ele>37.664684</ele>
        <time>2024-07-27T13:59:10.564Z</time>
      </trkpt>
      <trkpt lat="54.13189" lon="15.26133">
        <ele>37.68977</ele>
        <time>2024-07-27T13:59:13.547Z</time>
      </trkpt>
      <trkpt lat="54.13196" lon="15.26153">
        <ele>37.716135</ele>
        <time>2024-07-27T13:59:16.541Z</time>
      </trkpt>
      <trkpt lat="54.132" lon="15.26174">
        <ele>37.741766</ele>
        <time>2024-07-27T13:59:19.547Z</time>
      </trkpt>
      <trkpt lat="54.13206" lon="15.26195">
        <ele>37.767339</ele>
        <time>2024-07-27T13:59:22.539Z</time>
      </trkpt>
      <trkpt lat="54.1321" lon="15.26216">
        <ele>37.793776</ele>
        <time>2024-07-27T13:59:25.540Z</time>
      </trkpt>
      <trkpt lat="54.13214" lon="15.26231">
        <ele>37.81226</ele>
        <time>2024-07-27T13:59:27.575Z</time>
      </trkpt>
      <trkpt lat="54.13218" lon="15.26246">
        <ele>37.805393</ele>
        <time>2024-07-27T13:59:29.555Z</time>
      </trkpt>
      <trkpt lat="54.13221" lon="15.26262">
        <ele>37.747997</ele>
        <time>2024-07-27T13:59:31.547Z</time>
      </trkpt>
      <trkpt lat="54.13224" lon="15.26277">
        <ele>37.691639</ele>
        <time>2024-07-27T13:59:33.552Z</time>
      </trkpt>
      <trkpt lat="54.13227" lon="15.26293">
        <ele>37.635468</ele>
        <time>2024-07-27T13:59:35.545Z</time>
      </trkpt>
      <trkpt lat="54.13231" lon="15.26308">
        <ele>37.57907</ele>
        <time>2024-07-27T13:59:37.562Z</time>
      </trkpt>
      <trkpt lat="54.13234" lon="15.26323">
        <ele>37.523512</ele>
        <time>2024-07-27T13:59:39.549Z</time>
      </trkpt>
      <trkpt lat="54.13238" lon="15.26338">
        <ele>37.467805</ele>
        <time>2024-07-27T13:59:41.544Z</time>
      </trkpt>
      <trkpt lat="54.13241" lon="15.26354">
        <ele>37.409254</ele>
        <time>2024-07-27T13:59:43.562Z</time>
      </trkpt>
      <trkpt lat="54.13245" lon="15.2637">
        <ele>37.351119</ele>
        <time>2024-07-27T13:59:45.564Z</time>
      </trkpt>
      <trkpt lat="54.13248" lon="15.26385">
        <ele>37.294436</ele>
        <time>2024-07-27T13:59:47.541Z</time>
      </trkpt>
      <trkpt lat="54.13251" lon="15.264">
        <ele>37.239623</ele>
        <time>2024-07-27T13:59:49.522Z</time>
      </trkpt>
      <trkpt lat="54.13256" lon="15.2642">
        <ele>37.163849</ele>
        <time>2024-07-27T13:59:52.568Z</time>
      </trkpt>
      <trkpt lat="54.1326" lon="15.26435">
        <ele>37.109659</ele>
        <time>2024-07-27T13:59:54.536Z</time>
      </trkpt>
      <trkpt lat="54.13264" lon="15.26456">
        <ele>37.032882</ele>
        <time>2024-07-27T13:59:57.538Z</time>
      </trkpt>
      <trkpt lat="54.13267" lon="15.26477">
        <ele>36.958581</ele>
        <time>2024-07-27T14:00:00.548Z</time>
      </trkpt>
      <trkpt lat="54.13272" lon="15.26496">
        <ele>36.888062</ele>
        <time>2024-07-27T14:00:03.543Z</time>
      </trkpt>
      <trkpt lat="54.13277" lon="15.26516">
        <ele>36.812633</ele>
        <time>2024-07-27T14:00:06.548Z</time>
      </trkpt>
      <trkpt lat="54.13281" lon="15.26536">
        <ele>36.765979</ele>
        <time>2024-07-27T14:00:09.559Z</time>
      </trkpt>
      <trkpt lat="54.13286" lon="15.26555">
        <ele>36.760123</ele>
        <time>2024-07-27T14:00:12.547Z</time>
      </trkpt>
      <trkpt lat="54.13291" lon="15.26574">
        <ele>36.754436</ele>
        <time>2024-07-27T14:00:15.545Z</time>
      </trkpt>
      <trkpt lat="54.13296" lon="15.26595">
        <ele>36.748055</ele>
        <time>2024-07-27T14:00:18.550Z</time>
      </trkpt>
      <trkpt lat="54.13299" lon="15.2661">
        <ele>36.743472</ele>
        <time>2024-07-27T14:00:20.543Z</time>
      </trkpt>
      <trkpt lat="54.13304" lon="15.26631">
        <ele>36.737334</ele>
        <time>2024-07-27T14:00:23.544Z</time>
      </trkpt>
      <trkpt lat="54.1331" lon="15.2665">
        <ele>36.731181</ele>
        <time>2024-07-27T14:00:26.536Z</time>
      </trkpt>
      <trkpt lat="54.13316" lon="15.26669">
        <ele>36.725299</ele>
        <time>2024-07-27T14:00:29.544Z</time>
      </trkpt>
      <trkpt lat="54.13322" lon="15.26688">
        <ele>36.719228</ele>
        <time>2024-07-27T14:00:32.547Z</time>
      </trkpt>
      <trkpt lat="54.1333" lon="15.26704">
        <ele>36.713397</ele>
        <time>2024-07-27T14:00:35.539Z</time>
      </trkpt>
      <trkpt lat="54.13337" lon="15.26722">
        <ele>36.707311</ele>
        <time>2024-07-27T14:00:38.550Z</time>
      </trkpt>
      <trkpt lat="54.13344" lon="15.26741">
        <ele>36.701037</ele>
        <time>2024-07-27T14:00:41.544Z</time>
      </trkpt>
      <trkpt lat="54.13353" lon="15.26758">
        <ele>36.694808</ele>
        <time>2024-07-27T14:00:44.528Z</time>
      </trkpt>
      <trkpt lat="54.13362" lon="15.26774">
        <ele>36.688481</ele>
        <time>2024-07-27T14:00:47.567Z</time>
      </trkpt>
      <trkpt lat="54.1337" lon="15.2679">
        <ele>36.683235</ele>
        <time>2024-07-27T14:00:50.539Z</time>
      </trkpt>
      <trkpt lat="54.13378" lon="15.26807">
        <ele>36.812025</ele>
        <time>2024-07-27T14:00:53.553Z</time>
      </trkpt>
      <trkpt lat="54.13387" lon="15.26823">
        <ele>36.940894</ele>
        <time>2024-07-27T14:00:56.546Z</time>
      </trkpt>
      <trkpt lat="54.13394" lon="15.2684">
        <ele>37.069841</ele>
        <time>2024-07-27T14:00:59.558Z</time>
      </trkpt>
      <trkpt lat="54.13402" lon="15.26857">
        <ele>37.199267</ele>
        <time>2024-07-27T14:01:02.536Z</time>
      </trkpt>
      <trkpt lat="54.13411" lon="15.26873">
        <ele>37.331674</ele>
        <time>2024-07-27T14:01:05.529Z</time>
      </trkpt>
      <trkpt lat="54.13421" lon="15.26889">
        <ele>37.467792</ele>
        <time>2024-07-27T14:01:08.543Z</time>
      </trkpt>
      <trkpt lat="54.13428" lon="15.26907">
        <ele>37.597053</ele>
        <time>2024-07-27T14:01:11.531Z</time>
      </trkpt>
      <trkpt lat="54.13435" lon="15.26925">
        <ele>37.726694</ele>
        <time>2024-07-27T14:01:14.567Z</time>
      </trkpt>
      <trkpt lat="54.1344" lon="15.26938">
        <ele>37.820328</ele>
        <time>2024-07-27T14:01:16.537Z</time>
      </trkpt>
      <trkpt lat="54.13448" lon="15.26957">
        <ele>37.9561</ele>
        <time>2024-07-27T14:01:19.532Z</time>
      </trkpt>
      <trkpt lat="54.13454" lon="15.26969">
        <ele>38.049577</ele>
        <time>2024-07-27T14:01:21.546Z</time>
      </trkpt>
      <trkpt lat="54.13462" lon="15.26987">
        <ele>38.184027</ele>
        <time>2024-07-27T14:01:24.528Z</time>
      </trkpt>
      <trkpt lat="54.1347" lon="15.27005">
        <ele>38.320745</ele>
        <time>2024-07-27T14:01:27.535Z</time>
      </trkpt>
      <trkpt lat="54.13477" lon="15.27017">
        <ele>38.415844</ele>
        <time>2024-07-27T14:01:29.540Z</time>
      </trkpt>
      <trkpt lat="54.13482" lon="15.27028">
        <ele>38.507596</ele>
        <time>2024-07-27T14:01:31.535Z</time>
      </trkpt>
      <trkpt lat="54.13488" lon="15.27041">
        <ele>38.613573</ele>
        <time>2024-07-27T14:01:33.547Z</time>
      </trkpt>
      <trkpt lat="54.13493" lon="15.27053">
        <ele>38.717845</ele>
        <time>2024-07-27T14:01:35.536Z</time>
      </trkpt>
      <trkpt lat="54.13498" lon="15.27067">
        <ele>38.824193</ele>
        <time>2024-07-27T14:01:37.528Z</time>
      </trkpt>
      <trkpt lat="54.13506" lon="15.27083">
        <ele>38.966502</ele>
        <time>2024-07-27T14:01:40.534Z</time>
      </trkpt>
      <trkpt lat="54.13514" lon="15.271">
        <ele>39.113367</ele>
        <time>2024-07-27T14:01:43.539Z</time>
      </trkpt>
      <trkpt lat="54.13522" lon="15.27115">
        <ele>39.243287</ele>
        <time>2024-07-27T14:01:46.540Z</time>
      </trkpt>
      <trkpt lat="54.1353" lon="15.27131">
        <ele>39.384616</ele>
        <time>2024-07-27T14:01:49.545Z</time>
      </trkpt>
      <trkpt lat="54.13537" lon="15.27146">
        <ele>39.521377</ele>
        <time>2024-07-27T14:01:52.544Z</time>
      </trkpt>
      <trkpt lat="54.13545" lon="15.27162">
        <ele>39.658749</ele>
        <time>2024-07-27T14:01:55.549Z</time>
      </trkpt>
      <trkpt lat="54.13553" lon="15.27178">
        <ele>39.802823</ele>
        <time>2024-07-27T14:01:58.539Z</time>
      </trkpt>
      <trkpt lat="54.13561" lon="15.27195">
        <ele>39.949904</ele>
        <time>2024-07-27T14:02:01.562Z</time>
      </trkpt>
      <trkpt lat="54.13569" lon="15.27211">
        <ele>40.087478</ele>
        <time>2024-07-27T14:02:04.541Z</time>
      </trkpt>
      <trkpt lat="54.13575" lon="15.27228">
        <ele>40.224341</ele>
        <time>2024-07-27T14:02:07.548Z</time>
      </trkpt>
      <trkpt lat="54.13582" lon="15.27244">
        <ele>40.354511</ele>
        <time>2024-07-27T14:02:10.542Z</time>
      </trkpt>
      <trkpt lat="54.13589" lon="15.2726">
        <ele>40.495958</ele>
        <time>2024-07-27T14:02:13.550Z</time>
      </trkpt>
      <trkpt lat="54.13598" lon="15.27278">
        <ele>40.498655</ele>
        <time>2024-07-27T14:02:16.547Z</time>
      </trkpt>
      <trkpt lat="54.13606" lon="15.27292">
        <ele>40.345734</ele>
        <time>2024-07-27T14:02:19.550Z</time>
      </trkpt>
      <trkpt lat="54.13612" lon="15.27306">
        <ele>40.207141</ele>
        <time>2024-07-27T14:02:22.561Z</time>
      </trkpt>
      <trkpt lat="54.13619" lon="15.2732">
        <ele>40.066286</ele>
        <time>2024-07-27T14:02:25.559Z</time>
      </trkpt>
      <trkpt lat="54.13626" lon="15.27334">
        <ele>39.929025</ele>
        <time>2024-07-27T14:02:28.543Z</time>
      </trkpt>
      <trkpt lat="54.13632" lon="15.27348">
        <ele>39.787992</ele>
        <time>2024-07-27T14:02:31.543Z</time>
      </trkpt>
      <trkpt lat="54.13639" lon="15.27363">
        <ele>39.648182</ele>
        <time>2024-07-27T14:02:34.541Z</time>
      </trkpt>
      <trkpt lat="54.13646" lon="15.27376">
        <ele>39.508619</ele>
        <time>2024-07-27T14:02:37.550Z</time>
      </trkpt>
      <trkpt lat="54.13653" lon="15.2739">
        <ele>39.364344</ele>
        <time>2024-07-27T14:02:40.543Z</time>
      </trkpt>
      <trkpt lat="54.13661" lon="15.27403">
        <ele>39.217219</ele>
        <time>2024-07-27T14:02:43.551Z</time>
      </trkpt>
      <trkpt lat="54.13669" lon="15.27416">
        <ele>39.072397</ele>
        <time>2024-07-27T14:02:46.549Z</time>
      </trkpt>
      <trkpt lat="54.13676" lon="15.27429">
        <ele>38.93441</ele>
        <time>2024-07-27T14:02:49.548Z</time>
      </trkpt>
      <trkpt lat="54.13684" lon="15.27441">
        <ele>38.800245</ele>
        <time>2024-07-27T14:02:52.545Z</time>
      </trkpt>
      <trkpt lat="54.13691" lon="15.27452">
        <ele>38.665343</ele>
        <time>2024-07-27T14:02:55.557Z</time>
      </trkpt>
      <trkpt lat="54.137" lon="15.27462">
        <ele>38.52638</ele>
        <time>2024-07-27T14:02:58.537Z</time>
      </trkpt>
      <trkpt lat="54.13709" lon="15.27471">
        <ele>38.395614</ele>
        <time>2024-07-27T14:03:01.544Z</time>
      </trkpt>
      <trkpt lat="54.13717" lon="15.2748">
        <ele>38.261529</ele>
        <time>2024-07-27T14:03:04.560Z</time>
      </trkpt>
      <trkpt lat="54.13727" lon="15.27489">
        <ele>38.127548</ele>
        <time>2024-07-27T14:03:07.551Z</time>
      </trkpt>
      <trkpt lat="54.13737" lon="15.27497">
        <ele>38.007997</ele>
        <time>2024-07-27T14:03:10.546Z</time>
      </trkpt>
      <trkpt lat="54.13747" lon="15.27504">
        <ele>37.89075</ele>
        <time>2024-07-27T14:03:13.543Z</time>
      </trkpt>
      <trkpt lat="54.13756" lon="15.27512">
        <ele>37.77169</ele>
        <time>2024-07-27T14:03:16.528Z</time>
      </trkpt>
      <trkpt lat="54.13766" lon="15.27518">
        <ele>37.654679</ele>
        <time>2024-07-27T14:03:19.546Z</time>
      </trkpt>
      <trkpt lat="54.13776" lon="15.27525">
        <ele>37.534367</ele>
        <time>2024-07-27T14:03:22.540Z</time>
      </trkpt>
      <trkpt lat="54.13786" lon="15.27531">
        <ele>37.415221</ele>
        <time>2024-07-27T14:03:25.544Z</time>
      </trkpt>
      <trkpt lat="54.13796" lon="15.27538">
        <ele>37.294643</ele>
        <time>2024-07-27T14:03:28.536Z</time>
      </trkpt>
      <trkpt lat="54.13806" lon="15.27545">
        <ele>37.175032</ele>
        <time>2024-07-27T14:03:31.550Z</time>
      </trkpt>
      <trkpt lat="54.13816" lon="15.27552">
        <ele>37.053173</ele>
        <time>2024-07-27T14:03:34.561Z</time>
      </trkpt>
      <trkpt lat="54.13826" lon="15.27557">
        <ele>36.940502</ele>
        <time>2024-07-27T14:03:37.555Z</time>
      </trkpt>
      <trkpt lat="54.13835" lon="15.27563">
        <ele>36.825993</ele>
        <time>2024-07-27T14:03:40.554Z</time>
      </trkpt>
      <trkpt lat="54.13846" lon="15.2757">
        <ele>36.702603</ele>
        <time>2024-07-27T14:03:43.548Z</time>
      </trkpt>
      <trkpt lat="54.13857" lon="15.27577">
        <ele>36.569541</ele>
        <time>2024-07-27T14:03:46.543Z</time>
      </trkpt>
      <trkpt lat="54.13867" lon="15.27587">
        <ele>36.443487</ele>
        <time>2024-07-27T14:03:49.543Z</time>
      </trkpt>
      <trkpt lat="54.13876" lon="15.27593">
        <ele>36.327469</ele>
        <time>2024-07-27T14:03:52.538Z</time>
      </trkpt>
      <trkpt lat="54.13886" lon="15.27599">
        <ele>36.212368</ele>
        <time>2024-07-27T14:03:55.558Z</time>
      </trkpt>
      <trkpt lat="54.13896" lon="15.27607">
        <ele>36.173425</ele>
        <time>2024-07-27T14:03:58.539Z</time>
      </trkpt>
      <trkpt lat="54.13905" lon="15.27612">
        <ele>36.147566</ele>
        <time>2024-07-27T14:04:01.544Z</time>
      </trkpt>
      <trkpt lat="54.13914" lon="15.27618">
        <ele>36.122909</ele>
        <time>2024-07-27T14:04:04.544Z</time>
      </trkpt>
      <trkpt lat="54.13923" lon="15.27626">
        <ele>36.095679</ele>
        <time>2024-07-27T14:04:07.552Z</time>
      </trkpt>
      <trkpt lat="54.13933" lon="15.27633">
        <ele>36.06797</ele>
        <time>2024-07-27T14:04:10.536Z</time>
      </trkpt>
      <trkpt lat="54.13943" lon="15.27642">
        <ele>36.038091</ele>
        <time>2024-07-27T14:04:13.547Z</time>
      </trkpt>
      <trkpt lat="54.13952" lon="15.27648">
        <ele>36.010693</ele>
        <time>2024-07-27T14:04:16.548Z</time>
      </trkpt>
      <trkpt lat="54.13961" lon="15.27659">
        <ele>35.982052</ele>
        <time>2024-07-27T14:04:19.549Z</time>
      </trkpt>
      <trkpt lat="54.1397" lon="15.2767">
        <ele>35.952227</ele>
        <time>2024-07-27T14:04:22.545Z</time>
      </trkpt>
      <trkpt lat="54.13979" lon="15.27681">
        <ele>35.92338</ele>
        <time>2024-07-27T14:04:25.543Z</time>
      </trkpt>
      <trkpt lat="54.13987" lon="15.27692">
        <ele>35.896694</ele>
        <time>2024-07-27T14:04:28.544Z</time>
      </trkpt>
      <trkpt lat="54.13995" lon="15.27705">
        <ele>35.867645</ele>
        <time>2024-07-27T14:04:31.551Z</time>
      </trkpt>
      <trkpt lat="54.14004" lon="15.27717">
        <ele>35.838002</ele>
        <time>2024-07-27T14:04:34.547Z</time>
      </trkpt>
      <trkpt lat="54.14011" lon="15.27732">
        <ele>35.807365</ele>
        <time>2024-07-27T14:04:37.552Z</time>
      </trkpt>
      <trkpt lat="54.14017" lon="15.27748">
        <ele>35.778569</ele>
        <time>2024-07-27T14:04:40.545Z</time>
      </trkpt>
      <trkpt lat="54.14022" lon="15.27763">
        <ele>35.751388</ele>
        <time>2024-07-27T14:04:43.548Z</time>
      </trkpt>
      <trkpt lat="54.14028" lon="15.27778">
        <ele>35.72366</ele>
        <time>2024-07-27T14:04:46.544Z</time>
      </trkpt>
      <trkpt lat="54.14033" lon="15.27795">
        <ele>35.849885</ele>
        <time>2024-07-27T14:04:49.557Z</time>
      </trkpt>
      <trkpt lat="54.14037" lon="15.27813">
        <ele>35.977688</ele>
        <time>2024-07-27T14:04:52.542Z</time>
      </trkpt>
      <trkpt lat="54.14042" lon="15.27833">
        <ele>36.119304</ele>
        <time>2024-07-27T14:04:55.545Z</time>
      </trkpt>
      <trkpt lat="54.14047" lon="15.27851">
        <ele>36.252314</ele>
        <time>2024-07-27T14:04:58.565Z</time>
      </trkpt>
      <trkpt lat="54.14053" lon="15.2787">
        <ele>36.394072</ele>
        <time>2024-07-27T14:05:01.549Z</time>
      </trkpt>
      <trkpt lat="54.14059" lon="15.27888">
        <ele>36.525779</ele>
        <time>2024-07-27T14:05:04.540Z</time>
      </trkpt>
      <trkpt lat="54.14063" lon="15.27907">
        <ele>36.660904</ele>
        <time>2024-07-27T14:05:07.550Z</time>
      </trkpt>
      <trkpt lat="54.14069" lon="15.27924">
        <ele>36.792435</ele>
        <time>2024-07-27T14:05:10.560Z</time>
      </trkpt>
      <trkpt lat="54.14075" lon="15.27941">
        <ele>36.922249</ele>
        <time>2024-07-27T14:05:13.553Z</time>
      </trkpt>
      <trkpt lat="54.14081" lon="15.27958">
        <ele>37.053728</ele>
        <time>2024-07-27T14:05:16.540Z</time>
      </trkpt>
      <trkpt lat="54.14085" lon="15.27975">
        <ele>37.177982</ele>
        <time>2024-07-27T14:05:19.545Z</time>
      </trkpt>
      <trkpt lat="54.1409" lon="15.27994">
        <ele>37.307623</ele>
        <time>2024-07-27T14:05:22.540Z</time>
      </trkpt>
      <trkpt lat="54.14094" lon="15.28011">
        <ele>37.431742</ele>
        <time>2024-07-27T14:05:25.546Z</time>
      </trkpt>
      <trkpt lat="54.14098" lon="15.28029">
        <ele>37.559681</ele>
        <time>2024-07-27T14:05:28.546Z</time>
      </trkpt>
      <trkpt lat="54.14104" lon="15.28046">
        <ele>37.687427</ele>
        <time>2024-07-27T14:05:31.554Z</time>
      </trkpt>
      <trkpt lat="54.14108" lon="15.28064">
        <ele>37.729925</ele>
        <time>2024-07-27T14:05:34.550Z</time>
      </trkpt>
      <trkpt lat="54.14114" lon="15.28081">
        <ele>37.695786</ele>
        <time>2024-07-27T14:05:37.547Z</time>
      </trkpt>
      <trkpt lat="54.14119" lon="15.28099">
        <ele>37.660072</ele>
        <time>2024-07-27T14:05:40.543Z</time>
      </trkpt>
      <trkpt lat="54.14124" lon="15.28116">
        <ele>37.628379</ele>
        <time>2024-07-27T14:05:43.547Z</time>
      </trkpt>
      <trkpt lat="54.14128" lon="15.28131">
        <ele>37.599559</ele>
        <time>2024-07-27T14:05:46.544Z</time>
      </trkpt>
      <trkpt lat="54.14133" lon="15.28147">
        <ele>37.567025</ele>
        <time>2024-07-27T14:05:49.563Z</time>
      </trkpt>
      <trkpt lat="54.14139" lon="15.28164">
        <ele>37.534083</ele>
        <time>2024-07-27T14:05:52.541Z</time>
      </trkpt>
      <trkpt lat="54.14145" lon="15.28182">
        <ele>37.496782</ele>
        <time>2024-07-27T14:05:55.540Z</time>
      </trkpt>
      <trkpt lat="54.14151" lon="15.28199">
        <ele>37.462923</ele>
        <time>2024-07-27T14:05:58.523Z</time>
      </trkpt>
      <trkpt lat="54.14156" lon="15.28217">
        <ele>37.428415</ele>
        <time>2024-07-27T14:06:01.544Z</time>
      </trkpt>
      <trkpt lat="54.14161" lon="15.28235">
        <ele>37.392677</ele>
        <time>2024-07-27T14:06:04.524Z</time>
      </trkpt>
      <trkpt lat="54.14167" lon="15.28254">
        <ele>37.355196</ele>
        <time>2024-07-27T14:06:07.555Z</time>
      </trkpt>
      <trkpt lat="54.14172" lon="15.28272">
        <ele>37.320346</ele>
        <time>2024-07-27T14:06:10.540Z</time>
      </trkpt>
      <trkpt lat="54.14178" lon="15.28289">
        <ele>37.286357</ele>
        <time>2024-07-27T14:06:13.548Z</time>
      </trkpt>
      <trkpt lat="54.14183" lon="15.28308">
        <ele>37.250811</ele>
        <time>2024-07-27T14:06:16.546Z</time>
      </trkpt>
      <trkpt lat="54.14186" lon="15.28325">
        <ele>37.218934</ele>
        <time>2024-07-27T14:06:19.553Z</time>
      </trkpt>
      <trkpt lat="54.14189" lon="15.2834">
        <ele>37.082675</ele>
        <time>2024-07-27T14:06:22.534Z</time>
      </trkpt>
      <trkpt lat="54.14192" lon="15.28355">
        <ele>36.923482</ele>
        <time>2024-07-27T14:06:25.548Z</time>
      </trkpt>
      <trkpt lat="54.14193" lon="15.28373">
        <ele>36.746603</ele>
        <time>2024-07-27T14:06:28.547Z</time>
      </trkpt>
      <trkpt lat="54.14195" lon="15.28391">
        <ele>36.560464</ele>
        <time>2024-07-27T14:06:31.554Z</time>
      </trkpt>
      <trkpt lat="54.14195" lon="15.28408">
        <ele>36.382594</ele>
        <time>2024-07-27T14:06:34.542Z</time>
      </trkpt>
      <trkpt lat="54.14196" lon="15.28426">
        <ele>36.199863</ele>
        <time>2024-07-27T14:06:38.556Z</time>
      </trkpt>
      <trkpt lat="54.14195" lon="15.28442">
        <ele>36.035007</ele>
        <time>2024-07-27T14:06:42.561Z</time>
      </trkpt>
      <trkpt lat="54.14193" lon="15.28462">
        <ele>35.828328</ele>
        <time>2024-07-27T14:06:46.549Z</time>
      </trkpt>
      <trkpt lat="54.14191" lon="15.28478">
        <ele>35.669418</ele>
        <time>2024-07-27T14:06:49.563Z</time>
      </trkpt>
      <trkpt lat="54.14189" lon="15.28494">
        <ele>35.502919</ele>
        <time>2024-07-27T14:06:52.545Z</time>
      </trkpt>
      <trkpt lat="54.14187" lon="15.2851">
        <ele>35.335325</ele>
        <time>2024-07-27T14:06:55.562Z</time>
      </trkpt>
      <trkpt lat="54.14185" lon="15.28526">
        <ele>35.163551</ele>
        <time>2024-07-27T14:06:58.556Z</time>
      </trkpt>
      <trkpt lat="54.14182" lon="15.28542">
        <ele>34.998018</ele>
        <time>2024-07-27T14:07:01.549Z</time>
      </trkpt>
      <trkpt lat="54.14179" lon="15.28558">
        <ele>34.834716</ele>
        <time>2024-07-27T14:07:04.550Z</time>
      </trkpt>
      <trkpt lat="54.14179" lon="15.28574">
        <ele>34.668849</ele>
        <time>2024-07-27T14:07:08.545Z</time>
      </trkpt>
      <trkpt lat="54.14178" lon="15.28581">
        <ele>34.595103</ele>
        <time>2024-07-27T14:07:15.376Z</time>
      </trkpt>
      <trkpt lat="54.14174" lon="15.28596">
        <ele>34.430539</ele>
        <time>2024-07-27T14:08:09.529Z</time>
      </trkpt>
      <trkpt lat="54.1417" lon="15.28611">
        <ele>34.266899</ele>
        <time>2024-07-27T14:08:12.533Z</time>
      </trkpt>
      <trkpt lat="54.14167" lon="15.28626">
        <ele>34.105604</ele>
        <time>2024-07-27T14:08:15.532Z</time>
      </trkpt>
      <trkpt lat="54.14163" lon="15.28643">
        <ele>34.102218</ele>
        <time>2024-07-27T14:08:19.563Z</time>
      </trkpt>
      <trkpt lat="54.14158" lon="15.28663">
        <ele>34.105194</ele>
        <time>2024-07-27T14:08:23.548Z</time>
      </trkpt>
      <trkpt lat="54.14154" lon="15.2868">
        <ele>34.107829</ele>
        <time>2024-07-27T14:08:26.537Z</time>
      </trkpt>
      <trkpt lat="54.1415" lon="15.28698">
        <ele>34.110446</ele>
        <time>2024-07-27T14:08:29.563Z</time>
      </trkpt>
      <trkpt lat="54.14147" lon="15.28717">
        <ele>34.113288</ele>
        <time>2024-07-27T14:08:32.556Z</time>
      </trkpt>
      <trkpt lat="54.14144" lon="15.28737">
        <ele>34.116163</ele>
        <time>2024-07-27T14:08:35.546Z</time>
      </trkpt>
      <trkpt lat="54.1414" lon="15.28757">
        <ele>34.119174</ele>
        <time>2024-07-27T14:08:38.557Z</time>
      </trkpt>
      <trkpt lat="54.14133" lon="15.28771">
        <ele>34.121748</ele>
        <time>2024-07-27T14:08:42.546Z</time>
      </trkpt>
      <trkpt lat="54.14122" lon="15.28775">
        <ele>34.1245</ele>
        <time>2024-07-27T14:08:46.544Z</time>
      </trkpt>
      <trkpt lat="54.14116" lon="15.2879">
        <ele>34.126944</ele>
        <time>2024-07-27T14:08:49.555Z</time>
      </trkpt>
      <trkpt lat="54.14117" lon="15.28808">
        <ele>34.129484</ele>
        <time>2024-07-27T14:08:52.547Z</time>
      </trkpt>
      <trkpt lat="54.14121" lon="15.28829">
        <ele>34.132543</ele>
        <time>2024-07-27T14:08:55.547Z</time>
      </trkpt>
      <trkpt lat="54.14119" lon="15.28844">
        <ele>34.13481</ele>
        <time>2024-07-27T14:08:57.544Z</time>
      </trkpt>
      <trkpt lat="54.14118" lon="15.2886">
        <ele>34.137083</ele>
        <time>2024-07-27T14:08:59.545Z</time>
      </trkpt>
      <trkpt lat="54.14116" lon="15.28876">
        <ele>34.13929</ele>
        <time>2024-07-27T14:09:01.553Z</time>
      </trkpt>
      <trkpt lat="54.14113" lon="15.28892">
        <ele>34.141623</ele>
        <time>2024-07-27T14:09:03.539Z</time>
      </trkpt>
      <trkpt lat="54.1411" lon="15.28907">
        <ele>34.119157</ele>
        <time>2024-07-27T14:09:05.556Z</time>
      </trkpt>
      <trkpt lat="54.14107" lon="15.28922">
        <ele>34.069493</ele>
        <time>2024-07-27T14:09:07.571Z</time>
      </trkpt>
      <trkpt lat="54.14104" lon="15.28938">
        <ele>34.020696</ele>
        <time>2024-07-27T14:09:09.554Z</time>
      </trkpt>
      <trkpt lat="54.14101" lon="15.28954">
        <ele>33.969223</ele>
        <time>2024-07-27T14:09:11.553Z</time>
      </trkpt>
      <trkpt lat="54.14098" lon="15.28969">
        <ele>33.919715</ele>
        <time>2024-07-27T14:09:13.557Z</time>
      </trkpt>
      <trkpt lat="54.14095" lon="15.28985">
        <ele>33.869759</ele>
        <time>2024-07-27T14:09:15.565Z</time>
      </trkpt>
      <trkpt lat="54.14093" lon="15.29002">
        <ele>33.816742</ele>
        <time>2024-07-27T14:09:17.564Z</time>
      </trkpt>
      <trkpt lat="54.14092" lon="15.29019">
        <ele>33.765307</ele>
        <time>2024-07-27T14:09:19.547Z</time>
      </trkpt>
      <trkpt lat="54.1409" lon="15.29037">
        <ele>33.711939</ele>
        <time>2024-07-27T14:09:21.552Z</time>
      </trkpt>
      <trkpt lat="54.14089" lon="15.29054">
        <ele>33.658229</ele>
        <time>2024-07-27T14:09:23.565Z</time>
      </trkpt>
      <trkpt lat="54.14088" lon="15.29071">
        <ele>33.605641</ele>
        <time>2024-07-27T14:09:25.563Z</time>
      </trkpt>
      <trkpt lat="54.14088" lon="15.29089">
        <ele>33.552801</ele>
        <time>2024-07-27T14:09:27.569Z</time>
      </trkpt>
      <trkpt lat="54.14088" lon="15.29107">
        <ele>33.498482</ele>
        <time>2024-07-27T14:09:29.551Z</time>
      </trkpt>
      <trkpt lat="54.14088" lon="15.29124">
        <ele>33.444732</ele>
        <time>2024-07-27T14:09:31.549Z</time>
      </trkpt>
      <trkpt lat="54.14089" lon="15.29142">
        <ele>33.391424</ele>
        <time>2024-07-27T14:09:33.541Z</time>
      </trkpt>
      <trkpt lat="54.1409" lon="15.29159">
        <ele>33.339326</ele>
        <time>2024-07-27T14:09:35.548Z</time>
      </trkpt>
      <trkpt lat="54.14092" lon="15.29175">
        <ele>33.289385</ele>
        <time>2024-07-27T14:09:37.551Z</time>
      </trkpt>
      <trkpt lat="54.14093" lon="15.29192">
        <ele>33.238336</ele>
        <time>2024-07-27T14:09:39.548Z</time>
      </trkpt>
      <trkpt lat="54.14095" lon="15.29208">
        <ele>33.228866</ele>
        <time>2024-07-27T14:09:41.552Z</time>
      </trkpt>
      <trkpt lat="54.14098" lon="15.29224">
        <ele>33.270173</ele>
        <time>2024-07-27T14:09:43.542Z</time>
      </trkpt>
      <trkpt lat="54.141" lon="15.29239">
        <ele>33.310939</ele>
        <time>2024-07-27T14:09:45.540Z</time>
      </trkpt>
      <trkpt lat="54.14103" lon="15.29254">
        <ele>33.349695</ele>
        <time>2024-07-27T14:09:47.537Z</time>
      </trkpt>
      <trkpt lat="54.14108" lon="15.29275">
        <ele>33.404627</ele>
        <time>2024-07-27T14:09:50.558Z</time>
      </trkpt>
      <trkpt lat="54.14113" lon="15.29294">
        <ele>33.458792</ele>
        <time>2024-07-27T14:09:53.547Z</time>
      </trkpt>
      <trkpt lat="54.14119" lon="15.29314">
        <ele>33.512683</ele>
        <time>2024-07-27T14:09:56.549Z</time>
      </trkpt>
      <trkpt lat="54.14124" lon="15.29332">
        <ele>33.564001</ele>
        <time>2024-07-27T14:09:59.561Z</time>
      </trkpt>
      <trkpt lat="54.1413" lon="15.29348">
        <ele>33.613163</ele>
        <time>2024-07-27T14:10:02.532Z</time>
      </trkpt>
      <trkpt lat="54.14137" lon="15.29364">
        <ele>33.661897</ele>
        <time>2024-07-27T14:10:05.547Z</time>
      </trkpt>
      <trkpt lat="54.14145" lon="15.2938">
        <ele>33.713225</ele>
        <time>2024-07-27T14:10:08.548Z</time>
      </trkpt>
      <trkpt lat="54.14152" lon="15.29397">
        <ele>33.764356</ele>
        <time>2024-07-27T14:10:11.546Z</time>
      </trkpt>
      <trkpt lat="54.14159" lon="15.29413">
        <ele>33.816019</ele>
        <time>2024-07-27T14:10:14.541Z</time>
      </trkpt>
      <trkpt lat="54.14167" lon="15.29429">
        <ele>33.868338</ele>
        <time>2024-07-27T14:10:17.530Z</time>
      </trkpt>
      <trkpt lat="54.14175" lon="15.29445">
        <ele>33.920706</ele>
        <time>2024-07-27T14:10:20.532Z</time>
      </trkpt>
      <trkpt lat="54.14183" lon="15.29461">
        <ele>33.97318</ele>
        <time>2024-07-27T14:10:23.549Z</time>
      </trkpt>
      <trkpt lat="54.14191" lon="15.29478">
        <ele>34.025754</ele>
        <time>2024-07-27T14:10:26.543Z</time>
      </trkpt>
      <trkpt lat="54.14199" lon="15.29494">
        <ele>34.078742</ele>
        <time>2024-07-27T14:10:29.551Z</time>
      </trkpt>
      <trkpt lat="54.14207" lon="15.29511">
        <ele>34.130154</ele>
        <time>2024-07-27T14:10:32.553Z</time>
      </trkpt>
      <trkpt lat="54.14215" lon="15.29527">
        <ele>34.18103</ele>
        <time>2024-07-27T14:10:35.555Z</time>
      </trkpt>
      <trkpt lat="54.14222" lon="15.29544">
        <ele>34.233798</ele>
        <time>2024-07-27T14:10:38.564Z</time>
      </trkpt>
      <trkpt lat="54.1423" lon="15.2956">
        <ele>34.285048</ele>
        <time>2024-07-27T14:10:41.545Z</time>
      </trkpt>
      <trkpt lat="54.14238" lon="15.29576">
        <ele>34.335885</ele>
        <time>2024-07-27T14:10:44.544Z</time>
      </trkpt>
      <trkpt lat="54.14246" lon="15.29593">
        <ele>34.386867</ele>
        <time>2024-07-27T14:10:47.562Z</time>
      </trkpt>
      <trkpt lat="54.14253" lon="15.29608">
        <ele>34.436192</ele>
        <time>2024-07-27T14:10:50.561Z</time>
      </trkpt>
      <trkpt lat="54.14261" lon="15.29624">
        <ele>34.486345</ele>
        <time>2024-07-27T14:10:53.562Z</time>
      </trkpt>
      <trkpt lat="54.14269" lon="15.2964">
        <ele>34.536233</ele>
        <time>2024-07-27T14:10:56.541Z</time>
      </trkpt>
      <trkpt lat="54.14276" lon="15.29655">
        <ele>34.583672</ele>
        <time>2024-07-27T14:10:59.551Z</time>
      </trkpt>
      <trkpt lat="54.14283" lon="15.2967">
        <ele>34.63281</ele>
        <time>2024-07-27T14:11:02.538Z</time>
      </trkpt>
      <trkpt lat="54.14291" lon="15.29686">
        <ele>34.682245</ele>
        <time>2024-07-27T14:11:05.564Z</time>
      </trkpt>
      <trkpt lat="54.14298" lon="15.29701">
        <ele>34.734352</ele>
        <time>2024-07-27T14:11:08.550Z</time>
      </trkpt>
      <trkpt lat="54.14305" lon="15.29717">
        <ele>34.831019</ele>
        <time>2024-07-27T14:11:11.547Z</time>
      </trkpt>
      <trkpt lat="54.14312" lon="15.29732">
        <ele>34.92759</ele>
        <time>2024-07-27T14:11:14.546Z</time>
      </trkpt>
      <trkpt lat="54.1432" lon="15.29748">
        <ele>35.026023</ele>
        <time>2024-07-27T14:11:17.559Z</time>
      </trkpt>
      <trkpt lat="54.14328" lon="15.29763">
        <ele>35.125557</ele>
        <time>2024-07-27T14:11:20.551Z</time>
      </trkpt>
      <trkpt lat="54.14335" lon="15.29779">
        <ele>35.225107</ele>
        <time>2024-07-27T14:11:23.558Z</time>
      </trkpt>
      <trkpt lat="54.14341" lon="15.29795">
        <ele>35.324074</ele>
        <time>2024-07-27T14:11:26.547Z</time>
      </trkpt>
      <trkpt lat="54.14348" lon="15.29812">
        <ele>35.422079</ele>
        <time>2024-07-27T14:11:29.542Z</time>
      </trkpt>
      <trkpt lat="54.14355" lon="15.29828">
        <ele>35.520491</ele>
        <time>2024-07-27T14:11:32.563Z</time>
      </trkpt>
      <trkpt lat="54.14362" lon="15.29845">
        <ele>35.625316</ele>
        <time>2024-07-27T14:11:35.555Z</time>
      </trkpt>
      <trkpt lat="54.14369" lon="15.29863">
        <ele>35.729574</ele>
        <time>2024-07-27T14:11:38.540Z</time>
      </trkpt>
      <trkpt lat="54.14375" lon="15.2988">
        <ele>35.827826</ele>
        <time>2024-07-27T14:11:41.544Z</time>
      </trkpt>
      <trkpt lat="54.14382" lon="15.29898">
        <ele>35.931528</ele>
        <time>2024-07-27T14:11:44.535Z</time>
      </trkpt>
      <trkpt lat="54.14388" lon="15.29914">
        <ele>36.030495</ele>
        <time>2024-07-27T14:11:47.549Z</time>
      </trkpt>
      <trkpt lat="54.14395" lon="15.29932">
        <ele>36.13335</ele>
        <time>2024-07-27T14:11:50.541Z</time>
      </trkpt>
      <trkpt lat="54.144" lon="15.29949">
        <ele>36.226875</ele>
        <time>2024-07-27T14:11:53.541Z</time>
      </trkpt>
      <trkpt lat="54.14406" lon="15.29967">
        <ele>36.226403</ele>
        <time>2024-07-27T14:11:56.563Z</time>
      </trkpt>
      <trkpt lat="54.14411" lon="15.29984">
        <ele>36.211324</ele>
        <time>2024-07-27T14:11:59.552Z</time>
      </trkpt>
      <trkpt lat="54.14416" lon="15.30002">
        <ele>36.195729</ele>
        <time>2024-07-27T14:12:02.541Z</time>
      </trkpt>
      <trkpt lat="54.14421" lon="15.30022">
        <ele>36.179006</ele>
        <time>2024-07-27T14:12:05.547Z</time>
      </trkpt>
      <trkpt lat="54.14426" lon="15.3004">
        <ele>36.163335</ele>
        <time>2024-07-27T14:12:08.545Z</time>
      </trkpt>
      <trkpt lat="54.1443" lon="15.30058">
        <ele>36.148323</ele>
        <time>2024-07-27T14:12:11.547Z</time>
      </trkpt>
      <trkpt lat="54.14435" lon="15.30075">
        <ele>36.13357</ele>
        <time>2024-07-27T14:12:14.558Z</time>
      </trkpt>
      <trkpt lat="54.14437" lon="15.3009">
        <ele>36.12154</ele>
        <time>2024-07-27T14:12:17.545Z</time>
      </trkpt>
      <trkpt lat="54.14438" lon="15.30107">
        <ele>36.108465</ele>
        <time>2024-07-27T14:12:21.544Z</time>
      </trkpt>
      <trkpt lat="54.14442" lon="15.30121">
        <ele>36.096302</ele>
        <time>2024-07-27T14:12:24.533Z</time>
      </trkpt>
      <trkpt lat="54.14445" lon="15.30136">
        <ele>36.084074</ele>
        <time>2024-07-27T14:12:27.524Z</time>
      </trkpt>
      <trkpt lat="54.14448" lon="15.30151">
        <ele>36.071152</ele>
        <time>2024-07-27T14:12:30.550Z</time>
      </trkpt>
      <trkpt lat="54.14452" lon="15.30167">
        <ele>36.057889</ele>
        <time>2024-07-27T14:12:33.556Z</time>
      </trkpt>
      <trkpt lat="54.14454" lon="15.30184">
        <ele>36.044671</ele>
        <time>2024-07-27T14:12:36.545Z</time>
      </trkpt>
      <trkpt lat="54.14457" lon="15.30203">
        <ele>36.029436</ele>
        <time>2024-07-27T14:12:40.548Z</time>
      </trkpt>
      <trkpt lat="54.14462" lon="15.3022">
        <ele>36.014741</ele>
        <time>2024-07-27T14:12:44.542Z</time>
      </trkpt>
      <trkpt lat="54.14461" lon="15.30236">
        <ele>36.001821</ele>
        <time>2024-07-27T14:12:49.543Z</time>
      </trkpt>
      <trkpt lat="54.14457" lon="15.30251">
        <ele>36.07243</ele>
        <time>2024-07-27T14:12:56.548Z</time>
      </trkpt>
      <trkpt lat="54.14464" lon="15.3026">
        <ele>36.146597</ele>
        <time>2024-07-27T14:13:02.531Z</time>
      </trkpt>
      <trkpt lat="54.14473" lon="15.30271">
        <ele>36.234139</ele>
        <time>2024-07-27T14:13:07.529Z</time>
      </trkpt>
      <trkpt lat="54.14476" lon="15.30291">
        <ele>36.332145</ele>
        <time>2024-07-27T14:13:11.541Z</time>
      </trkpt>
      <trkpt lat="54.14479" lon="15.30306">
        <ele>36.407875</ele>
        <time>2024-07-27T14:13:14.553Z</time>
      </trkpt>
      <trkpt lat="54.14482" lon="15.30323">
        <ele>36.493051</ele>
        <time>2024-07-27T14:13:17.549Z</time>
      </trkpt>
      <trkpt lat="54.14486" lon="15.30339">
        <ele>36.575963</ele>
        <time>2024-07-27T14:13:20.557Z</time>
      </trkpt>
      <trkpt lat="54.14491" lon="15.30357">
        <ele>36.671215</ele>
        <time>2024-07-27T14:13:23.552Z</time>
      </trkpt>
      <trkpt lat="54.14495" lon="15.30376">
        <ele>36.767435</ele>
        <time>2024-07-27T14:13:26.546Z</time>
      </trkpt>
      <trkpt lat="54.14499" lon="15.30394">
        <ele>36.860643</ele>
        <time>2024-07-27T14:13:29.549Z</time>
      </trkpt>
      <trkpt lat="54.14502" lon="15.30413">
        <ele>36.952687</ele>
        <time>2024-07-27T14:13:32.516Z</time>
      </trkpt>
      <trkpt lat="54.14506" lon="15.30431">
        <ele>37.043116</ele>
        <time>2024-07-27T14:13:35.559Z</time>
      </trkpt>
      <trkpt lat="54.1451" lon="15.30451">
        <ele>37.146236</ele>
        <time>2024-07-27T14:13:38.536Z</time>
      </trkpt>
      <trkpt lat="54.14514" lon="15.30471">
        <ele>37.245927</ele>
        <time>2024-07-27T14:13:41.537Z</time>
      </trkpt>
      <trkpt lat="54.14517" lon="15.3049">
        <ele>37.342976</ele>
        <time>2024-07-27T14:13:44.536Z</time>
      </trkpt>
      <trkpt lat="54.14521" lon="15.30511">
        <ele>37.444627</ele>
        <time>2024-07-27T14:13:47.552Z</time>
      </trkpt>
      <trkpt lat="54.14525" lon="15.30532">
        <ele>37.498471</ele>
        <time>2024-07-27T14:13:50.522Z</time>
      </trkpt>
      <trkpt lat="54.14529" lon="15.30551">
        <ele>37.534782</ele>
        <time>2024-07-27T14:13:53.547Z</time>
      </trkpt>
      <trkpt lat="54.14534" lon="15.30572">
        <ele>37.571617</ele>
        <time>2024-07-27T14:13:56.569Z</time>
      </trkpt>
      <trkpt lat="54.14537" lon="15.30592">
        <ele>37.609019</ele>
        <time>2024-07-27T14:13:59.532Z</time>
      </trkpt>
      <trkpt lat="54.14542" lon="15.30613">
        <ele>37.64737</ele>
        <time>2024-07-27T14:14:02.547Z</time>
      </trkpt>
      <trkpt lat="54.14546" lon="15.30634">
        <ele>37.685375</ele>
        <time>2024-07-27T14:14:05.540Z</time>
      </trkpt>
      <trkpt lat="54.1455" lon="15.30655">
        <ele>37.723374</ele>
        <time>2024-07-27T14:14:08.548Z</time>
      </trkpt>
      <trkpt lat="54.14555" lon="15.30676">
        <ele>37.761014</ele>
        <time>2024-07-27T14:14:11.564Z</time>
      </trkpt>
      <trkpt lat="54.14559" lon="15.30698">
        <ele>37.800635</ele>
        <time>2024-07-27T14:14:14.545Z</time>
      </trkpt>
      <trkpt lat="54.14562" lon="15.30713">
        <ele>37.828589</ele>
        <time>2024-07-27T14:14:16.541Z</time>
      </trkpt>
      <trkpt lat="54.14565" lon="15.30735">
        <ele>37.866647</ele>
        <time>2024-07-27T14:14:19.569Z</time>
      </trkpt>
      <trkpt lat="54.14569" lon="15.30756">
        <ele>37.905033</ele>
        <time>2024-07-27T14:14:22.531Z</time>
      </trkpt>
      <trkpt lat="54.14571" lon="15.30771">
        <ele>37.931485</ele>
        <time>2024-07-27T14:14:24.554Z</time>
      </trkpt>
      <trkpt lat="54.14574" lon="15.30786">
        <ele>37.958915</ele>
        <time>2024-07-27T14:14:26.540Z</time>
      </trkpt>
      <trkpt lat="54.14577" lon="15.30802">
        <ele>37.986268</ele>
        <time>2024-07-27T14:14:28.544Z</time>
      </trkpt>
      <trkpt lat="54.14579" lon="15.30818">
        <ele>37.910724</ele>
        <time>2024-07-27T14:14:30.544Z</time>
      </trkpt>
      <trkpt lat="54.14582" lon="15.30839">
        <ele>37.730906</ele>
        <time>2024-07-27T14:14:33.544Z</time>
      </trkpt>
      <trkpt lat="54.14584" lon="15.30855">
        <ele>37.60228</ele>
        <time>2024-07-27T14:14:35.552Z</time>
      </trkpt>
      <trkpt lat="54.14586" lon="15.30871">
        <ele>37.467668</ele>
        <time>2024-07-27T14:14:37.555Z</time>
      </trkpt>
      <trkpt lat="54.14588" lon="15.30888">
        <ele>37.335416</ele>
        <time>2024-07-27T14:14:39.555Z</time>
      </trkpt>
      <trkpt lat="54.1459" lon="15.30903">
        <ele>37.209688</ele>
        <time>2024-07-27T14:14:41.546Z</time>
      </trkpt>
      <trkpt lat="54.14593" lon="15.30918">
        <ele>37.07867</ele>
        <time>2024-07-27T14:14:43.548Z</time>
      </trkpt>
      <trkpt lat="54.14596" lon="15.30933">
        <ele>36.953338</ele>
        <time>2024-07-27T14:14:45.532Z</time>
      </trkpt>
      <trkpt lat="54.14599" lon="15.30948">
        <ele>36.823763</ele>
        <time>2024-07-27T14:14:47.548Z</time>
      </trkpt>
      <trkpt lat="54.14602" lon="15.30971">
        <ele>36.641565</ele>
        <time>2024-07-27T14:14:50.546Z</time>
      </trkpt>
      <trkpt lat="54.14603" lon="15.30986">
        <ele>36.514745</ele>
        <time>2024-07-27T14:14:52.544Z</time>
      </trkpt>
      <trkpt lat="54.14606" lon="15.31003">
        <ele>36.375399</ele>
        <time>2024-07-27T14:14:54.530Z</time>
      </trkpt>
      <trkpt lat="54.1461" lon="15.31018">
        <ele>36.239915</ele>
        <time>2024-07-27T14:14:56.533Z</time>
      </trkpt>
      <trkpt lat="54.14614" lon="15.31033">
        <ele>36.112083</ele>
        <time>2024-07-27T14:14:58.536Z</time>
      </trkpt>
      <trkpt lat="54.14617" lon="15.31049">
        <ele>35.978185</ele>
        <time>2024-07-27T14:15:00.551Z</time>
      </trkpt>
      <trkpt lat="54.14619" lon="15.31065">
        <ele>35.845799</ele>
        <time>2024-07-27T14:15:02.533Z</time>
      </trkpt>
      <trkpt lat="54.14622" lon="15.3108">
        <ele>35.712663</ele>
        <time>2024-07-27T14:15:04.555Z</time>
      </trkpt>
      <trkpt lat="54.14625" lon="15.31095">
        <ele>35.584534</ele>
        <time>2024-07-27T14:15:06.560Z</time>
      </trkpt>
      <trkpt lat="54.14629" lon="15.31111">
        <ele>35.502293</ele>
        <time>2024-07-27T14:15:08.549Z</time>
      </trkpt>
      <trkpt lat="54.14632" lon="15.31128">
        <ele>35.458005</ele>
        <time>2024-07-27T14:15:10.539Z</time>
      </trkpt>
      <trkpt lat="54.14635" lon="15.31143">
        <ele>35.415165</ele>
        <time>2024-07-27T14:15:12.544Z</time>
      </trkpt>
      <trkpt lat="54.14638" lon="15.31159">
        <ele>35.372079</ele>
        <time>2024-07-27T14:15:14.543Z</time>
      </trkpt>
      <trkpt lat="54.14642" lon="15.31174">
        <ele>35.32991</ele>
        <time>2024-07-27T14:15:16.545Z</time>
      </trkpt>
      <trkpt lat="54.14645" lon="15.31189">
        <ele>35.287852</ele>
        <time>2024-07-27T14:15:18.541Z</time>
      </trkpt>
      <trkpt lat="54.14648" lon="15.31204">
        <ele>35.245667</ele>
        <time>2024-07-27T14:15:20.541Z</time>
      </trkpt>
      <trkpt lat="54.14652" lon="15.31219">
        <ele>35.202767</ele>
        <time>2024-07-27T14:15:22.546Z</time>
      </trkpt>
      <trkpt lat="54.14655" lon="15.31234">
        <ele>35.162581</ele>
        <time>2024-07-27T14:15:24.539Z</time>
      </trkpt>
      <trkpt lat="54.14657" lon="15.31249">
        <ele>35.120429</ele>
        <time>2024-07-27T14:15:26.543Z</time>
      </trkpt>
      <trkpt lat="54.14661" lon="15.31264">
        <ele>35.078905</ele>
        <time>2024-07-27T14:15:28.557Z</time>
      </trkpt>
      <trkpt lat="54.14665" lon="15.31286">
        <ele>35.020075</ele>
        <time>2024-07-27T14:15:31.548Z</time>
      </trkpt>
      <trkpt lat="54.14668" lon="15.31307">
        <ele>34.962158</ele>
        <time>2024-07-27T14:15:34.545Z</time>
      </trkpt>
      <trkpt lat="54.14672" lon="15.31329">
        <ele>34.90209</ele>
        <time>2024-07-27T14:15:37.564Z</time>
      </trkpt>
      <trkpt lat="54.14677" lon="15.31351">
        <ele>34.84184</ele>
        <time>2024-07-27T14:15:40.546Z</time>
      </trkpt>
      <trkpt lat="54.1468" lon="15.31366">
        <ele>34.800417</ele>
        <time>2024-07-27T14:15:42.541Z</time>
      </trkpt>
      <trkpt lat="54.14683" lon="15.31387">
        <ele>34.744378</ele>
        <time>2024-07-27T14:15:45.536Z</time>
      </trkpt>
      <trkpt lat="54.14688" lon="15.31407">
        <ele>34.688061</ele>
        <time>2024-07-27T14:15:48.534Z</time>
      </trkpt>
      <trkpt lat="54.14692" lon="15.31427">
        <ele>34.630823</ele>
        <time>2024-07-27T14:15:51.548Z</time>
      </trkpt>
      <trkpt lat="54.14696" lon="15.31448">
        <ele>34.57324</ele>
        <time>2024-07-27T14:15:54.541Z</time>
      </trkpt>
      <trkpt lat="54.147" lon="15.31469">
        <ele>34.513571</ele>
        <time>2024-07-27T14:15:57.561Z</time>
      </trkpt>
      <trkpt lat="54.14705" lon="15.3149">
        <ele>34.454099</ele>
        <time>2024-07-27T14:16:00.547Z</time>
      </trkpt>
      <trkpt lat="54.14708" lon="15.31505">
        <ele>34.412295</ele>
        <time>2024-07-27T14:16:02.546Z</time>
      </trkpt>
      <trkpt lat="54.14711" lon="15.3152">
        <ele>34.371797</ele>
        <time>2024-07-27T14:16:04.557Z</time>
      </trkpt>
      <trkpt lat="54.14714" lon="15.3154">
        <ele>34.315338</ele>
        <time>2024-07-27T14:16:07.521Z</time>
      </trkpt>
      <trkpt lat="54.14717" lon="15.31555">
        <ele>34.274821</ele>
        <time>2024-07-27T14:16:09.545Z</time>
      </trkpt>
      <trkpt lat="54.14721" lon="15.31576">
        <ele>34.217613</ele>
        <time>2024-07-27T14:16:12.546Z</time>
      </trkpt>
      <trkpt lat="54.14724" lon="15.31591">
        <ele>34.175106</ele>
        <time>2024-07-27T14:16:14.537Z</time>
      </trkpt>
      <trkpt lat="54.14726" lon="15.31607">
        <ele>34.13106</ele>
        <time>2024-07-27T14:16:16.542Z</time>
      </trkpt>
      <trkpt lat="54.14729" lon="15.31623">
        <ele>34.086384</ele>
        <time>2024-07-27T14:16:18.541Z</time>
      </trkpt>
      <trkpt lat="54.14732" lon="15.31639">
        <ele>34.042715</ele>
        <time>2024-07-27T14:16:20.545Z</time>
      </trkpt>
      <trkpt lat="54.14734" lon="15.31654">
        <ele>34.001885</ele>
        <time>2024-07-27T14:16:22.557Z</time>
      </trkpt>
      <trkpt lat="54.14737" lon="15.3167">
        <ele>33.95961</ele>
        <time>2024-07-27T14:16:24.544Z</time>
      </trkpt>
      <trkpt lat="54.14739" lon="15.31685">
        <ele>33.915324</ele>
        <time>2024-07-27T14:16:26.545Z</time>
      </trkpt>
      <trkpt lat="54.14742" lon="15.31701">
        <ele>33.848952</ele>
        <time>2024-07-27T14:16:28.580Z</time>
      </trkpt>
      <trkpt lat="54.14745" lon="15.31716">
        <ele>33.781048</ele>
        <time>2024-07-27T14:16:30.548Z</time>
      </trkpt>
      <trkpt lat="54.14748" lon="15.31732">
        <ele>33.714794</ele>
        <time>2024-07-27T14:16:32.540Z</time>
      </trkpt>
      <trkpt lat="54.14751" lon="15.31746">
        <ele>33.649702</ele>
        <time>2024-07-27T14:16:34.540Z</time>
      </trkpt>
      <trkpt lat="54.14755" lon="15.31762">
        <ele>33.581269</ele>
        <time>2024-07-27T14:16:36.548Z</time>
      </trkpt>
      <trkpt lat="54.14758" lon="15.31778">
        <ele>33.509394</ele>
        <time>2024-07-27T14:16:38.548Z</time>
      </trkpt>
      <trkpt lat="54.14762" lon="15.31794">
        <ele>33.440826</ele>
        <time>2024-07-27T14:16:40.547Z</time>
      </trkpt>
      <trkpt lat="54.14765" lon="15.31809">
        <ele>33.371685</ele>
        <time>2024-07-27T14:16:42.543Z</time>
      </trkpt>
      <trkpt lat="54.14768" lon="15.31825">
        <ele>33.305559</ele>
        <time>2024-07-27T14:16:44.556Z</time>
      </trkpt>
      <trkpt lat="54.14771" lon="15.31841">
        <ele>33.235611</ele>
        <time>2024-07-27T14:16:46.547Z</time>
      </trkpt>
      <trkpt lat="54.14775" lon="15.31856">
        <ele>33.168077</ele>
        <time>2024-07-27T14:16:48.556Z</time>
      </trkpt>
      <trkpt lat="54.14778" lon="15.31872">
        <ele>33.10017</ele>
        <time>2024-07-27T14:16:50.545Z</time>
      </trkpt>
      <trkpt lat="54.14781" lon="15.31888">
        <ele>33.031074</ele>
        <time>2024-07-27T14:16:52.561Z</time>
      </trkpt>
      <trkpt lat="54.14784" lon="15.31903">
        <ele>32.962252</ele>
        <time>2024-07-27T14:16:54.542Z</time>
      </trkpt>
      <trkpt lat="54.14787" lon="15.31919">
        <ele>32.893331</ele>
        <time>2024-07-27T14:16:56.572Z</time>
      </trkpt>
      <trkpt lat="54.14791" lon="15.31935">
        <ele>32.821934</ele>
        <time>2024-07-27T14:16:58.542Z</time>
      </trkpt>
      <trkpt lat="54.14794" lon="15.31952">
        <ele>32.750047</ele>
        <time>2024-07-27T14:17:00.545Z</time>
      </trkpt>
      <trkpt lat="54.14797" lon="15.31969">
        <ele>32.676793</ele>
        <time>2024-07-27T14:17:02.518Z</time>
      </trkpt>
      <trkpt lat="54.148" lon="15.31985">
        <ele>32.599047</ele>
        <time>2024-07-27T14:17:04.545Z</time>
      </trkpt>
      <trkpt lat="54.14803" lon="15.32001">
        <ele>32.512445</ele>
        <time>2024-07-27T14:17:06.543Z</time>
      </trkpt>
      <trkpt lat="54.14806" lon="15.32018">
        <ele>32.428014</ele>
        <time>2024-07-27T14:17:08.546Z</time>
      </trkpt>
      <trkpt lat="54.14808" lon="15.32033">
        <ele>32.348581</ele>
        <time>2024-07-27T14:17:10.560Z</time>
      </trkpt>
      <trkpt lat="54.14812" lon="15.32049">
        <ele>32.266842</ele>
        <time>2024-07-27T14:17:12.548Z</time>
      </trkpt>
      <trkpt lat="54.14815" lon="15.32064">
        <ele>32.185842</ele>
        <time>2024-07-27T14:17:14.552Z</time>
      </trkpt>
      <trkpt lat="54.14819" lon="15.32079">
        <ele>32.103047</ele>
        <time>2024-07-27T14:17:16.550Z</time>
      </trkpt>
      <trkpt lat="54.14821" lon="15.32095">
        <ele>32.023319</ele>
        <time>2024-07-27T14:17:18.543Z</time>
      </trkpt>
      <trkpt lat="54.14824" lon="15.32111">
        <ele>31.940734</ele>
        <time>2024-07-27T14:17:20.557Z</time>
      </trkpt>
      <trkpt lat="54.14827" lon="15.32126">
        <ele>31.859144</ele>
        <time>2024-07-27T14:17:22.543Z</time>
      </trkpt>
      <trkpt lat="54.14831" lon="15.32141">
        <ele>31.781734</ele>
        <time>2024-07-27T14:17:24.548Z</time>
      </trkpt>
      <trkpt lat="54.14833" lon="15.32156">
        <ele>31.704651</ele>
        <time>2024-07-27T14:17:26.545Z</time>
      </trkpt>
      <trkpt lat="54.14837" lon="15.32172">
        <ele>31.618237</ele>
        <time>2024-07-27T14:17:28.526Z</time>
      </trkpt>
      <trkpt lat="54.1484" lon="15.32188">
        <ele>31.534974</ele>
        <time>2024-07-27T14:17:30.551Z</time>
      </trkpt>
      <trkpt lat="54.14842" lon="15.32204">
        <ele>31.452926</ele>
        <time>2024-07-27T14:17:32.546Z</time>
      </trkpt>
      <trkpt lat="54.14845" lon="15.3222">
        <ele>31.372064</ele>
        <time>2024-07-27T14:17:34.549Z</time>
      </trkpt>
      <trkpt lat="54.14848" lon="15.32235">
        <ele>31.290215</ele>
        <time>2024-07-27T14:17:36.542Z</time>
      </trkpt>
      <trkpt lat="54.14851" lon="15.32251">
        <ele>31.207207</ele>
        <time>2024-07-27T14:17:38.573Z</time>
      </trkpt>
      <trkpt lat="54.14854" lon="15.32268">
        <ele>31.139763</ele>
        <time>2024-07-27T14:17:40.550Z</time>
      </trkpt>
      <trkpt lat="54.14857" lon="15.32283">
        <ele>31.26775</ele>
        <time>2024-07-27T14:17:42.546Z</time>
      </trkpt>
      <trkpt lat="54.14861" lon="15.32297">
        <ele>31.389956</ele>
        <time>2024-07-27T14:17:44.544Z</time>
      </trkpt>
      <trkpt lat="54.14865" lon="15.32314">
        <ele>31.527154</ele>
        <time>2024-07-27T14:17:46.545Z</time>
      </trkpt>
      <trkpt lat="54.14868" lon="15.3233">
        <ele>31.661772</ele>
        <time>2024-07-27T14:17:48.524Z</time>
      </trkpt>
      <trkpt lat="54.14871" lon="15.32346">
        <ele>31.788901</ele>
        <time>2024-07-27T14:17:50.534Z</time>
      </trkpt>
      <trkpt lat="54.14873" lon="15.32361">
        <ele>31.913782</ele>
        <time>2024-07-27T14:17:52.553Z</time>
      </trkpt>
      <trkpt lat="54.14876" lon="15.32377">
        <ele>32.037914</ele>
        <time>2024-07-27T14:17:54.555Z</time>
      </trkpt>
      <trkpt lat="54.14878" lon="15.32392">
        <ele>32.163935</ele>
        <time>2024-07-27T14:17:56.544Z</time>
      </trkpt>
      <trkpt lat="54.14881" lon="15.32408">
        <ele>32.293718</ele>
        <time>2024-07-27T14:17:58.520Z</time>
      </trkpt>
      <trkpt lat="54.14884" lon="15.32423">
        <ele>32.419044</ele>
        <time>2024-07-27T14:18:00.535Z</time>
      </trkpt>
      <trkpt lat="54.14888" lon="15.32445">
        <ele>32.595924</ele>
        <time>2024-07-27T14:18:03.547Z</time>
      </trkpt>
      <trkpt lat="54.14891" lon="15.32464">
        <ele>32.751471</ele>
        <time>2024-07-27T14:18:06.546Z</time>
      </trkpt>
      <trkpt lat="54.14894" lon="15.32483">
        <ele>32.907013</ele>
        <time>2024-07-27T14:18:09.547Z</time>
      </trkpt>
      <trkpt lat="54.14898" lon="15.325">
        <ele>33.045821</ele>
        <time>2024-07-27T14:18:12.587Z</time>
      </trkpt>
      <trkpt lat="54.14901" lon="15.32519">
        <ele>33.202694</ele>
        <time>2024-07-27T14:18:15.539Z</time>
      </trkpt>
      <trkpt lat="54.14905" lon="15.32539">
        <ele>33.367366</ele>
        <time>2024-07-27T14:18:18.526Z</time>
      </trkpt>
      <trkpt lat="54.1491" lon="15.32559">
        <ele>33.532325</ele>
        <time>2024-07-27T14:18:21.562Z</time>
      </trkpt>
      <trkpt lat="54.14913" lon="15.3258">
        <ele>33.727015</ele>
        <time>2024-07-27T14:18:24.555Z</time>
      </trkpt>
      <trkpt lat="54.14917" lon="15.32601">
        <ele>33.927805</ele>
        <time>2024-07-27T14:18:27.551Z</time>
      </trkpt>
      <trkpt lat="54.14921" lon="15.32622">
        <ele>34.127684</ele>
        <time>2024-07-27T14:18:30.545Z</time>
      </trkpt>
      <trkpt lat="54.14925" lon="15.32642">
        <ele>34.321146</ele>
        <time>2024-07-27T14:18:33.546Z</time>
      </trkpt>
      <trkpt lat="54.14929" lon="15.32663">
        <ele>34.526016</ele>
        <time>2024-07-27T14:18:36.536Z</time>
      </trkpt>
      <trkpt lat="54.14932" lon="15.32678">
        <ele>34.665521</ele>
        <time>2024-07-27T14:18:38.529Z</time>
      </trkpt>
      <trkpt lat="54.14934" lon="15.32694">
        <ele>34.809825</ele>
        <time>2024-07-27T14:18:40.541Z</time>
      </trkpt>
      <trkpt lat="54.14936" lon="15.32709">
        <ele>34.95178</ele>
        <time>2024-07-27T14:18:42.535Z</time>
      </trkpt>
      <trkpt lat="54.14938" lon="15.32724">
        <ele>35.094816</ele>
        <time>2024-07-27T14:18:44.552Z</time>
      </trkpt>
      <trkpt lat="54.1494" lon="15.32741">
        <ele>35.2486</ele>
        <time>2024-07-27T14:18:46.543Z</time>
      </trkpt>
      <trkpt lat="54.14941" lon="15.32757">
        <ele>35.396666</ele>
        <time>2024-07-27T14:18:48.566Z</time>
      </trkpt>
      <trkpt lat="54.14942" lon="15.32774">
        <ele>35.546143</ele>
        <time>2024-07-27T14:18:50.558Z</time>
      </trkpt>
      <trkpt lat="54.14943" lon="15.3279">
        <ele>35.691849</ele>
        <time>2024-07-27T14:18:52.548Z</time>
      </trkpt>
      <trkpt lat="54.14946" lon="15.32805">
        <ele>35.838397</ele>
        <time>2024-07-27T14:18:54.540Z</time>
      </trkpt>
      <trkpt lat="54.14948" lon="15.32821">
        <ele>35.98701</ele>
        <time>2024-07-27T14:18:56.561Z</time>
      </trkpt>
      <trkpt lat="54.1495" lon="15.32836">
        <ele>36.127746</ele>
        <time>2024-07-27T14:18:58.539Z</time>
      </trkpt>
      <trkpt lat="54.14952" lon="15.32852">
        <ele>36.271659</ele>
        <time>2024-07-27T14:19:00.533Z</time>
      </trkpt>
      <trkpt lat="54.14955" lon="15.32867">
        <ele>36.207976</ele>
        <time>2024-07-27T14:19:02.527Z</time>
      </trkpt>
      <trkpt lat="54.14959" lon="15.32889">
        <ele>36.028004</ele>
        <time>2024-07-27T14:19:05.548Z</time>
      </trkpt>
      <trkpt lat="54.14962" lon="15.32911">
        <ele>35.856011</ele>
        <time>2024-07-27T14:19:08.551Z</time>
      </trkpt>
      <trkpt lat="54.14964" lon="15.3293">
        <ele>35.706897</ele>
        <time>2024-07-27T14:19:11.555Z</time>
      </trkpt>
      <trkpt lat="54.14968" lon="15.3295">
        <ele>35.54405</ele>
        <time>2024-07-27T14:19:14.546Z</time>
      </trkpt>
      <trkpt lat="54.14972" lon="15.32972">
        <ele>35.370724</ele>
        <time>2024-07-27T14:19:17.535Z</time>
      </trkpt>
      <trkpt lat="54.14974" lon="15.32987">
        <ele>35.250074</ele>
        <time>2024-07-27T14:19:19.529Z</time>
      </trkpt>
      <trkpt lat="54.14978" lon="15.33007">
        <ele>35.091128</ele>
        <time>2024-07-27T14:19:22.518Z</time>
      </trkpt>
      <trkpt lat="54.1498" lon="15.33029">
        <ele>34.919147</ele>
        <time>2024-07-27T14:19:25.538Z</time>
      </trkpt>
      <trkpt lat="54.14982" lon="15.33045">
        <ele>34.794692</ele>
        <time>2024-07-27T14:19:27.543Z</time>
      </trkpt>
      <trkpt lat="54.14984" lon="15.33061">
        <ele>34.664346</ele>
        <time>2024-07-27T14:19:29.544Z</time>
      </trkpt>
      <trkpt lat="54.14986" lon="15.33078">
        <ele>34.534696</ele>
        <time>2024-07-27T14:19:31.549Z</time>
      </trkpt>
      <trkpt lat="54.14987" lon="15.33095">
        <ele>34.404431</ele>
        <time>2024-07-27T14:19:33.544Z</time>
      </trkpt>
      <trkpt lat="54.1499" lon="15.33111">
        <ele>34.273028</ele>
        <time>2024-07-27T14:19:35.570Z</time>
      </trkpt>
      <trkpt lat="54.14992" lon="15.33128">
        <ele>34.143042</ele>
        <time>2024-07-27T14:19:37.560Z</time>
      </trkpt>
      <trkpt lat="54.14992" lon="15.33146">
        <ele>34.002185</ele>
        <time>2024-07-27T14:19:39.546Z</time>
      </trkpt>
      <trkpt lat="54.14993" lon="15.33163">
        <ele>33.932579</ele>
        <time>2024-07-27T14:19:41.550Z</time>
      </trkpt>
      <trkpt lat="54.14995" lon="15.3318">
        <ele>33.913395</ele>
        <time>2024-07-27T14:19:43.544Z</time>
      </trkpt>
      <trkpt lat="54.14997" lon="15.33196">
        <ele>33.89436</ele>
        <time>2024-07-27T14:19:45.541Z</time>
      </trkpt>
      <trkpt lat="54.14999" lon="15.33212">
        <ele>33.876797</ele>
        <time>2024-07-27T14:19:47.543Z</time>
      </trkpt>
      <trkpt lat="54.15" lon="15.33234">
        <ele>33.851316</ele>
        <time>2024-07-27T14:19:50.551Z</time>
      </trkpt>
      <trkpt lat="54.15002" lon="15.3325">
        <ele>33.833381</ele>
        <time>2024-07-27T14:19:52.532Z</time>
      </trkpt>
      <trkpt lat="54.15004" lon="15.33265">
        <ele>33.815409</ele>
        <time>2024-07-27T14:19:54.547Z</time>
      </trkpt>
      <trkpt lat="54.15006" lon="15.33281">
        <ele>33.797142</ele>
        <time>2024-07-27T14:19:56.541Z</time>
      </trkpt>
      <trkpt lat="54.15008" lon="15.33297">
        <ele>33.779098</ele>
        <time>2024-07-27T14:19:58.540Z</time>
      </trkpt>
      <trkpt lat="54.1501" lon="15.33313">
        <ele>33.760557</ele>
        <time>2024-07-27T14:20:00.535Z</time>
      </trkpt>
      <trkpt lat="54.15012" lon="15.33328">
        <ele>33.742589</ele>
        <time>2024-07-27T14:20:02.516Z</time>
      </trkpt>
      <trkpt lat="54.15015" lon="15.33344">
        <ele>33.724497</ele>
        <time>2024-07-27T14:20:04.533Z</time>
      </trkpt>
      <trkpt lat="54.15018" lon="15.33366">
        <ele>33.698484</ele>
        <time>2024-07-27T14:20:07.545Z</time>
      </trkpt>
      <trkpt lat="54.15019" lon="15.33389">
        <ele>33.672328</ele>
        <time>2024-07-27T14:20:10.547Z</time>
      </trkpt>
      <trkpt lat="54.15021" lon="15.33412">
        <ele>33.646731</ele>
        <time>2024-07-27T14:20:13.543Z</time>
      </trkpt>
      <trkpt lat="54.15024" lon="15.33434">
        <ele>33.620937</ele>
        <time>2024-07-27T14:20:16.527Z</time>
      </trkpt>
      <trkpt lat="54.15027" lon="15.33456">
        <ele>33.603317</ele>
        <time>2024-07-27T14:20:19.551Z</time>
      </trkpt>
      <trkpt lat="54.15029" lon="15.33472">
        <ele>33.654948</ele>
        <time>2024-07-27T14:20:21.555Z</time>
      </trkpt>
      <trkpt lat="54.15031" lon="15.33487">
        <ele>33.706277</ele>
        <time>2024-07-27T14:20:23.545Z</time>
      </trkpt>
      <trkpt lat="54.15033" lon="15.33502">
        <ele>33.757179</ele>
        <time>2024-07-27T14:20:25.551Z</time>
      </trkpt>
      <trkpt lat="54.15035" lon="15.33518">
        <ele>33.807781</ele>
        <time>2024-07-27T14:20:27.546Z</time>
      </trkpt>
      <trkpt lat="54.15036" lon="15.3354">
        <ele>33.880314</ele>
        <time>2024-07-27T14:20:30.559Z</time>
      </trkpt>
      <trkpt lat="54.15039" lon="15.33561">
        <ele>33.952053</ele>
        <time>2024-07-27T14:20:33.548Z</time>
      </trkpt>
      <trkpt lat="54.15042" lon="15.33583">
        <ele>34.02445</ele>
        <time>2024-07-27T14:20:36.532Z</time>
      </trkpt>
      <trkpt lat="54.15045" lon="15.33602">
        <ele>34.091441</ele>
        <time>2024-07-27T14:20:39.543Z</time>
      </trkpt>
      <trkpt lat="54.15048" lon="15.33623">
        <ele>34.160374</ele>
        <time>2024-07-27T14:20:42.552Z</time>
      </trkpt>
      <trkpt lat="54.15051" lon="15.33643">
        <ele>34.229072</ele>
        <time>2024-07-27T14:20:45.538Z</time>
      </trkpt>
      <trkpt lat="54.15054" lon="15.33664">
        <ele>34.297516</ele>
        <time>2024-07-27T14:20:48.550Z</time>
      </trkpt>
      <trkpt lat="54.15054" lon="15.33683">
        <ele>34.360473</ele>
        <time>2024-07-27T14:20:51.568Z</time>
      </trkpt>
      <trkpt lat="54.15055" lon="15.33702">
        <ele>34.424221</ele>
        <time>2024-07-27T14:20:54.535Z</time>
      </trkpt>
      <trkpt lat="54.15057" lon="15.33721">
        <ele>34.486357</ele>
        <time>2024-07-27T14:20:57.537Z</time>
      </trkpt>
      <trkpt lat="54.15062" lon="15.33738">
        <ele>34.549916</ele>
        <time>2024-07-27T14:21:00.535Z</time>
      </trkpt>
      <trkpt lat="54.15065" lon="15.33757">
        <ele>34.584036</ele>
        <time>2024-07-27T14:21:03.531Z</time>
      </trkpt>
      <trkpt lat="54.15066" lon="15.33778">
        <ele>34.479669</ele>
        <time>2024-07-27T14:21:06.532Z</time>
      </trkpt>
      <trkpt lat="54.15068" lon="15.33798">
        <ele>34.381515</ele>
        <time>2024-07-27T14:21:09.546Z</time>
      </trkpt>
      <trkpt lat="54.15071" lon="15.33817">
        <ele>34.28378</ele>
        <time>2024-07-27T14:21:12.540Z</time>
      </trkpt>
      <trkpt lat="54.15072" lon="15.33836">
        <ele>34.187414</ele>
        <time>2024-07-27T14:21:15.546Z</time>
      </trkpt>
      <trkpt lat="54.15074" lon="15.33855">
        <ele>34.095919</ele>
        <time>2024-07-27T14:21:18.573Z</time>
      </trkpt>
      <trkpt lat="54.15075" lon="15.33875">
        <ele>33.996947</ele>
        <time>2024-07-27T14:21:21.523Z</time>
      </trkpt>
      <trkpt lat="54.15076" lon="15.33895">
        <ele>33.900578</ele>
        <time>2024-07-27T14:21:24.552Z</time>
      </trkpt>
      <trkpt lat="54.15078" lon="15.33914">
        <ele>33.804427</ele>
        <time>2024-07-27T14:21:27.528Z</time>
      </trkpt>
      <trkpt lat="54.1508" lon="15.33933">
        <ele>33.709609</ele>
        <time>2024-07-27T14:21:30.539Z</time>
      </trkpt>
      <trkpt lat="54.15082" lon="15.33954">
        <ele>33.608719</ele>
        <time>2024-07-27T14:21:33.550Z</time>
      </trkpt>
      <trkpt lat="54.15086" lon="15.33974">
        <ele>33.504881</ele>
        <time>2024-07-27T14:21:36.541Z</time>
      </trkpt>
      <trkpt lat="54.1509" lon="15.33994">
        <ele>33.396523</ele>
        <time>2024-07-27T14:21:39.527Z</time>
      </trkpt>
      <trkpt lat="54.15092" lon="15.34014">
        <ele>33.297223</ele>
        <time>2024-07-27T14:21:42.527Z</time>
      </trkpt>
      <trkpt lat="54.15095" lon="15.34034">
        <ele>33.201309</ele>
        <time>2024-07-27T14:21:45.542Z</time>
      </trkpt>
      <trkpt lat="54.15097" lon="15.3405">
        <ele>33.118843</ele>
        <time>2024-07-27T14:21:48.540Z</time>
      </trkpt>
      <trkpt lat="54.15099" lon="15.34071">
        <ele>33.014781</ele>
        <time>2024-07-27T14:21:51.540Z</time>
      </trkpt>
      <trkpt lat="54.15101" lon="15.3409">
        <ele>32.914813</ele>
        <time>2024-07-27T14:21:54.538Z</time>
      </trkpt>
      <trkpt lat="54.15103" lon="15.34112">
        <ele>32.800582</ele>
        <time>2024-07-27T14:21:57.541Z</time>
      </trkpt>
      <trkpt lat="54.15106" lon="15.34134">
        <ele>32.685753</ele>
        <time>2024-07-27T14:22:00.549Z</time>
      </trkpt>
      <trkpt lat="54.15109" lon="15.34155">
        <ele>32.576433</ele>
        <time>2024-07-27T14:22:03.541Z</time>
      </trkpt>
      <trkpt lat="54.15112" lon="15.34176">
        <ele>32.468298</ele>
        <time>2024-07-27T14:22:06.555Z</time>
      </trkpt>
      <trkpt lat="54.15115" lon="15.34198">
        <ele>32.355692</ele>
        <time>2024-07-27T14:22:09.557Z</time>
      </trkpt>
      <trkpt lat="54.15118" lon="15.3422">
        <ele>32.239705</ele>
        <time>2024-07-27T14:22:12.538Z</time>
      </trkpt>
      <trkpt lat="54.1512" lon="15.34242">
        <ele>32.12587</ele>
        <time>2024-07-27T14:22:15.543Z</time>
      </trkpt>
      <trkpt lat="54.15123" lon="15.34264">
        <ele>32.014091</ele>
        <time>2024-07-27T14:22:18.537Z</time>
      </trkpt>
      <trkpt lat="54.15125" lon="15.34286">
        <ele>31.898496</ele>
        <time>2024-07-27T14:22:21.545Z</time>
      </trkpt>
      <trkpt lat="54.15127" lon="15.34307">
        <ele>31.794212</ele>
        <time>2024-07-27T14:22:24.526Z</time>
      </trkpt>
      <trkpt lat="54.15129" lon="15.34327">
        <ele>31.68898</ele>
        <time>2024-07-27T14:22:27.539Z</time>
      </trkpt>
      <trkpt lat="54.15131" lon="15.34343">
        <ele>31.609093</ele>
        <time>2024-07-27T14:22:29.514Z</time>
      </trkpt>
      <trkpt lat="54.15134" lon="15.34363">
        <ele>31.498636</ele>
        <time>2024-07-27T14:22:32.530Z</time>
      </trkpt>
      <trkpt lat="54.15135" lon="15.34384">
        <ele>31.386433</ele>
        <time>2024-07-27T14:22:35.542Z</time>
      </trkpt>
      <trkpt lat="54.15137" lon="15.34405">
        <ele>31.27456</ele>
        <time>2024-07-27T14:22:38.533Z</time>
      </trkpt>
      <trkpt lat="54.15141" lon="15.34425">
        <ele>31.163044</ele>
        <time>2024-07-27T14:22:41.529Z</time>
      </trkpt>
      <trkpt lat="54.15146" lon="15.34442">
        <ele>31.061265</ele>
        <time>2024-07-27T14:22:44.535Z</time>
      </trkpt>
      <trkpt lat="54.15148" lon="15.34464">
        <ele>30.943122</ele>
        <time>2024-07-27T14:22:47.521Z</time>
      </trkpt>
      <trkpt lat="54.1515" lon="15.34486">
        <ele>30.825643</ele>
        <time>2024-07-27T14:22:50.544Z</time>
      </trkpt>
      <trkpt lat="54.15154" lon="15.34508">
        <ele>30.704532</ele>
        <time>2024-07-27T14:22:53.543Z</time>
      </trkpt>
      <trkpt lat="54.15157" lon="15.3453">
        <ele>30.584221</ele>
        <time>2024-07-27T14:22:56.563Z</time>
      </trkpt>
      <trkpt lat="54.15161" lon="15.34552">
        <ele>30.463337</ele>
        <time>2024-07-27T14:22:59.539Z</time>
      </trkpt>
      <trkpt lat="54.15163" lon="15.34568">
        <ele>30.378883</ele>
        <time>2024-07-27T14:23:01.542Z</time>
      </trkpt>
      <trkpt lat="54.15165" lon="15.34583">
        <ele>30.296827</ele>
        <time>2024-07-27T14:23:03.544Z</time>
      </trkpt>
      <trkpt lat="54.15167" lon="15.34598">
        <ele>30.21413</ele>
        <time>2024-07-27T14:23:05.539Z</time>
      </trkpt>
      <trkpt lat="54.1517" lon="15.3462">
        <ele>30.094273</ele>
        <time>2024-07-27T14:23:08.544Z</time>
      </trkpt>
      <trkpt lat="54.15173" lon="15.34641">
        <ele>29.977429</ele>
        <time>2024-07-27T14:23:11.555Z</time>
      </trkpt>
      <trkpt lat="54.15176" lon="15.34663">
        <ele>29.912238</ele>
        <time>2024-07-27T14:23:14.542Z</time>
      </trkpt>
      <trkpt lat="54.15179" lon="15.34684">
        <ele>29.902494</ele>
        <time>2024-07-27T14:23:17.546Z</time>
      </trkpt>
      <trkpt lat="54.15183" lon="15.34705">
        <ele>29.892358</ele>
        <time>2024-07-27T14:23:20.545Z</time>
      </trkpt>
      <trkpt lat="54.15187" lon="15.34727">
        <ele>29.881809</ele>
        <time>2024-07-27T14:23:23.545Z</time>
      </trkpt>
      <trkpt lat="54.15189" lon="15.34743">
        <ele>29.874718</ele>
        <time>2024-07-27T14:23:25.541Z</time>
      </trkpt>
      <trkpt lat="54.15192" lon="15.34765">
        <ele>29.864469</ele>
        <time>2024-07-27T14:23:28.538Z</time>
      </trkpt>
      <trkpt lat="54.15195" lon="15.34786">
        <ele>29.854425</ele>
        <time>2024-07-27T14:23:31.548Z</time>
      </trkpt>
      <trkpt lat="54.15198" lon="15.34807">
        <ele>29.844571</ele>
        <time>2024-07-27T14:23:34.542Z</time>
      </trkpt>
      <trkpt lat="54.15201" lon="15.34828">
        <ele>29.835047</ele>
        <time>2024-07-27T14:23:37.545Z</time>
      </trkpt>
      <trkpt lat="54.15203" lon="15.34849">
        <ele>29.825326</ele>
        <time>2024-07-27T14:23:40.549Z</time>
      </trkpt>
      <trkpt lat="54.15205" lon="15.3487">
        <ele>29.815626</ele>
        <time>2024-07-27T14:23:43.554Z</time>
      </trkpt>
      <trkpt lat="54.15208" lon="15.34891">
        <ele>29.805741</ele>
        <time>2024-07-27T14:23:46.539Z</time>
      </trkpt>
      <trkpt lat="54.15211" lon="15.34912">
        <ele>29.795819</ele>
        <time>2024-07-27T14:23:49.532Z</time>
      </trkpt>
      <trkpt lat="54.15214" lon="15.34933">
        <ele>29.786373</ele>
        <time>2024-07-27T14:23:52.544Z</time>
      </trkpt>
      <trkpt lat="54.15215" lon="15.3495">
        <ele>29.778601</ele>
        <time>2024-07-27T14:23:56.548Z</time>
      </trkpt>
      <trkpt lat="54.15217" lon="15.34968">
        <ele>29.889091</ele>
        <time>2024-07-27T14:24:00.541Z</time>
      </trkpt>
      <trkpt lat="54.15219" lon="15.34987">
        <ele>30.014149</ele>
        <time>2024-07-27T14:24:03.545Z</time>
      </trkpt>
      <trkpt lat="54.15219" lon="15.35006">
        <ele>30.142065</ele>
        <time>2024-07-27T14:24:06.533Z</time>
      </trkpt>
      <trkpt lat="54.1522" lon="15.35027">
        <ele>30.278267</ele>
        <time>2024-07-27T14:24:09.544Z</time>
      </trkpt>
      <trkpt lat="54.15221" lon="15.35047">
        <ele>30.414284</ele>
        <time>2024-07-27T14:24:12.544Z</time>
      </trkpt>
      <trkpt lat="54.15222" lon="15.35068">
        <ele>30.552849</ele>
        <time>2024-07-27T14:24:15.544Z</time>
      </trkpt>
      <trkpt lat="54.15224" lon="15.35088">
        <ele>30.685339</ele>
        <time>2024-07-27T14:24:18.566Z</time>
      </trkpt>
      <trkpt lat="54.15226" lon="15.35109">
        <ele>30.821513</ele>
        <time>2024-07-27T14:24:21.541Z</time>
      </trkpt>
      <trkpt lat="54.1522" lon="15.35121">
        <ele>30.922738</ele>
        <time>2024-07-27T14:24:27.537Z</time>
      </trkpt>
      <trkpt lat="54.15229" lon="15.35128">
        <ele>31.028318</ele>
        <time>2024-07-27T14:26:27.542Z</time>
      </trkpt>
      <trkpt lat="54.1523" lon="15.35145">
        <ele>31.139399</ele>
        <time>2024-07-27T14:26:32.554Z</time>
      </trkpt>
      <trkpt lat="54.15231" lon="15.3516">
        <ele>31.241197</ele>
        <time>2024-07-27T14:26:35.553Z</time>
      </trkpt>
      <trkpt lat="54.15231" lon="15.35177">
        <ele>31.350521</ele>
        <time>2024-07-27T14:26:38.538Z</time>
      </trkpt>
      <trkpt lat="54.15232" lon="15.35194">
        <ele>31.462483</ele>
        <time>2024-07-27T14:26:41.544Z</time>
      </trkpt>
      <trkpt lat="54.15233" lon="15.35211">
        <ele>31.576536</ele>
        <time>2024-07-27T14:26:44.538Z</time>
      </trkpt>
      <trkpt lat="54.15234" lon="15.35228">
        <ele>31.687433</ele>
        <time>2024-07-27T14:26:47.539Z</time>
      </trkpt>
      <trkpt lat="54.15236" lon="15.35246">
        <ele>31.797243</ele>
        <time>2024-07-27T14:26:50.548Z</time>
      </trkpt>
      <trkpt lat="54.15236" lon="15.35264">
        <ele>31.771383</ele>
        <time>2024-07-27T14:26:53.545Z</time>
      </trkpt>
      <trkpt lat="54.15238" lon="15.35283">
        <ele>31.743065</ele>
        <time>2024-07-27T14:26:56.536Z</time>
      </trkpt>
      <trkpt lat="54.1524" lon="15.35302">
        <ele>31.715782</ele>
        <time>2024-07-27T14:26:59.543Z</time>
      </trkpt>
      <trkpt lat="54.15241" lon="15.35322">
        <ele>31.686981</ele>
        <time>2024-07-27T14:27:02.539Z</time>
      </trkpt>
      <trkpt lat="54.15243" lon="15.35341">
        <ele>31.659017</ele>
        <time>2024-07-27T14:27:05.522Z</time>
      </trkpt>
      <trkpt lat="54.15244" lon="15.35362">
        <ele>31.628074</ele>
        <time>2024-07-27T14:27:08.539Z</time>
      </trkpt>
      <trkpt lat="54.15246" lon="15.35383">
        <ele>31.597132</ele>
        <time>2024-07-27T14:27:11.559Z</time>
      </trkpt>
      <trkpt lat="54.15247" lon="15.35402">
        <ele>31.569197</ele>
        <time>2024-07-27T14:27:14.544Z</time>
      </trkpt>
      <trkpt lat="54.15248" lon="15.35419">
        <ele>31.543857</ele>
        <time>2024-07-27T14:27:17.545Z</time>
      </trkpt>
      <trkpt lat="54.1525" lon="15.35436">
        <ele>31.519312</ele>
        <time>2024-07-27T14:27:20.544Z</time>
      </trkpt>
      <trkpt lat="54.15251" lon="15.35454">
        <ele>31.493571</ele>
        <time>2024-07-27T14:27:23.526Z</time>
      </trkpt>
      <trkpt lat="54.15252" lon="15.35472">
        <ele>31.466294</ele>
        <time>2024-07-27T14:27:26.532Z</time>
      </trkpt>
      <trkpt lat="54.15253" lon="15.35492">
        <ele>31.438001</ele>
        <time>2024-07-27T14:27:29.535Z</time>
      </trkpt>
      <trkpt lat="54.15253" lon="15.35512">
        <ele>31.408796</ele>
        <time>2024-07-27T14:27:32.539Z</time>
      </trkpt>
      <trkpt lat="54.15254" lon="15.35532">
        <ele>31.379122</ele>
        <time>2024-07-27T14:27:35.531Z</time>
      </trkpt>
      <trkpt lat="54.15255" lon="15.35554">
        <ele>31.367452</ele>
        <time>2024-07-27T14:27:38.528Z</time>
      </trkpt>
      <trkpt lat="54.15257" lon="15.35573">
        <ele>31.426745</ele>
        <time>2024-07-27T14:27:41.533Z</time>
      </trkpt>
      <trkpt lat="54.15258" lon="15.35594">
        <ele>31.489859</ele>
        <time>2024-07-27T14:27:44.527Z</time>
      </trkpt>
      <trkpt lat="54.1526" lon="15.35616">
        <ele>31.55545</ele>
        <time>2024-07-27T14:27:47.543Z</time>
      </trkpt>
      <trkpt lat="54.15261" lon="15.35638">
        <ele>31.621157</ele>
        <time>2024-07-27T14:27:50.556Z</time>
      </trkpt>
      <trkpt lat="54.15263" lon="15.35659">
        <ele>31.686834</ele>
        <time>2024-07-27T14:27:53.553Z</time>
      </trkpt>
      <trkpt lat="54.15264" lon="15.3568">
        <ele>31.74911</ele>
        <time>2024-07-27T14:27:56.544Z</time>
      </trkpt>
      <trkpt lat="54.15267" lon="15.35702">
        <ele>31.815363</ele>
        <time>2024-07-27T14:27:59.553Z</time>
      </trkpt>
      <trkpt lat="54.1527" lon="15.35722">
        <ele>31.877526</ele>
        <time>2024-07-27T14:28:02.551Z</time>
      </trkpt>
      <trkpt lat="54.15274" lon="15.35742">
        <ele>31.941657</ele>
        <time>2024-07-27T14:28:05.547Z</time>
      </trkpt>
      <trkpt lat="54.15276" lon="15.35757">
        <ele>31.987928</ele>
        <time>2024-07-27T14:28:07.527Z</time>
      </trkpt>
      <trkpt lat="54.1528" lon="15.35778">
        <ele>32.054527</ele>
        <time>2024-07-27T14:28:10.543Z</time>
      </trkpt>
      <trkpt lat="54.15283" lon="15.35798">
        <ele>32.117524</ele>
        <time>2024-07-27T14:28:13.552Z</time>
      </trkpt>
      <trkpt lat="54.15286" lon="15.35818">
        <ele>32.178399</ele>
        <time>2024-07-27T14:28:16.541Z</time>
      </trkpt>
      <trkpt lat="54.15288" lon="15.35838">
        <ele>32.239739</ele>
        <time>2024-07-27T14:28:19.544Z</time>
      </trkpt>
      <trkpt lat="54.15292" lon="15.35859">
        <ele>32.263757</ele>
        <time>2024-07-27T14:28:22.550Z</time>
      </trkpt>
      <trkpt lat="54.15295" lon="15.3588">
        <ele>32.234641</ele>
        <time>2024-07-27T14:28:25.546Z</time>
      </trkpt>
      <trkpt lat="54.15298" lon="15.35901">
        <ele>32.205554</ele>
        <time>2024-07-27T14:28:28.541Z</time>
      </trkpt>
      <trkpt lat="54.15302" lon="15.35921">
        <ele>32.178137</ele>
        <time>2024-07-27T14:28:31.549Z</time>
      </trkpt>
      <trkpt lat="54.15305" lon="15.35938">
        <ele>32.153789</ele>
        <time>2024-07-27T14:28:34.544Z</time>
      </trkpt>
      <trkpt lat="54.15308" lon="15.35956">
        <ele>32.128222</ele>
        <time>2024-07-27T14:28:37.547Z</time>
      </trkpt>
      <trkpt lat="54.15311" lon="15.35975">
        <ele>32.10202</ele>
        <time>2024-07-27T14:28:40.545Z</time>
      </trkpt>
      <trkpt lat="54.15313" lon="15.35994">
        <ele>32.075789</ele>
        <time>2024-07-27T14:28:43.546Z</time>
      </trkpt>
      <trkpt lat="54.15316" lon="15.36014">
        <ele>32.04939</ele>
        <time>2024-07-27T14:28:46.547Z</time>
      </trkpt>
      <trkpt lat="54.15319" lon="15.36033">
        <ele>32.022345</ele>
        <time>2024-07-27T14:28:49.563Z</time>
      </trkpt>
      <trkpt lat="54.15322" lon="15.36053">
        <ele>31.995075</ele>
        <time>2024-07-27T14:28:52.539Z</time>
      </trkpt>
      <trkpt lat="54.15326" lon="15.36074">
        <ele>31.966568</ele>
        <time>2024-07-27T14:28:55.557Z</time>
      </trkpt>
      <trkpt lat="54.15329" lon="15.36094">
        <ele>31.938186</ele>
        <time>2024-07-27T14:28:58.532Z</time>
      </trkpt>
      <trkpt lat="54.15332" lon="15.36115">
        <ele>31.9092</ele>
        <time>2024-07-27T14:29:01.551Z</time>
      </trkpt>
      <trkpt lat="54.15335" lon="15.36136">
        <ele>31.880213</ele>
        <time>2024-07-27T14:29:04.547Z</time>
      </trkpt>
      <trkpt lat="54.15339" lon="15.36158">
        <ele>31.812349</ele>
        <time>2024-07-27T14:29:07.541Z</time>
      </trkpt>
      <trkpt lat="54.15342" lon="15.36178">
        <ele>31.717236</ele>
        <time>2024-07-27T14:29:10.524Z</time>
      </trkpt>
      <trkpt lat="54.15346" lon="15.36199">
        <ele>31.616116</ele>
        <time>2024-07-27T14:29:13.548Z</time>
      </trkpt>
      <trkpt lat="54.15348" lon="15.3622">
        <ele>31.522311</ele>
        <time>2024-07-27T14:29:16.543Z</time>
      </trkpt>
      <trkpt lat="54.15352" lon="15.36241">
        <ele>31.422256</ele>
        <time>2024-07-27T14:29:19.551Z</time>
      </trkpt>
      <trkpt lat="54.15354" lon="15.36257">
        <ele>31.345618</ele>
        <time>2024-07-27T14:29:21.541Z</time>
      </trkpt>
      <trkpt lat="54.15356" lon="15.36273">
        <ele>31.273312</ele>
        <time>2024-07-27T14:29:23.545Z</time>
      </trkpt>
      <trkpt lat="54.15359" lon="15.36288">
        <ele>31.201688</ele>
        <time>2024-07-27T14:29:25.548Z</time>
      </trkpt>
      <trkpt lat="54.15361" lon="15.36305">
        <ele>31.125791</ele>
        <time>2024-07-27T14:29:27.532Z</time>
      </trkpt>
      <trkpt lat="54.15362" lon="15.36321">
        <ele>31.051756</ele>
        <time>2024-07-27T14:29:29.529Z</time>
      </trkpt>
      <trkpt lat="54.15362" lon="15.36339">
        <ele>30.97126</ele>
        <time>2024-07-27T14:29:31.527Z</time>
      </trkpt>
      <trkpt lat="54.15363" lon="15.36356">
        <ele>30.894196</ele>
        <time>2024-07-27T14:29:33.530Z</time>
      </trkpt>
      <trkpt lat="54.15364" lon="15.36373">
        <ele>30.816565</ele>
        <time>2024-07-27T14:29:35.555Z</time>
      </trkpt>
      <trkpt lat="54.15365" lon="15.36389">
        <ele>30.740726</ele>
        <time>2024-07-27T14:29:37.557Z</time>
      </trkpt>
      <trkpt lat="54.15367" lon="15.36406">
        <ele>30.664992</ele>
        <time>2024-07-27T14:29:39.553Z</time>
      </trkpt>
      <trkpt lat="54.15368" lon="15.36422">
        <ele>30.593178</ele>
        <time>2024-07-27T14:29:41.559Z</time>
      </trkpt>
      <trkpt lat="54.15369" lon="15.36443">
        <ele>30.49655</ele>
        <time>2024-07-27T14:29:44.552Z</time>
      </trkpt>
      <trkpt lat="54.1537" lon="15.36465">
        <ele>30.620999</ele>
        <time>2024-07-27T14:29:47.523Z</time>
      </trkpt>
      <trkpt lat="54.15371" lon="15.36487">
        <ele>30.792642</ele>
        <time>2024-07-27T14:29:50.543Z</time>
      </trkpt>
      <trkpt lat="54.15372" lon="15.36508">
        <ele>30.95817</ele>
        <time>2024-07-27T14:29:53.541Z</time>
      </trkpt>
      <trkpt lat="54.15374" lon="15.36529">
        <ele>31.126044</ele>
        <time>2024-07-27T14:29:56.541Z</time>
      </trkpt>
      <trkpt lat="54.15374" lon="15.36552">
        <ele>31.30943</ele>
        <time>2024-07-27T14:29:59.544Z</time>
      </trkpt>
      <trkpt lat="54.15376" lon="15.36574">
        <ele>31.484042</ele>
        <time>2024-07-27T14:30:02.545Z</time>
      </trkpt>
      <trkpt lat="54.15377" lon="15.36597">
        <ele>31.665215</ele>
        <time>2024-07-27T14:30:05.552Z</time>
      </trkpt>
      <trkpt lat="54.15379" lon="15.36619">
        <ele>31.840438</ele>
        <time>2024-07-27T14:30:08.548Z</time>
      </trkpt>
      <trkpt lat="54.15381" lon="15.36635">
        <ele>31.963234</ele>
        <time>2024-07-27T14:30:10.545Z</time>
      </trkpt>
      <trkpt lat="54.15382" lon="15.3665">
        <ele>32.085773</ele>
        <time>2024-07-27T14:30:12.551Z</time>
      </trkpt>
      <trkpt lat="54.15384" lon="15.36673">
        <ele>32.267595</ele>
        <time>2024-07-27T14:30:15.548Z</time>
      </trkpt>
      <trkpt lat="54.15384" lon="15.36696">
        <ele>32.447247</ele>
        <time>2024-07-27T14:30:18.541Z</time>
      </trkpt>
      <trkpt lat="54.15386" lon="15.36712">
        <ele>32.57627</ele>
        <time>2024-07-27T14:30:20.540Z</time>
      </trkpt>
      <trkpt lat="54.15388" lon="15.36727">
        <ele>32.698336</ele>
        <time>2024-07-27T14:30:22.557Z</time>
      </trkpt>
      <trkpt lat="54.1539" lon="15.3675">
        <ele>32.880925</ele>
        <time>2024-07-27T14:30:25.547Z</time>
      </trkpt>
      <trkpt lat="54.15392" lon="15.36766">
        <ele>33.030628</ele>
        <time>2024-07-27T14:30:27.561Z</time>
      </trkpt>
      <trkpt lat="54.15393" lon="15.36781">
        <ele>33.179668</ele>
        <time>2024-07-27T14:30:29.547Z</time>
      </trkpt>
      <trkpt lat="54.15394" lon="15.36802">
        <ele>33.390787</ele>
        <time>2024-07-27T14:30:32.558Z</time>
      </trkpt>
      <trkpt lat="54.15398" lon="15.36823">
        <ele>33.597648</ele>
        <time>2024-07-27T14:30:35.546Z</time>
      </trkpt>
      <trkpt lat="54.15401" lon="15.36843">
        <ele>33.800222</ele>
        <time>2024-07-27T14:30:38.537Z</time>
      </trkpt>
      <trkpt lat="54.15404" lon="15.36864">
        <ele>34.012243</ele>
        <time>2024-07-27T14:30:41.563Z</time>
      </trkpt>
      <trkpt lat="54.15408" lon="15.36882">
        <ele>34.201558</ele>
        <time>2024-07-27T14:30:44.558Z</time>
      </trkpt>
      <trkpt lat="54.15411" lon="15.36902">
        <ele>34.396277</ele>
        <time>2024-07-27T14:30:47.541Z</time>
      </trkpt>
      <trkpt lat="54.15416" lon="15.36921">
        <ele>34.604468</ele>
        <time>2024-07-27T14:30:50.536Z</time>
      </trkpt>
      <trkpt lat="54.15419" lon="15.36943">
        <ele>34.819285</ele>
        <time>2024-07-27T14:30:53.554Z</time>
      </trkpt>
      <trkpt lat="54.15421" lon="15.36964">
        <ele>35.028257</ele>
        <time>2024-07-27T14:30:56.545Z</time>
      </trkpt>
      <trkpt lat="54.15423" lon="15.36986">
        <ele>35.250931</ele>
        <time>2024-07-27T14:30:59.535Z</time>
      </trkpt>
      <trkpt lat="54.15424" lon="15.37003">
        <ele>35.412728</ele>
        <time>2024-07-27T14:31:01.542Z</time>
      </trkpt>
      <trkpt lat="54.15424" lon="15.37025">
        <ele>35.627793</ele>
        <time>2024-07-27T14:31:04.531Z</time>
      </trkpt>
      <trkpt lat="54.15423" lon="15.37042">
        <ele>35.792487</ele>
        <time>2024-07-27T14:31:06.534Z</time>
      </trkpt>
      <trkpt lat="54.15422" lon="15.37058">
        <ele>35.875047</ele>
        <time>2024-07-27T14:31:08.543Z</time>
      </trkpt>
      <trkpt lat="54.15421" lon="15.37074">
        <ele>35.856723</ele>
        <time>2024-07-27T14:31:10.540Z</time>
      </trkpt>
      <trkpt lat="54.15419" lon="15.3709">
        <ele>35.838599</ele>
        <time>2024-07-27T14:31:12.524Z</time>
      </trkpt>
      <trkpt lat="54.15417" lon="15.37106">
        <ele>35.820032</ele>
        <time>2024-07-27T14:31:14.525Z</time>
      </trkpt>
      <trkpt lat="54.15417" lon="15.37128">
        <ele>35.79456</ele>
        <time>2024-07-27T14:31:17.532Z</time>
      </trkpt>
      <trkpt lat="54.15417" lon="15.3715">
        <ele>35.769912</ele>
        <time>2024-07-27T14:31:20.541Z</time>
      </trkpt>
      <trkpt lat="54.15417" lon="15.37166">
        <ele>35.752049</ele>
        <time>2024-07-27T14:31:22.540Z</time>
      </trkpt>
      <trkpt lat="54.15418" lon="15.37181">
        <ele>35.734571</ele>
        <time>2024-07-27T14:31:24.535Z</time>
      </trkpt>
      <trkpt lat="54.15421" lon="15.372">
        <ele>35.712433</ele>
        <time>2024-07-27T14:31:27.542Z</time>
      </trkpt>
      <trkpt lat="54.15424" lon="15.37219">
        <ele>35.690395</ele>
        <time>2024-07-27T14:31:30.527Z</time>
      </trkpt>
      <trkpt lat="54.15426" lon="15.37236">
        <ele>35.670531</ele>
        <time>2024-07-27T14:31:33.536Z</time>
      </trkpt>
      <trkpt lat="54.15429" lon="15.37255">
        <ele>35.648343</ele>
        <time>2024-07-27T14:31:36.534Z</time>
      </trkpt>
      <trkpt lat="54.15434" lon="15.37274">
        <ele>35.6242</ele>
        <time>2024-07-27T14:31:39.523Z</time>
      </trkpt>
      <trkpt lat="54.15438" lon="15.37295">
        <ele>35.599516</ele>
        <time>2024-07-27T14:31:42.531Z</time>
      </trkpt>
      <trkpt lat="54.15443" lon="15.37316">
        <ele>35.574698</ele>
        <time>2024-07-27T14:31:45.533Z</time>
      </trkpt>
      <trkpt lat="54.15446" lon="15.3733">
        <ele>35.557217</ele>
        <time>2024-07-27T14:31:47.537Z</time>
      </trkpt>
      <trkpt lat="54.15451" lon="15.37351">
        <ele>35.511647</ele>
        <time>2024-07-27T14:31:50.525Z</time>
      </trkpt>
      <trkpt lat="54.15454" lon="15.37366">
        <ele>35.405056</ele>
        <time>2024-07-27T14:31:52.532Z</time>
      </trkpt>
      <trkpt lat="54.15455" lon="15.37382">
        <ele>35.300641</ele>
        <time>2024-07-27T14:31:54.533Z</time>
      </trkpt>
      <trkpt lat="54.15456" lon="15.37399">
        <ele>35.184654</ele>
        <time>2024-07-27T14:31:56.541Z</time>
      </trkpt>
      <trkpt lat="54.15456" lon="15.37416">
        <ele>35.071155</ele>
        <time>2024-07-27T14:31:58.542Z</time>
      </trkpt>
      <trkpt lat="54.15457" lon="15.37432">
        <ele>34.958804</ele>
        <time>2024-07-27T14:32:00.539Z</time>
      </trkpt>
      <trkpt lat="54.15457" lon="15.37449">
        <ele>34.844519</ele>
        <time>2024-07-27T14:32:02.539Z</time>
      </trkpt>
      <trkpt lat="54.15459" lon="15.37467">
        <ele>34.728491</ele>
        <time>2024-07-27T14:32:04.547Z</time>
      </trkpt>
      <trkpt lat="54.1546" lon="15.37484">
        <ele>34.612039</ele>
        <time>2024-07-27T14:32:06.535Z</time>
      </trkpt>
      <trkpt lat="54.1546" lon="15.375">
        <ele>34.505792</ele>
        <time>2024-07-27T14:32:08.526Z</time>
      </trkpt>
      <trkpt lat="54.15461" lon="15.37515">
        <ele>34.400282</ele>
        <time>2024-07-27T14:32:10.523Z</time>
      </trkpt>
      <trkpt lat="54.15462" lon="15.37532">
        <ele>34.289081</ele>
        <time>2024-07-27T14:32:12.536Z</time>
      </trkpt>
      <trkpt lat="54.15463" lon="15.37548">
        <ele>34.177311</ele>
        <time>2024-07-27T14:32:14.538Z</time>
      </trkpt>
      <trkpt lat="54.15463" lon="15.37565">
        <ele>34.063761</ele>
        <time>2024-07-27T14:32:16.535Z</time>
      </trkpt>
      <trkpt lat="54.15463" lon="15.37583">
        <ele>33.947648</ele>
        <time>2024-07-27T14:32:18.534Z</time>
      </trkpt>
      <trkpt lat="54.15463" lon="15.37599">
        <ele>33.834913</ele>
        <time>2024-07-27T14:32:20.544Z</time>
      </trkpt>
      <trkpt lat="54.15463" lon="15.37616">
        <ele>33.722848</ele>
        <time>2024-07-27T14:32:22.530Z</time>
      </trkpt>
      <trkpt lat="54.15462" lon="15.37638">
        <ele>33.574775</ele>
        <time>2024-07-27T14:32:25.551Z</time>
      </trkpt>
      <trkpt lat="54.15461" lon="15.37659">
        <ele>33.47449</ele>
        <time>2024-07-27T14:32:28.525Z</time>
      </trkpt>
      <trkpt lat="54.1546" lon="15.37675">
        <ele>33.474122</ele>
        <time>2024-07-27T14:32:30.543Z</time>
      </trkpt>
      <trkpt lat="54.15459" lon="15.37691">
        <ele>33.473757</ele>
        <time>2024-07-27T14:32:32.516Z</time>
      </trkpt>
      <trkpt lat="54.15459" lon="15.37707">
        <ele>33.473404</ele>
        <time>2024-07-27T14:32:34.520Z</time>
      </trkpt>
      <trkpt lat="54.15457" lon="15.37723">
        <ele>33.473027</ele>
        <time>2024-07-27T14:32:36.542Z</time>
      </trkpt>
      <trkpt lat="54.15456" lon="15.37746">
        <ele>33.472525</ele>
        <time>2024-07-27T14:32:39.543Z</time>
      </trkpt>
      <trkpt lat="54.15454" lon="15.37761">
        <ele>33.472174</ele>
        <time>2024-07-27T14:32:41.534Z</time>
      </trkpt>
      <trkpt lat="54.15454" lon="15.37776">
        <ele>33.471826</ele>
        <time>2024-07-27T14:32:43.546Z</time>
      </trkpt>
      <trkpt lat="54.15453" lon="15.37799">
        <ele>33.471326</ele>
        <time>2024-07-27T14:32:46.536Z</time>
      </trkpt>
      <trkpt lat="54.15451" lon="15.37822">
        <ele>33.470808</ele>
        <time>2024-07-27T14:32:49.531Z</time>
      </trkpt>
      <trkpt lat="54.15451" lon="15.37838">
        <ele>33.470443</ele>
        <time>2024-07-27T14:32:51.533Z</time>
      </trkpt>
      <trkpt lat="54.1545" lon="15.37853">
        <ele>33.47009</ele>
        <time>2024-07-27T14:32:53.540Z</time>
      </trkpt>
      <trkpt lat="54.15449" lon="15.3787">
        <ele>33.469723</ele>
        <time>2024-07-27T14:32:55.538Z</time>
      </trkpt>
      <trkpt lat="54.15448" lon="15.37886">
        <ele>33.469353</ele>
        <time>2024-07-27T14:32:57.529Z</time>
      </trkpt>
      <trkpt lat="54.15447" lon="15.37902">
        <ele>33.468979</ele>
        <time>2024-07-27T14:32:59.538Z</time>
      </trkpt>
      <trkpt lat="54.15446" lon="15.37919">
        <ele>33.468611</ele>
        <time>2024-07-27T14:33:01.537Z</time>
      </trkpt>
      <trkpt lat="54.15445" lon="15.37935">
        <ele>33.468243</ele>
        <time>2024-07-27T14:33:03.536Z</time>
      </trkpt>
      <trkpt lat="54.15445" lon="15.37951">
        <ele>33.467883</ele>
        <time>2024-07-27T14:33:05.525Z</time>
      </trkpt>
      <trkpt lat="54.15443" lon="15.37967">
        <ele>33.50401</ele>
        <time>2024-07-27T14:33:07.533Z</time>
      </trkpt>
      <trkpt lat="54.15442" lon="15.37982">
        <ele>33.573873</ele>
        <time>2024-07-27T14:33:09.532Z</time>
      </trkpt>
      <trkpt lat="54.15442" lon="15.37999">
        <ele>33.647015</ele>
        <time>2024-07-27T14:33:11.522Z</time>
      </trkpt>
      <trkpt lat="54.15442" lon="15.38016">
        <ele>33.721038</ele>
        <time>2024-07-27T14:33:13.542Z</time>
      </trkpt>
      <trkpt lat="54.15443" lon="15.38039">
        <ele>33.822198</ele>
        <time>2024-07-27T14:33:16.515Z</time>
      </trkpt>
      <trkpt lat="54.15444" lon="15.38062">
        <ele>33.922817</ele>
        <time>2024-07-27T14:33:19.532Z</time>
      </trkpt>
      <trkpt lat="54.15445" lon="15.38083">
        <ele>34.019426</ele>
        <time>2024-07-27T14:33:22.532Z</time>
      </trkpt>
      <trkpt lat="54.15447" lon="15.38099">
        <ele>34.087532</ele>
        <time>2024-07-27T14:33:24.535Z</time>
      </trkpt>
      <trkpt lat="54.15447" lon="15.38121">
        <ele>34.186695</ele>
        <time>2024-07-27T14:33:27.557Z</time>
      </trkpt>
      <trkpt lat="54.15448" lon="15.38137">
        <ele>34.256265</ele>
        <time>2024-07-27T14:33:29.558Z</time>
      </trkpt>
      <trkpt lat="54.1545" lon="15.38152">
        <ele>34.325753</ele>
        <time>2024-07-27T14:33:31.543Z</time>
      </trkpt>
      <trkpt lat="54.15452" lon="15.38174">
        <ele>34.423078</ele>
        <time>2024-07-27T14:33:34.554Z</time>
      </trkpt>
      <trkpt lat="54.15454" lon="15.3819">
        <ele>34.494894</ele>
        <time>2024-07-27T14:33:36.545Z</time>
      </trkpt>
      <trkpt lat="54.15456" lon="15.38213">
        <ele>34.597246</ele>
        <time>2024-07-27T14:33:39.539Z</time>
      </trkpt>
      <trkpt lat="54.15458" lon="15.38228">
        <ele>34.665736</ele>
        <time>2024-07-27T14:33:41.534Z</time>
      </trkpt>
      <trkpt lat="54.15461" lon="15.3825">
        <ele>34.763622</ele>
        <time>2024-07-27T14:33:44.544Z</time>
      </trkpt>
      <trkpt lat="54.15465" lon="15.38271">
        <ele>34.796602</ele>
        <time>2024-07-27T14:33:47.541Z</time>
      </trkpt>
      <trkpt lat="54.15468" lon="15.38286">
        <ele>34.756157</ele>
        <time>2024-07-27T14:33:49.537Z</time>
      </trkpt>
      <trkpt lat="54.15473" lon="15.38308">
        <ele>34.695444</ele>
        <time>2024-07-27T14:33:52.535Z</time>
      </trkpt>
      <trkpt lat="54.15477" lon="15.3833">
        <ele>34.634923</ele>
        <time>2024-07-27T14:33:55.544Z</time>
      </trkpt>
      <trkpt lat="54.15479" lon="15.38346">
        <ele>34.593349</ele>
        <time>2024-07-27T14:33:57.535Z</time>
      </trkpt>
      <trkpt lat="54.15483" lon="15.38361">
        <ele>34.55114</ele>
        <time>2024-07-27T14:33:59.522Z</time>
      </trkpt>
      <trkpt lat="54.1549" lon="15.38381">
        <ele>34.490476</ele>
        <time>2024-07-27T14:34:02.536Z</time>
      </trkpt>
      <trkpt lat="54.15494" lon="15.38395">
        <ele>34.449708</ele>
        <time>2024-07-27T14:34:04.540Z</time>
      </trkpt>
      <trkpt lat="54.15498" lon="15.38409">
        <ele>34.409343</ele>
        <time>2024-07-27T14:34:06.529Z</time>
      </trkpt>
      <trkpt lat="54.15503" lon="15.38423">
        <ele>34.368297</ele>
        <time>2024-07-27T14:34:08.515Z</time>
      </trkpt>
      <trkpt lat="54.15507" lon="15.38437">
        <ele>34.327442</ele>
        <time>2024-07-27T14:34:10.538Z</time>
      </trkpt>
      <trkpt lat="54.15512" lon="15.38451">
        <ele>34.284823</ele>
        <time>2024-07-27T14:34:12.539Z</time>
      </trkpt>
      <trkpt lat="54.15516" lon="15.38465">
        <ele>34.244454</ele>
        <time>2024-07-27T14:34:14.551Z</time>
      </trkpt>
      <trkpt lat="54.15521" lon="15.38478">
        <ele>34.204309</ele>
        <time>2024-07-27T14:34:16.554Z</time>
      </trkpt>
      <trkpt lat="54.15528" lon="15.38499">
        <ele>34.143196</ele>
        <time>2024-07-27T14:34:19.550Z</time>
      </trkpt>
      <trkpt lat="54.15532" lon="15.38513">
        <ele>34.101242</ele>
        <time>2024-07-27T14:34:21.539Z</time>
      </trkpt>
      <trkpt lat="54.15537" lon="15.38527">
        <ele>34.058413</ele>
        <time>2024-07-27T14:34:23.543Z</time>
      </trkpt>
      <trkpt lat="54.15544" lon="15.38547">
        <ele>34.057342</ele>
        <time>2024-07-27T14:34:26.536Z</time>
      </trkpt>
      <trkpt lat="54.15551" lon="15.38566">
        <ele>34.124576</ele>
        <time>2024-07-27T14:34:29.541Z</time>
      </trkpt>
      <trkpt lat="54.15554" lon="15.38581">
        <ele>34.171157</ele>
        <time>2024-07-27T14:34:31.560Z</time>
      </trkpt>
      <trkpt lat="54.15559" lon="15.38595">
        <ele>34.218674</ele>
        <time>2024-07-27T14:34:33.537Z</time>
      </trkpt>
      <trkpt lat="54.15564" lon="15.38609">
        <ele>34.267947</ele>
        <time>2024-07-27T14:34:35.544Z</time>
      </trkpt>
      <trkpt lat="54.1557" lon="15.38629">
        <ele>34.331465</ele>
        <time>2024-07-27T14:34:38.541Z</time>
      </trkpt>
      <trkpt lat="54.15575" lon="15.38644">
        <ele>34.383516</ele>
        <time>2024-07-27T14:34:41.554Z</time>
      </trkpt>
      <trkpt lat="54.15581" lon="15.38664">
        <ele>34.447635</ele>
        <time>2024-07-27T14:34:44.537Z</time>
      </trkpt>
      <trkpt lat="54.15587" lon="15.38683">
        <ele>34.511067</ele>
        <time>2024-07-27T14:34:47.536Z</time>
      </trkpt>
      <trkpt lat="54.15593" lon="15.38699">
        <ele>34.567461</ele>
        <time>2024-07-27T14:34:50.534Z</time>
      </trkpt>
      <trkpt lat="54.15598" lon="15.38716">
        <ele>34.623731</ele>
        <time>2024-07-27T14:34:53.539Z</time>
      </trkpt>
      <trkpt lat="54.15603" lon="15.38734">
        <ele>34.68119</ele>
        <time>2024-07-27T14:34:56.517Z</time>
      </trkpt>
      <trkpt lat="54.15608" lon="15.38751">
        <ele>34.737942</ele>
        <time>2024-07-27T14:34:59.542Z</time>
      </trkpt>
      <trkpt lat="54.15614" lon="15.38767">
        <ele>34.793531</ele>
        <time>2024-07-27T14:35:02.548Z</time>
      </trkpt>
      <trkpt lat="54.1562" lon="15.38784">
        <ele>34.851923</ele>
        <time>2024-07-27T14:35:05.546Z</time>
      </trkpt>
      <trkpt lat="54.15626" lon="15.38802">
        <ele>34.910853</ele>
        <time>2024-07-27T14:35:08.536Z</time>
      </trkpt>
      <trkpt lat="54.15631" lon="15.3882">
        <ele>34.877362</ele>
        <time>2024-07-27T14:35:11.536Z</time>
      </trkpt>
      <trkpt lat="54.15636" lon="15.38835">
        <ele>34.82277</ele>
        <time>2024-07-27T14:35:14.548Z</time>
      </trkpt>
      <trkpt lat="54.15645" lon="15.38844">
        <ele>34.766626</ele>
        <time>2024-07-27T14:35:21.587Z</time>
      </trkpt>
      <trkpt lat="54.15654" lon="15.38848">
        <ele>34.71264</ele>
        <time>2024-07-27T14:35:25.566Z</time>
      </trkpt>
      <trkpt lat="54.15657" lon="15.38864">
        <ele>34.660554</ele>
        <time>2024-07-27T14:35:28.553Z</time>
      </trkpt>
      <trkpt lat="54.15661" lon="15.38879">
        <ele>34.604059</ele>
        <time>2024-07-27T14:35:31.533Z</time>
      </trkpt>
      <trkpt lat="54.15665" lon="15.38895">
        <ele>34.548981</ele>
        <time>2024-07-27T14:35:34.525Z</time>
      </trkpt>
      <trkpt lat="54.15669" lon="15.38908">
        <ele>34.498336</ele>
        <time>2024-07-27T14:35:37.538Z</time>
      </trkpt>
      <trkpt lat="54.15674" lon="15.38923">
        <ele>34.444893</ele>
        <time>2024-07-27T14:35:40.542Z</time>
      </trkpt>
      <trkpt lat="54.15679" lon="15.38937">
        <ele>34.390045</ele>
        <time>2024-07-27T14:35:43.555Z</time>
      </trkpt>
      <trkpt lat="54.15684" lon="15.38952">
        <ele>34.335197</ele>
        <time>2024-07-27T14:35:46.539Z</time>
      </trkpt>
      <trkpt lat="54.15689" lon="15.38966">
        <ele>34.280053</ele>
        <time>2024-07-27T14:35:49.542Z</time>
      </trkpt>
      <trkpt lat="54.15695" lon="15.3898">
        <ele>34.226224</ele>
        <time>2024-07-27T14:35:52.540Z</time>
      </trkpt>
      <trkpt lat="54.15699" lon="15.38993">
        <ele>34.174739</ele>
        <time>2024-07-27T14:35:55.558Z</time>
      </trkpt>
      <trkpt lat="54.15706" lon="15.3901">
        <ele>34.110681</ele>
        <time>2024-07-27T14:35:59.537Z</time>
      </trkpt>
      <trkpt lat="54.15711" lon="15.39023">
        <ele>34.05977</ele>
        <time>2024-07-27T14:36:03.535Z</time>
      </trkpt>
      <trkpt lat="54.15716" lon="15.3904">
        <ele>33.996887</ele>
        <time>2024-07-27T14:36:08.550Z</time>
      </trkpt>
      <trkpt lat="54.15721" lon="15.39057">
        <ele>33.933315</ele>
        <time>2024-07-27T14:36:13.556Z</time>
      </trkpt>
      <trkpt lat="54.15727" lon="15.39072">
        <ele>33.909986</ele>
        <time>2024-07-27T14:36:17.534Z</time>
      </trkpt>
      <trkpt lat="54.15731" lon="15.39086">
        <ele>33.894353</ele>
        <time>2024-07-27T14:36:20.539Z</time>
      </trkpt>
      <trkpt lat="54.15735" lon="15.39104">
        <ele>33.875427</ele>
        <time>2024-07-27T14:36:23.549Z</time>
      </trkpt>
      <trkpt lat="54.15741" lon="15.39121">
        <ele>33.855732</ele>
        <time>2024-07-27T14:36:26.548Z</time>
      </trkpt>
      <trkpt lat="54.15748" lon="15.39138">
        <ele>33.835196</ele>
        <time>2024-07-27T14:36:29.529Z</time>
      </trkpt>
      <trkpt lat="54.15753" lon="15.39157">
        <ele>33.814051</ele>
        <time>2024-07-27T14:36:32.550Z</time>
      </trkpt>
      <trkpt lat="54.15758" lon="15.39171">
        <ele>33.798822</ele>
        <time>2024-07-27T14:36:34.538Z</time>
      </trkpt>
      <trkpt lat="54.15762" lon="15.39185">
        <ele>33.783029</ele>
        <time>2024-07-27T14:36:36.541Z</time>
      </trkpt>
      <trkpt lat="54.15768" lon="15.39205">
        <ele>33.760437</ele>
        <time>2024-07-27T14:36:39.542Z</time>
      </trkpt>
      <trkpt lat="54.15774" lon="15.39225">
        <ele>33.73777</ele>
        <time>2024-07-27T14:36:42.542Z</time>
      </trkpt>
      <trkpt lat="54.15778" lon="15.39239">
        <ele>33.722423</ele>
        <time>2024-07-27T14:36:44.551Z</time>
      </trkpt>
      <trkpt lat="54.15783" lon="15.39253">
        <ele>33.707186</ele>
        <time>2024-07-27T14:36:46.540Z</time>
      </trkpt>
      <trkpt lat="54.15789" lon="15.39272">
        <ele>33.68527</ele>
        <time>2024-07-27T14:36:49.536Z</time>
      </trkpt>
      <trkpt lat="54.15794" lon="15.39291">
        <ele>33.664721</ele>
        <time>2024-07-27T14:36:52.529Z</time>
      </trkpt>
      <trkpt lat="54.158" lon="15.3931">
        <ele>33.643497</ele>
        <time>2024-07-27T14:36:55.559Z</time>
      </trkpt>
      <trkpt lat="54.15806" lon="15.39327">
        <ele>33.623229</ele>
        <time>2024-07-27T14:36:58.555Z</time>
      </trkpt>
      <trkpt lat="54.15811" lon="15.39344">
        <ele>33.640891</ele>
        <time>2024-07-27T14:37:01.534Z</time>
      </trkpt>
      <trkpt lat="54.15816" lon="15.39361">
        <ele>33.665254</ele>
        <time>2024-07-27T14:37:04.538Z</time>
      </trkpt>
      <trkpt lat="54.1582" lon="15.39376">
        <ele>33.686414</ele>
        <time>2024-07-27T14:37:07.556Z</time>
      </trkpt>
      <trkpt lat="54.15824" lon="15.3939">
        <ele>33.706469</ele>
        <time>2024-07-27T14:37:10.545Z</time>
      </trkpt>
      <trkpt lat="54.1583" lon="15.39404">
        <ele>33.727712</ele>
        <time>2024-07-27T14:37:14.540Z</time>
      </trkpt>
      <trkpt lat="54.15827" lon="15.39419">
        <ele>33.748762</ele>
        <time>2024-07-27T14:37:20.539Z</time>
      </trkpt>
      <trkpt lat="54.15826" lon="15.39436">
        <ele>33.769666</ele>
        <time>2024-07-27T14:37:24.538Z</time>
      </trkpt>
      <trkpt lat="54.15818" lon="15.39444">
        <ele>33.789754</ele>
        <time>2024-07-27T14:37:28.552Z</time>
      </trkpt>
      <trkpt lat="54.1581" lon="15.3945">
        <ele>33.809561</ele>
        <time>2024-07-27T14:37:32.528Z</time>
      </trkpt>
      <trkpt lat="54.158" lon="15.39456">
        <ele>33.832454</ele>
        <time>2024-07-27T14:37:35.563Z</time>
      </trkpt>
      <trkpt lat="54.1579" lon="15.39463">
        <ele>33.855176</ele>
        <time>2024-07-27T14:37:38.574Z</time>
      </trkpt>
      <trkpt lat="54.15782" lon="15.39469">
        <ele>33.875609</ele>
        <time>2024-07-27T14:37:41.557Z</time>
      </trkpt>
      <trkpt lat="54.15771" lon="15.39476">
        <ele>33.901185</ele>
        <time>2024-07-27T14:37:45.538Z</time>
      </trkpt>
      <trkpt lat="54.15762" lon="15.3948">
        <ele>33.921057</ele>
        <time>2024-07-27T14:37:48.536Z</time>
      </trkpt>
      <trkpt lat="54.15752" lon="15.39487">
        <ele>33.943572</ele>
        <time>2024-07-27T14:37:51.541Z</time>
      </trkpt>
      <trkpt lat="54.15741" lon="15.39493">
        <ele>33.968229</ele>
        <time>2024-07-27T14:37:54.547Z</time>
      </trkpt>
      <trkpt lat="54.15731" lon="15.39498">
        <ele>33.992124</ele>
        <time>2024-07-27T14:37:57.535Z</time>
      </trkpt>
      <trkpt lat="54.15719" lon="15.39505">
        <ele>34.007698</ele>
        <time>2024-07-27T14:38:00.548Z</time>
      </trkpt>
      <trkpt lat="54.15708" lon="15.39512">
        <ele>33.997582</ele>
        <time>2024-07-27T14:38:03.536Z</time>
      </trkpt>
      <trkpt lat="54.15698" lon="15.3952">
        <ele>33.987579</ele>
        <time>2024-07-27T14:38:06.540Z</time>
      </trkpt>
      <trkpt lat="54.15688" lon="15.39529">
        <ele>33.977162</ele>
        <time>2024-07-27T14:38:09.541Z</time>
      </trkpt>
      <trkpt lat="54.15676" lon="15.39536">
        <ele>33.965752</ele>
        <time>2024-07-27T14:38:12.558Z</time>
      </trkpt>
      <trkpt lat="54.15665" lon="15.39544">
        <ele>33.954712</ele>
        <time>2024-07-27T14:38:15.547Z</time>
      </trkpt>
      <trkpt lat="54.15653" lon="15.39552">
        <ele>33.943673</ele>
        <time>2024-07-27T14:38:18.542Z</time>
      </trkpt>
      <trkpt lat="54.15641" lon="15.39559">
        <ele>33.931494</ele>
        <time>2024-07-27T14:38:21.558Z</time>
      </trkpt>
      <trkpt lat="54.15628" lon="15.39568">
        <ele>33.919746</ele>
        <time>2024-07-27T14:38:24.522Z</time>
      </trkpt>
      <trkpt lat="54.15617" lon="15.39577">
        <ele>33.908144</ele>
        <time>2024-07-27T14:38:27.539Z</time>
      </trkpt>
      <trkpt lat="54.15605" lon="15.39587">
        <ele>33.89614</ele>
        <time>2024-07-27T14:38:30.545Z</time>
      </trkpt>
      <trkpt lat="54.15596" lon="15.39593">
        <ele>33.887832</ele>
        <time>2024-07-27T14:38:32.544Z</time>
      </trkpt>
      <trkpt lat="54.15588" lon="15.396">
        <ele>33.879488</ele>
        <time>2024-07-27T14:38:34.539Z</time>
      </trkpt>
      <trkpt lat="54.1558" lon="15.39607">
        <ele>33.870948</ele>
        <time>2024-07-27T14:38:36.526Z</time>
      </trkpt>
      <trkpt lat="54.15571" lon="15.39614">
        <ele>33.862061</ele>
        <time>2024-07-27T14:38:38.545Z</time>
      </trkpt>
      <trkpt lat="54.15562" lon="15.39619">
        <ele>33.853536</ele>
        <time>2024-07-27T14:38:40.536Z</time>
      </trkpt>
      <trkpt lat="54.15553" lon="15.39623">
        <ele>33.807235</ele>
        <time>2024-07-27T14:38:42.525Z</time>
      </trkpt>
      <trkpt lat="54.15544" lon="15.39628">
        <ele>33.715078</ele>
        <time>2024-07-27T14:38:44.547Z</time>
      </trkpt>
      <trkpt lat="54.15531" lon="15.39632">
        <ele>33.589622</ele>
        <time>2024-07-27T14:38:47.551Z</time>
      </trkpt>
      <trkpt lat="54.15519" lon="15.39637">
        <ele>33.470274</ele>
        <time>2024-07-27T14:38:50.536Z</time>
      </trkpt>
      <trkpt lat="54.15508" lon="15.3964">
        <ele>33.355304</ele>
        <time>2024-07-27T14:38:53.542Z</time>
      </trkpt>
      <trkpt lat="54.15495" lon="15.39644">
        <ele>33.230878</ele>
        <time>2024-07-27T14:38:56.534Z</time>
      </trkpt>
      <trkpt lat="54.15482" lon="15.39649">
        <ele>33.101718</ele>
        <time>2024-07-27T14:38:59.543Z</time>
      </trkpt>
      <trkpt lat="54.15473" lon="15.39652">
        <ele>33.012774</ele>
        <time>2024-07-27T14:39:01.570Z</time>
      </trkpt>
      <trkpt lat="54.1546" lon="15.39657">
        <ele>32.88244</ele>
        <time>2024-07-27T14:39:04.541Z</time>
      </trkpt>
      <trkpt lat="54.15448" lon="15.39664">
        <ele>32.755257</ele>
        <time>2024-07-27T14:39:07.536Z</time>
      </trkpt>
      <trkpt lat="54.15435" lon="15.39667">
        <ele>32.628231</ele>
        <time>2024-07-27T14:39:10.514Z</time>
      </trkpt>
      <trkpt lat="54.15423" lon="15.39673">
        <ele>32.502972</ele>
        <time>2024-07-27T14:39:13.548Z</time>
      </trkpt>
      <trkpt lat="54.15411" lon="15.39679">
        <ele>32.386161</ele>
        <time>2024-07-27T14:39:16.550Z</time>
      </trkpt>
      <trkpt lat="54.154" lon="15.39685">
        <ele>32.265592</ele>
        <time>2024-07-27T14:39:19.549Z</time>
      </trkpt>
      <trkpt lat="54.15387" lon="15.39685">
        <ele>32.144169</ele>
        <time>2024-07-27T14:39:22.542Z</time>
      </trkpt>
      <trkpt lat="54.15375" lon="15.39688">
        <ele>32.101935</ele>
        <time>2024-07-27T14:39:25.543Z</time>
      </trkpt>
      <trkpt lat="54.15362" lon="15.39693">
        <ele>32.130528</ele>
        <time>2024-07-27T14:39:28.536Z</time>
      </trkpt>
      <trkpt lat="54.15349" lon="15.39698">
        <ele>32.15915</ele>
        <time>2024-07-27T14:39:31.542Z</time>
      </trkpt>
      <trkpt lat="54.15337" lon="15.39703">
        <ele>32.1867</ele>
        <time>2024-07-27T14:39:34.520Z</time>
      </trkpt>
      <trkpt lat="54.15325" lon="15.39705">
        <ele>32.213882</ele>
        <time>2024-07-27T14:39:37.548Z</time>
      </trkpt>
      <trkpt lat="54.15311" lon="15.3971">
        <ele>32.243211</ele>
        <time>2024-07-27T14:39:40.538Z</time>
      </trkpt>
      <trkpt lat="54.15299" lon="15.39714">
        <ele>32.271467</ele>
        <time>2024-07-27T14:39:43.533Z</time>
      </trkpt>
      <trkpt lat="54.15286" lon="15.39719">
        <ele>32.299126</ele>
        <time>2024-07-27T14:39:46.557Z</time>
      </trkpt>
      <trkpt lat="54.15274" lon="15.39726">
        <ele>32.32689</ele>
        <time>2024-07-27T14:39:49.559Z</time>
      </trkpt>
      <trkpt lat="54.15263" lon="15.39734">
        <ele>32.352179</ele>
        <time>2024-07-27T14:39:52.538Z</time>
      </trkpt>
      <trkpt lat="54.15254" lon="15.39746">
        <ele>32.378312</ele>
        <time>2024-07-27T14:39:55.550Z</time>
      </trkpt>
      <trkpt lat="54.15245" lon="15.39761">
        <ele>32.404117</ele>
        <time>2024-07-27T14:39:58.546Z</time>
      </trkpt>
      <trkpt lat="54.1524" lon="15.39778">
        <ele>32.429491</ele>
        <time>2024-07-27T14:40:01.541Z</time>
      </trkpt>
      <trkpt lat="54.15236" lon="15.39796">
        <ele>32.453319</ele>
        <time>2024-07-27T14:40:04.524Z</time>
      </trkpt>
      <trkpt lat="54.15233" lon="15.39814">
        <ele>32.478199</ele>
        <time>2024-07-27T14:40:07.562Z</time>
      </trkpt>
      <trkpt lat="54.1523" lon="15.39832">
        <ele>32.47859</ele>
        <time>2024-07-27T14:40:10.546Z</time>
      </trkpt>
      <trkpt lat="54.15225" lon="15.39848">
        <ele>32.47859</ele>
        <time>2024-07-27T14:40:13.608Z</time>
      </trkpt>
      <trkpt lat="54.15219" lon="15.39866">
        <ele>32.47859</ele>
        <time>2024-07-27T14:40:16.555Z</time>
      </trkpt>
      <trkpt lat="54.15211" lon="15.39881">
        <ele>32.47859</ele>
        <time>2024-07-27T14:40:19.566Z</time>
      </trkpt>
      <trkpt lat="54.15201" lon="15.39895">
        <ele>32.47859</ele>
        <time>2024-07-27T14:40:22.559Z</time>
      </trkpt>
      <trkpt lat="54.15191" lon="15.39906">
        <ele>32.47859</ele>
        <time>2024-07-27T14:40:25.543Z</time>
      </trkpt>
      <trkpt lat="54.15181" lon="15.39916">
        <ele>32.47859</ele>
        <time>2024-07-27T14:40:28.681Z</time>
      </trkpt>
      <trkpt lat="54.15172" lon="15.39927">
        <ele>32.47859</ele>
        <time>2024-07-27T14:40:31.531Z</time>
      </trkpt>
      <trkpt lat="54.15164" lon="15.39938">
        <ele>32.47859</ele>
        <time>2024-07-27T14:40:34.536Z</time>
      </trkpt>
      <trkpt lat="54.15155" lon="15.39948">
        <ele>32.47859</ele>
        <time>2024-07-27T14:40:38.519Z</time>
      </trkpt>
      <trkpt lat="54.15146" lon="15.39959">
        <ele>32.47859</ele>
        <time>2024-07-27T14:40:43.531Z</time>
      </trkpt>
      <trkpt lat="54.15138" lon="15.39967">
        <ele>32.47859</ele>
        <time>2024-07-27T14:40:48.539Z</time>
      </trkpt>
      <trkpt lat="54.1513" lon="15.39973">
        <ele>32.47859</ele>
        <time>2024-07-27T14:40:54.519Z</time>
      </trkpt>
      <trkpt lat="54.15122" lon="15.39982">
        <ele>32.47859</ele>
        <time>2024-07-27T14:41:01.524Z</time>
      </trkpt>
    </trkseg>
  </trk>
</gpx>